<?xml version="1.0" encoding="UTF-8" standalone="no" ?>
<gpx xmlns="http://www.topografix.com/GPX/1/1" xmlns:xsi="http://www.w3.org/2001/XMLSchema-instance" xsi:schemaLocation="http://www.topografix.com/GPX/1/1 http://www.topografix.com/GPX/1/1/gpx.xsd" version="1.1" creator="VisuGPX - https://www.visugpx.com">
  <metadata>
    <name>74 - D+ - Samoens</name>
    <desc><![CDATA[74 - D+ - Samoens J6 - lac de Joux - la Bourgeoise - pointe de Chamoissière ]]></desc>
  </metadata>
  <trk>
    <name><![CDATA[Samoens J6 -  Col de Joux la Bourgeoise 2026-06-27-01]]></name>
    <trkseg>
      <trkpt lat="46.12875" lon="6.71338">
        <ele>1625.9</ele>
        <time>2026-06-27T06:32:50Z</time>
      </trkpt>
      <trkpt lat="46.12875" lon="6.71338">
        <ele>1625.9</ele>
        <time>2026-06-27T06:32:51Z</time>
      </trkpt>
      <trkpt lat="46.12875" lon="6.71338">
        <ele>1638.3</ele>
        <time>2026-06-27T06:32:52Z</time>
      </trkpt>
      <trkpt lat="46.12875" lon="6.71338">
        <ele>1648.4</ele>
        <time>2026-06-27T06:32:53Z</time>
      </trkpt>
      <trkpt lat="46.12876" lon="6.71338">
        <ele>1656.6</ele>
        <time>2026-06-27T06:32:54Z</time>
      </trkpt>
      <trkpt lat="46.12877" lon="6.71337">
        <ele>1663.4</ele>
        <time>2026-06-27T06:32:55Z</time>
      </trkpt>
      <trkpt lat="46.12876" lon="6.71337">
        <ele>1668.9</ele>
        <time>2026-06-27T06:32:56Z</time>
      </trkpt>
      <trkpt lat="46.12878" lon="6.71336">
        <ele>1673.4</ele>
        <time>2026-06-27T06:32:57Z</time>
      </trkpt>
      <trkpt lat="46.12877" lon="6.71337">
        <ele>1676.9</ele>
        <time>2026-06-27T06:32:58Z</time>
      </trkpt>
      <trkpt lat="46.12877" lon="6.71337">
        <ele>1679.9</ele>
        <time>2026-06-27T06:32:59Z</time>
      </trkpt>
      <trkpt lat="46.12878" lon="6.71338">
        <ele>1682.3</ele>
        <time>2026-06-27T06:33:00Z</time>
      </trkpt>
      <trkpt lat="46.12878" lon="6.71338">
        <ele>1684.2</ele>
        <time>2026-06-27T06:33:01Z</time>
      </trkpt>
      <trkpt lat="46.12877" lon="6.71338">
        <ele>1685.8</ele>
        <time>2026-06-27T06:33:02Z</time>
      </trkpt>
      <trkpt lat="46.12877" lon="6.71339">
        <ele>1687</ele>
        <time>2026-06-27T06:33:03Z</time>
      </trkpt>
      <trkpt lat="46.12878" lon="6.71339">
        <ele>1688.1</ele>
        <time>2026-06-27T06:33:04Z</time>
      </trkpt>
      <trkpt lat="46.12878" lon="6.71339">
        <ele>1688.9</ele>
        <time>2026-06-27T06:33:05Z</time>
      </trkpt>
      <trkpt lat="46.12878" lon="6.71339">
        <ele>1689.6</ele>
        <time>2026-06-27T06:33:06Z</time>
      </trkpt>
      <trkpt lat="46.12877" lon="6.7134">
        <ele>1690.1</ele>
        <time>2026-06-27T06:33:07Z</time>
      </trkpt>
      <trkpt lat="46.12877" lon="6.7134">
        <ele>1690.6</ele>
        <time>2026-06-27T06:33:08Z</time>
      </trkpt>
      <trkpt lat="46.12877" lon="6.71341">
        <ele>1690.8</ele>
        <time>2026-06-27T06:33:09Z</time>
      </trkpt>
      <trkpt lat="46.12876" lon="6.71341">
        <ele>1691</ele>
        <time>2026-06-27T06:33:10Z</time>
      </trkpt>
      <trkpt lat="46.12876" lon="6.71341">
        <ele>1691.2</ele>
        <time>2026-06-27T06:33:11Z</time>
      </trkpt>
      <trkpt lat="46.12877" lon="6.71341">
        <ele>1691.4</ele>
        <time>2026-06-27T06:33:12Z</time>
      </trkpt>
      <trkpt lat="46.12876" lon="6.71341">
        <ele>1691.5</ele>
        <time>2026-06-27T06:33:13Z</time>
      </trkpt>
      <trkpt lat="46.12876" lon="6.71341">
        <ele>1691.7</ele>
        <time>2026-06-27T06:33:14Z</time>
      </trkpt>
      <trkpt lat="46.12876" lon="6.71341">
        <ele>1691.8</ele>
        <time>2026-06-27T06:33:15Z</time>
      </trkpt>
      <trkpt lat="46.12876" lon="6.7134">
        <ele>1691.9</ele>
        <time>2026-06-27T06:33:16Z</time>
      </trkpt>
      <trkpt lat="46.12876" lon="6.7134">
        <ele>1692</ele>
        <time>2026-06-27T06:33:17Z</time>
      </trkpt>
      <trkpt lat="46.12875" lon="6.7134">
        <ele>1692.1</ele>
        <time>2026-06-27T06:33:18Z</time>
      </trkpt>
      <trkpt lat="46.12875" lon="6.71339">
        <ele>1692.2</ele>
        <time>2026-06-27T06:33:19Z</time>
      </trkpt>
      <trkpt lat="46.12875" lon="6.71339">
        <ele>1692.2</ele>
        <time>2026-06-27T06:33:20Z</time>
      </trkpt>
      <trkpt lat="46.12875" lon="6.71339">
        <ele>1692.1</ele>
        <time>2026-06-27T06:33:21Z</time>
      </trkpt>
      <trkpt lat="46.12875" lon="6.71339">
        <ele>1692.1</ele>
        <time>2026-06-27T06:33:22Z</time>
      </trkpt>
      <trkpt lat="46.12875" lon="6.71339">
        <ele>1692.2</ele>
        <time>2026-06-27T06:33:23Z</time>
      </trkpt>
      <trkpt lat="46.12875" lon="6.71339">
        <ele>1692.2</ele>
        <time>2026-06-27T06:33:24Z</time>
      </trkpt>
      <trkpt lat="46.12875" lon="6.71339">
        <ele>1692.2</ele>
        <time>2026-06-27T06:33:25Z</time>
      </trkpt>
      <trkpt lat="46.12874" lon="6.71339">
        <ele>1692.2</ele>
        <time>2026-06-27T06:33:26Z</time>
      </trkpt>
      <trkpt lat="46.12874" lon="6.71339">
        <ele>1692.3</ele>
        <time>2026-06-27T06:33:27Z</time>
      </trkpt>
      <trkpt lat="46.12874" lon="6.71338">
        <ele>1692.3</ele>
        <time>2026-06-27T06:33:28Z</time>
      </trkpt>
      <trkpt lat="46.12873" lon="6.71338">
        <ele>1692.3</ele>
        <time>2026-06-27T06:33:29Z</time>
      </trkpt>
      <trkpt lat="46.12873" lon="6.71338">
        <ele>1692.4</ele>
        <time>2026-06-27T06:33:30Z</time>
      </trkpt>
      <trkpt lat="46.12873" lon="6.71338">
        <ele>1692.5</ele>
        <time>2026-06-27T06:33:31Z</time>
      </trkpt>
      <trkpt lat="46.12873" lon="6.71338">
        <ele>1692.5</ele>
        <time>2026-06-27T06:33:32Z</time>
      </trkpt>
      <trkpt lat="46.12874" lon="6.71337">
        <ele>1692.5</ele>
        <time>2026-06-27T06:33:33Z</time>
      </trkpt>
      <trkpt lat="46.12875" lon="6.71336">
        <ele>1692.5</ele>
        <time>2026-06-27T06:33:34Z</time>
      </trkpt>
      <trkpt lat="46.12875" lon="6.71336">
        <ele>1692.5</ele>
        <time>2026-06-27T06:33:35Z</time>
      </trkpt>
      <trkpt lat="46.12875" lon="6.71336">
        <ele>1692.5</ele>
        <time>2026-06-27T06:33:36Z</time>
      </trkpt>
      <trkpt lat="46.12875" lon="6.71337">
        <ele>1692.6</ele>
        <time>2026-06-27T06:33:37Z</time>
      </trkpt>
      <trkpt lat="46.12875" lon="6.71337">
        <ele>1692.6</ele>
        <time>2026-06-27T06:33:38Z</time>
      </trkpt>
      <trkpt lat="46.12876" lon="6.71337">
        <ele>1692.5</ele>
        <time>2026-06-27T06:33:39Z</time>
      </trkpt>
      <trkpt lat="46.12876" lon="6.71336">
        <ele>1692.5</ele>
        <time>2026-06-27T06:33:40Z</time>
      </trkpt>
      <trkpt lat="46.12876" lon="6.71337">
        <ele>1692.5</ele>
        <time>2026-06-27T06:33:41Z</time>
      </trkpt>
      <trkpt lat="46.12876" lon="6.71337">
        <ele>1692.5</ele>
        <time>2026-06-27T06:33:42Z</time>
      </trkpt>
      <trkpt lat="46.12876" lon="6.71338">
        <ele>1692.4</ele>
        <time>2026-06-27T06:33:43Z</time>
      </trkpt>
      <trkpt lat="46.12876" lon="6.71338">
        <ele>1692.5</ele>
        <time>2026-06-27T06:33:44Z</time>
      </trkpt>
      <trkpt lat="46.12876" lon="6.71339">
        <ele>1692.5</ele>
        <time>2026-06-27T06:33:45Z</time>
      </trkpt>
      <trkpt lat="46.12877" lon="6.71339">
        <ele>1692.4</ele>
        <time>2026-06-27T06:33:46Z</time>
      </trkpt>
      <trkpt lat="46.12877" lon="6.71339">
        <ele>1692.4</ele>
        <time>2026-06-27T06:33:47Z</time>
      </trkpt>
      <trkpt lat="46.12877" lon="6.7134">
        <ele>1692.4</ele>
        <time>2026-06-27T06:33:48Z</time>
      </trkpt>
      <trkpt lat="46.12877" lon="6.7134">
        <ele>1692.4</ele>
        <time>2026-06-27T06:33:49Z</time>
      </trkpt>
      <trkpt lat="46.12876" lon="6.7134">
        <ele>1692.4</ele>
        <time>2026-06-27T06:33:50Z</time>
      </trkpt>
      <trkpt lat="46.12876" lon="6.7134">
        <ele>1692.3</ele>
        <time>2026-06-27T06:33:51Z</time>
      </trkpt>
      <trkpt lat="46.12876" lon="6.7134">
        <ele>1692.3</ele>
        <time>2026-06-27T06:33:52Z</time>
      </trkpt>
      <trkpt lat="46.12877" lon="6.7134">
        <ele>1692.3</ele>
        <time>2026-06-27T06:33:53Z</time>
      </trkpt>
      <trkpt lat="46.12877" lon="6.71341">
        <ele>1692.3</ele>
        <time>2026-06-27T06:33:54Z</time>
      </trkpt>
      <trkpt lat="46.12877" lon="6.71341">
        <ele>1692.2</ele>
        <time>2026-06-27T06:33:55Z</time>
      </trkpt>
      <trkpt lat="46.12877" lon="6.71341">
        <ele>1692.3</ele>
        <time>2026-06-27T06:33:56Z</time>
      </trkpt>
      <trkpt lat="46.12877" lon="6.71341">
        <ele>1692.3</ele>
        <time>2026-06-27T06:33:57Z</time>
      </trkpt>
      <trkpt lat="46.12877" lon="6.71342">
        <ele>1692.5</ele>
        <time>2026-06-27T06:33:58Z</time>
      </trkpt>
      <trkpt lat="46.12877" lon="6.71342">
        <ele>1692.6</ele>
        <time>2026-06-27T06:33:59Z</time>
      </trkpt>
      <trkpt lat="46.12877" lon="6.71342">
        <ele>1692.6</ele>
        <time>2026-06-27T06:34:00Z</time>
      </trkpt>
      <trkpt lat="46.12877" lon="6.71342">
        <ele>1692.7</ele>
        <time>2026-06-27T06:34:01Z</time>
      </trkpt>
      <trkpt lat="46.12877" lon="6.71343">
        <ele>1692.7</ele>
        <time>2026-06-27T06:34:02Z</time>
      </trkpt>
      <trkpt lat="46.12877" lon="6.71343">
        <ele>1692.8</ele>
        <time>2026-06-27T06:34:03Z</time>
      </trkpt>
      <trkpt lat="46.12877" lon="6.71343">
        <ele>1692.7</ele>
        <time>2026-06-27T06:34:04Z</time>
      </trkpt>
      <trkpt lat="46.12877" lon="6.71343">
        <ele>1692.7</ele>
        <time>2026-06-27T06:34:05Z</time>
      </trkpt>
      <trkpt lat="46.12877" lon="6.71343">
        <ele>1692.6</ele>
        <time>2026-06-27T06:34:06Z</time>
      </trkpt>
      <trkpt lat="46.12877" lon="6.71343">
        <ele>1692.6</ele>
        <time>2026-06-27T06:34:07Z</time>
      </trkpt>
      <trkpt lat="46.12877" lon="6.71343">
        <ele>1692.5</ele>
        <time>2026-06-27T06:34:08Z</time>
      </trkpt>
      <trkpt lat="46.12877" lon="6.71343">
        <ele>1692.3</ele>
        <time>2026-06-27T06:34:09Z</time>
      </trkpt>
      <trkpt lat="46.12877" lon="6.71343">
        <ele>1692.2</ele>
        <time>2026-06-27T06:34:10Z</time>
      </trkpt>
      <trkpt lat="46.12877" lon="6.71343">
        <ele>1692.1</ele>
        <time>2026-06-27T06:34:11Z</time>
      </trkpt>
      <trkpt lat="46.12877" lon="6.71343">
        <ele>1692.1</ele>
        <time>2026-06-27T06:34:12Z</time>
      </trkpt>
      <trkpt lat="46.12877" lon="6.71343">
        <ele>1692.2</ele>
        <time>2026-06-27T06:34:13Z</time>
      </trkpt>
      <trkpt lat="46.12877" lon="6.71343">
        <ele>1692.2</ele>
        <time>2026-06-27T06:34:14Z</time>
      </trkpt>
      <trkpt lat="46.12877" lon="6.71343">
        <ele>1692.1</ele>
        <time>2026-06-27T06:34:15Z</time>
      </trkpt>
      <trkpt lat="46.12877" lon="6.71343">
        <ele>1692.1</ele>
        <time>2026-06-27T06:34:16Z</time>
      </trkpt>
      <trkpt lat="46.12877" lon="6.71343">
        <ele>1692.1</ele>
        <time>2026-06-27T06:34:17Z</time>
      </trkpt>
      <trkpt lat="46.12877" lon="6.71343">
        <ele>1692.1</ele>
        <time>2026-06-27T06:34:18Z</time>
      </trkpt>
      <trkpt lat="46.12876" lon="6.71343">
        <ele>1692.1</ele>
        <time>2026-06-27T06:34:19Z</time>
      </trkpt>
      <trkpt lat="46.12876" lon="6.71343">
        <ele>1692.1</ele>
        <time>2026-06-27T06:34:20Z</time>
      </trkpt>
      <trkpt lat="46.12877" lon="6.71343">
        <ele>1692</ele>
        <time>2026-06-27T06:34:21Z</time>
      </trkpt>
      <trkpt lat="46.12877" lon="6.71343">
        <ele>1691.9</ele>
        <time>2026-06-27T06:34:22Z</time>
      </trkpt>
      <trkpt lat="46.12877" lon="6.71343">
        <ele>1691.9</ele>
        <time>2026-06-27T06:34:23Z</time>
      </trkpt>
      <trkpt lat="46.12877" lon="6.71343">
        <ele>1692</ele>
        <time>2026-06-27T06:34:24Z</time>
      </trkpt>
      <trkpt lat="46.12877" lon="6.71343">
        <ele>1692</ele>
        <time>2026-06-27T06:34:25Z</time>
      </trkpt>
      <trkpt lat="46.12877" lon="6.71343">
        <ele>1692.1</ele>
        <time>2026-06-27T06:34:26Z</time>
      </trkpt>
      <trkpt lat="46.12877" lon="6.71343">
        <ele>1692.1</ele>
        <time>2026-06-27T06:34:27Z</time>
      </trkpt>
      <trkpt lat="46.12877" lon="6.71343">
        <ele>1692.1</ele>
        <time>2026-06-27T06:34:28Z</time>
      </trkpt>
      <trkpt lat="46.12877" lon="6.71343">
        <ele>1692.2</ele>
        <time>2026-06-27T06:34:29Z</time>
      </trkpt>
      <trkpt lat="46.12877" lon="6.71343">
        <ele>1692.3</ele>
        <time>2026-06-27T06:34:30Z</time>
      </trkpt>
      <trkpt lat="46.12877" lon="6.71343">
        <ele>1692.3</ele>
        <time>2026-06-27T06:34:31Z</time>
      </trkpt>
      <trkpt lat="46.12877" lon="6.71342">
        <ele>1692.2</ele>
        <time>2026-06-27T06:34:32Z</time>
      </trkpt>
      <trkpt lat="46.12877" lon="6.71342">
        <ele>1692.2</ele>
        <time>2026-06-27T06:34:33Z</time>
      </trkpt>
      <trkpt lat="46.12877" lon="6.71343">
        <ele>1692.1</ele>
        <time>2026-06-27T06:34:34Z</time>
      </trkpt>
      <trkpt lat="46.12877" lon="6.71342">
        <ele>1692.1</ele>
        <time>2026-06-27T06:34:35Z</time>
      </trkpt>
      <trkpt lat="46.12877" lon="6.71342">
        <ele>1692.1</ele>
        <time>2026-06-27T06:34:36Z</time>
      </trkpt>
      <trkpt lat="46.12876" lon="6.71342">
        <ele>1692.1</ele>
        <time>2026-06-27T06:34:37Z</time>
      </trkpt>
      <trkpt lat="46.12876" lon="6.71342">
        <ele>1692.1</ele>
        <time>2026-06-27T06:34:38Z</time>
      </trkpt>
      <trkpt lat="46.12876" lon="6.71342">
        <ele>1692.2</ele>
        <time>2026-06-27T06:34:39Z</time>
      </trkpt>
      <trkpt lat="46.12876" lon="6.71342">
        <ele>1692.2</ele>
        <time>2026-06-27T06:34:40Z</time>
      </trkpt>
      <trkpt lat="46.12876" lon="6.71342">
        <ele>1692.2</ele>
        <time>2026-06-27T06:34:41Z</time>
      </trkpt>
      <trkpt lat="46.12876" lon="6.71342">
        <ele>1692.2</ele>
        <time>2026-06-27T06:34:42Z</time>
      </trkpt>
      <trkpt lat="46.12876" lon="6.71342">
        <ele>1692.2</ele>
        <time>2026-06-27T06:34:43Z</time>
      </trkpt>
      <trkpt lat="46.12876" lon="6.71342">
        <ele>1692.2</ele>
        <time>2026-06-27T06:34:44Z</time>
      </trkpt>
      <trkpt lat="46.12876" lon="6.71342">
        <ele>1692.2</ele>
        <time>2026-06-27T06:34:45Z</time>
      </trkpt>
      <trkpt lat="46.12876" lon="6.71342">
        <ele>1692.1</ele>
        <time>2026-06-27T06:34:46Z</time>
      </trkpt>
      <trkpt lat="46.12876" lon="6.71342">
        <ele>1692.1</ele>
        <time>2026-06-27T06:34:47Z</time>
      </trkpt>
      <trkpt lat="46.12876" lon="6.71342">
        <ele>1692.1</ele>
        <time>2026-06-27T06:34:48Z</time>
      </trkpt>
      <trkpt lat="46.12876" lon="6.71343">
        <ele>1692.2</ele>
        <time>2026-06-27T06:34:49Z</time>
      </trkpt>
      <trkpt lat="46.12876" lon="6.71343">
        <ele>1692.2</ele>
        <time>2026-06-27T06:34:50Z</time>
      </trkpt>
      <trkpt lat="46.12876" lon="6.71343">
        <ele>1692.2</ele>
        <time>2026-06-27T06:34:51Z</time>
      </trkpt>
      <trkpt lat="46.12876" lon="6.71343">
        <ele>1692.3</ele>
        <time>2026-06-27T06:34:52Z</time>
      </trkpt>
      <trkpt lat="46.12876" lon="6.71343">
        <ele>1692.2</ele>
        <time>2026-06-27T06:34:53Z</time>
      </trkpt>
      <trkpt lat="46.12876" lon="6.71343">
        <ele>1692.2</ele>
        <time>2026-06-27T06:34:54Z</time>
      </trkpt>
      <trkpt lat="46.12876" lon="6.71343">
        <ele>1692.2</ele>
        <time>2026-06-27T06:34:55Z</time>
      </trkpt>
      <trkpt lat="46.12876" lon="6.71343">
        <ele>1692.2</ele>
        <time>2026-06-27T06:34:56Z</time>
      </trkpt>
      <trkpt lat="46.12876" lon="6.71342">
        <ele>1692.1</ele>
        <time>2026-06-27T06:34:57Z</time>
      </trkpt>
      <trkpt lat="46.12876" lon="6.71342">
        <ele>1692.2</ele>
        <time>2026-06-27T06:34:58Z</time>
      </trkpt>
      <trkpt lat="46.12876" lon="6.71342">
        <ele>1692.2</ele>
        <time>2026-06-27T06:34:59Z</time>
      </trkpt>
      <trkpt lat="46.12876" lon="6.71342">
        <ele>1692.2</ele>
        <time>2026-06-27T06:35:00Z</time>
      </trkpt>
      <trkpt lat="46.12876" lon="6.71342">
        <ele>1692.2</ele>
        <time>2026-06-27T06:35:01Z</time>
      </trkpt>
      <trkpt lat="46.12876" lon="6.71342">
        <ele>1692.2</ele>
        <time>2026-06-27T06:35:02Z</time>
      </trkpt>
      <trkpt lat="46.12876" lon="6.71342">
        <ele>1692.2</ele>
        <time>2026-06-27T06:35:03Z</time>
      </trkpt>
      <trkpt lat="46.12876" lon="6.71342">
        <ele>1692.3</ele>
        <time>2026-06-27T06:35:04Z</time>
      </trkpt>
      <trkpt lat="46.12876" lon="6.71342">
        <ele>1692.2</ele>
        <time>2026-06-27T06:35:05Z</time>
      </trkpt>
      <trkpt lat="46.12876" lon="6.71342">
        <ele>1692.2</ele>
        <time>2026-06-27T06:35:06Z</time>
      </trkpt>
      <trkpt lat="46.12876" lon="6.71342">
        <ele>1692.2</ele>
        <time>2026-06-27T06:35:07Z</time>
      </trkpt>
      <trkpt lat="46.12876" lon="6.71343">
        <ele>1692.1</ele>
        <time>2026-06-27T06:35:08Z</time>
      </trkpt>
      <trkpt lat="46.12876" lon="6.71343">
        <ele>1692.1</ele>
        <time>2026-06-27T06:35:09Z</time>
      </trkpt>
      <trkpt lat="46.12876" lon="6.71343">
        <ele>1692.1</ele>
        <time>2026-06-27T06:35:10Z</time>
      </trkpt>
      <trkpt lat="46.12876" lon="6.71343">
        <ele>1692.1</ele>
        <time>2026-06-27T06:35:11Z</time>
      </trkpt>
      <trkpt lat="46.12876" lon="6.71343">
        <ele>1692.1</ele>
        <time>2026-06-27T06:35:12Z</time>
      </trkpt>
      <trkpt lat="46.12876" lon="6.71343">
        <ele>1692.2</ele>
        <time>2026-06-27T06:35:13Z</time>
      </trkpt>
      <trkpt lat="46.12875" lon="6.71343">
        <ele>1692.2</ele>
        <time>2026-06-27T06:35:14Z</time>
      </trkpt>
      <trkpt lat="46.12875" lon="6.71343">
        <ele>1692.3</ele>
        <time>2026-06-27T06:35:15Z</time>
      </trkpt>
      <trkpt lat="46.12875" lon="6.71343">
        <ele>1692.3</ele>
        <time>2026-06-27T06:35:16Z</time>
      </trkpt>
      <trkpt lat="46.12875" lon="6.71343">
        <ele>1692.3</ele>
        <time>2026-06-27T06:35:17Z</time>
      </trkpt>
      <trkpt lat="46.12875" lon="6.71343">
        <ele>1692.3</ele>
        <time>2026-06-27T06:35:18Z</time>
      </trkpt>
      <trkpt lat="46.12875" lon="6.71343">
        <ele>1692.2</ele>
        <time>2026-06-27T06:35:19Z</time>
      </trkpt>
      <trkpt lat="46.12875" lon="6.71343">
        <ele>1692.2</ele>
        <time>2026-06-27T06:35:20Z</time>
      </trkpt>
      <trkpt lat="46.12875" lon="6.71343">
        <ele>1692.2</ele>
        <time>2026-06-27T06:35:21Z</time>
      </trkpt>
      <trkpt lat="46.12875" lon="6.71342">
        <ele>1692.2</ele>
        <time>2026-06-27T06:35:22Z</time>
      </trkpt>
      <trkpt lat="46.12875" lon="6.71342">
        <ele>1692.2</ele>
        <time>2026-06-27T06:35:23Z</time>
      </trkpt>
      <trkpt lat="46.12875" lon="6.71342">
        <ele>1692</ele>
        <time>2026-06-27T06:35:24Z</time>
      </trkpt>
      <trkpt lat="46.12875" lon="6.71342">
        <ele>1691.9</ele>
        <time>2026-06-27T06:35:25Z</time>
      </trkpt>
      <trkpt lat="46.12874" lon="6.71342">
        <ele>1691.9</ele>
        <time>2026-06-27T06:35:26Z</time>
      </trkpt>
      <trkpt lat="46.12874" lon="6.71342">
        <ele>1691.9</ele>
        <time>2026-06-27T06:35:27Z</time>
      </trkpt>
      <trkpt lat="46.12874" lon="6.71342">
        <ele>1691.8</ele>
        <time>2026-06-27T06:35:28Z</time>
      </trkpt>
      <trkpt lat="46.12874" lon="6.71342">
        <ele>1691.8</ele>
        <time>2026-06-27T06:35:29Z</time>
      </trkpt>
      <trkpt lat="46.12874" lon="6.71342">
        <ele>1691.8</ele>
        <time>2026-06-27T06:35:30Z</time>
      </trkpt>
      <trkpt lat="46.12874" lon="6.71342">
        <ele>1691.8</ele>
        <time>2026-06-27T06:35:31Z</time>
      </trkpt>
      <trkpt lat="46.12874" lon="6.71342">
        <ele>1691.8</ele>
        <time>2026-06-27T06:35:32Z</time>
      </trkpt>
      <trkpt lat="46.12874" lon="6.71342">
        <ele>1691.9</ele>
        <time>2026-06-27T06:35:33Z</time>
      </trkpt>
      <trkpt lat="46.12874" lon="6.71342">
        <ele>1691.9</ele>
        <time>2026-06-27T06:35:34Z</time>
      </trkpt>
      <trkpt lat="46.12874" lon="6.71342">
        <ele>1691.9</ele>
        <time>2026-06-27T06:35:35Z</time>
      </trkpt>
      <trkpt lat="46.12875" lon="6.71342">
        <ele>1692</ele>
        <time>2026-06-27T06:35:36Z</time>
      </trkpt>
      <trkpt lat="46.12875" lon="6.71342">
        <ele>1692</ele>
        <time>2026-06-27T06:35:37Z</time>
      </trkpt>
      <trkpt lat="46.12875" lon="6.71342">
        <ele>1692</ele>
        <time>2026-06-27T06:35:38Z</time>
      </trkpt>
      <trkpt lat="46.12875" lon="6.71342">
        <ele>1692.1</ele>
        <time>2026-06-27T06:35:39Z</time>
      </trkpt>
      <trkpt lat="46.12875" lon="6.71342">
        <ele>1692</ele>
        <time>2026-06-27T06:35:40Z</time>
      </trkpt>
      <trkpt lat="46.12874" lon="6.71342">
        <ele>1691.9</ele>
        <time>2026-06-27T06:35:41Z</time>
      </trkpt>
      <trkpt lat="46.12874" lon="6.71342">
        <ele>1691.9</ele>
        <time>2026-06-27T06:35:42Z</time>
      </trkpt>
      <trkpt lat="46.12874" lon="6.71343">
        <ele>1691.9</ele>
        <time>2026-06-27T06:35:43Z</time>
      </trkpt>
      <trkpt lat="46.12874" lon="6.71343">
        <ele>1691.9</ele>
        <time>2026-06-27T06:35:44Z</time>
      </trkpt>
      <trkpt lat="46.12874" lon="6.71343">
        <ele>1691.9</ele>
        <time>2026-06-27T06:35:45Z</time>
      </trkpt>
      <trkpt lat="46.12874" lon="6.71343">
        <ele>1692</ele>
        <time>2026-06-27T06:35:46Z</time>
      </trkpt>
      <trkpt lat="46.12874" lon="6.71343">
        <ele>1692.1</ele>
        <time>2026-06-27T06:35:47Z</time>
      </trkpt>
      <trkpt lat="46.12874" lon="6.71343">
        <ele>1692.1</ele>
        <time>2026-06-27T06:35:48Z</time>
      </trkpt>
      <trkpt lat="46.12874" lon="6.71343">
        <ele>1692.1</ele>
        <time>2026-06-27T06:35:49Z</time>
      </trkpt>
      <trkpt lat="46.12874" lon="6.71343">
        <ele>1692.1</ele>
        <time>2026-06-27T06:35:50Z</time>
      </trkpt>
      <trkpt lat="46.12874" lon="6.71343">
        <ele>1692.2</ele>
        <time>2026-06-27T06:35:51Z</time>
      </trkpt>
      <trkpt lat="46.12874" lon="6.71343">
        <ele>1692.2</ele>
        <time>2026-06-27T06:35:52Z</time>
      </trkpt>
      <trkpt lat="46.12874" lon="6.71343">
        <ele>1692.2</ele>
        <time>2026-06-27T06:35:53Z</time>
      </trkpt>
      <trkpt lat="46.12875" lon="6.71342">
        <ele>1692.2</ele>
        <time>2026-06-27T06:35:54Z</time>
      </trkpt>
      <trkpt lat="46.12876" lon="6.71342">
        <ele>1692.2</ele>
        <time>2026-06-27T06:35:55Z</time>
      </trkpt>
      <trkpt lat="46.12876" lon="6.71342">
        <ele>1692.2</ele>
        <time>2026-06-27T06:35:56Z</time>
      </trkpt>
      <trkpt lat="46.12876" lon="6.71342">
        <ele>1692.2</ele>
        <time>2026-06-27T06:35:57Z</time>
      </trkpt>
      <trkpt lat="46.12876" lon="6.71342">
        <ele>1692.2</ele>
        <time>2026-06-27T06:35:58Z</time>
      </trkpt>
      <trkpt lat="46.12876" lon="6.71342">
        <ele>1692.3</ele>
        <time>2026-06-27T06:35:59Z</time>
      </trkpt>
      <trkpt lat="46.12876" lon="6.71342">
        <ele>1692.4</ele>
        <time>2026-06-27T06:36:00Z</time>
      </trkpt>
      <trkpt lat="46.12876" lon="6.71342">
        <ele>1692.4</ele>
        <time>2026-06-27T06:36:01Z</time>
      </trkpt>
      <trkpt lat="46.12876" lon="6.71342">
        <ele>1692.4</ele>
        <time>2026-06-27T06:36:02Z</time>
      </trkpt>
      <trkpt lat="46.12876" lon="6.71342">
        <ele>1692.4</ele>
        <time>2026-06-27T06:36:03Z</time>
      </trkpt>
      <trkpt lat="46.12876" lon="6.71342">
        <ele>1692.3</ele>
        <time>2026-06-27T06:36:04Z</time>
      </trkpt>
      <trkpt lat="46.12876" lon="6.71342">
        <ele>1692.4</ele>
        <time>2026-06-27T06:36:05Z</time>
      </trkpt>
      <trkpt lat="46.12876" lon="6.71342">
        <ele>1692.4</ele>
        <time>2026-06-27T06:36:06Z</time>
      </trkpt>
      <trkpt lat="46.12876" lon="6.71342">
        <ele>1692.3</ele>
        <time>2026-06-27T06:36:07Z</time>
      </trkpt>
      <trkpt lat="46.12877" lon="6.71342">
        <ele>1692.2</ele>
        <time>2026-06-27T06:36:08Z</time>
      </trkpt>
      <trkpt lat="46.12877" lon="6.71342">
        <ele>1692.2</ele>
        <time>2026-06-27T06:36:09Z</time>
      </trkpt>
      <trkpt lat="46.12877" lon="6.71343">
        <ele>1692.2</ele>
        <time>2026-06-27T06:36:10Z</time>
      </trkpt>
      <trkpt lat="46.12877" lon="6.71343">
        <ele>1692.2</ele>
        <time>2026-06-27T06:36:11Z</time>
      </trkpt>
      <trkpt lat="46.12877" lon="6.71343">
        <ele>1692.2</ele>
        <time>2026-06-27T06:36:12Z</time>
      </trkpt>
      <trkpt lat="46.12877" lon="6.71343">
        <ele>1692.3</ele>
        <time>2026-06-27T06:36:13Z</time>
      </trkpt>
      <trkpt lat="46.12877" lon="6.71343">
        <ele>1692.3</ele>
        <time>2026-06-27T06:36:14Z</time>
      </trkpt>
      <trkpt lat="46.12877" lon="6.71342">
        <ele>1692.3</ele>
        <time>2026-06-27T06:36:15Z</time>
      </trkpt>
      <trkpt lat="46.12877" lon="6.71342">
        <ele>1692.3</ele>
        <time>2026-06-27T06:36:16Z</time>
      </trkpt>
      <trkpt lat="46.12877" lon="6.71342">
        <ele>1692.2</ele>
        <time>2026-06-27T06:36:17Z</time>
      </trkpt>
      <trkpt lat="46.12877" lon="6.71342">
        <ele>1692.2</ele>
        <time>2026-06-27T06:36:18Z</time>
      </trkpt>
      <trkpt lat="46.12877" lon="6.71342">
        <ele>1692.2</ele>
        <time>2026-06-27T06:36:19Z</time>
      </trkpt>
      <trkpt lat="46.12877" lon="6.71342">
        <ele>1692.1</ele>
        <time>2026-06-27T06:36:20Z</time>
      </trkpt>
      <trkpt lat="46.12877" lon="6.71342">
        <ele>1692.1</ele>
        <time>2026-06-27T06:36:21Z</time>
      </trkpt>
      <trkpt lat="46.12877" lon="6.71342">
        <ele>1692.2</ele>
        <time>2026-06-27T06:36:22Z</time>
      </trkpt>
      <trkpt lat="46.12877" lon="6.71343">
        <ele>1692.2</ele>
        <time>2026-06-27T06:36:23Z</time>
      </trkpt>
      <trkpt lat="46.12877" lon="6.71342">
        <ele>1692.3</ele>
        <time>2026-06-27T06:36:24Z</time>
      </trkpt>
      <trkpt lat="46.12877" lon="6.71343">
        <ele>1692.3</ele>
        <time>2026-06-27T06:36:25Z</time>
      </trkpt>
      <trkpt lat="46.12877" lon="6.71343">
        <ele>1692.3</ele>
        <time>2026-06-27T06:36:26Z</time>
      </trkpt>
      <trkpt lat="46.12878" lon="6.71343">
        <ele>1692.3</ele>
        <time>2026-06-27T06:36:27Z</time>
      </trkpt>
      <trkpt lat="46.12878" lon="6.71343">
        <ele>1692.3</ele>
        <time>2026-06-27T06:36:28Z</time>
      </trkpt>
      <trkpt lat="46.12878" lon="6.71344">
        <ele>1692.3</ele>
        <time>2026-06-27T06:36:29Z</time>
      </trkpt>
      <trkpt lat="46.12878" lon="6.71344">
        <ele>1692.2</ele>
        <time>2026-06-27T06:36:30Z</time>
      </trkpt>
      <trkpt lat="46.12877" lon="6.71344">
        <ele>1692.2</ele>
        <time>2026-06-27T06:36:31Z</time>
      </trkpt>
      <trkpt lat="46.12877" lon="6.71344">
        <ele>1692.2</ele>
        <time>2026-06-27T06:36:32Z</time>
      </trkpt>
      <trkpt lat="46.12877" lon="6.71343">
        <ele>1692.1</ele>
        <time>2026-06-27T06:36:33Z</time>
      </trkpt>
      <trkpt lat="46.12877" lon="6.71343">
        <ele>1692.1</ele>
        <time>2026-06-27T06:36:34Z</time>
      </trkpt>
      <trkpt lat="46.12877" lon="6.71343">
        <ele>1692.1</ele>
        <time>2026-06-27T06:36:35Z</time>
      </trkpt>
      <trkpt lat="46.12877" lon="6.71343">
        <ele>1692.1</ele>
        <time>2026-06-27T06:36:36Z</time>
      </trkpt>
      <trkpt lat="46.12877" lon="6.71343">
        <ele>1692.1</ele>
        <time>2026-06-27T06:36:37Z</time>
      </trkpt>
      <trkpt lat="46.12877" lon="6.71343">
        <ele>1692.1</ele>
        <time>2026-06-27T06:36:38Z</time>
      </trkpt>
      <trkpt lat="46.12877" lon="6.71344">
        <ele>1692.1</ele>
        <time>2026-06-27T06:36:39Z</time>
      </trkpt>
      <trkpt lat="46.12877" lon="6.71344">
        <ele>1692.2</ele>
        <time>2026-06-27T06:36:40Z</time>
      </trkpt>
      <trkpt lat="46.12877" lon="6.71344">
        <ele>1692.2</ele>
        <time>2026-06-27T06:36:41Z</time>
      </trkpt>
      <trkpt lat="46.12877" lon="6.71344">
        <ele>1692.1</ele>
        <time>2026-06-27T06:36:42Z</time>
      </trkpt>
      <trkpt lat="46.12877" lon="6.71344">
        <ele>1692.2</ele>
        <time>2026-06-27T06:36:43Z</time>
      </trkpt>
      <trkpt lat="46.12877" lon="6.71344">
        <ele>1692.2</ele>
        <time>2026-06-27T06:36:44Z</time>
      </trkpt>
      <trkpt lat="46.12877" lon="6.71344">
        <ele>1692.3</ele>
        <time>2026-06-27T06:36:45Z</time>
      </trkpt>
      <trkpt lat="46.12877" lon="6.71344">
        <ele>1692.3</ele>
        <time>2026-06-27T06:36:46Z</time>
      </trkpt>
      <trkpt lat="46.12877" lon="6.71345">
        <ele>1692.3</ele>
        <time>2026-06-27T06:36:47Z</time>
      </trkpt>
      <trkpt lat="46.12877" lon="6.71345">
        <ele>1692.3</ele>
        <time>2026-06-27T06:36:48Z</time>
      </trkpt>
      <trkpt lat="46.12877" lon="6.71345">
        <ele>1692.4</ele>
        <time>2026-06-27T06:36:49Z</time>
      </trkpt>
      <trkpt lat="46.12877" lon="6.71345">
        <ele>1692.4</ele>
        <time>2026-06-27T06:36:50Z</time>
      </trkpt>
      <trkpt lat="46.12877" lon="6.71345">
        <ele>1692.4</ele>
        <time>2026-06-27T06:36:51Z</time>
      </trkpt>
      <trkpt lat="46.12877" lon="6.71345">
        <ele>1692.4</ele>
        <time>2026-06-27T06:36:52Z</time>
      </trkpt>
      <trkpt lat="46.12877" lon="6.71345">
        <ele>1692.4</ele>
        <time>2026-06-27T06:36:53Z</time>
      </trkpt>
      <trkpt lat="46.12877" lon="6.71344">
        <ele>1692.4</ele>
        <time>2026-06-27T06:36:54Z</time>
      </trkpt>
      <trkpt lat="46.12876" lon="6.71344">
        <ele>1692.5</ele>
        <time>2026-06-27T06:36:55Z</time>
      </trkpt>
      <trkpt lat="46.12876" lon="6.71343">
        <ele>1692.4</ele>
        <time>2026-06-27T06:36:56Z</time>
      </trkpt>
      <trkpt lat="46.12876" lon="6.71344">
        <ele>1692.4</ele>
        <time>2026-06-27T06:36:57Z</time>
      </trkpt>
      <trkpt lat="46.12876" lon="6.71344">
        <ele>1692.3</ele>
        <time>2026-06-27T06:36:58Z</time>
      </trkpt>
      <trkpt lat="46.12876" lon="6.71344">
        <ele>1692.2</ele>
        <time>2026-06-27T06:36:59Z</time>
      </trkpt>
      <trkpt lat="46.12877" lon="6.71344">
        <ele>1692.2</ele>
        <time>2026-06-27T06:37:00Z</time>
      </trkpt>
      <trkpt lat="46.12877" lon="6.71344">
        <ele>1692.2</ele>
        <time>2026-06-27T06:37:01Z</time>
      </trkpt>
      <trkpt lat="46.12878" lon="6.71344">
        <ele>1692.2</ele>
        <time>2026-06-27T06:37:02Z</time>
      </trkpt>
      <trkpt lat="46.12878" lon="6.71344">
        <ele>1692.2</ele>
        <time>2026-06-27T06:37:03Z</time>
      </trkpt>
      <trkpt lat="46.12878" lon="6.71345">
        <ele>1692.3</ele>
        <time>2026-06-27T06:37:04Z</time>
      </trkpt>
      <trkpt lat="46.12879" lon="6.71346">
        <ele>1692.3</ele>
        <time>2026-06-27T06:37:05Z</time>
      </trkpt>
      <trkpt lat="46.1288" lon="6.71347">
        <ele>1692.1</ele>
        <time>2026-06-27T06:37:06Z</time>
      </trkpt>
      <trkpt lat="46.12881" lon="6.71348">
        <ele>1692.1</ele>
        <time>2026-06-27T06:37:07Z</time>
      </trkpt>
      <trkpt lat="46.12881" lon="6.71348">
        <ele>1692.1</ele>
        <time>2026-06-27T06:37:08Z</time>
      </trkpt>
      <trkpt lat="46.12882" lon="6.71348">
        <ele>1692.3</ele>
        <time>2026-06-27T06:37:09Z</time>
      </trkpt>
      <trkpt lat="46.12883" lon="6.71349">
        <ele>1692.4</ele>
        <time>2026-06-27T06:37:10Z</time>
      </trkpt>
      <trkpt lat="46.12883" lon="6.7135">
        <ele>1692.4</ele>
        <time>2026-06-27T06:37:11Z</time>
      </trkpt>
      <trkpt lat="46.12884" lon="6.7135">
        <ele>1692.5</ele>
        <time>2026-06-27T06:37:12Z</time>
      </trkpt>
      <trkpt lat="46.12885" lon="6.7135">
        <ele>1692.6</ele>
        <time>2026-06-27T06:37:13Z</time>
      </trkpt>
      <trkpt lat="46.12885" lon="6.71351">
        <ele>1692.6</ele>
        <time>2026-06-27T06:37:14Z</time>
      </trkpt>
      <trkpt lat="46.12886" lon="6.71351">
        <ele>1692.6</ele>
        <time>2026-06-27T06:37:15Z</time>
      </trkpt>
      <trkpt lat="46.12887" lon="6.71352">
        <ele>1692.7</ele>
        <time>2026-06-27T06:37:16Z</time>
      </trkpt>
      <trkpt lat="46.12888" lon="6.71353">
        <ele>1692.8</ele>
        <time>2026-06-27T06:37:17Z</time>
      </trkpt>
      <trkpt lat="46.12888" lon="6.71353">
        <ele>1692.8</ele>
        <time>2026-06-27T06:37:18Z</time>
      </trkpt>
      <trkpt lat="46.12889" lon="6.71354">
        <ele>1692.9</ele>
        <time>2026-06-27T06:37:19Z</time>
      </trkpt>
      <trkpt lat="46.1289" lon="6.71354">
        <ele>1692.9</ele>
        <time>2026-06-27T06:37:20Z</time>
      </trkpt>
      <trkpt lat="46.1289" lon="6.71355">
        <ele>1692.9</ele>
        <time>2026-06-27T06:37:21Z</time>
      </trkpt>
      <trkpt lat="46.12891" lon="6.71355">
        <ele>1693</ele>
        <time>2026-06-27T06:37:22Z</time>
      </trkpt>
      <trkpt lat="46.12892" lon="6.71356">
        <ele>1693.2</ele>
        <time>2026-06-27T06:37:23Z</time>
      </trkpt>
      <trkpt lat="46.12892" lon="6.71356">
        <ele>1693.1</ele>
        <time>2026-06-27T06:37:24Z</time>
      </trkpt>
      <trkpt lat="46.12893" lon="6.71356">
        <ele>1693.1</ele>
        <time>2026-06-27T06:37:25Z</time>
      </trkpt>
      <trkpt lat="46.12893" lon="6.71357">
        <ele>1693.2</ele>
        <time>2026-06-27T06:37:26Z</time>
      </trkpt>
      <trkpt lat="46.12894" lon="6.71357">
        <ele>1693.1</ele>
        <time>2026-06-27T06:37:27Z</time>
      </trkpt>
      <trkpt lat="46.12894" lon="6.71358">
        <ele>1693.1</ele>
        <time>2026-06-27T06:37:28Z</time>
      </trkpt>
      <trkpt lat="46.12895" lon="6.71359">
        <ele>1693.2</ele>
        <time>2026-06-27T06:37:29Z</time>
      </trkpt>
      <trkpt lat="46.12895" lon="6.71359">
        <ele>1693.2</ele>
        <time>2026-06-27T06:37:30Z</time>
      </trkpt>
      <trkpt lat="46.12895" lon="6.71359">
        <ele>1693.2</ele>
        <time>2026-06-27T06:37:31Z</time>
      </trkpt>
      <trkpt lat="46.12895" lon="6.7136">
        <ele>1693.3</ele>
        <time>2026-06-27T06:37:32Z</time>
      </trkpt>
      <trkpt lat="46.12895" lon="6.71359">
        <ele>1693.3</ele>
        <time>2026-06-27T06:37:33Z</time>
      </trkpt>
      <trkpt lat="46.12895" lon="6.7136">
        <ele>1693.4</ele>
        <time>2026-06-27T06:37:34Z</time>
      </trkpt>
      <trkpt lat="46.12895" lon="6.7136">
        <ele>1693.4</ele>
        <time>2026-06-27T06:37:35Z</time>
      </trkpt>
      <trkpt lat="46.12896" lon="6.7136">
        <ele>1693.4</ele>
        <time>2026-06-27T06:37:36Z</time>
      </trkpt>
      <trkpt lat="46.12896" lon="6.7136">
        <ele>1693.5</ele>
        <time>2026-06-27T06:37:37Z</time>
      </trkpt>
      <trkpt lat="46.12896" lon="6.7136">
        <ele>1693.6</ele>
        <time>2026-06-27T06:37:38Z</time>
      </trkpt>
      <trkpt lat="46.12896" lon="6.7136">
        <ele>1693.5</ele>
        <time>2026-06-27T06:37:39Z</time>
      </trkpt>
      <trkpt lat="46.12896" lon="6.7136">
        <ele>1693.5</ele>
        <time>2026-06-27T06:37:40Z</time>
      </trkpt>
      <trkpt lat="46.12897" lon="6.7136">
        <ele>1693.5</ele>
        <time>2026-06-27T06:37:41Z</time>
      </trkpt>
      <trkpt lat="46.12897" lon="6.71359">
        <ele>1693.5</ele>
        <time>2026-06-27T06:37:42Z</time>
      </trkpt>
      <trkpt lat="46.12897" lon="6.71359">
        <ele>1693.5</ele>
        <time>2026-06-27T06:37:43Z</time>
      </trkpt>
      <trkpt lat="46.12897" lon="6.71359">
        <ele>1693.5</ele>
        <time>2026-06-27T06:37:44Z</time>
      </trkpt>
      <trkpt lat="46.12897" lon="6.71359">
        <ele>1693.5</ele>
        <time>2026-06-27T06:37:45Z</time>
      </trkpt>
      <trkpt lat="46.12898" lon="6.71359">
        <ele>1693.4</ele>
        <time>2026-06-27T06:37:46Z</time>
      </trkpt>
      <trkpt lat="46.12898" lon="6.71359">
        <ele>1693.5</ele>
        <time>2026-06-27T06:37:47Z</time>
      </trkpt>
      <trkpt lat="46.12898" lon="6.71359">
        <ele>1693.5</ele>
        <time>2026-06-27T06:37:48Z</time>
      </trkpt>
      <trkpt lat="46.12898" lon="6.71358">
        <ele>1693.5</ele>
        <time>2026-06-27T06:37:49Z</time>
      </trkpt>
      <trkpt lat="46.12899" lon="6.71358">
        <ele>1693.5</ele>
        <time>2026-06-27T06:37:50Z</time>
      </trkpt>
      <trkpt lat="46.12899" lon="6.71357">
        <ele>1693.5</ele>
        <time>2026-06-27T06:37:51Z</time>
      </trkpt>
      <trkpt lat="46.12899" lon="6.71357">
        <ele>1693.5</ele>
        <time>2026-06-27T06:37:52Z</time>
      </trkpt>
      <trkpt lat="46.12899" lon="6.71357">
        <ele>1693.5</ele>
        <time>2026-06-27T06:37:53Z</time>
      </trkpt>
      <trkpt lat="46.12899" lon="6.71357">
        <ele>1693.6</ele>
        <time>2026-06-27T06:37:54Z</time>
      </trkpt>
      <trkpt lat="46.12899" lon="6.71357">
        <ele>1693.6</ele>
        <time>2026-06-27T06:37:55Z</time>
      </trkpt>
      <trkpt lat="46.12899" lon="6.71357">
        <ele>1693.6</ele>
        <time>2026-06-27T06:37:56Z</time>
      </trkpt>
      <trkpt lat="46.12899" lon="6.71356">
        <ele>1693.5</ele>
        <time>2026-06-27T06:37:57Z</time>
      </trkpt>
      <trkpt lat="46.129" lon="6.71356">
        <ele>1693.5</ele>
        <time>2026-06-27T06:37:58Z</time>
      </trkpt>
      <trkpt lat="46.129" lon="6.71356">
        <ele>1693.4</ele>
        <time>2026-06-27T06:37:59Z</time>
      </trkpt>
      <trkpt lat="46.129" lon="6.71356">
        <ele>1693.4</ele>
        <time>2026-06-27T06:38:00Z</time>
      </trkpt>
      <trkpt lat="46.129" lon="6.71356">
        <ele>1693.4</ele>
        <time>2026-06-27T06:38:01Z</time>
      </trkpt>
      <trkpt lat="46.129" lon="6.71356">
        <ele>1693.5</ele>
        <time>2026-06-27T06:38:02Z</time>
      </trkpt>
      <trkpt lat="46.129" lon="6.71356">
        <ele>1693.4</ele>
        <time>2026-06-27T06:38:03Z</time>
      </trkpt>
      <trkpt lat="46.129" lon="6.71356">
        <ele>1693.4</ele>
        <time>2026-06-27T06:38:04Z</time>
      </trkpt>
      <trkpt lat="46.129" lon="6.71356">
        <ele>1693.3</ele>
        <time>2026-06-27T06:38:05Z</time>
      </trkpt>
      <trkpt lat="46.129" lon="6.71356">
        <ele>1693.3</ele>
        <time>2026-06-27T06:38:06Z</time>
      </trkpt>
      <trkpt lat="46.129" lon="6.71356">
        <ele>1693.3</ele>
        <time>2026-06-27T06:38:07Z</time>
      </trkpt>
      <trkpt lat="46.129" lon="6.71356">
        <ele>1693.2</ele>
        <time>2026-06-27T06:38:08Z</time>
      </trkpt>
      <trkpt lat="46.129" lon="6.71357">
        <ele>1693.2</ele>
        <time>2026-06-27T06:38:09Z</time>
      </trkpt>
      <trkpt lat="46.129" lon="6.71357">
        <ele>1693.2</ele>
        <time>2026-06-27T06:38:10Z</time>
      </trkpt>
      <trkpt lat="46.129" lon="6.71357">
        <ele>1693.3</ele>
        <time>2026-06-27T06:38:11Z</time>
      </trkpt>
      <trkpt lat="46.129" lon="6.71357">
        <ele>1693.4</ele>
        <time>2026-06-27T06:38:12Z</time>
      </trkpt>
      <trkpt lat="46.129" lon="6.71357">
        <ele>1693.4</ele>
        <time>2026-06-27T06:38:13Z</time>
      </trkpt>
      <trkpt lat="46.129" lon="6.71357">
        <ele>1693.5</ele>
        <time>2026-06-27T06:38:14Z</time>
      </trkpt>
      <trkpt lat="46.129" lon="6.71357">
        <ele>1693.4</ele>
        <time>2026-06-27T06:38:15Z</time>
      </trkpt>
      <trkpt lat="46.129" lon="6.71357">
        <ele>1693.4</ele>
        <time>2026-06-27T06:38:16Z</time>
      </trkpt>
      <trkpt lat="46.12899" lon="6.71357">
        <ele>1693.4</ele>
        <time>2026-06-27T06:38:17Z</time>
      </trkpt>
      <trkpt lat="46.12899" lon="6.71356">
        <ele>1693.3</ele>
        <time>2026-06-27T06:38:18Z</time>
      </trkpt>
      <trkpt lat="46.12898" lon="6.71356">
        <ele>1693.3</ele>
        <time>2026-06-27T06:38:19Z</time>
      </trkpt>
      <trkpt lat="46.12897" lon="6.71356">
        <ele>1693.3</ele>
        <time>2026-06-27T06:38:20Z</time>
      </trkpt>
      <trkpt lat="46.12896" lon="6.71355">
        <ele>1693.3</ele>
        <time>2026-06-27T06:38:21Z</time>
      </trkpt>
      <trkpt lat="46.12896" lon="6.71355">
        <ele>1693.3</ele>
        <time>2026-06-27T06:38:22Z</time>
      </trkpt>
      <trkpt lat="46.12894" lon="6.71355">
        <ele>1693.2</ele>
        <time>2026-06-27T06:38:23Z</time>
      </trkpt>
      <trkpt lat="46.12894" lon="6.71355">
        <ele>1693.3</ele>
        <time>2026-06-27T06:38:24Z</time>
      </trkpt>
      <trkpt lat="46.12893" lon="6.71355">
        <ele>1693.3</ele>
        <time>2026-06-27T06:38:25Z</time>
      </trkpt>
      <trkpt lat="46.12892" lon="6.71355">
        <ele>1693.2</ele>
        <time>2026-06-27T06:38:26Z</time>
      </trkpt>
      <trkpt lat="46.12891" lon="6.71355">
        <ele>1693.2</ele>
        <time>2026-06-27T06:38:27Z</time>
      </trkpt>
      <trkpt lat="46.12891" lon="6.71355">
        <ele>1693.1</ele>
        <time>2026-06-27T06:38:28Z</time>
      </trkpt>
      <trkpt lat="46.12891" lon="6.71355">
        <ele>1693.2</ele>
        <time>2026-06-27T06:38:29Z</time>
      </trkpt>
      <trkpt lat="46.12891" lon="6.71355">
        <ele>1693.1</ele>
        <time>2026-06-27T06:38:30Z</time>
      </trkpt>
      <trkpt lat="46.12891" lon="6.71355">
        <ele>1693</ele>
        <time>2026-06-27T06:38:31Z</time>
      </trkpt>
      <trkpt lat="46.12891" lon="6.71355">
        <ele>1693</ele>
        <time>2026-06-27T06:38:32Z</time>
      </trkpt>
      <trkpt lat="46.12891" lon="6.71355">
        <ele>1693</ele>
        <time>2026-06-27T06:38:33Z</time>
      </trkpt>
      <trkpt lat="46.12891" lon="6.71355">
        <ele>1692.9</ele>
        <time>2026-06-27T06:38:34Z</time>
      </trkpt>
      <trkpt lat="46.1289" lon="6.71355">
        <ele>1692.9</ele>
        <time>2026-06-27T06:38:35Z</time>
      </trkpt>
      <trkpt lat="46.1289" lon="6.71355">
        <ele>1692.9</ele>
        <time>2026-06-27T06:38:36Z</time>
      </trkpt>
      <trkpt lat="46.12891" lon="6.71355">
        <ele>1693</ele>
        <time>2026-06-27T06:38:37Z</time>
      </trkpt>
      <trkpt lat="46.12891" lon="6.71355">
        <ele>1693</ele>
        <time>2026-06-27T06:38:38Z</time>
      </trkpt>
      <trkpt lat="46.12892" lon="6.71355">
        <ele>1693</ele>
        <time>2026-06-27T06:38:39Z</time>
      </trkpt>
      <trkpt lat="46.12893" lon="6.71355">
        <ele>1693</ele>
        <time>2026-06-27T06:38:40Z</time>
      </trkpt>
      <trkpt lat="46.12893" lon="6.71355">
        <ele>1693</ele>
        <time>2026-06-27T06:38:41Z</time>
      </trkpt>
      <trkpt lat="46.12894" lon="6.71355">
        <ele>1693</ele>
        <time>2026-06-27T06:38:42Z</time>
      </trkpt>
      <trkpt lat="46.12895" lon="6.71356">
        <ele>1693</ele>
        <time>2026-06-27T06:38:43Z</time>
      </trkpt>
      <trkpt lat="46.12895" lon="6.71356">
        <ele>1693.2</ele>
        <time>2026-06-27T06:38:44Z</time>
      </trkpt>
      <trkpt lat="46.12896" lon="6.71355">
        <ele>1693.3</ele>
        <time>2026-06-27T06:38:45Z</time>
      </trkpt>
      <trkpt lat="46.12896" lon="6.71355">
        <ele>1693.2</ele>
        <time>2026-06-27T06:38:46Z</time>
      </trkpt>
      <trkpt lat="46.12896" lon="6.71355">
        <ele>1693.3</ele>
        <time>2026-06-27T06:38:47Z</time>
      </trkpt>
      <trkpt lat="46.12897" lon="6.71355">
        <ele>1693.2</ele>
        <time>2026-06-27T06:38:48Z</time>
      </trkpt>
      <trkpt lat="46.12897" lon="6.71355">
        <ele>1693.1</ele>
        <time>2026-06-27T06:38:49Z</time>
      </trkpt>
      <trkpt lat="46.12897" lon="6.71355">
        <ele>1693</ele>
        <time>2026-06-27T06:38:50Z</time>
      </trkpt>
      <trkpt lat="46.12897" lon="6.71356">
        <ele>1693</ele>
        <time>2026-06-27T06:38:51Z</time>
      </trkpt>
      <trkpt lat="46.12897" lon="6.71356">
        <ele>1693</ele>
        <time>2026-06-27T06:38:52Z</time>
      </trkpt>
      <trkpt lat="46.12897" lon="6.71356">
        <ele>1693</ele>
        <time>2026-06-27T06:38:53Z</time>
      </trkpt>
      <trkpt lat="46.12897" lon="6.71355">
        <ele>1693</ele>
        <time>2026-06-27T06:38:54Z</time>
      </trkpt>
      <trkpt lat="46.12898" lon="6.71355">
        <ele>1693</ele>
        <time>2026-06-27T06:38:55Z</time>
      </trkpt>
      <trkpt lat="46.12899" lon="6.71355">
        <ele>1693</ele>
        <time>2026-06-27T06:38:56Z</time>
      </trkpt>
      <trkpt lat="46.12899" lon="6.71355">
        <ele>1693</ele>
        <time>2026-06-27T06:38:57Z</time>
      </trkpt>
      <trkpt lat="46.129" lon="6.71355">
        <ele>1693.1</ele>
        <time>2026-06-27T06:38:58Z</time>
      </trkpt>
      <trkpt lat="46.12901" lon="6.71355">
        <ele>1693.2</ele>
        <time>2026-06-27T06:38:59Z</time>
      </trkpt>
      <trkpt lat="46.12902" lon="6.71355">
        <ele>1693.3</ele>
        <time>2026-06-27T06:39:00Z</time>
      </trkpt>
      <trkpt lat="46.12903" lon="6.71356">
        <ele>1693.4</ele>
        <time>2026-06-27T06:39:01Z</time>
      </trkpt>
      <trkpt lat="46.12904" lon="6.71356">
        <ele>1693.5</ele>
        <time>2026-06-27T06:39:02Z</time>
      </trkpt>
      <trkpt lat="46.12905" lon="6.71356">
        <ele>1693.5</ele>
        <time>2026-06-27T06:39:03Z</time>
      </trkpt>
      <trkpt lat="46.12906" lon="6.71355">
        <ele>1693.6</ele>
        <time>2026-06-27T06:39:04Z</time>
      </trkpt>
      <trkpt lat="46.12906" lon="6.71355">
        <ele>1693.6</ele>
        <time>2026-06-27T06:39:05Z</time>
      </trkpt>
      <trkpt lat="46.12907" lon="6.71355">
        <ele>1693.7</ele>
        <time>2026-06-27T06:39:06Z</time>
      </trkpt>
      <trkpt lat="46.12908" lon="6.71354">
        <ele>1693.7</ele>
        <time>2026-06-27T06:39:07Z</time>
      </trkpt>
      <trkpt lat="46.12909" lon="6.71355">
        <ele>1693.8</ele>
        <time>2026-06-27T06:39:08Z</time>
      </trkpt>
      <trkpt lat="46.12909" lon="6.71355">
        <ele>1693.9</ele>
        <time>2026-06-27T06:39:09Z</time>
      </trkpt>
      <trkpt lat="46.1291" lon="6.71355">
        <ele>1693.9</ele>
        <time>2026-06-27T06:39:10Z</time>
      </trkpt>
      <trkpt lat="46.1291" lon="6.71356">
        <ele>1693.9</ele>
        <time>2026-06-27T06:39:11Z</time>
      </trkpt>
      <trkpt lat="46.12911" lon="6.71357">
        <ele>1693.9</ele>
        <time>2026-06-27T06:39:12Z</time>
      </trkpt>
      <trkpt lat="46.12912" lon="6.71358">
        <ele>1693.9</ele>
        <time>2026-06-27T06:39:13Z</time>
      </trkpt>
      <trkpt lat="46.12913" lon="6.71358">
        <ele>1694</ele>
        <time>2026-06-27T06:39:14Z</time>
      </trkpt>
      <trkpt lat="46.12914" lon="6.71359">
        <ele>1694</ele>
        <time>2026-06-27T06:39:15Z</time>
      </trkpt>
      <trkpt lat="46.12915" lon="6.71359">
        <ele>1694</ele>
        <time>2026-06-27T06:39:16Z</time>
      </trkpt>
      <trkpt lat="46.12916" lon="6.71359">
        <ele>1694</ele>
        <time>2026-06-27T06:39:17Z</time>
      </trkpt>
      <trkpt lat="46.12917" lon="6.71359">
        <ele>1694</ele>
        <time>2026-06-27T06:39:18Z</time>
      </trkpt>
      <trkpt lat="46.12917" lon="6.71359">
        <ele>1694</ele>
        <time>2026-06-27T06:39:19Z</time>
      </trkpt>
      <trkpt lat="46.12916" lon="6.71359">
        <ele>1694</ele>
        <time>2026-06-27T06:39:20Z</time>
      </trkpt>
      <trkpt lat="46.12917" lon="6.7136">
        <ele>1693.9</ele>
        <time>2026-06-27T06:39:21Z</time>
      </trkpt>
      <trkpt lat="46.12916" lon="6.7136">
        <ele>1693.8</ele>
        <time>2026-06-27T06:39:22Z</time>
      </trkpt>
      <trkpt lat="46.12916" lon="6.7136">
        <ele>1693.9</ele>
        <time>2026-06-27T06:39:23Z</time>
      </trkpt>
      <trkpt lat="46.12916" lon="6.7136">
        <ele>1693.9</ele>
        <time>2026-06-27T06:39:24Z</time>
      </trkpt>
      <trkpt lat="46.12916" lon="6.7136">
        <ele>1693.8</ele>
        <time>2026-06-27T06:39:25Z</time>
      </trkpt>
      <trkpt lat="46.12916" lon="6.71361">
        <ele>1693.8</ele>
        <time>2026-06-27T06:39:26Z</time>
      </trkpt>
      <trkpt lat="46.12916" lon="6.7136">
        <ele>1693.8</ele>
        <time>2026-06-27T06:39:27Z</time>
      </trkpt>
      <trkpt lat="46.12917" lon="6.7136">
        <ele>1693.8</ele>
        <time>2026-06-27T06:39:28Z</time>
      </trkpt>
      <trkpt lat="46.12917" lon="6.7136">
        <ele>1693.8</ele>
        <time>2026-06-27T06:39:29Z</time>
      </trkpt>
      <trkpt lat="46.12918" lon="6.7136">
        <ele>1693.8</ele>
        <time>2026-06-27T06:39:30Z</time>
      </trkpt>
      <trkpt lat="46.12918" lon="6.71361">
        <ele>1693.8</ele>
        <time>2026-06-27T06:39:31Z</time>
      </trkpt>
      <trkpt lat="46.12918" lon="6.71361">
        <ele>1693.7</ele>
        <time>2026-06-27T06:39:32Z</time>
      </trkpt>
      <trkpt lat="46.12918" lon="6.71361">
        <ele>1693.7</ele>
        <time>2026-06-27T06:39:33Z</time>
      </trkpt>
      <trkpt lat="46.12918" lon="6.71361">
        <ele>1693.7</ele>
        <time>2026-06-27T06:39:34Z</time>
      </trkpt>
      <trkpt lat="46.12918" lon="6.71361">
        <ele>1693.7</ele>
        <time>2026-06-27T06:39:35Z</time>
      </trkpt>
      <trkpt lat="46.12918" lon="6.71361">
        <ele>1693.7</ele>
        <time>2026-06-27T06:39:36Z</time>
      </trkpt>
      <trkpt lat="46.12918" lon="6.71361">
        <ele>1693.7</ele>
        <time>2026-06-27T06:39:37Z</time>
      </trkpt>
      <trkpt lat="46.12918" lon="6.71361">
        <ele>1693.8</ele>
        <time>2026-06-27T06:39:38Z</time>
      </trkpt>
      <trkpt lat="46.12918" lon="6.71361">
        <ele>1693.8</ele>
        <time>2026-06-27T06:39:39Z</time>
      </trkpt>
      <trkpt lat="46.12918" lon="6.71361">
        <ele>1693.9</ele>
        <time>2026-06-27T06:39:40Z</time>
      </trkpt>
      <trkpt lat="46.12918" lon="6.71361">
        <ele>1693.9</ele>
        <time>2026-06-27T06:39:41Z</time>
      </trkpt>
      <trkpt lat="46.12918" lon="6.71361">
        <ele>1693.9</ele>
        <time>2026-06-27T06:39:42Z</time>
      </trkpt>
      <trkpt lat="46.12918" lon="6.71361">
        <ele>1693.9</ele>
        <time>2026-06-27T06:39:43Z</time>
      </trkpt>
      <trkpt lat="46.12918" lon="6.71361">
        <ele>1693.9</ele>
        <time>2026-06-27T06:39:44Z</time>
      </trkpt>
      <trkpt lat="46.12918" lon="6.71361">
        <ele>1693.9</ele>
        <time>2026-06-27T06:39:45Z</time>
      </trkpt>
      <trkpt lat="46.12918" lon="6.71361">
        <ele>1693.9</ele>
        <time>2026-06-27T06:39:46Z</time>
      </trkpt>
      <trkpt lat="46.12918" lon="6.71361">
        <ele>1693.9</ele>
        <time>2026-06-27T06:39:47Z</time>
      </trkpt>
      <trkpt lat="46.12918" lon="6.71361">
        <ele>1693.9</ele>
        <time>2026-06-27T06:39:48Z</time>
      </trkpt>
      <trkpt lat="46.12918" lon="6.71361">
        <ele>1693.9</ele>
        <time>2026-06-27T06:39:49Z</time>
      </trkpt>
      <trkpt lat="46.12918" lon="6.71362">
        <ele>1693.9</ele>
        <time>2026-06-27T06:39:50Z</time>
      </trkpt>
      <trkpt lat="46.12918" lon="6.71362">
        <ele>1693.9</ele>
        <time>2026-06-27T06:39:51Z</time>
      </trkpt>
      <trkpt lat="46.12919" lon="6.71362">
        <ele>1693.9</ele>
        <time>2026-06-27T06:39:52Z</time>
      </trkpt>
      <trkpt lat="46.12919" lon="6.71362">
        <ele>1693.9</ele>
        <time>2026-06-27T06:39:53Z</time>
      </trkpt>
      <trkpt lat="46.12919" lon="6.71362">
        <ele>1693.8</ele>
        <time>2026-06-27T06:39:54Z</time>
      </trkpt>
      <trkpt lat="46.12919" lon="6.71362">
        <ele>1693.8</ele>
        <time>2026-06-27T06:39:55Z</time>
      </trkpt>
      <trkpt lat="46.12919" lon="6.71362">
        <ele>1693.8</ele>
        <time>2026-06-27T06:39:56Z</time>
      </trkpt>
      <trkpt lat="46.12919" lon="6.71362">
        <ele>1693.7</ele>
        <time>2026-06-27T06:39:57Z</time>
      </trkpt>
      <trkpt lat="46.12918" lon="6.71362">
        <ele>1693.7</ele>
        <time>2026-06-27T06:39:58Z</time>
      </trkpt>
      <trkpt lat="46.12918" lon="6.71362">
        <ele>1693.7</ele>
        <time>2026-06-27T06:39:59Z</time>
      </trkpt>
      <trkpt lat="46.12918" lon="6.71362">
        <ele>1693.7</ele>
        <time>2026-06-27T06:40:00Z</time>
      </trkpt>
      <trkpt lat="46.12918" lon="6.71362">
        <ele>1693.7</ele>
        <time>2026-06-27T06:40:01Z</time>
      </trkpt>
      <trkpt lat="46.12918" lon="6.71363">
        <ele>1693.6</ele>
        <time>2026-06-27T06:40:02Z</time>
      </trkpt>
      <trkpt lat="46.12918" lon="6.71363">
        <ele>1693.6</ele>
        <time>2026-06-27T06:40:03Z</time>
      </trkpt>
      <trkpt lat="46.12918" lon="6.71363">
        <ele>1693.6</ele>
        <time>2026-06-27T06:40:04Z</time>
      </trkpt>
      <trkpt lat="46.12918" lon="6.71363">
        <ele>1693.6</ele>
        <time>2026-06-27T06:40:05Z</time>
      </trkpt>
      <trkpt lat="46.12918" lon="6.71363">
        <ele>1693.6</ele>
        <time>2026-06-27T06:40:06Z</time>
      </trkpt>
      <trkpt lat="46.12918" lon="6.71363">
        <ele>1693.6</ele>
        <time>2026-06-27T06:40:07Z</time>
      </trkpt>
      <trkpt lat="46.12918" lon="6.71363">
        <ele>1693.6</ele>
        <time>2026-06-27T06:40:08Z</time>
      </trkpt>
      <trkpt lat="46.12918" lon="6.71363">
        <ele>1693.6</ele>
        <time>2026-06-27T06:40:09Z</time>
      </trkpt>
      <trkpt lat="46.12918" lon="6.71363">
        <ele>1693.7</ele>
        <time>2026-06-27T06:40:10Z</time>
      </trkpt>
      <trkpt lat="46.12918" lon="6.71363">
        <ele>1693.7</ele>
        <time>2026-06-27T06:40:11Z</time>
      </trkpt>
      <trkpt lat="46.12918" lon="6.71363">
        <ele>1693.8</ele>
        <time>2026-06-27T06:40:12Z</time>
      </trkpt>
      <trkpt lat="46.12918" lon="6.71363">
        <ele>1693.8</ele>
        <time>2026-06-27T06:40:13Z</time>
      </trkpt>
      <trkpt lat="46.12918" lon="6.71363">
        <ele>1693.8</ele>
        <time>2026-06-27T06:40:14Z</time>
      </trkpt>
      <trkpt lat="46.12918" lon="6.71363">
        <ele>1693.8</ele>
        <time>2026-06-27T06:40:15Z</time>
      </trkpt>
      <trkpt lat="46.12918" lon="6.71363">
        <ele>1693.8</ele>
        <time>2026-06-27T06:40:16Z</time>
      </trkpt>
      <trkpt lat="46.12918" lon="6.71363">
        <ele>1693.8</ele>
        <time>2026-06-27T06:40:17Z</time>
      </trkpt>
      <trkpt lat="46.12918" lon="6.71363">
        <ele>1693.8</ele>
        <time>2026-06-27T06:40:18Z</time>
      </trkpt>
      <trkpt lat="46.12919" lon="6.71363">
        <ele>1693.7</ele>
        <time>2026-06-27T06:40:19Z</time>
      </trkpt>
      <trkpt lat="46.12919" lon="6.71363">
        <ele>1693.7</ele>
        <time>2026-06-27T06:40:20Z</time>
      </trkpt>
      <trkpt lat="46.12919" lon="6.71363">
        <ele>1693.7</ele>
        <time>2026-06-27T06:40:21Z</time>
      </trkpt>
      <trkpt lat="46.12919" lon="6.71363">
        <ele>1693.7</ele>
        <time>2026-06-27T06:40:22Z</time>
      </trkpt>
      <trkpt lat="46.12919" lon="6.71363">
        <ele>1693.7</ele>
        <time>2026-06-27T06:40:23Z</time>
      </trkpt>
      <trkpt lat="46.12919" lon="6.71363">
        <ele>1693.7</ele>
        <time>2026-06-27T06:40:24Z</time>
      </trkpt>
      <trkpt lat="46.12919" lon="6.71363">
        <ele>1693.7</ele>
        <time>2026-06-27T06:40:25Z</time>
      </trkpt>
      <trkpt lat="46.12919" lon="6.71363">
        <ele>1693.7</ele>
        <time>2026-06-27T06:40:26Z</time>
      </trkpt>
      <trkpt lat="46.12919" lon="6.71363">
        <ele>1693.5</ele>
        <time>2026-06-27T06:40:27Z</time>
      </trkpt>
      <trkpt lat="46.12919" lon="6.71363">
        <ele>1693.5</ele>
        <time>2026-06-27T06:40:28Z</time>
      </trkpt>
      <trkpt lat="46.12919" lon="6.71364">
        <ele>1693.4</ele>
        <time>2026-06-27T06:40:29Z</time>
      </trkpt>
      <trkpt lat="46.12919" lon="6.71364">
        <ele>1693.5</ele>
        <time>2026-06-27T06:40:30Z</time>
      </trkpt>
      <trkpt lat="46.12919" lon="6.71364">
        <ele>1693.5</ele>
        <time>2026-06-27T06:40:31Z</time>
      </trkpt>
      <trkpt lat="46.12919" lon="6.71364">
        <ele>1693.5</ele>
        <time>2026-06-27T06:40:32Z</time>
      </trkpt>
      <trkpt lat="46.12919" lon="6.71364">
        <ele>1693.5</ele>
        <time>2026-06-27T06:40:33Z</time>
      </trkpt>
      <trkpt lat="46.12919" lon="6.71363">
        <ele>1693.6</ele>
        <time>2026-06-27T06:40:34Z</time>
      </trkpt>
      <trkpt lat="46.12919" lon="6.71364">
        <ele>1693.7</ele>
        <time>2026-06-27T06:40:35Z</time>
      </trkpt>
      <trkpt lat="46.12919" lon="6.71364">
        <ele>1693.8</ele>
        <time>2026-06-27T06:40:36Z</time>
      </trkpt>
      <trkpt lat="46.12919" lon="6.71364">
        <ele>1693.8</ele>
        <time>2026-06-27T06:40:37Z</time>
      </trkpt>
      <trkpt lat="46.12919" lon="6.71364">
        <ele>1693.8</ele>
        <time>2026-06-27T06:40:38Z</time>
      </trkpt>
      <trkpt lat="46.12919" lon="6.71364">
        <ele>1693.8</ele>
        <time>2026-06-27T06:40:39Z</time>
      </trkpt>
      <trkpt lat="46.12919" lon="6.71364">
        <ele>1693.8</ele>
        <time>2026-06-27T06:40:40Z</time>
      </trkpt>
      <trkpt lat="46.12919" lon="6.71364">
        <ele>1693.8</ele>
        <time>2026-06-27T06:40:41Z</time>
      </trkpt>
      <trkpt lat="46.12919" lon="6.71364">
        <ele>1693.8</ele>
        <time>2026-06-27T06:40:42Z</time>
      </trkpt>
      <trkpt lat="46.12919" lon="6.71364">
        <ele>1693.8</ele>
        <time>2026-06-27T06:40:43Z</time>
      </trkpt>
      <trkpt lat="46.12919" lon="6.71364">
        <ele>1693.7</ele>
        <time>2026-06-27T06:40:44Z</time>
      </trkpt>
      <trkpt lat="46.12919" lon="6.71364">
        <ele>1693.7</ele>
        <time>2026-06-27T06:40:45Z</time>
      </trkpt>
      <trkpt lat="46.12919" lon="6.71364">
        <ele>1693.7</ele>
        <time>2026-06-27T06:40:46Z</time>
      </trkpt>
      <trkpt lat="46.12919" lon="6.71364">
        <ele>1693.8</ele>
        <time>2026-06-27T06:40:47Z</time>
      </trkpt>
      <trkpt lat="46.12919" lon="6.71364">
        <ele>1693.8</ele>
        <time>2026-06-27T06:40:48Z</time>
      </trkpt>
      <trkpt lat="46.12919" lon="6.71364">
        <ele>1693.8</ele>
        <time>2026-06-27T06:40:49Z</time>
      </trkpt>
      <trkpt lat="46.12918" lon="6.71364">
        <ele>1693.8</ele>
        <time>2026-06-27T06:40:50Z</time>
      </trkpt>
      <trkpt lat="46.12918" lon="6.71364">
        <ele>1693.9</ele>
        <time>2026-06-27T06:40:51Z</time>
      </trkpt>
      <trkpt lat="46.12919" lon="6.71364">
        <ele>1693.9</ele>
        <time>2026-06-27T06:40:52Z</time>
      </trkpt>
      <trkpt lat="46.12919" lon="6.71364">
        <ele>1694</ele>
        <time>2026-06-27T06:40:53Z</time>
      </trkpt>
      <trkpt lat="46.12919" lon="6.71364">
        <ele>1694</ele>
        <time>2026-06-27T06:40:54Z</time>
      </trkpt>
      <trkpt lat="46.12919" lon="6.71364">
        <ele>1694</ele>
        <time>2026-06-27T06:40:55Z</time>
      </trkpt>
      <trkpt lat="46.12919" lon="6.71364">
        <ele>1694</ele>
        <time>2026-06-27T06:40:56Z</time>
      </trkpt>
      <trkpt lat="46.12919" lon="6.71364">
        <ele>1694</ele>
        <time>2026-06-27T06:40:57Z</time>
      </trkpt>
      <trkpt lat="46.12919" lon="6.71363">
        <ele>1694</ele>
        <time>2026-06-27T06:40:58Z</time>
      </trkpt>
      <trkpt lat="46.12919" lon="6.71363">
        <ele>1694</ele>
        <time>2026-06-27T06:40:59Z</time>
      </trkpt>
      <trkpt lat="46.12919" lon="6.71363">
        <ele>1694</ele>
        <time>2026-06-27T06:41:00Z</time>
      </trkpt>
      <trkpt lat="46.12919" lon="6.71363">
        <ele>1694</ele>
        <time>2026-06-27T06:41:01Z</time>
      </trkpt>
      <trkpt lat="46.12919" lon="6.71363">
        <ele>1694</ele>
        <time>2026-06-27T06:41:02Z</time>
      </trkpt>
      <trkpt lat="46.12919" lon="6.71363">
        <ele>1694</ele>
        <time>2026-06-27T06:41:03Z</time>
      </trkpt>
      <trkpt lat="46.12919" lon="6.71363">
        <ele>1694</ele>
        <time>2026-06-27T06:41:04Z</time>
      </trkpt>
      <trkpt lat="46.12919" lon="6.71363">
        <ele>1693.9</ele>
        <time>2026-06-27T06:41:05Z</time>
      </trkpt>
      <trkpt lat="46.12919" lon="6.71362">
        <ele>1693.9</ele>
        <time>2026-06-27T06:41:06Z</time>
      </trkpt>
      <trkpt lat="46.12919" lon="6.71362">
        <ele>1693.9</ele>
        <time>2026-06-27T06:41:07Z</time>
      </trkpt>
      <trkpt lat="46.12919" lon="6.71362">
        <ele>1693.9</ele>
        <time>2026-06-27T06:41:08Z</time>
      </trkpt>
      <trkpt lat="46.12919" lon="6.71362">
        <ele>1693.9</ele>
        <time>2026-06-27T06:41:09Z</time>
      </trkpt>
      <trkpt lat="46.12919" lon="6.71362">
        <ele>1694</ele>
        <time>2026-06-27T06:41:10Z</time>
      </trkpt>
      <trkpt lat="46.12919" lon="6.71361">
        <ele>1694</ele>
        <time>2026-06-27T06:41:11Z</time>
      </trkpt>
      <trkpt lat="46.12918" lon="6.71361">
        <ele>1693.9</ele>
        <time>2026-06-27T06:41:12Z</time>
      </trkpt>
      <trkpt lat="46.12918" lon="6.71361">
        <ele>1693.9</ele>
        <time>2026-06-27T06:41:13Z</time>
      </trkpt>
      <trkpt lat="46.12918" lon="6.71361">
        <ele>1693.9</ele>
        <time>2026-06-27T06:41:14Z</time>
      </trkpt>
      <trkpt lat="46.12918" lon="6.71361">
        <ele>1693.9</ele>
        <time>2026-06-27T06:41:15Z</time>
      </trkpt>
      <trkpt lat="46.12918" lon="6.71362">
        <ele>1693.9</ele>
        <time>2026-06-27T06:41:16Z</time>
      </trkpt>
      <trkpt lat="46.12918" lon="6.71362">
        <ele>1693.8</ele>
        <time>2026-06-27T06:41:17Z</time>
      </trkpt>
      <trkpt lat="46.12918" lon="6.71362">
        <ele>1693.8</ele>
        <time>2026-06-27T06:41:18Z</time>
      </trkpt>
      <trkpt lat="46.12918" lon="6.71362">
        <ele>1693.7</ele>
        <time>2026-06-27T06:41:19Z</time>
      </trkpt>
      <trkpt lat="46.12918" lon="6.71362">
        <ele>1693.7</ele>
        <time>2026-06-27T06:41:20Z</time>
      </trkpt>
      <trkpt lat="46.12918" lon="6.71362">
        <ele>1693.7</ele>
        <time>2026-06-27T06:41:21Z</time>
      </trkpt>
      <trkpt lat="46.12918" lon="6.71362">
        <ele>1693.7</ele>
        <time>2026-06-27T06:41:22Z</time>
      </trkpt>
      <trkpt lat="46.12918" lon="6.71362">
        <ele>1693.7</ele>
        <time>2026-06-27T06:41:23Z</time>
      </trkpt>
      <trkpt lat="46.12918" lon="6.71362">
        <ele>1693.8</ele>
        <time>2026-06-27T06:41:24Z</time>
      </trkpt>
      <trkpt lat="46.12918" lon="6.71362">
        <ele>1693.9</ele>
        <time>2026-06-27T06:41:25Z</time>
      </trkpt>
      <trkpt lat="46.12918" lon="6.71362">
        <ele>1693.9</ele>
        <time>2026-06-27T06:41:26Z</time>
      </trkpt>
      <trkpt lat="46.12918" lon="6.71362">
        <ele>1694</ele>
        <time>2026-06-27T06:41:27Z</time>
      </trkpt>
      <trkpt lat="46.12918" lon="6.71361">
        <ele>1693.8</ele>
        <time>2026-06-27T06:41:28Z</time>
      </trkpt>
      <trkpt lat="46.12918" lon="6.71361">
        <ele>1693.8</ele>
        <time>2026-06-27T06:41:29Z</time>
      </trkpt>
      <trkpt lat="46.12918" lon="6.71361">
        <ele>1693.6</ele>
        <time>2026-06-27T06:41:30Z</time>
      </trkpt>
      <trkpt lat="46.12918" lon="6.71361">
        <ele>1693.5</ele>
        <time>2026-06-27T06:41:31Z</time>
      </trkpt>
      <trkpt lat="46.12918" lon="6.71361">
        <ele>1693.5</ele>
        <time>2026-06-27T06:41:32Z</time>
      </trkpt>
      <trkpt lat="46.12917" lon="6.71361">
        <ele>1693.5</ele>
        <time>2026-06-27T06:41:33Z</time>
      </trkpt>
      <trkpt lat="46.12917" lon="6.71361">
        <ele>1693.6</ele>
        <time>2026-06-27T06:41:34Z</time>
      </trkpt>
      <trkpt lat="46.12917" lon="6.71361">
        <ele>1693.6</ele>
        <time>2026-06-27T06:41:35Z</time>
      </trkpt>
      <trkpt lat="46.12917" lon="6.71361">
        <ele>1693.6</ele>
        <time>2026-06-27T06:41:36Z</time>
      </trkpt>
      <trkpt lat="46.12917" lon="6.71361">
        <ele>1693.6</ele>
        <time>2026-06-27T06:41:37Z</time>
      </trkpt>
      <trkpt lat="46.12917" lon="6.71361">
        <ele>1693.5</ele>
        <time>2026-06-27T06:41:38Z</time>
      </trkpt>
      <trkpt lat="46.12917" lon="6.71361">
        <ele>1693.5</ele>
        <time>2026-06-27T06:41:39Z</time>
      </trkpt>
      <trkpt lat="46.12917" lon="6.71361">
        <ele>1693.6</ele>
        <time>2026-06-27T06:41:40Z</time>
      </trkpt>
      <trkpt lat="46.12917" lon="6.71361">
        <ele>1693.6</ele>
        <time>2026-06-27T06:41:41Z</time>
      </trkpt>
      <trkpt lat="46.12916" lon="6.71361">
        <ele>1693.6</ele>
        <time>2026-06-27T06:41:42Z</time>
      </trkpt>
      <trkpt lat="46.12916" lon="6.71361">
        <ele>1693.7</ele>
        <time>2026-06-27T06:41:43Z</time>
      </trkpt>
      <trkpt lat="46.12916" lon="6.71361">
        <ele>1693.7</ele>
        <time>2026-06-27T06:41:44Z</time>
      </trkpt>
      <trkpt lat="46.12916" lon="6.71361">
        <ele>1693.6</ele>
        <time>2026-06-27T06:41:45Z</time>
      </trkpt>
      <trkpt lat="46.12916" lon="6.71361">
        <ele>1693.6</ele>
        <time>2026-06-27T06:41:46Z</time>
      </trkpt>
      <trkpt lat="46.12916" lon="6.71361">
        <ele>1693.6</ele>
        <time>2026-06-27T06:41:47Z</time>
      </trkpt>
      <trkpt lat="46.12916" lon="6.71361">
        <ele>1693.6</ele>
        <time>2026-06-27T06:41:48Z</time>
      </trkpt>
      <trkpt lat="46.12916" lon="6.7136">
        <ele>1693.5</ele>
        <time>2026-06-27T06:41:49Z</time>
      </trkpt>
      <trkpt lat="46.12916" lon="6.71361">
        <ele>1693.5</ele>
        <time>2026-06-27T06:41:50Z</time>
      </trkpt>
      <trkpt lat="46.12915" lon="6.7136">
        <ele>1693.5</ele>
        <time>2026-06-27T06:41:51Z</time>
      </trkpt>
      <trkpt lat="46.12915" lon="6.7136">
        <ele>1693.5</ele>
        <time>2026-06-27T06:41:52Z</time>
      </trkpt>
      <trkpt lat="46.12915" lon="6.7136">
        <ele>1693.5</ele>
        <time>2026-06-27T06:41:53Z</time>
      </trkpt>
      <trkpt lat="46.12915" lon="6.71361">
        <ele>1693.6</ele>
        <time>2026-06-27T06:41:54Z</time>
      </trkpt>
      <trkpt lat="46.12915" lon="6.71361">
        <ele>1693.6</ele>
        <time>2026-06-27T06:41:55Z</time>
      </trkpt>
      <trkpt lat="46.12915" lon="6.71361">
        <ele>1693.6</ele>
        <time>2026-06-27T06:41:56Z</time>
      </trkpt>
      <trkpt lat="46.12915" lon="6.71362">
        <ele>1693.6</ele>
        <time>2026-06-27T06:41:57Z</time>
      </trkpt>
      <trkpt lat="46.12915" lon="6.71362">
        <ele>1693.7</ele>
        <time>2026-06-27T06:41:58Z</time>
      </trkpt>
      <trkpt lat="46.12914" lon="6.71363">
        <ele>1693.8</ele>
        <time>2026-06-27T06:41:59Z</time>
      </trkpt>
      <trkpt lat="46.12914" lon="6.71363">
        <ele>1693.7</ele>
        <time>2026-06-27T06:42:00Z</time>
      </trkpt>
      <trkpt lat="46.12914" lon="6.71364">
        <ele>1693.7</ele>
        <time>2026-06-27T06:42:01Z</time>
      </trkpt>
      <trkpt lat="46.12914" lon="6.71364">
        <ele>1693.7</ele>
        <time>2026-06-27T06:42:02Z</time>
      </trkpt>
      <trkpt lat="46.12913" lon="6.71365">
        <ele>1693.7</ele>
        <time>2026-06-27T06:42:03Z</time>
      </trkpt>
      <trkpt lat="46.12913" lon="6.71367">
        <ele>1693.7</ele>
        <time>2026-06-27T06:42:04Z</time>
      </trkpt>
      <trkpt lat="46.12913" lon="6.71368">
        <ele>1693.7</ele>
        <time>2026-06-27T06:42:05Z</time>
      </trkpt>
      <trkpt lat="46.12913" lon="6.71368">
        <ele>1693.9</ele>
        <time>2026-06-27T06:42:06Z</time>
      </trkpt>
      <trkpt lat="46.12913" lon="6.71369">
        <ele>1694</ele>
        <time>2026-06-27T06:42:07Z</time>
      </trkpt>
      <trkpt lat="46.12913" lon="6.7137">
        <ele>1694</ele>
        <time>2026-06-27T06:42:08Z</time>
      </trkpt>
      <trkpt lat="46.12914" lon="6.71371">
        <ele>1694.2</ele>
        <time>2026-06-27T06:42:09Z</time>
      </trkpt>
      <trkpt lat="46.12914" lon="6.71371">
        <ele>1694.2</ele>
        <time>2026-06-27T06:42:10Z</time>
      </trkpt>
      <trkpt lat="46.12915" lon="6.71371">
        <ele>1694.3</ele>
        <time>2026-06-27T06:42:11Z</time>
      </trkpt>
      <trkpt lat="46.12915" lon="6.71371">
        <ele>1694.4</ele>
        <time>2026-06-27T06:42:12Z</time>
      </trkpt>
      <trkpt lat="46.12915" lon="6.71371">
        <ele>1694.4</ele>
        <time>2026-06-27T06:42:13Z</time>
      </trkpt>
      <trkpt lat="46.12915" lon="6.71371">
        <ele>1694.4</ele>
        <time>2026-06-27T06:42:14Z</time>
      </trkpt>
      <trkpt lat="46.12915" lon="6.71371">
        <ele>1694.4</ele>
        <time>2026-06-27T06:42:15Z</time>
      </trkpt>
      <trkpt lat="46.12915" lon="6.71371">
        <ele>1694.5</ele>
        <time>2026-06-27T06:42:16Z</time>
      </trkpt>
      <trkpt lat="46.12915" lon="6.71371">
        <ele>1694.5</ele>
        <time>2026-06-27T06:42:17Z</time>
      </trkpt>
      <trkpt lat="46.12916" lon="6.71371">
        <ele>1694.5</ele>
        <time>2026-06-27T06:42:18Z</time>
      </trkpt>
      <trkpt lat="46.12916" lon="6.71371">
        <ele>1694.5</ele>
        <time>2026-06-27T06:42:19Z</time>
      </trkpt>
      <trkpt lat="46.12916" lon="6.71371">
        <ele>1694.5</ele>
        <time>2026-06-27T06:42:20Z</time>
      </trkpt>
      <trkpt lat="46.12916" lon="6.71371">
        <ele>1694.5</ele>
        <time>2026-06-27T06:42:21Z</time>
      </trkpt>
      <trkpt lat="46.12917" lon="6.71371">
        <ele>1694.6</ele>
        <time>2026-06-27T06:42:22Z</time>
      </trkpt>
      <trkpt lat="46.12917" lon="6.71372">
        <ele>1694.6</ele>
        <time>2026-06-27T06:42:23Z</time>
      </trkpt>
      <trkpt lat="46.12916" lon="6.71372">
        <ele>1694.7</ele>
        <time>2026-06-27T06:42:24Z</time>
      </trkpt>
      <trkpt lat="46.12916" lon="6.71372">
        <ele>1694.7</ele>
        <time>2026-06-27T06:42:25Z</time>
      </trkpt>
      <trkpt lat="46.12916" lon="6.71372">
        <ele>1694.8</ele>
        <time>2026-06-27T06:42:26Z</time>
      </trkpt>
      <trkpt lat="46.12915" lon="6.71372">
        <ele>1694.9</ele>
        <time>2026-06-27T06:42:27Z</time>
      </trkpt>
      <trkpt lat="46.12915" lon="6.71373">
        <ele>1695</ele>
        <time>2026-06-27T06:42:28Z</time>
      </trkpt>
      <trkpt lat="46.12915" lon="6.71373">
        <ele>1695.1</ele>
        <time>2026-06-27T06:42:29Z</time>
      </trkpt>
      <trkpt lat="46.12914" lon="6.71373">
        <ele>1695.2</ele>
        <time>2026-06-27T06:42:30Z</time>
      </trkpt>
      <trkpt lat="46.12914" lon="6.71373">
        <ele>1695.2</ele>
        <time>2026-06-27T06:42:31Z</time>
      </trkpt>
      <trkpt lat="46.12914" lon="6.71373">
        <ele>1695.2</ele>
        <time>2026-06-27T06:42:32Z</time>
      </trkpt>
      <trkpt lat="46.12914" lon="6.71373">
        <ele>1695.2</ele>
        <time>2026-06-27T06:42:33Z</time>
      </trkpt>
      <trkpt lat="46.12913" lon="6.71373">
        <ele>1695.3</ele>
        <time>2026-06-27T06:42:34Z</time>
      </trkpt>
      <trkpt lat="46.12914" lon="6.71373">
        <ele>1695.3</ele>
        <time>2026-06-27T06:42:35Z</time>
      </trkpt>
      <trkpt lat="46.12914" lon="6.71373">
        <ele>1695.3</ele>
        <time>2026-06-27T06:42:36Z</time>
      </trkpt>
      <trkpt lat="46.12913" lon="6.71372">
        <ele>1695.4</ele>
        <time>2026-06-27T06:42:37Z</time>
      </trkpt>
      <trkpt lat="46.12913" lon="6.71373">
        <ele>1695.4</ele>
        <time>2026-06-27T06:42:38Z</time>
      </trkpt>
      <trkpt lat="46.12912" lon="6.71372">
        <ele>1695.5</ele>
        <time>2026-06-27T06:42:39Z</time>
      </trkpt>
      <trkpt lat="46.12912" lon="6.71372">
        <ele>1695.6</ele>
        <time>2026-06-27T06:42:40Z</time>
      </trkpt>
      <trkpt lat="46.12912" lon="6.71372">
        <ele>1695.6</ele>
        <time>2026-06-27T06:42:41Z</time>
      </trkpt>
      <trkpt lat="46.12911" lon="6.71372">
        <ele>1695.7</ele>
        <time>2026-06-27T06:42:42Z</time>
      </trkpt>
      <trkpt lat="46.1291" lon="6.71372">
        <ele>1695.8</ele>
        <time>2026-06-27T06:42:43Z</time>
      </trkpt>
      <trkpt lat="46.1291" lon="6.71373">
        <ele>1695.8</ele>
        <time>2026-06-27T06:42:44Z</time>
      </trkpt>
      <trkpt lat="46.12909" lon="6.71373">
        <ele>1695.8</ele>
        <time>2026-06-27T06:42:45Z</time>
      </trkpt>
      <trkpt lat="46.12909" lon="6.71374">
        <ele>1695.9</ele>
        <time>2026-06-27T06:42:46Z</time>
      </trkpt>
      <trkpt lat="46.12908" lon="6.71374">
        <ele>1696.1</ele>
        <time>2026-06-27T06:42:47Z</time>
      </trkpt>
      <trkpt lat="46.12907" lon="6.71374">
        <ele>1696.2</ele>
        <time>2026-06-27T06:42:48Z</time>
      </trkpt>
      <trkpt lat="46.12906" lon="6.71374">
        <ele>1696.2</ele>
        <time>2026-06-27T06:42:49Z</time>
      </trkpt>
      <trkpt lat="46.12905" lon="6.71374">
        <ele>1696.3</ele>
        <time>2026-06-27T06:42:50Z</time>
      </trkpt>
      <trkpt lat="46.12905" lon="6.71374">
        <ele>1696.4</ele>
        <time>2026-06-27T06:42:51Z</time>
      </trkpt>
      <trkpt lat="46.12906" lon="6.71376">
        <ele>1696.4</ele>
        <time>2026-06-27T06:42:52Z</time>
      </trkpt>
      <trkpt lat="46.12906" lon="6.71376">
        <ele>1696.5</ele>
        <time>2026-06-27T06:42:53Z</time>
      </trkpt>
      <trkpt lat="46.12906" lon="6.71376">
        <ele>1696.5</ele>
        <time>2026-06-27T06:42:54Z</time>
      </trkpt>
      <trkpt lat="46.12906" lon="6.71376">
        <ele>1696.6</ele>
        <time>2026-06-27T06:42:55Z</time>
      </trkpt>
      <trkpt lat="46.12906" lon="6.71376">
        <ele>1696.6</ele>
        <time>2026-06-27T06:42:56Z</time>
      </trkpt>
      <trkpt lat="46.12906" lon="6.71376">
        <ele>1696.7</ele>
        <time>2026-06-27T06:42:57Z</time>
      </trkpt>
      <trkpt lat="46.12906" lon="6.71376">
        <ele>1696.7</ele>
        <time>2026-06-27T06:42:58Z</time>
      </trkpt>
      <trkpt lat="46.12906" lon="6.71376">
        <ele>1696.8</ele>
        <time>2026-06-27T06:42:59Z</time>
      </trkpt>
      <trkpt lat="46.12906" lon="6.71376">
        <ele>1696.8</ele>
        <time>2026-06-27T06:43:00Z</time>
      </trkpt>
      <trkpt lat="46.12906" lon="6.71377">
        <ele>1696.9</ele>
        <time>2026-06-27T06:43:01Z</time>
      </trkpt>
      <trkpt lat="46.12906" lon="6.71376">
        <ele>1696.9</ele>
        <time>2026-06-27T06:43:02Z</time>
      </trkpt>
      <trkpt lat="46.12905" lon="6.71376">
        <ele>1696.9</ele>
        <time>2026-06-27T06:43:03Z</time>
      </trkpt>
      <trkpt lat="46.12905" lon="6.71376">
        <ele>1697</ele>
        <time>2026-06-27T06:43:04Z</time>
      </trkpt>
      <trkpt lat="46.12904" lon="6.71376">
        <ele>1697</ele>
        <time>2026-06-27T06:43:05Z</time>
      </trkpt>
      <trkpt lat="46.12903" lon="6.71376">
        <ele>1697</ele>
        <time>2026-06-27T06:43:06Z</time>
      </trkpt>
      <trkpt lat="46.12903" lon="6.71375">
        <ele>1697</ele>
        <time>2026-06-27T06:43:07Z</time>
      </trkpt>
      <trkpt lat="46.12902" lon="6.71375">
        <ele>1697</ele>
        <time>2026-06-27T06:43:08Z</time>
      </trkpt>
      <trkpt lat="46.12902" lon="6.71375">
        <ele>1697.1</ele>
        <time>2026-06-27T06:43:09Z</time>
      </trkpt>
      <trkpt lat="46.12901" lon="6.71375">
        <ele>1697.1</ele>
        <time>2026-06-27T06:43:10Z</time>
      </trkpt>
      <trkpt lat="46.129" lon="6.71375">
        <ele>1697.1</ele>
        <time>2026-06-27T06:43:11Z</time>
      </trkpt>
      <trkpt lat="46.12899" lon="6.71375">
        <ele>1697.1</ele>
        <time>2026-06-27T06:43:12Z</time>
      </trkpt>
      <trkpt lat="46.12898" lon="6.71375">
        <ele>1697.1</ele>
        <time>2026-06-27T06:43:13Z</time>
      </trkpt>
      <trkpt lat="46.12898" lon="6.71375">
        <ele>1697.1</ele>
        <time>2026-06-27T06:43:14Z</time>
      </trkpt>
      <trkpt lat="46.12897" lon="6.71375">
        <ele>1697.1</ele>
        <time>2026-06-27T06:43:15Z</time>
      </trkpt>
      <trkpt lat="46.12896" lon="6.71375">
        <ele>1697.1</ele>
        <time>2026-06-27T06:43:16Z</time>
      </trkpt>
      <trkpt lat="46.12895" lon="6.71375">
        <ele>1697.2</ele>
        <time>2026-06-27T06:43:17Z</time>
      </trkpt>
      <trkpt lat="46.12895" lon="6.71376">
        <ele>1697.4</ele>
        <time>2026-06-27T06:43:18Z</time>
      </trkpt>
      <trkpt lat="46.12894" lon="6.71376">
        <ele>1697.6</ele>
        <time>2026-06-27T06:43:19Z</time>
      </trkpt>
      <trkpt lat="46.12894" lon="6.71376">
        <ele>1697.7</ele>
        <time>2026-06-27T06:43:20Z</time>
      </trkpt>
      <trkpt lat="46.12893" lon="6.71376">
        <ele>1697.8</ele>
        <time>2026-06-27T06:43:21Z</time>
      </trkpt>
      <trkpt lat="46.12893" lon="6.71376">
        <ele>1698</ele>
        <time>2026-06-27T06:43:22Z</time>
      </trkpt>
      <trkpt lat="46.12892" lon="6.71376">
        <ele>1698.1</ele>
        <time>2026-06-27T06:43:23Z</time>
      </trkpt>
      <trkpt lat="46.12892" lon="6.71376">
        <ele>1698.3</ele>
        <time>2026-06-27T06:43:24Z</time>
      </trkpt>
      <trkpt lat="46.12891" lon="6.71376">
        <ele>1698.4</ele>
        <time>2026-06-27T06:43:25Z</time>
      </trkpt>
      <trkpt lat="46.1289" lon="6.71376">
        <ele>1698.5</ele>
        <time>2026-06-27T06:43:26Z</time>
      </trkpt>
      <trkpt lat="46.1289" lon="6.71375">
        <ele>1698.5</ele>
        <time>2026-06-27T06:43:27Z</time>
      </trkpt>
      <trkpt lat="46.12889" lon="6.71375">
        <ele>1698.6</ele>
        <time>2026-06-27T06:43:28Z</time>
      </trkpt>
      <trkpt lat="46.12888" lon="6.71375">
        <ele>1698.6</ele>
        <time>2026-06-27T06:43:29Z</time>
      </trkpt>
      <trkpt lat="46.12887" lon="6.71376">
        <ele>1698.7</ele>
        <time>2026-06-27T06:43:30Z</time>
      </trkpt>
      <trkpt lat="46.12887" lon="6.71376">
        <ele>1698.9</ele>
        <time>2026-06-27T06:43:31Z</time>
      </trkpt>
      <trkpt lat="46.12886" lon="6.71376">
        <ele>1699</ele>
        <time>2026-06-27T06:43:32Z</time>
      </trkpt>
      <trkpt lat="46.12886" lon="6.71377">
        <ele>1699.2</ele>
        <time>2026-06-27T06:43:33Z</time>
      </trkpt>
      <trkpt lat="46.12885" lon="6.71377">
        <ele>1699.3</ele>
        <time>2026-06-27T06:43:34Z</time>
      </trkpt>
      <trkpt lat="46.12884" lon="6.71376">
        <ele>1699.4</ele>
        <time>2026-06-27T06:43:35Z</time>
      </trkpt>
      <trkpt lat="46.12884" lon="6.71376">
        <ele>1699.4</ele>
        <time>2026-06-27T06:43:36Z</time>
      </trkpt>
      <trkpt lat="46.12883" lon="6.71376">
        <ele>1699.5</ele>
        <time>2026-06-27T06:43:37Z</time>
      </trkpt>
      <trkpt lat="46.12882" lon="6.71376">
        <ele>1699.5</ele>
        <time>2026-06-27T06:43:38Z</time>
      </trkpt>
      <trkpt lat="46.12881" lon="6.71376">
        <ele>1699.6</ele>
        <time>2026-06-27T06:43:39Z</time>
      </trkpt>
      <trkpt lat="46.12881" lon="6.71376">
        <ele>1699.6</ele>
        <time>2026-06-27T06:43:40Z</time>
      </trkpt>
      <trkpt lat="46.1288" lon="6.71376">
        <ele>1699.7</ele>
        <time>2026-06-27T06:43:41Z</time>
      </trkpt>
      <trkpt lat="46.12879" lon="6.71376">
        <ele>1699.8</ele>
        <time>2026-06-27T06:43:42Z</time>
      </trkpt>
      <trkpt lat="46.12879" lon="6.71375">
        <ele>1699.8</ele>
        <time>2026-06-27T06:43:43Z</time>
      </trkpt>
      <trkpt lat="46.12878" lon="6.71376">
        <ele>1699.9</ele>
        <time>2026-06-27T06:43:44Z</time>
      </trkpt>
      <trkpt lat="46.12877" lon="6.71376">
        <ele>1700</ele>
        <time>2026-06-27T06:43:45Z</time>
      </trkpt>
      <trkpt lat="46.12877" lon="6.71376">
        <ele>1700.1</ele>
        <time>2026-06-27T06:43:46Z</time>
      </trkpt>
      <trkpt lat="46.12876" lon="6.71376">
        <ele>1700.2</ele>
        <time>2026-06-27T06:43:47Z</time>
      </trkpt>
      <trkpt lat="46.12875" lon="6.71375">
        <ele>1700.3</ele>
        <time>2026-06-27T06:43:48Z</time>
      </trkpt>
      <trkpt lat="46.12874" lon="6.71375">
        <ele>1700.4</ele>
        <time>2026-06-27T06:43:49Z</time>
      </trkpt>
      <trkpt lat="46.12874" lon="6.71375">
        <ele>1700.5</ele>
        <time>2026-06-27T06:43:50Z</time>
      </trkpt>
      <trkpt lat="46.12874" lon="6.71375">
        <ele>1700.5</ele>
        <time>2026-06-27T06:43:51Z</time>
      </trkpt>
      <trkpt lat="46.12873" lon="6.71374">
        <ele>1700.5</ele>
        <time>2026-06-27T06:43:52Z</time>
      </trkpt>
      <trkpt lat="46.12873" lon="6.71375">
        <ele>1700.5</ele>
        <time>2026-06-27T06:43:53Z</time>
      </trkpt>
      <trkpt lat="46.12872" lon="6.71374">
        <ele>1700.5</ele>
        <time>2026-06-27T06:43:54Z</time>
      </trkpt>
      <trkpt lat="46.12871" lon="6.71374">
        <ele>1700.5</ele>
        <time>2026-06-27T06:43:55Z</time>
      </trkpt>
      <trkpt lat="46.12871" lon="6.71374">
        <ele>1700.6</ele>
        <time>2026-06-27T06:43:56Z</time>
      </trkpt>
      <trkpt lat="46.1287" lon="6.71374">
        <ele>1700.7</ele>
        <time>2026-06-27T06:43:57Z</time>
      </trkpt>
      <trkpt lat="46.1287" lon="6.71373">
        <ele>1700.8</ele>
        <time>2026-06-27T06:43:58Z</time>
      </trkpt>
      <trkpt lat="46.12869" lon="6.71373">
        <ele>1700.9</ele>
        <time>2026-06-27T06:43:59Z</time>
      </trkpt>
      <trkpt lat="46.12868" lon="6.71373">
        <ele>1701</ele>
        <time>2026-06-27T06:44:00Z</time>
      </trkpt>
      <trkpt lat="46.12868" lon="6.71373">
        <ele>1701</ele>
        <time>2026-06-27T06:44:01Z</time>
      </trkpt>
      <trkpt lat="46.12867" lon="6.71372">
        <ele>1701.2</ele>
        <time>2026-06-27T06:44:02Z</time>
      </trkpt>
      <trkpt lat="46.12867" lon="6.71372">
        <ele>1701.3</ele>
        <time>2026-06-27T06:44:03Z</time>
      </trkpt>
      <trkpt lat="46.12866" lon="6.71371">
        <ele>1701.5</ele>
        <time>2026-06-27T06:44:04Z</time>
      </trkpt>
      <trkpt lat="46.12865" lon="6.7137">
        <ele>1701.6</ele>
        <time>2026-06-27T06:44:05Z</time>
      </trkpt>
      <trkpt lat="46.12864" lon="6.71369">
        <ele>1701.7</ele>
        <time>2026-06-27T06:44:06Z</time>
      </trkpt>
      <trkpt lat="46.12863" lon="6.71369">
        <ele>1701.8</ele>
        <time>2026-06-27T06:44:07Z</time>
      </trkpt>
      <trkpt lat="46.12863" lon="6.71368">
        <ele>1702</ele>
        <time>2026-06-27T06:44:08Z</time>
      </trkpt>
      <trkpt lat="46.12862" lon="6.71368">
        <ele>1702.2</ele>
        <time>2026-06-27T06:44:09Z</time>
      </trkpt>
      <trkpt lat="46.12862" lon="6.71367">
        <ele>1702.3</ele>
        <time>2026-06-27T06:44:10Z</time>
      </trkpt>
      <trkpt lat="46.12861" lon="6.71367">
        <ele>1702.4</ele>
        <time>2026-06-27T06:44:11Z</time>
      </trkpt>
      <trkpt lat="46.1286" lon="6.71366">
        <ele>1702.5</ele>
        <time>2026-06-27T06:44:12Z</time>
      </trkpt>
      <trkpt lat="46.12859" lon="6.71366">
        <ele>1702.6</ele>
        <time>2026-06-27T06:44:13Z</time>
      </trkpt>
      <trkpt lat="46.12858" lon="6.71365">
        <ele>1702.7</ele>
        <time>2026-06-27T06:44:14Z</time>
      </trkpt>
      <trkpt lat="46.12858" lon="6.71365">
        <ele>1702.7</ele>
        <time>2026-06-27T06:44:15Z</time>
      </trkpt>
      <trkpt lat="46.12857" lon="6.71364">
        <ele>1702.7</ele>
        <time>2026-06-27T06:44:16Z</time>
      </trkpt>
      <trkpt lat="46.12857" lon="6.71364">
        <ele>1702.8</ele>
        <time>2026-06-27T06:44:17Z</time>
      </trkpt>
      <trkpt lat="46.12856" lon="6.71364">
        <ele>1702.9</ele>
        <time>2026-06-27T06:44:18Z</time>
      </trkpt>
      <trkpt lat="46.12855" lon="6.71364">
        <ele>1703</ele>
        <time>2026-06-27T06:44:19Z</time>
      </trkpt>
      <trkpt lat="46.12855" lon="6.71363">
        <ele>1703.1</ele>
        <time>2026-06-27T06:44:20Z</time>
      </trkpt>
      <trkpt lat="46.12854" lon="6.71362">
        <ele>1703.2</ele>
        <time>2026-06-27T06:44:21Z</time>
      </trkpt>
      <trkpt lat="46.12854" lon="6.71362">
        <ele>1703.2</ele>
        <time>2026-06-27T06:44:22Z</time>
      </trkpt>
      <trkpt lat="46.12853" lon="6.71362">
        <ele>1703.2</ele>
        <time>2026-06-27T06:44:23Z</time>
      </trkpt>
      <trkpt lat="46.12853" lon="6.71361">
        <ele>1703.2</ele>
        <time>2026-06-27T06:44:24Z</time>
      </trkpt>
      <trkpt lat="46.12852" lon="6.71361">
        <ele>1703.3</ele>
        <time>2026-06-27T06:44:25Z</time>
      </trkpt>
      <trkpt lat="46.12852" lon="6.7136">
        <ele>1703.3</ele>
        <time>2026-06-27T06:44:26Z</time>
      </trkpt>
      <trkpt lat="46.12851" lon="6.71359">
        <ele>1703.4</ele>
        <time>2026-06-27T06:44:27Z</time>
      </trkpt>
      <trkpt lat="46.12851" lon="6.71359">
        <ele>1703.5</ele>
        <time>2026-06-27T06:44:28Z</time>
      </trkpt>
      <trkpt lat="46.12851" lon="6.71358">
        <ele>1703.6</ele>
        <time>2026-06-27T06:44:29Z</time>
      </trkpt>
      <trkpt lat="46.12851" lon="6.71358">
        <ele>1703.7</ele>
        <time>2026-06-27T06:44:30Z</time>
      </trkpt>
      <trkpt lat="46.1285" lon="6.71358">
        <ele>1703.8</ele>
        <time>2026-06-27T06:44:31Z</time>
      </trkpt>
      <trkpt lat="46.1285" lon="6.71357">
        <ele>1703.9</ele>
        <time>2026-06-27T06:44:32Z</time>
      </trkpt>
      <trkpt lat="46.12849" lon="6.71357">
        <ele>1704</ele>
        <time>2026-06-27T06:44:33Z</time>
      </trkpt>
      <trkpt lat="46.12849" lon="6.71356">
        <ele>1704.1</ele>
        <time>2026-06-27T06:44:34Z</time>
      </trkpt>
      <trkpt lat="46.12848" lon="6.71356">
        <ele>1704.2</ele>
        <time>2026-06-27T06:44:35Z</time>
      </trkpt>
      <trkpt lat="46.12848" lon="6.71355">
        <ele>1704.4</ele>
        <time>2026-06-27T06:44:36Z</time>
      </trkpt>
      <trkpt lat="46.12847" lon="6.71354">
        <ele>1704.5</ele>
        <time>2026-06-27T06:44:37Z</time>
      </trkpt>
      <trkpt lat="46.12847" lon="6.71354">
        <ele>1704.6</ele>
        <time>2026-06-27T06:44:38Z</time>
      </trkpt>
      <trkpt lat="46.12847" lon="6.71354">
        <ele>1704.8</ele>
        <time>2026-06-27T06:44:39Z</time>
      </trkpt>
      <trkpt lat="46.12846" lon="6.71353">
        <ele>1704.9</ele>
        <time>2026-06-27T06:44:40Z</time>
      </trkpt>
      <trkpt lat="46.12846" lon="6.71354">
        <ele>1705</ele>
        <time>2026-06-27T06:44:41Z</time>
      </trkpt>
      <trkpt lat="46.12845" lon="6.71353">
        <ele>1705</ele>
        <time>2026-06-27T06:44:42Z</time>
      </trkpt>
      <trkpt lat="46.12845" lon="6.71353">
        <ele>1705.1</ele>
        <time>2026-06-27T06:44:43Z</time>
      </trkpt>
      <trkpt lat="46.12845" lon="6.71353">
        <ele>1705.2</ele>
        <time>2026-06-27T06:44:44Z</time>
      </trkpt>
      <trkpt lat="46.12844" lon="6.71352">
        <ele>1705.2</ele>
        <time>2026-06-27T06:44:45Z</time>
      </trkpt>
      <trkpt lat="46.12844" lon="6.71351">
        <ele>1705.2</ele>
        <time>2026-06-27T06:44:46Z</time>
      </trkpt>
      <trkpt lat="46.12843" lon="6.7135">
        <ele>1705.2</ele>
        <time>2026-06-27T06:44:47Z</time>
      </trkpt>
      <trkpt lat="46.12843" lon="6.71349">
        <ele>1705.3</ele>
        <time>2026-06-27T06:44:48Z</time>
      </trkpt>
      <trkpt lat="46.12842" lon="6.71349">
        <ele>1705.3</ele>
        <time>2026-06-27T06:44:49Z</time>
      </trkpt>
      <trkpt lat="46.12842" lon="6.71348">
        <ele>1705.3</ele>
        <time>2026-06-27T06:44:50Z</time>
      </trkpt>
      <trkpt lat="46.12842" lon="6.71347">
        <ele>1705.3</ele>
        <time>2026-06-27T06:44:51Z</time>
      </trkpt>
      <trkpt lat="46.12841" lon="6.71347">
        <ele>1705.3</ele>
        <time>2026-06-27T06:44:52Z</time>
      </trkpt>
      <trkpt lat="46.12841" lon="6.71346">
        <ele>1705.3</ele>
        <time>2026-06-27T06:44:53Z</time>
      </trkpt>
      <trkpt lat="46.12841" lon="6.71345">
        <ele>1705.3</ele>
        <time>2026-06-27T06:44:54Z</time>
      </trkpt>
      <trkpt lat="46.1284" lon="6.71345">
        <ele>1705.3</ele>
        <time>2026-06-27T06:44:55Z</time>
      </trkpt>
      <trkpt lat="46.1284" lon="6.71345">
        <ele>1705.3</ele>
        <time>2026-06-27T06:44:56Z</time>
      </trkpt>
      <trkpt lat="46.1284" lon="6.71344">
        <ele>1705.3</ele>
        <time>2026-06-27T06:44:57Z</time>
      </trkpt>
      <trkpt lat="46.1284" lon="6.71344">
        <ele>1705.2</ele>
        <time>2026-06-27T06:44:58Z</time>
      </trkpt>
      <trkpt lat="46.12839" lon="6.71343">
        <ele>1705.2</ele>
        <time>2026-06-27T06:44:59Z</time>
      </trkpt>
      <trkpt lat="46.12839" lon="6.71342">
        <ele>1705.3</ele>
        <time>2026-06-27T06:45:00Z</time>
      </trkpt>
      <trkpt lat="46.12838" lon="6.71341">
        <ele>1705.3</ele>
        <time>2026-06-27T06:45:01Z</time>
      </trkpt>
      <trkpt lat="46.12838" lon="6.7134">
        <ele>1705.3</ele>
        <time>2026-06-27T06:45:02Z</time>
      </trkpt>
      <trkpt lat="46.12837" lon="6.71339">
        <ele>1705.3</ele>
        <time>2026-06-27T06:45:03Z</time>
      </trkpt>
      <trkpt lat="46.12837" lon="6.71339">
        <ele>1705.3</ele>
        <time>2026-06-27T06:45:04Z</time>
      </trkpt>
      <trkpt lat="46.12837" lon="6.71338">
        <ele>1705.3</ele>
        <time>2026-06-27T06:45:05Z</time>
      </trkpt>
      <trkpt lat="46.12836" lon="6.71337">
        <ele>1705.4</ele>
        <time>2026-06-27T06:45:06Z</time>
      </trkpt>
      <trkpt lat="46.12836" lon="6.71336">
        <ele>1705.4</ele>
        <time>2026-06-27T06:45:07Z</time>
      </trkpt>
      <trkpt lat="46.12836" lon="6.71335">
        <ele>1705.4</ele>
        <time>2026-06-27T06:45:08Z</time>
      </trkpt>
      <trkpt lat="46.12835" lon="6.71333">
        <ele>1705.4</ele>
        <time>2026-06-27T06:45:09Z</time>
      </trkpt>
      <trkpt lat="46.12835" lon="6.71333">
        <ele>1705.4</ele>
        <time>2026-06-27T06:45:10Z</time>
      </trkpt>
      <trkpt lat="46.12834" lon="6.71331">
        <ele>1705.4</ele>
        <time>2026-06-27T06:45:11Z</time>
      </trkpt>
      <trkpt lat="46.12834" lon="6.7133">
        <ele>1705.5</ele>
        <time>2026-06-27T06:45:12Z</time>
      </trkpt>
      <trkpt lat="46.12834" lon="6.71329">
        <ele>1705.5</ele>
        <time>2026-06-27T06:45:13Z</time>
      </trkpt>
      <trkpt lat="46.12833" lon="6.71328">
        <ele>1705.6</ele>
        <time>2026-06-27T06:45:14Z</time>
      </trkpt>
      <trkpt lat="46.12833" lon="6.71326">
        <ele>1705.7</ele>
        <time>2026-06-27T06:45:15Z</time>
      </trkpt>
      <trkpt lat="46.12832" lon="6.71325">
        <ele>1705.8</ele>
        <time>2026-06-27T06:45:16Z</time>
      </trkpt>
      <trkpt lat="46.12832" lon="6.71324">
        <ele>1705.8</ele>
        <time>2026-06-27T06:45:17Z</time>
      </trkpt>
      <trkpt lat="46.12832" lon="6.71323">
        <ele>1705.8</ele>
        <time>2026-06-27T06:45:18Z</time>
      </trkpt>
      <trkpt lat="46.12831" lon="6.71322">
        <ele>1705.8</ele>
        <time>2026-06-27T06:45:19Z</time>
      </trkpt>
      <trkpt lat="46.12831" lon="6.7132">
        <ele>1705.8</ele>
        <time>2026-06-27T06:45:20Z</time>
      </trkpt>
      <trkpt lat="46.1283" lon="6.71319">
        <ele>1705.8</ele>
        <time>2026-06-27T06:45:21Z</time>
      </trkpt>
      <trkpt lat="46.12829" lon="6.71318">
        <ele>1705.8</ele>
        <time>2026-06-27T06:45:22Z</time>
      </trkpt>
      <trkpt lat="46.12829" lon="6.71318">
        <ele>1706</ele>
        <time>2026-06-27T06:45:23Z</time>
      </trkpt>
      <trkpt lat="46.12828" lon="6.71316">
        <ele>1706.1</ele>
        <time>2026-06-27T06:45:24Z</time>
      </trkpt>
      <trkpt lat="46.12828" lon="6.71315">
        <ele>1706</ele>
        <time>2026-06-27T06:45:25Z</time>
      </trkpt>
      <trkpt lat="46.12828" lon="6.71314">
        <ele>1706</ele>
        <time>2026-06-27T06:45:26Z</time>
      </trkpt>
      <trkpt lat="46.12827" lon="6.71313">
        <ele>1706.2</ele>
        <time>2026-06-27T06:45:27Z</time>
      </trkpt>
      <trkpt lat="46.12827" lon="6.71312">
        <ele>1706.3</ele>
        <time>2026-06-27T06:45:28Z</time>
      </trkpt>
      <trkpt lat="46.12826" lon="6.71311">
        <ele>1706.5</ele>
        <time>2026-06-27T06:45:29Z</time>
      </trkpt>
      <trkpt lat="46.12826" lon="6.7131">
        <ele>1706.5</ele>
        <time>2026-06-27T06:45:30Z</time>
      </trkpt>
      <trkpt lat="46.12825" lon="6.7131">
        <ele>1706.6</ele>
        <time>2026-06-27T06:45:31Z</time>
      </trkpt>
      <trkpt lat="46.12825" lon="6.71309">
        <ele>1706.6</ele>
        <time>2026-06-27T06:45:32Z</time>
      </trkpt>
      <trkpt lat="46.12824" lon="6.71308">
        <ele>1706.6</ele>
        <time>2026-06-27T06:45:33Z</time>
      </trkpt>
      <trkpt lat="46.12824" lon="6.71307">
        <ele>1706.6</ele>
        <time>2026-06-27T06:45:34Z</time>
      </trkpt>
      <trkpt lat="46.12823" lon="6.71306">
        <ele>1706.6</ele>
        <time>2026-06-27T06:45:35Z</time>
      </trkpt>
      <trkpt lat="46.12823" lon="6.71306">
        <ele>1706.7</ele>
        <time>2026-06-27T06:45:36Z</time>
      </trkpt>
      <trkpt lat="46.12822" lon="6.71305">
        <ele>1706.7</ele>
        <time>2026-06-27T06:45:37Z</time>
      </trkpt>
      <trkpt lat="46.12822" lon="6.71305">
        <ele>1706.7</ele>
        <time>2026-06-27T06:45:38Z</time>
      </trkpt>
      <trkpt lat="46.12822" lon="6.71304">
        <ele>1706.7</ele>
        <time>2026-06-27T06:45:39Z</time>
      </trkpt>
      <trkpt lat="46.12821" lon="6.71304">
        <ele>1706.8</ele>
        <time>2026-06-27T06:45:40Z</time>
      </trkpt>
      <trkpt lat="46.12821" lon="6.71304">
        <ele>1706.8</ele>
        <time>2026-06-27T06:45:41Z</time>
      </trkpt>
      <trkpt lat="46.12821" lon="6.71304">
        <ele>1706.8</ele>
        <time>2026-06-27T06:45:42Z</time>
      </trkpt>
      <trkpt lat="46.12821" lon="6.71304">
        <ele>1706.8</ele>
        <time>2026-06-27T06:45:43Z</time>
      </trkpt>
      <trkpt lat="46.12821" lon="6.71304">
        <ele>1706.8</ele>
        <time>2026-06-27T06:45:44Z</time>
      </trkpt>
      <trkpt lat="46.1282" lon="6.71304">
        <ele>1706.9</ele>
        <time>2026-06-27T06:45:45Z</time>
      </trkpt>
      <trkpt lat="46.1282" lon="6.71303">
        <ele>1706.9</ele>
        <time>2026-06-27T06:45:46Z</time>
      </trkpt>
      <trkpt lat="46.1282" lon="6.71302">
        <ele>1706.9</ele>
        <time>2026-06-27T06:45:47Z</time>
      </trkpt>
      <trkpt lat="46.12819" lon="6.71301">
        <ele>1707</ele>
        <time>2026-06-27T06:45:48Z</time>
      </trkpt>
      <trkpt lat="46.12818" lon="6.713">
        <ele>1707</ele>
        <time>2026-06-27T06:45:49Z</time>
      </trkpt>
      <trkpt lat="46.12817" lon="6.71299">
        <ele>1707.1</ele>
        <time>2026-06-27T06:45:50Z</time>
      </trkpt>
      <trkpt lat="46.12817" lon="6.71298">
        <ele>1707.1</ele>
        <time>2026-06-27T06:45:51Z</time>
      </trkpt>
      <trkpt lat="46.12816" lon="6.71297">
        <ele>1707.2</ele>
        <time>2026-06-27T06:45:52Z</time>
      </trkpt>
      <trkpt lat="46.12816" lon="6.71296">
        <ele>1707.3</ele>
        <time>2026-06-27T06:45:53Z</time>
      </trkpt>
      <trkpt lat="46.12815" lon="6.71295">
        <ele>1707.4</ele>
        <time>2026-06-27T06:45:54Z</time>
      </trkpt>
      <trkpt lat="46.12814" lon="6.71294">
        <ele>1707.5</ele>
        <time>2026-06-27T06:45:55Z</time>
      </trkpt>
      <trkpt lat="46.12814" lon="6.71293">
        <ele>1707.7</ele>
        <time>2026-06-27T06:45:56Z</time>
      </trkpt>
      <trkpt lat="46.12813" lon="6.71292">
        <ele>1707.9</ele>
        <time>2026-06-27T06:45:57Z</time>
      </trkpt>
      <trkpt lat="46.12813" lon="6.71291">
        <ele>1708.1</ele>
        <time>2026-06-27T06:45:58Z</time>
      </trkpt>
      <trkpt lat="46.12812" lon="6.7129">
        <ele>1708.3</ele>
        <time>2026-06-27T06:45:59Z</time>
      </trkpt>
      <trkpt lat="46.12811" lon="6.71289">
        <ele>1708.5</ele>
        <time>2026-06-27T06:46:00Z</time>
      </trkpt>
      <trkpt lat="46.1281" lon="6.71288">
        <ele>1708.6</ele>
        <time>2026-06-27T06:46:01Z</time>
      </trkpt>
      <trkpt lat="46.12809" lon="6.71288">
        <ele>1708.8</ele>
        <time>2026-06-27T06:46:02Z</time>
      </trkpt>
      <trkpt lat="46.12808" lon="6.71288">
        <ele>1709</ele>
        <time>2026-06-27T06:46:03Z</time>
      </trkpt>
      <trkpt lat="46.12807" lon="6.71287">
        <ele>1709.2</ele>
        <time>2026-06-27T06:46:04Z</time>
      </trkpt>
      <trkpt lat="46.12807" lon="6.71287">
        <ele>1709.4</ele>
        <time>2026-06-27T06:46:05Z</time>
      </trkpt>
      <trkpt lat="46.12806" lon="6.71288">
        <ele>1709.5</ele>
        <time>2026-06-27T06:46:06Z</time>
      </trkpt>
      <trkpt lat="46.12805" lon="6.71288">
        <ele>1709.7</ele>
        <time>2026-06-27T06:46:07Z</time>
      </trkpt>
      <trkpt lat="46.12804" lon="6.71289">
        <ele>1709.8</ele>
        <time>2026-06-27T06:46:08Z</time>
      </trkpt>
      <trkpt lat="46.12803" lon="6.71289">
        <ele>1709.9</ele>
        <time>2026-06-27T06:46:09Z</time>
      </trkpt>
      <trkpt lat="46.12802" lon="6.71289">
        <ele>1710</ele>
        <time>2026-06-27T06:46:10Z</time>
      </trkpt>
      <trkpt lat="46.12801" lon="6.7129">
        <ele>1710</ele>
        <time>2026-06-27T06:46:11Z</time>
      </trkpt>
      <trkpt lat="46.128" lon="6.71291">
        <ele>1710.1</ele>
        <time>2026-06-27T06:46:12Z</time>
      </trkpt>
      <trkpt lat="46.12799" lon="6.71292">
        <ele>1710</ele>
        <time>2026-06-27T06:46:13Z</time>
      </trkpt>
      <trkpt lat="46.12799" lon="6.71292">
        <ele>1710</ele>
        <time>2026-06-27T06:46:14Z</time>
      </trkpt>
      <trkpt lat="46.12798" lon="6.71293">
        <ele>1710</ele>
        <time>2026-06-27T06:46:15Z</time>
      </trkpt>
      <trkpt lat="46.12797" lon="6.71294">
        <ele>1709.9</ele>
        <time>2026-06-27T06:46:16Z</time>
      </trkpt>
      <trkpt lat="46.12797" lon="6.71295">
        <ele>1709.9</ele>
        <time>2026-06-27T06:46:17Z</time>
      </trkpt>
      <trkpt lat="46.12796" lon="6.71296">
        <ele>1709.9</ele>
        <time>2026-06-27T06:46:18Z</time>
      </trkpt>
      <trkpt lat="46.12795" lon="6.71297">
        <ele>1709.9</ele>
        <time>2026-06-27T06:46:19Z</time>
      </trkpt>
      <trkpt lat="46.12794" lon="6.71298">
        <ele>1709.9</ele>
        <time>2026-06-27T06:46:20Z</time>
      </trkpt>
      <trkpt lat="46.12794" lon="6.71299">
        <ele>1709.9</ele>
        <time>2026-06-27T06:46:21Z</time>
      </trkpt>
      <trkpt lat="46.12793" lon="6.713">
        <ele>1709.9</ele>
        <time>2026-06-27T06:46:22Z</time>
      </trkpt>
      <trkpt lat="46.12793" lon="6.713">
        <ele>1709.9</ele>
        <time>2026-06-27T06:46:23Z</time>
      </trkpt>
      <trkpt lat="46.12792" lon="6.71301">
        <ele>1709.9</ele>
        <time>2026-06-27T06:46:24Z</time>
      </trkpt>
      <trkpt lat="46.12791" lon="6.71303">
        <ele>1709.9</ele>
        <time>2026-06-27T06:46:25Z</time>
      </trkpt>
      <trkpt lat="46.12791" lon="6.71304">
        <ele>1709.9</ele>
        <time>2026-06-27T06:46:26Z</time>
      </trkpt>
      <trkpt lat="46.1279" lon="6.71305">
        <ele>1709.9</ele>
        <time>2026-06-27T06:46:27Z</time>
      </trkpt>
      <trkpt lat="46.1279" lon="6.71305">
        <ele>1709.9</ele>
        <time>2026-06-27T06:46:28Z</time>
      </trkpt>
      <trkpt lat="46.12789" lon="6.71306">
        <ele>1709.9</ele>
        <time>2026-06-27T06:46:29Z</time>
      </trkpt>
      <trkpt lat="46.12788" lon="6.71306">
        <ele>1709.9</ele>
        <time>2026-06-27T06:46:30Z</time>
      </trkpt>
      <trkpt lat="46.12787" lon="6.71307">
        <ele>1709.9</ele>
        <time>2026-06-27T06:46:31Z</time>
      </trkpt>
      <trkpt lat="46.12786" lon="6.71308">
        <ele>1709.9</ele>
        <time>2026-06-27T06:46:32Z</time>
      </trkpt>
      <trkpt lat="46.12785" lon="6.71309">
        <ele>1709.8</ele>
        <time>2026-06-27T06:46:33Z</time>
      </trkpt>
      <trkpt lat="46.12784" lon="6.71309">
        <ele>1709.8</ele>
        <time>2026-06-27T06:46:34Z</time>
      </trkpt>
      <trkpt lat="46.12783" lon="6.71309">
        <ele>1709.8</ele>
        <time>2026-06-27T06:46:35Z</time>
      </trkpt>
      <trkpt lat="46.12782" lon="6.7131">
        <ele>1709.8</ele>
        <time>2026-06-27T06:46:36Z</time>
      </trkpt>
      <trkpt lat="46.12781" lon="6.7131">
        <ele>1709.9</ele>
        <time>2026-06-27T06:46:37Z</time>
      </trkpt>
      <trkpt lat="46.1278" lon="6.71311">
        <ele>1710</ele>
        <time>2026-06-27T06:46:38Z</time>
      </trkpt>
      <trkpt lat="46.12779" lon="6.71311">
        <ele>1710.1</ele>
        <time>2026-06-27T06:46:39Z</time>
      </trkpt>
      <trkpt lat="46.12778" lon="6.71312">
        <ele>1710.1</ele>
        <time>2026-06-27T06:46:40Z</time>
      </trkpt>
      <trkpt lat="46.12778" lon="6.71312">
        <ele>1710.2</ele>
        <time>2026-06-27T06:46:41Z</time>
      </trkpt>
      <trkpt lat="46.12777" lon="6.71313">
        <ele>1710.2</ele>
        <time>2026-06-27T06:46:42Z</time>
      </trkpt>
      <trkpt lat="46.12776" lon="6.71314">
        <ele>1710.2</ele>
        <time>2026-06-27T06:46:43Z</time>
      </trkpt>
      <trkpt lat="46.12775" lon="6.71314">
        <ele>1710.2</ele>
        <time>2026-06-27T06:46:44Z</time>
      </trkpt>
      <trkpt lat="46.12774" lon="6.71315">
        <ele>1710.2</ele>
        <time>2026-06-27T06:46:45Z</time>
      </trkpt>
      <trkpt lat="46.12773" lon="6.71316">
        <ele>1710.3</ele>
        <time>2026-06-27T06:46:46Z</time>
      </trkpt>
      <trkpt lat="46.12772" lon="6.71317">
        <ele>1710.4</ele>
        <time>2026-06-27T06:46:47Z</time>
      </trkpt>
      <trkpt lat="46.12771" lon="6.71318">
        <ele>1710.4</ele>
        <time>2026-06-27T06:46:48Z</time>
      </trkpt>
      <trkpt lat="46.1277" lon="6.71318">
        <ele>1710.5</ele>
        <time>2026-06-27T06:46:49Z</time>
      </trkpt>
      <trkpt lat="46.1277" lon="6.71319">
        <ele>1710.4</ele>
        <time>2026-06-27T06:46:50Z</time>
      </trkpt>
      <trkpt lat="46.12769" lon="6.7132">
        <ele>1710.3</ele>
        <time>2026-06-27T06:46:51Z</time>
      </trkpt>
      <trkpt lat="46.12768" lon="6.71321">
        <ele>1710.2</ele>
        <time>2026-06-27T06:46:52Z</time>
      </trkpt>
      <trkpt lat="46.12767" lon="6.71322">
        <ele>1710.3</ele>
        <time>2026-06-27T06:46:53Z</time>
      </trkpt>
      <trkpt lat="46.12767" lon="6.71323">
        <ele>1710.2</ele>
        <time>2026-06-27T06:46:54Z</time>
      </trkpt>
      <trkpt lat="46.12766" lon="6.71324">
        <ele>1710.2</ele>
        <time>2026-06-27T06:46:55Z</time>
      </trkpt>
      <trkpt lat="46.12765" lon="6.71326">
        <ele>1710.3</ele>
        <time>2026-06-27T06:46:56Z</time>
      </trkpt>
      <trkpt lat="46.12765" lon="6.71327">
        <ele>1710.3</ele>
        <time>2026-06-27T06:46:57Z</time>
      </trkpt>
      <trkpt lat="46.12764" lon="6.71328">
        <ele>1710.5</ele>
        <time>2026-06-27T06:46:58Z</time>
      </trkpt>
      <trkpt lat="46.12763" lon="6.71329">
        <ele>1710.5</ele>
        <time>2026-06-27T06:46:59Z</time>
      </trkpt>
      <trkpt lat="46.12762" lon="6.71329">
        <ele>1710.5</ele>
        <time>2026-06-27T06:47:00Z</time>
      </trkpt>
      <trkpt lat="46.12761" lon="6.7133">
        <ele>1710.5</ele>
        <time>2026-06-27T06:47:01Z</time>
      </trkpt>
      <trkpt lat="46.12761" lon="6.71331">
        <ele>1710.5</ele>
        <time>2026-06-27T06:47:02Z</time>
      </trkpt>
      <trkpt lat="46.1276" lon="6.71332">
        <ele>1710.5</ele>
        <time>2026-06-27T06:47:03Z</time>
      </trkpt>
      <trkpt lat="46.12759" lon="6.71333">
        <ele>1710.5</ele>
        <time>2026-06-27T06:47:04Z</time>
      </trkpt>
      <trkpt lat="46.12759" lon="6.71334">
        <ele>1710.6</ele>
        <time>2026-06-27T06:47:05Z</time>
      </trkpt>
      <trkpt lat="46.12758" lon="6.71335">
        <ele>1710.6</ele>
        <time>2026-06-27T06:47:06Z</time>
      </trkpt>
      <trkpt lat="46.12758" lon="6.71336">
        <ele>1710.7</ele>
        <time>2026-06-27T06:47:07Z</time>
      </trkpt>
      <trkpt lat="46.12757" lon="6.71337">
        <ele>1710.7</ele>
        <time>2026-06-27T06:47:08Z</time>
      </trkpt>
      <trkpt lat="46.12756" lon="6.71338">
        <ele>1710.8</ele>
        <time>2026-06-27T06:47:09Z</time>
      </trkpt>
      <trkpt lat="46.12755" lon="6.71339">
        <ele>1710.8</ele>
        <time>2026-06-27T06:47:10Z</time>
      </trkpt>
      <trkpt lat="46.12755" lon="6.71341">
        <ele>1710.9</ele>
        <time>2026-06-27T06:47:11Z</time>
      </trkpt>
      <trkpt lat="46.12754" lon="6.71342">
        <ele>1711</ele>
        <time>2026-06-27T06:47:12Z</time>
      </trkpt>
      <trkpt lat="46.12753" lon="6.71343">
        <ele>1711</ele>
        <time>2026-06-27T06:47:13Z</time>
      </trkpt>
      <trkpt lat="46.12753" lon="6.71344">
        <ele>1711.1</ele>
        <time>2026-06-27T06:47:14Z</time>
      </trkpt>
      <trkpt lat="46.12752" lon="6.71345">
        <ele>1711.1</ele>
        <time>2026-06-27T06:47:15Z</time>
      </trkpt>
      <trkpt lat="46.12751" lon="6.71346">
        <ele>1711.1</ele>
        <time>2026-06-27T06:47:16Z</time>
      </trkpt>
      <trkpt lat="46.1275" lon="6.71347">
        <ele>1711.1</ele>
        <time>2026-06-27T06:47:17Z</time>
      </trkpt>
      <trkpt lat="46.12749" lon="6.71348">
        <ele>1711.1</ele>
        <time>2026-06-27T06:47:18Z</time>
      </trkpt>
      <trkpt lat="46.12749" lon="6.71349">
        <ele>1711</ele>
        <time>2026-06-27T06:47:19Z</time>
      </trkpt>
      <trkpt lat="46.12748" lon="6.7135">
        <ele>1711</ele>
        <time>2026-06-27T06:47:20Z</time>
      </trkpt>
      <trkpt lat="46.12747" lon="6.71351">
        <ele>1710.9</ele>
        <time>2026-06-27T06:47:21Z</time>
      </trkpt>
      <trkpt lat="46.12746" lon="6.71352">
        <ele>1710.8</ele>
        <time>2026-06-27T06:47:22Z</time>
      </trkpt>
      <trkpt lat="46.12746" lon="6.71353">
        <ele>1710.8</ele>
        <time>2026-06-27T06:47:23Z</time>
      </trkpt>
      <trkpt lat="46.12745" lon="6.71355">
        <ele>1710.8</ele>
        <time>2026-06-27T06:47:24Z</time>
      </trkpt>
      <trkpt lat="46.12744" lon="6.71356">
        <ele>1710.8</ele>
        <time>2026-06-27T06:47:25Z</time>
      </trkpt>
      <trkpt lat="46.12744" lon="6.71357">
        <ele>1710.9</ele>
        <time>2026-06-27T06:47:26Z</time>
      </trkpt>
      <trkpt lat="46.12743" lon="6.71358">
        <ele>1710.9</ele>
        <time>2026-06-27T06:47:27Z</time>
      </trkpt>
      <trkpt lat="46.12742" lon="6.71359">
        <ele>1710.9</ele>
        <time>2026-06-27T06:47:28Z</time>
      </trkpt>
      <trkpt lat="46.12742" lon="6.7136">
        <ele>1710.9</ele>
        <time>2026-06-27T06:47:29Z</time>
      </trkpt>
      <trkpt lat="46.12741" lon="6.71361">
        <ele>1710.9</ele>
        <time>2026-06-27T06:47:30Z</time>
      </trkpt>
      <trkpt lat="46.1274" lon="6.71362">
        <ele>1711.1</ele>
        <time>2026-06-27T06:47:31Z</time>
      </trkpt>
      <trkpt lat="46.12739" lon="6.71363">
        <ele>1711.2</ele>
        <time>2026-06-27T06:47:32Z</time>
      </trkpt>
      <trkpt lat="46.12738" lon="6.71363">
        <ele>1711.3</ele>
        <time>2026-06-27T06:47:33Z</time>
      </trkpt>
      <trkpt lat="46.12737" lon="6.71364">
        <ele>1711.4</ele>
        <time>2026-06-27T06:47:34Z</time>
      </trkpt>
      <trkpt lat="46.12736" lon="6.71365">
        <ele>1711.5</ele>
        <time>2026-06-27T06:47:35Z</time>
      </trkpt>
      <trkpt lat="46.12735" lon="6.71366">
        <ele>1711.6</ele>
        <time>2026-06-27T06:47:36Z</time>
      </trkpt>
      <trkpt lat="46.12734" lon="6.71367">
        <ele>1711.7</ele>
        <time>2026-06-27T06:47:37Z</time>
      </trkpt>
      <trkpt lat="46.12733" lon="6.71368">
        <ele>1711.7</ele>
        <time>2026-06-27T06:47:38Z</time>
      </trkpt>
      <trkpt lat="46.12732" lon="6.71368">
        <ele>1711.7</ele>
        <time>2026-06-27T06:47:39Z</time>
      </trkpt>
      <trkpt lat="46.12731" lon="6.71369">
        <ele>1711.8</ele>
        <time>2026-06-27T06:47:40Z</time>
      </trkpt>
      <trkpt lat="46.12731" lon="6.7137">
        <ele>1711.9</ele>
        <time>2026-06-27T06:47:41Z</time>
      </trkpt>
      <trkpt lat="46.12729" lon="6.71371">
        <ele>1712</ele>
        <time>2026-06-27T06:47:42Z</time>
      </trkpt>
      <trkpt lat="46.12729" lon="6.71371">
        <ele>1712.1</ele>
        <time>2026-06-27T06:47:43Z</time>
      </trkpt>
      <trkpt lat="46.12728" lon="6.71371">
        <ele>1712.1</ele>
        <time>2026-06-27T06:47:44Z</time>
      </trkpt>
      <trkpt lat="46.12727" lon="6.71371">
        <ele>1712.2</ele>
        <time>2026-06-27T06:47:45Z</time>
      </trkpt>
      <trkpt lat="46.12726" lon="6.71372">
        <ele>1712.2</ele>
        <time>2026-06-27T06:47:46Z</time>
      </trkpt>
      <trkpt lat="46.12726" lon="6.71373">
        <ele>1712.2</ele>
        <time>2026-06-27T06:47:47Z</time>
      </trkpt>
      <trkpt lat="46.12726" lon="6.71373">
        <ele>1712.1</ele>
        <time>2026-06-27T06:47:48Z</time>
      </trkpt>
      <trkpt lat="46.12725" lon="6.71374">
        <ele>1712.1</ele>
        <time>2026-06-27T06:47:49Z</time>
      </trkpt>
      <trkpt lat="46.12724" lon="6.71374">
        <ele>1712.1</ele>
        <time>2026-06-27T06:47:50Z</time>
      </trkpt>
      <trkpt lat="46.12724" lon="6.71375">
        <ele>1712.2</ele>
        <time>2026-06-27T06:47:51Z</time>
      </trkpt>
      <trkpt lat="46.12723" lon="6.71376">
        <ele>1712.3</ele>
        <time>2026-06-27T06:47:52Z</time>
      </trkpt>
      <trkpt lat="46.12723" lon="6.71376">
        <ele>1712.4</ele>
        <time>2026-06-27T06:47:53Z</time>
      </trkpt>
      <trkpt lat="46.12722" lon="6.71377">
        <ele>1712.3</ele>
        <time>2026-06-27T06:47:54Z</time>
      </trkpt>
      <trkpt lat="46.12722" lon="6.71377">
        <ele>1712.3</ele>
        <time>2026-06-27T06:47:55Z</time>
      </trkpt>
      <trkpt lat="46.12722" lon="6.71377">
        <ele>1712.2</ele>
        <time>2026-06-27T06:47:56Z</time>
      </trkpt>
      <trkpt lat="46.12722" lon="6.71376">
        <ele>1712.2</ele>
        <time>2026-06-27T06:47:57Z</time>
      </trkpt>
      <trkpt lat="46.12722" lon="6.71376">
        <ele>1712.3</ele>
        <time>2026-06-27T06:47:58Z</time>
      </trkpt>
      <trkpt lat="46.12722" lon="6.71376">
        <ele>1712.3</ele>
        <time>2026-06-27T06:47:59Z</time>
      </trkpt>
      <trkpt lat="46.12722" lon="6.71375">
        <ele>1712.3</ele>
        <time>2026-06-27T06:48:00Z</time>
      </trkpt>
      <trkpt lat="46.12723" lon="6.71375">
        <ele>1712.4</ele>
        <time>2026-06-27T06:48:01Z</time>
      </trkpt>
      <trkpt lat="46.12723" lon="6.71376">
        <ele>1712.3</ele>
        <time>2026-06-27T06:48:02Z</time>
      </trkpt>
      <trkpt lat="46.12723" lon="6.71376">
        <ele>1712.3</ele>
        <time>2026-06-27T06:48:03Z</time>
      </trkpt>
      <trkpt lat="46.12722" lon="6.71376">
        <ele>1712.4</ele>
        <time>2026-06-27T06:48:04Z</time>
      </trkpt>
      <trkpt lat="46.12722" lon="6.71376">
        <ele>1712.4</ele>
        <time>2026-06-27T06:48:05Z</time>
      </trkpt>
      <trkpt lat="46.12722" lon="6.71375">
        <ele>1712.4</ele>
        <time>2026-06-27T06:48:06Z</time>
      </trkpt>
      <trkpt lat="46.12722" lon="6.71375">
        <ele>1712.4</ele>
        <time>2026-06-27T06:48:07Z</time>
      </trkpt>
      <trkpt lat="46.12722" lon="6.71375">
        <ele>1712.4</ele>
        <time>2026-06-27T06:48:08Z</time>
      </trkpt>
      <trkpt lat="46.12722" lon="6.71375">
        <ele>1712.4</ele>
        <time>2026-06-27T06:48:09Z</time>
      </trkpt>
      <trkpt lat="46.12721" lon="6.71375">
        <ele>1712.4</ele>
        <time>2026-06-27T06:48:10Z</time>
      </trkpt>
      <trkpt lat="46.12721" lon="6.71375">
        <ele>1712.4</ele>
        <time>2026-06-27T06:48:11Z</time>
      </trkpt>
      <trkpt lat="46.12721" lon="6.71375">
        <ele>1712.4</ele>
        <time>2026-06-27T06:48:12Z</time>
      </trkpt>
      <trkpt lat="46.12721" lon="6.71375">
        <ele>1712.3</ele>
        <time>2026-06-27T06:48:13Z</time>
      </trkpt>
      <trkpt lat="46.12721" lon="6.71375">
        <ele>1712.4</ele>
        <time>2026-06-27T06:48:14Z</time>
      </trkpt>
      <trkpt lat="46.12721" lon="6.71375">
        <ele>1712.5</ele>
        <time>2026-06-27T06:48:15Z</time>
      </trkpt>
      <trkpt lat="46.12721" lon="6.71375">
        <ele>1712.5</ele>
        <time>2026-06-27T06:48:16Z</time>
      </trkpt>
      <trkpt lat="46.12721" lon="6.71375">
        <ele>1712.5</ele>
        <time>2026-06-27T06:48:17Z</time>
      </trkpt>
      <trkpt lat="46.12721" lon="6.71376">
        <ele>1712.6</ele>
        <time>2026-06-27T06:48:18Z</time>
      </trkpt>
      <trkpt lat="46.12721" lon="6.71376">
        <ele>1712.6</ele>
        <time>2026-06-27T06:48:19Z</time>
      </trkpt>
      <trkpt lat="46.12721" lon="6.71376">
        <ele>1712.6</ele>
        <time>2026-06-27T06:48:20Z</time>
      </trkpt>
      <trkpt lat="46.12721" lon="6.71376">
        <ele>1712.6</ele>
        <time>2026-06-27T06:48:21Z</time>
      </trkpt>
      <trkpt lat="46.12721" lon="6.71376">
        <ele>1712.6</ele>
        <time>2026-06-27T06:48:22Z</time>
      </trkpt>
      <trkpt lat="46.12721" lon="6.71376">
        <ele>1712.6</ele>
        <time>2026-06-27T06:48:23Z</time>
      </trkpt>
      <trkpt lat="46.1272" lon="6.71376">
        <ele>1712.6</ele>
        <time>2026-06-27T06:48:24Z</time>
      </trkpt>
      <trkpt lat="46.1272" lon="6.71376">
        <ele>1712.6</ele>
        <time>2026-06-27T06:48:25Z</time>
      </trkpt>
      <trkpt lat="46.1272" lon="6.71376">
        <ele>1712.5</ele>
        <time>2026-06-27T06:48:26Z</time>
      </trkpt>
      <trkpt lat="46.1272" lon="6.71376">
        <ele>1712.4</ele>
        <time>2026-06-27T06:48:27Z</time>
      </trkpt>
      <trkpt lat="46.1272" lon="6.71376">
        <ele>1712.4</ele>
        <time>2026-06-27T06:48:28Z</time>
      </trkpt>
      <trkpt lat="46.1272" lon="6.71376">
        <ele>1712.5</ele>
        <time>2026-06-27T06:48:29Z</time>
      </trkpt>
      <trkpt lat="46.1272" lon="6.71375">
        <ele>1712.4</ele>
        <time>2026-06-27T06:48:30Z</time>
      </trkpt>
      <trkpt lat="46.12719" lon="6.71374">
        <ele>1712.4</ele>
        <time>2026-06-27T06:48:31Z</time>
      </trkpt>
      <trkpt lat="46.12719" lon="6.71373">
        <ele>1712.4</ele>
        <time>2026-06-27T06:48:32Z</time>
      </trkpt>
      <trkpt lat="46.12719" lon="6.71372">
        <ele>1712.4</ele>
        <time>2026-06-27T06:48:33Z</time>
      </trkpt>
      <trkpt lat="46.12718" lon="6.71371">
        <ele>1712.4</ele>
        <time>2026-06-27T06:48:34Z</time>
      </trkpt>
      <trkpt lat="46.12718" lon="6.7137">
        <ele>1712.4</ele>
        <time>2026-06-27T06:48:35Z</time>
      </trkpt>
      <trkpt lat="46.12717" lon="6.71369">
        <ele>1712.4</ele>
        <time>2026-06-27T06:48:36Z</time>
      </trkpt>
      <trkpt lat="46.12717" lon="6.71369">
        <ele>1712.5</ele>
        <time>2026-06-27T06:48:37Z</time>
      </trkpt>
      <trkpt lat="46.12717" lon="6.71367">
        <ele>1712.5</ele>
        <time>2026-06-27T06:48:38Z</time>
      </trkpt>
      <trkpt lat="46.12717" lon="6.71366">
        <ele>1712.6</ele>
        <time>2026-06-27T06:48:39Z</time>
      </trkpt>
      <trkpt lat="46.12717" lon="6.71366">
        <ele>1712.7</ele>
        <time>2026-06-27T06:48:40Z</time>
      </trkpt>
      <trkpt lat="46.12717" lon="6.71364">
        <ele>1712.8</ele>
        <time>2026-06-27T06:48:41Z</time>
      </trkpt>
      <trkpt lat="46.12717" lon="6.71363">
        <ele>1712.8</ele>
        <time>2026-06-27T06:48:42Z</time>
      </trkpt>
      <trkpt lat="46.12716" lon="6.71362">
        <ele>1712.9</ele>
        <time>2026-06-27T06:48:43Z</time>
      </trkpt>
      <trkpt lat="46.12716" lon="6.71361">
        <ele>1713</ele>
        <time>2026-06-27T06:48:44Z</time>
      </trkpt>
      <trkpt lat="46.12715" lon="6.71361">
        <ele>1713</ele>
        <time>2026-06-27T06:48:45Z</time>
      </trkpt>
      <trkpt lat="46.12715" lon="6.7136">
        <ele>1713.3</ele>
        <time>2026-06-27T06:48:46Z</time>
      </trkpt>
      <trkpt lat="46.12714" lon="6.71359">
        <ele>1713.4</ele>
        <time>2026-06-27T06:48:47Z</time>
      </trkpt>
      <trkpt lat="46.12714" lon="6.71359">
        <ele>1713.5</ele>
        <time>2026-06-27T06:48:48Z</time>
      </trkpt>
      <trkpt lat="46.12714" lon="6.71357">
        <ele>1713.6</ele>
        <time>2026-06-27T06:48:49Z</time>
      </trkpt>
      <trkpt lat="46.12713" lon="6.71356">
        <ele>1713.7</ele>
        <time>2026-06-27T06:48:50Z</time>
      </trkpt>
      <trkpt lat="46.12712" lon="6.71355">
        <ele>1713.8</ele>
        <time>2026-06-27T06:48:51Z</time>
      </trkpt>
      <trkpt lat="46.12712" lon="6.71355">
        <ele>1713.9</ele>
        <time>2026-06-27T06:48:52Z</time>
      </trkpt>
      <trkpt lat="46.12711" lon="6.71353">
        <ele>1714.1</ele>
        <time>2026-06-27T06:48:53Z</time>
      </trkpt>
      <trkpt lat="46.12711" lon="6.71352">
        <ele>1714.2</ele>
        <time>2026-06-27T06:48:54Z</time>
      </trkpt>
      <trkpt lat="46.1271" lon="6.71351">
        <ele>1714.3</ele>
        <time>2026-06-27T06:48:55Z</time>
      </trkpt>
      <trkpt lat="46.12709" lon="6.71351">
        <ele>1714.3</ele>
        <time>2026-06-27T06:48:56Z</time>
      </trkpt>
      <trkpt lat="46.12709" lon="6.71349">
        <ele>1714.3</ele>
        <time>2026-06-27T06:48:57Z</time>
      </trkpt>
      <trkpt lat="46.12709" lon="6.71348">
        <ele>1714.4</ele>
        <time>2026-06-27T06:48:58Z</time>
      </trkpt>
      <trkpt lat="46.12708" lon="6.71347">
        <ele>1714.5</ele>
        <time>2026-06-27T06:48:59Z</time>
      </trkpt>
      <trkpt lat="46.12707" lon="6.71346">
        <ele>1714.6</ele>
        <time>2026-06-27T06:49:00Z</time>
      </trkpt>
      <trkpt lat="46.12707" lon="6.71345">
        <ele>1714.7</ele>
        <time>2026-06-27T06:49:01Z</time>
      </trkpt>
      <trkpt lat="46.12706" lon="6.71344">
        <ele>1714.7</ele>
        <time>2026-06-27T06:49:02Z</time>
      </trkpt>
      <trkpt lat="46.12706" lon="6.71342">
        <ele>1714.8</ele>
        <time>2026-06-27T06:49:03Z</time>
      </trkpt>
      <trkpt lat="46.12705" lon="6.71341">
        <ele>1714.9</ele>
        <time>2026-06-27T06:49:04Z</time>
      </trkpt>
      <trkpt lat="46.12704" lon="6.7134">
        <ele>1715</ele>
        <time>2026-06-27T06:49:05Z</time>
      </trkpt>
      <trkpt lat="46.12704" lon="6.71339">
        <ele>1715</ele>
        <time>2026-06-27T06:49:06Z</time>
      </trkpt>
      <trkpt lat="46.12703" lon="6.71339">
        <ele>1715.2</ele>
        <time>2026-06-27T06:49:07Z</time>
      </trkpt>
      <trkpt lat="46.12703" lon="6.71338">
        <ele>1715.2</ele>
        <time>2026-06-27T06:49:08Z</time>
      </trkpt>
      <trkpt lat="46.12702" lon="6.71337">
        <ele>1715.1</ele>
        <time>2026-06-27T06:49:09Z</time>
      </trkpt>
      <trkpt lat="46.12702" lon="6.71336">
        <ele>1715.1</ele>
        <time>2026-06-27T06:49:10Z</time>
      </trkpt>
      <trkpt lat="46.12701" lon="6.71335">
        <ele>1715.2</ele>
        <time>2026-06-27T06:49:11Z</time>
      </trkpt>
      <trkpt lat="46.12701" lon="6.71334">
        <ele>1715.3</ele>
        <time>2026-06-27T06:49:12Z</time>
      </trkpt>
      <trkpt lat="46.127" lon="6.71333">
        <ele>1715.3</ele>
        <time>2026-06-27T06:49:13Z</time>
      </trkpt>
      <trkpt lat="46.127" lon="6.71333">
        <ele>1715.4</ele>
        <time>2026-06-27T06:49:14Z</time>
      </trkpt>
      <trkpt lat="46.12699" lon="6.71332">
        <ele>1715.5</ele>
        <time>2026-06-27T06:49:15Z</time>
      </trkpt>
      <trkpt lat="46.12698" lon="6.71331">
        <ele>1715.6</ele>
        <time>2026-06-27T06:49:16Z</time>
      </trkpt>
      <trkpt lat="46.12698" lon="6.7133">
        <ele>1715.7</ele>
        <time>2026-06-27T06:49:17Z</time>
      </trkpt>
      <trkpt lat="46.12697" lon="6.71329">
        <ele>1715.7</ele>
        <time>2026-06-27T06:49:18Z</time>
      </trkpt>
      <trkpt lat="46.12697" lon="6.71327">
        <ele>1715.7</ele>
        <time>2026-06-27T06:49:19Z</time>
      </trkpt>
      <trkpt lat="46.12696" lon="6.71326">
        <ele>1715.7</ele>
        <time>2026-06-27T06:49:20Z</time>
      </trkpt>
      <trkpt lat="46.12695" lon="6.71326">
        <ele>1715.7</ele>
        <time>2026-06-27T06:49:21Z</time>
      </trkpt>
      <trkpt lat="46.12694" lon="6.71325">
        <ele>1715.8</ele>
        <time>2026-06-27T06:49:22Z</time>
      </trkpt>
      <trkpt lat="46.12694" lon="6.71324">
        <ele>1715.8</ele>
        <time>2026-06-27T06:49:23Z</time>
      </trkpt>
      <trkpt lat="46.12694" lon="6.71323">
        <ele>1715.8</ele>
        <time>2026-06-27T06:49:24Z</time>
      </trkpt>
      <trkpt lat="46.12693" lon="6.71321">
        <ele>1715.9</ele>
        <time>2026-06-27T06:49:25Z</time>
      </trkpt>
      <trkpt lat="46.12693" lon="6.7132">
        <ele>1715.9</ele>
        <time>2026-06-27T06:49:26Z</time>
      </trkpt>
      <trkpt lat="46.12692" lon="6.71319">
        <ele>1716</ele>
        <time>2026-06-27T06:49:27Z</time>
      </trkpt>
      <trkpt lat="46.12692" lon="6.71317">
        <ele>1716</ele>
        <time>2026-06-27T06:49:28Z</time>
      </trkpt>
      <trkpt lat="46.12692" lon="6.71316">
        <ele>1716.1</ele>
        <time>2026-06-27T06:49:29Z</time>
      </trkpt>
      <trkpt lat="46.12691" lon="6.71315">
        <ele>1716.1</ele>
        <time>2026-06-27T06:49:30Z</time>
      </trkpt>
      <trkpt lat="46.1269" lon="6.71314">
        <ele>1716.1</ele>
        <time>2026-06-27T06:49:31Z</time>
      </trkpt>
      <trkpt lat="46.1269" lon="6.71313">
        <ele>1716.1</ele>
        <time>2026-06-27T06:49:32Z</time>
      </trkpt>
      <trkpt lat="46.1269" lon="6.71312">
        <ele>1716.1</ele>
        <time>2026-06-27T06:49:33Z</time>
      </trkpt>
      <trkpt lat="46.12689" lon="6.71311">
        <ele>1716.1</ele>
        <time>2026-06-27T06:49:34Z</time>
      </trkpt>
      <trkpt lat="46.12689" lon="6.71309">
        <ele>1716.1</ele>
        <time>2026-06-27T06:49:35Z</time>
      </trkpt>
      <trkpt lat="46.12688" lon="6.71308">
        <ele>1716.1</ele>
        <time>2026-06-27T06:49:36Z</time>
      </trkpt>
      <trkpt lat="46.12687" lon="6.71307">
        <ele>1716.1</ele>
        <time>2026-06-27T06:49:37Z</time>
      </trkpt>
      <trkpt lat="46.12687" lon="6.71306">
        <ele>1716</ele>
        <time>2026-06-27T06:49:38Z</time>
      </trkpt>
      <trkpt lat="46.12686" lon="6.71305">
        <ele>1716.1</ele>
        <time>2026-06-27T06:49:39Z</time>
      </trkpt>
      <trkpt lat="46.12686" lon="6.71304">
        <ele>1716.2</ele>
        <time>2026-06-27T06:49:40Z</time>
      </trkpt>
      <trkpt lat="46.12685" lon="6.71303">
        <ele>1716.2</ele>
        <time>2026-06-27T06:49:41Z</time>
      </trkpt>
      <trkpt lat="46.12684" lon="6.71301">
        <ele>1716.3</ele>
        <time>2026-06-27T06:49:42Z</time>
      </trkpt>
      <trkpt lat="46.12684" lon="6.713">
        <ele>1716.3</ele>
        <time>2026-06-27T06:49:43Z</time>
      </trkpt>
      <trkpt lat="46.12683" lon="6.71299">
        <ele>1716.3</ele>
        <time>2026-06-27T06:49:44Z</time>
      </trkpt>
      <trkpt lat="46.12683" lon="6.71297">
        <ele>1716.3</ele>
        <time>2026-06-27T06:49:45Z</time>
      </trkpt>
      <trkpt lat="46.12682" lon="6.71297">
        <ele>1716.4</ele>
        <time>2026-06-27T06:49:46Z</time>
      </trkpt>
      <trkpt lat="46.12681" lon="6.71296">
        <ele>1716.5</ele>
        <time>2026-06-27T06:49:47Z</time>
      </trkpt>
      <trkpt lat="46.12681" lon="6.71294">
        <ele>1716.6</ele>
        <time>2026-06-27T06:49:48Z</time>
      </trkpt>
      <trkpt lat="46.12679" lon="6.71294">
        <ele>1716.7</ele>
        <time>2026-06-27T06:49:49Z</time>
      </trkpt>
      <trkpt lat="46.12679" lon="6.71293">
        <ele>1716.7</ele>
        <time>2026-06-27T06:49:50Z</time>
      </trkpt>
      <trkpt lat="46.12678" lon="6.71292">
        <ele>1716.8</ele>
        <time>2026-06-27T06:49:51Z</time>
      </trkpt>
      <trkpt lat="46.12677" lon="6.71291">
        <ele>1716.8</ele>
        <time>2026-06-27T06:49:52Z</time>
      </trkpt>
      <trkpt lat="46.12677" lon="6.7129">
        <ele>1716.9</ele>
        <time>2026-06-27T06:49:53Z</time>
      </trkpt>
      <trkpt lat="46.12676" lon="6.71289">
        <ele>1716.9</ele>
        <time>2026-06-27T06:49:54Z</time>
      </trkpt>
      <trkpt lat="46.12675" lon="6.71288">
        <ele>1717.1</ele>
        <time>2026-06-27T06:49:55Z</time>
      </trkpt>
      <trkpt lat="46.12675" lon="6.71287">
        <ele>1717.3</ele>
        <time>2026-06-27T06:49:56Z</time>
      </trkpt>
      <trkpt lat="46.12674" lon="6.71287">
        <ele>1717.4</ele>
        <time>2026-06-27T06:49:57Z</time>
      </trkpt>
      <trkpt lat="46.12673" lon="6.71286">
        <ele>1717.5</ele>
        <time>2026-06-27T06:49:58Z</time>
      </trkpt>
      <trkpt lat="46.12673" lon="6.71285">
        <ele>1717.6</ele>
        <time>2026-06-27T06:49:59Z</time>
      </trkpt>
      <trkpt lat="46.12672" lon="6.71284">
        <ele>1717.7</ele>
        <time>2026-06-27T06:50:00Z</time>
      </trkpt>
      <trkpt lat="46.12671" lon="6.71283">
        <ele>1717.9</ele>
        <time>2026-06-27T06:50:01Z</time>
      </trkpt>
      <trkpt lat="46.12671" lon="6.71283">
        <ele>1718</ele>
        <time>2026-06-27T06:50:02Z</time>
      </trkpt>
      <trkpt lat="46.1267" lon="6.71282">
        <ele>1718.1</ele>
        <time>2026-06-27T06:50:03Z</time>
      </trkpt>
      <trkpt lat="46.1267" lon="6.71282">
        <ele>1718.2</ele>
        <time>2026-06-27T06:50:04Z</time>
      </trkpt>
      <trkpt lat="46.12669" lon="6.71281">
        <ele>1718.4</ele>
        <time>2026-06-27T06:50:05Z</time>
      </trkpt>
      <trkpt lat="46.12669" lon="6.7128">
        <ele>1718.5</ele>
        <time>2026-06-27T06:50:06Z</time>
      </trkpt>
      <trkpt lat="46.12668" lon="6.7128">
        <ele>1718.6</ele>
        <time>2026-06-27T06:50:07Z</time>
      </trkpt>
      <trkpt lat="46.12667" lon="6.71279">
        <ele>1718.7</ele>
        <time>2026-06-27T06:50:08Z</time>
      </trkpt>
      <trkpt lat="46.12667" lon="6.71278">
        <ele>1718.8</ele>
        <time>2026-06-27T06:50:09Z</time>
      </trkpt>
      <trkpt lat="46.12666" lon="6.71277">
        <ele>1718.9</ele>
        <time>2026-06-27T06:50:10Z</time>
      </trkpt>
      <trkpt lat="46.12666" lon="6.71276">
        <ele>1719</ele>
        <time>2026-06-27T06:50:11Z</time>
      </trkpt>
      <trkpt lat="46.12666" lon="6.71275">
        <ele>1719.1</ele>
        <time>2026-06-27T06:50:12Z</time>
      </trkpt>
      <trkpt lat="46.12665" lon="6.71275">
        <ele>1719.2</ele>
        <time>2026-06-27T06:50:13Z</time>
      </trkpt>
      <trkpt lat="46.12664" lon="6.71274">
        <ele>1719.2</ele>
        <time>2026-06-27T06:50:14Z</time>
      </trkpt>
      <trkpt lat="46.12664" lon="6.71274">
        <ele>1719.2</ele>
        <time>2026-06-27T06:50:15Z</time>
      </trkpt>
      <trkpt lat="46.12663" lon="6.71273">
        <ele>1719.2</ele>
        <time>2026-06-27T06:50:16Z</time>
      </trkpt>
      <trkpt lat="46.12662" lon="6.71273">
        <ele>1719.3</ele>
        <time>2026-06-27T06:50:17Z</time>
      </trkpt>
      <trkpt lat="46.12662" lon="6.71272">
        <ele>1719.4</ele>
        <time>2026-06-27T06:50:18Z</time>
      </trkpt>
      <trkpt lat="46.12661" lon="6.71271">
        <ele>1719.5</ele>
        <time>2026-06-27T06:50:19Z</time>
      </trkpt>
      <trkpt lat="46.12661" lon="6.71271">
        <ele>1719.7</ele>
        <time>2026-06-27T06:50:20Z</time>
      </trkpt>
      <trkpt lat="46.1266" lon="6.71271">
        <ele>1719.8</ele>
        <time>2026-06-27T06:50:21Z</time>
      </trkpt>
      <trkpt lat="46.12659" lon="6.7127">
        <ele>1719.9</ele>
        <time>2026-06-27T06:50:22Z</time>
      </trkpt>
      <trkpt lat="46.12659" lon="6.7127">
        <ele>1720.1</ele>
        <time>2026-06-27T06:50:23Z</time>
      </trkpt>
      <trkpt lat="46.12659" lon="6.7127">
        <ele>1720.2</ele>
        <time>2026-06-27T06:50:24Z</time>
      </trkpt>
      <trkpt lat="46.12659" lon="6.7127">
        <ele>1720.3</ele>
        <time>2026-06-27T06:50:25Z</time>
      </trkpt>
      <trkpt lat="46.12659" lon="6.7127">
        <ele>1720.3</ele>
        <time>2026-06-27T06:50:26Z</time>
      </trkpt>
      <trkpt lat="46.12659" lon="6.7127">
        <ele>1720.3</ele>
        <time>2026-06-27T06:50:27Z</time>
      </trkpt>
      <trkpt lat="46.12659" lon="6.7127">
        <ele>1720.3</ele>
        <time>2026-06-27T06:50:28Z</time>
      </trkpt>
      <trkpt lat="46.12659" lon="6.7127">
        <ele>1720.4</ele>
        <time>2026-06-27T06:50:29Z</time>
      </trkpt>
      <trkpt lat="46.12658" lon="6.7127">
        <ele>1720.4</ele>
        <time>2026-06-27T06:50:30Z</time>
      </trkpt>
      <trkpt lat="46.12657" lon="6.71269">
        <ele>1720.5</ele>
        <time>2026-06-27T06:50:31Z</time>
      </trkpt>
      <trkpt lat="46.12657" lon="6.71269">
        <ele>1720.5</ele>
        <time>2026-06-27T06:50:32Z</time>
      </trkpt>
      <trkpt lat="46.12657" lon="6.71269">
        <ele>1720.6</ele>
        <time>2026-06-27T06:50:33Z</time>
      </trkpt>
      <trkpt lat="46.12656" lon="6.71268">
        <ele>1720.6</ele>
        <time>2026-06-27T06:50:34Z</time>
      </trkpt>
      <trkpt lat="46.12655" lon="6.71268">
        <ele>1720.7</ele>
        <time>2026-06-27T06:50:35Z</time>
      </trkpt>
      <trkpt lat="46.12654" lon="6.71267">
        <ele>1720.8</ele>
        <time>2026-06-27T06:50:36Z</time>
      </trkpt>
      <trkpt lat="46.12654" lon="6.71267">
        <ele>1720.9</ele>
        <time>2026-06-27T06:50:37Z</time>
      </trkpt>
      <trkpt lat="46.12653" lon="6.71266">
        <ele>1721</ele>
        <time>2026-06-27T06:50:38Z</time>
      </trkpt>
      <trkpt lat="46.12652" lon="6.71266">
        <ele>1721</ele>
        <time>2026-06-27T06:50:39Z</time>
      </trkpt>
      <trkpt lat="46.12651" lon="6.71265">
        <ele>1721.2</ele>
        <time>2026-06-27T06:50:40Z</time>
      </trkpt>
      <trkpt lat="46.12651" lon="6.71264">
        <ele>1721.4</ele>
        <time>2026-06-27T06:50:41Z</time>
      </trkpt>
      <trkpt lat="46.1265" lon="6.71264">
        <ele>1721.5</ele>
        <time>2026-06-27T06:50:42Z</time>
      </trkpt>
      <trkpt lat="46.12649" lon="6.71264">
        <ele>1721.6</ele>
        <time>2026-06-27T06:50:43Z</time>
      </trkpt>
      <trkpt lat="46.12648" lon="6.71263">
        <ele>1721.7</ele>
        <time>2026-06-27T06:50:44Z</time>
      </trkpt>
      <trkpt lat="46.12647" lon="6.71262">
        <ele>1721.7</ele>
        <time>2026-06-27T06:50:45Z</time>
      </trkpt>
      <trkpt lat="46.12647" lon="6.71262">
        <ele>1721.8</ele>
        <time>2026-06-27T06:50:46Z</time>
      </trkpt>
      <trkpt lat="46.12646" lon="6.71262">
        <ele>1721.9</ele>
        <time>2026-06-27T06:50:47Z</time>
      </trkpt>
      <trkpt lat="46.12645" lon="6.71261">
        <ele>1721.9</ele>
        <time>2026-06-27T06:50:48Z</time>
      </trkpt>
      <trkpt lat="46.12645" lon="6.71261">
        <ele>1722.1</ele>
        <time>2026-06-27T06:50:49Z</time>
      </trkpt>
      <trkpt lat="46.12644" lon="6.71261">
        <ele>1722.2</ele>
        <time>2026-06-27T06:50:50Z</time>
      </trkpt>
      <trkpt lat="46.12644" lon="6.7126">
        <ele>1722.3</ele>
        <time>2026-06-27T06:50:51Z</time>
      </trkpt>
      <trkpt lat="46.12643" lon="6.7126">
        <ele>1722.4</ele>
        <time>2026-06-27T06:50:52Z</time>
      </trkpt>
      <trkpt lat="46.12642" lon="6.7126">
        <ele>1722.4</ele>
        <time>2026-06-27T06:50:53Z</time>
      </trkpt>
      <trkpt lat="46.12642" lon="6.71259">
        <ele>1722.5</ele>
        <time>2026-06-27T06:50:54Z</time>
      </trkpt>
      <trkpt lat="46.12641" lon="6.71259">
        <ele>1722.7</ele>
        <time>2026-06-27T06:50:55Z</time>
      </trkpt>
      <trkpt lat="46.1264" lon="6.71258">
        <ele>1722.8</ele>
        <time>2026-06-27T06:50:56Z</time>
      </trkpt>
      <trkpt lat="46.12639" lon="6.71258">
        <ele>1723</ele>
        <time>2026-06-27T06:50:57Z</time>
      </trkpt>
      <trkpt lat="46.12639" lon="6.71258">
        <ele>1723.1</ele>
        <time>2026-06-27T06:50:58Z</time>
      </trkpt>
      <trkpt lat="46.12638" lon="6.71257">
        <ele>1723.2</ele>
        <time>2026-06-27T06:50:59Z</time>
      </trkpt>
      <trkpt lat="46.12637" lon="6.71257">
        <ele>1723.1</ele>
        <time>2026-06-27T06:51:00Z</time>
      </trkpt>
      <trkpt lat="46.12636" lon="6.71257">
        <ele>1723</ele>
        <time>2026-06-27T06:51:01Z</time>
      </trkpt>
      <trkpt lat="46.12635" lon="6.71256">
        <ele>1723.1</ele>
        <time>2026-06-27T06:51:02Z</time>
      </trkpt>
      <trkpt lat="46.12634" lon="6.71255">
        <ele>1723.1</ele>
        <time>2026-06-27T06:51:03Z</time>
      </trkpt>
      <trkpt lat="46.12633" lon="6.71254">
        <ele>1723.1</ele>
        <time>2026-06-27T06:51:04Z</time>
      </trkpt>
      <trkpt lat="46.12633" lon="6.71254">
        <ele>1723.2</ele>
        <time>2026-06-27T06:51:05Z</time>
      </trkpt>
      <trkpt lat="46.12632" lon="6.71254">
        <ele>1723.2</ele>
        <time>2026-06-27T06:51:06Z</time>
      </trkpt>
      <trkpt lat="46.12632" lon="6.71253">
        <ele>1723.3</ele>
        <time>2026-06-27T06:51:07Z</time>
      </trkpt>
      <trkpt lat="46.12631" lon="6.71253">
        <ele>1723.3</ele>
        <time>2026-06-27T06:51:08Z</time>
      </trkpt>
      <trkpt lat="46.12631" lon="6.71253">
        <ele>1723.4</ele>
        <time>2026-06-27T06:51:09Z</time>
      </trkpt>
      <trkpt lat="46.1263" lon="6.71252">
        <ele>1723.3</ele>
        <time>2026-06-27T06:51:10Z</time>
      </trkpt>
      <trkpt lat="46.12629" lon="6.71252">
        <ele>1723.3</ele>
        <time>2026-06-27T06:51:11Z</time>
      </trkpt>
      <trkpt lat="46.12628" lon="6.71251">
        <ele>1723.4</ele>
        <time>2026-06-27T06:51:12Z</time>
      </trkpt>
      <trkpt lat="46.12628" lon="6.71251">
        <ele>1723.4</ele>
        <time>2026-06-27T06:51:13Z</time>
      </trkpt>
      <trkpt lat="46.12627" lon="6.7125">
        <ele>1723.4</ele>
        <time>2026-06-27T06:51:14Z</time>
      </trkpt>
      <trkpt lat="46.12627" lon="6.71249">
        <ele>1723.5</ele>
        <time>2026-06-27T06:51:15Z</time>
      </trkpt>
      <trkpt lat="46.12626" lon="6.71249">
        <ele>1723.5</ele>
        <time>2026-06-27T06:51:16Z</time>
      </trkpt>
      <trkpt lat="46.12626" lon="6.71249">
        <ele>1723.5</ele>
        <time>2026-06-27T06:51:17Z</time>
      </trkpt>
      <trkpt lat="46.12625" lon="6.71249">
        <ele>1723.2</ele>
        <time>2026-06-27T06:51:18Z</time>
      </trkpt>
      <trkpt lat="46.12624" lon="6.71249">
        <ele>1723.2</ele>
        <time>2026-06-27T06:51:19Z</time>
      </trkpt>
      <trkpt lat="46.12622" lon="6.71249">
        <ele>1723.3</ele>
        <time>2026-06-27T06:51:20Z</time>
      </trkpt>
      <trkpt lat="46.12621" lon="6.71249">
        <ele>1723.3</ele>
        <time>2026-06-27T06:51:21Z</time>
      </trkpt>
      <trkpt lat="46.1262" lon="6.71249">
        <ele>1723.3</ele>
        <time>2026-06-27T06:51:22Z</time>
      </trkpt>
      <trkpt lat="46.12619" lon="6.71249">
        <ele>1723.4</ele>
        <time>2026-06-27T06:51:23Z</time>
      </trkpt>
      <trkpt lat="46.12619" lon="6.7125">
        <ele>1723.4</ele>
        <time>2026-06-27T06:51:24Z</time>
      </trkpt>
      <trkpt lat="46.12618" lon="6.7125">
        <ele>1723.4</ele>
        <time>2026-06-27T06:51:25Z</time>
      </trkpt>
      <trkpt lat="46.12617" lon="6.71251">
        <ele>1723.5</ele>
        <time>2026-06-27T06:51:26Z</time>
      </trkpt>
      <trkpt lat="46.12616" lon="6.71251">
        <ele>1723.6</ele>
        <time>2026-06-27T06:51:27Z</time>
      </trkpt>
      <trkpt lat="46.12615" lon="6.71252">
        <ele>1723.7</ele>
        <time>2026-06-27T06:51:28Z</time>
      </trkpt>
      <trkpt lat="46.12614" lon="6.71252">
        <ele>1723.8</ele>
        <time>2026-06-27T06:51:29Z</time>
      </trkpt>
      <trkpt lat="46.12614" lon="6.71253">
        <ele>1723.9</ele>
        <time>2026-06-27T06:51:30Z</time>
      </trkpt>
      <trkpt lat="46.12613" lon="6.71253">
        <ele>1723.9</ele>
        <time>2026-06-27T06:51:31Z</time>
      </trkpt>
      <trkpt lat="46.12612" lon="6.71253">
        <ele>1723.9</ele>
        <time>2026-06-27T06:51:32Z</time>
      </trkpt>
      <trkpt lat="46.12611" lon="6.71253">
        <ele>1724</ele>
        <time>2026-06-27T06:51:33Z</time>
      </trkpt>
      <trkpt lat="46.1261" lon="6.71254">
        <ele>1724.1</ele>
        <time>2026-06-27T06:51:34Z</time>
      </trkpt>
      <trkpt lat="46.12609" lon="6.71254">
        <ele>1724.1</ele>
        <time>2026-06-27T06:51:35Z</time>
      </trkpt>
      <trkpt lat="46.12608" lon="6.71254">
        <ele>1724.1</ele>
        <time>2026-06-27T06:51:36Z</time>
      </trkpt>
      <trkpt lat="46.12608" lon="6.71255">
        <ele>1724.1</ele>
        <time>2026-06-27T06:51:37Z</time>
      </trkpt>
      <trkpt lat="46.12607" lon="6.71255">
        <ele>1724.2</ele>
        <time>2026-06-27T06:51:38Z</time>
      </trkpt>
      <trkpt lat="46.12606" lon="6.71256">
        <ele>1724.3</ele>
        <time>2026-06-27T06:51:39Z</time>
      </trkpt>
      <trkpt lat="46.12605" lon="6.71256">
        <ele>1724.4</ele>
        <time>2026-06-27T06:51:40Z</time>
      </trkpt>
      <trkpt lat="46.12604" lon="6.71257">
        <ele>1724.4</ele>
        <time>2026-06-27T06:51:41Z</time>
      </trkpt>
      <trkpt lat="46.12604" lon="6.71256">
        <ele>1724.4</ele>
        <time>2026-06-27T06:51:42Z</time>
      </trkpt>
      <trkpt lat="46.12603" lon="6.71257">
        <ele>1724.5</ele>
        <time>2026-06-27T06:51:43Z</time>
      </trkpt>
      <trkpt lat="46.12602" lon="6.71258">
        <ele>1724.7</ele>
        <time>2026-06-27T06:51:44Z</time>
      </trkpt>
      <trkpt lat="46.12602" lon="6.71258">
        <ele>1724.7</ele>
        <time>2026-06-27T06:51:45Z</time>
      </trkpt>
      <trkpt lat="46.12601" lon="6.71259">
        <ele>1724.8</ele>
        <time>2026-06-27T06:51:46Z</time>
      </trkpt>
      <trkpt lat="46.126" lon="6.71259">
        <ele>1724.9</ele>
        <time>2026-06-27T06:51:47Z</time>
      </trkpt>
      <trkpt lat="46.12599" lon="6.7126">
        <ele>1725</ele>
        <time>2026-06-27T06:51:48Z</time>
      </trkpt>
      <trkpt lat="46.12598" lon="6.7126">
        <ele>1725.1</ele>
        <time>2026-06-27T06:51:49Z</time>
      </trkpt>
      <trkpt lat="46.12598" lon="6.71261">
        <ele>1725.2</ele>
        <time>2026-06-27T06:51:50Z</time>
      </trkpt>
      <trkpt lat="46.12598" lon="6.71261">
        <ele>1725.4</ele>
        <time>2026-06-27T06:51:51Z</time>
      </trkpt>
      <trkpt lat="46.12597" lon="6.71262">
        <ele>1725.6</ele>
        <time>2026-06-27T06:51:52Z</time>
      </trkpt>
      <trkpt lat="46.12596" lon="6.71263">
        <ele>1725.7</ele>
        <time>2026-06-27T06:51:53Z</time>
      </trkpt>
      <trkpt lat="46.12596" lon="6.71264">
        <ele>1725.8</ele>
        <time>2026-06-27T06:51:54Z</time>
      </trkpt>
      <trkpt lat="46.12595" lon="6.71265">
        <ele>1725.9</ele>
        <time>2026-06-27T06:51:55Z</time>
      </trkpt>
      <trkpt lat="46.12595" lon="6.71266">
        <ele>1726</ele>
        <time>2026-06-27T06:51:56Z</time>
      </trkpt>
      <trkpt lat="46.12594" lon="6.71266">
        <ele>1726</ele>
        <time>2026-06-27T06:51:57Z</time>
      </trkpt>
      <trkpt lat="46.12594" lon="6.71266">
        <ele>1726.1</ele>
        <time>2026-06-27T06:51:58Z</time>
      </trkpt>
      <trkpt lat="46.12593" lon="6.71267">
        <ele>1726.1</ele>
        <time>2026-06-27T06:51:59Z</time>
      </trkpt>
      <trkpt lat="46.12592" lon="6.71268">
        <ele>1726.2</ele>
        <time>2026-06-27T06:52:00Z</time>
      </trkpt>
      <trkpt lat="46.12591" lon="6.71268">
        <ele>1726.3</ele>
        <time>2026-06-27T06:52:01Z</time>
      </trkpt>
      <trkpt lat="46.1259" lon="6.71269">
        <ele>1726.3</ele>
        <time>2026-06-27T06:52:02Z</time>
      </trkpt>
      <trkpt lat="46.12589" lon="6.71269">
        <ele>1726.4</ele>
        <time>2026-06-27T06:52:03Z</time>
      </trkpt>
      <trkpt lat="46.12588" lon="6.71271">
        <ele>1726.5</ele>
        <time>2026-06-27T06:52:04Z</time>
      </trkpt>
      <trkpt lat="46.12588" lon="6.71271">
        <ele>1726.5</ele>
        <time>2026-06-27T06:52:05Z</time>
      </trkpt>
      <trkpt lat="46.12587" lon="6.71272">
        <ele>1726.5</ele>
        <time>2026-06-27T06:52:06Z</time>
      </trkpt>
      <trkpt lat="46.12586" lon="6.71273">
        <ele>1726.7</ele>
        <time>2026-06-27T06:52:07Z</time>
      </trkpt>
      <trkpt lat="46.12585" lon="6.71274">
        <ele>1726.8</ele>
        <time>2026-06-27T06:52:08Z</time>
      </trkpt>
      <trkpt lat="46.12585" lon="6.71274">
        <ele>1726.9</ele>
        <time>2026-06-27T06:52:09Z</time>
      </trkpt>
      <trkpt lat="46.12584" lon="6.71275">
        <ele>1727.1</ele>
        <time>2026-06-27T06:52:10Z</time>
      </trkpt>
      <trkpt lat="46.12584" lon="6.71275">
        <ele>1727.1</ele>
        <time>2026-06-27T06:52:11Z</time>
      </trkpt>
      <trkpt lat="46.12584" lon="6.71277">
        <ele>1727.2</ele>
        <time>2026-06-27T06:52:12Z</time>
      </trkpt>
      <trkpt lat="46.12583" lon="6.71278">
        <ele>1727.4</ele>
        <time>2026-06-27T06:52:13Z</time>
      </trkpt>
      <trkpt lat="46.12582" lon="6.71278">
        <ele>1727.6</ele>
        <time>2026-06-27T06:52:14Z</time>
      </trkpt>
      <trkpt lat="46.12582" lon="6.71279">
        <ele>1727.7</ele>
        <time>2026-06-27T06:52:15Z</time>
      </trkpt>
      <trkpt lat="46.12582" lon="6.7128">
        <ele>1728</ele>
        <time>2026-06-27T06:52:16Z</time>
      </trkpt>
      <trkpt lat="46.12581" lon="6.7128">
        <ele>1728.2</ele>
        <time>2026-06-27T06:52:17Z</time>
      </trkpt>
      <trkpt lat="46.12581" lon="6.71281">
        <ele>1728.4</ele>
        <time>2026-06-27T06:52:18Z</time>
      </trkpt>
      <trkpt lat="46.1258" lon="6.71282">
        <ele>1728.6</ele>
        <time>2026-06-27T06:52:19Z</time>
      </trkpt>
      <trkpt lat="46.1258" lon="6.71282">
        <ele>1728.9</ele>
        <time>2026-06-27T06:52:20Z</time>
      </trkpt>
      <trkpt lat="46.12579" lon="6.71284">
        <ele>1729.1</ele>
        <time>2026-06-27T06:52:21Z</time>
      </trkpt>
      <trkpt lat="46.12579" lon="6.71284">
        <ele>1729.2</ele>
        <time>2026-06-27T06:52:22Z</time>
      </trkpt>
      <trkpt lat="46.12578" lon="6.71285">
        <ele>1729.4</ele>
        <time>2026-06-27T06:52:23Z</time>
      </trkpt>
      <trkpt lat="46.12577" lon="6.71285">
        <ele>1729.6</ele>
        <time>2026-06-27T06:52:24Z</time>
      </trkpt>
      <trkpt lat="46.12577" lon="6.71286">
        <ele>1729.8</ele>
        <time>2026-06-27T06:52:25Z</time>
      </trkpt>
      <trkpt lat="46.12576" lon="6.71287">
        <ele>1730</ele>
        <time>2026-06-27T06:52:26Z</time>
      </trkpt>
      <trkpt lat="46.12576" lon="6.71288">
        <ele>1730.1</ele>
        <time>2026-06-27T06:52:27Z</time>
      </trkpt>
      <trkpt lat="46.12575" lon="6.71289">
        <ele>1730.3</ele>
        <time>2026-06-27T06:52:28Z</time>
      </trkpt>
      <trkpt lat="46.12575" lon="6.7129">
        <ele>1730.5</ele>
        <time>2026-06-27T06:52:29Z</time>
      </trkpt>
      <trkpt lat="46.12575" lon="6.7129">
        <ele>1730.6</ele>
        <time>2026-06-27T06:52:30Z</time>
      </trkpt>
      <trkpt lat="46.12574" lon="6.71291">
        <ele>1730.8</ele>
        <time>2026-06-27T06:52:31Z</time>
      </trkpt>
      <trkpt lat="46.12574" lon="6.71292">
        <ele>1730.9</ele>
        <time>2026-06-27T06:52:32Z</time>
      </trkpt>
      <trkpt lat="46.12573" lon="6.71293">
        <ele>1731.1</ele>
        <time>2026-06-27T06:52:33Z</time>
      </trkpt>
      <trkpt lat="46.12573" lon="6.71294">
        <ele>1731.2</ele>
        <time>2026-06-27T06:52:34Z</time>
      </trkpt>
      <trkpt lat="46.12572" lon="6.71295">
        <ele>1731.4</ele>
        <time>2026-06-27T06:52:35Z</time>
      </trkpt>
      <trkpt lat="46.12571" lon="6.71296">
        <ele>1731.5</ele>
        <time>2026-06-27T06:52:36Z</time>
      </trkpt>
      <trkpt lat="46.12571" lon="6.71296">
        <ele>1731.6</ele>
        <time>2026-06-27T06:52:37Z</time>
      </trkpt>
      <trkpt lat="46.12571" lon="6.71298">
        <ele>1731.7</ele>
        <time>2026-06-27T06:52:38Z</time>
      </trkpt>
      <trkpt lat="46.1257" lon="6.71298">
        <ele>1731.8</ele>
        <time>2026-06-27T06:52:39Z</time>
      </trkpt>
      <trkpt lat="46.1257" lon="6.713">
        <ele>1731.9</ele>
        <time>2026-06-27T06:52:40Z</time>
      </trkpt>
      <trkpt lat="46.1257" lon="6.71301">
        <ele>1731.9</ele>
        <time>2026-06-27T06:52:41Z</time>
      </trkpt>
      <trkpt lat="46.12569" lon="6.71302">
        <ele>1732</ele>
        <time>2026-06-27T06:52:42Z</time>
      </trkpt>
      <trkpt lat="46.12568" lon="6.71303">
        <ele>1732.1</ele>
        <time>2026-06-27T06:52:43Z</time>
      </trkpt>
      <trkpt lat="46.12568" lon="6.71304">
        <ele>1732.1</ele>
        <time>2026-06-27T06:52:44Z</time>
      </trkpt>
      <trkpt lat="46.12567" lon="6.71305">
        <ele>1732.1</ele>
        <time>2026-06-27T06:52:45Z</time>
      </trkpt>
      <trkpt lat="46.12567" lon="6.71306">
        <ele>1732.1</ele>
        <time>2026-06-27T06:52:46Z</time>
      </trkpt>
      <trkpt lat="46.12567" lon="6.71307">
        <ele>1732.1</ele>
        <time>2026-06-27T06:52:47Z</time>
      </trkpt>
      <trkpt lat="46.12566" lon="6.71307">
        <ele>1732.1</ele>
        <time>2026-06-27T06:52:48Z</time>
      </trkpt>
      <trkpt lat="46.12566" lon="6.71309">
        <ele>1732</ele>
        <time>2026-06-27T06:52:49Z</time>
      </trkpt>
      <trkpt lat="46.12565" lon="6.7131">
        <ele>1732</ele>
        <time>2026-06-27T06:52:50Z</time>
      </trkpt>
      <trkpt lat="46.12565" lon="6.71312">
        <ele>1731.9</ele>
        <time>2026-06-27T06:52:51Z</time>
      </trkpt>
      <trkpt lat="46.12565" lon="6.71314">
        <ele>1731.9</ele>
        <time>2026-06-27T06:52:52Z</time>
      </trkpt>
      <trkpt lat="46.12565" lon="6.71315">
        <ele>1731.9</ele>
        <time>2026-06-27T06:52:53Z</time>
      </trkpt>
      <trkpt lat="46.12564" lon="6.71316">
        <ele>1731.9</ele>
        <time>2026-06-27T06:52:54Z</time>
      </trkpt>
      <trkpt lat="46.12564" lon="6.71317">
        <ele>1731.9</ele>
        <time>2026-06-27T06:52:55Z</time>
      </trkpt>
      <trkpt lat="46.12564" lon="6.71318">
        <ele>1731.8</ele>
        <time>2026-06-27T06:52:56Z</time>
      </trkpt>
      <trkpt lat="46.12564" lon="6.71319">
        <ele>1731.7</ele>
        <time>2026-06-27T06:52:57Z</time>
      </trkpt>
      <trkpt lat="46.12563" lon="6.7132">
        <ele>1731.7</ele>
        <time>2026-06-27T06:52:58Z</time>
      </trkpt>
      <trkpt lat="46.12563" lon="6.7132">
        <ele>1731.7</ele>
        <time>2026-06-27T06:52:59Z</time>
      </trkpt>
      <trkpt lat="46.12563" lon="6.7132">
        <ele>1731.6</ele>
        <time>2026-06-27T06:53:00Z</time>
      </trkpt>
      <trkpt lat="46.12562" lon="6.71321">
        <ele>1731.6</ele>
        <time>2026-06-27T06:53:01Z</time>
      </trkpt>
      <trkpt lat="46.12562" lon="6.71322">
        <ele>1731.5</ele>
        <time>2026-06-27T06:53:02Z</time>
      </trkpt>
      <trkpt lat="46.12562" lon="6.71323">
        <ele>1731.4</ele>
        <time>2026-06-27T06:53:03Z</time>
      </trkpt>
      <trkpt lat="46.12561" lon="6.71324">
        <ele>1731.4</ele>
        <time>2026-06-27T06:53:04Z</time>
      </trkpt>
      <trkpt lat="46.12561" lon="6.71325">
        <ele>1731.3</ele>
        <time>2026-06-27T06:53:05Z</time>
      </trkpt>
      <trkpt lat="46.12561" lon="6.71326">
        <ele>1731.2</ele>
        <time>2026-06-27T06:53:06Z</time>
      </trkpt>
      <trkpt lat="46.1256" lon="6.71327">
        <ele>1731.1</ele>
        <time>2026-06-27T06:53:07Z</time>
      </trkpt>
      <trkpt lat="46.1256" lon="6.71327">
        <ele>1730.9</ele>
        <time>2026-06-27T06:53:08Z</time>
      </trkpt>
      <trkpt lat="46.12559" lon="6.71328">
        <ele>1730.8</ele>
        <time>2026-06-27T06:53:09Z</time>
      </trkpt>
      <trkpt lat="46.12558" lon="6.71329">
        <ele>1730.6</ele>
        <time>2026-06-27T06:53:10Z</time>
      </trkpt>
      <trkpt lat="46.12558" lon="6.7133">
        <ele>1730.5</ele>
        <time>2026-06-27T06:53:11Z</time>
      </trkpt>
      <trkpt lat="46.12558" lon="6.7133">
        <ele>1730.4</ele>
        <time>2026-06-27T06:53:12Z</time>
      </trkpt>
      <trkpt lat="46.12557" lon="6.71331">
        <ele>1730.3</ele>
        <time>2026-06-27T06:53:13Z</time>
      </trkpt>
      <trkpt lat="46.12556" lon="6.71332">
        <ele>1730.3</ele>
        <time>2026-06-27T06:53:14Z</time>
      </trkpt>
      <trkpt lat="46.12555" lon="6.71332">
        <ele>1730.3</ele>
        <time>2026-06-27T06:53:15Z</time>
      </trkpt>
      <trkpt lat="46.12555" lon="6.71333">
        <ele>1730.3</ele>
        <time>2026-06-27T06:53:16Z</time>
      </trkpt>
      <trkpt lat="46.12554" lon="6.71335">
        <ele>1730.1</ele>
        <time>2026-06-27T06:53:17Z</time>
      </trkpt>
      <trkpt lat="46.12553" lon="6.71335">
        <ele>1730.1</ele>
        <time>2026-06-27T06:53:18Z</time>
      </trkpt>
      <trkpt lat="46.12553" lon="6.71336">
        <ele>1730.1</ele>
        <time>2026-06-27T06:53:19Z</time>
      </trkpt>
      <trkpt lat="46.12552" lon="6.71336">
        <ele>1730.2</ele>
        <time>2026-06-27T06:53:20Z</time>
      </trkpt>
      <trkpt lat="46.12551" lon="6.71336">
        <ele>1730.2</ele>
        <time>2026-06-27T06:53:21Z</time>
      </trkpt>
      <trkpt lat="46.1255" lon="6.71337">
        <ele>1730.2</ele>
        <time>2026-06-27T06:53:22Z</time>
      </trkpt>
      <trkpt lat="46.12549" lon="6.71338">
        <ele>1730.2</ele>
        <time>2026-06-27T06:53:23Z</time>
      </trkpt>
      <trkpt lat="46.12549" lon="6.71339">
        <ele>1730.2</ele>
        <time>2026-06-27T06:53:24Z</time>
      </trkpt>
      <trkpt lat="46.12548" lon="6.71339">
        <ele>1730.1</ele>
        <time>2026-06-27T06:53:25Z</time>
      </trkpt>
      <trkpt lat="46.12547" lon="6.7134">
        <ele>1730</ele>
        <time>2026-06-27T06:53:26Z</time>
      </trkpt>
      <trkpt lat="46.12547" lon="6.71341">
        <ele>1730</ele>
        <time>2026-06-27T06:53:27Z</time>
      </trkpt>
      <trkpt lat="46.12547" lon="6.71341">
        <ele>1730.1</ele>
        <time>2026-06-27T06:53:28Z</time>
      </trkpt>
      <trkpt lat="46.12547" lon="6.71341">
        <ele>1730.2</ele>
        <time>2026-06-27T06:53:29Z</time>
      </trkpt>
      <trkpt lat="46.12548" lon="6.71343">
        <ele>1730.2</ele>
        <time>2026-06-27T06:53:30Z</time>
      </trkpt>
      <trkpt lat="46.12548" lon="6.71344">
        <ele>1730.2</ele>
        <time>2026-06-27T06:53:31Z</time>
      </trkpt>
      <trkpt lat="46.12549" lon="6.71345">
        <ele>1730.2</ele>
        <time>2026-06-27T06:53:32Z</time>
      </trkpt>
      <trkpt lat="46.12549" lon="6.71345">
        <ele>1730.2</ele>
        <time>2026-06-27T06:53:33Z</time>
      </trkpt>
      <trkpt lat="46.12549" lon="6.71345">
        <ele>1730.2</ele>
        <time>2026-06-27T06:53:34Z</time>
      </trkpt>
      <trkpt lat="46.12549" lon="6.71345">
        <ele>1730.2</ele>
        <time>2026-06-27T06:53:35Z</time>
      </trkpt>
      <trkpt lat="46.12549" lon="6.71346">
        <ele>1730.2</ele>
        <time>2026-06-27T06:53:36Z</time>
      </trkpt>
      <trkpt lat="46.12549" lon="6.71346">
        <ele>1730.2</ele>
        <time>2026-06-27T06:53:37Z</time>
      </trkpt>
      <trkpt lat="46.12549" lon="6.71346">
        <ele>1730.2</ele>
        <time>2026-06-27T06:53:38Z</time>
      </trkpt>
      <trkpt lat="46.12549" lon="6.71347">
        <ele>1730.2</ele>
        <time>2026-06-27T06:53:39Z</time>
      </trkpt>
      <trkpt lat="46.12549" lon="6.71347">
        <ele>1730.2</ele>
        <time>2026-06-27T06:53:40Z</time>
      </trkpt>
      <trkpt lat="46.12549" lon="6.71347">
        <ele>1730.2</ele>
        <time>2026-06-27T06:53:41Z</time>
      </trkpt>
      <trkpt lat="46.12549" lon="6.71347">
        <ele>1730.1</ele>
        <time>2026-06-27T06:53:42Z</time>
      </trkpt>
      <trkpt lat="46.12549" lon="6.71348">
        <ele>1730.2</ele>
        <time>2026-06-27T06:53:43Z</time>
      </trkpt>
      <trkpt lat="46.12549" lon="6.71348">
        <ele>1730.2</ele>
        <time>2026-06-27T06:53:44Z</time>
      </trkpt>
      <trkpt lat="46.12549" lon="6.71348">
        <ele>1730.2</ele>
        <time>2026-06-27T06:53:45Z</time>
      </trkpt>
      <trkpt lat="46.12549" lon="6.71348">
        <ele>1730.3</ele>
        <time>2026-06-27T06:53:46Z</time>
      </trkpt>
      <trkpt lat="46.12549" lon="6.71348">
        <ele>1730.2</ele>
        <time>2026-06-27T06:53:47Z</time>
      </trkpt>
      <trkpt lat="46.12549" lon="6.71348">
        <ele>1730.2</ele>
        <time>2026-06-27T06:53:48Z</time>
      </trkpt>
      <trkpt lat="46.12549" lon="6.71348">
        <ele>1730.2</ele>
        <time>2026-06-27T06:53:49Z</time>
      </trkpt>
      <trkpt lat="46.12549" lon="6.71348">
        <ele>1730.2</ele>
        <time>2026-06-27T06:53:50Z</time>
      </trkpt>
      <trkpt lat="46.12549" lon="6.71349">
        <ele>1730.1</ele>
        <time>2026-06-27T06:53:51Z</time>
      </trkpt>
      <trkpt lat="46.12549" lon="6.71349">
        <ele>1730.1</ele>
        <time>2026-06-27T06:53:52Z</time>
      </trkpt>
      <trkpt lat="46.12549" lon="6.71349">
        <ele>1730.2</ele>
        <time>2026-06-27T06:53:53Z</time>
      </trkpt>
      <trkpt lat="46.12549" lon="6.71349">
        <ele>1730.2</ele>
        <time>2026-06-27T06:53:54Z</time>
      </trkpt>
      <trkpt lat="46.12549" lon="6.71349">
        <ele>1730.1</ele>
        <time>2026-06-27T06:53:55Z</time>
      </trkpt>
      <trkpt lat="46.1255" lon="6.71349">
        <ele>1730.1</ele>
        <time>2026-06-27T06:53:56Z</time>
      </trkpt>
      <trkpt lat="46.1255" lon="6.71349">
        <ele>1730.1</ele>
        <time>2026-06-27T06:53:57Z</time>
      </trkpt>
      <trkpt lat="46.1255" lon="6.71349">
        <ele>1730.1</ele>
        <time>2026-06-27T06:53:58Z</time>
      </trkpt>
      <trkpt lat="46.1255" lon="6.71349">
        <ele>1730.1</ele>
        <time>2026-06-27T06:53:59Z</time>
      </trkpt>
      <trkpt lat="46.1255" lon="6.71349">
        <ele>1730.1</ele>
        <time>2026-06-27T06:54:00Z</time>
      </trkpt>
      <trkpt lat="46.1255" lon="6.71349">
        <ele>1730.2</ele>
        <time>2026-06-27T06:54:01Z</time>
      </trkpt>
      <trkpt lat="46.1255" lon="6.71349">
        <ele>1730.2</ele>
        <time>2026-06-27T06:54:02Z</time>
      </trkpt>
      <trkpt lat="46.1255" lon="6.7135">
        <ele>1730.2</ele>
        <time>2026-06-27T06:54:03Z</time>
      </trkpt>
      <trkpt lat="46.1255" lon="6.7135">
        <ele>1730.2</ele>
        <time>2026-06-27T06:54:04Z</time>
      </trkpt>
      <trkpt lat="46.1255" lon="6.7135">
        <ele>1730.2</ele>
        <time>2026-06-27T06:54:05Z</time>
      </trkpt>
      <trkpt lat="46.1255" lon="6.7135">
        <ele>1730.2</ele>
        <time>2026-06-27T06:54:06Z</time>
      </trkpt>
      <trkpt lat="46.1255" lon="6.7135">
        <ele>1730.3</ele>
        <time>2026-06-27T06:54:07Z</time>
      </trkpt>
      <trkpt lat="46.1255" lon="6.7135">
        <ele>1730.3</ele>
        <time>2026-06-27T06:54:08Z</time>
      </trkpt>
      <trkpt lat="46.1255" lon="6.7135">
        <ele>1730.2</ele>
        <time>2026-06-27T06:54:09Z</time>
      </trkpt>
      <trkpt lat="46.1255" lon="6.7135">
        <ele>1730.3</ele>
        <time>2026-06-27T06:54:10Z</time>
      </trkpt>
      <trkpt lat="46.12549" lon="6.71349">
        <ele>1730.3</ele>
        <time>2026-06-27T06:54:11Z</time>
      </trkpt>
      <trkpt lat="46.12549" lon="6.71349">
        <ele>1730.2</ele>
        <time>2026-06-27T06:54:12Z</time>
      </trkpt>
      <trkpt lat="46.12549" lon="6.71348">
        <ele>1730.2</ele>
        <time>2026-06-27T06:54:13Z</time>
      </trkpt>
      <trkpt lat="46.12548" lon="6.71348">
        <ele>1730.2</ele>
        <time>2026-06-27T06:54:14Z</time>
      </trkpt>
      <trkpt lat="46.12547" lon="6.71348">
        <ele>1730.2</ele>
        <time>2026-06-27T06:54:15Z</time>
      </trkpt>
      <trkpt lat="46.12546" lon="6.71348">
        <ele>1730.2</ele>
        <time>2026-06-27T06:54:16Z</time>
      </trkpt>
      <trkpt lat="46.12545" lon="6.71348">
        <ele>1730.2</ele>
        <time>2026-06-27T06:54:17Z</time>
      </trkpt>
      <trkpt lat="46.12544" lon="6.71348">
        <ele>1730.2</ele>
        <time>2026-06-27T06:54:18Z</time>
      </trkpt>
      <trkpt lat="46.12543" lon="6.71348">
        <ele>1730.3</ele>
        <time>2026-06-27T06:54:19Z</time>
      </trkpt>
      <trkpt lat="46.12542" lon="6.71349">
        <ele>1730.3</ele>
        <time>2026-06-27T06:54:20Z</time>
      </trkpt>
      <trkpt lat="46.12542" lon="6.7135">
        <ele>1730.4</ele>
        <time>2026-06-27T06:54:21Z</time>
      </trkpt>
      <trkpt lat="46.12541" lon="6.7135">
        <ele>1730.5</ele>
        <time>2026-06-27T06:54:22Z</time>
      </trkpt>
      <trkpt lat="46.1254" lon="6.71351">
        <ele>1730.7</ele>
        <time>2026-06-27T06:54:23Z</time>
      </trkpt>
      <trkpt lat="46.12539" lon="6.71351">
        <ele>1730.7</ele>
        <time>2026-06-27T06:54:24Z</time>
      </trkpt>
      <trkpt lat="46.12538" lon="6.71351">
        <ele>1730.7</ele>
        <time>2026-06-27T06:54:25Z</time>
      </trkpt>
      <trkpt lat="46.12538" lon="6.71352">
        <ele>1730.8</ele>
        <time>2026-06-27T06:54:26Z</time>
      </trkpt>
      <trkpt lat="46.12537" lon="6.71352">
        <ele>1730.9</ele>
        <time>2026-06-27T06:54:27Z</time>
      </trkpt>
      <trkpt lat="46.12536" lon="6.71353">
        <ele>1731</ele>
        <time>2026-06-27T06:54:28Z</time>
      </trkpt>
      <trkpt lat="46.12535" lon="6.71354">
        <ele>1731</ele>
        <time>2026-06-27T06:54:29Z</time>
      </trkpt>
      <trkpt lat="46.12534" lon="6.71354">
        <ele>1731.3</ele>
        <time>2026-06-27T06:54:30Z</time>
      </trkpt>
      <trkpt lat="46.12533" lon="6.71355">
        <ele>1731.3</ele>
        <time>2026-06-27T06:54:31Z</time>
      </trkpt>
      <trkpt lat="46.12533" lon="6.71356">
        <ele>1731.4</ele>
        <time>2026-06-27T06:54:32Z</time>
      </trkpt>
      <trkpt lat="46.12532" lon="6.71357">
        <ele>1731.5</ele>
        <time>2026-06-27T06:54:33Z</time>
      </trkpt>
      <trkpt lat="46.12532" lon="6.71357">
        <ele>1731.6</ele>
        <time>2026-06-27T06:54:34Z</time>
      </trkpt>
      <trkpt lat="46.12531" lon="6.71358">
        <ele>1731.6</ele>
        <time>2026-06-27T06:54:35Z</time>
      </trkpt>
      <trkpt lat="46.1253" lon="6.71358">
        <ele>1731.6</ele>
        <time>2026-06-27T06:54:36Z</time>
      </trkpt>
      <trkpt lat="46.1253" lon="6.71359">
        <ele>1731.6</ele>
        <time>2026-06-27T06:54:37Z</time>
      </trkpt>
      <trkpt lat="46.12529" lon="6.71359">
        <ele>1731.6</ele>
        <time>2026-06-27T06:54:38Z</time>
      </trkpt>
      <trkpt lat="46.12529" lon="6.71361">
        <ele>1731.5</ele>
        <time>2026-06-27T06:54:39Z</time>
      </trkpt>
      <trkpt lat="46.12528" lon="6.71361">
        <ele>1731.4</ele>
        <time>2026-06-27T06:54:40Z</time>
      </trkpt>
      <trkpt lat="46.12527" lon="6.71362">
        <ele>1731.2</ele>
        <time>2026-06-27T06:54:41Z</time>
      </trkpt>
      <trkpt lat="46.12527" lon="6.71363">
        <ele>1731.2</ele>
        <time>2026-06-27T06:54:42Z</time>
      </trkpt>
      <trkpt lat="46.12526" lon="6.71363">
        <ele>1731.1</ele>
        <time>2026-06-27T06:54:43Z</time>
      </trkpt>
      <trkpt lat="46.12525" lon="6.71363">
        <ele>1731</ele>
        <time>2026-06-27T06:54:44Z</time>
      </trkpt>
      <trkpt lat="46.12524" lon="6.71364">
        <ele>1731.1</ele>
        <time>2026-06-27T06:54:45Z</time>
      </trkpt>
      <trkpt lat="46.12524" lon="6.71365">
        <ele>1731.1</ele>
        <time>2026-06-27T06:54:46Z</time>
      </trkpt>
      <trkpt lat="46.12523" lon="6.71365">
        <ele>1731.1</ele>
        <time>2026-06-27T06:54:47Z</time>
      </trkpt>
      <trkpt lat="46.12522" lon="6.71366">
        <ele>1731.1</ele>
        <time>2026-06-27T06:54:48Z</time>
      </trkpt>
      <trkpt lat="46.12521" lon="6.71366">
        <ele>1731.1</ele>
        <time>2026-06-27T06:54:49Z</time>
      </trkpt>
      <trkpt lat="46.1252" lon="6.71367">
        <ele>1731.1</ele>
        <time>2026-06-27T06:54:50Z</time>
      </trkpt>
      <trkpt lat="46.1252" lon="6.71367">
        <ele>1731</ele>
        <time>2026-06-27T06:54:51Z</time>
      </trkpt>
      <trkpt lat="46.12519" lon="6.71368">
        <ele>1731</ele>
        <time>2026-06-27T06:54:52Z</time>
      </trkpt>
      <trkpt lat="46.12518" lon="6.71369">
        <ele>1730.9</ele>
        <time>2026-06-27T06:54:53Z</time>
      </trkpt>
      <trkpt lat="46.12517" lon="6.71369">
        <ele>1730.8</ele>
        <time>2026-06-27T06:54:54Z</time>
      </trkpt>
      <trkpt lat="46.12516" lon="6.71369">
        <ele>1730.7</ele>
        <time>2026-06-27T06:54:55Z</time>
      </trkpt>
      <trkpt lat="46.12515" lon="6.7137">
        <ele>1730.6</ele>
        <time>2026-06-27T06:54:56Z</time>
      </trkpt>
      <trkpt lat="46.12514" lon="6.71371">
        <ele>1730.5</ele>
        <time>2026-06-27T06:54:57Z</time>
      </trkpt>
      <trkpt lat="46.12513" lon="6.71371">
        <ele>1730.5</ele>
        <time>2026-06-27T06:54:58Z</time>
      </trkpt>
      <trkpt lat="46.12512" lon="6.71371">
        <ele>1730.4</ele>
        <time>2026-06-27T06:54:59Z</time>
      </trkpt>
      <trkpt lat="46.12511" lon="6.71372">
        <ele>1730.4</ele>
        <time>2026-06-27T06:55:00Z</time>
      </trkpt>
      <trkpt lat="46.12511" lon="6.71373">
        <ele>1730.3</ele>
        <time>2026-06-27T06:55:01Z</time>
      </trkpt>
      <trkpt lat="46.1251" lon="6.71373">
        <ele>1730.2</ele>
        <time>2026-06-27T06:55:02Z</time>
      </trkpt>
      <trkpt lat="46.12509" lon="6.71374">
        <ele>1730.1</ele>
        <time>2026-06-27T06:55:03Z</time>
      </trkpt>
      <trkpt lat="46.12508" lon="6.71374">
        <ele>1730</ele>
        <time>2026-06-27T06:55:04Z</time>
      </trkpt>
      <trkpt lat="46.12507" lon="6.71374">
        <ele>1730</ele>
        <time>2026-06-27T06:55:05Z</time>
      </trkpt>
      <trkpt lat="46.12506" lon="6.71374">
        <ele>1729.9</ele>
        <time>2026-06-27T06:55:06Z</time>
      </trkpt>
      <trkpt lat="46.12505" lon="6.71375">
        <ele>1729.8</ele>
        <time>2026-06-27T06:55:07Z</time>
      </trkpt>
      <trkpt lat="46.12504" lon="6.71375">
        <ele>1729.8</ele>
        <time>2026-06-27T06:55:08Z</time>
      </trkpt>
      <trkpt lat="46.12504" lon="6.71376">
        <ele>1729.8</ele>
        <time>2026-06-27T06:55:09Z</time>
      </trkpt>
      <trkpt lat="46.12503" lon="6.71377">
        <ele>1729.7</ele>
        <time>2026-06-27T06:55:10Z</time>
      </trkpt>
      <trkpt lat="46.12502" lon="6.71377">
        <ele>1729.7</ele>
        <time>2026-06-27T06:55:11Z</time>
      </trkpt>
      <trkpt lat="46.12501" lon="6.71378">
        <ele>1729.6</ele>
        <time>2026-06-27T06:55:12Z</time>
      </trkpt>
      <trkpt lat="46.12501" lon="6.71378">
        <ele>1729.6</ele>
        <time>2026-06-27T06:55:13Z</time>
      </trkpt>
      <trkpt lat="46.125" lon="6.71379">
        <ele>1729.5</ele>
        <time>2026-06-27T06:55:14Z</time>
      </trkpt>
      <trkpt lat="46.12499" lon="6.71379">
        <ele>1729.5</ele>
        <time>2026-06-27T06:55:15Z</time>
      </trkpt>
      <trkpt lat="46.12498" lon="6.7138">
        <ele>1729.3</ele>
        <time>2026-06-27T06:55:16Z</time>
      </trkpt>
      <trkpt lat="46.12497" lon="6.7138">
        <ele>1729.2</ele>
        <time>2026-06-27T06:55:17Z</time>
      </trkpt>
      <trkpt lat="46.12496" lon="6.7138">
        <ele>1729</ele>
        <time>2026-06-27T06:55:18Z</time>
      </trkpt>
      <trkpt lat="46.12495" lon="6.7138">
        <ele>1728.8</ele>
        <time>2026-06-27T06:55:19Z</time>
      </trkpt>
      <trkpt lat="46.12494" lon="6.7138">
        <ele>1728.7</ele>
        <time>2026-06-27T06:55:20Z</time>
      </trkpt>
      <trkpt lat="46.12492" lon="6.71381">
        <ele>1728.6</ele>
        <time>2026-06-27T06:55:21Z</time>
      </trkpt>
      <trkpt lat="46.12491" lon="6.71381">
        <ele>1728.7</ele>
        <time>2026-06-27T06:55:22Z</time>
      </trkpt>
      <trkpt lat="46.1249" lon="6.71382">
        <ele>1728.7</ele>
        <time>2026-06-27T06:55:23Z</time>
      </trkpt>
      <trkpt lat="46.12489" lon="6.71382">
        <ele>1728.8</ele>
        <time>2026-06-27T06:55:24Z</time>
      </trkpt>
      <trkpt lat="46.12488" lon="6.71383">
        <ele>1728.8</ele>
        <time>2026-06-27T06:55:25Z</time>
      </trkpt>
      <trkpt lat="46.12487" lon="6.71384">
        <ele>1728.8</ele>
        <time>2026-06-27T06:55:26Z</time>
      </trkpt>
      <trkpt lat="46.12487" lon="6.71384">
        <ele>1728.8</ele>
        <time>2026-06-27T06:55:27Z</time>
      </trkpt>
      <trkpt lat="46.12486" lon="6.71385">
        <ele>1728.8</ele>
        <time>2026-06-27T06:55:28Z</time>
      </trkpt>
      <trkpt lat="46.12485" lon="6.71385">
        <ele>1728.8</ele>
        <time>2026-06-27T06:55:29Z</time>
      </trkpt>
      <trkpt lat="46.12484" lon="6.71386">
        <ele>1728.8</ele>
        <time>2026-06-27T06:55:30Z</time>
      </trkpt>
      <trkpt lat="46.12483" lon="6.71386">
        <ele>1728.8</ele>
        <time>2026-06-27T06:55:31Z</time>
      </trkpt>
      <trkpt lat="46.12483" lon="6.71386">
        <ele>1728.7</ele>
        <time>2026-06-27T06:55:32Z</time>
      </trkpt>
      <trkpt lat="46.12482" lon="6.71387">
        <ele>1728.7</ele>
        <time>2026-06-27T06:55:33Z</time>
      </trkpt>
      <trkpt lat="46.12481" lon="6.71387">
        <ele>1728.7</ele>
        <time>2026-06-27T06:55:34Z</time>
      </trkpt>
      <trkpt lat="46.1248" lon="6.71388">
        <ele>1728.7</ele>
        <time>2026-06-27T06:55:35Z</time>
      </trkpt>
      <trkpt lat="46.12479" lon="6.71389">
        <ele>1728.7</ele>
        <time>2026-06-27T06:55:36Z</time>
      </trkpt>
      <trkpt lat="46.12479" lon="6.71389">
        <ele>1728.8</ele>
        <time>2026-06-27T06:55:37Z</time>
      </trkpt>
      <trkpt lat="46.12478" lon="6.7139">
        <ele>1728.7</ele>
        <time>2026-06-27T06:55:38Z</time>
      </trkpt>
      <trkpt lat="46.12477" lon="6.7139">
        <ele>1728.9</ele>
        <time>2026-06-27T06:55:39Z</time>
      </trkpt>
      <trkpt lat="46.12476" lon="6.7139">
        <ele>1729</ele>
        <time>2026-06-27T06:55:40Z</time>
      </trkpt>
      <trkpt lat="46.12475" lon="6.7139">
        <ele>1729</ele>
        <time>2026-06-27T06:55:41Z</time>
      </trkpt>
      <trkpt lat="46.12474" lon="6.7139">
        <ele>1729</ele>
        <time>2026-06-27T06:55:42Z</time>
      </trkpt>
      <trkpt lat="46.12473" lon="6.7139">
        <ele>1729</ele>
        <time>2026-06-27T06:55:43Z</time>
      </trkpt>
      <trkpt lat="46.12472" lon="6.7139">
        <ele>1729.1</ele>
        <time>2026-06-27T06:55:44Z</time>
      </trkpt>
      <trkpt lat="46.12471" lon="6.71391">
        <ele>1729.1</ele>
        <time>2026-06-27T06:55:45Z</time>
      </trkpt>
      <trkpt lat="46.1247" lon="6.71391">
        <ele>1729.1</ele>
        <time>2026-06-27T06:55:46Z</time>
      </trkpt>
      <trkpt lat="46.12469" lon="6.71391">
        <ele>1729.2</ele>
        <time>2026-06-27T06:55:47Z</time>
      </trkpt>
      <trkpt lat="46.12469" lon="6.71391">
        <ele>1729.2</ele>
        <time>2026-06-27T06:55:48Z</time>
      </trkpt>
      <trkpt lat="46.12468" lon="6.71391">
        <ele>1729.2</ele>
        <time>2026-06-27T06:55:49Z</time>
      </trkpt>
      <trkpt lat="46.12467" lon="6.71391">
        <ele>1729.2</ele>
        <time>2026-06-27T06:55:50Z</time>
      </trkpt>
      <trkpt lat="46.12466" lon="6.71392">
        <ele>1729.2</ele>
        <time>2026-06-27T06:55:51Z</time>
      </trkpt>
      <trkpt lat="46.12465" lon="6.71392">
        <ele>1729.3</ele>
        <time>2026-06-27T06:55:52Z</time>
      </trkpt>
      <trkpt lat="46.12464" lon="6.71392">
        <ele>1729.4</ele>
        <time>2026-06-27T06:55:53Z</time>
      </trkpt>
      <trkpt lat="46.12463" lon="6.71392">
        <ele>1729.5</ele>
        <time>2026-06-27T06:55:54Z</time>
      </trkpt>
      <trkpt lat="46.12462" lon="6.71392">
        <ele>1729.6</ele>
        <time>2026-06-27T06:55:55Z</time>
      </trkpt>
      <trkpt lat="46.12461" lon="6.71393">
        <ele>1729.6</ele>
        <time>2026-06-27T06:55:56Z</time>
      </trkpt>
      <trkpt lat="46.12461" lon="6.71392">
        <ele>1729.6</ele>
        <time>2026-06-27T06:55:57Z</time>
      </trkpt>
      <trkpt lat="46.1246" lon="6.71393">
        <ele>1729.7</ele>
        <time>2026-06-27T06:55:58Z</time>
      </trkpt>
      <trkpt lat="46.12459" lon="6.71393">
        <ele>1729.7</ele>
        <time>2026-06-27T06:55:59Z</time>
      </trkpt>
      <trkpt lat="46.12458" lon="6.71393">
        <ele>1729.6</ele>
        <time>2026-06-27T06:56:00Z</time>
      </trkpt>
      <trkpt lat="46.12457" lon="6.71394">
        <ele>1729.6</ele>
        <time>2026-06-27T06:56:01Z</time>
      </trkpt>
      <trkpt lat="46.12456" lon="6.71394">
        <ele>1729.7</ele>
        <time>2026-06-27T06:56:02Z</time>
      </trkpt>
      <trkpt lat="46.12455" lon="6.71394">
        <ele>1729.7</ele>
        <time>2026-06-27T06:56:03Z</time>
      </trkpt>
      <trkpt lat="46.12455" lon="6.71395">
        <ele>1729.7</ele>
        <time>2026-06-27T06:56:04Z</time>
      </trkpt>
      <trkpt lat="46.12455" lon="6.71395">
        <ele>1729.8</ele>
        <time>2026-06-27T06:56:05Z</time>
      </trkpt>
      <trkpt lat="46.12454" lon="6.71396">
        <ele>1729.9</ele>
        <time>2026-06-27T06:56:06Z</time>
      </trkpt>
      <trkpt lat="46.12453" lon="6.71396">
        <ele>1729.9</ele>
        <time>2026-06-27T06:56:07Z</time>
      </trkpt>
      <trkpt lat="46.12453" lon="6.71396">
        <ele>1730</ele>
        <time>2026-06-27T06:56:08Z</time>
      </trkpt>
      <trkpt lat="46.12452" lon="6.71397">
        <ele>1730</ele>
        <time>2026-06-27T06:56:09Z</time>
      </trkpt>
      <trkpt lat="46.12451" lon="6.71398">
        <ele>1730.1</ele>
        <time>2026-06-27T06:56:10Z</time>
      </trkpt>
      <trkpt lat="46.12451" lon="6.71398">
        <ele>1730.2</ele>
        <time>2026-06-27T06:56:11Z</time>
      </trkpt>
      <trkpt lat="46.1245" lon="6.71399">
        <ele>1730.3</ele>
        <time>2026-06-27T06:56:12Z</time>
      </trkpt>
      <trkpt lat="46.12449" lon="6.71399">
        <ele>1730.4</ele>
        <time>2026-06-27T06:56:13Z</time>
      </trkpt>
      <trkpt lat="46.12448" lon="6.71401">
        <ele>1730.5</ele>
        <time>2026-06-27T06:56:14Z</time>
      </trkpt>
      <trkpt lat="46.12448" lon="6.71402">
        <ele>1730.6</ele>
        <time>2026-06-27T06:56:15Z</time>
      </trkpt>
      <trkpt lat="46.12447" lon="6.71403">
        <ele>1730.6</ele>
        <time>2026-06-27T06:56:16Z</time>
      </trkpt>
      <trkpt lat="46.12447" lon="6.71404">
        <ele>1730.7</ele>
        <time>2026-06-27T06:56:17Z</time>
      </trkpt>
      <trkpt lat="46.12446" lon="6.71405">
        <ele>1730.8</ele>
        <time>2026-06-27T06:56:18Z</time>
      </trkpt>
      <trkpt lat="46.12445" lon="6.71405">
        <ele>1731</ele>
        <time>2026-06-27T06:56:19Z</time>
      </trkpt>
      <trkpt lat="46.12445" lon="6.71406">
        <ele>1731.1</ele>
        <time>2026-06-27T06:56:20Z</time>
      </trkpt>
      <trkpt lat="46.12444" lon="6.71407">
        <ele>1731.2</ele>
        <time>2026-06-27T06:56:21Z</time>
      </trkpt>
      <trkpt lat="46.12443" lon="6.71408">
        <ele>1731.4</ele>
        <time>2026-06-27T06:56:22Z</time>
      </trkpt>
      <trkpt lat="46.12443" lon="6.71408">
        <ele>1731.3</ele>
        <time>2026-06-27T06:56:23Z</time>
      </trkpt>
      <trkpt lat="46.12442" lon="6.71409">
        <ele>1731.3</ele>
        <time>2026-06-27T06:56:24Z</time>
      </trkpt>
      <trkpt lat="46.12442" lon="6.7141">
        <ele>1731.4</ele>
        <time>2026-06-27T06:56:25Z</time>
      </trkpt>
      <trkpt lat="46.12441" lon="6.7141">
        <ele>1731.6</ele>
        <time>2026-06-27T06:56:26Z</time>
      </trkpt>
      <trkpt lat="46.12441" lon="6.71411">
        <ele>1731.9</ele>
        <time>2026-06-27T06:56:27Z</time>
      </trkpt>
      <trkpt lat="46.1244" lon="6.71412">
        <ele>1732.1</ele>
        <time>2026-06-27T06:56:28Z</time>
      </trkpt>
      <trkpt lat="46.1244" lon="6.71413">
        <ele>1732.2</ele>
        <time>2026-06-27T06:56:29Z</time>
      </trkpt>
      <trkpt lat="46.12439" lon="6.71413">
        <ele>1732.4</ele>
        <time>2026-06-27T06:56:30Z</time>
      </trkpt>
      <trkpt lat="46.12438" lon="6.71414">
        <ele>1732.5</ele>
        <time>2026-06-27T06:56:31Z</time>
      </trkpt>
      <trkpt lat="46.12438" lon="6.71415">
        <ele>1732.6</ele>
        <time>2026-06-27T06:56:32Z</time>
      </trkpt>
      <trkpt lat="46.12438" lon="6.71416">
        <ele>1732.8</ele>
        <time>2026-06-27T06:56:33Z</time>
      </trkpt>
      <trkpt lat="46.12437" lon="6.71416">
        <ele>1732.9</ele>
        <time>2026-06-27T06:56:34Z</time>
      </trkpt>
      <trkpt lat="46.12436" lon="6.71416">
        <ele>1732.9</ele>
        <time>2026-06-27T06:56:35Z</time>
      </trkpt>
      <trkpt lat="46.12436" lon="6.71416">
        <ele>1733.1</ele>
        <time>2026-06-27T06:56:36Z</time>
      </trkpt>
      <trkpt lat="46.12435" lon="6.71417">
        <ele>1733.2</ele>
        <time>2026-06-27T06:56:37Z</time>
      </trkpt>
      <trkpt lat="46.12435" lon="6.71417">
        <ele>1733.3</ele>
        <time>2026-06-27T06:56:38Z</time>
      </trkpt>
      <trkpt lat="46.12435" lon="6.71418">
        <ele>1733.5</ele>
        <time>2026-06-27T06:56:39Z</time>
      </trkpt>
      <trkpt lat="46.12434" lon="6.71419">
        <ele>1733.6</ele>
        <time>2026-06-27T06:56:40Z</time>
      </trkpt>
      <trkpt lat="46.12433" lon="6.7142">
        <ele>1733.8</ele>
        <time>2026-06-27T06:56:41Z</time>
      </trkpt>
      <trkpt lat="46.12433" lon="6.7142">
        <ele>1733.9</ele>
        <time>2026-06-27T06:56:42Z</time>
      </trkpt>
      <trkpt lat="46.12432" lon="6.71421">
        <ele>1734.1</ele>
        <time>2026-06-27T06:56:43Z</time>
      </trkpt>
      <trkpt lat="46.12432" lon="6.71422">
        <ele>1734.2</ele>
        <time>2026-06-27T06:56:44Z</time>
      </trkpt>
      <trkpt lat="46.12432" lon="6.71423">
        <ele>1734.5</ele>
        <time>2026-06-27T06:56:45Z</time>
      </trkpt>
      <trkpt lat="46.12431" lon="6.71424">
        <ele>1734.6</ele>
        <time>2026-06-27T06:56:46Z</time>
      </trkpt>
      <trkpt lat="46.1243" lon="6.71424">
        <ele>1734.7</ele>
        <time>2026-06-27T06:56:47Z</time>
      </trkpt>
      <trkpt lat="46.1243" lon="6.71425">
        <ele>1734.8</ele>
        <time>2026-06-27T06:56:48Z</time>
      </trkpt>
      <trkpt lat="46.12429" lon="6.71426">
        <ele>1734.9</ele>
        <time>2026-06-27T06:56:49Z</time>
      </trkpt>
      <trkpt lat="46.12429" lon="6.71427">
        <ele>1735.1</ele>
        <time>2026-06-27T06:56:50Z</time>
      </trkpt>
      <trkpt lat="46.12429" lon="6.71427">
        <ele>1735.3</ele>
        <time>2026-06-27T06:56:51Z</time>
      </trkpt>
      <trkpt lat="46.12428" lon="6.71428">
        <ele>1735.3</ele>
        <time>2026-06-27T06:56:52Z</time>
      </trkpt>
      <trkpt lat="46.12427" lon="6.71428">
        <ele>1735.3</ele>
        <time>2026-06-27T06:56:53Z</time>
      </trkpt>
      <trkpt lat="46.12427" lon="6.71429">
        <ele>1735.4</ele>
        <time>2026-06-27T06:56:54Z</time>
      </trkpt>
      <trkpt lat="46.12427" lon="6.7143">
        <ele>1735.4</ele>
        <time>2026-06-27T06:56:55Z</time>
      </trkpt>
      <trkpt lat="46.12426" lon="6.71431">
        <ele>1735.4</ele>
        <time>2026-06-27T06:56:56Z</time>
      </trkpt>
      <trkpt lat="46.12425" lon="6.71431">
        <ele>1735.5</ele>
        <time>2026-06-27T06:56:57Z</time>
      </trkpt>
      <trkpt lat="46.12425" lon="6.71432">
        <ele>1735.6</ele>
        <time>2026-06-27T06:56:58Z</time>
      </trkpt>
      <trkpt lat="46.12424" lon="6.71432">
        <ele>1735.7</ele>
        <time>2026-06-27T06:56:59Z</time>
      </trkpt>
      <trkpt lat="46.12424" lon="6.71433">
        <ele>1735.8</ele>
        <time>2026-06-27T06:57:00Z</time>
      </trkpt>
      <trkpt lat="46.12424" lon="6.71433">
        <ele>1735.9</ele>
        <time>2026-06-27T06:57:01Z</time>
      </trkpt>
      <trkpt lat="46.12424" lon="6.71434">
        <ele>1736</ele>
        <time>2026-06-27T06:57:02Z</time>
      </trkpt>
      <trkpt lat="46.12423" lon="6.71434">
        <ele>1736.1</ele>
        <time>2026-06-27T06:57:03Z</time>
      </trkpt>
      <trkpt lat="46.12423" lon="6.71436">
        <ele>1736.2</ele>
        <time>2026-06-27T06:57:04Z</time>
      </trkpt>
      <trkpt lat="46.12423" lon="6.71437">
        <ele>1736.3</ele>
        <time>2026-06-27T06:57:05Z</time>
      </trkpt>
      <trkpt lat="46.12422" lon="6.71438">
        <ele>1736.5</ele>
        <time>2026-06-27T06:57:06Z</time>
      </trkpt>
      <trkpt lat="46.12422" lon="6.71438">
        <ele>1736.7</ele>
        <time>2026-06-27T06:57:07Z</time>
      </trkpt>
      <trkpt lat="46.12421" lon="6.71439">
        <ele>1736.8</ele>
        <time>2026-06-27T06:57:08Z</time>
      </trkpt>
      <trkpt lat="46.1242" lon="6.7144">
        <ele>1737</ele>
        <time>2026-06-27T06:57:09Z</time>
      </trkpt>
      <trkpt lat="46.1242" lon="6.71441">
        <ele>1737.1</ele>
        <time>2026-06-27T06:57:10Z</time>
      </trkpt>
      <trkpt lat="46.12419" lon="6.71442">
        <ele>1737.3</ele>
        <time>2026-06-27T06:57:11Z</time>
      </trkpt>
      <trkpt lat="46.12419" lon="6.71442">
        <ele>1737.4</ele>
        <time>2026-06-27T06:57:12Z</time>
      </trkpt>
      <trkpt lat="46.12418" lon="6.71443">
        <ele>1737.6</ele>
        <time>2026-06-27T06:57:13Z</time>
      </trkpt>
      <trkpt lat="46.12417" lon="6.71443">
        <ele>1737.8</ele>
        <time>2026-06-27T06:57:14Z</time>
      </trkpt>
      <trkpt lat="46.12417" lon="6.71443">
        <ele>1737.9</ele>
        <time>2026-06-27T06:57:15Z</time>
      </trkpt>
      <trkpt lat="46.12416" lon="6.71444">
        <ele>1738</ele>
        <time>2026-06-27T06:57:16Z</time>
      </trkpt>
      <trkpt lat="46.12415" lon="6.71444">
        <ele>1738.1</ele>
        <time>2026-06-27T06:57:17Z</time>
      </trkpt>
      <trkpt lat="46.12414" lon="6.71445">
        <ele>1738.2</ele>
        <time>2026-06-27T06:57:18Z</time>
      </trkpt>
      <trkpt lat="46.12413" lon="6.71445">
        <ele>1738.3</ele>
        <time>2026-06-27T06:57:19Z</time>
      </trkpt>
      <trkpt lat="46.12412" lon="6.71446">
        <ele>1738.3</ele>
        <time>2026-06-27T06:57:20Z</time>
      </trkpt>
      <trkpt lat="46.12411" lon="6.71447">
        <ele>1738.4</ele>
        <time>2026-06-27T06:57:21Z</time>
      </trkpt>
      <trkpt lat="46.1241" lon="6.71448">
        <ele>1738.6</ele>
        <time>2026-06-27T06:57:22Z</time>
      </trkpt>
      <trkpt lat="46.12409" lon="6.71448">
        <ele>1738.7</ele>
        <time>2026-06-27T06:57:23Z</time>
      </trkpt>
      <trkpt lat="46.12408" lon="6.71449">
        <ele>1738.7</ele>
        <time>2026-06-27T06:57:24Z</time>
      </trkpt>
      <trkpt lat="46.12407" lon="6.71449">
        <ele>1738.7</ele>
        <time>2026-06-27T06:57:25Z</time>
      </trkpt>
      <trkpt lat="46.12406" lon="6.71449">
        <ele>1738.8</ele>
        <time>2026-06-27T06:57:26Z</time>
      </trkpt>
      <trkpt lat="46.12405" lon="6.7145">
        <ele>1738.8</ele>
        <time>2026-06-27T06:57:27Z</time>
      </trkpt>
      <trkpt lat="46.12404" lon="6.7145">
        <ele>1738.8</ele>
        <time>2026-06-27T06:57:28Z</time>
      </trkpt>
      <trkpt lat="46.12403" lon="6.71451">
        <ele>1738.9</ele>
        <time>2026-06-27T06:57:29Z</time>
      </trkpt>
      <trkpt lat="46.12402" lon="6.71452">
        <ele>1739</ele>
        <time>2026-06-27T06:57:30Z</time>
      </trkpt>
      <trkpt lat="46.12402" lon="6.71453">
        <ele>1739.1</ele>
        <time>2026-06-27T06:57:31Z</time>
      </trkpt>
      <trkpt lat="46.12401" lon="6.71453">
        <ele>1739.2</ele>
        <time>2026-06-27T06:57:32Z</time>
      </trkpt>
      <trkpt lat="46.124" lon="6.71454">
        <ele>1739.2</ele>
        <time>2026-06-27T06:57:33Z</time>
      </trkpt>
      <trkpt lat="46.12399" lon="6.71455">
        <ele>1739.3</ele>
        <time>2026-06-27T06:57:34Z</time>
      </trkpt>
      <trkpt lat="46.12398" lon="6.71455">
        <ele>1739.3</ele>
        <time>2026-06-27T06:57:35Z</time>
      </trkpt>
      <trkpt lat="46.12397" lon="6.71456">
        <ele>1739.4</ele>
        <time>2026-06-27T06:57:36Z</time>
      </trkpt>
      <trkpt lat="46.12396" lon="6.71457">
        <ele>1739.4</ele>
        <time>2026-06-27T06:57:37Z</time>
      </trkpt>
      <trkpt lat="46.12396" lon="6.71458">
        <ele>1739.5</ele>
        <time>2026-06-27T06:57:38Z</time>
      </trkpt>
      <trkpt lat="46.12395" lon="6.71458">
        <ele>1739.5</ele>
        <time>2026-06-27T06:57:39Z</time>
      </trkpt>
      <trkpt lat="46.12394" lon="6.71459">
        <ele>1739.6</ele>
        <time>2026-06-27T06:57:40Z</time>
      </trkpt>
      <trkpt lat="46.12393" lon="6.71459">
        <ele>1739.6</ele>
        <time>2026-06-27T06:57:41Z</time>
      </trkpt>
      <trkpt lat="46.12392" lon="6.7146">
        <ele>1739.6</ele>
        <time>2026-06-27T06:57:42Z</time>
      </trkpt>
      <trkpt lat="46.12391" lon="6.7146">
        <ele>1739.6</ele>
        <time>2026-06-27T06:57:43Z</time>
      </trkpt>
      <trkpt lat="46.1239" lon="6.71461">
        <ele>1739.6</ele>
        <time>2026-06-27T06:57:44Z</time>
      </trkpt>
      <trkpt lat="46.12389" lon="6.71461">
        <ele>1739.7</ele>
        <time>2026-06-27T06:57:45Z</time>
      </trkpt>
      <trkpt lat="46.12388" lon="6.71462">
        <ele>1739.8</ele>
        <time>2026-06-27T06:57:46Z</time>
      </trkpt>
      <trkpt lat="46.12388" lon="6.71462">
        <ele>1740</ele>
        <time>2026-06-27T06:57:47Z</time>
      </trkpt>
      <trkpt lat="46.12387" lon="6.71463">
        <ele>1740.2</ele>
        <time>2026-06-27T06:57:48Z</time>
      </trkpt>
      <trkpt lat="46.12386" lon="6.71463">
        <ele>1740.3</ele>
        <time>2026-06-27T06:57:49Z</time>
      </trkpt>
      <trkpt lat="46.12385" lon="6.71464">
        <ele>1740.4</ele>
        <time>2026-06-27T06:57:50Z</time>
      </trkpt>
      <trkpt lat="46.12384" lon="6.71464">
        <ele>1740.5</ele>
        <time>2026-06-27T06:57:51Z</time>
      </trkpt>
      <trkpt lat="46.12383" lon="6.71465">
        <ele>1740.6</ele>
        <time>2026-06-27T06:57:52Z</time>
      </trkpt>
      <trkpt lat="46.12382" lon="6.71465">
        <ele>1740.7</ele>
        <time>2026-06-27T06:57:53Z</time>
      </trkpt>
      <trkpt lat="46.12381" lon="6.71466">
        <ele>1740.9</ele>
        <time>2026-06-27T06:57:54Z</time>
      </trkpt>
      <trkpt lat="46.1238" lon="6.71467">
        <ele>1741</ele>
        <time>2026-06-27T06:57:55Z</time>
      </trkpt>
      <trkpt lat="46.12379" lon="6.71468">
        <ele>1741.1</ele>
        <time>2026-06-27T06:57:56Z</time>
      </trkpt>
      <trkpt lat="46.12378" lon="6.71468">
        <ele>1741.2</ele>
        <time>2026-06-27T06:57:57Z</time>
      </trkpt>
      <trkpt lat="46.12378" lon="6.71469">
        <ele>1741.3</ele>
        <time>2026-06-27T06:57:58Z</time>
      </trkpt>
      <trkpt lat="46.12377" lon="6.71469">
        <ele>1741.5</ele>
        <time>2026-06-27T06:57:59Z</time>
      </trkpt>
      <trkpt lat="46.12376" lon="6.7147">
        <ele>1741.7</ele>
        <time>2026-06-27T06:58:00Z</time>
      </trkpt>
      <trkpt lat="46.12376" lon="6.7147">
        <ele>1742.1</ele>
        <time>2026-06-27T06:58:01Z</time>
      </trkpt>
      <trkpt lat="46.12375" lon="6.71471">
        <ele>1742.1</ele>
        <time>2026-06-27T06:58:02Z</time>
      </trkpt>
      <trkpt lat="46.12374" lon="6.71472">
        <ele>1742.3</ele>
        <time>2026-06-27T06:58:03Z</time>
      </trkpt>
      <trkpt lat="46.12374" lon="6.71472">
        <ele>1742.5</ele>
        <time>2026-06-27T06:58:04Z</time>
      </trkpt>
      <trkpt lat="46.12373" lon="6.71473">
        <ele>1742.7</ele>
        <time>2026-06-27T06:58:05Z</time>
      </trkpt>
      <trkpt lat="46.12372" lon="6.71474">
        <ele>1742.8</ele>
        <time>2026-06-27T06:58:06Z</time>
      </trkpt>
      <trkpt lat="46.12372" lon="6.71474">
        <ele>1742.9</ele>
        <time>2026-06-27T06:58:07Z</time>
      </trkpt>
      <trkpt lat="46.12371" lon="6.71475">
        <ele>1742.9</ele>
        <time>2026-06-27T06:58:08Z</time>
      </trkpt>
      <trkpt lat="46.12371" lon="6.71475">
        <ele>1742.9</ele>
        <time>2026-06-27T06:58:09Z</time>
      </trkpt>
      <trkpt lat="46.1237" lon="6.71476">
        <ele>1742.9</ele>
        <time>2026-06-27T06:58:10Z</time>
      </trkpt>
      <trkpt lat="46.1237" lon="6.71476">
        <ele>1743</ele>
        <time>2026-06-27T06:58:11Z</time>
      </trkpt>
      <trkpt lat="46.1237" lon="6.71476">
        <ele>1743.1</ele>
        <time>2026-06-27T06:58:12Z</time>
      </trkpt>
      <trkpt lat="46.1237" lon="6.71476">
        <ele>1743.2</ele>
        <time>2026-06-27T06:58:13Z</time>
      </trkpt>
      <trkpt lat="46.1237" lon="6.71476">
        <ele>1743.3</ele>
        <time>2026-06-27T06:58:14Z</time>
      </trkpt>
      <trkpt lat="46.1237" lon="6.71477">
        <ele>1743.4</ele>
        <time>2026-06-27T06:58:15Z</time>
      </trkpt>
      <trkpt lat="46.12369" lon="6.71477">
        <ele>1743.4</ele>
        <time>2026-06-27T06:58:16Z</time>
      </trkpt>
      <trkpt lat="46.12369" lon="6.71477">
        <ele>1743.5</ele>
        <time>2026-06-27T06:58:17Z</time>
      </trkpt>
      <trkpt lat="46.12368" lon="6.71477">
        <ele>1743.5</ele>
        <time>2026-06-27T06:58:18Z</time>
      </trkpt>
      <trkpt lat="46.12368" lon="6.71478">
        <ele>1743.5</ele>
        <time>2026-06-27T06:58:19Z</time>
      </trkpt>
      <trkpt lat="46.12368" lon="6.71478">
        <ele>1743.6</ele>
        <time>2026-06-27T06:58:20Z</time>
      </trkpt>
      <trkpt lat="46.12368" lon="6.71477">
        <ele>1743.6</ele>
        <time>2026-06-27T06:58:21Z</time>
      </trkpt>
      <trkpt lat="46.12367" lon="6.71478">
        <ele>1743.6</ele>
        <time>2026-06-27T06:58:22Z</time>
      </trkpt>
      <trkpt lat="46.12366" lon="6.71478">
        <ele>1743.6</ele>
        <time>2026-06-27T06:58:23Z</time>
      </trkpt>
      <trkpt lat="46.12365" lon="6.71479">
        <ele>1743.7</ele>
        <time>2026-06-27T06:58:24Z</time>
      </trkpt>
      <trkpt lat="46.12364" lon="6.7148">
        <ele>1743.8</ele>
        <time>2026-06-27T06:58:25Z</time>
      </trkpt>
      <trkpt lat="46.12363" lon="6.71481">
        <ele>1743.8</ele>
        <time>2026-06-27T06:58:26Z</time>
      </trkpt>
      <trkpt lat="46.12362" lon="6.71482">
        <ele>1743.8</ele>
        <time>2026-06-27T06:58:27Z</time>
      </trkpt>
      <trkpt lat="46.12362" lon="6.71482">
        <ele>1743.8</ele>
        <time>2026-06-27T06:58:28Z</time>
      </trkpt>
      <trkpt lat="46.12361" lon="6.71483">
        <ele>1743.7</ele>
        <time>2026-06-27T06:58:29Z</time>
      </trkpt>
      <trkpt lat="46.1236" lon="6.71483">
        <ele>1743.6</ele>
        <time>2026-06-27T06:58:30Z</time>
      </trkpt>
      <trkpt lat="46.12358" lon="6.71484">
        <ele>1743.5</ele>
        <time>2026-06-27T06:58:31Z</time>
      </trkpt>
      <trkpt lat="46.12357" lon="6.71485">
        <ele>1743.5</ele>
        <time>2026-06-27T06:58:32Z</time>
      </trkpt>
      <trkpt lat="46.12357" lon="6.71485">
        <ele>1743.4</ele>
        <time>2026-06-27T06:58:33Z</time>
      </trkpt>
      <trkpt lat="46.12356" lon="6.71486">
        <ele>1743.2</ele>
        <time>2026-06-27T06:58:34Z</time>
      </trkpt>
      <trkpt lat="46.12355" lon="6.71487">
        <ele>1743</ele>
        <time>2026-06-27T06:58:35Z</time>
      </trkpt>
      <trkpt lat="46.12354" lon="6.71488">
        <ele>1742.9</ele>
        <time>2026-06-27T06:58:36Z</time>
      </trkpt>
      <trkpt lat="46.12352" lon="6.71489">
        <ele>1742.8</ele>
        <time>2026-06-27T06:58:37Z</time>
      </trkpt>
      <trkpt lat="46.12352" lon="6.71489">
        <ele>1742.7</ele>
        <time>2026-06-27T06:58:38Z</time>
      </trkpt>
      <trkpt lat="46.12351" lon="6.7149">
        <ele>1742.5</ele>
        <time>2026-06-27T06:58:39Z</time>
      </trkpt>
      <trkpt lat="46.1235" lon="6.71491">
        <ele>1742.4</ele>
        <time>2026-06-27T06:58:40Z</time>
      </trkpt>
      <trkpt lat="46.12349" lon="6.71492">
        <ele>1742.4</ele>
        <time>2026-06-27T06:58:41Z</time>
      </trkpt>
      <trkpt lat="46.12348" lon="6.71493">
        <ele>1742.3</ele>
        <time>2026-06-27T06:58:42Z</time>
      </trkpt>
      <trkpt lat="46.12347" lon="6.71494">
        <ele>1742.2</ele>
        <time>2026-06-27T06:58:43Z</time>
      </trkpt>
      <trkpt lat="46.12346" lon="6.71495">
        <ele>1742</ele>
        <time>2026-06-27T06:58:44Z</time>
      </trkpt>
      <trkpt lat="46.12345" lon="6.71496">
        <ele>1741.8</ele>
        <time>2026-06-27T06:58:45Z</time>
      </trkpt>
      <trkpt lat="46.12345" lon="6.71497">
        <ele>1741.7</ele>
        <time>2026-06-27T06:58:46Z</time>
      </trkpt>
      <trkpt lat="46.12344" lon="6.71498">
        <ele>1741.6</ele>
        <time>2026-06-27T06:58:47Z</time>
      </trkpt>
      <trkpt lat="46.12343" lon="6.71499">
        <ele>1741.5</ele>
        <time>2026-06-27T06:58:48Z</time>
      </trkpt>
      <trkpt lat="46.12342" lon="6.71499">
        <ele>1741.4</ele>
        <time>2026-06-27T06:58:49Z</time>
      </trkpt>
      <trkpt lat="46.12341" lon="6.715">
        <ele>1741.4</ele>
        <time>2026-06-27T06:58:50Z</time>
      </trkpt>
      <trkpt lat="46.1234" lon="6.715">
        <ele>1741.3</ele>
        <time>2026-06-27T06:58:51Z</time>
      </trkpt>
      <trkpt lat="46.12339" lon="6.71501">
        <ele>1741.2</ele>
        <time>2026-06-27T06:58:52Z</time>
      </trkpt>
      <trkpt lat="46.12338" lon="6.71502">
        <ele>1741.1</ele>
        <time>2026-06-27T06:58:53Z</time>
      </trkpt>
      <trkpt lat="46.12337" lon="6.71503">
        <ele>1741</ele>
        <time>2026-06-27T06:58:54Z</time>
      </trkpt>
      <trkpt lat="46.12336" lon="6.71503">
        <ele>1740.8</ele>
        <time>2026-06-27T06:58:55Z</time>
      </trkpt>
      <trkpt lat="46.12335" lon="6.71504">
        <ele>1740.7</ele>
        <time>2026-06-27T06:58:56Z</time>
      </trkpt>
      <trkpt lat="46.12334" lon="6.71505">
        <ele>1740.6</ele>
        <time>2026-06-27T06:58:57Z</time>
      </trkpt>
      <trkpt lat="46.12333" lon="6.71506">
        <ele>1740.5</ele>
        <time>2026-06-27T06:58:58Z</time>
      </trkpt>
      <trkpt lat="46.12332" lon="6.71507">
        <ele>1740.4</ele>
        <time>2026-06-27T06:58:59Z</time>
      </trkpt>
      <trkpt lat="46.12331" lon="6.71507">
        <ele>1740.4</ele>
        <time>2026-06-27T06:59:00Z</time>
      </trkpt>
      <trkpt lat="46.1233" lon="6.71508">
        <ele>1740.4</ele>
        <time>2026-06-27T06:59:01Z</time>
      </trkpt>
      <trkpt lat="46.12329" lon="6.71509">
        <ele>1740.4</ele>
        <time>2026-06-27T06:59:02Z</time>
      </trkpt>
      <trkpt lat="46.12328" lon="6.7151">
        <ele>1740.3</ele>
        <time>2026-06-27T06:59:03Z</time>
      </trkpt>
      <trkpt lat="46.12327" lon="6.71511">
        <ele>1740.2</ele>
        <time>2026-06-27T06:59:04Z</time>
      </trkpt>
      <trkpt lat="46.12326" lon="6.71512">
        <ele>1740.1</ele>
        <time>2026-06-27T06:59:05Z</time>
      </trkpt>
      <trkpt lat="46.12325" lon="6.71513">
        <ele>1740.1</ele>
        <time>2026-06-27T06:59:06Z</time>
      </trkpt>
      <trkpt lat="46.12324" lon="6.71514">
        <ele>1740.1</ele>
        <time>2026-06-27T06:59:07Z</time>
      </trkpt>
      <trkpt lat="46.12323" lon="6.71515">
        <ele>1740</ele>
        <time>2026-06-27T06:59:08Z</time>
      </trkpt>
      <trkpt lat="46.12322" lon="6.71515">
        <ele>1739.9</ele>
        <time>2026-06-27T06:59:09Z</time>
      </trkpt>
      <trkpt lat="46.12321" lon="6.71516">
        <ele>1739.9</ele>
        <time>2026-06-27T06:59:10Z</time>
      </trkpt>
      <trkpt lat="46.1232" lon="6.71516">
        <ele>1739.9</ele>
        <time>2026-06-27T06:59:11Z</time>
      </trkpt>
      <trkpt lat="46.12319" lon="6.71517">
        <ele>1739.9</ele>
        <time>2026-06-27T06:59:12Z</time>
      </trkpt>
      <trkpt lat="46.12318" lon="6.71517">
        <ele>1739.9</ele>
        <time>2026-06-27T06:59:13Z</time>
      </trkpt>
      <trkpt lat="46.12317" lon="6.71518">
        <ele>1739.9</ele>
        <time>2026-06-27T06:59:14Z</time>
      </trkpt>
      <trkpt lat="46.12316" lon="6.71519">
        <ele>1739.9</ele>
        <time>2026-06-27T06:59:15Z</time>
      </trkpt>
      <trkpt lat="46.12315" lon="6.7152">
        <ele>1739.9</ele>
        <time>2026-06-27T06:59:16Z</time>
      </trkpt>
      <trkpt lat="46.12315" lon="6.7152">
        <ele>1739.8</ele>
        <time>2026-06-27T06:59:17Z</time>
      </trkpt>
      <trkpt lat="46.12313" lon="6.7152">
        <ele>1739.7</ele>
        <time>2026-06-27T06:59:18Z</time>
      </trkpt>
      <trkpt lat="46.12312" lon="6.71521">
        <ele>1739.7</ele>
        <time>2026-06-27T06:59:19Z</time>
      </trkpt>
      <trkpt lat="46.12311" lon="6.71522">
        <ele>1739.7</ele>
        <time>2026-06-27T06:59:20Z</time>
      </trkpt>
      <trkpt lat="46.1231" lon="6.71522">
        <ele>1739.7</ele>
        <time>2026-06-27T06:59:21Z</time>
      </trkpt>
      <trkpt lat="46.12309" lon="6.71523">
        <ele>1739.7</ele>
        <time>2026-06-27T06:59:22Z</time>
      </trkpt>
      <trkpt lat="46.12307" lon="6.71523">
        <ele>1739.6</ele>
        <time>2026-06-27T06:59:23Z</time>
      </trkpt>
      <trkpt lat="46.12306" lon="6.71523">
        <ele>1739.4</ele>
        <time>2026-06-27T06:59:24Z</time>
      </trkpt>
      <trkpt lat="46.12306" lon="6.71524">
        <ele>1739.2</ele>
        <time>2026-06-27T06:59:25Z</time>
      </trkpt>
      <trkpt lat="46.12304" lon="6.71524">
        <ele>1739.1</ele>
        <time>2026-06-27T06:59:26Z</time>
      </trkpt>
      <trkpt lat="46.12303" lon="6.71524">
        <ele>1739</ele>
        <time>2026-06-27T06:59:27Z</time>
      </trkpt>
      <trkpt lat="46.12302" lon="6.71524">
        <ele>1738.9</ele>
        <time>2026-06-27T06:59:28Z</time>
      </trkpt>
      <trkpt lat="46.12301" lon="6.71525">
        <ele>1738.9</ele>
        <time>2026-06-27T06:59:29Z</time>
      </trkpt>
      <trkpt lat="46.123" lon="6.71526">
        <ele>1738.9</ele>
        <time>2026-06-27T06:59:30Z</time>
      </trkpt>
      <trkpt lat="46.12299" lon="6.71526">
        <ele>1738.8</ele>
        <time>2026-06-27T06:59:31Z</time>
      </trkpt>
      <trkpt lat="46.12298" lon="6.71525">
        <ele>1738.9</ele>
        <time>2026-06-27T06:59:32Z</time>
      </trkpt>
      <trkpt lat="46.12297" lon="6.71525">
        <ele>1739</ele>
        <time>2026-06-27T06:59:33Z</time>
      </trkpt>
      <trkpt lat="46.12296" lon="6.71526">
        <ele>1739.1</ele>
        <time>2026-06-27T06:59:34Z</time>
      </trkpt>
      <trkpt lat="46.12295" lon="6.71527">
        <ele>1739.1</ele>
        <time>2026-06-27T06:59:35Z</time>
      </trkpt>
      <trkpt lat="46.12294" lon="6.71528">
        <ele>1739.1</ele>
        <time>2026-06-27T06:59:36Z</time>
      </trkpt>
      <trkpt lat="46.12293" lon="6.71528">
        <ele>1739.1</ele>
        <time>2026-06-27T06:59:37Z</time>
      </trkpt>
      <trkpt lat="46.12292" lon="6.71528">
        <ele>1739.1</ele>
        <time>2026-06-27T06:59:38Z</time>
      </trkpt>
      <trkpt lat="46.12291" lon="6.71528">
        <ele>1739.1</ele>
        <time>2026-06-27T06:59:39Z</time>
      </trkpt>
      <trkpt lat="46.12291" lon="6.71528">
        <ele>1739.3</ele>
        <time>2026-06-27T06:59:40Z</time>
      </trkpt>
      <trkpt lat="46.12289" lon="6.71529">
        <ele>1739.4</ele>
        <time>2026-06-27T06:59:41Z</time>
      </trkpt>
      <trkpt lat="46.12288" lon="6.71529">
        <ele>1739.4</ele>
        <time>2026-06-27T06:59:42Z</time>
      </trkpt>
      <trkpt lat="46.12288" lon="6.71529">
        <ele>1739.5</ele>
        <time>2026-06-27T06:59:43Z</time>
      </trkpt>
      <trkpt lat="46.12286" lon="6.71529">
        <ele>1739.6</ele>
        <time>2026-06-27T06:59:44Z</time>
      </trkpt>
      <trkpt lat="46.12286" lon="6.71529">
        <ele>1739.6</ele>
        <time>2026-06-27T06:59:45Z</time>
      </trkpt>
      <trkpt lat="46.12285" lon="6.7153">
        <ele>1739.7</ele>
        <time>2026-06-27T06:59:46Z</time>
      </trkpt>
      <trkpt lat="46.12284" lon="6.7153">
        <ele>1739.7</ele>
        <time>2026-06-27T06:59:47Z</time>
      </trkpt>
      <trkpt lat="46.12283" lon="6.71531">
        <ele>1739.8</ele>
        <time>2026-06-27T06:59:48Z</time>
      </trkpt>
      <trkpt lat="46.12282" lon="6.71531">
        <ele>1739.8</ele>
        <time>2026-06-27T06:59:49Z</time>
      </trkpt>
      <trkpt lat="46.12282" lon="6.71531">
        <ele>1739.8</ele>
        <time>2026-06-27T06:59:50Z</time>
      </trkpt>
      <trkpt lat="46.12281" lon="6.71532">
        <ele>1739.9</ele>
        <time>2026-06-27T06:59:51Z</time>
      </trkpt>
      <trkpt lat="46.12281" lon="6.71533">
        <ele>1739.9</ele>
        <time>2026-06-27T06:59:52Z</time>
      </trkpt>
      <trkpt lat="46.1228" lon="6.71534">
        <ele>1739.9</ele>
        <time>2026-06-27T06:59:53Z</time>
      </trkpt>
      <trkpt lat="46.1228" lon="6.71534">
        <ele>1739.9</ele>
        <time>2026-06-27T06:59:54Z</time>
      </trkpt>
      <trkpt lat="46.1228" lon="6.71534">
        <ele>1739.8</ele>
        <time>2026-06-27T06:59:55Z</time>
      </trkpt>
      <trkpt lat="46.1228" lon="6.71534">
        <ele>1739.9</ele>
        <time>2026-06-27T06:59:56Z</time>
      </trkpt>
      <trkpt lat="46.1228" lon="6.71534">
        <ele>1739.9</ele>
        <time>2026-06-27T06:59:57Z</time>
      </trkpt>
      <trkpt lat="46.1228" lon="6.71534">
        <ele>1739.9</ele>
        <time>2026-06-27T06:59:58Z</time>
      </trkpt>
      <trkpt lat="46.1228" lon="6.71535">
        <ele>1739.9</ele>
        <time>2026-06-27T06:59:59Z</time>
      </trkpt>
      <trkpt lat="46.12279" lon="6.71535">
        <ele>1739.8</ele>
        <time>2026-06-27T07:00:00Z</time>
      </trkpt>
      <trkpt lat="46.12278" lon="6.71535">
        <ele>1739.7</ele>
        <time>2026-06-27T07:00:01Z</time>
      </trkpt>
      <trkpt lat="46.12278" lon="6.71535">
        <ele>1739.7</ele>
        <time>2026-06-27T07:00:02Z</time>
      </trkpt>
      <trkpt lat="46.12277" lon="6.71536">
        <ele>1739.7</ele>
        <time>2026-06-27T07:00:03Z</time>
      </trkpt>
      <trkpt lat="46.12276" lon="6.71536">
        <ele>1739.7</ele>
        <time>2026-06-27T07:00:04Z</time>
      </trkpt>
      <trkpt lat="46.12276" lon="6.71537">
        <ele>1739.8</ele>
        <time>2026-06-27T07:00:05Z</time>
      </trkpt>
      <trkpt lat="46.12274" lon="6.71538">
        <ele>1739.9</ele>
        <time>2026-06-27T07:00:06Z</time>
      </trkpt>
      <trkpt lat="46.12273" lon="6.71538">
        <ele>1739.8</ele>
        <time>2026-06-27T07:00:07Z</time>
      </trkpt>
      <trkpt lat="46.12272" lon="6.71539">
        <ele>1739.7</ele>
        <time>2026-06-27T07:00:08Z</time>
      </trkpt>
      <trkpt lat="46.12271" lon="6.7154">
        <ele>1739.8</ele>
        <time>2026-06-27T07:00:09Z</time>
      </trkpt>
      <trkpt lat="46.1227" lon="6.71541">
        <ele>1739.8</ele>
        <time>2026-06-27T07:00:10Z</time>
      </trkpt>
      <trkpt lat="46.1227" lon="6.71541">
        <ele>1739.8</ele>
        <time>2026-06-27T07:00:11Z</time>
      </trkpt>
      <trkpt lat="46.1227" lon="6.71542">
        <ele>1739.8</ele>
        <time>2026-06-27T07:00:12Z</time>
      </trkpt>
      <trkpt lat="46.1227" lon="6.71542">
        <ele>1739.7</ele>
        <time>2026-06-27T07:00:13Z</time>
      </trkpt>
      <trkpt lat="46.12269" lon="6.71542">
        <ele>1739.6</ele>
        <time>2026-06-27T07:00:14Z</time>
      </trkpt>
      <trkpt lat="46.12268" lon="6.71543">
        <ele>1739.6</ele>
        <time>2026-06-27T07:00:15Z</time>
      </trkpt>
      <trkpt lat="46.12267" lon="6.71544">
        <ele>1739.5</ele>
        <time>2026-06-27T07:00:16Z</time>
      </trkpt>
      <trkpt lat="46.12267" lon="6.71545">
        <ele>1739.4</ele>
        <time>2026-06-27T07:00:17Z</time>
      </trkpt>
      <trkpt lat="46.12266" lon="6.71545">
        <ele>1739.3</ele>
        <time>2026-06-27T07:00:18Z</time>
      </trkpt>
      <trkpt lat="46.12265" lon="6.71546">
        <ele>1739.2</ele>
        <time>2026-06-27T07:00:19Z</time>
      </trkpt>
      <trkpt lat="46.12263" lon="6.71547">
        <ele>1739.2</ele>
        <time>2026-06-27T07:00:20Z</time>
      </trkpt>
      <trkpt lat="46.12263" lon="6.71548">
        <ele>1739.2</ele>
        <time>2026-06-27T07:00:21Z</time>
      </trkpt>
      <trkpt lat="46.12262" lon="6.71548">
        <ele>1739.1</ele>
        <time>2026-06-27T07:00:22Z</time>
      </trkpt>
      <trkpt lat="46.12261" lon="6.71549">
        <ele>1739.1</ele>
        <time>2026-06-27T07:00:23Z</time>
      </trkpt>
      <trkpt lat="46.1226" lon="6.7155">
        <ele>1738.9</ele>
        <time>2026-06-27T07:00:24Z</time>
      </trkpt>
      <trkpt lat="46.12259" lon="6.71551">
        <ele>1738.7</ele>
        <time>2026-06-27T07:00:25Z</time>
      </trkpt>
      <trkpt lat="46.12259" lon="6.71551">
        <ele>1738.7</ele>
        <time>2026-06-27T07:00:26Z</time>
      </trkpt>
      <trkpt lat="46.12258" lon="6.71552">
        <ele>1738.7</ele>
        <time>2026-06-27T07:00:27Z</time>
      </trkpt>
      <trkpt lat="46.12257" lon="6.71552">
        <ele>1738.6</ele>
        <time>2026-06-27T07:00:28Z</time>
      </trkpt>
      <trkpt lat="46.12256" lon="6.71553">
        <ele>1738.6</ele>
        <time>2026-06-27T07:00:29Z</time>
      </trkpt>
      <trkpt lat="46.12255" lon="6.71554">
        <ele>1738.6</ele>
        <time>2026-06-27T07:00:30Z</time>
      </trkpt>
      <trkpt lat="46.12254" lon="6.71555">
        <ele>1738.6</ele>
        <time>2026-06-27T07:00:31Z</time>
      </trkpt>
      <trkpt lat="46.12253" lon="6.71555">
        <ele>1738.5</ele>
        <time>2026-06-27T07:00:32Z</time>
      </trkpt>
      <trkpt lat="46.12252" lon="6.71556">
        <ele>1738.5</ele>
        <time>2026-06-27T07:00:33Z</time>
      </trkpt>
      <trkpt lat="46.12251" lon="6.71557">
        <ele>1738.4</ele>
        <time>2026-06-27T07:00:34Z</time>
      </trkpt>
      <trkpt lat="46.1225" lon="6.71558">
        <ele>1738.4</ele>
        <time>2026-06-27T07:00:35Z</time>
      </trkpt>
      <trkpt lat="46.12249" lon="6.71558">
        <ele>1738.4</ele>
        <time>2026-06-27T07:00:36Z</time>
      </trkpt>
      <trkpt lat="46.12248" lon="6.71559">
        <ele>1738.4</ele>
        <time>2026-06-27T07:00:37Z</time>
      </trkpt>
      <trkpt lat="46.12247" lon="6.7156">
        <ele>1738.4</ele>
        <time>2026-06-27T07:00:38Z</time>
      </trkpt>
      <trkpt lat="46.12246" lon="6.71561">
        <ele>1738.3</ele>
        <time>2026-06-27T07:00:39Z</time>
      </trkpt>
      <trkpt lat="46.12245" lon="6.71562">
        <ele>1738.3</ele>
        <time>2026-06-27T07:00:40Z</time>
      </trkpt>
      <trkpt lat="46.12244" lon="6.71563">
        <ele>1738.2</ele>
        <time>2026-06-27T07:00:41Z</time>
      </trkpt>
      <trkpt lat="46.12243" lon="6.71564">
        <ele>1738.2</ele>
        <time>2026-06-27T07:00:42Z</time>
      </trkpt>
      <trkpt lat="46.12242" lon="6.71564">
        <ele>1738.2</ele>
        <time>2026-06-27T07:00:43Z</time>
      </trkpt>
      <trkpt lat="46.12242" lon="6.71565">
        <ele>1738.2</ele>
        <time>2026-06-27T07:00:44Z</time>
      </trkpt>
      <trkpt lat="46.12241" lon="6.71566">
        <ele>1738.2</ele>
        <time>2026-06-27T07:00:45Z</time>
      </trkpt>
      <trkpt lat="46.1224" lon="6.71567">
        <ele>1738.2</ele>
        <time>2026-06-27T07:00:46Z</time>
      </trkpt>
      <trkpt lat="46.1224" lon="6.71568">
        <ele>1738.2</ele>
        <time>2026-06-27T07:00:47Z</time>
      </trkpt>
      <trkpt lat="46.12239" lon="6.71569">
        <ele>1738.2</ele>
        <time>2026-06-27T07:00:48Z</time>
      </trkpt>
      <trkpt lat="46.12239" lon="6.7157">
        <ele>1738.1</ele>
        <time>2026-06-27T07:00:49Z</time>
      </trkpt>
      <trkpt lat="46.12238" lon="6.71571">
        <ele>1738.1</ele>
        <time>2026-06-27T07:00:50Z</time>
      </trkpt>
      <trkpt lat="46.12238" lon="6.71572">
        <ele>1738.1</ele>
        <time>2026-06-27T07:00:51Z</time>
      </trkpt>
      <trkpt lat="46.12237" lon="6.71573">
        <ele>1738</ele>
        <time>2026-06-27T07:00:52Z</time>
      </trkpt>
      <trkpt lat="46.12236" lon="6.71575">
        <ele>1738</ele>
        <time>2026-06-27T07:00:53Z</time>
      </trkpt>
      <trkpt lat="46.12236" lon="6.71575">
        <ele>1738</ele>
        <time>2026-06-27T07:00:54Z</time>
      </trkpt>
      <trkpt lat="46.12235" lon="6.71576">
        <ele>1738</ele>
        <time>2026-06-27T07:00:55Z</time>
      </trkpt>
      <trkpt lat="46.12235" lon="6.71578">
        <ele>1737.8</ele>
        <time>2026-06-27T07:00:56Z</time>
      </trkpt>
      <trkpt lat="46.12234" lon="6.71579">
        <ele>1737.7</ele>
        <time>2026-06-27T07:00:57Z</time>
      </trkpt>
      <trkpt lat="46.12233" lon="6.7158">
        <ele>1737.5</ele>
        <time>2026-06-27T07:00:58Z</time>
      </trkpt>
      <trkpt lat="46.12233" lon="6.71581">
        <ele>1737.4</ele>
        <time>2026-06-27T07:00:59Z</time>
      </trkpt>
      <trkpt lat="46.12232" lon="6.71582">
        <ele>1737.4</ele>
        <time>2026-06-27T07:01:00Z</time>
      </trkpt>
      <trkpt lat="46.12232" lon="6.71583">
        <ele>1737.4</ele>
        <time>2026-06-27T07:01:01Z</time>
      </trkpt>
      <trkpt lat="46.12231" lon="6.71584">
        <ele>1737.4</ele>
        <time>2026-06-27T07:01:02Z</time>
      </trkpt>
      <trkpt lat="46.1223" lon="6.71586">
        <ele>1737.3</ele>
        <time>2026-06-27T07:01:03Z</time>
      </trkpt>
      <trkpt lat="46.1223" lon="6.71587">
        <ele>1737.3</ele>
        <time>2026-06-27T07:01:04Z</time>
      </trkpt>
      <trkpt lat="46.12229" lon="6.71588">
        <ele>1737.2</ele>
        <time>2026-06-27T07:01:05Z</time>
      </trkpt>
      <trkpt lat="46.12228" lon="6.71589">
        <ele>1737</ele>
        <time>2026-06-27T07:01:06Z</time>
      </trkpt>
      <trkpt lat="46.12228" lon="6.7159">
        <ele>1736.9</ele>
        <time>2026-06-27T07:01:07Z</time>
      </trkpt>
      <trkpt lat="46.12227" lon="6.71591">
        <ele>1736.8</ele>
        <time>2026-06-27T07:01:08Z</time>
      </trkpt>
      <trkpt lat="46.12226" lon="6.71592">
        <ele>1736.7</ele>
        <time>2026-06-27T07:01:09Z</time>
      </trkpt>
      <trkpt lat="46.12225" lon="6.71593">
        <ele>1736.7</ele>
        <time>2026-06-27T07:01:10Z</time>
      </trkpt>
      <trkpt lat="46.12224" lon="6.71594">
        <ele>1736.6</ele>
        <time>2026-06-27T07:01:11Z</time>
      </trkpt>
      <trkpt lat="46.12223" lon="6.71595">
        <ele>1736.5</ele>
        <time>2026-06-27T07:01:12Z</time>
      </trkpt>
      <trkpt lat="46.12223" lon="6.71596">
        <ele>1736.4</ele>
        <time>2026-06-27T07:01:13Z</time>
      </trkpt>
      <trkpt lat="46.12222" lon="6.71597">
        <ele>1736.3</ele>
        <time>2026-06-27T07:01:14Z</time>
      </trkpt>
      <trkpt lat="46.12221" lon="6.71598">
        <ele>1736.3</ele>
        <time>2026-06-27T07:01:15Z</time>
      </trkpt>
      <trkpt lat="46.1222" lon="6.71599">
        <ele>1736.2</ele>
        <time>2026-06-27T07:01:16Z</time>
      </trkpt>
      <trkpt lat="46.12219" lon="6.716">
        <ele>1736.2</ele>
        <time>2026-06-27T07:01:17Z</time>
      </trkpt>
      <trkpt lat="46.12218" lon="6.71601">
        <ele>1736.1</ele>
        <time>2026-06-27T07:01:18Z</time>
      </trkpt>
      <trkpt lat="46.12217" lon="6.71602">
        <ele>1736</ele>
        <time>2026-06-27T07:01:19Z</time>
      </trkpt>
      <trkpt lat="46.12216" lon="6.71603">
        <ele>1735.9</ele>
        <time>2026-06-27T07:01:20Z</time>
      </trkpt>
      <trkpt lat="46.12215" lon="6.71604">
        <ele>1735.8</ele>
        <time>2026-06-27T07:01:21Z</time>
      </trkpt>
      <trkpt lat="46.12214" lon="6.71605">
        <ele>1735.8</ele>
        <time>2026-06-27T07:01:22Z</time>
      </trkpt>
      <trkpt lat="46.12213" lon="6.71605">
        <ele>1735.8</ele>
        <time>2026-06-27T07:01:23Z</time>
      </trkpt>
      <trkpt lat="46.12212" lon="6.71606">
        <ele>1735.8</ele>
        <time>2026-06-27T07:01:24Z</time>
      </trkpt>
      <trkpt lat="46.12211" lon="6.71607">
        <ele>1735.8</ele>
        <time>2026-06-27T07:01:25Z</time>
      </trkpt>
      <trkpt lat="46.1221" lon="6.71608">
        <ele>1735.7</ele>
        <time>2026-06-27T07:01:26Z</time>
      </trkpt>
      <trkpt lat="46.12209" lon="6.71609">
        <ele>1735.7</ele>
        <time>2026-06-27T07:01:27Z</time>
      </trkpt>
      <trkpt lat="46.12208" lon="6.71609">
        <ele>1735.8</ele>
        <time>2026-06-27T07:01:28Z</time>
      </trkpt>
      <trkpt lat="46.12207" lon="6.7161">
        <ele>1735.8</ele>
        <time>2026-06-27T07:01:29Z</time>
      </trkpt>
      <trkpt lat="46.12206" lon="6.71611">
        <ele>1735.8</ele>
        <time>2026-06-27T07:01:30Z</time>
      </trkpt>
      <trkpt lat="46.12206" lon="6.71612">
        <ele>1735.8</ele>
        <time>2026-06-27T07:01:31Z</time>
      </trkpt>
      <trkpt lat="46.12205" lon="6.71612">
        <ele>1735.7</ele>
        <time>2026-06-27T07:01:32Z</time>
      </trkpt>
      <trkpt lat="46.12204" lon="6.71612">
        <ele>1735.6</ele>
        <time>2026-06-27T07:01:33Z</time>
      </trkpt>
      <trkpt lat="46.12204" lon="6.71612">
        <ele>1735.6</ele>
        <time>2026-06-27T07:01:34Z</time>
      </trkpt>
      <trkpt lat="46.12203" lon="6.71613">
        <ele>1735.5</ele>
        <time>2026-06-27T07:01:35Z</time>
      </trkpt>
      <trkpt lat="46.12202" lon="6.71614">
        <ele>1735.5</ele>
        <time>2026-06-27T07:01:36Z</time>
      </trkpt>
      <trkpt lat="46.12201" lon="6.71615">
        <ele>1735.6</ele>
        <time>2026-06-27T07:01:37Z</time>
      </trkpt>
      <trkpt lat="46.122" lon="6.71615">
        <ele>1735.6</ele>
        <time>2026-06-27T07:01:38Z</time>
      </trkpt>
      <trkpt lat="46.122" lon="6.71616">
        <ele>1735.6</ele>
        <time>2026-06-27T07:01:39Z</time>
      </trkpt>
      <trkpt lat="46.12199" lon="6.71617">
        <ele>1735.6</ele>
        <time>2026-06-27T07:01:40Z</time>
      </trkpt>
      <trkpt lat="46.12198" lon="6.71618">
        <ele>1735.7</ele>
        <time>2026-06-27T07:01:41Z</time>
      </trkpt>
      <trkpt lat="46.12197" lon="6.71619">
        <ele>1735.8</ele>
        <time>2026-06-27T07:01:42Z</time>
      </trkpt>
      <trkpt lat="46.12197" lon="6.7162">
        <ele>1735.9</ele>
        <time>2026-06-27T07:01:43Z</time>
      </trkpt>
      <trkpt lat="46.12196" lon="6.71621">
        <ele>1735.9</ele>
        <time>2026-06-27T07:01:44Z</time>
      </trkpt>
      <trkpt lat="46.12195" lon="6.71622">
        <ele>1735.9</ele>
        <time>2026-06-27T07:01:45Z</time>
      </trkpt>
      <trkpt lat="46.12194" lon="6.71622">
        <ele>1736</ele>
        <time>2026-06-27T07:01:46Z</time>
      </trkpt>
      <trkpt lat="46.12193" lon="6.71624">
        <ele>1736</ele>
        <time>2026-06-27T07:01:47Z</time>
      </trkpt>
      <trkpt lat="46.12192" lon="6.71625">
        <ele>1736.1</ele>
        <time>2026-06-27T07:01:48Z</time>
      </trkpt>
      <trkpt lat="46.12192" lon="6.71626">
        <ele>1736.2</ele>
        <time>2026-06-27T07:01:49Z</time>
      </trkpt>
      <trkpt lat="46.12191" lon="6.71627">
        <ele>1736.1</ele>
        <time>2026-06-27T07:01:50Z</time>
      </trkpt>
      <trkpt lat="46.1219" lon="6.71628">
        <ele>1736.2</ele>
        <time>2026-06-27T07:01:51Z</time>
      </trkpt>
      <trkpt lat="46.12189" lon="6.71629">
        <ele>1736.2</ele>
        <time>2026-06-27T07:01:52Z</time>
      </trkpt>
      <trkpt lat="46.12188" lon="6.7163">
        <ele>1736.3</ele>
        <time>2026-06-27T07:01:53Z</time>
      </trkpt>
      <trkpt lat="46.12188" lon="6.71631">
        <ele>1736.3</ele>
        <time>2026-06-27T07:01:54Z</time>
      </trkpt>
      <trkpt lat="46.12187" lon="6.71632">
        <ele>1736.4</ele>
        <time>2026-06-27T07:01:55Z</time>
      </trkpt>
      <trkpt lat="46.12186" lon="6.71633">
        <ele>1736.4</ele>
        <time>2026-06-27T07:01:56Z</time>
      </trkpt>
      <trkpt lat="46.12185" lon="6.71634">
        <ele>1736.5</ele>
        <time>2026-06-27T07:01:57Z</time>
      </trkpt>
      <trkpt lat="46.12185" lon="6.71635">
        <ele>1736.5</ele>
        <time>2026-06-27T07:01:58Z</time>
      </trkpt>
      <trkpt lat="46.12184" lon="6.71637">
        <ele>1736.5</ele>
        <time>2026-06-27T07:01:59Z</time>
      </trkpt>
      <trkpt lat="46.12184" lon="6.71639">
        <ele>1736.6</ele>
        <time>2026-06-27T07:02:00Z</time>
      </trkpt>
      <trkpt lat="46.12183" lon="6.7164">
        <ele>1736.6</ele>
        <time>2026-06-27T07:02:01Z</time>
      </trkpt>
      <trkpt lat="46.12182" lon="6.71641">
        <ele>1736.7</ele>
        <time>2026-06-27T07:02:02Z</time>
      </trkpt>
      <trkpt lat="46.12182" lon="6.71643">
        <ele>1736.7</ele>
        <time>2026-06-27T07:02:03Z</time>
      </trkpt>
      <trkpt lat="46.12181" lon="6.71643">
        <ele>1736.8</ele>
        <time>2026-06-27T07:02:04Z</time>
      </trkpt>
      <trkpt lat="46.12181" lon="6.71645">
        <ele>1736.9</ele>
        <time>2026-06-27T07:02:05Z</time>
      </trkpt>
      <trkpt lat="46.1218" lon="6.71646">
        <ele>1737</ele>
        <time>2026-06-27T07:02:06Z</time>
      </trkpt>
      <trkpt lat="46.12179" lon="6.71647">
        <ele>1737.1</ele>
        <time>2026-06-27T07:02:07Z</time>
      </trkpt>
      <trkpt lat="46.12178" lon="6.71648">
        <ele>1737.3</ele>
        <time>2026-06-27T07:02:08Z</time>
      </trkpt>
      <trkpt lat="46.12178" lon="6.7165">
        <ele>1737.4</ele>
        <time>2026-06-27T07:02:09Z</time>
      </trkpt>
      <trkpt lat="46.12177" lon="6.71651">
        <ele>1737.5</ele>
        <time>2026-06-27T07:02:10Z</time>
      </trkpt>
      <trkpt lat="46.12176" lon="6.71652">
        <ele>1737.5</ele>
        <time>2026-06-27T07:02:11Z</time>
      </trkpt>
      <trkpt lat="46.12176" lon="6.71653">
        <ele>1737.5</ele>
        <time>2026-06-27T07:02:12Z</time>
      </trkpt>
      <trkpt lat="46.12176" lon="6.71655">
        <ele>1737.5</ele>
        <time>2026-06-27T07:02:13Z</time>
      </trkpt>
      <trkpt lat="46.12175" lon="6.71656">
        <ele>1737.5</ele>
        <time>2026-06-27T07:02:14Z</time>
      </trkpt>
      <trkpt lat="46.12174" lon="6.71657">
        <ele>1737.6</ele>
        <time>2026-06-27T07:02:15Z</time>
      </trkpt>
      <trkpt lat="46.12174" lon="6.71658">
        <ele>1737.7</ele>
        <time>2026-06-27T07:02:16Z</time>
      </trkpt>
      <trkpt lat="46.12173" lon="6.7166">
        <ele>1737.8</ele>
        <time>2026-06-27T07:02:17Z</time>
      </trkpt>
      <trkpt lat="46.12173" lon="6.71661">
        <ele>1737.8</ele>
        <time>2026-06-27T07:02:18Z</time>
      </trkpt>
      <trkpt lat="46.12172" lon="6.71662">
        <ele>1737.9</ele>
        <time>2026-06-27T07:02:19Z</time>
      </trkpt>
      <trkpt lat="46.12172" lon="6.71663">
        <ele>1737.9</ele>
        <time>2026-06-27T07:02:20Z</time>
      </trkpt>
      <trkpt lat="46.12171" lon="6.71664">
        <ele>1738</ele>
        <time>2026-06-27T07:02:21Z</time>
      </trkpt>
      <trkpt lat="46.1217" lon="6.71666">
        <ele>1738</ele>
        <time>2026-06-27T07:02:22Z</time>
      </trkpt>
      <trkpt lat="46.12169" lon="6.71667">
        <ele>1738.1</ele>
        <time>2026-06-27T07:02:23Z</time>
      </trkpt>
      <trkpt lat="46.12169" lon="6.71668">
        <ele>1738.2</ele>
        <time>2026-06-27T07:02:24Z</time>
      </trkpt>
      <trkpt lat="46.12168" lon="6.71669">
        <ele>1738.2</ele>
        <time>2026-06-27T07:02:25Z</time>
      </trkpt>
      <trkpt lat="46.12168" lon="6.7167">
        <ele>1738.3</ele>
        <time>2026-06-27T07:02:26Z</time>
      </trkpt>
      <trkpt lat="46.12167" lon="6.71671">
        <ele>1738.3</ele>
        <time>2026-06-27T07:02:27Z</time>
      </trkpt>
      <trkpt lat="46.12166" lon="6.71672">
        <ele>1738.3</ele>
        <time>2026-06-27T07:02:28Z</time>
      </trkpt>
      <trkpt lat="46.12165" lon="6.71673">
        <ele>1738.4</ele>
        <time>2026-06-27T07:02:29Z</time>
      </trkpt>
      <trkpt lat="46.12165" lon="6.71674">
        <ele>1738.4</ele>
        <time>2026-06-27T07:02:30Z</time>
      </trkpt>
      <trkpt lat="46.12164" lon="6.71675">
        <ele>1738.5</ele>
        <time>2026-06-27T07:02:31Z</time>
      </trkpt>
      <trkpt lat="46.12163" lon="6.71676">
        <ele>1738.5</ele>
        <time>2026-06-27T07:02:32Z</time>
      </trkpt>
      <trkpt lat="46.12162" lon="6.71677">
        <ele>1738.6</ele>
        <time>2026-06-27T07:02:33Z</time>
      </trkpt>
      <trkpt lat="46.12162" lon="6.71678">
        <ele>1738.6</ele>
        <time>2026-06-27T07:02:34Z</time>
      </trkpt>
      <trkpt lat="46.12161" lon="6.71679">
        <ele>1738.8</ele>
        <time>2026-06-27T07:02:35Z</time>
      </trkpt>
      <trkpt lat="46.12161" lon="6.7168">
        <ele>1738.9</ele>
        <time>2026-06-27T07:02:36Z</time>
      </trkpt>
      <trkpt lat="46.1216" lon="6.71681">
        <ele>1738.9</ele>
        <time>2026-06-27T07:02:37Z</time>
      </trkpt>
      <trkpt lat="46.12159" lon="6.71682">
        <ele>1738.9</ele>
        <time>2026-06-27T07:02:38Z</time>
      </trkpt>
      <trkpt lat="46.12159" lon="6.71683">
        <ele>1738.9</ele>
        <time>2026-06-27T07:02:39Z</time>
      </trkpt>
      <trkpt lat="46.12158" lon="6.71684">
        <ele>1738.9</ele>
        <time>2026-06-27T07:02:40Z</time>
      </trkpt>
      <trkpt lat="46.12157" lon="6.71685">
        <ele>1738.8</ele>
        <time>2026-06-27T07:02:41Z</time>
      </trkpt>
      <trkpt lat="46.12157" lon="6.71686">
        <ele>1739</ele>
        <time>2026-06-27T07:02:42Z</time>
      </trkpt>
      <trkpt lat="46.12156" lon="6.71687">
        <ele>1739.1</ele>
        <time>2026-06-27T07:02:43Z</time>
      </trkpt>
      <trkpt lat="46.12156" lon="6.71689">
        <ele>1739.2</ele>
        <time>2026-06-27T07:02:44Z</time>
      </trkpt>
      <trkpt lat="46.12155" lon="6.7169">
        <ele>1739.4</ele>
        <time>2026-06-27T07:02:45Z</time>
      </trkpt>
      <trkpt lat="46.12155" lon="6.71692">
        <ele>1739.4</ele>
        <time>2026-06-27T07:02:46Z</time>
      </trkpt>
      <trkpt lat="46.12154" lon="6.71693">
        <ele>1739.5</ele>
        <time>2026-06-27T07:02:47Z</time>
      </trkpt>
      <trkpt lat="46.12154" lon="6.71694">
        <ele>1739.5</ele>
        <time>2026-06-27T07:02:48Z</time>
      </trkpt>
      <trkpt lat="46.12154" lon="6.71696">
        <ele>1739.5</ele>
        <time>2026-06-27T07:02:49Z</time>
      </trkpt>
      <trkpt lat="46.12153" lon="6.71698">
        <ele>1739.5</ele>
        <time>2026-06-27T07:02:50Z</time>
      </trkpt>
      <trkpt lat="46.12153" lon="6.71699">
        <ele>1739.5</ele>
        <time>2026-06-27T07:02:51Z</time>
      </trkpt>
      <trkpt lat="46.12152" lon="6.717">
        <ele>1739.5</ele>
        <time>2026-06-27T07:02:52Z</time>
      </trkpt>
      <trkpt lat="46.12151" lon="6.71702">
        <ele>1739.5</ele>
        <time>2026-06-27T07:02:53Z</time>
      </trkpt>
      <trkpt lat="46.12151" lon="6.71703">
        <ele>1739.4</ele>
        <time>2026-06-27T07:02:54Z</time>
      </trkpt>
      <trkpt lat="46.1215" lon="6.71704">
        <ele>1739.4</ele>
        <time>2026-06-27T07:02:55Z</time>
      </trkpt>
      <trkpt lat="46.1215" lon="6.71705">
        <ele>1739.4</ele>
        <time>2026-06-27T07:02:56Z</time>
      </trkpt>
      <trkpt lat="46.12149" lon="6.71706">
        <ele>1739.4</ele>
        <time>2026-06-27T07:02:57Z</time>
      </trkpt>
      <trkpt lat="46.12149" lon="6.71707">
        <ele>1739.4</ele>
        <time>2026-06-27T07:02:58Z</time>
      </trkpt>
      <trkpt lat="46.12148" lon="6.71708">
        <ele>1739.5</ele>
        <time>2026-06-27T07:02:59Z</time>
      </trkpt>
      <trkpt lat="46.12147" lon="6.71709">
        <ele>1739.7</ele>
        <time>2026-06-27T07:03:00Z</time>
      </trkpt>
      <trkpt lat="46.12146" lon="6.7171">
        <ele>1739.9</ele>
        <time>2026-06-27T07:03:01Z</time>
      </trkpt>
      <trkpt lat="46.12146" lon="6.71711">
        <ele>1739.9</ele>
        <time>2026-06-27T07:03:02Z</time>
      </trkpt>
      <trkpt lat="46.12145" lon="6.71712">
        <ele>1739.8</ele>
        <time>2026-06-27T07:03:03Z</time>
      </trkpt>
      <trkpt lat="46.12144" lon="6.71713">
        <ele>1739.8</ele>
        <time>2026-06-27T07:03:04Z</time>
      </trkpt>
      <trkpt lat="46.12144" lon="6.71714">
        <ele>1739.8</ele>
        <time>2026-06-27T07:03:05Z</time>
      </trkpt>
      <trkpt lat="46.12143" lon="6.71715">
        <ele>1739.8</ele>
        <time>2026-06-27T07:03:06Z</time>
      </trkpt>
      <trkpt lat="46.12141" lon="6.71715">
        <ele>1739.8</ele>
        <time>2026-06-27T07:03:07Z</time>
      </trkpt>
      <trkpt lat="46.12141" lon="6.71716">
        <ele>1739.7</ele>
        <time>2026-06-27T07:03:08Z</time>
      </trkpt>
      <trkpt lat="46.1214" lon="6.71717">
        <ele>1739.7</ele>
        <time>2026-06-27T07:03:09Z</time>
      </trkpt>
      <trkpt lat="46.1214" lon="6.71718">
        <ele>1739.7</ele>
        <time>2026-06-27T07:03:10Z</time>
      </trkpt>
      <trkpt lat="46.12139" lon="6.71719">
        <ele>1739.7</ele>
        <time>2026-06-27T07:03:11Z</time>
      </trkpt>
      <trkpt lat="46.12138" lon="6.7172">
        <ele>1739.6</ele>
        <time>2026-06-27T07:03:12Z</time>
      </trkpt>
      <trkpt lat="46.12138" lon="6.7172">
        <ele>1739.6</ele>
        <time>2026-06-27T07:03:13Z</time>
      </trkpt>
      <trkpt lat="46.12137" lon="6.71721">
        <ele>1739.6</ele>
        <time>2026-06-27T07:03:14Z</time>
      </trkpt>
      <trkpt lat="46.12136" lon="6.71722">
        <ele>1739.6</ele>
        <time>2026-06-27T07:03:15Z</time>
      </trkpt>
      <trkpt lat="46.12136" lon="6.71723">
        <ele>1739.5</ele>
        <time>2026-06-27T07:03:16Z</time>
      </trkpt>
      <trkpt lat="46.12135" lon="6.71724">
        <ele>1739.5</ele>
        <time>2026-06-27T07:03:17Z</time>
      </trkpt>
      <trkpt lat="46.12135" lon="6.71725">
        <ele>1739.5</ele>
        <time>2026-06-27T07:03:18Z</time>
      </trkpt>
      <trkpt lat="46.12134" lon="6.71725">
        <ele>1739.5</ele>
        <time>2026-06-27T07:03:19Z</time>
      </trkpt>
      <trkpt lat="46.12134" lon="6.71727">
        <ele>1739.5</ele>
        <time>2026-06-27T07:03:20Z</time>
      </trkpt>
      <trkpt lat="46.12133" lon="6.71728">
        <ele>1739.5</ele>
        <time>2026-06-27T07:03:21Z</time>
      </trkpt>
      <trkpt lat="46.12132" lon="6.71728">
        <ele>1739.5</ele>
        <time>2026-06-27T07:03:22Z</time>
      </trkpt>
      <trkpt lat="46.12131" lon="6.71729">
        <ele>1739.5</ele>
        <time>2026-06-27T07:03:23Z</time>
      </trkpt>
      <trkpt lat="46.12131" lon="6.71729">
        <ele>1739.6</ele>
        <time>2026-06-27T07:03:24Z</time>
      </trkpt>
      <trkpt lat="46.1213" lon="6.7173">
        <ele>1739.7</ele>
        <time>2026-06-27T07:03:25Z</time>
      </trkpt>
      <trkpt lat="46.12129" lon="6.71731">
        <ele>1739.8</ele>
        <time>2026-06-27T07:03:26Z</time>
      </trkpt>
      <trkpt lat="46.12128" lon="6.71731">
        <ele>1739.9</ele>
        <time>2026-06-27T07:03:27Z</time>
      </trkpt>
      <trkpt lat="46.12128" lon="6.71732">
        <ele>1740</ele>
        <time>2026-06-27T07:03:28Z</time>
      </trkpt>
      <trkpt lat="46.12128" lon="6.71733">
        <ele>1740.1</ele>
        <time>2026-06-27T07:03:29Z</time>
      </trkpt>
      <trkpt lat="46.12127" lon="6.71734">
        <ele>1740.1</ele>
        <time>2026-06-27T07:03:30Z</time>
      </trkpt>
      <trkpt lat="46.12127" lon="6.71734">
        <ele>1740.1</ele>
        <time>2026-06-27T07:03:31Z</time>
      </trkpt>
      <trkpt lat="46.12126" lon="6.71734">
        <ele>1740.1</ele>
        <time>2026-06-27T07:03:32Z</time>
      </trkpt>
      <trkpt lat="46.12125" lon="6.71735">
        <ele>1740.3</ele>
        <time>2026-06-27T07:03:33Z</time>
      </trkpt>
      <trkpt lat="46.12124" lon="6.71736">
        <ele>1740.3</ele>
        <time>2026-06-27T07:03:34Z</time>
      </trkpt>
      <trkpt lat="46.12124" lon="6.71737">
        <ele>1740.4</ele>
        <time>2026-06-27T07:03:35Z</time>
      </trkpt>
      <trkpt lat="46.12123" lon="6.71738">
        <ele>1740.4</ele>
        <time>2026-06-27T07:03:36Z</time>
      </trkpt>
      <trkpt lat="46.12122" lon="6.71738">
        <ele>1740.4</ele>
        <time>2026-06-27T07:03:37Z</time>
      </trkpt>
      <trkpt lat="46.12122" lon="6.71739">
        <ele>1740.5</ele>
        <time>2026-06-27T07:03:38Z</time>
      </trkpt>
      <trkpt lat="46.12121" lon="6.71739">
        <ele>1740.4</ele>
        <time>2026-06-27T07:03:39Z</time>
      </trkpt>
      <trkpt lat="46.1212" lon="6.71741">
        <ele>1740.3</ele>
        <time>2026-06-27T07:03:40Z</time>
      </trkpt>
      <trkpt lat="46.1212" lon="6.71743">
        <ele>1740.3</ele>
        <time>2026-06-27T07:03:41Z</time>
      </trkpt>
      <trkpt lat="46.12119" lon="6.71744">
        <ele>1740.3</ele>
        <time>2026-06-27T07:03:42Z</time>
      </trkpt>
      <trkpt lat="46.12119" lon="6.71745">
        <ele>1740.3</ele>
        <time>2026-06-27T07:03:43Z</time>
      </trkpt>
      <trkpt lat="46.12118" lon="6.71746">
        <ele>1740.4</ele>
        <time>2026-06-27T07:03:44Z</time>
      </trkpt>
      <trkpt lat="46.12117" lon="6.71747">
        <ele>1740.5</ele>
        <time>2026-06-27T07:03:45Z</time>
      </trkpt>
      <trkpt lat="46.12117" lon="6.71749">
        <ele>1740.7</ele>
        <time>2026-06-27T07:03:46Z</time>
      </trkpt>
      <trkpt lat="46.12116" lon="6.7175">
        <ele>1740.7</ele>
        <time>2026-06-27T07:03:47Z</time>
      </trkpt>
      <trkpt lat="46.12116" lon="6.71751">
        <ele>1740.8</ele>
        <time>2026-06-27T07:03:48Z</time>
      </trkpt>
      <trkpt lat="46.12115" lon="6.71752">
        <ele>1741</ele>
        <time>2026-06-27T07:03:49Z</time>
      </trkpt>
      <trkpt lat="46.12114" lon="6.71753">
        <ele>1741.1</ele>
        <time>2026-06-27T07:03:50Z</time>
      </trkpt>
      <trkpt lat="46.12114" lon="6.71754">
        <ele>1741.1</ele>
        <time>2026-06-27T07:03:51Z</time>
      </trkpt>
      <trkpt lat="46.12113" lon="6.71755">
        <ele>1741.3</ele>
        <time>2026-06-27T07:03:52Z</time>
      </trkpt>
      <trkpt lat="46.12113" lon="6.71756">
        <ele>1741.2</ele>
        <time>2026-06-27T07:03:53Z</time>
      </trkpt>
      <trkpt lat="46.12112" lon="6.71757">
        <ele>1741.2</ele>
        <time>2026-06-27T07:03:54Z</time>
      </trkpt>
      <trkpt lat="46.12111" lon="6.71758">
        <ele>1741.2</ele>
        <time>2026-06-27T07:03:55Z</time>
      </trkpt>
      <trkpt lat="46.1211" lon="6.7176">
        <ele>1741.2</ele>
        <time>2026-06-27T07:03:56Z</time>
      </trkpt>
      <trkpt lat="46.1211" lon="6.71761">
        <ele>1741.1</ele>
        <time>2026-06-27T07:03:57Z</time>
      </trkpt>
      <trkpt lat="46.12109" lon="6.71762">
        <ele>1741.1</ele>
        <time>2026-06-27T07:03:58Z</time>
      </trkpt>
      <trkpt lat="46.12109" lon="6.71763">
        <ele>1741.1</ele>
        <time>2026-06-27T07:03:59Z</time>
      </trkpt>
      <trkpt lat="46.12108" lon="6.71764">
        <ele>1741</ele>
        <time>2026-06-27T07:04:00Z</time>
      </trkpt>
      <trkpt lat="46.12107" lon="6.71765">
        <ele>1740.9</ele>
        <time>2026-06-27T07:04:01Z</time>
      </trkpt>
      <trkpt lat="46.12107" lon="6.71767">
        <ele>1740.9</ele>
        <time>2026-06-27T07:04:02Z</time>
      </trkpt>
      <trkpt lat="46.12106" lon="6.71768">
        <ele>1740.9</ele>
        <time>2026-06-27T07:04:03Z</time>
      </trkpt>
      <trkpt lat="46.12105" lon="6.71769">
        <ele>1740.9</ele>
        <time>2026-06-27T07:04:04Z</time>
      </trkpt>
      <trkpt lat="46.12104" lon="6.7177">
        <ele>1740.8</ele>
        <time>2026-06-27T07:04:05Z</time>
      </trkpt>
      <trkpt lat="46.12104" lon="6.71771">
        <ele>1740.8</ele>
        <time>2026-06-27T07:04:06Z</time>
      </trkpt>
      <trkpt lat="46.12103" lon="6.71772">
        <ele>1740.8</ele>
        <time>2026-06-27T07:04:07Z</time>
      </trkpt>
      <trkpt lat="46.12102" lon="6.71773">
        <ele>1740.7</ele>
        <time>2026-06-27T07:04:08Z</time>
      </trkpt>
      <trkpt lat="46.12101" lon="6.71774">
        <ele>1740.7</ele>
        <time>2026-06-27T07:04:09Z</time>
      </trkpt>
      <trkpt lat="46.121" lon="6.71774">
        <ele>1740.7</ele>
        <time>2026-06-27T07:04:10Z</time>
      </trkpt>
      <trkpt lat="46.12099" lon="6.71775">
        <ele>1740.7</ele>
        <time>2026-06-27T07:04:11Z</time>
      </trkpt>
      <trkpt lat="46.12098" lon="6.71776">
        <ele>1740.6</ele>
        <time>2026-06-27T07:04:12Z</time>
      </trkpt>
      <trkpt lat="46.12098" lon="6.71777">
        <ele>1740.6</ele>
        <time>2026-06-27T07:04:13Z</time>
      </trkpt>
      <trkpt lat="46.12097" lon="6.71778">
        <ele>1740.8</ele>
        <time>2026-06-27T07:04:14Z</time>
      </trkpt>
      <trkpt lat="46.12096" lon="6.71778">
        <ele>1740.8</ele>
        <time>2026-06-27T07:04:15Z</time>
      </trkpt>
      <trkpt lat="46.12095" lon="6.71779">
        <ele>1740.8</ele>
        <time>2026-06-27T07:04:16Z</time>
      </trkpt>
      <trkpt lat="46.12094" lon="6.71781">
        <ele>1740.9</ele>
        <time>2026-06-27T07:04:17Z</time>
      </trkpt>
      <trkpt lat="46.12093" lon="6.71781">
        <ele>1740.9</ele>
        <time>2026-06-27T07:04:18Z</time>
      </trkpt>
      <trkpt lat="46.12092" lon="6.71782">
        <ele>1741</ele>
        <time>2026-06-27T07:04:19Z</time>
      </trkpt>
      <trkpt lat="46.12091" lon="6.71783">
        <ele>1741.1</ele>
        <time>2026-06-27T07:04:20Z</time>
      </trkpt>
      <trkpt lat="46.1209" lon="6.71784">
        <ele>1741.1</ele>
        <time>2026-06-27T07:04:21Z</time>
      </trkpt>
      <trkpt lat="46.1209" lon="6.71785">
        <ele>1741.1</ele>
        <time>2026-06-27T07:04:22Z</time>
      </trkpt>
      <trkpt lat="46.12089" lon="6.71786">
        <ele>1741.2</ele>
        <time>2026-06-27T07:04:23Z</time>
      </trkpt>
      <trkpt lat="46.12088" lon="6.71787">
        <ele>1741.2</ele>
        <time>2026-06-27T07:04:24Z</time>
      </trkpt>
      <trkpt lat="46.12087" lon="6.71788">
        <ele>1741.3</ele>
        <time>2026-06-27T07:04:25Z</time>
      </trkpt>
      <trkpt lat="46.12086" lon="6.71789">
        <ele>1741.3</ele>
        <time>2026-06-27T07:04:26Z</time>
      </trkpt>
      <trkpt lat="46.12085" lon="6.7179">
        <ele>1741.3</ele>
        <time>2026-06-27T07:04:27Z</time>
      </trkpt>
      <trkpt lat="46.12084" lon="6.7179">
        <ele>1741.4</ele>
        <time>2026-06-27T07:04:28Z</time>
      </trkpt>
      <trkpt lat="46.12083" lon="6.7179">
        <ele>1741.4</ele>
        <time>2026-06-27T07:04:29Z</time>
      </trkpt>
      <trkpt lat="46.12082" lon="6.71791">
        <ele>1741.4</ele>
        <time>2026-06-27T07:04:30Z</time>
      </trkpt>
      <trkpt lat="46.12082" lon="6.71791">
        <ele>1741.4</ele>
        <time>2026-06-27T07:04:31Z</time>
      </trkpt>
      <trkpt lat="46.12081" lon="6.71791">
        <ele>1741.5</ele>
        <time>2026-06-27T07:04:32Z</time>
      </trkpt>
      <trkpt lat="46.12081" lon="6.71791">
        <ele>1741.5</ele>
        <time>2026-06-27T07:04:33Z</time>
      </trkpt>
      <trkpt lat="46.12081" lon="6.71792">
        <ele>1741.6</ele>
        <time>2026-06-27T07:04:34Z</time>
      </trkpt>
      <trkpt lat="46.12081" lon="6.71791">
        <ele>1741.7</ele>
        <time>2026-06-27T07:04:35Z</time>
      </trkpt>
      <trkpt lat="46.12081" lon="6.71791">
        <ele>1741.7</ele>
        <time>2026-06-27T07:04:36Z</time>
      </trkpt>
      <trkpt lat="46.12081" lon="6.7179">
        <ele>1741.8</ele>
        <time>2026-06-27T07:04:37Z</time>
      </trkpt>
      <trkpt lat="46.12081" lon="6.7179">
        <ele>1741.8</ele>
        <time>2026-06-27T07:04:38Z</time>
      </trkpt>
      <trkpt lat="46.1208" lon="6.7179">
        <ele>1742</ele>
        <time>2026-06-27T07:04:39Z</time>
      </trkpt>
      <trkpt lat="46.1208" lon="6.7179">
        <ele>1742.1</ele>
        <time>2026-06-27T07:04:40Z</time>
      </trkpt>
      <trkpt lat="46.12079" lon="6.71791">
        <ele>1742.1</ele>
        <time>2026-06-27T07:04:41Z</time>
      </trkpt>
      <trkpt lat="46.12078" lon="6.71792">
        <ele>1742.1</ele>
        <time>2026-06-27T07:04:42Z</time>
      </trkpt>
      <trkpt lat="46.12078" lon="6.71793">
        <ele>1742.1</ele>
        <time>2026-06-27T07:04:43Z</time>
      </trkpt>
      <trkpt lat="46.12077" lon="6.71794">
        <ele>1742.2</ele>
        <time>2026-06-27T07:04:44Z</time>
      </trkpt>
      <trkpt lat="46.12076" lon="6.71795">
        <ele>1742.2</ele>
        <time>2026-06-27T07:04:45Z</time>
      </trkpt>
      <trkpt lat="46.12076" lon="6.71796">
        <ele>1742.3</ele>
        <time>2026-06-27T07:04:46Z</time>
      </trkpt>
      <trkpt lat="46.12075" lon="6.71797">
        <ele>1742.3</ele>
        <time>2026-06-27T07:04:47Z</time>
      </trkpt>
      <trkpt lat="46.12074" lon="6.71798">
        <ele>1742.4</ele>
        <time>2026-06-27T07:04:48Z</time>
      </trkpt>
      <trkpt lat="46.12073" lon="6.71799">
        <ele>1742.4</ele>
        <time>2026-06-27T07:04:49Z</time>
      </trkpt>
      <trkpt lat="46.12072" lon="6.71801">
        <ele>1742.3</ele>
        <time>2026-06-27T07:04:50Z</time>
      </trkpt>
      <trkpt lat="46.12071" lon="6.71802">
        <ele>1742.3</ele>
        <time>2026-06-27T07:04:51Z</time>
      </trkpt>
      <trkpt lat="46.1207" lon="6.71803">
        <ele>1742.3</ele>
        <time>2026-06-27T07:04:52Z</time>
      </trkpt>
      <trkpt lat="46.1207" lon="6.71804">
        <ele>1742.2</ele>
        <time>2026-06-27T07:04:53Z</time>
      </trkpt>
      <trkpt lat="46.12069" lon="6.71806">
        <ele>1742.2</ele>
        <time>2026-06-27T07:04:54Z</time>
      </trkpt>
      <trkpt lat="46.12069" lon="6.71807">
        <ele>1742.2</ele>
        <time>2026-06-27T07:04:55Z</time>
      </trkpt>
      <trkpt lat="46.12068" lon="6.71809">
        <ele>1742.1</ele>
        <time>2026-06-27T07:04:56Z</time>
      </trkpt>
      <trkpt lat="46.12067" lon="6.7181">
        <ele>1742.1</ele>
        <time>2026-06-27T07:04:57Z</time>
      </trkpt>
      <trkpt lat="46.12066" lon="6.71812">
        <ele>1742.1</ele>
        <time>2026-06-27T07:04:58Z</time>
      </trkpt>
      <trkpt lat="46.12065" lon="6.71813">
        <ele>1742</ele>
        <time>2026-06-27T07:04:59Z</time>
      </trkpt>
      <trkpt lat="46.12065" lon="6.71814">
        <ele>1741.9</ele>
        <time>2026-06-27T07:05:00Z</time>
      </trkpt>
      <trkpt lat="46.12064" lon="6.71815">
        <ele>1741.7</ele>
        <time>2026-06-27T07:05:01Z</time>
      </trkpt>
      <trkpt lat="46.12064" lon="6.71816">
        <ele>1741.6</ele>
        <time>2026-06-27T07:05:02Z</time>
      </trkpt>
      <trkpt lat="46.12063" lon="6.71817">
        <ele>1741.5</ele>
        <time>2026-06-27T07:05:03Z</time>
      </trkpt>
      <trkpt lat="46.12062" lon="6.71819">
        <ele>1741.4</ele>
        <time>2026-06-27T07:05:04Z</time>
      </trkpt>
      <trkpt lat="46.12061" lon="6.7182">
        <ele>1741.3</ele>
        <time>2026-06-27T07:05:05Z</time>
      </trkpt>
      <trkpt lat="46.1206" lon="6.71821">
        <ele>1741.2</ele>
        <time>2026-06-27T07:05:06Z</time>
      </trkpt>
      <trkpt lat="46.1206" lon="6.71822">
        <ele>1741.2</ele>
        <time>2026-06-27T07:05:07Z</time>
      </trkpt>
      <trkpt lat="46.12059" lon="6.71823">
        <ele>1741.1</ele>
        <time>2026-06-27T07:05:08Z</time>
      </trkpt>
      <trkpt lat="46.12058" lon="6.71824">
        <ele>1741.2</ele>
        <time>2026-06-27T07:05:09Z</time>
      </trkpt>
      <trkpt lat="46.12057" lon="6.71825">
        <ele>1741.3</ele>
        <time>2026-06-27T07:05:10Z</time>
      </trkpt>
      <trkpt lat="46.12057" lon="6.71826">
        <ele>1741.3</ele>
        <time>2026-06-27T07:05:11Z</time>
      </trkpt>
      <trkpt lat="46.12056" lon="6.71828">
        <ele>1741.3</ele>
        <time>2026-06-27T07:05:12Z</time>
      </trkpt>
      <trkpt lat="46.12055" lon="6.71829">
        <ele>1741.2</ele>
        <time>2026-06-27T07:05:13Z</time>
      </trkpt>
      <trkpt lat="46.12054" lon="6.7183">
        <ele>1741.1</ele>
        <time>2026-06-27T07:05:14Z</time>
      </trkpt>
      <trkpt lat="46.12053" lon="6.71831">
        <ele>1741.1</ele>
        <time>2026-06-27T07:05:15Z</time>
      </trkpt>
      <trkpt lat="46.12053" lon="6.71831">
        <ele>1741</ele>
        <time>2026-06-27T07:05:16Z</time>
      </trkpt>
      <trkpt lat="46.12052" lon="6.71833">
        <ele>1740.9</ele>
        <time>2026-06-27T07:05:17Z</time>
      </trkpt>
      <trkpt lat="46.12051" lon="6.71833">
        <ele>1741</ele>
        <time>2026-06-27T07:05:18Z</time>
      </trkpt>
      <trkpt lat="46.1205" lon="6.71834">
        <ele>1741</ele>
        <time>2026-06-27T07:05:19Z</time>
      </trkpt>
      <trkpt lat="46.12049" lon="6.71835">
        <ele>1740.9</ele>
        <time>2026-06-27T07:05:20Z</time>
      </trkpt>
      <trkpt lat="46.12049" lon="6.71837">
        <ele>1740.8</ele>
        <time>2026-06-27T07:05:21Z</time>
      </trkpt>
      <trkpt lat="46.12048" lon="6.71838">
        <ele>1740.6</ele>
        <time>2026-06-27T07:05:22Z</time>
      </trkpt>
      <trkpt lat="46.12048" lon="6.71839">
        <ele>1740.4</ele>
        <time>2026-06-27T07:05:23Z</time>
      </trkpt>
      <trkpt lat="46.12047" lon="6.7184">
        <ele>1740.3</ele>
        <time>2026-06-27T07:05:24Z</time>
      </trkpt>
      <trkpt lat="46.12046" lon="6.71842">
        <ele>1740.2</ele>
        <time>2026-06-27T07:05:25Z</time>
      </trkpt>
      <trkpt lat="46.12045" lon="6.71842">
        <ele>1740</ele>
        <time>2026-06-27T07:05:26Z</time>
      </trkpt>
      <trkpt lat="46.12044" lon="6.71844">
        <ele>1739.9</ele>
        <time>2026-06-27T07:05:27Z</time>
      </trkpt>
      <trkpt lat="46.12044" lon="6.71845">
        <ele>1739.9</ele>
        <time>2026-06-27T07:05:28Z</time>
      </trkpt>
      <trkpt lat="46.12043" lon="6.71846">
        <ele>1739.7</ele>
        <time>2026-06-27T07:05:29Z</time>
      </trkpt>
      <trkpt lat="46.12042" lon="6.71847">
        <ele>1739.6</ele>
        <time>2026-06-27T07:05:30Z</time>
      </trkpt>
      <trkpt lat="46.12041" lon="6.71848">
        <ele>1739.5</ele>
        <time>2026-06-27T07:05:31Z</time>
      </trkpt>
      <trkpt lat="46.12041" lon="6.71849">
        <ele>1739.5</ele>
        <time>2026-06-27T07:05:32Z</time>
      </trkpt>
      <trkpt lat="46.12039" lon="6.7185">
        <ele>1739.4</ele>
        <time>2026-06-27T07:05:33Z</time>
      </trkpt>
      <trkpt lat="46.12038" lon="6.71851">
        <ele>1739.3</ele>
        <time>2026-06-27T07:05:34Z</time>
      </trkpt>
      <trkpt lat="46.12038" lon="6.71853">
        <ele>1739.2</ele>
        <time>2026-06-27T07:05:35Z</time>
      </trkpt>
      <trkpt lat="46.12037" lon="6.71854">
        <ele>1739.2</ele>
        <time>2026-06-27T07:05:36Z</time>
      </trkpt>
      <trkpt lat="46.12037" lon="6.71855">
        <ele>1739.2</ele>
        <time>2026-06-27T07:05:37Z</time>
      </trkpt>
      <trkpt lat="46.12036" lon="6.71856">
        <ele>1739.2</ele>
        <time>2026-06-27T07:05:38Z</time>
      </trkpt>
      <trkpt lat="46.12035" lon="6.71856">
        <ele>1739.2</ele>
        <time>2026-06-27T07:05:39Z</time>
      </trkpt>
      <trkpt lat="46.12034" lon="6.71857">
        <ele>1739.2</ele>
        <time>2026-06-27T07:05:40Z</time>
      </trkpt>
      <trkpt lat="46.12033" lon="6.71858">
        <ele>1739.1</ele>
        <time>2026-06-27T07:05:41Z</time>
      </trkpt>
      <trkpt lat="46.12032" lon="6.71859">
        <ele>1739.1</ele>
        <time>2026-06-27T07:05:42Z</time>
      </trkpt>
      <trkpt lat="46.12031" lon="6.7186">
        <ele>1739</ele>
        <time>2026-06-27T07:05:43Z</time>
      </trkpt>
      <trkpt lat="46.1203" lon="6.71861">
        <ele>1739</ele>
        <time>2026-06-27T07:05:44Z</time>
      </trkpt>
      <trkpt lat="46.12029" lon="6.71862">
        <ele>1738.9</ele>
        <time>2026-06-27T07:05:45Z</time>
      </trkpt>
      <trkpt lat="46.12029" lon="6.71863">
        <ele>1738.9</ele>
        <time>2026-06-27T07:05:46Z</time>
      </trkpt>
      <trkpt lat="46.12028" lon="6.71864">
        <ele>1738.9</ele>
        <time>2026-06-27T07:05:47Z</time>
      </trkpt>
      <trkpt lat="46.12027" lon="6.71864">
        <ele>1738.8</ele>
        <time>2026-06-27T07:05:48Z</time>
      </trkpt>
      <trkpt lat="46.12027" lon="6.71864">
        <ele>1739</ele>
        <time>2026-06-27T07:05:49Z</time>
      </trkpt>
      <trkpt lat="46.12026" lon="6.71865">
        <ele>1739.1</ele>
        <time>2026-06-27T07:05:50Z</time>
      </trkpt>
      <trkpt lat="46.12025" lon="6.71866">
        <ele>1739.1</ele>
        <time>2026-06-27T07:05:51Z</time>
      </trkpt>
      <trkpt lat="46.12024" lon="6.71866">
        <ele>1739.2</ele>
        <time>2026-06-27T07:05:52Z</time>
      </trkpt>
      <trkpt lat="46.12024" lon="6.71868">
        <ele>1739.3</ele>
        <time>2026-06-27T07:05:53Z</time>
      </trkpt>
      <trkpt lat="46.12023" lon="6.71868">
        <ele>1739.4</ele>
        <time>2026-06-27T07:05:54Z</time>
      </trkpt>
      <trkpt lat="46.12022" lon="6.7187">
        <ele>1739.5</ele>
        <time>2026-06-27T07:05:55Z</time>
      </trkpt>
      <trkpt lat="46.12021" lon="6.71871">
        <ele>1739.5</ele>
        <time>2026-06-27T07:05:56Z</time>
      </trkpt>
      <trkpt lat="46.1202" lon="6.71872">
        <ele>1739.7</ele>
        <time>2026-06-27T07:05:57Z</time>
      </trkpt>
      <trkpt lat="46.12019" lon="6.71873">
        <ele>1739.7</ele>
        <time>2026-06-27T07:05:58Z</time>
      </trkpt>
      <trkpt lat="46.12019" lon="6.71875">
        <ele>1739.8</ele>
        <time>2026-06-27T07:05:59Z</time>
      </trkpt>
      <trkpt lat="46.12018" lon="6.71876">
        <ele>1739.9</ele>
        <time>2026-06-27T07:06:00Z</time>
      </trkpt>
      <trkpt lat="46.12017" lon="6.71877">
        <ele>1740</ele>
        <time>2026-06-27T07:06:01Z</time>
      </trkpt>
      <trkpt lat="46.12017" lon="6.71878">
        <ele>1740</ele>
        <time>2026-06-27T07:06:02Z</time>
      </trkpt>
      <trkpt lat="46.12016" lon="6.71879">
        <ele>1740.1</ele>
        <time>2026-06-27T07:06:03Z</time>
      </trkpt>
      <trkpt lat="46.12015" lon="6.7188">
        <ele>1740.1</ele>
        <time>2026-06-27T07:06:04Z</time>
      </trkpt>
      <trkpt lat="46.12013" lon="6.71881">
        <ele>1740.1</ele>
        <time>2026-06-27T07:06:05Z</time>
      </trkpt>
      <trkpt lat="46.12012" lon="6.71882">
        <ele>1740.1</ele>
        <time>2026-06-27T07:06:06Z</time>
      </trkpt>
      <trkpt lat="46.12012" lon="6.71883">
        <ele>1740.1</ele>
        <time>2026-06-27T07:06:07Z</time>
      </trkpt>
      <trkpt lat="46.12011" lon="6.71884">
        <ele>1740.2</ele>
        <time>2026-06-27T07:06:08Z</time>
      </trkpt>
      <trkpt lat="46.1201" lon="6.71885">
        <ele>1740.1</ele>
        <time>2026-06-27T07:06:09Z</time>
      </trkpt>
      <trkpt lat="46.12009" lon="6.71886">
        <ele>1740.1</ele>
        <time>2026-06-27T07:06:10Z</time>
      </trkpt>
      <trkpt lat="46.12008" lon="6.71887">
        <ele>1740.2</ele>
        <time>2026-06-27T07:06:11Z</time>
      </trkpt>
      <trkpt lat="46.12008" lon="6.71889">
        <ele>1740.2</ele>
        <time>2026-06-27T07:06:12Z</time>
      </trkpt>
      <trkpt lat="46.12007" lon="6.7189">
        <ele>1740.2</ele>
        <time>2026-06-27T07:06:13Z</time>
      </trkpt>
      <trkpt lat="46.12006" lon="6.71891">
        <ele>1740.2</ele>
        <time>2026-06-27T07:06:14Z</time>
      </trkpt>
      <trkpt lat="46.12006" lon="6.71892">
        <ele>1740.1</ele>
        <time>2026-06-27T07:06:15Z</time>
      </trkpt>
      <trkpt lat="46.12005" lon="6.71893">
        <ele>1740.1</ele>
        <time>2026-06-27T07:06:16Z</time>
      </trkpt>
      <trkpt lat="46.12004" lon="6.71894">
        <ele>1740.1</ele>
        <time>2026-06-27T07:06:17Z</time>
      </trkpt>
      <trkpt lat="46.12003" lon="6.71895">
        <ele>1740</ele>
        <time>2026-06-27T07:06:18Z</time>
      </trkpt>
      <trkpt lat="46.12002" lon="6.71896">
        <ele>1740</ele>
        <time>2026-06-27T07:06:19Z</time>
      </trkpt>
      <trkpt lat="46.12002" lon="6.71897">
        <ele>1740</ele>
        <time>2026-06-27T07:06:20Z</time>
      </trkpt>
      <trkpt lat="46.12001" lon="6.71897">
        <ele>1740.1</ele>
        <time>2026-06-27T07:06:21Z</time>
      </trkpt>
      <trkpt lat="46.12" lon="6.71898">
        <ele>1740.1</ele>
        <time>2026-06-27T07:06:22Z</time>
      </trkpt>
      <trkpt lat="46.11999" lon="6.71899">
        <ele>1740.1</ele>
        <time>2026-06-27T07:06:23Z</time>
      </trkpt>
      <trkpt lat="46.11998" lon="6.719">
        <ele>1740.1</ele>
        <time>2026-06-27T07:06:24Z</time>
      </trkpt>
      <trkpt lat="46.11997" lon="6.71901">
        <ele>1740.1</ele>
        <time>2026-06-27T07:06:25Z</time>
      </trkpt>
      <trkpt lat="46.11996" lon="6.71903">
        <ele>1740.1</ele>
        <time>2026-06-27T07:06:26Z</time>
      </trkpt>
      <trkpt lat="46.11996" lon="6.71904">
        <ele>1740.2</ele>
        <time>2026-06-27T07:06:27Z</time>
      </trkpt>
      <trkpt lat="46.11995" lon="6.71905">
        <ele>1740.2</ele>
        <time>2026-06-27T07:06:28Z</time>
      </trkpt>
      <trkpt lat="46.11994" lon="6.71906">
        <ele>1740.3</ele>
        <time>2026-06-27T07:06:29Z</time>
      </trkpt>
      <trkpt lat="46.11993" lon="6.71907">
        <ele>1740.3</ele>
        <time>2026-06-27T07:06:30Z</time>
      </trkpt>
      <trkpt lat="46.11993" lon="6.71908">
        <ele>1740.3</ele>
        <time>2026-06-27T07:06:31Z</time>
      </trkpt>
      <trkpt lat="46.11992" lon="6.71909">
        <ele>1740.3</ele>
        <time>2026-06-27T07:06:32Z</time>
      </trkpt>
      <trkpt lat="46.11991" lon="6.7191">
        <ele>1740.3</ele>
        <time>2026-06-27T07:06:33Z</time>
      </trkpt>
      <trkpt lat="46.1199" lon="6.71911">
        <ele>1740.4</ele>
        <time>2026-06-27T07:06:34Z</time>
      </trkpt>
      <trkpt lat="46.1199" lon="6.71912">
        <ele>1740.4</ele>
        <time>2026-06-27T07:06:35Z</time>
      </trkpt>
      <trkpt lat="46.11989" lon="6.71913">
        <ele>1740.4</ele>
        <time>2026-06-27T07:06:36Z</time>
      </trkpt>
      <trkpt lat="46.11988" lon="6.71914">
        <ele>1740.5</ele>
        <time>2026-06-27T07:06:37Z</time>
      </trkpt>
      <trkpt lat="46.11988" lon="6.71915">
        <ele>1740.6</ele>
        <time>2026-06-27T07:06:38Z</time>
      </trkpt>
      <trkpt lat="46.11987" lon="6.71916">
        <ele>1740.6</ele>
        <time>2026-06-27T07:06:39Z</time>
      </trkpt>
      <trkpt lat="46.11986" lon="6.71917">
        <ele>1740.5</ele>
        <time>2026-06-27T07:06:40Z</time>
      </trkpt>
      <trkpt lat="46.11985" lon="6.71919">
        <ele>1740.5</ele>
        <time>2026-06-27T07:06:41Z</time>
      </trkpt>
      <trkpt lat="46.11985" lon="6.7192">
        <ele>1740.5</ele>
        <time>2026-06-27T07:06:42Z</time>
      </trkpt>
      <trkpt lat="46.11984" lon="6.7192">
        <ele>1740.5</ele>
        <time>2026-06-27T07:06:43Z</time>
      </trkpt>
      <trkpt lat="46.11983" lon="6.71921">
        <ele>1740.5</ele>
        <time>2026-06-27T07:06:44Z</time>
      </trkpt>
      <trkpt lat="46.11982" lon="6.71922">
        <ele>1740.5</ele>
        <time>2026-06-27T07:06:45Z</time>
      </trkpt>
      <trkpt lat="46.11982" lon="6.71924">
        <ele>1740.6</ele>
        <time>2026-06-27T07:06:46Z</time>
      </trkpt>
      <trkpt lat="46.11981" lon="6.71924">
        <ele>1740.6</ele>
        <time>2026-06-27T07:06:47Z</time>
      </trkpt>
      <trkpt lat="46.1198" lon="6.71926">
        <ele>1740.6</ele>
        <time>2026-06-27T07:06:48Z</time>
      </trkpt>
      <trkpt lat="46.11979" lon="6.71927">
        <ele>1740.6</ele>
        <time>2026-06-27T07:06:49Z</time>
      </trkpt>
      <trkpt lat="46.11979" lon="6.71928">
        <ele>1740.6</ele>
        <time>2026-06-27T07:06:50Z</time>
      </trkpt>
      <trkpt lat="46.11978" lon="6.71929">
        <ele>1740.6</ele>
        <time>2026-06-27T07:06:51Z</time>
      </trkpt>
      <trkpt lat="46.11977" lon="6.71929">
        <ele>1740.7</ele>
        <time>2026-06-27T07:06:52Z</time>
      </trkpt>
      <trkpt lat="46.11976" lon="6.7193">
        <ele>1740.7</ele>
        <time>2026-06-27T07:06:53Z</time>
      </trkpt>
      <trkpt lat="46.11976" lon="6.71931">
        <ele>1740.7</ele>
        <time>2026-06-27T07:06:54Z</time>
      </trkpt>
      <trkpt lat="46.11975" lon="6.71932">
        <ele>1740.8</ele>
        <time>2026-06-27T07:06:55Z</time>
      </trkpt>
      <trkpt lat="46.11974" lon="6.71933">
        <ele>1740.8</ele>
        <time>2026-06-27T07:06:56Z</time>
      </trkpt>
      <trkpt lat="46.11973" lon="6.71934">
        <ele>1740.9</ele>
        <time>2026-06-27T07:06:57Z</time>
      </trkpt>
      <trkpt lat="46.11973" lon="6.71935">
        <ele>1740.9</ele>
        <time>2026-06-27T07:06:58Z</time>
      </trkpt>
      <trkpt lat="46.11972" lon="6.71935">
        <ele>1741</ele>
        <time>2026-06-27T07:06:59Z</time>
      </trkpt>
      <trkpt lat="46.11971" lon="6.71936">
        <ele>1741.1</ele>
        <time>2026-06-27T07:07:00Z</time>
      </trkpt>
      <trkpt lat="46.1197" lon="6.71937">
        <ele>1741.2</ele>
        <time>2026-06-27T07:07:01Z</time>
      </trkpt>
      <trkpt lat="46.11969" lon="6.71938">
        <ele>1741.3</ele>
        <time>2026-06-27T07:07:02Z</time>
      </trkpt>
      <trkpt lat="46.11968" lon="6.71939">
        <ele>1741.3</ele>
        <time>2026-06-27T07:07:03Z</time>
      </trkpt>
      <trkpt lat="46.11967" lon="6.7194">
        <ele>1741.4</ele>
        <time>2026-06-27T07:07:04Z</time>
      </trkpt>
      <trkpt lat="46.11967" lon="6.71941">
        <ele>1741.5</ele>
        <time>2026-06-27T07:07:05Z</time>
      </trkpt>
      <trkpt lat="46.11966" lon="6.71942">
        <ele>1741.5</ele>
        <time>2026-06-27T07:07:06Z</time>
      </trkpt>
      <trkpt lat="46.11965" lon="6.71943">
        <ele>1741.6</ele>
        <time>2026-06-27T07:07:07Z</time>
      </trkpt>
      <trkpt lat="46.11964" lon="6.71944">
        <ele>1741.7</ele>
        <time>2026-06-27T07:07:08Z</time>
      </trkpt>
      <trkpt lat="46.11964" lon="6.71944">
        <ele>1741.8</ele>
        <time>2026-06-27T07:07:09Z</time>
      </trkpt>
      <trkpt lat="46.11963" lon="6.71945">
        <ele>1741.9</ele>
        <time>2026-06-27T07:07:10Z</time>
      </trkpt>
      <trkpt lat="46.11962" lon="6.71946">
        <ele>1742</ele>
        <time>2026-06-27T07:07:11Z</time>
      </trkpt>
      <trkpt lat="46.11961" lon="6.71947">
        <ele>1742.1</ele>
        <time>2026-06-27T07:07:12Z</time>
      </trkpt>
      <trkpt lat="46.11961" lon="6.71947">
        <ele>1742.3</ele>
        <time>2026-06-27T07:07:13Z</time>
      </trkpt>
      <trkpt lat="46.1196" lon="6.71948">
        <ele>1742.4</ele>
        <time>2026-06-27T07:07:14Z</time>
      </trkpt>
      <trkpt lat="46.11959" lon="6.71948">
        <ele>1742.5</ele>
        <time>2026-06-27T07:07:15Z</time>
      </trkpt>
      <trkpt lat="46.11958" lon="6.71949">
        <ele>1742.5</ele>
        <time>2026-06-27T07:07:16Z</time>
      </trkpt>
      <trkpt lat="46.11958" lon="6.7195">
        <ele>1742.6</ele>
        <time>2026-06-27T07:07:17Z</time>
      </trkpt>
      <trkpt lat="46.11957" lon="6.71951">
        <ele>1742.6</ele>
        <time>2026-06-27T07:07:18Z</time>
      </trkpt>
      <trkpt lat="46.11957" lon="6.71952">
        <ele>1742.7</ele>
        <time>2026-06-27T07:07:19Z</time>
      </trkpt>
      <trkpt lat="46.11956" lon="6.71953">
        <ele>1742.8</ele>
        <time>2026-06-27T07:07:20Z</time>
      </trkpt>
      <trkpt lat="46.11955" lon="6.71954">
        <ele>1742.9</ele>
        <time>2026-06-27T07:07:21Z</time>
      </trkpt>
      <trkpt lat="46.11955" lon="6.71955">
        <ele>1742.9</ele>
        <time>2026-06-27T07:07:22Z</time>
      </trkpt>
      <trkpt lat="46.11954" lon="6.71955">
        <ele>1743</ele>
        <time>2026-06-27T07:07:23Z</time>
      </trkpt>
      <trkpt lat="46.11953" lon="6.71956">
        <ele>1743</ele>
        <time>2026-06-27T07:07:24Z</time>
      </trkpt>
      <trkpt lat="46.11952" lon="6.71956">
        <ele>1743.1</ele>
        <time>2026-06-27T07:07:25Z</time>
      </trkpt>
      <trkpt lat="46.11952" lon="6.71958">
        <ele>1743.1</ele>
        <time>2026-06-27T07:07:26Z</time>
      </trkpt>
      <trkpt lat="46.11952" lon="6.71959">
        <ele>1743.2</ele>
        <time>2026-06-27T07:07:27Z</time>
      </trkpt>
      <trkpt lat="46.11951" lon="6.7196">
        <ele>1743.3</ele>
        <time>2026-06-27T07:07:28Z</time>
      </trkpt>
      <trkpt lat="46.1195" lon="6.7196">
        <ele>1743.4</ele>
        <time>2026-06-27T07:07:29Z</time>
      </trkpt>
      <trkpt lat="46.11949" lon="6.71962">
        <ele>1743.5</ele>
        <time>2026-06-27T07:07:30Z</time>
      </trkpt>
      <trkpt lat="46.11949" lon="6.71963">
        <ele>1743.6</ele>
        <time>2026-06-27T07:07:31Z</time>
      </trkpt>
      <trkpt lat="46.11948" lon="6.71964">
        <ele>1743.6</ele>
        <time>2026-06-27T07:07:32Z</time>
      </trkpt>
      <trkpt lat="46.11947" lon="6.71965">
        <ele>1743.7</ele>
        <time>2026-06-27T07:07:33Z</time>
      </trkpt>
      <trkpt lat="46.11947" lon="6.71966">
        <ele>1743.7</ele>
        <time>2026-06-27T07:07:34Z</time>
      </trkpt>
      <trkpt lat="46.11946" lon="6.71967">
        <ele>1743.8</ele>
        <time>2026-06-27T07:07:35Z</time>
      </trkpt>
      <trkpt lat="46.11946" lon="6.71968">
        <ele>1744</ele>
        <time>2026-06-27T07:07:36Z</time>
      </trkpt>
      <trkpt lat="46.11945" lon="6.71969">
        <ele>1744.1</ele>
        <time>2026-06-27T07:07:37Z</time>
      </trkpt>
      <trkpt lat="46.11944" lon="6.7197">
        <ele>1744.1</ele>
        <time>2026-06-27T07:07:38Z</time>
      </trkpt>
      <trkpt lat="46.11943" lon="6.71971">
        <ele>1744.2</ele>
        <time>2026-06-27T07:07:39Z</time>
      </trkpt>
      <trkpt lat="46.11942" lon="6.71972">
        <ele>1744.2</ele>
        <time>2026-06-27T07:07:40Z</time>
      </trkpt>
      <trkpt lat="46.11942" lon="6.71973">
        <ele>1744.3</ele>
        <time>2026-06-27T07:07:41Z</time>
      </trkpt>
      <trkpt lat="46.11941" lon="6.71974">
        <ele>1744.3</ele>
        <time>2026-06-27T07:07:42Z</time>
      </trkpt>
      <trkpt lat="46.1194" lon="6.71975">
        <ele>1744.3</ele>
        <time>2026-06-27T07:07:43Z</time>
      </trkpt>
      <trkpt lat="46.1194" lon="6.71975">
        <ele>1744.4</ele>
        <time>2026-06-27T07:07:44Z</time>
      </trkpt>
      <trkpt lat="46.11939" lon="6.71976">
        <ele>1744.5</ele>
        <time>2026-06-27T07:07:45Z</time>
      </trkpt>
      <trkpt lat="46.11939" lon="6.71977">
        <ele>1744.6</ele>
        <time>2026-06-27T07:07:46Z</time>
      </trkpt>
      <trkpt lat="46.11938" lon="6.71979">
        <ele>1744.6</ele>
        <time>2026-06-27T07:07:47Z</time>
      </trkpt>
      <trkpt lat="46.11937" lon="6.7198">
        <ele>1744.7</ele>
        <time>2026-06-27T07:07:48Z</time>
      </trkpt>
      <trkpt lat="46.11937" lon="6.71981">
        <ele>1744.6</ele>
        <time>2026-06-27T07:07:49Z</time>
      </trkpt>
      <trkpt lat="46.11937" lon="6.71982">
        <ele>1744.6</ele>
        <time>2026-06-27T07:07:50Z</time>
      </trkpt>
      <trkpt lat="46.11936" lon="6.71983">
        <ele>1744.6</ele>
        <time>2026-06-27T07:07:51Z</time>
      </trkpt>
      <trkpt lat="46.11935" lon="6.71984">
        <ele>1744.6</ele>
        <time>2026-06-27T07:07:52Z</time>
      </trkpt>
      <trkpt lat="46.11934" lon="6.71985">
        <ele>1744.7</ele>
        <time>2026-06-27T07:07:53Z</time>
      </trkpt>
      <trkpt lat="46.11934" lon="6.71986">
        <ele>1744.7</ele>
        <time>2026-06-27T07:07:54Z</time>
      </trkpt>
      <trkpt lat="46.11933" lon="6.71987">
        <ele>1744.6</ele>
        <time>2026-06-27T07:07:55Z</time>
      </trkpt>
      <trkpt lat="46.11933" lon="6.71988">
        <ele>1744.5</ele>
        <time>2026-06-27T07:07:56Z</time>
      </trkpt>
      <trkpt lat="46.11932" lon="6.71989">
        <ele>1744.5</ele>
        <time>2026-06-27T07:07:57Z</time>
      </trkpt>
      <trkpt lat="46.11931" lon="6.7199">
        <ele>1744.6</ele>
        <time>2026-06-27T07:07:58Z</time>
      </trkpt>
      <trkpt lat="46.11931" lon="6.71991">
        <ele>1744.6</ele>
        <time>2026-06-27T07:07:59Z</time>
      </trkpt>
      <trkpt lat="46.1193" lon="6.71992">
        <ele>1744.5</ele>
        <time>2026-06-27T07:08:00Z</time>
      </trkpt>
      <trkpt lat="46.1193" lon="6.71993">
        <ele>1744.5</ele>
        <time>2026-06-27T07:08:01Z</time>
      </trkpt>
      <trkpt lat="46.11929" lon="6.71994">
        <ele>1744.5</ele>
        <time>2026-06-27T07:08:02Z</time>
      </trkpt>
      <trkpt lat="46.11928" lon="6.71995">
        <ele>1744.6</ele>
        <time>2026-06-27T07:08:03Z</time>
      </trkpt>
      <trkpt lat="46.11928" lon="6.71996">
        <ele>1744.7</ele>
        <time>2026-06-27T07:08:04Z</time>
      </trkpt>
      <trkpt lat="46.11927" lon="6.71997">
        <ele>1744.8</ele>
        <time>2026-06-27T07:08:05Z</time>
      </trkpt>
      <trkpt lat="46.11927" lon="6.71998">
        <ele>1744.9</ele>
        <time>2026-06-27T07:08:06Z</time>
      </trkpt>
      <trkpt lat="46.11926" lon="6.71998">
        <ele>1745</ele>
        <time>2026-06-27T07:08:07Z</time>
      </trkpt>
      <trkpt lat="46.11925" lon="6.71999">
        <ele>1745.2</ele>
        <time>2026-06-27T07:08:08Z</time>
      </trkpt>
      <trkpt lat="46.11925" lon="6.72001">
        <ele>1745.4</ele>
        <time>2026-06-27T07:08:09Z</time>
      </trkpt>
      <trkpt lat="46.11924" lon="6.72001">
        <ele>1745.5</ele>
        <time>2026-06-27T07:08:10Z</time>
      </trkpt>
      <trkpt lat="46.11923" lon="6.72002">
        <ele>1745.5</ele>
        <time>2026-06-27T07:08:11Z</time>
      </trkpt>
      <trkpt lat="46.11922" lon="6.72003">
        <ele>1745.5</ele>
        <time>2026-06-27T07:08:12Z</time>
      </trkpt>
      <trkpt lat="46.11922" lon="6.72004">
        <ele>1745.5</ele>
        <time>2026-06-27T07:08:13Z</time>
      </trkpt>
      <trkpt lat="46.11921" lon="6.72005">
        <ele>1745.5</ele>
        <time>2026-06-27T07:08:14Z</time>
      </trkpt>
      <trkpt lat="46.11921" lon="6.72006">
        <ele>1745.5</ele>
        <time>2026-06-27T07:08:15Z</time>
      </trkpt>
      <trkpt lat="46.1192" lon="6.72007">
        <ele>1745.6</ele>
        <time>2026-06-27T07:08:16Z</time>
      </trkpt>
      <trkpt lat="46.11919" lon="6.72008">
        <ele>1745.6</ele>
        <time>2026-06-27T07:08:17Z</time>
      </trkpt>
      <trkpt lat="46.11918" lon="6.72009">
        <ele>1745.6</ele>
        <time>2026-06-27T07:08:18Z</time>
      </trkpt>
      <trkpt lat="46.11918" lon="6.7201">
        <ele>1745.7</ele>
        <time>2026-06-27T07:08:19Z</time>
      </trkpt>
      <trkpt lat="46.11917" lon="6.72011">
        <ele>1745.8</ele>
        <time>2026-06-27T07:08:20Z</time>
      </trkpt>
      <trkpt lat="46.11916" lon="6.72012">
        <ele>1745.7</ele>
        <time>2026-06-27T07:08:21Z</time>
      </trkpt>
      <trkpt lat="46.11916" lon="6.72013">
        <ele>1745.7</ele>
        <time>2026-06-27T07:08:22Z</time>
      </trkpt>
      <trkpt lat="46.11915" lon="6.72014">
        <ele>1745.8</ele>
        <time>2026-06-27T07:08:23Z</time>
      </trkpt>
      <trkpt lat="46.11914" lon="6.72015">
        <ele>1745.8</ele>
        <time>2026-06-27T07:08:24Z</time>
      </trkpt>
      <trkpt lat="46.11913" lon="6.72016">
        <ele>1745.7</ele>
        <time>2026-06-27T07:08:25Z</time>
      </trkpt>
      <trkpt lat="46.11913" lon="6.72017">
        <ele>1745.8</ele>
        <time>2026-06-27T07:08:26Z</time>
      </trkpt>
      <trkpt lat="46.11912" lon="6.72017">
        <ele>1745.9</ele>
        <time>2026-06-27T07:08:27Z</time>
      </trkpt>
      <trkpt lat="46.11911" lon="6.72018">
        <ele>1746</ele>
        <time>2026-06-27T07:08:28Z</time>
      </trkpt>
      <trkpt lat="46.11911" lon="6.72019">
        <ele>1746.2</ele>
        <time>2026-06-27T07:08:29Z</time>
      </trkpt>
      <trkpt lat="46.1191" lon="6.7202">
        <ele>1746.2</ele>
        <time>2026-06-27T07:08:30Z</time>
      </trkpt>
      <trkpt lat="46.11909" lon="6.7202">
        <ele>1746.2</ele>
        <time>2026-06-27T07:08:31Z</time>
      </trkpt>
      <trkpt lat="46.11909" lon="6.72021">
        <ele>1746.2</ele>
        <time>2026-06-27T07:08:32Z</time>
      </trkpt>
      <trkpt lat="46.11908" lon="6.72022">
        <ele>1746.2</ele>
        <time>2026-06-27T07:08:33Z</time>
      </trkpt>
      <trkpt lat="46.11907" lon="6.72023">
        <ele>1746.2</ele>
        <time>2026-06-27T07:08:34Z</time>
      </trkpt>
      <trkpt lat="46.11906" lon="6.72024">
        <ele>1746.3</ele>
        <time>2026-06-27T07:08:35Z</time>
      </trkpt>
      <trkpt lat="46.11906" lon="6.72025">
        <ele>1746.3</ele>
        <time>2026-06-27T07:08:36Z</time>
      </trkpt>
      <trkpt lat="46.11905" lon="6.72025">
        <ele>1746.3</ele>
        <time>2026-06-27T07:08:37Z</time>
      </trkpt>
      <trkpt lat="46.11904" lon="6.72026">
        <ele>1746.2</ele>
        <time>2026-06-27T07:08:38Z</time>
      </trkpt>
      <trkpt lat="46.11904" lon="6.72027">
        <ele>1746.2</ele>
        <time>2026-06-27T07:08:39Z</time>
      </trkpt>
      <trkpt lat="46.11903" lon="6.72028">
        <ele>1746.3</ele>
        <time>2026-06-27T07:08:40Z</time>
      </trkpt>
      <trkpt lat="46.11902" lon="6.72028">
        <ele>1746.3</ele>
        <time>2026-06-27T07:08:41Z</time>
      </trkpt>
      <trkpt lat="46.11901" lon="6.72029">
        <ele>1746.3</ele>
        <time>2026-06-27T07:08:42Z</time>
      </trkpt>
      <trkpt lat="46.119" lon="6.7203">
        <ele>1746.3</ele>
        <time>2026-06-27T07:08:43Z</time>
      </trkpt>
      <trkpt lat="46.119" lon="6.72031">
        <ele>1746.4</ele>
        <time>2026-06-27T07:08:44Z</time>
      </trkpt>
      <trkpt lat="46.11899" lon="6.72031">
        <ele>1746.5</ele>
        <time>2026-06-27T07:08:45Z</time>
      </trkpt>
      <trkpt lat="46.11899" lon="6.72032">
        <ele>1746.5</ele>
        <time>2026-06-27T07:08:46Z</time>
      </trkpt>
      <trkpt lat="46.11898" lon="6.72033">
        <ele>1746.5</ele>
        <time>2026-06-27T07:08:47Z</time>
      </trkpt>
      <trkpt lat="46.11897" lon="6.72034">
        <ele>1746.6</ele>
        <time>2026-06-27T07:08:48Z</time>
      </trkpt>
      <trkpt lat="46.11897" lon="6.72035">
        <ele>1746.6</ele>
        <time>2026-06-27T07:08:49Z</time>
      </trkpt>
      <trkpt lat="46.11896" lon="6.72035">
        <ele>1746.6</ele>
        <time>2026-06-27T07:08:50Z</time>
      </trkpt>
      <trkpt lat="46.11895" lon="6.72036">
        <ele>1746.6</ele>
        <time>2026-06-27T07:08:51Z</time>
      </trkpt>
      <trkpt lat="46.11895" lon="6.72037">
        <ele>1746.6</ele>
        <time>2026-06-27T07:08:52Z</time>
      </trkpt>
      <trkpt lat="46.11894" lon="6.72038">
        <ele>1746.7</ele>
        <time>2026-06-27T07:08:53Z</time>
      </trkpt>
      <trkpt lat="46.11894" lon="6.72038">
        <ele>1746.8</ele>
        <time>2026-06-27T07:08:54Z</time>
      </trkpt>
      <trkpt lat="46.11893" lon="6.72039">
        <ele>1746.8</ele>
        <time>2026-06-27T07:08:55Z</time>
      </trkpt>
      <trkpt lat="46.11892" lon="6.7204">
        <ele>1746.9</ele>
        <time>2026-06-27T07:08:56Z</time>
      </trkpt>
      <trkpt lat="46.11891" lon="6.72041">
        <ele>1746.9</ele>
        <time>2026-06-27T07:08:57Z</time>
      </trkpt>
      <trkpt lat="46.11891" lon="6.72041">
        <ele>1746.9</ele>
        <time>2026-06-27T07:08:58Z</time>
      </trkpt>
      <trkpt lat="46.11891" lon="6.72042">
        <ele>1746.9</ele>
        <time>2026-06-27T07:08:59Z</time>
      </trkpt>
      <trkpt lat="46.11891" lon="6.72042">
        <ele>1746.9</ele>
        <time>2026-06-27T07:09:00Z</time>
      </trkpt>
      <trkpt lat="46.1189" lon="6.72042">
        <ele>1746.9</ele>
        <time>2026-06-27T07:09:01Z</time>
      </trkpt>
      <trkpt lat="46.1189" lon="6.72043">
        <ele>1746.9</ele>
        <time>2026-06-27T07:09:02Z</time>
      </trkpt>
      <trkpt lat="46.1189" lon="6.72043">
        <ele>1746.9</ele>
        <time>2026-06-27T07:09:03Z</time>
      </trkpt>
      <trkpt lat="46.11891" lon="6.72043">
        <ele>1746.9</ele>
        <time>2026-06-27T07:09:04Z</time>
      </trkpt>
      <trkpt lat="46.11891" lon="6.72043">
        <ele>1746.9</ele>
        <time>2026-06-27T07:09:05Z</time>
      </trkpt>
      <trkpt lat="46.11891" lon="6.72043">
        <ele>1746.9</ele>
        <time>2026-06-27T07:09:06Z</time>
      </trkpt>
      <trkpt lat="46.11891" lon="6.72043">
        <ele>1747</ele>
        <time>2026-06-27T07:09:07Z</time>
      </trkpt>
      <trkpt lat="46.11891" lon="6.72043">
        <ele>1747</ele>
        <time>2026-06-27T07:09:08Z</time>
      </trkpt>
      <trkpt lat="46.11891" lon="6.72043">
        <ele>1747</ele>
        <time>2026-06-27T07:09:09Z</time>
      </trkpt>
      <trkpt lat="46.11891" lon="6.72043">
        <ele>1747.1</ele>
        <time>2026-06-27T07:09:10Z</time>
      </trkpt>
      <trkpt lat="46.1189" lon="6.72043">
        <ele>1747.1</ele>
        <time>2026-06-27T07:09:11Z</time>
      </trkpt>
      <trkpt lat="46.1189" lon="6.72043">
        <ele>1747</ele>
        <time>2026-06-27T07:09:12Z</time>
      </trkpt>
      <trkpt lat="46.1189" lon="6.72044">
        <ele>1747</ele>
        <time>2026-06-27T07:09:13Z</time>
      </trkpt>
      <trkpt lat="46.1189" lon="6.72044">
        <ele>1746.9</ele>
        <time>2026-06-27T07:09:14Z</time>
      </trkpt>
      <trkpt lat="46.1189" lon="6.72045">
        <ele>1746.9</ele>
        <time>2026-06-27T07:09:15Z</time>
      </trkpt>
      <trkpt lat="46.11889" lon="6.72045">
        <ele>1746.9</ele>
        <time>2026-06-27T07:09:16Z</time>
      </trkpt>
      <trkpt lat="46.11889" lon="6.72045">
        <ele>1746.9</ele>
        <time>2026-06-27T07:09:17Z</time>
      </trkpt>
      <trkpt lat="46.11889" lon="6.72045">
        <ele>1746.9</ele>
        <time>2026-06-27T07:09:18Z</time>
      </trkpt>
      <trkpt lat="46.11889" lon="6.72045">
        <ele>1746.8</ele>
        <time>2026-06-27T07:09:19Z</time>
      </trkpt>
      <trkpt lat="46.11889" lon="6.72044">
        <ele>1746.9</ele>
        <time>2026-06-27T07:09:20Z</time>
      </trkpt>
      <trkpt lat="46.11888" lon="6.72044">
        <ele>1746.9</ele>
        <time>2026-06-27T07:09:21Z</time>
      </trkpt>
      <trkpt lat="46.11888" lon="6.72044">
        <ele>1747</ele>
        <time>2026-06-27T07:09:22Z</time>
      </trkpt>
      <trkpt lat="46.11888" lon="6.72044">
        <ele>1747</ele>
        <time>2026-06-27T07:09:23Z</time>
      </trkpt>
      <trkpt lat="46.11888" lon="6.72044">
        <ele>1747.1</ele>
        <time>2026-06-27T07:09:24Z</time>
      </trkpt>
      <trkpt lat="46.11888" lon="6.72045">
        <ele>1747.2</ele>
        <time>2026-06-27T07:09:25Z</time>
      </trkpt>
      <trkpt lat="46.11888" lon="6.72046">
        <ele>1747.2</ele>
        <time>2026-06-27T07:09:26Z</time>
      </trkpt>
      <trkpt lat="46.11888" lon="6.72047">
        <ele>1747.3</ele>
        <time>2026-06-27T07:09:27Z</time>
      </trkpt>
      <trkpt lat="46.11888" lon="6.72047">
        <ele>1747.3</ele>
        <time>2026-06-27T07:09:28Z</time>
      </trkpt>
      <trkpt lat="46.11888" lon="6.72048">
        <ele>1747.3</ele>
        <time>2026-06-27T07:09:29Z</time>
      </trkpt>
      <trkpt lat="46.11888" lon="6.72049">
        <ele>1747.4</ele>
        <time>2026-06-27T07:09:30Z</time>
      </trkpt>
      <trkpt lat="46.11888" lon="6.72049">
        <ele>1747.4</ele>
        <time>2026-06-27T07:09:31Z</time>
      </trkpt>
      <trkpt lat="46.11888" lon="6.72049">
        <ele>1747.4</ele>
        <time>2026-06-27T07:09:32Z</time>
      </trkpt>
      <trkpt lat="46.11888" lon="6.7205">
        <ele>1747.4</ele>
        <time>2026-06-27T07:09:33Z</time>
      </trkpt>
      <trkpt lat="46.11888" lon="6.7205">
        <ele>1747.5</ele>
        <time>2026-06-27T07:09:34Z</time>
      </trkpt>
      <trkpt lat="46.11888" lon="6.7205">
        <ele>1747.6</ele>
        <time>2026-06-27T07:09:35Z</time>
      </trkpt>
      <trkpt lat="46.11888" lon="6.7205">
        <ele>1747.5</ele>
        <time>2026-06-27T07:09:36Z</time>
      </trkpt>
      <trkpt lat="46.11888" lon="6.7205">
        <ele>1747.5</ele>
        <time>2026-06-27T07:09:37Z</time>
      </trkpt>
      <trkpt lat="46.11888" lon="6.7205">
        <ele>1747.5</ele>
        <time>2026-06-27T07:09:38Z</time>
      </trkpt>
      <trkpt lat="46.11888" lon="6.7205">
        <ele>1747.6</ele>
        <time>2026-06-27T07:09:39Z</time>
      </trkpt>
      <trkpt lat="46.11888" lon="6.7205">
        <ele>1747.6</ele>
        <time>2026-06-27T07:09:40Z</time>
      </trkpt>
      <trkpt lat="46.11888" lon="6.7205">
        <ele>1747.7</ele>
        <time>2026-06-27T07:09:41Z</time>
      </trkpt>
      <trkpt lat="46.11889" lon="6.7205">
        <ele>1747.7</ele>
        <time>2026-06-27T07:09:42Z</time>
      </trkpt>
      <trkpt lat="46.11889" lon="6.7205">
        <ele>1747.7</ele>
        <time>2026-06-27T07:09:43Z</time>
      </trkpt>
      <trkpt lat="46.11889" lon="6.7205">
        <ele>1747.6</ele>
        <time>2026-06-27T07:09:44Z</time>
      </trkpt>
      <trkpt lat="46.11889" lon="6.7205">
        <ele>1747.6</ele>
        <time>2026-06-27T07:09:45Z</time>
      </trkpt>
      <trkpt lat="46.11888" lon="6.72049">
        <ele>1747.6</ele>
        <time>2026-06-27T07:09:46Z</time>
      </trkpt>
      <trkpt lat="46.11888" lon="6.72049">
        <ele>1747.7</ele>
        <time>2026-06-27T07:09:47Z</time>
      </trkpt>
      <trkpt lat="46.11888" lon="6.72049">
        <ele>1747.7</ele>
        <time>2026-06-27T07:09:48Z</time>
      </trkpt>
      <trkpt lat="46.11888" lon="6.72049">
        <ele>1747.7</ele>
        <time>2026-06-27T07:09:49Z</time>
      </trkpt>
      <trkpt lat="46.11888" lon="6.72049">
        <ele>1747.7</ele>
        <time>2026-06-27T07:09:50Z</time>
      </trkpt>
      <trkpt lat="46.11887" lon="6.72048">
        <ele>1747.7</ele>
        <time>2026-06-27T07:09:51Z</time>
      </trkpt>
      <trkpt lat="46.11887" lon="6.72048">
        <ele>1747.7</ele>
        <time>2026-06-27T07:09:52Z</time>
      </trkpt>
      <trkpt lat="46.11886" lon="6.72048">
        <ele>1747.7</ele>
        <time>2026-06-27T07:09:53Z</time>
      </trkpt>
      <trkpt lat="46.11885" lon="6.72048">
        <ele>1747.8</ele>
        <time>2026-06-27T07:09:54Z</time>
      </trkpt>
      <trkpt lat="46.11885" lon="6.72048">
        <ele>1747.8</ele>
        <time>2026-06-27T07:09:55Z</time>
      </trkpt>
      <trkpt lat="46.11884" lon="6.72048">
        <ele>1747.9</ele>
        <time>2026-06-27T07:09:56Z</time>
      </trkpt>
      <trkpt lat="46.11883" lon="6.72048">
        <ele>1747.9</ele>
        <time>2026-06-27T07:09:57Z</time>
      </trkpt>
      <trkpt lat="46.11883" lon="6.72048">
        <ele>1747.8</ele>
        <time>2026-06-27T07:09:58Z</time>
      </trkpt>
      <trkpt lat="46.11883" lon="6.72048">
        <ele>1747.8</ele>
        <time>2026-06-27T07:09:59Z</time>
      </trkpt>
      <trkpt lat="46.11883" lon="6.72049">
        <ele>1747.7</ele>
        <time>2026-06-27T07:10:00Z</time>
      </trkpt>
      <trkpt lat="46.11883" lon="6.72049">
        <ele>1747.5</ele>
        <time>2026-06-27T07:10:01Z</time>
      </trkpt>
      <trkpt lat="46.11883" lon="6.72049">
        <ele>1747.4</ele>
        <time>2026-06-27T07:10:02Z</time>
      </trkpt>
      <trkpt lat="46.11883" lon="6.72049">
        <ele>1747.3</ele>
        <time>2026-06-27T07:10:03Z</time>
      </trkpt>
      <trkpt lat="46.11883" lon="6.72049">
        <ele>1747.4</ele>
        <time>2026-06-27T07:10:04Z</time>
      </trkpt>
      <trkpt lat="46.11883" lon="6.72049">
        <ele>1747.3</ele>
        <time>2026-06-27T07:10:05Z</time>
      </trkpt>
      <trkpt lat="46.11883" lon="6.72049">
        <ele>1747.3</ele>
        <time>2026-06-27T07:10:06Z</time>
      </trkpt>
      <trkpt lat="46.11883" lon="6.72049">
        <ele>1747.4</ele>
        <time>2026-06-27T07:10:07Z</time>
      </trkpt>
      <trkpt lat="46.11883" lon="6.72049">
        <ele>1747.4</ele>
        <time>2026-06-27T07:10:08Z</time>
      </trkpt>
      <trkpt lat="46.11883" lon="6.72048">
        <ele>1747.4</ele>
        <time>2026-06-27T07:10:09Z</time>
      </trkpt>
      <trkpt lat="46.11883" lon="6.72048">
        <ele>1747.5</ele>
        <time>2026-06-27T07:10:10Z</time>
      </trkpt>
      <trkpt lat="46.11883" lon="6.72048">
        <ele>1747.5</ele>
        <time>2026-06-27T07:10:11Z</time>
      </trkpt>
      <trkpt lat="46.11883" lon="6.72048">
        <ele>1747.6</ele>
        <time>2026-06-27T07:10:12Z</time>
      </trkpt>
      <trkpt lat="46.11882" lon="6.72049">
        <ele>1747.6</ele>
        <time>2026-06-27T07:10:13Z</time>
      </trkpt>
      <trkpt lat="46.11882" lon="6.72048">
        <ele>1747.6</ele>
        <time>2026-06-27T07:10:14Z</time>
      </trkpt>
      <trkpt lat="46.11881" lon="6.72048">
        <ele>1747.6</ele>
        <time>2026-06-27T07:10:15Z</time>
      </trkpt>
      <trkpt lat="46.1188" lon="6.72047">
        <ele>1747.6</ele>
        <time>2026-06-27T07:10:16Z</time>
      </trkpt>
      <trkpt lat="46.11879" lon="6.72047">
        <ele>1747.6</ele>
        <time>2026-06-27T07:10:17Z</time>
      </trkpt>
      <trkpt lat="46.11879" lon="6.72047">
        <ele>1747.5</ele>
        <time>2026-06-27T07:10:18Z</time>
      </trkpt>
      <trkpt lat="46.11878" lon="6.72047">
        <ele>1747.5</ele>
        <time>2026-06-27T07:10:19Z</time>
      </trkpt>
      <trkpt lat="46.11878" lon="6.72047">
        <ele>1747.5</ele>
        <time>2026-06-27T07:10:20Z</time>
      </trkpt>
      <trkpt lat="46.11877" lon="6.72047">
        <ele>1747.5</ele>
        <time>2026-06-27T07:10:21Z</time>
      </trkpt>
      <trkpt lat="46.11877" lon="6.72047">
        <ele>1747.5</ele>
        <time>2026-06-27T07:10:22Z</time>
      </trkpt>
      <trkpt lat="46.11876" lon="6.72047">
        <ele>1747.5</ele>
        <time>2026-06-27T07:10:23Z</time>
      </trkpt>
      <trkpt lat="46.11875" lon="6.72047">
        <ele>1747.4</ele>
        <time>2026-06-27T07:10:24Z</time>
      </trkpt>
      <trkpt lat="46.11873" lon="6.72046">
        <ele>1747.3</ele>
        <time>2026-06-27T07:10:25Z</time>
      </trkpt>
      <trkpt lat="46.11872" lon="6.72046">
        <ele>1747.3</ele>
        <time>2026-06-27T07:10:26Z</time>
      </trkpt>
      <trkpt lat="46.11871" lon="6.72045">
        <ele>1747.2</ele>
        <time>2026-06-27T07:10:27Z</time>
      </trkpt>
      <trkpt lat="46.1187" lon="6.72045">
        <ele>1747.2</ele>
        <time>2026-06-27T07:10:28Z</time>
      </trkpt>
      <trkpt lat="46.11869" lon="6.72045">
        <ele>1747.2</ele>
        <time>2026-06-27T07:10:29Z</time>
      </trkpt>
      <trkpt lat="46.11869" lon="6.72044">
        <ele>1747.2</ele>
        <time>2026-06-27T07:10:30Z</time>
      </trkpt>
      <trkpt lat="46.11868" lon="6.72043">
        <ele>1747.2</ele>
        <time>2026-06-27T07:10:31Z</time>
      </trkpt>
      <trkpt lat="46.11867" lon="6.72042">
        <ele>1747.2</ele>
        <time>2026-06-27T07:10:32Z</time>
      </trkpt>
      <trkpt lat="46.11866" lon="6.72042">
        <ele>1747.2</ele>
        <time>2026-06-27T07:10:33Z</time>
      </trkpt>
      <trkpt lat="46.11866" lon="6.72042">
        <ele>1747.1</ele>
        <time>2026-06-27T07:10:34Z</time>
      </trkpt>
      <trkpt lat="46.11865" lon="6.72041">
        <ele>1747.1</ele>
        <time>2026-06-27T07:10:35Z</time>
      </trkpt>
      <trkpt lat="46.11864" lon="6.72041">
        <ele>1747.1</ele>
        <time>2026-06-27T07:10:36Z</time>
      </trkpt>
      <trkpt lat="46.11863" lon="6.72041">
        <ele>1747.1</ele>
        <time>2026-06-27T07:10:37Z</time>
      </trkpt>
      <trkpt lat="46.11862" lon="6.7204">
        <ele>1747.1</ele>
        <time>2026-06-27T07:10:38Z</time>
      </trkpt>
      <trkpt lat="46.11861" lon="6.7204">
        <ele>1747.1</ele>
        <time>2026-06-27T07:10:39Z</time>
      </trkpt>
      <trkpt lat="46.1186" lon="6.7204">
        <ele>1747.1</ele>
        <time>2026-06-27T07:10:40Z</time>
      </trkpt>
      <trkpt lat="46.1186" lon="6.7204">
        <ele>1747</ele>
        <time>2026-06-27T07:10:41Z</time>
      </trkpt>
      <trkpt lat="46.11859" lon="6.7204">
        <ele>1746.9</ele>
        <time>2026-06-27T07:10:42Z</time>
      </trkpt>
      <trkpt lat="46.11858" lon="6.7204">
        <ele>1746.8</ele>
        <time>2026-06-27T07:10:43Z</time>
      </trkpt>
      <trkpt lat="46.11857" lon="6.7204">
        <ele>1746.7</ele>
        <time>2026-06-27T07:10:44Z</time>
      </trkpt>
      <trkpt lat="46.11856" lon="6.7204">
        <ele>1746.7</ele>
        <time>2026-06-27T07:10:45Z</time>
      </trkpt>
      <trkpt lat="46.11855" lon="6.7204">
        <ele>1746.7</ele>
        <time>2026-06-27T07:10:46Z</time>
      </trkpt>
      <trkpt lat="46.11854" lon="6.7204">
        <ele>1746.6</ele>
        <time>2026-06-27T07:10:47Z</time>
      </trkpt>
      <trkpt lat="46.11853" lon="6.7204">
        <ele>1746.7</ele>
        <time>2026-06-27T07:10:48Z</time>
      </trkpt>
      <trkpt lat="46.11852" lon="6.7204">
        <ele>1746.8</ele>
        <time>2026-06-27T07:10:49Z</time>
      </trkpt>
      <trkpt lat="46.11851" lon="6.7204">
        <ele>1746.8</ele>
        <time>2026-06-27T07:10:50Z</time>
      </trkpt>
      <trkpt lat="46.1185" lon="6.7204">
        <ele>1746.8</ele>
        <time>2026-06-27T07:10:51Z</time>
      </trkpt>
      <trkpt lat="46.11849" lon="6.72041">
        <ele>1746.8</ele>
        <time>2026-06-27T07:10:52Z</time>
      </trkpt>
      <trkpt lat="46.11848" lon="6.72041">
        <ele>1746.8</ele>
        <time>2026-06-27T07:10:53Z</time>
      </trkpt>
      <trkpt lat="46.11848" lon="6.72041">
        <ele>1746.8</ele>
        <time>2026-06-27T07:10:54Z</time>
      </trkpt>
      <trkpt lat="46.11847" lon="6.72042">
        <ele>1746.7</ele>
        <time>2026-06-27T07:10:55Z</time>
      </trkpt>
      <trkpt lat="46.11846" lon="6.72042">
        <ele>1746.7</ele>
        <time>2026-06-27T07:10:56Z</time>
      </trkpt>
      <trkpt lat="46.11845" lon="6.72042">
        <ele>1746.7</ele>
        <time>2026-06-27T07:10:57Z</time>
      </trkpt>
      <trkpt lat="46.11844" lon="6.72043">
        <ele>1746.7</ele>
        <time>2026-06-27T07:10:58Z</time>
      </trkpt>
      <trkpt lat="46.11843" lon="6.72043">
        <ele>1746.8</ele>
        <time>2026-06-27T07:10:59Z</time>
      </trkpt>
      <trkpt lat="46.11842" lon="6.72043">
        <ele>1746.9</ele>
        <time>2026-06-27T07:11:00Z</time>
      </trkpt>
      <trkpt lat="46.11841" lon="6.72043">
        <ele>1747</ele>
        <time>2026-06-27T07:11:01Z</time>
      </trkpt>
      <trkpt lat="46.1184" lon="6.72043">
        <ele>1746.9</ele>
        <time>2026-06-27T07:11:02Z</time>
      </trkpt>
      <trkpt lat="46.11839" lon="6.72043">
        <ele>1746.9</ele>
        <time>2026-06-27T07:11:03Z</time>
      </trkpt>
      <trkpt lat="46.11838" lon="6.72044">
        <ele>1747</ele>
        <time>2026-06-27T07:11:04Z</time>
      </trkpt>
      <trkpt lat="46.11837" lon="6.72044">
        <ele>1747</ele>
        <time>2026-06-27T07:11:05Z</time>
      </trkpt>
      <trkpt lat="46.11835" lon="6.72044">
        <ele>1747.1</ele>
        <time>2026-06-27T07:11:06Z</time>
      </trkpt>
      <trkpt lat="46.11834" lon="6.72044">
        <ele>1747.1</ele>
        <time>2026-06-27T07:11:07Z</time>
      </trkpt>
      <trkpt lat="46.11834" lon="6.72044">
        <ele>1747</ele>
        <time>2026-06-27T07:11:08Z</time>
      </trkpt>
      <trkpt lat="46.11833" lon="6.72044">
        <ele>1747.1</ele>
        <time>2026-06-27T07:11:09Z</time>
      </trkpt>
      <trkpt lat="46.11832" lon="6.72044">
        <ele>1747.1</ele>
        <time>2026-06-27T07:11:10Z</time>
      </trkpt>
      <trkpt lat="46.1183" lon="6.72044">
        <ele>1747.2</ele>
        <time>2026-06-27T07:11:11Z</time>
      </trkpt>
      <trkpt lat="46.11829" lon="6.72044">
        <ele>1747.1</ele>
        <time>2026-06-27T07:11:12Z</time>
      </trkpt>
      <trkpt lat="46.11828" lon="6.72044">
        <ele>1747</ele>
        <time>2026-06-27T07:11:13Z</time>
      </trkpt>
      <trkpt lat="46.11827" lon="6.72044">
        <ele>1746.9</ele>
        <time>2026-06-27T07:11:14Z</time>
      </trkpt>
      <trkpt lat="46.11826" lon="6.72044">
        <ele>1746.9</ele>
        <time>2026-06-27T07:11:15Z</time>
      </trkpt>
      <trkpt lat="46.11825" lon="6.72043">
        <ele>1747</ele>
        <time>2026-06-27T07:11:16Z</time>
      </trkpt>
      <trkpt lat="46.11824" lon="6.72043">
        <ele>1747</ele>
        <time>2026-06-27T07:11:17Z</time>
      </trkpt>
      <trkpt lat="46.11823" lon="6.72043">
        <ele>1747</ele>
        <time>2026-06-27T07:11:18Z</time>
      </trkpt>
      <trkpt lat="46.11822" lon="6.72043">
        <ele>1747.1</ele>
        <time>2026-06-27T07:11:19Z</time>
      </trkpt>
      <trkpt lat="46.11821" lon="6.72043">
        <ele>1747.1</ele>
        <time>2026-06-27T07:11:20Z</time>
      </trkpt>
      <trkpt lat="46.1182" lon="6.72043">
        <ele>1747.2</ele>
        <time>2026-06-27T07:11:21Z</time>
      </trkpt>
      <trkpt lat="46.11819" lon="6.72043">
        <ele>1747.3</ele>
        <time>2026-06-27T07:11:22Z</time>
      </trkpt>
      <trkpt lat="46.11817" lon="6.72043">
        <ele>1747.3</ele>
        <time>2026-06-27T07:11:23Z</time>
      </trkpt>
      <trkpt lat="46.11816" lon="6.72042">
        <ele>1747.4</ele>
        <time>2026-06-27T07:11:24Z</time>
      </trkpt>
      <trkpt lat="46.11815" lon="6.72042">
        <ele>1747.6</ele>
        <time>2026-06-27T07:11:25Z</time>
      </trkpt>
      <trkpt lat="46.11814" lon="6.72042">
        <ele>1747.7</ele>
        <time>2026-06-27T07:11:26Z</time>
      </trkpt>
      <trkpt lat="46.11813" lon="6.72042">
        <ele>1747.8</ele>
        <time>2026-06-27T07:11:27Z</time>
      </trkpt>
      <trkpt lat="46.11812" lon="6.72041">
        <ele>1747.8</ele>
        <time>2026-06-27T07:11:28Z</time>
      </trkpt>
      <trkpt lat="46.11811" lon="6.72041">
        <ele>1747.9</ele>
        <time>2026-06-27T07:11:29Z</time>
      </trkpt>
      <trkpt lat="46.1181" lon="6.72041">
        <ele>1748</ele>
        <time>2026-06-27T07:11:30Z</time>
      </trkpt>
      <trkpt lat="46.11809" lon="6.7204">
        <ele>1748.2</ele>
        <time>2026-06-27T07:11:31Z</time>
      </trkpt>
      <trkpt lat="46.11808" lon="6.7204">
        <ele>1748.3</ele>
        <time>2026-06-27T07:11:32Z</time>
      </trkpt>
      <trkpt lat="46.11808" lon="6.7204">
        <ele>1748.3</ele>
        <time>2026-06-27T07:11:33Z</time>
      </trkpt>
      <trkpt lat="46.11806" lon="6.72039">
        <ele>1748.3</ele>
        <time>2026-06-27T07:11:34Z</time>
      </trkpt>
      <trkpt lat="46.11806" lon="6.72039">
        <ele>1748.4</ele>
        <time>2026-06-27T07:11:35Z</time>
      </trkpt>
      <trkpt lat="46.11805" lon="6.72039">
        <ele>1748.4</ele>
        <time>2026-06-27T07:11:36Z</time>
      </trkpt>
      <trkpt lat="46.11804" lon="6.72039">
        <ele>1748.4</ele>
        <time>2026-06-27T07:11:37Z</time>
      </trkpt>
      <trkpt lat="46.11803" lon="6.72039">
        <ele>1748.4</ele>
        <time>2026-06-27T07:11:38Z</time>
      </trkpt>
      <trkpt lat="46.11802" lon="6.72038">
        <ele>1748.4</ele>
        <time>2026-06-27T07:11:39Z</time>
      </trkpt>
      <trkpt lat="46.118" lon="6.72038">
        <ele>1748.5</ele>
        <time>2026-06-27T07:11:40Z</time>
      </trkpt>
      <trkpt lat="46.118" lon="6.72038">
        <ele>1748.6</ele>
        <time>2026-06-27T07:11:41Z</time>
      </trkpt>
      <trkpt lat="46.11798" lon="6.72037">
        <ele>1748.5</ele>
        <time>2026-06-27T07:11:42Z</time>
      </trkpt>
      <trkpt lat="46.11798" lon="6.72037">
        <ele>1748.5</ele>
        <time>2026-06-27T07:11:43Z</time>
      </trkpt>
      <trkpt lat="46.11796" lon="6.72037">
        <ele>1748.5</ele>
        <time>2026-06-27T07:11:44Z</time>
      </trkpt>
      <trkpt lat="46.11796" lon="6.72037">
        <ele>1748.5</ele>
        <time>2026-06-27T07:11:45Z</time>
      </trkpt>
      <trkpt lat="46.11794" lon="6.72036">
        <ele>1748.6</ele>
        <time>2026-06-27T07:11:46Z</time>
      </trkpt>
      <trkpt lat="46.11793" lon="6.72036">
        <ele>1748.7</ele>
        <time>2026-06-27T07:11:47Z</time>
      </trkpt>
      <trkpt lat="46.11792" lon="6.72035">
        <ele>1748.8</ele>
        <time>2026-06-27T07:11:48Z</time>
      </trkpt>
      <trkpt lat="46.11791" lon="6.72035">
        <ele>1748.9</ele>
        <time>2026-06-27T07:11:49Z</time>
      </trkpt>
      <trkpt lat="46.1179" lon="6.72035">
        <ele>1749</ele>
        <time>2026-06-27T07:11:50Z</time>
      </trkpt>
      <trkpt lat="46.11789" lon="6.72034">
        <ele>1749</ele>
        <time>2026-06-27T07:11:51Z</time>
      </trkpt>
      <trkpt lat="46.11788" lon="6.72034">
        <ele>1749.1</ele>
        <time>2026-06-27T07:11:52Z</time>
      </trkpt>
      <trkpt lat="46.11787" lon="6.72034">
        <ele>1749.2</ele>
        <time>2026-06-27T07:11:53Z</time>
      </trkpt>
      <trkpt lat="46.11786" lon="6.72034">
        <ele>1749.3</ele>
        <time>2026-06-27T07:11:54Z</time>
      </trkpt>
      <trkpt lat="46.11785" lon="6.72033">
        <ele>1749.3</ele>
        <time>2026-06-27T07:11:55Z</time>
      </trkpt>
      <trkpt lat="46.11784" lon="6.72033">
        <ele>1749.4</ele>
        <time>2026-06-27T07:11:56Z</time>
      </trkpt>
      <trkpt lat="46.11783" lon="6.72032">
        <ele>1749.6</ele>
        <time>2026-06-27T07:11:57Z</time>
      </trkpt>
      <trkpt lat="46.11782" lon="6.72032">
        <ele>1749.7</ele>
        <time>2026-06-27T07:11:58Z</time>
      </trkpt>
      <trkpt lat="46.11781" lon="6.72032">
        <ele>1749.8</ele>
        <time>2026-06-27T07:11:59Z</time>
      </trkpt>
      <trkpt lat="46.11781" lon="6.72032">
        <ele>1749.9</ele>
        <time>2026-06-27T07:12:00Z</time>
      </trkpt>
      <trkpt lat="46.1178" lon="6.72031">
        <ele>1749.9</ele>
        <time>2026-06-27T07:12:01Z</time>
      </trkpt>
      <trkpt lat="46.1178" lon="6.72031">
        <ele>1750</ele>
        <time>2026-06-27T07:12:02Z</time>
      </trkpt>
      <trkpt lat="46.1178" lon="6.72031">
        <ele>1750</ele>
        <time>2026-06-27T07:12:03Z</time>
      </trkpt>
      <trkpt lat="46.1178" lon="6.72032">
        <ele>1750.1</ele>
        <time>2026-06-27T07:12:04Z</time>
      </trkpt>
      <trkpt lat="46.1178" lon="6.72032">
        <ele>1750.1</ele>
        <time>2026-06-27T07:12:05Z</time>
      </trkpt>
      <trkpt lat="46.11779" lon="6.72032">
        <ele>1750</ele>
        <time>2026-06-27T07:12:06Z</time>
      </trkpt>
      <trkpt lat="46.11778" lon="6.72031">
        <ele>1750</ele>
        <time>2026-06-27T07:12:07Z</time>
      </trkpt>
      <trkpt lat="46.11777" lon="6.72031">
        <ele>1750.1</ele>
        <time>2026-06-27T07:12:08Z</time>
      </trkpt>
      <trkpt lat="46.11776" lon="6.72031">
        <ele>1750.1</ele>
        <time>2026-06-27T07:12:09Z</time>
      </trkpt>
      <trkpt lat="46.11776" lon="6.72031">
        <ele>1750.2</ele>
        <time>2026-06-27T07:12:10Z</time>
      </trkpt>
      <trkpt lat="46.11775" lon="6.72031">
        <ele>1750.3</ele>
        <time>2026-06-27T07:12:11Z</time>
      </trkpt>
      <trkpt lat="46.11774" lon="6.72031">
        <ele>1750.4</ele>
        <time>2026-06-27T07:12:12Z</time>
      </trkpt>
      <trkpt lat="46.11773" lon="6.72031">
        <ele>1750.4</ele>
        <time>2026-06-27T07:12:13Z</time>
      </trkpt>
      <trkpt lat="46.11772" lon="6.72031">
        <ele>1750.4</ele>
        <time>2026-06-27T07:12:14Z</time>
      </trkpt>
      <trkpt lat="46.11771" lon="6.72031">
        <ele>1750.5</ele>
        <time>2026-06-27T07:12:15Z</time>
      </trkpt>
      <trkpt lat="46.1177" lon="6.72031">
        <ele>1750.6</ele>
        <time>2026-06-27T07:12:16Z</time>
      </trkpt>
      <trkpt lat="46.11769" lon="6.72031">
        <ele>1750.6</ele>
        <time>2026-06-27T07:12:17Z</time>
      </trkpt>
      <trkpt lat="46.11768" lon="6.7203">
        <ele>1750.6</ele>
        <time>2026-06-27T07:12:18Z</time>
      </trkpt>
      <trkpt lat="46.11767" lon="6.7203">
        <ele>1750.6</ele>
        <time>2026-06-27T07:12:19Z</time>
      </trkpt>
      <trkpt lat="46.11766" lon="6.7203">
        <ele>1750.6</ele>
        <time>2026-06-27T07:12:20Z</time>
      </trkpt>
      <trkpt lat="46.11765" lon="6.7203">
        <ele>1750.6</ele>
        <time>2026-06-27T07:12:21Z</time>
      </trkpt>
      <trkpt lat="46.11764" lon="6.7203">
        <ele>1750.6</ele>
        <time>2026-06-27T07:12:22Z</time>
      </trkpt>
      <trkpt lat="46.11763" lon="6.72029">
        <ele>1750.7</ele>
        <time>2026-06-27T07:12:23Z</time>
      </trkpt>
      <trkpt lat="46.11762" lon="6.72029">
        <ele>1750.7</ele>
        <time>2026-06-27T07:12:24Z</time>
      </trkpt>
      <trkpt lat="46.11761" lon="6.72029">
        <ele>1750.8</ele>
        <time>2026-06-27T07:12:25Z</time>
      </trkpt>
      <trkpt lat="46.1176" lon="6.72029">
        <ele>1750.9</ele>
        <time>2026-06-27T07:12:26Z</time>
      </trkpt>
      <trkpt lat="46.11759" lon="6.72029">
        <ele>1751</ele>
        <time>2026-06-27T07:12:27Z</time>
      </trkpt>
      <trkpt lat="46.11758" lon="6.72029">
        <ele>1751</ele>
        <time>2026-06-27T07:12:28Z</time>
      </trkpt>
      <trkpt lat="46.11757" lon="6.72028">
        <ele>1751</ele>
        <time>2026-06-27T07:12:29Z</time>
      </trkpt>
      <trkpt lat="46.11756" lon="6.72028">
        <ele>1751.1</ele>
        <time>2026-06-27T07:12:30Z</time>
      </trkpt>
      <trkpt lat="46.11755" lon="6.72028">
        <ele>1751.2</ele>
        <time>2026-06-27T07:12:31Z</time>
      </trkpt>
      <trkpt lat="46.11754" lon="6.72028">
        <ele>1751.3</ele>
        <time>2026-06-27T07:12:32Z</time>
      </trkpt>
      <trkpt lat="46.11753" lon="6.72028">
        <ele>1751.4</ele>
        <time>2026-06-27T07:12:33Z</time>
      </trkpt>
      <trkpt lat="46.11752" lon="6.72029">
        <ele>1751.4</ele>
        <time>2026-06-27T07:12:34Z</time>
      </trkpt>
      <trkpt lat="46.11751" lon="6.72029">
        <ele>1751.7</ele>
        <time>2026-06-27T07:12:35Z</time>
      </trkpt>
      <trkpt lat="46.1175" lon="6.72029">
        <ele>1751.8</ele>
        <time>2026-06-27T07:12:36Z</time>
      </trkpt>
      <trkpt lat="46.11749" lon="6.72029">
        <ele>1751.9</ele>
        <time>2026-06-27T07:12:37Z</time>
      </trkpt>
      <trkpt lat="46.11748" lon="6.72029">
        <ele>1751.9</ele>
        <time>2026-06-27T07:12:38Z</time>
      </trkpt>
      <trkpt lat="46.11747" lon="6.72029">
        <ele>1752</ele>
        <time>2026-06-27T07:12:39Z</time>
      </trkpt>
      <trkpt lat="46.11746" lon="6.72029">
        <ele>1752.1</ele>
        <time>2026-06-27T07:12:40Z</time>
      </trkpt>
      <trkpt lat="46.11745" lon="6.72028">
        <ele>1752.2</ele>
        <time>2026-06-27T07:12:41Z</time>
      </trkpt>
      <trkpt lat="46.11744" lon="6.72028">
        <ele>1752.3</ele>
        <time>2026-06-27T07:12:42Z</time>
      </trkpt>
      <trkpt lat="46.11743" lon="6.72028">
        <ele>1752.4</ele>
        <time>2026-06-27T07:12:43Z</time>
      </trkpt>
      <trkpt lat="46.11742" lon="6.72028">
        <ele>1752.5</ele>
        <time>2026-06-27T07:12:44Z</time>
      </trkpt>
      <trkpt lat="46.1174" lon="6.72028">
        <ele>1752.5</ele>
        <time>2026-06-27T07:12:45Z</time>
      </trkpt>
      <trkpt lat="46.11739" lon="6.72028">
        <ele>1752.4</ele>
        <time>2026-06-27T07:12:46Z</time>
      </trkpt>
      <trkpt lat="46.11738" lon="6.72028">
        <ele>1752.3</ele>
        <time>2026-06-27T07:12:47Z</time>
      </trkpt>
      <trkpt lat="46.11737" lon="6.72028">
        <ele>1752.3</ele>
        <time>2026-06-27T07:12:48Z</time>
      </trkpt>
      <trkpt lat="46.11737" lon="6.72029">
        <ele>1752.3</ele>
        <time>2026-06-27T07:12:49Z</time>
      </trkpt>
      <trkpt lat="46.11736" lon="6.72029">
        <ele>1752.4</ele>
        <time>2026-06-27T07:12:50Z</time>
      </trkpt>
      <trkpt lat="46.11736" lon="6.72029">
        <ele>1752.4</ele>
        <time>2026-06-27T07:12:51Z</time>
      </trkpt>
      <trkpt lat="46.11735" lon="6.72029">
        <ele>1752.4</ele>
        <time>2026-06-27T07:12:52Z</time>
      </trkpt>
      <trkpt lat="46.11735" lon="6.72029">
        <ele>1752.5</ele>
        <time>2026-06-27T07:12:53Z</time>
      </trkpt>
      <trkpt lat="46.11734" lon="6.72029">
        <ele>1752.5</ele>
        <time>2026-06-27T07:12:54Z</time>
      </trkpt>
      <trkpt lat="46.11733" lon="6.7203">
        <ele>1752.5</ele>
        <time>2026-06-27T07:12:55Z</time>
      </trkpt>
      <trkpt lat="46.11732" lon="6.7203">
        <ele>1752.5</ele>
        <time>2026-06-27T07:12:56Z</time>
      </trkpt>
      <trkpt lat="46.11731" lon="6.7203">
        <ele>1752.6</ele>
        <time>2026-06-27T07:12:57Z</time>
      </trkpt>
      <trkpt lat="46.1173" lon="6.7203">
        <ele>1752.6</ele>
        <time>2026-06-27T07:12:58Z</time>
      </trkpt>
      <trkpt lat="46.11729" lon="6.72031">
        <ele>1752.6</ele>
        <time>2026-06-27T07:12:59Z</time>
      </trkpt>
      <trkpt lat="46.11728" lon="6.72031">
        <ele>1752.6</ele>
        <time>2026-06-27T07:13:00Z</time>
      </trkpt>
      <trkpt lat="46.11727" lon="6.72031">
        <ele>1752.5</ele>
        <time>2026-06-27T07:13:01Z</time>
      </trkpt>
      <trkpt lat="46.11726" lon="6.72031">
        <ele>1752.5</ele>
        <time>2026-06-27T07:13:02Z</time>
      </trkpt>
      <trkpt lat="46.11725" lon="6.72032">
        <ele>1752.5</ele>
        <time>2026-06-27T07:13:03Z</time>
      </trkpt>
      <trkpt lat="46.11724" lon="6.72032">
        <ele>1752.4</ele>
        <time>2026-06-27T07:13:04Z</time>
      </trkpt>
      <trkpt lat="46.11723" lon="6.72033">
        <ele>1752.6</ele>
        <time>2026-06-27T07:13:05Z</time>
      </trkpt>
      <trkpt lat="46.11722" lon="6.72033">
        <ele>1752.7</ele>
        <time>2026-06-27T07:13:06Z</time>
      </trkpt>
      <trkpt lat="46.11721" lon="6.72034">
        <ele>1752.6</ele>
        <time>2026-06-27T07:13:07Z</time>
      </trkpt>
      <trkpt lat="46.1172" lon="6.72034">
        <ele>1752.6</ele>
        <time>2026-06-27T07:13:08Z</time>
      </trkpt>
      <trkpt lat="46.11719" lon="6.72034">
        <ele>1752.6</ele>
        <time>2026-06-27T07:13:09Z</time>
      </trkpt>
      <trkpt lat="46.11718" lon="6.72035">
        <ele>1752.6</ele>
        <time>2026-06-27T07:13:10Z</time>
      </trkpt>
      <trkpt lat="46.11718" lon="6.72036">
        <ele>1752.7</ele>
        <time>2026-06-27T07:13:11Z</time>
      </trkpt>
      <trkpt lat="46.11717" lon="6.72036">
        <ele>1752.7</ele>
        <time>2026-06-27T07:13:12Z</time>
      </trkpt>
      <trkpt lat="46.11716" lon="6.72037">
        <ele>1752.9</ele>
        <time>2026-06-27T07:13:13Z</time>
      </trkpt>
      <trkpt lat="46.11715" lon="6.72037">
        <ele>1753</ele>
        <time>2026-06-27T07:13:14Z</time>
      </trkpt>
      <trkpt lat="46.11714" lon="6.72037">
        <ele>1753.1</ele>
        <time>2026-06-27T07:13:15Z</time>
      </trkpt>
      <trkpt lat="46.11712" lon="6.72038">
        <ele>1753.2</ele>
        <time>2026-06-27T07:13:16Z</time>
      </trkpt>
      <trkpt lat="46.11711" lon="6.72038">
        <ele>1753.3</ele>
        <time>2026-06-27T07:13:17Z</time>
      </trkpt>
      <trkpt lat="46.1171" lon="6.72038">
        <ele>1753.4</ele>
        <time>2026-06-27T07:13:18Z</time>
      </trkpt>
      <trkpt lat="46.11709" lon="6.72038">
        <ele>1753.6</ele>
        <time>2026-06-27T07:13:19Z</time>
      </trkpt>
      <trkpt lat="46.11708" lon="6.72038">
        <ele>1753.6</ele>
        <time>2026-06-27T07:13:20Z</time>
      </trkpt>
      <trkpt lat="46.11707" lon="6.72038">
        <ele>1753.7</ele>
        <time>2026-06-27T07:13:21Z</time>
      </trkpt>
      <trkpt lat="46.11706" lon="6.72038">
        <ele>1753.8</ele>
        <time>2026-06-27T07:13:22Z</time>
      </trkpt>
      <trkpt lat="46.11705" lon="6.72039">
        <ele>1753.8</ele>
        <time>2026-06-27T07:13:23Z</time>
      </trkpt>
      <trkpt lat="46.11704" lon="6.72039">
        <ele>1753.9</ele>
        <time>2026-06-27T07:13:24Z</time>
      </trkpt>
      <trkpt lat="46.11703" lon="6.72039">
        <ele>1753.9</ele>
        <time>2026-06-27T07:13:25Z</time>
      </trkpt>
      <trkpt lat="46.11702" lon="6.72038">
        <ele>1753.9</ele>
        <time>2026-06-27T07:13:26Z</time>
      </trkpt>
      <trkpt lat="46.11701" lon="6.72038">
        <ele>1753.9</ele>
        <time>2026-06-27T07:13:27Z</time>
      </trkpt>
      <trkpt lat="46.117" lon="6.72038">
        <ele>1754</ele>
        <time>2026-06-27T07:13:28Z</time>
      </trkpt>
      <trkpt lat="46.11699" lon="6.72039">
        <ele>1754.1</ele>
        <time>2026-06-27T07:13:29Z</time>
      </trkpt>
      <trkpt lat="46.11698" lon="6.72038">
        <ele>1754.2</ele>
        <time>2026-06-27T07:13:30Z</time>
      </trkpt>
      <trkpt lat="46.11697" lon="6.72038">
        <ele>1754.2</ele>
        <time>2026-06-27T07:13:31Z</time>
      </trkpt>
      <trkpt lat="46.11696" lon="6.72038">
        <ele>1754.2</ele>
        <time>2026-06-27T07:13:32Z</time>
      </trkpt>
      <trkpt lat="46.11695" lon="6.72038">
        <ele>1754.3</ele>
        <time>2026-06-27T07:13:33Z</time>
      </trkpt>
      <trkpt lat="46.11694" lon="6.72038">
        <ele>1754.3</ele>
        <time>2026-06-27T07:13:34Z</time>
      </trkpt>
      <trkpt lat="46.11693" lon="6.72038">
        <ele>1754.3</ele>
        <time>2026-06-27T07:13:35Z</time>
      </trkpt>
      <trkpt lat="46.11692" lon="6.72038">
        <ele>1754.3</ele>
        <time>2026-06-27T07:13:36Z</time>
      </trkpt>
      <trkpt lat="46.11691" lon="6.72038">
        <ele>1754.4</ele>
        <time>2026-06-27T07:13:37Z</time>
      </trkpt>
      <trkpt lat="46.1169" lon="6.72038">
        <ele>1754.4</ele>
        <time>2026-06-27T07:13:38Z</time>
      </trkpt>
      <trkpt lat="46.11689" lon="6.72038">
        <ele>1754.5</ele>
        <time>2026-06-27T07:13:39Z</time>
      </trkpt>
      <trkpt lat="46.11688" lon="6.72038">
        <ele>1754.5</ele>
        <time>2026-06-27T07:13:40Z</time>
      </trkpt>
      <trkpt lat="46.11687" lon="6.72038">
        <ele>1754.5</ele>
        <time>2026-06-27T07:13:41Z</time>
      </trkpt>
      <trkpt lat="46.11686" lon="6.72038">
        <ele>1754.7</ele>
        <time>2026-06-27T07:13:42Z</time>
      </trkpt>
      <trkpt lat="46.11685" lon="6.72039">
        <ele>1754.8</ele>
        <time>2026-06-27T07:13:43Z</time>
      </trkpt>
      <trkpt lat="46.11684" lon="6.72039">
        <ele>1754.9</ele>
        <time>2026-06-27T07:13:44Z</time>
      </trkpt>
      <trkpt lat="46.11682" lon="6.72039">
        <ele>1755</ele>
        <time>2026-06-27T07:13:45Z</time>
      </trkpt>
      <trkpt lat="46.11681" lon="6.72039">
        <ele>1755.1</ele>
        <time>2026-06-27T07:13:46Z</time>
      </trkpt>
      <trkpt lat="46.11681" lon="6.72039">
        <ele>1755.2</ele>
        <time>2026-06-27T07:13:47Z</time>
      </trkpt>
      <trkpt lat="46.1168" lon="6.72039">
        <ele>1755.3</ele>
        <time>2026-06-27T07:13:48Z</time>
      </trkpt>
      <trkpt lat="46.11679" lon="6.7204">
        <ele>1755.4</ele>
        <time>2026-06-27T07:13:49Z</time>
      </trkpt>
      <trkpt lat="46.11678" lon="6.7204">
        <ele>1755.5</ele>
        <time>2026-06-27T07:13:50Z</time>
      </trkpt>
      <trkpt lat="46.11677" lon="6.7204">
        <ele>1755.5</ele>
        <time>2026-06-27T07:13:51Z</time>
      </trkpt>
      <trkpt lat="46.11676" lon="6.72041">
        <ele>1755.7</ele>
        <time>2026-06-27T07:13:52Z</time>
      </trkpt>
      <trkpt lat="46.11675" lon="6.72041">
        <ele>1755.8</ele>
        <time>2026-06-27T07:13:53Z</time>
      </trkpt>
      <trkpt lat="46.11674" lon="6.72041">
        <ele>1755.9</ele>
        <time>2026-06-27T07:13:54Z</time>
      </trkpt>
      <trkpt lat="46.11673" lon="6.72041">
        <ele>1756</ele>
        <time>2026-06-27T07:13:55Z</time>
      </trkpt>
      <trkpt lat="46.11673" lon="6.72042">
        <ele>1756.2</ele>
        <time>2026-06-27T07:13:56Z</time>
      </trkpt>
      <trkpt lat="46.11672" lon="6.72042">
        <ele>1756.2</ele>
        <time>2026-06-27T07:13:57Z</time>
      </trkpt>
      <trkpt lat="46.11671" lon="6.72042">
        <ele>1756.3</ele>
        <time>2026-06-27T07:13:58Z</time>
      </trkpt>
      <trkpt lat="46.11669" lon="6.72043">
        <ele>1756.4</ele>
        <time>2026-06-27T07:13:59Z</time>
      </trkpt>
      <trkpt lat="46.11668" lon="6.72043">
        <ele>1756.5</ele>
        <time>2026-06-27T07:14:00Z</time>
      </trkpt>
      <trkpt lat="46.11667" lon="6.72043">
        <ele>1756.6</ele>
        <time>2026-06-27T07:14:01Z</time>
      </trkpt>
      <trkpt lat="46.11666" lon="6.72043">
        <ele>1756.7</ele>
        <time>2026-06-27T07:14:02Z</time>
      </trkpt>
      <trkpt lat="46.11665" lon="6.72043">
        <ele>1756.8</ele>
        <time>2026-06-27T07:14:03Z</time>
      </trkpt>
      <trkpt lat="46.11664" lon="6.72043">
        <ele>1756.9</ele>
        <time>2026-06-27T07:14:04Z</time>
      </trkpt>
      <trkpt lat="46.11663" lon="6.72043">
        <ele>1756.9</ele>
        <time>2026-06-27T07:14:05Z</time>
      </trkpt>
      <trkpt lat="46.11662" lon="6.72043">
        <ele>1757.1</ele>
        <time>2026-06-27T07:14:06Z</time>
      </trkpt>
      <trkpt lat="46.11661" lon="6.72044">
        <ele>1757.2</ele>
        <time>2026-06-27T07:14:07Z</time>
      </trkpt>
      <trkpt lat="46.1166" lon="6.72044">
        <ele>1757.2</ele>
        <time>2026-06-27T07:14:08Z</time>
      </trkpt>
      <trkpt lat="46.11658" lon="6.72044">
        <ele>1757.3</ele>
        <time>2026-06-27T07:14:09Z</time>
      </trkpt>
      <trkpt lat="46.11657" lon="6.72044">
        <ele>1757.4</ele>
        <time>2026-06-27T07:14:10Z</time>
      </trkpt>
      <trkpt lat="46.11656" lon="6.72044">
        <ele>1757.4</ele>
        <time>2026-06-27T07:14:11Z</time>
      </trkpt>
      <trkpt lat="46.11655" lon="6.72045">
        <ele>1757.5</ele>
        <time>2026-06-27T07:14:12Z</time>
      </trkpt>
      <trkpt lat="46.11654" lon="6.72045">
        <ele>1757.7</ele>
        <time>2026-06-27T07:14:13Z</time>
      </trkpt>
      <trkpt lat="46.11653" lon="6.72045">
        <ele>1757.9</ele>
        <time>2026-06-27T07:14:14Z</time>
      </trkpt>
      <trkpt lat="46.11652" lon="6.72046">
        <ele>1758</ele>
        <time>2026-06-27T07:14:15Z</time>
      </trkpt>
      <trkpt lat="46.11651" lon="6.72046">
        <ele>1758.2</ele>
        <time>2026-06-27T07:14:16Z</time>
      </trkpt>
      <trkpt lat="46.1165" lon="6.72046">
        <ele>1758.4</ele>
        <time>2026-06-27T07:14:17Z</time>
      </trkpt>
      <trkpt lat="46.11649" lon="6.72046">
        <ele>1758.5</ele>
        <time>2026-06-27T07:14:18Z</time>
      </trkpt>
      <trkpt lat="46.11648" lon="6.72046">
        <ele>1758.5</ele>
        <time>2026-06-27T07:14:19Z</time>
      </trkpt>
      <trkpt lat="46.11647" lon="6.72047">
        <ele>1758.6</ele>
        <time>2026-06-27T07:14:20Z</time>
      </trkpt>
      <trkpt lat="46.11646" lon="6.72047">
        <ele>1758.8</ele>
        <time>2026-06-27T07:14:21Z</time>
      </trkpt>
      <trkpt lat="46.11645" lon="6.72047">
        <ele>1758.9</ele>
        <time>2026-06-27T07:14:22Z</time>
      </trkpt>
      <trkpt lat="46.11644" lon="6.72048">
        <ele>1759.1</ele>
        <time>2026-06-27T07:14:23Z</time>
      </trkpt>
      <trkpt lat="46.11643" lon="6.72048">
        <ele>1759.2</ele>
        <time>2026-06-27T07:14:24Z</time>
      </trkpt>
      <trkpt lat="46.11642" lon="6.72048">
        <ele>1759.2</ele>
        <time>2026-06-27T07:14:25Z</time>
      </trkpt>
      <trkpt lat="46.11641" lon="6.72048">
        <ele>1759.3</ele>
        <time>2026-06-27T07:14:26Z</time>
      </trkpt>
      <trkpt lat="46.1164" lon="6.72049">
        <ele>1759.4</ele>
        <time>2026-06-27T07:14:27Z</time>
      </trkpt>
      <trkpt lat="46.11639" lon="6.72049">
        <ele>1759.5</ele>
        <time>2026-06-27T07:14:28Z</time>
      </trkpt>
      <trkpt lat="46.11638" lon="6.72049">
        <ele>1759.7</ele>
        <time>2026-06-27T07:14:29Z</time>
      </trkpt>
      <trkpt lat="46.11637" lon="6.72049">
        <ele>1759.8</ele>
        <time>2026-06-27T07:14:30Z</time>
      </trkpt>
      <trkpt lat="46.11636" lon="6.72048">
        <ele>1759.9</ele>
        <time>2026-06-27T07:14:31Z</time>
      </trkpt>
      <trkpt lat="46.11635" lon="6.72048">
        <ele>1760.1</ele>
        <time>2026-06-27T07:14:32Z</time>
      </trkpt>
      <trkpt lat="46.11634" lon="6.72048">
        <ele>1760.2</ele>
        <time>2026-06-27T07:14:33Z</time>
      </trkpt>
      <trkpt lat="46.11633" lon="6.72048">
        <ele>1760.3</ele>
        <time>2026-06-27T07:14:34Z</time>
      </trkpt>
      <trkpt lat="46.11632" lon="6.72049">
        <ele>1760.4</ele>
        <time>2026-06-27T07:14:35Z</time>
      </trkpt>
      <trkpt lat="46.11631" lon="6.72049">
        <ele>1760.5</ele>
        <time>2026-06-27T07:14:36Z</time>
      </trkpt>
      <trkpt lat="46.1163" lon="6.72049">
        <ele>1760.6</ele>
        <time>2026-06-27T07:14:37Z</time>
      </trkpt>
      <trkpt lat="46.11629" lon="6.72049">
        <ele>1760.6</ele>
        <time>2026-06-27T07:14:38Z</time>
      </trkpt>
      <trkpt lat="46.11628" lon="6.7205">
        <ele>1760.7</ele>
        <time>2026-06-27T07:14:39Z</time>
      </trkpt>
      <trkpt lat="46.11627" lon="6.7205">
        <ele>1760.8</ele>
        <time>2026-06-27T07:14:40Z</time>
      </trkpt>
      <trkpt lat="46.11626" lon="6.7205">
        <ele>1760.9</ele>
        <time>2026-06-27T07:14:41Z</time>
      </trkpt>
      <trkpt lat="46.11625" lon="6.72051">
        <ele>1760.9</ele>
        <time>2026-06-27T07:14:42Z</time>
      </trkpt>
      <trkpt lat="46.11625" lon="6.72051">
        <ele>1761.1</ele>
        <time>2026-06-27T07:14:43Z</time>
      </trkpt>
      <trkpt lat="46.11623" lon="6.72051">
        <ele>1761.2</ele>
        <time>2026-06-27T07:14:44Z</time>
      </trkpt>
      <trkpt lat="46.11623" lon="6.72051">
        <ele>1761.3</ele>
        <time>2026-06-27T07:14:45Z</time>
      </trkpt>
      <trkpt lat="46.11622" lon="6.72051">
        <ele>1761.4</ele>
        <time>2026-06-27T07:14:46Z</time>
      </trkpt>
      <trkpt lat="46.11621" lon="6.72051">
        <ele>1761.5</ele>
        <time>2026-06-27T07:14:47Z</time>
      </trkpt>
      <trkpt lat="46.1162" lon="6.72051">
        <ele>1761.7</ele>
        <time>2026-06-27T07:14:48Z</time>
      </trkpt>
      <trkpt lat="46.11619" lon="6.72051">
        <ele>1761.8</ele>
        <time>2026-06-27T07:14:49Z</time>
      </trkpt>
      <trkpt lat="46.11618" lon="6.72051">
        <ele>1761.9</ele>
        <time>2026-06-27T07:14:50Z</time>
      </trkpt>
      <trkpt lat="46.11617" lon="6.72052">
        <ele>1762</ele>
        <time>2026-06-27T07:14:51Z</time>
      </trkpt>
      <trkpt lat="46.11616" lon="6.72052">
        <ele>1762.1</ele>
        <time>2026-06-27T07:14:52Z</time>
      </trkpt>
      <trkpt lat="46.11615" lon="6.72052">
        <ele>1762.2</ele>
        <time>2026-06-27T07:14:53Z</time>
      </trkpt>
      <trkpt lat="46.11614" lon="6.72052">
        <ele>1762.3</ele>
        <time>2026-06-27T07:14:54Z</time>
      </trkpt>
      <trkpt lat="46.11613" lon="6.72052">
        <ele>1762.4</ele>
        <time>2026-06-27T07:14:55Z</time>
      </trkpt>
      <trkpt lat="46.11612" lon="6.72053">
        <ele>1762.4</ele>
        <time>2026-06-27T07:14:56Z</time>
      </trkpt>
      <trkpt lat="46.11611" lon="6.72053">
        <ele>1762.6</ele>
        <time>2026-06-27T07:14:57Z</time>
      </trkpt>
      <trkpt lat="46.1161" lon="6.72054">
        <ele>1762.8</ele>
        <time>2026-06-27T07:14:58Z</time>
      </trkpt>
      <trkpt lat="46.11609" lon="6.72054">
        <ele>1762.8</ele>
        <time>2026-06-27T07:14:59Z</time>
      </trkpt>
      <trkpt lat="46.11608" lon="6.72054">
        <ele>1763</ele>
        <time>2026-06-27T07:15:00Z</time>
      </trkpt>
      <trkpt lat="46.11607" lon="6.72054">
        <ele>1763.1</ele>
        <time>2026-06-27T07:15:01Z</time>
      </trkpt>
      <trkpt lat="46.11606" lon="6.72053">
        <ele>1763.2</ele>
        <time>2026-06-27T07:15:02Z</time>
      </trkpt>
      <trkpt lat="46.11605" lon="6.72053">
        <ele>1763.4</ele>
        <time>2026-06-27T07:15:03Z</time>
      </trkpt>
      <trkpt lat="46.11604" lon="6.72053">
        <ele>1763.5</ele>
        <time>2026-06-27T07:15:04Z</time>
      </trkpt>
      <trkpt lat="46.11603" lon="6.72053">
        <ele>1763.7</ele>
        <time>2026-06-27T07:15:05Z</time>
      </trkpt>
      <trkpt lat="46.11603" lon="6.72053">
        <ele>1763.8</ele>
        <time>2026-06-27T07:15:06Z</time>
      </trkpt>
      <trkpt lat="46.11602" lon="6.72053">
        <ele>1763.9</ele>
        <time>2026-06-27T07:15:07Z</time>
      </trkpt>
      <trkpt lat="46.11601" lon="6.72052">
        <ele>1764</ele>
        <time>2026-06-27T07:15:08Z</time>
      </trkpt>
      <trkpt lat="46.116" lon="6.72052">
        <ele>1764.1</ele>
        <time>2026-06-27T07:15:09Z</time>
      </trkpt>
      <trkpt lat="46.11599" lon="6.72053">
        <ele>1764.3</ele>
        <time>2026-06-27T07:15:10Z</time>
      </trkpt>
      <trkpt lat="46.11598" lon="6.72053">
        <ele>1764.5</ele>
        <time>2026-06-27T07:15:11Z</time>
      </trkpt>
      <trkpt lat="46.11597" lon="6.72053">
        <ele>1764.7</ele>
        <time>2026-06-27T07:15:12Z</time>
      </trkpt>
      <trkpt lat="46.11596" lon="6.72052">
        <ele>1764.9</ele>
        <time>2026-06-27T07:15:13Z</time>
      </trkpt>
      <trkpt lat="46.11595" lon="6.72052">
        <ele>1765</ele>
        <time>2026-06-27T07:15:14Z</time>
      </trkpt>
      <trkpt lat="46.11594" lon="6.72052">
        <ele>1765</ele>
        <time>2026-06-27T07:15:15Z</time>
      </trkpt>
      <trkpt lat="46.11593" lon="6.72052">
        <ele>1765.1</ele>
        <time>2026-06-27T07:15:16Z</time>
      </trkpt>
      <trkpt lat="46.11592" lon="6.72052">
        <ele>1765.2</ele>
        <time>2026-06-27T07:15:17Z</time>
      </trkpt>
      <trkpt lat="46.11591" lon="6.72052">
        <ele>1765.3</ele>
        <time>2026-06-27T07:15:18Z</time>
      </trkpt>
      <trkpt lat="46.1159" lon="6.72052">
        <ele>1765.4</ele>
        <time>2026-06-27T07:15:19Z</time>
      </trkpt>
      <trkpt lat="46.11589" lon="6.72051">
        <ele>1765.6</ele>
        <time>2026-06-27T07:15:20Z</time>
      </trkpt>
      <trkpt lat="46.11588" lon="6.72052">
        <ele>1765.7</ele>
        <time>2026-06-27T07:15:21Z</time>
      </trkpt>
      <trkpt lat="46.11588" lon="6.72052">
        <ele>1765.8</ele>
        <time>2026-06-27T07:15:22Z</time>
      </trkpt>
      <trkpt lat="46.11587" lon="6.72051">
        <ele>1765.9</ele>
        <time>2026-06-27T07:15:23Z</time>
      </trkpt>
      <trkpt lat="46.11586" lon="6.72051">
        <ele>1766</ele>
        <time>2026-06-27T07:15:24Z</time>
      </trkpt>
      <trkpt lat="46.11585" lon="6.72051">
        <ele>1766</ele>
        <time>2026-06-27T07:15:25Z</time>
      </trkpt>
      <trkpt lat="46.11584" lon="6.72051">
        <ele>1766.1</ele>
        <time>2026-06-27T07:15:26Z</time>
      </trkpt>
      <trkpt lat="46.11584" lon="6.72051">
        <ele>1766.2</ele>
        <time>2026-06-27T07:15:27Z</time>
      </trkpt>
      <trkpt lat="46.11583" lon="6.72051">
        <ele>1766.3</ele>
        <time>2026-06-27T07:15:28Z</time>
      </trkpt>
      <trkpt lat="46.11583" lon="6.72051">
        <ele>1766.4</ele>
        <time>2026-06-27T07:15:29Z</time>
      </trkpt>
      <trkpt lat="46.11583" lon="6.72051">
        <ele>1766.5</ele>
        <time>2026-06-27T07:15:30Z</time>
      </trkpt>
      <trkpt lat="46.11583" lon="6.7205">
        <ele>1766.6</ele>
        <time>2026-06-27T07:15:31Z</time>
      </trkpt>
      <trkpt lat="46.11582" lon="6.7205">
        <ele>1766.6</ele>
        <time>2026-06-27T07:15:32Z</time>
      </trkpt>
      <trkpt lat="46.11581" lon="6.72049">
        <ele>1766.7</ele>
        <time>2026-06-27T07:15:33Z</time>
      </trkpt>
      <trkpt lat="46.1158" lon="6.72049">
        <ele>1766.7</ele>
        <time>2026-06-27T07:15:34Z</time>
      </trkpt>
      <trkpt lat="46.11579" lon="6.72049">
        <ele>1766.7</ele>
        <time>2026-06-27T07:15:35Z</time>
      </trkpt>
      <trkpt lat="46.11578" lon="6.72049">
        <ele>1766.7</ele>
        <time>2026-06-27T07:15:36Z</time>
      </trkpt>
      <trkpt lat="46.11577" lon="6.72048">
        <ele>1766.9</ele>
        <time>2026-06-27T07:15:37Z</time>
      </trkpt>
      <trkpt lat="46.11577" lon="6.72048">
        <ele>1767</ele>
        <time>2026-06-27T07:15:38Z</time>
      </trkpt>
      <trkpt lat="46.11575" lon="6.72048">
        <ele>1767</ele>
        <time>2026-06-27T07:15:39Z</time>
      </trkpt>
      <trkpt lat="46.11575" lon="6.72047">
        <ele>1767.1</ele>
        <time>2026-06-27T07:15:40Z</time>
      </trkpt>
      <trkpt lat="46.11574" lon="6.72047">
        <ele>1767.2</ele>
        <time>2026-06-27T07:15:41Z</time>
      </trkpt>
      <trkpt lat="46.11572" lon="6.72047">
        <ele>1767.3</ele>
        <time>2026-06-27T07:15:42Z</time>
      </trkpt>
      <trkpt lat="46.11571" lon="6.72046">
        <ele>1767.3</ele>
        <time>2026-06-27T07:15:43Z</time>
      </trkpt>
      <trkpt lat="46.11571" lon="6.72047">
        <ele>1767.3</ele>
        <time>2026-06-27T07:15:44Z</time>
      </trkpt>
      <trkpt lat="46.11569" lon="6.72047">
        <ele>1767.3</ele>
        <time>2026-06-27T07:15:45Z</time>
      </trkpt>
      <trkpt lat="46.11568" lon="6.72047">
        <ele>1767.4</ele>
        <time>2026-06-27T07:15:46Z</time>
      </trkpt>
      <trkpt lat="46.11567" lon="6.72047">
        <ele>1767.5</ele>
        <time>2026-06-27T07:15:47Z</time>
      </trkpt>
      <trkpt lat="46.11566" lon="6.72047">
        <ele>1767.5</ele>
        <time>2026-06-27T07:15:48Z</time>
      </trkpt>
      <trkpt lat="46.11565" lon="6.72047">
        <ele>1767.7</ele>
        <time>2026-06-27T07:15:49Z</time>
      </trkpt>
      <trkpt lat="46.11565" lon="6.72046">
        <ele>1767.8</ele>
        <time>2026-06-27T07:15:50Z</time>
      </trkpt>
      <trkpt lat="46.11564" lon="6.72046">
        <ele>1767.9</ele>
        <time>2026-06-27T07:15:51Z</time>
      </trkpt>
      <trkpt lat="46.11563" lon="6.72045">
        <ele>1768</ele>
        <time>2026-06-27T07:15:52Z</time>
      </trkpt>
      <trkpt lat="46.11562" lon="6.72045">
        <ele>1768.1</ele>
        <time>2026-06-27T07:15:53Z</time>
      </trkpt>
      <trkpt lat="46.11561" lon="6.72044">
        <ele>1768.2</ele>
        <time>2026-06-27T07:15:54Z</time>
      </trkpt>
      <trkpt lat="46.1156" lon="6.72044">
        <ele>1768.4</ele>
        <time>2026-06-27T07:15:55Z</time>
      </trkpt>
      <trkpt lat="46.11559" lon="6.72043">
        <ele>1768.6</ele>
        <time>2026-06-27T07:15:56Z</time>
      </trkpt>
      <trkpt lat="46.11558" lon="6.72043">
        <ele>1768.7</ele>
        <time>2026-06-27T07:15:57Z</time>
      </trkpt>
      <trkpt lat="46.11558" lon="6.72042">
        <ele>1768.8</ele>
        <time>2026-06-27T07:15:58Z</time>
      </trkpt>
      <trkpt lat="46.11557" lon="6.72042">
        <ele>1768.9</ele>
        <time>2026-06-27T07:15:59Z</time>
      </trkpt>
      <trkpt lat="46.11557" lon="6.72041">
        <ele>1769.1</ele>
        <time>2026-06-27T07:16:00Z</time>
      </trkpt>
      <trkpt lat="46.11556" lon="6.7204">
        <ele>1769.2</ele>
        <time>2026-06-27T07:16:01Z</time>
      </trkpt>
      <trkpt lat="46.11556" lon="6.7204">
        <ele>1769.3</ele>
        <time>2026-06-27T07:16:02Z</time>
      </trkpt>
      <trkpt lat="46.11555" lon="6.7204">
        <ele>1769.4</ele>
        <time>2026-06-27T07:16:03Z</time>
      </trkpt>
      <trkpt lat="46.11555" lon="6.7204">
        <ele>1769.5</ele>
        <time>2026-06-27T07:16:04Z</time>
      </trkpt>
      <trkpt lat="46.11554" lon="6.72039">
        <ele>1769.6</ele>
        <time>2026-06-27T07:16:05Z</time>
      </trkpt>
      <trkpt lat="46.11553" lon="6.72038">
        <ele>1769.7</ele>
        <time>2026-06-27T07:16:06Z</time>
      </trkpt>
      <trkpt lat="46.11552" lon="6.72038">
        <ele>1769.8</ele>
        <time>2026-06-27T07:16:07Z</time>
      </trkpt>
      <trkpt lat="46.11552" lon="6.72037">
        <ele>1770</ele>
        <time>2026-06-27T07:16:08Z</time>
      </trkpt>
      <trkpt lat="46.11551" lon="6.72037">
        <ele>1770.1</ele>
        <time>2026-06-27T07:16:09Z</time>
      </trkpt>
      <trkpt lat="46.11551" lon="6.72036">
        <ele>1770.3</ele>
        <time>2026-06-27T07:16:10Z</time>
      </trkpt>
      <trkpt lat="46.1155" lon="6.72036">
        <ele>1770.5</ele>
        <time>2026-06-27T07:16:11Z</time>
      </trkpt>
      <trkpt lat="46.11549" lon="6.72036">
        <ele>1770.7</ele>
        <time>2026-06-27T07:16:12Z</time>
      </trkpt>
      <trkpt lat="46.11549" lon="6.72036">
        <ele>1770.9</ele>
        <time>2026-06-27T07:16:13Z</time>
      </trkpt>
      <trkpt lat="46.11548" lon="6.72035">
        <ele>1771</ele>
        <time>2026-06-27T07:16:14Z</time>
      </trkpt>
      <trkpt lat="46.11547" lon="6.72035">
        <ele>1771.1</ele>
        <time>2026-06-27T07:16:15Z</time>
      </trkpt>
      <trkpt lat="46.11546" lon="6.72035">
        <ele>1771.2</ele>
        <time>2026-06-27T07:16:16Z</time>
      </trkpt>
      <trkpt lat="46.11546" lon="6.72034">
        <ele>1771.3</ele>
        <time>2026-06-27T07:16:17Z</time>
      </trkpt>
      <trkpt lat="46.11545" lon="6.72034">
        <ele>1771.4</ele>
        <time>2026-06-27T07:16:18Z</time>
      </trkpt>
      <trkpt lat="46.11545" lon="6.72033">
        <ele>1771.5</ele>
        <time>2026-06-27T07:16:19Z</time>
      </trkpt>
      <trkpt lat="46.11544" lon="6.72033">
        <ele>1771.6</ele>
        <time>2026-06-27T07:16:20Z</time>
      </trkpt>
      <trkpt lat="46.11544" lon="6.72033">
        <ele>1771.6</ele>
        <time>2026-06-27T07:16:21Z</time>
      </trkpt>
      <trkpt lat="46.11543" lon="6.72033">
        <ele>1771.7</ele>
        <time>2026-06-27T07:16:22Z</time>
      </trkpt>
      <trkpt lat="46.11542" lon="6.72034">
        <ele>1771.7</ele>
        <time>2026-06-27T07:16:23Z</time>
      </trkpt>
      <trkpt lat="46.11542" lon="6.72035">
        <ele>1771.8</ele>
        <time>2026-06-27T07:16:24Z</time>
      </trkpt>
      <trkpt lat="46.11542" lon="6.72035">
        <ele>1772</ele>
        <time>2026-06-27T07:16:25Z</time>
      </trkpt>
      <trkpt lat="46.11542" lon="6.72035">
        <ele>1772.1</ele>
        <time>2026-06-27T07:16:26Z</time>
      </trkpt>
      <trkpt lat="46.11542" lon="6.72035">
        <ele>1772.3</ele>
        <time>2026-06-27T07:16:27Z</time>
      </trkpt>
      <trkpt lat="46.11541" lon="6.72035">
        <ele>1772.4</ele>
        <time>2026-06-27T07:16:28Z</time>
      </trkpt>
      <trkpt lat="46.11541" lon="6.72035">
        <ele>1772.4</ele>
        <time>2026-06-27T07:16:29Z</time>
      </trkpt>
      <trkpt lat="46.11541" lon="6.72035">
        <ele>1772.4</ele>
        <time>2026-06-27T07:16:30Z</time>
      </trkpt>
      <trkpt lat="46.11541" lon="6.72035">
        <ele>1772.5</ele>
        <time>2026-06-27T07:16:31Z</time>
      </trkpt>
      <trkpt lat="46.11541" lon="6.72035">
        <ele>1772.5</ele>
        <time>2026-06-27T07:16:32Z</time>
      </trkpt>
      <trkpt lat="46.11541" lon="6.72036">
        <ele>1772.5</ele>
        <time>2026-06-27T07:16:33Z</time>
      </trkpt>
      <trkpt lat="46.1154" lon="6.72037">
        <ele>1772.5</ele>
        <time>2026-06-27T07:16:34Z</time>
      </trkpt>
      <trkpt lat="46.1154" lon="6.72038">
        <ele>1772.5</ele>
        <time>2026-06-27T07:16:35Z</time>
      </trkpt>
      <trkpt lat="46.11539" lon="6.72039">
        <ele>1772.5</ele>
        <time>2026-06-27T07:16:36Z</time>
      </trkpt>
      <trkpt lat="46.11539" lon="6.7204">
        <ele>1772.7</ele>
        <time>2026-06-27T07:16:37Z</time>
      </trkpt>
      <trkpt lat="46.11539" lon="6.72041">
        <ele>1772.7</ele>
        <time>2026-06-27T07:16:38Z</time>
      </trkpt>
      <trkpt lat="46.11538" lon="6.72042">
        <ele>1772.7</ele>
        <time>2026-06-27T07:16:39Z</time>
      </trkpt>
      <trkpt lat="46.11538" lon="6.72043">
        <ele>1772.8</ele>
        <time>2026-06-27T07:16:40Z</time>
      </trkpt>
      <trkpt lat="46.11537" lon="6.72044">
        <ele>1772.8</ele>
        <time>2026-06-27T07:16:41Z</time>
      </trkpt>
      <trkpt lat="46.11537" lon="6.72045">
        <ele>1772.8</ele>
        <time>2026-06-27T07:16:42Z</time>
      </trkpt>
      <trkpt lat="46.11537" lon="6.72046">
        <ele>1772.9</ele>
        <time>2026-06-27T07:16:43Z</time>
      </trkpt>
      <trkpt lat="46.11536" lon="6.72046">
        <ele>1773</ele>
        <time>2026-06-27T07:16:44Z</time>
      </trkpt>
      <trkpt lat="46.11536" lon="6.72046">
        <ele>1773</ele>
        <time>2026-06-27T07:16:45Z</time>
      </trkpt>
      <trkpt lat="46.11536" lon="6.72046">
        <ele>1772.9</ele>
        <time>2026-06-27T07:16:46Z</time>
      </trkpt>
      <trkpt lat="46.11536" lon="6.72046">
        <ele>1773</ele>
        <time>2026-06-27T07:16:47Z</time>
      </trkpt>
      <trkpt lat="46.11536" lon="6.72046">
        <ele>1773.1</ele>
        <time>2026-06-27T07:16:48Z</time>
      </trkpt>
      <trkpt lat="46.11536" lon="6.72046">
        <ele>1773</ele>
        <time>2026-06-27T07:16:49Z</time>
      </trkpt>
      <trkpt lat="46.11536" lon="6.72046">
        <ele>1773</ele>
        <time>2026-06-27T07:16:50Z</time>
      </trkpt>
      <trkpt lat="46.11536" lon="6.72046">
        <ele>1773</ele>
        <time>2026-06-27T07:16:51Z</time>
      </trkpt>
      <trkpt lat="46.11536" lon="6.72046">
        <ele>1773</ele>
        <time>2026-06-27T07:16:52Z</time>
      </trkpt>
      <trkpt lat="46.11535" lon="6.72046">
        <ele>1773</ele>
        <time>2026-06-27T07:16:53Z</time>
      </trkpt>
      <trkpt lat="46.11534" lon="6.72045">
        <ele>1773</ele>
        <time>2026-06-27T07:16:54Z</time>
      </trkpt>
      <trkpt lat="46.11534" lon="6.72045">
        <ele>1773</ele>
        <time>2026-06-27T07:16:55Z</time>
      </trkpt>
      <trkpt lat="46.11534" lon="6.72045">
        <ele>1773</ele>
        <time>2026-06-27T07:16:56Z</time>
      </trkpt>
      <trkpt lat="46.11533" lon="6.72046">
        <ele>1773</ele>
        <time>2026-06-27T07:16:57Z</time>
      </trkpt>
      <trkpt lat="46.11533" lon="6.72046">
        <ele>1773</ele>
        <time>2026-06-27T07:16:58Z</time>
      </trkpt>
      <trkpt lat="46.11533" lon="6.72046">
        <ele>1773</ele>
        <time>2026-06-27T07:16:59Z</time>
      </trkpt>
      <trkpt lat="46.11533" lon="6.72046">
        <ele>1772.9</ele>
        <time>2026-06-27T07:17:00Z</time>
      </trkpt>
      <trkpt lat="46.11533" lon="6.72046">
        <ele>1772.9</ele>
        <time>2026-06-27T07:17:01Z</time>
      </trkpt>
      <trkpt lat="46.11533" lon="6.72046">
        <ele>1773</ele>
        <time>2026-06-27T07:17:02Z</time>
      </trkpt>
      <trkpt lat="46.11533" lon="6.72046">
        <ele>1773.1</ele>
        <time>2026-06-27T07:17:03Z</time>
      </trkpt>
      <trkpt lat="46.11533" lon="6.72046">
        <ele>1773.1</ele>
        <time>2026-06-27T07:17:04Z</time>
      </trkpt>
      <trkpt lat="46.11533" lon="6.72046">
        <ele>1773.1</ele>
        <time>2026-06-27T07:17:05Z</time>
      </trkpt>
      <trkpt lat="46.11533" lon="6.72046">
        <ele>1773</ele>
        <time>2026-06-27T07:17:06Z</time>
      </trkpt>
      <trkpt lat="46.11533" lon="6.72046">
        <ele>1773</ele>
        <time>2026-06-27T07:17:07Z</time>
      </trkpt>
      <trkpt lat="46.11533" lon="6.72046">
        <ele>1773</ele>
        <time>2026-06-27T07:17:08Z</time>
      </trkpt>
      <trkpt lat="46.11533" lon="6.72046">
        <ele>1773</ele>
        <time>2026-06-27T07:17:09Z</time>
      </trkpt>
      <trkpt lat="46.11533" lon="6.72046">
        <ele>1773</ele>
        <time>2026-06-27T07:17:10Z</time>
      </trkpt>
      <trkpt lat="46.11533" lon="6.72046">
        <ele>1773</ele>
        <time>2026-06-27T07:17:11Z</time>
      </trkpt>
      <trkpt lat="46.11533" lon="6.72046">
        <ele>1773</ele>
        <time>2026-06-27T07:17:12Z</time>
      </trkpt>
      <trkpt lat="46.11533" lon="6.72046">
        <ele>1772.9</ele>
        <time>2026-06-27T07:17:13Z</time>
      </trkpt>
      <trkpt lat="46.11533" lon="6.72046">
        <ele>1773</ele>
        <time>2026-06-27T07:17:14Z</time>
      </trkpt>
      <trkpt lat="46.11533" lon="6.72046">
        <ele>1773</ele>
        <time>2026-06-27T07:17:15Z</time>
      </trkpt>
      <trkpt lat="46.11533" lon="6.72046">
        <ele>1773</ele>
        <time>2026-06-27T07:17:16Z</time>
      </trkpt>
      <trkpt lat="46.11533" lon="6.72046">
        <ele>1772.9</ele>
        <time>2026-06-27T07:17:17Z</time>
      </trkpt>
      <trkpt lat="46.11533" lon="6.72046">
        <ele>1772.9</ele>
        <time>2026-06-27T07:17:18Z</time>
      </trkpt>
      <trkpt lat="46.11533" lon="6.72046">
        <ele>1773</ele>
        <time>2026-06-27T07:17:19Z</time>
      </trkpt>
      <trkpt lat="46.11533" lon="6.72046">
        <ele>1773</ele>
        <time>2026-06-27T07:17:20Z</time>
      </trkpt>
      <trkpt lat="46.11532" lon="6.72046">
        <ele>1772.9</ele>
        <time>2026-06-27T07:17:21Z</time>
      </trkpt>
      <trkpt lat="46.11532" lon="6.72046">
        <ele>1772.9</ele>
        <time>2026-06-27T07:17:22Z</time>
      </trkpt>
      <trkpt lat="46.11532" lon="6.72046">
        <ele>1772.9</ele>
        <time>2026-06-27T07:17:23Z</time>
      </trkpt>
      <trkpt lat="46.11533" lon="6.72046">
        <ele>1772.9</ele>
        <time>2026-06-27T07:17:24Z</time>
      </trkpt>
      <trkpt lat="46.11533" lon="6.72046">
        <ele>1772.9</ele>
        <time>2026-06-27T07:17:25Z</time>
      </trkpt>
      <trkpt lat="46.11533" lon="6.72046">
        <ele>1772.9</ele>
        <time>2026-06-27T07:17:26Z</time>
      </trkpt>
      <trkpt lat="46.11532" lon="6.72046">
        <ele>1772.8</ele>
        <time>2026-06-27T07:17:27Z</time>
      </trkpt>
      <trkpt lat="46.11532" lon="6.72046">
        <ele>1772.8</ele>
        <time>2026-06-27T07:17:28Z</time>
      </trkpt>
      <trkpt lat="46.11532" lon="6.72046">
        <ele>1772.8</ele>
        <time>2026-06-27T07:17:29Z</time>
      </trkpt>
      <trkpt lat="46.11532" lon="6.72046">
        <ele>1772.8</ele>
        <time>2026-06-27T07:17:30Z</time>
      </trkpt>
      <trkpt lat="46.11532" lon="6.72046">
        <ele>1772.8</ele>
        <time>2026-06-27T07:17:31Z</time>
      </trkpt>
      <trkpt lat="46.11532" lon="6.72046">
        <ele>1772.8</ele>
        <time>2026-06-27T07:17:32Z</time>
      </trkpt>
      <trkpt lat="46.11532" lon="6.72046">
        <ele>1772.8</ele>
        <time>2026-06-27T07:17:33Z</time>
      </trkpt>
      <trkpt lat="46.11532" lon="6.72046">
        <ele>1772.8</ele>
        <time>2026-06-27T07:17:34Z</time>
      </trkpt>
      <trkpt lat="46.11532" lon="6.72046">
        <ele>1772.8</ele>
        <time>2026-06-27T07:17:35Z</time>
      </trkpt>
      <trkpt lat="46.11532" lon="6.72046">
        <ele>1772.8</ele>
        <time>2026-06-27T07:17:36Z</time>
      </trkpt>
      <trkpt lat="46.11532" lon="6.72045">
        <ele>1772.7</ele>
        <time>2026-06-27T07:17:37Z</time>
      </trkpt>
      <trkpt lat="46.11532" lon="6.72045">
        <ele>1772.7</ele>
        <time>2026-06-27T07:17:38Z</time>
      </trkpt>
      <trkpt lat="46.11532" lon="6.72045">
        <ele>1772.8</ele>
        <time>2026-06-27T07:17:39Z</time>
      </trkpt>
      <trkpt lat="46.11532" lon="6.72045">
        <ele>1772.8</ele>
        <time>2026-06-27T07:17:40Z</time>
      </trkpt>
      <trkpt lat="46.11532" lon="6.72045">
        <ele>1772.8</ele>
        <time>2026-06-27T07:17:41Z</time>
      </trkpt>
      <trkpt lat="46.11532" lon="6.72045">
        <ele>1772.8</ele>
        <time>2026-06-27T07:17:42Z</time>
      </trkpt>
      <trkpt lat="46.11532" lon="6.72045">
        <ele>1772.8</ele>
        <time>2026-06-27T07:17:43Z</time>
      </trkpt>
      <trkpt lat="46.11532" lon="6.72045">
        <ele>1772.8</ele>
        <time>2026-06-27T07:17:44Z</time>
      </trkpt>
      <trkpt lat="46.11532" lon="6.72045">
        <ele>1772.8</ele>
        <time>2026-06-27T07:17:45Z</time>
      </trkpt>
      <trkpt lat="46.11532" lon="6.72045">
        <ele>1772.8</ele>
        <time>2026-06-27T07:17:46Z</time>
      </trkpt>
      <trkpt lat="46.11532" lon="6.72045">
        <ele>1772.8</ele>
        <time>2026-06-27T07:17:47Z</time>
      </trkpt>
      <trkpt lat="46.11532" lon="6.72045">
        <ele>1772.8</ele>
        <time>2026-06-27T07:17:48Z</time>
      </trkpt>
      <trkpt lat="46.11532" lon="6.72045">
        <ele>1772.9</ele>
        <time>2026-06-27T07:17:49Z</time>
      </trkpt>
      <trkpt lat="46.11532" lon="6.72045">
        <ele>1772.9</ele>
        <time>2026-06-27T07:17:50Z</time>
      </trkpt>
      <trkpt lat="46.11532" lon="6.72045">
        <ele>1772.9</ele>
        <time>2026-06-27T07:17:51Z</time>
      </trkpt>
      <trkpt lat="46.11532" lon="6.72045">
        <ele>1772.9</ele>
        <time>2026-06-27T07:17:52Z</time>
      </trkpt>
      <trkpt lat="46.11532" lon="6.72045">
        <ele>1773</ele>
        <time>2026-06-27T07:17:53Z</time>
      </trkpt>
      <trkpt lat="46.11532" lon="6.72045">
        <ele>1773</ele>
        <time>2026-06-27T07:17:54Z</time>
      </trkpt>
      <trkpt lat="46.11532" lon="6.72045">
        <ele>1772.9</ele>
        <time>2026-06-27T07:17:55Z</time>
      </trkpt>
      <trkpt lat="46.11532" lon="6.72045">
        <ele>1772.9</ele>
        <time>2026-06-27T07:17:56Z</time>
      </trkpt>
      <trkpt lat="46.11532" lon="6.72045">
        <ele>1772.9</ele>
        <time>2026-06-27T07:17:57Z</time>
      </trkpt>
      <trkpt lat="46.11532" lon="6.72046">
        <ele>1772.9</ele>
        <time>2026-06-27T07:17:58Z</time>
      </trkpt>
      <trkpt lat="46.11532" lon="6.72046">
        <ele>1773</ele>
        <time>2026-06-27T07:17:59Z</time>
      </trkpt>
      <trkpt lat="46.11532" lon="6.72046">
        <ele>1773</ele>
        <time>2026-06-27T07:18:00Z</time>
      </trkpt>
      <trkpt lat="46.11532" lon="6.72046">
        <ele>1773</ele>
        <time>2026-06-27T07:18:01Z</time>
      </trkpt>
      <trkpt lat="46.11532" lon="6.72046">
        <ele>1773</ele>
        <time>2026-06-27T07:18:02Z</time>
      </trkpt>
      <trkpt lat="46.11532" lon="6.72046">
        <ele>1773</ele>
        <time>2026-06-27T07:18:03Z</time>
      </trkpt>
      <trkpt lat="46.11532" lon="6.72046">
        <ele>1773.1</ele>
        <time>2026-06-27T07:18:04Z</time>
      </trkpt>
      <trkpt lat="46.11532" lon="6.72046">
        <ele>1773.2</ele>
        <time>2026-06-27T07:18:05Z</time>
      </trkpt>
      <trkpt lat="46.11532" lon="6.72046">
        <ele>1773.2</ele>
        <time>2026-06-27T07:18:06Z</time>
      </trkpt>
      <trkpt lat="46.11532" lon="6.72045">
        <ele>1773.2</ele>
        <time>2026-06-27T07:18:07Z</time>
      </trkpt>
      <trkpt lat="46.11532" lon="6.72045">
        <ele>1773.2</ele>
        <time>2026-06-27T07:18:08Z</time>
      </trkpt>
      <trkpt lat="46.11532" lon="6.72045">
        <ele>1773.3</ele>
        <time>2026-06-27T07:18:09Z</time>
      </trkpt>
      <trkpt lat="46.11532" lon="6.72045">
        <ele>1773.3</ele>
        <time>2026-06-27T07:18:10Z</time>
      </trkpt>
      <trkpt lat="46.11532" lon="6.72046">
        <ele>1773.3</ele>
        <time>2026-06-27T07:18:11Z</time>
      </trkpt>
      <trkpt lat="46.11532" lon="6.72046">
        <ele>1773.3</ele>
        <time>2026-06-27T07:18:12Z</time>
      </trkpt>
      <trkpt lat="46.11532" lon="6.72046">
        <ele>1773.4</ele>
        <time>2026-06-27T07:18:13Z</time>
      </trkpt>
      <trkpt lat="46.11532" lon="6.72046">
        <ele>1773.3</ele>
        <time>2026-06-27T07:18:14Z</time>
      </trkpt>
      <trkpt lat="46.11531" lon="6.72046">
        <ele>1773.3</ele>
        <time>2026-06-27T07:18:15Z</time>
      </trkpt>
      <trkpt lat="46.11531" lon="6.72046">
        <ele>1773.2</ele>
        <time>2026-06-27T07:18:16Z</time>
      </trkpt>
      <trkpt lat="46.11531" lon="6.72046">
        <ele>1773.3</ele>
        <time>2026-06-27T07:18:17Z</time>
      </trkpt>
      <trkpt lat="46.1153" lon="6.72045">
        <ele>1773.3</ele>
        <time>2026-06-27T07:18:18Z</time>
      </trkpt>
      <trkpt lat="46.1153" lon="6.72045">
        <ele>1773.4</ele>
        <time>2026-06-27T07:18:19Z</time>
      </trkpt>
      <trkpt lat="46.1153" lon="6.72045">
        <ele>1773.4</ele>
        <time>2026-06-27T07:18:20Z</time>
      </trkpt>
      <trkpt lat="46.1153" lon="6.72045">
        <ele>1773.4</ele>
        <time>2026-06-27T07:18:21Z</time>
      </trkpt>
      <trkpt lat="46.1153" lon="6.72045">
        <ele>1773.4</ele>
        <time>2026-06-27T07:18:22Z</time>
      </trkpt>
      <trkpt lat="46.1153" lon="6.72045">
        <ele>1773.5</ele>
        <time>2026-06-27T07:18:23Z</time>
      </trkpt>
      <trkpt lat="46.1153" lon="6.72045">
        <ele>1773.5</ele>
        <time>2026-06-27T07:18:24Z</time>
      </trkpt>
      <trkpt lat="46.1153" lon="6.72045">
        <ele>1773.6</ele>
        <time>2026-06-27T07:18:25Z</time>
      </trkpt>
      <trkpt lat="46.1153" lon="6.72044">
        <ele>1773.7</ele>
        <time>2026-06-27T07:18:26Z</time>
      </trkpt>
      <trkpt lat="46.1153" lon="6.72044">
        <ele>1773.8</ele>
        <time>2026-06-27T07:18:27Z</time>
      </trkpt>
      <trkpt lat="46.1153" lon="6.72044">
        <ele>1773.8</ele>
        <time>2026-06-27T07:18:28Z</time>
      </trkpt>
      <trkpt lat="46.1153" lon="6.72044">
        <ele>1773.8</ele>
        <time>2026-06-27T07:18:29Z</time>
      </trkpt>
      <trkpt lat="46.1153" lon="6.72044">
        <ele>1773.9</ele>
        <time>2026-06-27T07:18:30Z</time>
      </trkpt>
      <trkpt lat="46.1153" lon="6.72044">
        <ele>1773.8</ele>
        <time>2026-06-27T07:18:31Z</time>
      </trkpt>
      <trkpt lat="46.1153" lon="6.72044">
        <ele>1773.8</ele>
        <time>2026-06-27T07:18:32Z</time>
      </trkpt>
      <trkpt lat="46.1153" lon="6.72044">
        <ele>1773.8</ele>
        <time>2026-06-27T07:18:33Z</time>
      </trkpt>
      <trkpt lat="46.1153" lon="6.72044">
        <ele>1773.7</ele>
        <time>2026-06-27T07:18:34Z</time>
      </trkpt>
      <trkpt lat="46.1153" lon="6.72044">
        <ele>1773.6</ele>
        <time>2026-06-27T07:18:35Z</time>
      </trkpt>
      <trkpt lat="46.1153" lon="6.72044">
        <ele>1773.5</ele>
        <time>2026-06-27T07:18:36Z</time>
      </trkpt>
      <trkpt lat="46.1153" lon="6.72043">
        <ele>1773.4</ele>
        <time>2026-06-27T07:18:37Z</time>
      </trkpt>
      <trkpt lat="46.1153" lon="6.72043">
        <ele>1773.2</ele>
        <time>2026-06-27T07:18:38Z</time>
      </trkpt>
      <trkpt lat="46.1153" lon="6.72043">
        <ele>1773.2</ele>
        <time>2026-06-27T07:18:39Z</time>
      </trkpt>
      <trkpt lat="46.1153" lon="6.72043">
        <ele>1773.1</ele>
        <time>2026-06-27T07:18:40Z</time>
      </trkpt>
      <trkpt lat="46.1153" lon="6.72043">
        <ele>1773.1</ele>
        <time>2026-06-27T07:18:41Z</time>
      </trkpt>
      <trkpt lat="46.1153" lon="6.72043">
        <ele>1773.1</ele>
        <time>2026-06-27T07:18:42Z</time>
      </trkpt>
      <trkpt lat="46.1153" lon="6.72042">
        <ele>1773.1</ele>
        <time>2026-06-27T07:18:43Z</time>
      </trkpt>
      <trkpt lat="46.1153" lon="6.72042">
        <ele>1773.1</ele>
        <time>2026-06-27T07:18:44Z</time>
      </trkpt>
      <trkpt lat="46.1153" lon="6.72042">
        <ele>1773.1</ele>
        <time>2026-06-27T07:18:45Z</time>
      </trkpt>
      <trkpt lat="46.1153" lon="6.72042">
        <ele>1773.1</ele>
        <time>2026-06-27T07:18:46Z</time>
      </trkpt>
      <trkpt lat="46.1153" lon="6.72042">
        <ele>1773.1</ele>
        <time>2026-06-27T07:18:47Z</time>
      </trkpt>
      <trkpt lat="46.1153" lon="6.72042">
        <ele>1773.1</ele>
        <time>2026-06-27T07:18:48Z</time>
      </trkpt>
      <trkpt lat="46.1153" lon="6.72042">
        <ele>1773.1</ele>
        <time>2026-06-27T07:18:49Z</time>
      </trkpt>
      <trkpt lat="46.1153" lon="6.72042">
        <ele>1773.1</ele>
        <time>2026-06-27T07:18:50Z</time>
      </trkpt>
      <trkpt lat="46.1153" lon="6.72042">
        <ele>1773.1</ele>
        <time>2026-06-27T07:18:51Z</time>
      </trkpt>
      <trkpt lat="46.1153" lon="6.72042">
        <ele>1773</ele>
        <time>2026-06-27T07:18:52Z</time>
      </trkpt>
      <trkpt lat="46.1153" lon="6.72042">
        <ele>1773</ele>
        <time>2026-06-27T07:18:53Z</time>
      </trkpt>
      <trkpt lat="46.1153" lon="6.72042">
        <ele>1772.9</ele>
        <time>2026-06-27T07:18:54Z</time>
      </trkpt>
      <trkpt lat="46.1153" lon="6.72042">
        <ele>1772.9</ele>
        <time>2026-06-27T07:18:55Z</time>
      </trkpt>
      <trkpt lat="46.1153" lon="6.72042">
        <ele>1772.9</ele>
        <time>2026-06-27T07:18:56Z</time>
      </trkpt>
      <trkpt lat="46.1153" lon="6.72042">
        <ele>1772.9</ele>
        <time>2026-06-27T07:18:57Z</time>
      </trkpt>
      <trkpt lat="46.1153" lon="6.72042">
        <ele>1773</ele>
        <time>2026-06-27T07:18:58Z</time>
      </trkpt>
      <trkpt lat="46.1153" lon="6.72041">
        <ele>1772.9</ele>
        <time>2026-06-27T07:18:59Z</time>
      </trkpt>
      <trkpt lat="46.1153" lon="6.72041">
        <ele>1772.9</ele>
        <time>2026-06-27T07:19:00Z</time>
      </trkpt>
      <trkpt lat="46.1153" lon="6.7204">
        <ele>1772.8</ele>
        <time>2026-06-27T07:19:01Z</time>
      </trkpt>
      <trkpt lat="46.11529" lon="6.7204">
        <ele>1772.8</ele>
        <time>2026-06-27T07:19:02Z</time>
      </trkpt>
      <trkpt lat="46.11529" lon="6.7204">
        <ele>1772.8</ele>
        <time>2026-06-27T07:19:03Z</time>
      </trkpt>
      <trkpt lat="46.11528" lon="6.72039">
        <ele>1772.8</ele>
        <time>2026-06-27T07:19:04Z</time>
      </trkpt>
      <trkpt lat="46.11528" lon="6.72039">
        <ele>1772.8</ele>
        <time>2026-06-27T07:19:05Z</time>
      </trkpt>
      <trkpt lat="46.11528" lon="6.72038">
        <ele>1772.8</ele>
        <time>2026-06-27T07:19:06Z</time>
      </trkpt>
      <trkpt lat="46.11527" lon="6.72037">
        <ele>1773</ele>
        <time>2026-06-27T07:19:07Z</time>
      </trkpt>
      <trkpt lat="46.11527" lon="6.72036">
        <ele>1773</ele>
        <time>2026-06-27T07:19:08Z</time>
      </trkpt>
      <trkpt lat="46.11527" lon="6.72036">
        <ele>1773</ele>
        <time>2026-06-27T07:19:09Z</time>
      </trkpt>
      <trkpt lat="46.11527" lon="6.72035">
        <ele>1773</ele>
        <time>2026-06-27T07:19:10Z</time>
      </trkpt>
      <trkpt lat="46.11527" lon="6.72034">
        <ele>1772.9</ele>
        <time>2026-06-27T07:19:11Z</time>
      </trkpt>
      <trkpt lat="46.11527" lon="6.72034">
        <ele>1772.9</ele>
        <time>2026-06-27T07:19:12Z</time>
      </trkpt>
      <trkpt lat="46.11527" lon="6.72033">
        <ele>1772.9</ele>
        <time>2026-06-27T07:19:13Z</time>
      </trkpt>
      <trkpt lat="46.11527" lon="6.72032">
        <ele>1772.9</ele>
        <time>2026-06-27T07:19:14Z</time>
      </trkpt>
      <trkpt lat="46.11527" lon="6.72031">
        <ele>1772.9</ele>
        <time>2026-06-27T07:19:15Z</time>
      </trkpt>
      <trkpt lat="46.11527" lon="6.7203">
        <ele>1772.9</ele>
        <time>2026-06-27T07:19:16Z</time>
      </trkpt>
      <trkpt lat="46.11527" lon="6.7203">
        <ele>1772.8</ele>
        <time>2026-06-27T07:19:17Z</time>
      </trkpt>
      <trkpt lat="46.11527" lon="6.72029">
        <ele>1772.7</ele>
        <time>2026-06-27T07:19:18Z</time>
      </trkpt>
      <trkpt lat="46.11527" lon="6.72029">
        <ele>1772.7</ele>
        <time>2026-06-27T07:19:19Z</time>
      </trkpt>
      <trkpt lat="46.11527" lon="6.72029">
        <ele>1772.5</ele>
        <time>2026-06-27T07:19:20Z</time>
      </trkpt>
      <trkpt lat="46.11527" lon="6.72029">
        <ele>1772.4</ele>
        <time>2026-06-27T07:19:21Z</time>
      </trkpt>
      <trkpt lat="46.11527" lon="6.72029">
        <ele>1772.4</ele>
        <time>2026-06-27T07:19:22Z</time>
      </trkpt>
      <trkpt lat="46.11527" lon="6.72029">
        <ele>1772.4</ele>
        <time>2026-06-27T07:19:23Z</time>
      </trkpt>
      <trkpt lat="46.11527" lon="6.72029">
        <ele>1772.4</ele>
        <time>2026-06-27T07:19:24Z</time>
      </trkpt>
      <trkpt lat="46.11527" lon="6.72029">
        <ele>1772.4</ele>
        <time>2026-06-27T07:19:25Z</time>
      </trkpt>
      <trkpt lat="46.11527" lon="6.72029">
        <ele>1772.4</ele>
        <time>2026-06-27T07:19:26Z</time>
      </trkpt>
      <trkpt lat="46.11527" lon="6.72029">
        <ele>1772.4</ele>
        <time>2026-06-27T07:19:27Z</time>
      </trkpt>
      <trkpt lat="46.11527" lon="6.72029">
        <ele>1772.4</ele>
        <time>2026-06-27T07:19:28Z</time>
      </trkpt>
      <trkpt lat="46.11527" lon="6.72028">
        <ele>1772.4</ele>
        <time>2026-06-27T07:19:29Z</time>
      </trkpt>
      <trkpt lat="46.11527" lon="6.72028">
        <ele>1772.4</ele>
        <time>2026-06-27T07:19:30Z</time>
      </trkpt>
      <trkpt lat="46.11527" lon="6.72028">
        <ele>1772.4</ele>
        <time>2026-06-27T07:19:31Z</time>
      </trkpt>
      <trkpt lat="46.11527" lon="6.72028">
        <ele>1772.4</ele>
        <time>2026-06-27T07:19:32Z</time>
      </trkpt>
      <trkpt lat="46.11528" lon="6.72028">
        <ele>1772.3</ele>
        <time>2026-06-27T07:19:33Z</time>
      </trkpt>
      <trkpt lat="46.11528" lon="6.72028">
        <ele>1772.2</ele>
        <time>2026-06-27T07:19:34Z</time>
      </trkpt>
      <trkpt lat="46.11527" lon="6.72027">
        <ele>1772.2</ele>
        <time>2026-06-27T07:19:35Z</time>
      </trkpt>
      <trkpt lat="46.11527" lon="6.72028">
        <ele>1772.2</ele>
        <time>2026-06-27T07:19:36Z</time>
      </trkpt>
      <trkpt lat="46.11526" lon="6.72028">
        <ele>1772.1</ele>
        <time>2026-06-27T07:19:37Z</time>
      </trkpt>
      <trkpt lat="46.11526" lon="6.72029">
        <ele>1772</ele>
        <time>2026-06-27T07:19:38Z</time>
      </trkpt>
      <trkpt lat="46.11525" lon="6.72029">
        <ele>1772</ele>
        <time>2026-06-27T07:19:39Z</time>
      </trkpt>
      <trkpt lat="46.11524" lon="6.72029">
        <ele>1772</ele>
        <time>2026-06-27T07:19:40Z</time>
      </trkpt>
      <trkpt lat="46.11523" lon="6.72029">
        <ele>1772</ele>
        <time>2026-06-27T07:19:41Z</time>
      </trkpt>
      <trkpt lat="46.11523" lon="6.7203">
        <ele>1772</ele>
        <time>2026-06-27T07:19:42Z</time>
      </trkpt>
      <trkpt lat="46.11522" lon="6.7203">
        <ele>1772</ele>
        <time>2026-06-27T07:19:43Z</time>
      </trkpt>
      <trkpt lat="46.11521" lon="6.7203">
        <ele>1772</ele>
        <time>2026-06-27T07:19:44Z</time>
      </trkpt>
      <trkpt lat="46.11521" lon="6.72031">
        <ele>1772.1</ele>
        <time>2026-06-27T07:19:45Z</time>
      </trkpt>
      <trkpt lat="46.1152" lon="6.72031">
        <ele>1772.1</ele>
        <time>2026-06-27T07:19:46Z</time>
      </trkpt>
      <trkpt lat="46.1152" lon="6.7203">
        <ele>1772</ele>
        <time>2026-06-27T07:19:47Z</time>
      </trkpt>
      <trkpt lat="46.11519" lon="6.7203">
        <ele>1772</ele>
        <time>2026-06-27T07:19:48Z</time>
      </trkpt>
      <trkpt lat="46.11518" lon="6.72029">
        <ele>1771.9</ele>
        <time>2026-06-27T07:19:49Z</time>
      </trkpt>
      <trkpt lat="46.11518" lon="6.72029">
        <ele>1771.9</ele>
        <time>2026-06-27T07:19:50Z</time>
      </trkpt>
      <trkpt lat="46.11517" lon="6.72029">
        <ele>1771.7</ele>
        <time>2026-06-27T07:19:51Z</time>
      </trkpt>
      <trkpt lat="46.11517" lon="6.72028">
        <ele>1771.6</ele>
        <time>2026-06-27T07:19:52Z</time>
      </trkpt>
      <trkpt lat="46.11517" lon="6.72028">
        <ele>1771.5</ele>
        <time>2026-06-27T07:19:53Z</time>
      </trkpt>
      <trkpt lat="46.11517" lon="6.72028">
        <ele>1771.4</ele>
        <time>2026-06-27T07:19:54Z</time>
      </trkpt>
      <trkpt lat="46.11517" lon="6.72028">
        <ele>1771.4</ele>
        <time>2026-06-27T07:19:55Z</time>
      </trkpt>
      <trkpt lat="46.11517" lon="6.72028">
        <ele>1771.3</ele>
        <time>2026-06-27T07:19:56Z</time>
      </trkpt>
      <trkpt lat="46.11517" lon="6.72029">
        <ele>1771.3</ele>
        <time>2026-06-27T07:19:57Z</time>
      </trkpt>
      <trkpt lat="46.11517" lon="6.72029">
        <ele>1771.3</ele>
        <time>2026-06-27T07:19:58Z</time>
      </trkpt>
      <trkpt lat="46.11516" lon="6.72029">
        <ele>1771.3</ele>
        <time>2026-06-27T07:19:59Z</time>
      </trkpt>
      <trkpt lat="46.11516" lon="6.72029">
        <ele>1771.3</ele>
        <time>2026-06-27T07:20:00Z</time>
      </trkpt>
      <trkpt lat="46.11516" lon="6.72029">
        <ele>1771.4</ele>
        <time>2026-06-27T07:20:01Z</time>
      </trkpt>
      <trkpt lat="46.11516" lon="6.72029">
        <ele>1771.4</ele>
        <time>2026-06-27T07:20:02Z</time>
      </trkpt>
      <trkpt lat="46.11516" lon="6.72029">
        <ele>1771.4</ele>
        <time>2026-06-27T07:20:03Z</time>
      </trkpt>
      <trkpt lat="46.11516" lon="6.72029">
        <ele>1771.5</ele>
        <time>2026-06-27T07:20:04Z</time>
      </trkpt>
      <trkpt lat="46.11516" lon="6.7203">
        <ele>1771.5</ele>
        <time>2026-06-27T07:20:05Z</time>
      </trkpt>
      <trkpt lat="46.11516" lon="6.7203">
        <ele>1771.5</ele>
        <time>2026-06-27T07:20:06Z</time>
      </trkpt>
      <trkpt lat="46.11516" lon="6.72029">
        <ele>1771.5</ele>
        <time>2026-06-27T07:20:07Z</time>
      </trkpt>
      <trkpt lat="46.11516" lon="6.72029">
        <ele>1771.6</ele>
        <time>2026-06-27T07:20:08Z</time>
      </trkpt>
      <trkpt lat="46.11516" lon="6.72029">
        <ele>1771.6</ele>
        <time>2026-06-27T07:20:09Z</time>
      </trkpt>
      <trkpt lat="46.11516" lon="6.72029">
        <ele>1771.4</ele>
        <time>2026-06-27T07:20:10Z</time>
      </trkpt>
      <trkpt lat="46.11516" lon="6.72029">
        <ele>1771.5</ele>
        <time>2026-06-27T07:20:11Z</time>
      </trkpt>
      <trkpt lat="46.11516" lon="6.72029">
        <ele>1771.5</ele>
        <time>2026-06-27T07:20:12Z</time>
      </trkpt>
      <trkpt lat="46.11516" lon="6.7203">
        <ele>1771.5</ele>
        <time>2026-06-27T07:20:13Z</time>
      </trkpt>
      <trkpt lat="46.11516" lon="6.7203">
        <ele>1771.6</ele>
        <time>2026-06-27T07:20:14Z</time>
      </trkpt>
      <trkpt lat="46.11516" lon="6.7203">
        <ele>1771.7</ele>
        <time>2026-06-27T07:20:15Z</time>
      </trkpt>
      <trkpt lat="46.11516" lon="6.7203">
        <ele>1771.7</ele>
        <time>2026-06-27T07:20:16Z</time>
      </trkpt>
      <trkpt lat="46.11517" lon="6.72031">
        <ele>1771.8</ele>
        <time>2026-06-27T07:20:17Z</time>
      </trkpt>
      <trkpt lat="46.11517" lon="6.72031">
        <ele>1771.8</ele>
        <time>2026-06-27T07:20:18Z</time>
      </trkpt>
      <trkpt lat="46.11517" lon="6.72031">
        <ele>1771.8</ele>
        <time>2026-06-27T07:20:19Z</time>
      </trkpt>
      <trkpt lat="46.11517" lon="6.72031">
        <ele>1771.7</ele>
        <time>2026-06-27T07:20:20Z</time>
      </trkpt>
      <trkpt lat="46.11517" lon="6.72031">
        <ele>1771.7</ele>
        <time>2026-06-27T07:20:21Z</time>
      </trkpt>
      <trkpt lat="46.11517" lon="6.72031">
        <ele>1771.7</ele>
        <time>2026-06-27T07:20:22Z</time>
      </trkpt>
      <trkpt lat="46.11517" lon="6.72031">
        <ele>1771.7</ele>
        <time>2026-06-27T07:20:23Z</time>
      </trkpt>
      <trkpt lat="46.11517" lon="6.7203">
        <ele>1771.6</ele>
        <time>2026-06-27T07:20:24Z</time>
      </trkpt>
      <trkpt lat="46.11517" lon="6.7203">
        <ele>1771.8</ele>
        <time>2026-06-27T07:20:25Z</time>
      </trkpt>
      <trkpt lat="46.11517" lon="6.72029">
        <ele>1771.8</ele>
        <time>2026-06-27T07:20:26Z</time>
      </trkpt>
      <trkpt lat="46.11517" lon="6.72029">
        <ele>1771.9</ele>
        <time>2026-06-27T07:20:27Z</time>
      </trkpt>
      <trkpt lat="46.11517" lon="6.7203">
        <ele>1771.9</ele>
        <time>2026-06-27T07:20:28Z</time>
      </trkpt>
      <trkpt lat="46.11517" lon="6.7203">
        <ele>1771.9</ele>
        <time>2026-06-27T07:20:29Z</time>
      </trkpt>
      <trkpt lat="46.11517" lon="6.7203">
        <ele>1772</ele>
        <time>2026-06-27T07:20:30Z</time>
      </trkpt>
      <trkpt lat="46.11517" lon="6.7203">
        <ele>1772.1</ele>
        <time>2026-06-27T07:20:31Z</time>
      </trkpt>
      <trkpt lat="46.11517" lon="6.7203">
        <ele>1772</ele>
        <time>2026-06-27T07:20:32Z</time>
      </trkpt>
      <trkpt lat="46.11517" lon="6.7203">
        <ele>1772</ele>
        <time>2026-06-27T07:20:33Z</time>
      </trkpt>
      <trkpt lat="46.11518" lon="6.7203">
        <ele>1772</ele>
        <time>2026-06-27T07:20:34Z</time>
      </trkpt>
      <trkpt lat="46.11518" lon="6.7203">
        <ele>1772</ele>
        <time>2026-06-27T07:20:35Z</time>
      </trkpt>
      <trkpt lat="46.11518" lon="6.7203">
        <ele>1771.9</ele>
        <time>2026-06-27T07:20:36Z</time>
      </trkpt>
      <trkpt lat="46.11518" lon="6.7203">
        <ele>1771.8</ele>
        <time>2026-06-27T07:20:37Z</time>
      </trkpt>
      <trkpt lat="46.11518" lon="6.7203">
        <ele>1771.8</ele>
        <time>2026-06-27T07:20:38Z</time>
      </trkpt>
      <trkpt lat="46.11518" lon="6.72031">
        <ele>1771.8</ele>
        <time>2026-06-27T07:20:39Z</time>
      </trkpt>
      <trkpt lat="46.11518" lon="6.72031">
        <ele>1771.9</ele>
        <time>2026-06-27T07:20:40Z</time>
      </trkpt>
      <trkpt lat="46.11518" lon="6.72031">
        <ele>1771.9</ele>
        <time>2026-06-27T07:20:41Z</time>
      </trkpt>
      <trkpt lat="46.11518" lon="6.72031">
        <ele>1771.9</ele>
        <time>2026-06-27T07:20:42Z</time>
      </trkpt>
      <trkpt lat="46.11518" lon="6.72031">
        <ele>1771.9</ele>
        <time>2026-06-27T07:20:43Z</time>
      </trkpt>
      <trkpt lat="46.11518" lon="6.72031">
        <ele>1772</ele>
        <time>2026-06-27T07:20:44Z</time>
      </trkpt>
      <trkpt lat="46.11518" lon="6.72031">
        <ele>1772</ele>
        <time>2026-06-27T07:20:45Z</time>
      </trkpt>
      <trkpt lat="46.11518" lon="6.72031">
        <ele>1772</ele>
        <time>2026-06-27T07:20:46Z</time>
      </trkpt>
      <trkpt lat="46.11518" lon="6.72031">
        <ele>1771.9</ele>
        <time>2026-06-27T07:20:47Z</time>
      </trkpt>
      <trkpt lat="46.11518" lon="6.72031">
        <ele>1771.8</ele>
        <time>2026-06-27T07:20:48Z</time>
      </trkpt>
      <trkpt lat="46.11518" lon="6.72031">
        <ele>1771.9</ele>
        <time>2026-06-27T07:20:49Z</time>
      </trkpt>
      <trkpt lat="46.11518" lon="6.72031">
        <ele>1772</ele>
        <time>2026-06-27T07:20:50Z</time>
      </trkpt>
      <trkpt lat="46.11518" lon="6.72031">
        <ele>1772</ele>
        <time>2026-06-27T07:20:51Z</time>
      </trkpt>
      <trkpt lat="46.11518" lon="6.72031">
        <ele>1772</ele>
        <time>2026-06-27T07:20:52Z</time>
      </trkpt>
      <trkpt lat="46.11518" lon="6.72031">
        <ele>1772.1</ele>
        <time>2026-06-27T07:20:53Z</time>
      </trkpt>
      <trkpt lat="46.11518" lon="6.72031">
        <ele>1772.1</ele>
        <time>2026-06-27T07:20:54Z</time>
      </trkpt>
      <trkpt lat="46.11518" lon="6.72031">
        <ele>1772.2</ele>
        <time>2026-06-27T07:20:55Z</time>
      </trkpt>
      <trkpt lat="46.11518" lon="6.72031">
        <ele>1772.2</ele>
        <time>2026-06-27T07:20:56Z</time>
      </trkpt>
      <trkpt lat="46.11518" lon="6.72031">
        <ele>1772.2</ele>
        <time>2026-06-27T07:20:57Z</time>
      </trkpt>
      <trkpt lat="46.11518" lon="6.72032">
        <ele>1772.2</ele>
        <time>2026-06-27T07:20:58Z</time>
      </trkpt>
      <trkpt lat="46.11519" lon="6.72032">
        <ele>1772.3</ele>
        <time>2026-06-27T07:20:59Z</time>
      </trkpt>
      <trkpt lat="46.11518" lon="6.72032">
        <ele>1772.3</ele>
        <time>2026-06-27T07:21:00Z</time>
      </trkpt>
      <trkpt lat="46.11518" lon="6.72032">
        <ele>1772.3</ele>
        <time>2026-06-27T07:21:01Z</time>
      </trkpt>
      <trkpt lat="46.11518" lon="6.72032">
        <ele>1772.3</ele>
        <time>2026-06-27T07:21:02Z</time>
      </trkpt>
      <trkpt lat="46.11518" lon="6.72032">
        <ele>1772.4</ele>
        <time>2026-06-27T07:21:03Z</time>
      </trkpt>
      <trkpt lat="46.11518" lon="6.72033">
        <ele>1772.4</ele>
        <time>2026-06-27T07:21:04Z</time>
      </trkpt>
      <trkpt lat="46.11518" lon="6.72033">
        <ele>1772.4</ele>
        <time>2026-06-27T07:21:05Z</time>
      </trkpt>
      <trkpt lat="46.11518" lon="6.72033">
        <ele>1772.4</ele>
        <time>2026-06-27T07:21:06Z</time>
      </trkpt>
      <trkpt lat="46.11518" lon="6.72033">
        <ele>1772.3</ele>
        <time>2026-06-27T07:21:07Z</time>
      </trkpt>
      <trkpt lat="46.11518" lon="6.72033">
        <ele>1772.3</ele>
        <time>2026-06-27T07:21:08Z</time>
      </trkpt>
      <trkpt lat="46.11518" lon="6.72033">
        <ele>1772.3</ele>
        <time>2026-06-27T07:21:09Z</time>
      </trkpt>
      <trkpt lat="46.11518" lon="6.72033">
        <ele>1772.2</ele>
        <time>2026-06-27T07:21:10Z</time>
      </trkpt>
      <trkpt lat="46.11518" lon="6.72033">
        <ele>1772.2</ele>
        <time>2026-06-27T07:21:11Z</time>
      </trkpt>
      <trkpt lat="46.11518" lon="6.72034">
        <ele>1772.2</ele>
        <time>2026-06-27T07:21:12Z</time>
      </trkpt>
      <trkpt lat="46.11517" lon="6.72034">
        <ele>1772.2</ele>
        <time>2026-06-27T07:21:13Z</time>
      </trkpt>
      <trkpt lat="46.11517" lon="6.72034">
        <ele>1772.2</ele>
        <time>2026-06-27T07:21:14Z</time>
      </trkpt>
      <trkpt lat="46.11517" lon="6.72034">
        <ele>1772.2</ele>
        <time>2026-06-27T07:21:15Z</time>
      </trkpt>
      <trkpt lat="46.11517" lon="6.72034">
        <ele>1772.1</ele>
        <time>2026-06-27T07:21:16Z</time>
      </trkpt>
      <trkpt lat="46.11517" lon="6.72034">
        <ele>1772.2</ele>
        <time>2026-06-27T07:21:17Z</time>
      </trkpt>
      <trkpt lat="46.11517" lon="6.72034">
        <ele>1772.2</ele>
        <time>2026-06-27T07:21:18Z</time>
      </trkpt>
      <trkpt lat="46.11517" lon="6.72034">
        <ele>1772.2</ele>
        <time>2026-06-27T07:21:19Z</time>
      </trkpt>
      <trkpt lat="46.11517" lon="6.72034">
        <ele>1772.2</ele>
        <time>2026-06-27T07:21:20Z</time>
      </trkpt>
      <trkpt lat="46.11517" lon="6.72035">
        <ele>1772.1</ele>
        <time>2026-06-27T07:21:21Z</time>
      </trkpt>
      <trkpt lat="46.11517" lon="6.72035">
        <ele>1772</ele>
        <time>2026-06-27T07:21:22Z</time>
      </trkpt>
      <trkpt lat="46.11516" lon="6.72035">
        <ele>1772.1</ele>
        <time>2026-06-27T07:21:23Z</time>
      </trkpt>
      <trkpt lat="46.11516" lon="6.72035">
        <ele>1772.1</ele>
        <time>2026-06-27T07:21:24Z</time>
      </trkpt>
      <trkpt lat="46.11516" lon="6.72035">
        <ele>1772.1</ele>
        <time>2026-06-27T07:21:25Z</time>
      </trkpt>
      <trkpt lat="46.11516" lon="6.72035">
        <ele>1772.1</ele>
        <time>2026-06-27T07:21:26Z</time>
      </trkpt>
      <trkpt lat="46.11516" lon="6.72035">
        <ele>1772.1</ele>
        <time>2026-06-27T07:21:27Z</time>
      </trkpt>
      <trkpt lat="46.11516" lon="6.72035">
        <ele>1772</ele>
        <time>2026-06-27T07:21:28Z</time>
      </trkpt>
      <trkpt lat="46.11516" lon="6.72035">
        <ele>1772</ele>
        <time>2026-06-27T07:21:29Z</time>
      </trkpt>
      <trkpt lat="46.11516" lon="6.72035">
        <ele>1772</ele>
        <time>2026-06-27T07:21:30Z</time>
      </trkpt>
      <trkpt lat="46.11516" lon="6.72036">
        <ele>1772</ele>
        <time>2026-06-27T07:21:31Z</time>
      </trkpt>
      <trkpt lat="46.11516" lon="6.72036">
        <ele>1772</ele>
        <time>2026-06-27T07:21:32Z</time>
      </trkpt>
      <trkpt lat="46.11516" lon="6.72036">
        <ele>1772</ele>
        <time>2026-06-27T07:21:33Z</time>
      </trkpt>
      <trkpt lat="46.11516" lon="6.72036">
        <ele>1772</ele>
        <time>2026-06-27T07:21:34Z</time>
      </trkpt>
      <trkpt lat="46.11516" lon="6.72036">
        <ele>1772</ele>
        <time>2026-06-27T07:21:35Z</time>
      </trkpt>
      <trkpt lat="46.11516" lon="6.72036">
        <ele>1772.1</ele>
        <time>2026-06-27T07:21:36Z</time>
      </trkpt>
      <trkpt lat="46.11516" lon="6.72035">
        <ele>1772.1</ele>
        <time>2026-06-27T07:21:37Z</time>
      </trkpt>
      <trkpt lat="46.11516" lon="6.72036">
        <ele>1772.1</ele>
        <time>2026-06-27T07:21:38Z</time>
      </trkpt>
      <trkpt lat="46.11516" lon="6.72036">
        <ele>1772.1</ele>
        <time>2026-06-27T07:21:39Z</time>
      </trkpt>
      <trkpt lat="46.11516" lon="6.72036">
        <ele>1772.1</ele>
        <time>2026-06-27T07:21:40Z</time>
      </trkpt>
      <trkpt lat="46.11516" lon="6.72036">
        <ele>1772</ele>
        <time>2026-06-27T07:21:41Z</time>
      </trkpt>
      <trkpt lat="46.11516" lon="6.72036">
        <ele>1771.9</ele>
        <time>2026-06-27T07:21:42Z</time>
      </trkpt>
      <trkpt lat="46.11517" lon="6.72036">
        <ele>1771.9</ele>
        <time>2026-06-27T07:21:43Z</time>
      </trkpt>
      <trkpt lat="46.11517" lon="6.72036">
        <ele>1771.8</ele>
        <time>2026-06-27T07:21:44Z</time>
      </trkpt>
      <trkpt lat="46.11517" lon="6.72036">
        <ele>1771.8</ele>
        <time>2026-06-27T07:21:45Z</time>
      </trkpt>
      <trkpt lat="46.11517" lon="6.72036">
        <ele>1771.7</ele>
        <time>2026-06-27T07:21:46Z</time>
      </trkpt>
      <trkpt lat="46.11517" lon="6.72036">
        <ele>1771.6</ele>
        <time>2026-06-27T07:21:47Z</time>
      </trkpt>
      <trkpt lat="46.11517" lon="6.72036">
        <ele>1771.7</ele>
        <time>2026-06-27T07:21:48Z</time>
      </trkpt>
      <trkpt lat="46.11516" lon="6.72036">
        <ele>1771.7</ele>
        <time>2026-06-27T07:21:49Z</time>
      </trkpt>
      <trkpt lat="46.11516" lon="6.72036">
        <ele>1771.6</ele>
        <time>2026-06-27T07:21:50Z</time>
      </trkpt>
      <trkpt lat="46.11516" lon="6.72036">
        <ele>1771.5</ele>
        <time>2026-06-27T07:21:51Z</time>
      </trkpt>
      <trkpt lat="46.11516" lon="6.72036">
        <ele>1771.5</ele>
        <time>2026-06-27T07:21:52Z</time>
      </trkpt>
      <trkpt lat="46.11516" lon="6.72036">
        <ele>1771.6</ele>
        <time>2026-06-27T07:21:53Z</time>
      </trkpt>
      <trkpt lat="46.11516" lon="6.72036">
        <ele>1771.5</ele>
        <time>2026-06-27T07:21:54Z</time>
      </trkpt>
      <trkpt lat="46.11516" lon="6.72035">
        <ele>1771.5</ele>
        <time>2026-06-27T07:21:55Z</time>
      </trkpt>
      <trkpt lat="46.11516" lon="6.72035">
        <ele>1771.6</ele>
        <time>2026-06-27T07:21:56Z</time>
      </trkpt>
      <trkpt lat="46.11516" lon="6.72034">
        <ele>1771.6</ele>
        <time>2026-06-27T07:21:57Z</time>
      </trkpt>
      <trkpt lat="46.11516" lon="6.72033">
        <ele>1771.6</ele>
        <time>2026-06-27T07:21:58Z</time>
      </trkpt>
      <trkpt lat="46.11516" lon="6.72032">
        <ele>1771.8</ele>
        <time>2026-06-27T07:21:59Z</time>
      </trkpt>
      <trkpt lat="46.11516" lon="6.72031">
        <ele>1771.9</ele>
        <time>2026-06-27T07:22:00Z</time>
      </trkpt>
      <trkpt lat="46.11516" lon="6.7203">
        <ele>1771.9</ele>
        <time>2026-06-27T07:22:01Z</time>
      </trkpt>
      <trkpt lat="46.11516" lon="6.72029">
        <ele>1771.9</ele>
        <time>2026-06-27T07:22:02Z</time>
      </trkpt>
      <trkpt lat="46.11516" lon="6.72028">
        <ele>1771.9</ele>
        <time>2026-06-27T07:22:03Z</time>
      </trkpt>
      <trkpt lat="46.11516" lon="6.72028">
        <ele>1771.8</ele>
        <time>2026-06-27T07:22:04Z</time>
      </trkpt>
      <trkpt lat="46.11516" lon="6.72028">
        <ele>1771.8</ele>
        <time>2026-06-27T07:22:05Z</time>
      </trkpt>
      <trkpt lat="46.11515" lon="6.72028">
        <ele>1771.7</ele>
        <time>2026-06-27T07:22:06Z</time>
      </trkpt>
      <trkpt lat="46.11516" lon="6.72028">
        <ele>1771.7</ele>
        <time>2026-06-27T07:22:07Z</time>
      </trkpt>
      <trkpt lat="46.11516" lon="6.72028">
        <ele>1771.7</ele>
        <time>2026-06-27T07:22:08Z</time>
      </trkpt>
      <trkpt lat="46.11516" lon="6.72028">
        <ele>1771.7</ele>
        <time>2026-06-27T07:22:09Z</time>
      </trkpt>
      <trkpt lat="46.11516" lon="6.72027">
        <ele>1771.7</ele>
        <time>2026-06-27T07:22:10Z</time>
      </trkpt>
      <trkpt lat="46.11516" lon="6.72027">
        <ele>1771.7</ele>
        <time>2026-06-27T07:22:11Z</time>
      </trkpt>
      <trkpt lat="46.11516" lon="6.72027">
        <ele>1771.7</ele>
        <time>2026-06-27T07:22:12Z</time>
      </trkpt>
      <trkpt lat="46.11516" lon="6.72027">
        <ele>1771.6</ele>
        <time>2026-06-27T07:22:13Z</time>
      </trkpt>
      <trkpt lat="46.11516" lon="6.72027">
        <ele>1771.6</ele>
        <time>2026-06-27T07:22:14Z</time>
      </trkpt>
      <trkpt lat="46.11516" lon="6.72027">
        <ele>1771.7</ele>
        <time>2026-06-27T07:22:15Z</time>
      </trkpt>
      <trkpt lat="46.11516" lon="6.72027">
        <ele>1771.8</ele>
        <time>2026-06-27T07:22:16Z</time>
      </trkpt>
      <trkpt lat="46.11516" lon="6.72027">
        <ele>1771.8</ele>
        <time>2026-06-27T07:22:17Z</time>
      </trkpt>
      <trkpt lat="46.11516" lon="6.72027">
        <ele>1771.8</ele>
        <time>2026-06-27T07:22:18Z</time>
      </trkpt>
      <trkpt lat="46.11516" lon="6.72027">
        <ele>1771.9</ele>
        <time>2026-06-27T07:22:19Z</time>
      </trkpt>
      <trkpt lat="46.11516" lon="6.72026">
        <ele>1771.9</ele>
        <time>2026-06-27T07:22:20Z</time>
      </trkpt>
      <trkpt lat="46.11516" lon="6.72026">
        <ele>1771.9</ele>
        <time>2026-06-27T07:22:21Z</time>
      </trkpt>
      <trkpt lat="46.11516" lon="6.72026">
        <ele>1771.9</ele>
        <time>2026-06-27T07:22:22Z</time>
      </trkpt>
      <trkpt lat="46.11516" lon="6.72026">
        <ele>1771.9</ele>
        <time>2026-06-27T07:22:23Z</time>
      </trkpt>
      <trkpt lat="46.11516" lon="6.72026">
        <ele>1771.9</ele>
        <time>2026-06-27T07:22:24Z</time>
      </trkpt>
      <trkpt lat="46.11516" lon="6.72026">
        <ele>1771.9</ele>
        <time>2026-06-27T07:22:25Z</time>
      </trkpt>
      <trkpt lat="46.11516" lon="6.72026">
        <ele>1771.9</ele>
        <time>2026-06-27T07:22:26Z</time>
      </trkpt>
      <trkpt lat="46.11516" lon="6.72026">
        <ele>1771.9</ele>
        <time>2026-06-27T07:22:27Z</time>
      </trkpt>
      <trkpt lat="46.11516" lon="6.72026">
        <ele>1771.9</ele>
        <time>2026-06-27T07:22:28Z</time>
      </trkpt>
      <trkpt lat="46.11516" lon="6.72026">
        <ele>1771.9</ele>
        <time>2026-06-27T07:22:29Z</time>
      </trkpt>
      <trkpt lat="46.11516" lon="6.72026">
        <ele>1771.9</ele>
        <time>2026-06-27T07:22:30Z</time>
      </trkpt>
      <trkpt lat="46.11516" lon="6.72026">
        <ele>1771.9</ele>
        <time>2026-06-27T07:22:31Z</time>
      </trkpt>
      <trkpt lat="46.11516" lon="6.72026">
        <ele>1772</ele>
        <time>2026-06-27T07:22:32Z</time>
      </trkpt>
      <trkpt lat="46.11516" lon="6.72025">
        <ele>1772</ele>
        <time>2026-06-27T07:22:33Z</time>
      </trkpt>
      <trkpt lat="46.11516" lon="6.72025">
        <ele>1772</ele>
        <time>2026-06-27T07:22:34Z</time>
      </trkpt>
      <trkpt lat="46.11516" lon="6.72025">
        <ele>1772</ele>
        <time>2026-06-27T07:22:35Z</time>
      </trkpt>
      <trkpt lat="46.11516" lon="6.72025">
        <ele>1771.9</ele>
        <time>2026-06-27T07:22:36Z</time>
      </trkpt>
      <trkpt lat="46.11516" lon="6.72025">
        <ele>1771.8</ele>
        <time>2026-06-27T07:22:37Z</time>
      </trkpt>
      <trkpt lat="46.11516" lon="6.72025">
        <ele>1771.8</ele>
        <time>2026-06-27T07:22:38Z</time>
      </trkpt>
      <trkpt lat="46.11516" lon="6.72025">
        <ele>1771.8</ele>
        <time>2026-06-27T07:22:39Z</time>
      </trkpt>
      <trkpt lat="46.11516" lon="6.72025">
        <ele>1771.8</ele>
        <time>2026-06-27T07:22:40Z</time>
      </trkpt>
      <trkpt lat="46.11516" lon="6.72025">
        <ele>1771.8</ele>
        <time>2026-06-27T07:22:41Z</time>
      </trkpt>
      <trkpt lat="46.11516" lon="6.72025">
        <ele>1771.8</ele>
        <time>2026-06-27T07:22:42Z</time>
      </trkpt>
      <trkpt lat="46.11516" lon="6.72024">
        <ele>1771.8</ele>
        <time>2026-06-27T07:22:43Z</time>
      </trkpt>
      <trkpt lat="46.11516" lon="6.72024">
        <ele>1771.8</ele>
        <time>2026-06-27T07:22:44Z</time>
      </trkpt>
      <trkpt lat="46.11516" lon="6.72024">
        <ele>1771.9</ele>
        <time>2026-06-27T07:22:45Z</time>
      </trkpt>
      <trkpt lat="46.11516" lon="6.72024">
        <ele>1771.8</ele>
        <time>2026-06-27T07:22:46Z</time>
      </trkpt>
      <trkpt lat="46.11516" lon="6.72025">
        <ele>1771.7</ele>
        <time>2026-06-27T07:22:47Z</time>
      </trkpt>
      <trkpt lat="46.11516" lon="6.72024">
        <ele>1771.7</ele>
        <time>2026-06-27T07:22:48Z</time>
      </trkpt>
      <trkpt lat="46.11516" lon="6.72024">
        <ele>1771.7</ele>
        <time>2026-06-27T07:22:49Z</time>
      </trkpt>
      <trkpt lat="46.11516" lon="6.72025">
        <ele>1771.8</ele>
        <time>2026-06-27T07:22:50Z</time>
      </trkpt>
      <trkpt lat="46.11516" lon="6.72025">
        <ele>1771.8</ele>
        <time>2026-06-27T07:22:51Z</time>
      </trkpt>
      <trkpt lat="46.11516" lon="6.72025">
        <ele>1771.8</ele>
        <time>2026-06-27T07:22:52Z</time>
      </trkpt>
      <trkpt lat="46.11516" lon="6.72025">
        <ele>1771.9</ele>
        <time>2026-06-27T07:22:53Z</time>
      </trkpt>
      <trkpt lat="46.11516" lon="6.72024">
        <ele>1771.9</ele>
        <time>2026-06-27T07:22:54Z</time>
      </trkpt>
      <trkpt lat="46.11517" lon="6.72024">
        <ele>1771.9</ele>
        <time>2026-06-27T07:22:55Z</time>
      </trkpt>
      <trkpt lat="46.11516" lon="6.72024">
        <ele>1771.9</ele>
        <time>2026-06-27T07:22:56Z</time>
      </trkpt>
      <trkpt lat="46.11516" lon="6.72024">
        <ele>1771.8</ele>
        <time>2026-06-27T07:22:57Z</time>
      </trkpt>
      <trkpt lat="46.11516" lon="6.72024">
        <ele>1771.8</ele>
        <time>2026-06-27T07:22:58Z</time>
      </trkpt>
      <trkpt lat="46.11516" lon="6.72024">
        <ele>1771.7</ele>
        <time>2026-06-27T07:22:59Z</time>
      </trkpt>
      <trkpt lat="46.11516" lon="6.72024">
        <ele>1771.6</ele>
        <time>2026-06-27T07:23:00Z</time>
      </trkpt>
      <trkpt lat="46.11516" lon="6.72023">
        <ele>1771.6</ele>
        <time>2026-06-27T07:23:01Z</time>
      </trkpt>
      <trkpt lat="46.11516" lon="6.72023">
        <ele>1771.6</ele>
        <time>2026-06-27T07:23:02Z</time>
      </trkpt>
      <trkpt lat="46.11516" lon="6.72023">
        <ele>1771.6</ele>
        <time>2026-06-27T07:23:03Z</time>
      </trkpt>
      <trkpt lat="46.11516" lon="6.72024">
        <ele>1771.5</ele>
        <time>2026-06-27T07:23:04Z</time>
      </trkpt>
      <trkpt lat="46.11516" lon="6.72024">
        <ele>1771.4</ele>
        <time>2026-06-27T07:23:05Z</time>
      </trkpt>
      <trkpt lat="46.11516" lon="6.72024">
        <ele>1771.4</ele>
        <time>2026-06-27T07:23:06Z</time>
      </trkpt>
      <trkpt lat="46.11516" lon="6.72024">
        <ele>1771.4</ele>
        <time>2026-06-27T07:23:07Z</time>
      </trkpt>
      <trkpt lat="46.11516" lon="6.72024">
        <ele>1771.4</ele>
        <time>2026-06-27T07:23:08Z</time>
      </trkpt>
      <trkpt lat="46.11516" lon="6.72024">
        <ele>1771.4</ele>
        <time>2026-06-27T07:23:09Z</time>
      </trkpt>
      <trkpt lat="46.11517" lon="6.72024">
        <ele>1771.4</ele>
        <time>2026-06-27T07:23:10Z</time>
      </trkpt>
      <trkpt lat="46.11517" lon="6.72024">
        <ele>1771.3</ele>
        <time>2026-06-27T07:23:11Z</time>
      </trkpt>
      <trkpt lat="46.11517" lon="6.72024">
        <ele>1771.3</ele>
        <time>2026-06-27T07:23:12Z</time>
      </trkpt>
      <trkpt lat="46.11517" lon="6.72024">
        <ele>1771.3</ele>
        <time>2026-06-27T07:23:13Z</time>
      </trkpt>
      <trkpt lat="46.11517" lon="6.72024">
        <ele>1771.3</ele>
        <time>2026-06-27T07:23:14Z</time>
      </trkpt>
      <trkpt lat="46.11517" lon="6.72024">
        <ele>1771.4</ele>
        <time>2026-06-27T07:23:15Z</time>
      </trkpt>
      <trkpt lat="46.11517" lon="6.72024">
        <ele>1771.4</ele>
        <time>2026-06-27T07:23:16Z</time>
      </trkpt>
      <trkpt lat="46.11517" lon="6.72024">
        <ele>1771.3</ele>
        <time>2026-06-27T07:23:17Z</time>
      </trkpt>
      <trkpt lat="46.11517" lon="6.72024">
        <ele>1771.3</ele>
        <time>2026-06-27T07:23:18Z</time>
      </trkpt>
      <trkpt lat="46.11517" lon="6.72024">
        <ele>1771.2</ele>
        <time>2026-06-27T07:23:19Z</time>
      </trkpt>
      <trkpt lat="46.11517" lon="6.72024">
        <ele>1771.2</ele>
        <time>2026-06-27T07:23:20Z</time>
      </trkpt>
      <trkpt lat="46.11517" lon="6.72024">
        <ele>1771.3</ele>
        <time>2026-06-27T07:23:21Z</time>
      </trkpt>
      <trkpt lat="46.11517" lon="6.72024">
        <ele>1771.3</ele>
        <time>2026-06-27T07:23:22Z</time>
      </trkpt>
      <trkpt lat="46.11517" lon="6.72024">
        <ele>1771.3</ele>
        <time>2026-06-27T07:23:23Z</time>
      </trkpt>
      <trkpt lat="46.11517" lon="6.72024">
        <ele>1771.2</ele>
        <time>2026-06-27T07:23:24Z</time>
      </trkpt>
      <trkpt lat="46.11517" lon="6.72024">
        <ele>1771.2</ele>
        <time>2026-06-27T07:23:25Z</time>
      </trkpt>
      <trkpt lat="46.11517" lon="6.72024">
        <ele>1771.2</ele>
        <time>2026-06-27T07:23:26Z</time>
      </trkpt>
      <trkpt lat="46.11518" lon="6.72024">
        <ele>1771.2</ele>
        <time>2026-06-27T07:23:27Z</time>
      </trkpt>
      <trkpt lat="46.11518" lon="6.72024">
        <ele>1771.2</ele>
        <time>2026-06-27T07:23:28Z</time>
      </trkpt>
      <trkpt lat="46.11518" lon="6.72024">
        <ele>1771.2</ele>
        <time>2026-06-27T07:23:29Z</time>
      </trkpt>
      <trkpt lat="46.11518" lon="6.72024">
        <ele>1771.2</ele>
        <time>2026-06-27T07:23:30Z</time>
      </trkpt>
      <trkpt lat="46.11518" lon="6.72024">
        <ele>1771.2</ele>
        <time>2026-06-27T07:23:31Z</time>
      </trkpt>
      <trkpt lat="46.11518" lon="6.72024">
        <ele>1771.2</ele>
        <time>2026-06-27T07:23:32Z</time>
      </trkpt>
      <trkpt lat="46.11518" lon="6.72024">
        <ele>1771.3</ele>
        <time>2026-06-27T07:23:33Z</time>
      </trkpt>
      <trkpt lat="46.11518" lon="6.72024">
        <ele>1771.4</ele>
        <time>2026-06-27T07:23:34Z</time>
      </trkpt>
      <trkpt lat="46.11518" lon="6.72024">
        <ele>1771.4</ele>
        <time>2026-06-27T07:23:35Z</time>
      </trkpt>
      <trkpt lat="46.11518" lon="6.72024">
        <ele>1771.4</ele>
        <time>2026-06-27T07:23:36Z</time>
      </trkpt>
      <trkpt lat="46.11518" lon="6.72024">
        <ele>1771.5</ele>
        <time>2026-06-27T07:23:37Z</time>
      </trkpt>
      <trkpt lat="46.11518" lon="6.72024">
        <ele>1771.5</ele>
        <time>2026-06-27T07:23:38Z</time>
      </trkpt>
      <trkpt lat="46.11518" lon="6.72024">
        <ele>1771.5</ele>
        <time>2026-06-27T07:23:39Z</time>
      </trkpt>
      <trkpt lat="46.11518" lon="6.72024">
        <ele>1771.5</ele>
        <time>2026-06-27T07:23:40Z</time>
      </trkpt>
      <trkpt lat="46.11518" lon="6.72024">
        <ele>1771.3</ele>
        <time>2026-06-27T07:23:41Z</time>
      </trkpt>
      <trkpt lat="46.11518" lon="6.72024">
        <ele>1771.2</ele>
        <time>2026-06-27T07:23:42Z</time>
      </trkpt>
      <trkpt lat="46.11518" lon="6.72024">
        <ele>1771.2</ele>
        <time>2026-06-27T07:23:43Z</time>
      </trkpt>
      <trkpt lat="46.11518" lon="6.72024">
        <ele>1771.2</ele>
        <time>2026-06-27T07:23:44Z</time>
      </trkpt>
      <trkpt lat="46.11518" lon="6.72024">
        <ele>1771.2</ele>
        <time>2026-06-27T07:23:45Z</time>
      </trkpt>
      <trkpt lat="46.11518" lon="6.72024">
        <ele>1771.2</ele>
        <time>2026-06-27T07:23:46Z</time>
      </trkpt>
      <trkpt lat="46.11518" lon="6.72024">
        <ele>1771.1</ele>
        <time>2026-06-27T07:23:47Z</time>
      </trkpt>
      <trkpt lat="46.11518" lon="6.72024">
        <ele>1771.1</ele>
        <time>2026-06-27T07:23:48Z</time>
      </trkpt>
      <trkpt lat="46.11518" lon="6.72024">
        <ele>1771.1</ele>
        <time>2026-06-27T07:23:49Z</time>
      </trkpt>
      <trkpt lat="46.11518" lon="6.72024">
        <ele>1771.1</ele>
        <time>2026-06-27T07:23:50Z</time>
      </trkpt>
      <trkpt lat="46.11518" lon="6.72024">
        <ele>1771</ele>
        <time>2026-06-27T07:23:51Z</time>
      </trkpt>
      <trkpt lat="46.11518" lon="6.72025">
        <ele>1771.1</ele>
        <time>2026-06-27T07:23:52Z</time>
      </trkpt>
      <trkpt lat="46.11518" lon="6.72025">
        <ele>1771.2</ele>
        <time>2026-06-27T07:23:53Z</time>
      </trkpt>
      <trkpt lat="46.11518" lon="6.72025">
        <ele>1771.2</ele>
        <time>2026-06-27T07:23:54Z</time>
      </trkpt>
      <trkpt lat="46.11518" lon="6.72025">
        <ele>1771.2</ele>
        <time>2026-06-27T07:23:55Z</time>
      </trkpt>
      <trkpt lat="46.11519" lon="6.72025">
        <ele>1771.2</ele>
        <time>2026-06-27T07:23:56Z</time>
      </trkpt>
      <trkpt lat="46.11519" lon="6.72025">
        <ele>1771.1</ele>
        <time>2026-06-27T07:23:57Z</time>
      </trkpt>
      <trkpt lat="46.11519" lon="6.72025">
        <ele>1771.1</ele>
        <time>2026-06-27T07:23:58Z</time>
      </trkpt>
      <trkpt lat="46.11519" lon="6.72025">
        <ele>1771</ele>
        <time>2026-06-27T07:23:59Z</time>
      </trkpt>
      <trkpt lat="46.11519" lon="6.72025">
        <ele>1771.1</ele>
        <time>2026-06-27T07:24:00Z</time>
      </trkpt>
      <trkpt lat="46.11519" lon="6.72025">
        <ele>1771</ele>
        <time>2026-06-27T07:24:01Z</time>
      </trkpt>
      <trkpt lat="46.11519" lon="6.72025">
        <ele>1771</ele>
        <time>2026-06-27T07:24:02Z</time>
      </trkpt>
      <trkpt lat="46.11519" lon="6.72025">
        <ele>1771</ele>
        <time>2026-06-27T07:24:03Z</time>
      </trkpt>
      <trkpt lat="46.11519" lon="6.72025">
        <ele>1771.1</ele>
        <time>2026-06-27T07:24:04Z</time>
      </trkpt>
      <trkpt lat="46.11519" lon="6.72025">
        <ele>1771.1</ele>
        <time>2026-06-27T07:24:05Z</time>
      </trkpt>
      <trkpt lat="46.11519" lon="6.72025">
        <ele>1771.2</ele>
        <time>2026-06-27T07:24:06Z</time>
      </trkpt>
      <trkpt lat="46.11519" lon="6.72025">
        <ele>1771.3</ele>
        <time>2026-06-27T07:24:07Z</time>
      </trkpt>
      <trkpt lat="46.11519" lon="6.72025">
        <ele>1771.3</ele>
        <time>2026-06-27T07:24:08Z</time>
      </trkpt>
      <trkpt lat="46.11519" lon="6.72025">
        <ele>1771.4</ele>
        <time>2026-06-27T07:24:09Z</time>
      </trkpt>
      <trkpt lat="46.11518" lon="6.72025">
        <ele>1771.4</ele>
        <time>2026-06-27T07:24:10Z</time>
      </trkpt>
      <trkpt lat="46.11518" lon="6.72025">
        <ele>1771.3</ele>
        <time>2026-06-27T07:24:11Z</time>
      </trkpt>
      <trkpt lat="46.11518" lon="6.72025">
        <ele>1771.3</ele>
        <time>2026-06-27T07:24:12Z</time>
      </trkpt>
      <trkpt lat="46.11518" lon="6.72025">
        <ele>1771.4</ele>
        <time>2026-06-27T07:24:13Z</time>
      </trkpt>
      <trkpt lat="46.11518" lon="6.72025">
        <ele>1771.4</ele>
        <time>2026-06-27T07:24:14Z</time>
      </trkpt>
      <trkpt lat="46.11518" lon="6.72025">
        <ele>1771.4</ele>
        <time>2026-06-27T07:24:15Z</time>
      </trkpt>
      <trkpt lat="46.11518" lon="6.72025">
        <ele>1771.4</ele>
        <time>2026-06-27T07:24:16Z</time>
      </trkpt>
      <trkpt lat="46.11518" lon="6.72025">
        <ele>1771.5</ele>
        <time>2026-06-27T07:24:17Z</time>
      </trkpt>
      <trkpt lat="46.11518" lon="6.72025">
        <ele>1771.5</ele>
        <time>2026-06-27T07:24:18Z</time>
      </trkpt>
      <trkpt lat="46.11518" lon="6.72025">
        <ele>1771.5</ele>
        <time>2026-06-27T07:24:19Z</time>
      </trkpt>
      <trkpt lat="46.11518" lon="6.72025">
        <ele>1771.5</ele>
        <time>2026-06-27T07:24:20Z</time>
      </trkpt>
      <trkpt lat="46.11518" lon="6.72025">
        <ele>1771.5</ele>
        <time>2026-06-27T07:24:21Z</time>
      </trkpt>
      <trkpt lat="46.11518" lon="6.72025">
        <ele>1771.4</ele>
        <time>2026-06-27T07:24:22Z</time>
      </trkpt>
      <trkpt lat="46.11518" lon="6.72025">
        <ele>1771.4</ele>
        <time>2026-06-27T07:24:23Z</time>
      </trkpt>
      <trkpt lat="46.11518" lon="6.72025">
        <ele>1771.4</ele>
        <time>2026-06-27T07:24:24Z</time>
      </trkpt>
      <trkpt lat="46.11519" lon="6.72025">
        <ele>1771.4</ele>
        <time>2026-06-27T07:24:25Z</time>
      </trkpt>
      <trkpt lat="46.11518" lon="6.72025">
        <ele>1771.4</ele>
        <time>2026-06-27T07:24:26Z</time>
      </trkpt>
      <trkpt lat="46.11518" lon="6.72025">
        <ele>1771.4</ele>
        <time>2026-06-27T07:24:27Z</time>
      </trkpt>
      <trkpt lat="46.11518" lon="6.72026">
        <ele>1771.3</ele>
        <time>2026-06-27T07:24:28Z</time>
      </trkpt>
      <trkpt lat="46.11518" lon="6.72026">
        <ele>1771.4</ele>
        <time>2026-06-27T07:24:29Z</time>
      </trkpt>
      <trkpt lat="46.11518" lon="6.72026">
        <ele>1771.4</ele>
        <time>2026-06-27T07:24:30Z</time>
      </trkpt>
      <trkpt lat="46.11518" lon="6.72025">
        <ele>1771.4</ele>
        <time>2026-06-27T07:24:31Z</time>
      </trkpt>
      <trkpt lat="46.11518" lon="6.72025">
        <ele>1771.4</ele>
        <time>2026-06-27T07:24:32Z</time>
      </trkpt>
      <trkpt lat="46.11517" lon="6.72025">
        <ele>1771.4</ele>
        <time>2026-06-27T07:24:33Z</time>
      </trkpt>
      <trkpt lat="46.11517" lon="6.72024">
        <ele>1771.4</ele>
        <time>2026-06-27T07:24:34Z</time>
      </trkpt>
      <trkpt lat="46.11517" lon="6.72024">
        <ele>1771.4</ele>
        <time>2026-06-27T07:24:35Z</time>
      </trkpt>
      <trkpt lat="46.11517" lon="6.72025">
        <ele>1771.4</ele>
        <time>2026-06-27T07:24:36Z</time>
      </trkpt>
      <trkpt lat="46.11517" lon="6.72025">
        <ele>1771.3</ele>
        <time>2026-06-27T07:24:37Z</time>
      </trkpt>
      <trkpt lat="46.11517" lon="6.72025">
        <ele>1771.2</ele>
        <time>2026-06-27T07:24:38Z</time>
      </trkpt>
      <trkpt lat="46.11517" lon="6.72025">
        <ele>1771.2</ele>
        <time>2026-06-27T07:24:39Z</time>
      </trkpt>
      <trkpt lat="46.11517" lon="6.72025">
        <ele>1771.1</ele>
        <time>2026-06-27T07:24:40Z</time>
      </trkpt>
      <trkpt lat="46.11517" lon="6.72025">
        <ele>1771.1</ele>
        <time>2026-06-27T07:24:41Z</time>
      </trkpt>
      <trkpt lat="46.11517" lon="6.72025">
        <ele>1771.1</ele>
        <time>2026-06-27T07:24:42Z</time>
      </trkpt>
      <trkpt lat="46.11517" lon="6.72025">
        <ele>1771.1</ele>
        <time>2026-06-27T07:24:43Z</time>
      </trkpt>
      <trkpt lat="46.11517" lon="6.72025">
        <ele>1771</ele>
        <time>2026-06-27T07:24:44Z</time>
      </trkpt>
      <trkpt lat="46.11517" lon="6.72024">
        <ele>1770.9</ele>
        <time>2026-06-27T07:24:45Z</time>
      </trkpt>
      <trkpt lat="46.11517" lon="6.72024">
        <ele>1770.9</ele>
        <time>2026-06-27T07:24:46Z</time>
      </trkpt>
      <trkpt lat="46.11517" lon="6.72024">
        <ele>1770.9</ele>
        <time>2026-06-27T07:24:47Z</time>
      </trkpt>
      <trkpt lat="46.11517" lon="6.72024">
        <ele>1770.8</ele>
        <time>2026-06-27T07:24:48Z</time>
      </trkpt>
      <trkpt lat="46.11517" lon="6.72024">
        <ele>1770.9</ele>
        <time>2026-06-27T07:24:49Z</time>
      </trkpt>
      <trkpt lat="46.11517" lon="6.72024">
        <ele>1771</ele>
        <time>2026-06-27T07:24:50Z</time>
      </trkpt>
      <trkpt lat="46.11517" lon="6.72024">
        <ele>1771</ele>
        <time>2026-06-27T07:24:51Z</time>
      </trkpt>
      <trkpt lat="46.11517" lon="6.72025">
        <ele>1771.1</ele>
        <time>2026-06-27T07:24:52Z</time>
      </trkpt>
      <trkpt lat="46.11517" lon="6.72025">
        <ele>1771.1</ele>
        <time>2026-06-27T07:24:53Z</time>
      </trkpt>
      <trkpt lat="46.11517" lon="6.72025">
        <ele>1771.1</ele>
        <time>2026-06-27T07:24:54Z</time>
      </trkpt>
      <trkpt lat="46.11517" lon="6.72025">
        <ele>1771.2</ele>
        <time>2026-06-27T07:24:55Z</time>
      </trkpt>
      <trkpt lat="46.11517" lon="6.72025">
        <ele>1771.2</ele>
        <time>2026-06-27T07:24:56Z</time>
      </trkpt>
      <trkpt lat="46.11517" lon="6.72025">
        <ele>1771.2</ele>
        <time>2026-06-27T07:24:57Z</time>
      </trkpt>
      <trkpt lat="46.11517" lon="6.72025">
        <ele>1771.3</ele>
        <time>2026-06-27T07:24:58Z</time>
      </trkpt>
      <trkpt lat="46.11518" lon="6.72025">
        <ele>1771.2</ele>
        <time>2026-06-27T07:24:59Z</time>
      </trkpt>
      <trkpt lat="46.11518" lon="6.72025">
        <ele>1771.2</ele>
        <time>2026-06-27T07:25:00Z</time>
      </trkpt>
      <trkpt lat="46.11518" lon="6.72025">
        <ele>1771.2</ele>
        <time>2026-06-27T07:25:01Z</time>
      </trkpt>
      <trkpt lat="46.11518" lon="6.72025">
        <ele>1771.1</ele>
        <time>2026-06-27T07:25:02Z</time>
      </trkpt>
      <trkpt lat="46.11518" lon="6.72025">
        <ele>1771.1</ele>
        <time>2026-06-27T07:25:03Z</time>
      </trkpt>
      <trkpt lat="46.11518" lon="6.72025">
        <ele>1771</ele>
        <time>2026-06-27T07:25:04Z</time>
      </trkpt>
      <trkpt lat="46.11518" lon="6.72025">
        <ele>1771</ele>
        <time>2026-06-27T07:25:05Z</time>
      </trkpt>
      <trkpt lat="46.11518" lon="6.72025">
        <ele>1771.1</ele>
        <time>2026-06-27T07:25:06Z</time>
      </trkpt>
      <trkpt lat="46.11518" lon="6.72025">
        <ele>1771.1</ele>
        <time>2026-06-27T07:25:07Z</time>
      </trkpt>
      <trkpt lat="46.11518" lon="6.72025">
        <ele>1771.1</ele>
        <time>2026-06-27T07:25:08Z</time>
      </trkpt>
      <trkpt lat="46.11518" lon="6.72025">
        <ele>1771.2</ele>
        <time>2026-06-27T07:25:09Z</time>
      </trkpt>
      <trkpt lat="46.11518" lon="6.72025">
        <ele>1771.2</ele>
        <time>2026-06-27T07:25:10Z</time>
      </trkpt>
      <trkpt lat="46.11518" lon="6.72025">
        <ele>1771.2</ele>
        <time>2026-06-27T07:25:11Z</time>
      </trkpt>
      <trkpt lat="46.11518" lon="6.72025">
        <ele>1771.3</ele>
        <time>2026-06-27T07:25:12Z</time>
      </trkpt>
      <trkpt lat="46.11518" lon="6.72025">
        <ele>1771.3</ele>
        <time>2026-06-27T07:25:13Z</time>
      </trkpt>
      <trkpt lat="46.11518" lon="6.72025">
        <ele>1771.3</ele>
        <time>2026-06-27T07:25:14Z</time>
      </trkpt>
      <trkpt lat="46.11518" lon="6.72025">
        <ele>1771.3</ele>
        <time>2026-06-27T07:25:15Z</time>
      </trkpt>
      <trkpt lat="46.11518" lon="6.72025">
        <ele>1771.3</ele>
        <time>2026-06-27T07:25:16Z</time>
      </trkpt>
      <trkpt lat="46.11518" lon="6.72025">
        <ele>1771.3</ele>
        <time>2026-06-27T07:25:17Z</time>
      </trkpt>
      <trkpt lat="46.11518" lon="6.72025">
        <ele>1771.3</ele>
        <time>2026-06-27T07:25:18Z</time>
      </trkpt>
      <trkpt lat="46.11518" lon="6.72025">
        <ele>1771.3</ele>
        <time>2026-06-27T07:25:19Z</time>
      </trkpt>
      <trkpt lat="46.11518" lon="6.72025">
        <ele>1771.2</ele>
        <time>2026-06-27T07:25:20Z</time>
      </trkpt>
      <trkpt lat="46.11518" lon="6.72025">
        <ele>1771.2</ele>
        <time>2026-06-27T07:25:21Z</time>
      </trkpt>
      <trkpt lat="46.11518" lon="6.72025">
        <ele>1771.2</ele>
        <time>2026-06-27T07:25:22Z</time>
      </trkpt>
      <trkpt lat="46.11518" lon="6.72026">
        <ele>1771.3</ele>
        <time>2026-06-27T07:25:23Z</time>
      </trkpt>
      <trkpt lat="46.11518" lon="6.72026">
        <ele>1771.4</ele>
        <time>2026-06-27T07:25:24Z</time>
      </trkpt>
      <trkpt lat="46.11518" lon="6.72026">
        <ele>1771.4</ele>
        <time>2026-06-27T07:25:25Z</time>
      </trkpt>
      <trkpt lat="46.11518" lon="6.72026">
        <ele>1771.4</ele>
        <time>2026-06-27T07:25:26Z</time>
      </trkpt>
      <trkpt lat="46.11518" lon="6.72026">
        <ele>1771.3</ele>
        <time>2026-06-27T07:25:27Z</time>
      </trkpt>
      <trkpt lat="46.11517" lon="6.72026">
        <ele>1771.2</ele>
        <time>2026-06-27T07:25:28Z</time>
      </trkpt>
      <trkpt lat="46.11517" lon="6.72026">
        <ele>1771.3</ele>
        <time>2026-06-27T07:25:29Z</time>
      </trkpt>
      <trkpt lat="46.11517" lon="6.72026">
        <ele>1771.3</ele>
        <time>2026-06-27T07:25:30Z</time>
      </trkpt>
      <trkpt lat="46.11517" lon="6.72026">
        <ele>1771.2</ele>
        <time>2026-06-27T07:25:31Z</time>
      </trkpt>
      <trkpt lat="46.11517" lon="6.72027">
        <ele>1771.2</ele>
        <time>2026-06-27T07:25:32Z</time>
      </trkpt>
      <trkpt lat="46.11517" lon="6.72027">
        <ele>1771.1</ele>
        <time>2026-06-27T07:25:33Z</time>
      </trkpt>
      <trkpt lat="46.11517" lon="6.72027">
        <ele>1771.1</ele>
        <time>2026-06-27T07:25:34Z</time>
      </trkpt>
      <trkpt lat="46.11517" lon="6.72027">
        <ele>1771.1</ele>
        <time>2026-06-27T07:25:35Z</time>
      </trkpt>
      <trkpt lat="46.11516" lon="6.72027">
        <ele>1771.1</ele>
        <time>2026-06-27T07:25:36Z</time>
      </trkpt>
      <trkpt lat="46.11516" lon="6.72027">
        <ele>1771.1</ele>
        <time>2026-06-27T07:25:37Z</time>
      </trkpt>
      <trkpt lat="46.11516" lon="6.72027">
        <ele>1771.1</ele>
        <time>2026-06-27T07:25:38Z</time>
      </trkpt>
      <trkpt lat="46.11516" lon="6.72027">
        <ele>1771.1</ele>
        <time>2026-06-27T07:25:39Z</time>
      </trkpt>
      <trkpt lat="46.11516" lon="6.72027">
        <ele>1771.1</ele>
        <time>2026-06-27T07:25:40Z</time>
      </trkpt>
      <trkpt lat="46.11516" lon="6.72027">
        <ele>1771.1</ele>
        <time>2026-06-27T07:25:41Z</time>
      </trkpt>
      <trkpt lat="46.11516" lon="6.72027">
        <ele>1771.1</ele>
        <time>2026-06-27T07:25:42Z</time>
      </trkpt>
      <trkpt lat="46.11516" lon="6.72027">
        <ele>1771.1</ele>
        <time>2026-06-27T07:25:43Z</time>
      </trkpt>
      <trkpt lat="46.11516" lon="6.72027">
        <ele>1771.3</ele>
        <time>2026-06-27T07:25:44Z</time>
      </trkpt>
      <trkpt lat="46.11515" lon="6.72027">
        <ele>1771.2</ele>
        <time>2026-06-27T07:25:45Z</time>
      </trkpt>
      <trkpt lat="46.11515" lon="6.72027">
        <ele>1771.1</ele>
        <time>2026-06-27T07:25:46Z</time>
      </trkpt>
      <trkpt lat="46.11515" lon="6.72027">
        <ele>1771.1</ele>
        <time>2026-06-27T07:25:47Z</time>
      </trkpt>
      <trkpt lat="46.11515" lon="6.72027">
        <ele>1771.1</ele>
        <time>2026-06-27T07:25:48Z</time>
      </trkpt>
      <trkpt lat="46.11515" lon="6.72027">
        <ele>1771.1</ele>
        <time>2026-06-27T07:25:49Z</time>
      </trkpt>
      <trkpt lat="46.11515" lon="6.72027">
        <ele>1771.1</ele>
        <time>2026-06-27T07:25:50Z</time>
      </trkpt>
      <trkpt lat="46.11515" lon="6.72027">
        <ele>1771.1</ele>
        <time>2026-06-27T07:25:51Z</time>
      </trkpt>
      <trkpt lat="46.11515" lon="6.72027">
        <ele>1771.2</ele>
        <time>2026-06-27T07:25:52Z</time>
      </trkpt>
      <trkpt lat="46.11515" lon="6.72027">
        <ele>1771.2</ele>
        <time>2026-06-27T07:25:53Z</time>
      </trkpt>
      <trkpt lat="46.11515" lon="6.72027">
        <ele>1771.2</ele>
        <time>2026-06-27T07:25:54Z</time>
      </trkpt>
      <trkpt lat="46.11515" lon="6.72027">
        <ele>1771.2</ele>
        <time>2026-06-27T07:25:55Z</time>
      </trkpt>
      <trkpt lat="46.11515" lon="6.72027">
        <ele>1771.2</ele>
        <time>2026-06-27T07:25:56Z</time>
      </trkpt>
      <trkpt lat="46.11515" lon="6.72027">
        <ele>1771.2</ele>
        <time>2026-06-27T07:25:57Z</time>
      </trkpt>
      <trkpt lat="46.11515" lon="6.72027">
        <ele>1771.3</ele>
        <time>2026-06-27T07:25:58Z</time>
      </trkpt>
      <trkpt lat="46.11515" lon="6.72027">
        <ele>1771.4</ele>
        <time>2026-06-27T07:25:59Z</time>
      </trkpt>
      <trkpt lat="46.11515" lon="6.72027">
        <ele>1771.4</ele>
        <time>2026-06-27T07:26:00Z</time>
      </trkpt>
      <trkpt lat="46.11515" lon="6.72027">
        <ele>1771.4</ele>
        <time>2026-06-27T07:26:01Z</time>
      </trkpt>
      <trkpt lat="46.11516" lon="6.72027">
        <ele>1771.4</ele>
        <time>2026-06-27T07:26:02Z</time>
      </trkpt>
      <trkpt lat="46.11516" lon="6.72027">
        <ele>1771.4</ele>
        <time>2026-06-27T07:26:03Z</time>
      </trkpt>
      <trkpt lat="46.11516" lon="6.72027">
        <ele>1771.4</ele>
        <time>2026-06-27T07:26:04Z</time>
      </trkpt>
      <trkpt lat="46.11516" lon="6.72027">
        <ele>1771.4</ele>
        <time>2026-06-27T07:26:05Z</time>
      </trkpt>
      <trkpt lat="46.11516" lon="6.72027">
        <ele>1771.4</ele>
        <time>2026-06-27T07:26:06Z</time>
      </trkpt>
      <trkpt lat="46.11516" lon="6.72027">
        <ele>1771.4</ele>
        <time>2026-06-27T07:26:07Z</time>
      </trkpt>
      <trkpt lat="46.11516" lon="6.72027">
        <ele>1771.4</ele>
        <time>2026-06-27T07:26:08Z</time>
      </trkpt>
      <trkpt lat="46.11516" lon="6.72027">
        <ele>1771.3</ele>
        <time>2026-06-27T07:26:09Z</time>
      </trkpt>
      <trkpt lat="46.11516" lon="6.72026">
        <ele>1771.3</ele>
        <time>2026-06-27T07:26:10Z</time>
      </trkpt>
      <trkpt lat="46.11516" lon="6.72027">
        <ele>1771.3</ele>
        <time>2026-06-27T07:26:11Z</time>
      </trkpt>
      <trkpt lat="46.11516" lon="6.72027">
        <ele>1771.2</ele>
        <time>2026-06-27T07:26:12Z</time>
      </trkpt>
      <trkpt lat="46.11516" lon="6.72027">
        <ele>1771.2</ele>
        <time>2026-06-27T07:26:13Z</time>
      </trkpt>
      <trkpt lat="46.11516" lon="6.72026">
        <ele>1771.2</ele>
        <time>2026-06-27T07:26:14Z</time>
      </trkpt>
      <trkpt lat="46.11516" lon="6.72026">
        <ele>1771.1</ele>
        <time>2026-06-27T07:26:15Z</time>
      </trkpt>
      <trkpt lat="46.11516" lon="6.72026">
        <ele>1771.1</ele>
        <time>2026-06-27T07:26:16Z</time>
      </trkpt>
      <trkpt lat="46.11516" lon="6.72027">
        <ele>1771.1</ele>
        <time>2026-06-27T07:26:17Z</time>
      </trkpt>
      <trkpt lat="46.11516" lon="6.72027">
        <ele>1771.1</ele>
        <time>2026-06-27T07:26:18Z</time>
      </trkpt>
      <trkpt lat="46.11517" lon="6.72027">
        <ele>1771.1</ele>
        <time>2026-06-27T07:26:19Z</time>
      </trkpt>
      <trkpt lat="46.11517" lon="6.72027">
        <ele>1771.1</ele>
        <time>2026-06-27T07:26:20Z</time>
      </trkpt>
      <trkpt lat="46.11517" lon="6.72027">
        <ele>1771</ele>
        <time>2026-06-27T07:26:21Z</time>
      </trkpt>
      <trkpt lat="46.11517" lon="6.72027">
        <ele>1771.1</ele>
        <time>2026-06-27T07:26:22Z</time>
      </trkpt>
      <trkpt lat="46.11517" lon="6.72027">
        <ele>1771</ele>
        <time>2026-06-27T07:26:23Z</time>
      </trkpt>
      <trkpt lat="46.11517" lon="6.72027">
        <ele>1771</ele>
        <time>2026-06-27T07:26:24Z</time>
      </trkpt>
      <trkpt lat="46.11517" lon="6.72027">
        <ele>1771</ele>
        <time>2026-06-27T07:26:25Z</time>
      </trkpt>
      <trkpt lat="46.11517" lon="6.72027">
        <ele>1771</ele>
        <time>2026-06-27T07:26:26Z</time>
      </trkpt>
      <trkpt lat="46.11517" lon="6.72027">
        <ele>1771</ele>
        <time>2026-06-27T07:26:27Z</time>
      </trkpt>
      <trkpt lat="46.11517" lon="6.72027">
        <ele>1771</ele>
        <time>2026-06-27T07:26:28Z</time>
      </trkpt>
      <trkpt lat="46.11517" lon="6.72027">
        <ele>1771.1</ele>
        <time>2026-06-27T07:26:29Z</time>
      </trkpt>
      <trkpt lat="46.11517" lon="6.72027">
        <ele>1771.1</ele>
        <time>2026-06-27T07:26:30Z</time>
      </trkpt>
      <trkpt lat="46.11517" lon="6.72026">
        <ele>1771.1</ele>
        <time>2026-06-27T07:26:31Z</time>
      </trkpt>
      <trkpt lat="46.11517" lon="6.72026">
        <ele>1771.1</ele>
        <time>2026-06-27T07:26:32Z</time>
      </trkpt>
      <trkpt lat="46.11517" lon="6.72027">
        <ele>1771.1</ele>
        <time>2026-06-27T07:26:33Z</time>
      </trkpt>
      <trkpt lat="46.11517" lon="6.72027">
        <ele>1771.1</ele>
        <time>2026-06-27T07:26:34Z</time>
      </trkpt>
      <trkpt lat="46.11517" lon="6.72027">
        <ele>1771.1</ele>
        <time>2026-06-27T07:26:35Z</time>
      </trkpt>
      <trkpt lat="46.11518" lon="6.72027">
        <ele>1771.1</ele>
        <time>2026-06-27T07:26:36Z</time>
      </trkpt>
      <trkpt lat="46.11518" lon="6.72027">
        <ele>1771.1</ele>
        <time>2026-06-27T07:26:37Z</time>
      </trkpt>
      <trkpt lat="46.11518" lon="6.72027">
        <ele>1771.1</ele>
        <time>2026-06-27T07:26:38Z</time>
      </trkpt>
      <trkpt lat="46.11518" lon="6.72027">
        <ele>1771.1</ele>
        <time>2026-06-27T07:26:39Z</time>
      </trkpt>
      <trkpt lat="46.11518" lon="6.72027">
        <ele>1771.1</ele>
        <time>2026-06-27T07:26:40Z</time>
      </trkpt>
      <trkpt lat="46.11518" lon="6.72027">
        <ele>1771</ele>
        <time>2026-06-27T07:26:41Z</time>
      </trkpt>
      <trkpt lat="46.11518" lon="6.72027">
        <ele>1771</ele>
        <time>2026-06-27T07:26:42Z</time>
      </trkpt>
      <trkpt lat="46.11518" lon="6.72027">
        <ele>1771</ele>
        <time>2026-06-27T07:26:43Z</time>
      </trkpt>
      <trkpt lat="46.11518" lon="6.72027">
        <ele>1771</ele>
        <time>2026-06-27T07:26:44Z</time>
      </trkpt>
      <trkpt lat="46.11518" lon="6.72027">
        <ele>1771</ele>
        <time>2026-06-27T07:26:45Z</time>
      </trkpt>
      <trkpt lat="46.11518" lon="6.72027">
        <ele>1771</ele>
        <time>2026-06-27T07:26:46Z</time>
      </trkpt>
      <trkpt lat="46.11518" lon="6.72026">
        <ele>1771</ele>
        <time>2026-06-27T07:26:47Z</time>
      </trkpt>
      <trkpt lat="46.11518" lon="6.72026">
        <ele>1771</ele>
        <time>2026-06-27T07:26:48Z</time>
      </trkpt>
      <trkpt lat="46.11518" lon="6.72026">
        <ele>1771</ele>
        <time>2026-06-27T07:26:49Z</time>
      </trkpt>
      <trkpt lat="46.11518" lon="6.72026">
        <ele>1771.1</ele>
        <time>2026-06-27T07:26:50Z</time>
      </trkpt>
      <trkpt lat="46.11518" lon="6.72026">
        <ele>1771.1</ele>
        <time>2026-06-27T07:26:51Z</time>
      </trkpt>
      <trkpt lat="46.11518" lon="6.72026">
        <ele>1771.2</ele>
        <time>2026-06-27T07:26:52Z</time>
      </trkpt>
      <trkpt lat="46.11518" lon="6.72026">
        <ele>1771.1</ele>
        <time>2026-06-27T07:26:53Z</time>
      </trkpt>
      <trkpt lat="46.11518" lon="6.72026">
        <ele>1771.1</ele>
        <time>2026-06-27T07:26:54Z</time>
      </trkpt>
      <trkpt lat="46.11518" lon="6.72026">
        <ele>1771.1</ele>
        <time>2026-06-27T07:26:55Z</time>
      </trkpt>
      <trkpt lat="46.11518" lon="6.72026">
        <ele>1771.1</ele>
        <time>2026-06-27T07:26:56Z</time>
      </trkpt>
      <trkpt lat="46.11518" lon="6.72026">
        <ele>1771.2</ele>
        <time>2026-06-27T07:26:57Z</time>
      </trkpt>
      <trkpt lat="46.11518" lon="6.72026">
        <ele>1771.1</ele>
        <time>2026-06-27T07:26:58Z</time>
      </trkpt>
      <trkpt lat="46.11518" lon="6.72026">
        <ele>1771.1</ele>
        <time>2026-06-27T07:26:59Z</time>
      </trkpt>
      <trkpt lat="46.11518" lon="6.72026">
        <ele>1771.1</ele>
        <time>2026-06-27T07:27:00Z</time>
      </trkpt>
      <trkpt lat="46.11518" lon="6.72026">
        <ele>1771.1</ele>
        <time>2026-06-27T07:27:01Z</time>
      </trkpt>
      <trkpt lat="46.11518" lon="6.72026">
        <ele>1771.1</ele>
        <time>2026-06-27T07:27:02Z</time>
      </trkpt>
      <trkpt lat="46.11518" lon="6.72026">
        <ele>1771</ele>
        <time>2026-06-27T07:27:03Z</time>
      </trkpt>
      <trkpt lat="46.11519" lon="6.72026">
        <ele>1771.1</ele>
        <time>2026-06-27T07:27:04Z</time>
      </trkpt>
      <trkpt lat="46.11519" lon="6.72026">
        <ele>1771.1</ele>
        <time>2026-06-27T07:27:05Z</time>
      </trkpt>
      <trkpt lat="46.11519" lon="6.72026">
        <ele>1771.1</ele>
        <time>2026-06-27T07:27:06Z</time>
      </trkpt>
      <trkpt lat="46.11519" lon="6.72026">
        <ele>1771.1</ele>
        <time>2026-06-27T07:27:07Z</time>
      </trkpt>
      <trkpt lat="46.11519" lon="6.72026">
        <ele>1771.1</ele>
        <time>2026-06-27T07:27:08Z</time>
      </trkpt>
      <trkpt lat="46.11519" lon="6.72026">
        <ele>1771.1</ele>
        <time>2026-06-27T07:27:09Z</time>
      </trkpt>
      <trkpt lat="46.11519" lon="6.72026">
        <ele>1771.1</ele>
        <time>2026-06-27T07:27:10Z</time>
      </trkpt>
      <trkpt lat="46.11519" lon="6.72026">
        <ele>1771.1</ele>
        <time>2026-06-27T07:27:11Z</time>
      </trkpt>
      <trkpt lat="46.11519" lon="6.72027">
        <ele>1771.2</ele>
        <time>2026-06-27T07:27:12Z</time>
      </trkpt>
      <trkpt lat="46.11519" lon="6.72027">
        <ele>1771.2</ele>
        <time>2026-06-27T07:27:13Z</time>
      </trkpt>
      <trkpt lat="46.11519" lon="6.72027">
        <ele>1771.2</ele>
        <time>2026-06-27T07:27:14Z</time>
      </trkpt>
      <trkpt lat="46.11519" lon="6.72027">
        <ele>1771.2</ele>
        <time>2026-06-27T07:27:15Z</time>
      </trkpt>
      <trkpt lat="46.11519" lon="6.72027">
        <ele>1771.1</ele>
        <time>2026-06-27T07:27:16Z</time>
      </trkpt>
      <trkpt lat="46.11519" lon="6.72027">
        <ele>1771</ele>
        <time>2026-06-27T07:27:17Z</time>
      </trkpt>
      <trkpt lat="46.11519" lon="6.72027">
        <ele>1771</ele>
        <time>2026-06-27T07:27:18Z</time>
      </trkpt>
      <trkpt lat="46.11519" lon="6.72027">
        <ele>1771</ele>
        <time>2026-06-27T07:27:19Z</time>
      </trkpt>
      <trkpt lat="46.11519" lon="6.72027">
        <ele>1771</ele>
        <time>2026-06-27T07:27:20Z</time>
      </trkpt>
      <trkpt lat="46.11519" lon="6.72027">
        <ele>1771</ele>
        <time>2026-06-27T07:27:21Z</time>
      </trkpt>
      <trkpt lat="46.11519" lon="6.72027">
        <ele>1771.1</ele>
        <time>2026-06-27T07:27:22Z</time>
      </trkpt>
      <trkpt lat="46.11519" lon="6.72027">
        <ele>1771.1</ele>
        <time>2026-06-27T07:27:23Z</time>
      </trkpt>
      <trkpt lat="46.11519" lon="6.72027">
        <ele>1771.1</ele>
        <time>2026-06-27T07:27:24Z</time>
      </trkpt>
      <trkpt lat="46.11519" lon="6.72027">
        <ele>1771</ele>
        <time>2026-06-27T07:27:25Z</time>
      </trkpt>
      <trkpt lat="46.11519" lon="6.72027">
        <ele>1771</ele>
        <time>2026-06-27T07:27:26Z</time>
      </trkpt>
      <trkpt lat="46.11519" lon="6.72027">
        <ele>1771</ele>
        <time>2026-06-27T07:27:27Z</time>
      </trkpt>
      <trkpt lat="46.11518" lon="6.72027">
        <ele>1770.9</ele>
        <time>2026-06-27T07:27:28Z</time>
      </trkpt>
      <trkpt lat="46.11518" lon="6.72028">
        <ele>1770.9</ele>
        <time>2026-06-27T07:27:29Z</time>
      </trkpt>
      <trkpt lat="46.11518" lon="6.72028">
        <ele>1770.8</ele>
        <time>2026-06-27T07:27:30Z</time>
      </trkpt>
      <trkpt lat="46.11518" lon="6.72028">
        <ele>1770.8</ele>
        <time>2026-06-27T07:27:31Z</time>
      </trkpt>
      <trkpt lat="46.11518" lon="6.72028">
        <ele>1770.8</ele>
        <time>2026-06-27T07:27:32Z</time>
      </trkpt>
      <trkpt lat="46.11518" lon="6.72028">
        <ele>1770.8</ele>
        <time>2026-06-27T07:27:33Z</time>
      </trkpt>
      <trkpt lat="46.11518" lon="6.72028">
        <ele>1770.8</ele>
        <time>2026-06-27T07:27:34Z</time>
      </trkpt>
      <trkpt lat="46.11518" lon="6.72028">
        <ele>1770.9</ele>
        <time>2026-06-27T07:27:35Z</time>
      </trkpt>
      <trkpt lat="46.11518" lon="6.72028">
        <ele>1770.9</ele>
        <time>2026-06-27T07:27:36Z</time>
      </trkpt>
      <trkpt lat="46.11518" lon="6.72028">
        <ele>1770.9</ele>
        <time>2026-06-27T07:27:37Z</time>
      </trkpt>
      <trkpt lat="46.11518" lon="6.72028">
        <ele>1771</ele>
        <time>2026-06-27T07:27:38Z</time>
      </trkpt>
      <trkpt lat="46.11518" lon="6.72028">
        <ele>1771</ele>
        <time>2026-06-27T07:27:39Z</time>
      </trkpt>
      <trkpt lat="46.11518" lon="6.72028">
        <ele>1771.1</ele>
        <time>2026-06-27T07:27:40Z</time>
      </trkpt>
      <trkpt lat="46.11518" lon="6.72028">
        <ele>1771.1</ele>
        <time>2026-06-27T07:27:41Z</time>
      </trkpt>
      <trkpt lat="46.11518" lon="6.72028">
        <ele>1771.1</ele>
        <time>2026-06-27T07:27:42Z</time>
      </trkpt>
      <trkpt lat="46.11518" lon="6.72028">
        <ele>1771.1</ele>
        <time>2026-06-27T07:27:43Z</time>
      </trkpt>
      <trkpt lat="46.11518" lon="6.72028">
        <ele>1771.1</ele>
        <time>2026-06-27T07:27:44Z</time>
      </trkpt>
      <trkpt lat="46.11518" lon="6.72028">
        <ele>1771.1</ele>
        <time>2026-06-27T07:27:45Z</time>
      </trkpt>
      <trkpt lat="46.11518" lon="6.72028">
        <ele>1771.2</ele>
        <time>2026-06-27T07:27:46Z</time>
      </trkpt>
      <trkpt lat="46.11518" lon="6.72028">
        <ele>1771.2</ele>
        <time>2026-06-27T07:27:47Z</time>
      </trkpt>
      <trkpt lat="46.11518" lon="6.72028">
        <ele>1771.2</ele>
        <time>2026-06-27T07:27:48Z</time>
      </trkpt>
      <trkpt lat="46.11518" lon="6.72028">
        <ele>1771.2</ele>
        <time>2026-06-27T07:27:49Z</time>
      </trkpt>
      <trkpt lat="46.11518" lon="6.72027">
        <ele>1771.2</ele>
        <time>2026-06-27T07:27:50Z</time>
      </trkpt>
      <trkpt lat="46.11518" lon="6.72027">
        <ele>1771.2</ele>
        <time>2026-06-27T07:27:51Z</time>
      </trkpt>
      <trkpt lat="46.11518" lon="6.72027">
        <ele>1771.2</ele>
        <time>2026-06-27T07:27:52Z</time>
      </trkpt>
      <trkpt lat="46.11518" lon="6.72027">
        <ele>1771.2</ele>
        <time>2026-06-27T07:27:53Z</time>
      </trkpt>
      <trkpt lat="46.11518" lon="6.72027">
        <ele>1771.2</ele>
        <time>2026-06-27T07:27:54Z</time>
      </trkpt>
      <trkpt lat="46.11518" lon="6.72027">
        <ele>1771.2</ele>
        <time>2026-06-27T07:27:55Z</time>
      </trkpt>
      <trkpt lat="46.11518" lon="6.72027">
        <ele>1771.2</ele>
        <time>2026-06-27T07:27:56Z</time>
      </trkpt>
      <trkpt lat="46.11518" lon="6.72027">
        <ele>1771.2</ele>
        <time>2026-06-27T07:27:57Z</time>
      </trkpt>
      <trkpt lat="46.11517" lon="6.72027">
        <ele>1771.2</ele>
        <time>2026-06-27T07:27:58Z</time>
      </trkpt>
      <trkpt lat="46.11517" lon="6.72027">
        <ele>1771.2</ele>
        <time>2026-06-27T07:27:59Z</time>
      </trkpt>
      <trkpt lat="46.11517" lon="6.72027">
        <ele>1771.2</ele>
        <time>2026-06-27T07:28:00Z</time>
      </trkpt>
      <trkpt lat="46.11517" lon="6.72027">
        <ele>1771.3</ele>
        <time>2026-06-27T07:28:01Z</time>
      </trkpt>
      <trkpt lat="46.11517" lon="6.72028">
        <ele>1771.3</ele>
        <time>2026-06-27T07:28:02Z</time>
      </trkpt>
      <trkpt lat="46.11517" lon="6.72028">
        <ele>1771.3</ele>
        <time>2026-06-27T07:28:03Z</time>
      </trkpt>
      <trkpt lat="46.11516" lon="6.72028">
        <ele>1771.2</ele>
        <time>2026-06-27T07:28:04Z</time>
      </trkpt>
      <trkpt lat="46.11516" lon="6.72028">
        <ele>1771.2</ele>
        <time>2026-06-27T07:28:05Z</time>
      </trkpt>
      <trkpt lat="46.11516" lon="6.72028">
        <ele>1771.2</ele>
        <time>2026-06-27T07:28:06Z</time>
      </trkpt>
      <trkpt lat="46.11516" lon="6.72028">
        <ele>1771.1</ele>
        <time>2026-06-27T07:28:07Z</time>
      </trkpt>
      <trkpt lat="46.11515" lon="6.72028">
        <ele>1771.1</ele>
        <time>2026-06-27T07:28:08Z</time>
      </trkpt>
      <trkpt lat="46.11515" lon="6.72028">
        <ele>1771.1</ele>
        <time>2026-06-27T07:28:09Z</time>
      </trkpt>
      <trkpt lat="46.11515" lon="6.72029">
        <ele>1771.1</ele>
        <time>2026-06-27T07:28:10Z</time>
      </trkpt>
      <trkpt lat="46.11515" lon="6.72029">
        <ele>1771.1</ele>
        <time>2026-06-27T07:28:11Z</time>
      </trkpt>
      <trkpt lat="46.11515" lon="6.72029">
        <ele>1771.2</ele>
        <time>2026-06-27T07:28:12Z</time>
      </trkpt>
      <trkpt lat="46.11515" lon="6.72029">
        <ele>1771.2</ele>
        <time>2026-06-27T07:28:13Z</time>
      </trkpt>
      <trkpt lat="46.11515" lon="6.72029">
        <ele>1771.2</ele>
        <time>2026-06-27T07:28:14Z</time>
      </trkpt>
      <trkpt lat="46.11515" lon="6.72029">
        <ele>1771.2</ele>
        <time>2026-06-27T07:28:15Z</time>
      </trkpt>
      <trkpt lat="46.11515" lon="6.72029">
        <ele>1771.1</ele>
        <time>2026-06-27T07:28:16Z</time>
      </trkpt>
      <trkpt lat="46.11515" lon="6.72029">
        <ele>1771.1</ele>
        <time>2026-06-27T07:28:17Z</time>
      </trkpt>
      <trkpt lat="46.11515" lon="6.72029">
        <ele>1771</ele>
        <time>2026-06-27T07:28:18Z</time>
      </trkpt>
      <trkpt lat="46.11515" lon="6.72029">
        <ele>1771</ele>
        <time>2026-06-27T07:28:19Z</time>
      </trkpt>
      <trkpt lat="46.11515" lon="6.72029">
        <ele>1771.1</ele>
        <time>2026-06-27T07:28:20Z</time>
      </trkpt>
      <trkpt lat="46.11515" lon="6.72029">
        <ele>1771.1</ele>
        <time>2026-06-27T07:28:21Z</time>
      </trkpt>
      <trkpt lat="46.11515" lon="6.72029">
        <ele>1771.1</ele>
        <time>2026-06-27T07:28:22Z</time>
      </trkpt>
      <trkpt lat="46.11515" lon="6.7203">
        <ele>1771.1</ele>
        <time>2026-06-27T07:28:23Z</time>
      </trkpt>
      <trkpt lat="46.11514" lon="6.7203">
        <ele>1771</ele>
        <time>2026-06-27T07:28:24Z</time>
      </trkpt>
      <trkpt lat="46.11514" lon="6.7203">
        <ele>1771</ele>
        <time>2026-06-27T07:28:25Z</time>
      </trkpt>
      <trkpt lat="46.11514" lon="6.7203">
        <ele>1771</ele>
        <time>2026-06-27T07:28:26Z</time>
      </trkpt>
      <trkpt lat="46.11514" lon="6.7203">
        <ele>1771.1</ele>
        <time>2026-06-27T07:28:27Z</time>
      </trkpt>
      <trkpt lat="46.11514" lon="6.72031">
        <ele>1771</ele>
        <time>2026-06-27T07:28:28Z</time>
      </trkpt>
      <trkpt lat="46.11514" lon="6.72031">
        <ele>1771</ele>
        <time>2026-06-27T07:28:29Z</time>
      </trkpt>
      <trkpt lat="46.11514" lon="6.72031">
        <ele>1771</ele>
        <time>2026-06-27T07:28:30Z</time>
      </trkpt>
      <trkpt lat="46.11514" lon="6.72031">
        <ele>1771</ele>
        <time>2026-06-27T07:28:31Z</time>
      </trkpt>
      <trkpt lat="46.11514" lon="6.72031">
        <ele>1771</ele>
        <time>2026-06-27T07:28:32Z</time>
      </trkpt>
      <trkpt lat="46.11514" lon="6.72031">
        <ele>1771</ele>
        <time>2026-06-27T07:28:33Z</time>
      </trkpt>
      <trkpt lat="46.11514" lon="6.72032">
        <ele>1771</ele>
        <time>2026-06-27T07:28:34Z</time>
      </trkpt>
      <trkpt lat="46.11514" lon="6.72032">
        <ele>1770.9</ele>
        <time>2026-06-27T07:28:35Z</time>
      </trkpt>
      <trkpt lat="46.11514" lon="6.72032">
        <ele>1770.9</ele>
        <time>2026-06-27T07:28:36Z</time>
      </trkpt>
      <trkpt lat="46.11514" lon="6.72032">
        <ele>1770.9</ele>
        <time>2026-06-27T07:28:37Z</time>
      </trkpt>
      <trkpt lat="46.11514" lon="6.72032">
        <ele>1770.9</ele>
        <time>2026-06-27T07:28:38Z</time>
      </trkpt>
      <trkpt lat="46.11514" lon="6.72032">
        <ele>1770.9</ele>
        <time>2026-06-27T07:28:39Z</time>
      </trkpt>
      <trkpt lat="46.11513" lon="6.72032">
        <ele>1770.9</ele>
        <time>2026-06-27T07:28:40Z</time>
      </trkpt>
      <trkpt lat="46.11513" lon="6.72032">
        <ele>1770.9</ele>
        <time>2026-06-27T07:28:41Z</time>
      </trkpt>
      <trkpt lat="46.11513" lon="6.72032">
        <ele>1770.9</ele>
        <time>2026-06-27T07:28:42Z</time>
      </trkpt>
      <trkpt lat="46.11513" lon="6.72032">
        <ele>1770.8</ele>
        <time>2026-06-27T07:28:43Z</time>
      </trkpt>
      <trkpt lat="46.11513" lon="6.72033">
        <ele>1770.8</ele>
        <time>2026-06-27T07:28:44Z</time>
      </trkpt>
      <trkpt lat="46.11513" lon="6.72033">
        <ele>1770.7</ele>
        <time>2026-06-27T07:28:45Z</time>
      </trkpt>
      <trkpt lat="46.11513" lon="6.72033">
        <ele>1770.8</ele>
        <time>2026-06-27T07:28:46Z</time>
      </trkpt>
      <trkpt lat="46.11513" lon="6.72033">
        <ele>1770.7</ele>
        <time>2026-06-27T07:28:47Z</time>
      </trkpt>
      <trkpt lat="46.11513" lon="6.72033">
        <ele>1770.8</ele>
        <time>2026-06-27T07:28:48Z</time>
      </trkpt>
      <trkpt lat="46.11513" lon="6.72033">
        <ele>1770.7</ele>
        <time>2026-06-27T07:28:49Z</time>
      </trkpt>
      <trkpt lat="46.11513" lon="6.72034">
        <ele>1770.7</ele>
        <time>2026-06-27T07:28:50Z</time>
      </trkpt>
      <trkpt lat="46.11513" lon="6.72034">
        <ele>1770.7</ele>
        <time>2026-06-27T07:28:51Z</time>
      </trkpt>
      <trkpt lat="46.11513" lon="6.72034">
        <ele>1770.7</ele>
        <time>2026-06-27T07:28:52Z</time>
      </trkpt>
      <trkpt lat="46.11513" lon="6.72034">
        <ele>1770.7</ele>
        <time>2026-06-27T07:28:53Z</time>
      </trkpt>
      <trkpt lat="46.11513" lon="6.72034">
        <ele>1770.8</ele>
        <time>2026-06-27T07:28:54Z</time>
      </trkpt>
      <trkpt lat="46.11513" lon="6.72034">
        <ele>1770.9</ele>
        <time>2026-06-27T07:28:55Z</time>
      </trkpt>
      <trkpt lat="46.11513" lon="6.72034">
        <ele>1770.9</ele>
        <time>2026-06-27T07:28:56Z</time>
      </trkpt>
      <trkpt lat="46.11513" lon="6.72033">
        <ele>1771</ele>
        <time>2026-06-27T07:28:57Z</time>
      </trkpt>
      <trkpt lat="46.11513" lon="6.72033">
        <ele>1771</ele>
        <time>2026-06-27T07:28:58Z</time>
      </trkpt>
      <trkpt lat="46.11513" lon="6.72033">
        <ele>1770.9</ele>
        <time>2026-06-27T07:28:59Z</time>
      </trkpt>
      <trkpt lat="46.11513" lon="6.72033">
        <ele>1770.9</ele>
        <time>2026-06-27T07:29:00Z</time>
      </trkpt>
      <trkpt lat="46.11513" lon="6.72034">
        <ele>1770.9</ele>
        <time>2026-06-27T07:29:01Z</time>
      </trkpt>
      <trkpt lat="46.11513" lon="6.72033">
        <ele>1770.9</ele>
        <time>2026-06-27T07:29:02Z</time>
      </trkpt>
      <trkpt lat="46.11513" lon="6.72033">
        <ele>1770.8</ele>
        <time>2026-06-27T07:29:03Z</time>
      </trkpt>
      <trkpt lat="46.11513" lon="6.72033">
        <ele>1770.9</ele>
        <time>2026-06-27T07:29:04Z</time>
      </trkpt>
      <trkpt lat="46.11513" lon="6.72033">
        <ele>1770.9</ele>
        <time>2026-06-27T07:29:05Z</time>
      </trkpt>
      <trkpt lat="46.11513" lon="6.72033">
        <ele>1770.9</ele>
        <time>2026-06-27T07:29:06Z</time>
      </trkpt>
      <trkpt lat="46.11513" lon="6.72033">
        <ele>1770.9</ele>
        <time>2026-06-27T07:29:07Z</time>
      </trkpt>
      <trkpt lat="46.11513" lon="6.72033">
        <ele>1770.9</ele>
        <time>2026-06-27T07:29:08Z</time>
      </trkpt>
      <trkpt lat="46.11514" lon="6.72033">
        <ele>1770.9</ele>
        <time>2026-06-27T07:29:09Z</time>
      </trkpt>
      <trkpt lat="46.11514" lon="6.72033">
        <ele>1770.9</ele>
        <time>2026-06-27T07:29:10Z</time>
      </trkpt>
      <trkpt lat="46.11514" lon="6.72033">
        <ele>1771</ele>
        <time>2026-06-27T07:29:11Z</time>
      </trkpt>
      <trkpt lat="46.11514" lon="6.72033">
        <ele>1771</ele>
        <time>2026-06-27T07:29:12Z</time>
      </trkpt>
      <trkpt lat="46.11514" lon="6.72033">
        <ele>1771</ele>
        <time>2026-06-27T07:29:13Z</time>
      </trkpt>
      <trkpt lat="46.11514" lon="6.72032">
        <ele>1771</ele>
        <time>2026-06-27T07:29:14Z</time>
      </trkpt>
      <trkpt lat="46.11514" lon="6.72032">
        <ele>1771</ele>
        <time>2026-06-27T07:29:15Z</time>
      </trkpt>
      <trkpt lat="46.11514" lon="6.72032">
        <ele>1771.1</ele>
        <time>2026-06-27T07:29:16Z</time>
      </trkpt>
      <trkpt lat="46.11514" lon="6.72032">
        <ele>1771.2</ele>
        <time>2026-06-27T07:29:17Z</time>
      </trkpt>
      <trkpt lat="46.11514" lon="6.72032">
        <ele>1771.3</ele>
        <time>2026-06-27T07:29:18Z</time>
      </trkpt>
      <trkpt lat="46.11514" lon="6.72032">
        <ele>1771.3</ele>
        <time>2026-06-27T07:29:19Z</time>
      </trkpt>
      <trkpt lat="46.11514" lon="6.72032">
        <ele>1771.3</ele>
        <time>2026-06-27T07:29:20Z</time>
      </trkpt>
      <trkpt lat="46.11514" lon="6.72032">
        <ele>1771.3</ele>
        <time>2026-06-27T07:29:21Z</time>
      </trkpt>
      <trkpt lat="46.11514" lon="6.72032">
        <ele>1771.3</ele>
        <time>2026-06-27T07:29:22Z</time>
      </trkpt>
      <trkpt lat="46.11514" lon="6.72032">
        <ele>1771.2</ele>
        <time>2026-06-27T07:29:23Z</time>
      </trkpt>
      <trkpt lat="46.11514" lon="6.72032">
        <ele>1771.1</ele>
        <time>2026-06-27T07:29:24Z</time>
      </trkpt>
      <trkpt lat="46.11514" lon="6.72032">
        <ele>1771.1</ele>
        <time>2026-06-27T07:29:25Z</time>
      </trkpt>
      <trkpt lat="46.11514" lon="6.72033">
        <ele>1771</ele>
        <time>2026-06-27T07:29:26Z</time>
      </trkpt>
      <trkpt lat="46.11514" lon="6.72033">
        <ele>1771</ele>
        <time>2026-06-27T07:29:27Z</time>
      </trkpt>
      <trkpt lat="46.11514" lon="6.72033">
        <ele>1770.9</ele>
        <time>2026-06-27T07:29:28Z</time>
      </trkpt>
      <trkpt lat="46.11514" lon="6.72033">
        <ele>1770.9</ele>
        <time>2026-06-27T07:29:29Z</time>
      </trkpt>
      <trkpt lat="46.11515" lon="6.72033">
        <ele>1770.9</ele>
        <time>2026-06-27T07:29:30Z</time>
      </trkpt>
      <trkpt lat="46.11515" lon="6.72033">
        <ele>1770.9</ele>
        <time>2026-06-27T07:29:31Z</time>
      </trkpt>
      <trkpt lat="46.11515" lon="6.72033">
        <ele>1770.8</ele>
        <time>2026-06-27T07:29:32Z</time>
      </trkpt>
      <trkpt lat="46.11515" lon="6.72033">
        <ele>1770.8</ele>
        <time>2026-06-27T07:29:33Z</time>
      </trkpt>
      <trkpt lat="46.11514" lon="6.72033">
        <ele>1770.8</ele>
        <time>2026-06-27T07:29:34Z</time>
      </trkpt>
      <trkpt lat="46.11515" lon="6.72033">
        <ele>1770.9</ele>
        <time>2026-06-27T07:29:35Z</time>
      </trkpt>
      <trkpt lat="46.11514" lon="6.72033">
        <ele>1770.9</ele>
        <time>2026-06-27T07:29:36Z</time>
      </trkpt>
      <trkpt lat="46.11515" lon="6.72032">
        <ele>1770.9</ele>
        <time>2026-06-27T07:29:37Z</time>
      </trkpt>
      <trkpt lat="46.11515" lon="6.72032">
        <ele>1771</ele>
        <time>2026-06-27T07:29:38Z</time>
      </trkpt>
      <trkpt lat="46.11515" lon="6.72032">
        <ele>1771</ele>
        <time>2026-06-27T07:29:39Z</time>
      </trkpt>
      <trkpt lat="46.11515" lon="6.72031">
        <ele>1771.1</ele>
        <time>2026-06-27T07:29:40Z</time>
      </trkpt>
      <trkpt lat="46.11516" lon="6.72031">
        <ele>1771.1</ele>
        <time>2026-06-27T07:29:41Z</time>
      </trkpt>
      <trkpt lat="46.11516" lon="6.72031">
        <ele>1771.2</ele>
        <time>2026-06-27T07:29:42Z</time>
      </trkpt>
      <trkpt lat="46.11516" lon="6.72031">
        <ele>1771.2</ele>
        <time>2026-06-27T07:29:43Z</time>
      </trkpt>
      <trkpt lat="46.11516" lon="6.7203">
        <ele>1771.2</ele>
        <time>2026-06-27T07:29:44Z</time>
      </trkpt>
      <trkpt lat="46.11516" lon="6.72031">
        <ele>1771.1</ele>
        <time>2026-06-27T07:29:45Z</time>
      </trkpt>
      <trkpt lat="46.11516" lon="6.72031">
        <ele>1771.1</ele>
        <time>2026-06-27T07:29:46Z</time>
      </trkpt>
      <trkpt lat="46.11516" lon="6.7203">
        <ele>1771.2</ele>
        <time>2026-06-27T07:29:47Z</time>
      </trkpt>
      <trkpt lat="46.11516" lon="6.7203">
        <ele>1771.2</ele>
        <time>2026-06-27T07:29:48Z</time>
      </trkpt>
      <trkpt lat="46.11516" lon="6.72031">
        <ele>1771.2</ele>
        <time>2026-06-27T07:29:49Z</time>
      </trkpt>
      <trkpt lat="46.11516" lon="6.72031">
        <ele>1771.2</ele>
        <time>2026-06-27T07:29:50Z</time>
      </trkpt>
      <trkpt lat="46.11516" lon="6.72031">
        <ele>1771.3</ele>
        <time>2026-06-27T07:29:51Z</time>
      </trkpt>
      <trkpt lat="46.11516" lon="6.72031">
        <ele>1771.2</ele>
        <time>2026-06-27T07:29:52Z</time>
      </trkpt>
      <trkpt lat="46.11516" lon="6.72031">
        <ele>1771.2</ele>
        <time>2026-06-27T07:29:53Z</time>
      </trkpt>
      <trkpt lat="46.11516" lon="6.72031">
        <ele>1771.2</ele>
        <time>2026-06-27T07:29:54Z</time>
      </trkpt>
      <trkpt lat="46.11516" lon="6.72031">
        <ele>1771.3</ele>
        <time>2026-06-27T07:29:55Z</time>
      </trkpt>
      <trkpt lat="46.11516" lon="6.72031">
        <ele>1771.2</ele>
        <time>2026-06-27T07:29:56Z</time>
      </trkpt>
      <trkpt lat="46.11515" lon="6.72031">
        <ele>1771.2</ele>
        <time>2026-06-27T07:29:57Z</time>
      </trkpt>
      <trkpt lat="46.11515" lon="6.72031">
        <ele>1771.2</ele>
        <time>2026-06-27T07:29:58Z</time>
      </trkpt>
      <trkpt lat="46.11515" lon="6.72031">
        <ele>1771.2</ele>
        <time>2026-06-27T07:29:59Z</time>
      </trkpt>
      <trkpt lat="46.11515" lon="6.72031">
        <ele>1771.1</ele>
        <time>2026-06-27T07:30:00Z</time>
      </trkpt>
      <trkpt lat="46.11515" lon="6.72031">
        <ele>1771</ele>
        <time>2026-06-27T07:30:01Z</time>
      </trkpt>
      <trkpt lat="46.11515" lon="6.72031">
        <ele>1770.9</ele>
        <time>2026-06-27T07:30:02Z</time>
      </trkpt>
      <trkpt lat="46.11515" lon="6.72031">
        <ele>1770.8</ele>
        <time>2026-06-27T07:30:03Z</time>
      </trkpt>
      <trkpt lat="46.11515" lon="6.72031">
        <ele>1770.8</ele>
        <time>2026-06-27T07:30:04Z</time>
      </trkpt>
      <trkpt lat="46.11515" lon="6.72031">
        <ele>1770.7</ele>
        <time>2026-06-27T07:30:05Z</time>
      </trkpt>
      <trkpt lat="46.11515" lon="6.72031">
        <ele>1770.7</ele>
        <time>2026-06-27T07:30:06Z</time>
      </trkpt>
      <trkpt lat="46.11515" lon="6.72031">
        <ele>1770.8</ele>
        <time>2026-06-27T07:30:07Z</time>
      </trkpt>
      <trkpt lat="46.11515" lon="6.72031">
        <ele>1770.6</ele>
        <time>2026-06-27T07:30:08Z</time>
      </trkpt>
      <trkpt lat="46.11515" lon="6.72031">
        <ele>1770.6</ele>
        <time>2026-06-27T07:30:09Z</time>
      </trkpt>
      <trkpt lat="46.11515" lon="6.72031">
        <ele>1770.7</ele>
        <time>2026-06-27T07:30:10Z</time>
      </trkpt>
      <trkpt lat="46.11515" lon="6.72031">
        <ele>1770.7</ele>
        <time>2026-06-27T07:30:11Z</time>
      </trkpt>
      <trkpt lat="46.11515" lon="6.72031">
        <ele>1770.7</ele>
        <time>2026-06-27T07:30:12Z</time>
      </trkpt>
      <trkpt lat="46.11515" lon="6.72031">
        <ele>1770.7</ele>
        <time>2026-06-27T07:30:13Z</time>
      </trkpt>
      <trkpt lat="46.11515" lon="6.72031">
        <ele>1770.7</ele>
        <time>2026-06-27T07:30:14Z</time>
      </trkpt>
      <trkpt lat="46.11515" lon="6.72031">
        <ele>1770.6</ele>
        <time>2026-06-27T07:30:15Z</time>
      </trkpt>
      <trkpt lat="46.11515" lon="6.72031">
        <ele>1770.7</ele>
        <time>2026-06-27T07:30:16Z</time>
      </trkpt>
      <trkpt lat="46.11515" lon="6.72031">
        <ele>1770.7</ele>
        <time>2026-06-27T07:30:17Z</time>
      </trkpt>
      <trkpt lat="46.11515" lon="6.72031">
        <ele>1770.7</ele>
        <time>2026-06-27T07:30:18Z</time>
      </trkpt>
      <trkpt lat="46.11515" lon="6.72031">
        <ele>1770.7</ele>
        <time>2026-06-27T07:30:19Z</time>
      </trkpt>
      <trkpt lat="46.11515" lon="6.72031">
        <ele>1770.7</ele>
        <time>2026-06-27T07:30:20Z</time>
      </trkpt>
      <trkpt lat="46.11515" lon="6.72031">
        <ele>1770.7</ele>
        <time>2026-06-27T07:30:21Z</time>
      </trkpt>
      <trkpt lat="46.11515" lon="6.72031">
        <ele>1770.7</ele>
        <time>2026-06-27T07:30:22Z</time>
      </trkpt>
      <trkpt lat="46.11515" lon="6.72031">
        <ele>1770.7</ele>
        <time>2026-06-27T07:30:23Z</time>
      </trkpt>
      <trkpt lat="46.11514" lon="6.72032">
        <ele>1770.7</ele>
        <time>2026-06-27T07:30:24Z</time>
      </trkpt>
      <trkpt lat="46.11514" lon="6.72031">
        <ele>1770.8</ele>
        <time>2026-06-27T07:30:25Z</time>
      </trkpt>
      <trkpt lat="46.11514" lon="6.72031">
        <ele>1770.8</ele>
        <time>2026-06-27T07:30:26Z</time>
      </trkpt>
      <trkpt lat="46.11514" lon="6.72031">
        <ele>1770.9</ele>
        <time>2026-06-27T07:30:27Z</time>
      </trkpt>
      <trkpt lat="46.11514" lon="6.72032">
        <ele>1771</ele>
        <time>2026-06-27T07:30:28Z</time>
      </trkpt>
      <trkpt lat="46.11514" lon="6.72032">
        <ele>1771</ele>
        <time>2026-06-27T07:30:29Z</time>
      </trkpt>
      <trkpt lat="46.11514" lon="6.72032">
        <ele>1771</ele>
        <time>2026-06-27T07:30:30Z</time>
      </trkpt>
      <trkpt lat="46.11514" lon="6.72032">
        <ele>1771</ele>
        <time>2026-06-27T07:30:31Z</time>
      </trkpt>
      <trkpt lat="46.11514" lon="6.72032">
        <ele>1771</ele>
        <time>2026-06-27T07:30:32Z</time>
      </trkpt>
      <trkpt lat="46.11514" lon="6.72032">
        <ele>1771</ele>
        <time>2026-06-27T07:30:33Z</time>
      </trkpt>
      <trkpt lat="46.11515" lon="6.72032">
        <ele>1770.9</ele>
        <time>2026-06-27T07:30:34Z</time>
      </trkpt>
      <trkpt lat="46.11515" lon="6.72032">
        <ele>1771</ele>
        <time>2026-06-27T07:30:35Z</time>
      </trkpt>
      <trkpt lat="46.11515" lon="6.72032">
        <ele>1771</ele>
        <time>2026-06-27T07:30:36Z</time>
      </trkpt>
      <trkpt lat="46.11514" lon="6.72032">
        <ele>1771</ele>
        <time>2026-06-27T07:30:37Z</time>
      </trkpt>
      <trkpt lat="46.11514" lon="6.72032">
        <ele>1771</ele>
        <time>2026-06-27T07:30:38Z</time>
      </trkpt>
      <trkpt lat="46.11514" lon="6.72032">
        <ele>1771</ele>
        <time>2026-06-27T07:30:39Z</time>
      </trkpt>
      <trkpt lat="46.11514" lon="6.72032">
        <ele>1771</ele>
        <time>2026-06-27T07:30:40Z</time>
      </trkpt>
      <trkpt lat="46.11514" lon="6.72032">
        <ele>1771.1</ele>
        <time>2026-06-27T07:30:41Z</time>
      </trkpt>
      <trkpt lat="46.11514" lon="6.72032">
        <ele>1771.1</ele>
        <time>2026-06-27T07:30:42Z</time>
      </trkpt>
      <trkpt lat="46.11514" lon="6.72032">
        <ele>1771.1</ele>
        <time>2026-06-27T07:30:43Z</time>
      </trkpt>
      <trkpt lat="46.11514" lon="6.72032">
        <ele>1771.2</ele>
        <time>2026-06-27T07:30:44Z</time>
      </trkpt>
      <trkpt lat="46.11514" lon="6.72032">
        <ele>1771.2</ele>
        <time>2026-06-27T07:30:45Z</time>
      </trkpt>
      <trkpt lat="46.11514" lon="6.72032">
        <ele>1771.2</ele>
        <time>2026-06-27T07:30:46Z</time>
      </trkpt>
      <trkpt lat="46.11514" lon="6.72032">
        <ele>1771.2</ele>
        <time>2026-06-27T07:30:47Z</time>
      </trkpt>
      <trkpt lat="46.11514" lon="6.72032">
        <ele>1771.2</ele>
        <time>2026-06-27T07:30:48Z</time>
      </trkpt>
      <trkpt lat="46.11514" lon="6.72032">
        <ele>1771.2</ele>
        <time>2026-06-27T07:30:49Z</time>
      </trkpt>
      <trkpt lat="46.11514" lon="6.72032">
        <ele>1771.2</ele>
        <time>2026-06-27T07:30:50Z</time>
      </trkpt>
      <trkpt lat="46.11514" lon="6.72033">
        <ele>1771.2</ele>
        <time>2026-06-27T07:30:51Z</time>
      </trkpt>
      <trkpt lat="46.11514" lon="6.72033">
        <ele>1771.1</ele>
        <time>2026-06-27T07:30:52Z</time>
      </trkpt>
      <trkpt lat="46.11514" lon="6.72032">
        <ele>1771</ele>
        <time>2026-06-27T07:30:53Z</time>
      </trkpt>
      <trkpt lat="46.11514" lon="6.72032">
        <ele>1771.1</ele>
        <time>2026-06-27T07:30:54Z</time>
      </trkpt>
      <trkpt lat="46.11514" lon="6.72032">
        <ele>1771.1</ele>
        <time>2026-06-27T07:30:55Z</time>
      </trkpt>
      <trkpt lat="46.11514" lon="6.72032">
        <ele>1771.1</ele>
        <time>2026-06-27T07:30:56Z</time>
      </trkpt>
      <trkpt lat="46.11514" lon="6.72032">
        <ele>1771.1</ele>
        <time>2026-06-27T07:30:57Z</time>
      </trkpt>
      <trkpt lat="46.11514" lon="6.72032">
        <ele>1771</ele>
        <time>2026-06-27T07:30:58Z</time>
      </trkpt>
      <trkpt lat="46.11514" lon="6.72032">
        <ele>1771</ele>
        <time>2026-06-27T07:30:59Z</time>
      </trkpt>
      <trkpt lat="46.11514" lon="6.72032">
        <ele>1770.9</ele>
        <time>2026-06-27T07:31:00Z</time>
      </trkpt>
      <trkpt lat="46.11514" lon="6.72032">
        <ele>1770.9</ele>
        <time>2026-06-27T07:31:01Z</time>
      </trkpt>
      <trkpt lat="46.11515" lon="6.72032">
        <ele>1770.9</ele>
        <time>2026-06-27T07:31:02Z</time>
      </trkpt>
      <trkpt lat="46.11514" lon="6.72032">
        <ele>1770.9</ele>
        <time>2026-06-27T07:31:03Z</time>
      </trkpt>
      <trkpt lat="46.11515" lon="6.72032">
        <ele>1770.9</ele>
        <time>2026-06-27T07:31:04Z</time>
      </trkpt>
      <trkpt lat="46.11515" lon="6.72032">
        <ele>1770.8</ele>
        <time>2026-06-27T07:31:05Z</time>
      </trkpt>
      <trkpt lat="46.11515" lon="6.72032">
        <ele>1770.9</ele>
        <time>2026-06-27T07:31:06Z</time>
      </trkpt>
      <trkpt lat="46.11515" lon="6.72032">
        <ele>1770.9</ele>
        <time>2026-06-27T07:31:07Z</time>
      </trkpt>
      <trkpt lat="46.11515" lon="6.72032">
        <ele>1770.9</ele>
        <time>2026-06-27T07:31:08Z</time>
      </trkpt>
      <trkpt lat="46.11515" lon="6.72032">
        <ele>1770.9</ele>
        <time>2026-06-27T07:31:09Z</time>
      </trkpt>
      <trkpt lat="46.11515" lon="6.72032">
        <ele>1770.9</ele>
        <time>2026-06-27T07:31:10Z</time>
      </trkpt>
      <trkpt lat="46.11515" lon="6.72032">
        <ele>1770.9</ele>
        <time>2026-06-27T07:31:11Z</time>
      </trkpt>
      <trkpt lat="46.11515" lon="6.72032">
        <ele>1770.9</ele>
        <time>2026-06-27T07:31:12Z</time>
      </trkpt>
      <trkpt lat="46.11515" lon="6.72032">
        <ele>1770.9</ele>
        <time>2026-06-27T07:31:13Z</time>
      </trkpt>
      <trkpt lat="46.11515" lon="6.72032">
        <ele>1770.9</ele>
        <time>2026-06-27T07:31:14Z</time>
      </trkpt>
      <trkpt lat="46.11515" lon="6.72032">
        <ele>1771</ele>
        <time>2026-06-27T07:31:15Z</time>
      </trkpt>
      <trkpt lat="46.11515" lon="6.72032">
        <ele>1771</ele>
        <time>2026-06-27T07:31:16Z</time>
      </trkpt>
      <trkpt lat="46.11515" lon="6.72032">
        <ele>1770.9</ele>
        <time>2026-06-27T07:31:17Z</time>
      </trkpt>
      <trkpt lat="46.11515" lon="6.72032">
        <ele>1770.9</ele>
        <time>2026-06-27T07:31:18Z</time>
      </trkpt>
      <trkpt lat="46.11515" lon="6.72032">
        <ele>1770.9</ele>
        <time>2026-06-27T07:31:19Z</time>
      </trkpt>
      <trkpt lat="46.11515" lon="6.72032">
        <ele>1770.7</ele>
        <time>2026-06-27T07:31:20Z</time>
      </trkpt>
      <trkpt lat="46.11515" lon="6.72032">
        <ele>1770.7</ele>
        <time>2026-06-27T07:31:21Z</time>
      </trkpt>
      <trkpt lat="46.11515" lon="6.72032">
        <ele>1770.7</ele>
        <time>2026-06-27T07:31:22Z</time>
      </trkpt>
      <trkpt lat="46.11515" lon="6.72032">
        <ele>1770.7</ele>
        <time>2026-06-27T07:31:23Z</time>
      </trkpt>
      <trkpt lat="46.11515" lon="6.72032">
        <ele>1770.8</ele>
        <time>2026-06-27T07:31:24Z</time>
      </trkpt>
      <trkpt lat="46.11515" lon="6.72032">
        <ele>1770.7</ele>
        <time>2026-06-27T07:31:25Z</time>
      </trkpt>
      <trkpt lat="46.11515" lon="6.72032">
        <ele>1770.7</ele>
        <time>2026-06-27T07:31:26Z</time>
      </trkpt>
      <trkpt lat="46.11515" lon="6.72032">
        <ele>1770.7</ele>
        <time>2026-06-27T07:31:27Z</time>
      </trkpt>
      <trkpt lat="46.11515" lon="6.72032">
        <ele>1770.7</ele>
        <time>2026-06-27T07:31:28Z</time>
      </trkpt>
      <trkpt lat="46.11515" lon="6.72032">
        <ele>1770.6</ele>
        <time>2026-06-27T07:31:29Z</time>
      </trkpt>
      <trkpt lat="46.11515" lon="6.72032">
        <ele>1770.5</ele>
        <time>2026-06-27T07:31:30Z</time>
      </trkpt>
      <trkpt lat="46.11515" lon="6.72032">
        <ele>1770.6</ele>
        <time>2026-06-27T07:31:31Z</time>
      </trkpt>
      <trkpt lat="46.11514" lon="6.72032">
        <ele>1770.7</ele>
        <time>2026-06-27T07:31:32Z</time>
      </trkpt>
      <trkpt lat="46.11514" lon="6.72032">
        <ele>1770.7</ele>
        <time>2026-06-27T07:31:33Z</time>
      </trkpt>
      <trkpt lat="46.11514" lon="6.72033">
        <ele>1770.6</ele>
        <time>2026-06-27T07:31:34Z</time>
      </trkpt>
      <trkpt lat="46.11514" lon="6.72033">
        <ele>1770.7</ele>
        <time>2026-06-27T07:31:35Z</time>
      </trkpt>
      <trkpt lat="46.11514" lon="6.72033">
        <ele>1770.8</ele>
        <time>2026-06-27T07:31:36Z</time>
      </trkpt>
      <trkpt lat="46.11514" lon="6.72034">
        <ele>1770.8</ele>
        <time>2026-06-27T07:31:37Z</time>
      </trkpt>
      <trkpt lat="46.11514" lon="6.72034">
        <ele>1770.9</ele>
        <time>2026-06-27T07:31:38Z</time>
      </trkpt>
      <trkpt lat="46.11514" lon="6.72034">
        <ele>1771</ele>
        <time>2026-06-27T07:31:39Z</time>
      </trkpt>
      <trkpt lat="46.11514" lon="6.72035">
        <ele>1771.1</ele>
        <time>2026-06-27T07:31:40Z</time>
      </trkpt>
      <trkpt lat="46.11515" lon="6.72034">
        <ele>1771.2</ele>
        <time>2026-06-27T07:31:41Z</time>
      </trkpt>
      <trkpt lat="46.11515" lon="6.72034">
        <ele>1771.2</ele>
        <time>2026-06-27T07:31:42Z</time>
      </trkpt>
      <trkpt lat="46.11516" lon="6.72034">
        <ele>1771.3</ele>
        <time>2026-06-27T07:31:43Z</time>
      </trkpt>
      <trkpt lat="46.11516" lon="6.72035">
        <ele>1771.3</ele>
        <time>2026-06-27T07:31:44Z</time>
      </trkpt>
      <trkpt lat="46.11515" lon="6.72035">
        <ele>1771.3</ele>
        <time>2026-06-27T07:31:45Z</time>
      </trkpt>
      <trkpt lat="46.11515" lon="6.72035">
        <ele>1771.3</ele>
        <time>2026-06-27T07:31:46Z</time>
      </trkpt>
      <trkpt lat="46.11515" lon="6.72035">
        <ele>1771.2</ele>
        <time>2026-06-27T07:31:47Z</time>
      </trkpt>
      <trkpt lat="46.11515" lon="6.72035">
        <ele>1771.3</ele>
        <time>2026-06-27T07:31:48Z</time>
      </trkpt>
      <trkpt lat="46.11515" lon="6.72035">
        <ele>1771.3</ele>
        <time>2026-06-27T07:31:49Z</time>
      </trkpt>
      <trkpt lat="46.11515" lon="6.72035">
        <ele>1771.3</ele>
        <time>2026-06-27T07:31:50Z</time>
      </trkpt>
      <trkpt lat="46.11515" lon="6.72035">
        <ele>1771.2</ele>
        <time>2026-06-27T07:31:51Z</time>
      </trkpt>
      <trkpt lat="46.11515" lon="6.72036">
        <ele>1771.2</ele>
        <time>2026-06-27T07:31:52Z</time>
      </trkpt>
      <trkpt lat="46.11515" lon="6.72036">
        <ele>1771.1</ele>
        <time>2026-06-27T07:31:53Z</time>
      </trkpt>
      <trkpt lat="46.11515" lon="6.72036">
        <ele>1771.2</ele>
        <time>2026-06-27T07:31:54Z</time>
      </trkpt>
      <trkpt lat="46.11515" lon="6.72036">
        <ele>1771.2</ele>
        <time>2026-06-27T07:31:55Z</time>
      </trkpt>
      <trkpt lat="46.11515" lon="6.72036">
        <ele>1771.2</ele>
        <time>2026-06-27T07:31:56Z</time>
      </trkpt>
      <trkpt lat="46.11515" lon="6.72036">
        <ele>1771.1</ele>
        <time>2026-06-27T07:31:57Z</time>
      </trkpt>
      <trkpt lat="46.11515" lon="6.72036">
        <ele>1771.1</ele>
        <time>2026-06-27T07:31:58Z</time>
      </trkpt>
      <trkpt lat="46.11515" lon="6.72036">
        <ele>1771.1</ele>
        <time>2026-06-27T07:31:59Z</time>
      </trkpt>
      <trkpt lat="46.11515" lon="6.72037">
        <ele>1771.1</ele>
        <time>2026-06-27T07:32:00Z</time>
      </trkpt>
      <trkpt lat="46.11515" lon="6.72037">
        <ele>1771</ele>
        <time>2026-06-27T07:32:01Z</time>
      </trkpt>
      <trkpt lat="46.11515" lon="6.72037">
        <ele>1771</ele>
        <time>2026-06-27T07:32:02Z</time>
      </trkpt>
      <trkpt lat="46.11514" lon="6.72037">
        <ele>1771</ele>
        <time>2026-06-27T07:32:03Z</time>
      </trkpt>
      <trkpt lat="46.11514" lon="6.72037">
        <ele>1771</ele>
        <time>2026-06-27T07:32:04Z</time>
      </trkpt>
      <trkpt lat="46.11514" lon="6.72037">
        <ele>1771.1</ele>
        <time>2026-06-27T07:32:05Z</time>
      </trkpt>
      <trkpt lat="46.11514" lon="6.72037">
        <ele>1771.1</ele>
        <time>2026-06-27T07:32:06Z</time>
      </trkpt>
      <trkpt lat="46.11514" lon="6.72037">
        <ele>1771.1</ele>
        <time>2026-06-27T07:32:07Z</time>
      </trkpt>
      <trkpt lat="46.11514" lon="6.72037">
        <ele>1771.1</ele>
        <time>2026-06-27T07:32:08Z</time>
      </trkpt>
      <trkpt lat="46.11514" lon="6.72037">
        <ele>1771</ele>
        <time>2026-06-27T07:32:09Z</time>
      </trkpt>
      <trkpt lat="46.11515" lon="6.72037">
        <ele>1771</ele>
        <time>2026-06-27T07:32:10Z</time>
      </trkpt>
      <trkpt lat="46.11515" lon="6.72037">
        <ele>1771</ele>
        <time>2026-06-27T07:32:11Z</time>
      </trkpt>
      <trkpt lat="46.11515" lon="6.72037">
        <ele>1771</ele>
        <time>2026-06-27T07:32:12Z</time>
      </trkpt>
      <trkpt lat="46.11515" lon="6.72037">
        <ele>1771</ele>
        <time>2026-06-27T07:32:13Z</time>
      </trkpt>
      <trkpt lat="46.11514" lon="6.72037">
        <ele>1771</ele>
        <time>2026-06-27T07:32:14Z</time>
      </trkpt>
      <trkpt lat="46.11514" lon="6.72037">
        <ele>1771.1</ele>
        <time>2026-06-27T07:32:15Z</time>
      </trkpt>
      <trkpt lat="46.11514" lon="6.72037">
        <ele>1771.2</ele>
        <time>2026-06-27T07:32:16Z</time>
      </trkpt>
      <trkpt lat="46.11514" lon="6.72037">
        <ele>1771.2</ele>
        <time>2026-06-27T07:32:17Z</time>
      </trkpt>
      <trkpt lat="46.11514" lon="6.72036">
        <ele>1771.1</ele>
        <time>2026-06-27T07:32:18Z</time>
      </trkpt>
      <trkpt lat="46.11514" lon="6.72035">
        <ele>1771.1</ele>
        <time>2026-06-27T07:32:19Z</time>
      </trkpt>
      <trkpt lat="46.11514" lon="6.72034">
        <ele>1771.1</ele>
        <time>2026-06-27T07:32:20Z</time>
      </trkpt>
      <trkpt lat="46.11515" lon="6.72033">
        <ele>1771</ele>
        <time>2026-06-27T07:32:21Z</time>
      </trkpt>
      <trkpt lat="46.11515" lon="6.72033">
        <ele>1771</ele>
        <time>2026-06-27T07:32:22Z</time>
      </trkpt>
      <trkpt lat="46.11515" lon="6.72033">
        <ele>1771.1</ele>
        <time>2026-06-27T07:32:23Z</time>
      </trkpt>
      <trkpt lat="46.11515" lon="6.72033">
        <ele>1771.1</ele>
        <time>2026-06-27T07:32:24Z</time>
      </trkpt>
      <trkpt lat="46.11515" lon="6.72033">
        <ele>1771.1</ele>
        <time>2026-06-27T07:32:25Z</time>
      </trkpt>
      <trkpt lat="46.11515" lon="6.72032">
        <ele>1771.1</ele>
        <time>2026-06-27T07:32:26Z</time>
      </trkpt>
      <trkpt lat="46.11515" lon="6.72032">
        <ele>1771.2</ele>
        <time>2026-06-27T07:32:27Z</time>
      </trkpt>
      <trkpt lat="46.11515" lon="6.72032">
        <ele>1771.2</ele>
        <time>2026-06-27T07:32:28Z</time>
      </trkpt>
      <trkpt lat="46.11515" lon="6.72033">
        <ele>1771.1</ele>
        <time>2026-06-27T07:32:29Z</time>
      </trkpt>
      <trkpt lat="46.11515" lon="6.72033">
        <ele>1771.1</ele>
        <time>2026-06-27T07:32:30Z</time>
      </trkpt>
      <trkpt lat="46.11515" lon="6.72032">
        <ele>1771.2</ele>
        <time>2026-06-27T07:32:31Z</time>
      </trkpt>
      <trkpt lat="46.11515" lon="6.72032">
        <ele>1771.2</ele>
        <time>2026-06-27T07:32:32Z</time>
      </trkpt>
      <trkpt lat="46.11515" lon="6.72032">
        <ele>1771.3</ele>
        <time>2026-06-27T07:32:33Z</time>
      </trkpt>
      <trkpt lat="46.11515" lon="6.72032">
        <ele>1771.2</ele>
        <time>2026-06-27T07:32:34Z</time>
      </trkpt>
      <trkpt lat="46.11515" lon="6.72032">
        <ele>1771.1</ele>
        <time>2026-06-27T07:32:35Z</time>
      </trkpt>
      <trkpt lat="46.11515" lon="6.72032">
        <ele>1771</ele>
        <time>2026-06-27T07:32:36Z</time>
      </trkpt>
      <trkpt lat="46.11514" lon="6.72033">
        <ele>1771</ele>
        <time>2026-06-27T07:32:37Z</time>
      </trkpt>
      <trkpt lat="46.11514" lon="6.72033">
        <ele>1771.1</ele>
        <time>2026-06-27T07:32:38Z</time>
      </trkpt>
      <trkpt lat="46.11514" lon="6.72033">
        <ele>1770.8</ele>
        <time>2026-06-27T07:32:39Z</time>
      </trkpt>
      <trkpt lat="46.11514" lon="6.72033">
        <ele>1770.7</ele>
        <time>2026-06-27T07:32:40Z</time>
      </trkpt>
      <trkpt lat="46.11514" lon="6.72033">
        <ele>1770.8</ele>
        <time>2026-06-27T07:32:41Z</time>
      </trkpt>
      <trkpt lat="46.11515" lon="6.72032">
        <ele>1770.9</ele>
        <time>2026-06-27T07:32:42Z</time>
      </trkpt>
      <trkpt lat="46.11515" lon="6.72032">
        <ele>1770.9</ele>
        <time>2026-06-27T07:32:43Z</time>
      </trkpt>
      <trkpt lat="46.11514" lon="6.72032">
        <ele>1771</ele>
        <time>2026-06-27T07:32:44Z</time>
      </trkpt>
      <trkpt lat="46.11514" lon="6.72032">
        <ele>1771</ele>
        <time>2026-06-27T07:32:45Z</time>
      </trkpt>
      <trkpt lat="46.11514" lon="6.72032">
        <ele>1771.1</ele>
        <time>2026-06-27T07:32:46Z</time>
      </trkpt>
      <trkpt lat="46.11514" lon="6.72032">
        <ele>1771.1</ele>
        <time>2026-06-27T07:32:47Z</time>
      </trkpt>
      <trkpt lat="46.11514" lon="6.72032">
        <ele>1771.2</ele>
        <time>2026-06-27T07:32:48Z</time>
      </trkpt>
      <trkpt lat="46.11514" lon="6.72033">
        <ele>1771.1</ele>
        <time>2026-06-27T07:32:49Z</time>
      </trkpt>
      <trkpt lat="46.11514" lon="6.72033">
        <ele>1771.1</ele>
        <time>2026-06-27T07:32:50Z</time>
      </trkpt>
      <trkpt lat="46.11514" lon="6.72032">
        <ele>1771.2</ele>
        <time>2026-06-27T07:32:51Z</time>
      </trkpt>
      <trkpt lat="46.11514" lon="6.72032">
        <ele>1771.1</ele>
        <time>2026-06-27T07:32:52Z</time>
      </trkpt>
      <trkpt lat="46.11514" lon="6.72032">
        <ele>1771</ele>
        <time>2026-06-27T07:32:53Z</time>
      </trkpt>
      <trkpt lat="46.11514" lon="6.72032">
        <ele>1771</ele>
        <time>2026-06-27T07:32:54Z</time>
      </trkpt>
      <trkpt lat="46.11514" lon="6.72032">
        <ele>1771</ele>
        <time>2026-06-27T07:32:55Z</time>
      </trkpt>
      <trkpt lat="46.11514" lon="6.72032">
        <ele>1771</ele>
        <time>2026-06-27T07:32:56Z</time>
      </trkpt>
      <trkpt lat="46.11514" lon="6.72032">
        <ele>1771</ele>
        <time>2026-06-27T07:32:57Z</time>
      </trkpt>
      <trkpt lat="46.11514" lon="6.72032">
        <ele>1771.1</ele>
        <time>2026-06-27T07:32:58Z</time>
      </trkpt>
      <trkpt lat="46.11514" lon="6.72032">
        <ele>1771.1</ele>
        <time>2026-06-27T07:32:59Z</time>
      </trkpt>
      <trkpt lat="46.11514" lon="6.72032">
        <ele>1771.2</ele>
        <time>2026-06-27T07:33:00Z</time>
      </trkpt>
      <trkpt lat="46.11514" lon="6.72032">
        <ele>1771.2</ele>
        <time>2026-06-27T07:33:01Z</time>
      </trkpt>
      <trkpt lat="46.11514" lon="6.72032">
        <ele>1771.2</ele>
        <time>2026-06-27T07:33:02Z</time>
      </trkpt>
      <trkpt lat="46.11514" lon="6.72031">
        <ele>1771.2</ele>
        <time>2026-06-27T07:33:03Z</time>
      </trkpt>
      <trkpt lat="46.11514" lon="6.72032">
        <ele>1771.2</ele>
        <time>2026-06-27T07:33:04Z</time>
      </trkpt>
      <trkpt lat="46.11514" lon="6.72032">
        <ele>1771.2</ele>
        <time>2026-06-27T07:33:05Z</time>
      </trkpt>
      <trkpt lat="46.11514" lon="6.72032">
        <ele>1771.1</ele>
        <time>2026-06-27T07:33:06Z</time>
      </trkpt>
      <trkpt lat="46.11514" lon="6.72032">
        <ele>1771.1</ele>
        <time>2026-06-27T07:33:07Z</time>
      </trkpt>
      <trkpt lat="46.11514" lon="6.72032">
        <ele>1771.1</ele>
        <time>2026-06-27T07:33:08Z</time>
      </trkpt>
      <trkpt lat="46.11514" lon="6.72032">
        <ele>1771.2</ele>
        <time>2026-06-27T07:33:09Z</time>
      </trkpt>
      <trkpt lat="46.11514" lon="6.72032">
        <ele>1771.1</ele>
        <time>2026-06-27T07:33:10Z</time>
      </trkpt>
      <trkpt lat="46.11514" lon="6.72032">
        <ele>1771.1</ele>
        <time>2026-06-27T07:33:11Z</time>
      </trkpt>
      <trkpt lat="46.11514" lon="6.72032">
        <ele>1771.1</ele>
        <time>2026-06-27T07:33:12Z</time>
      </trkpt>
      <trkpt lat="46.11514" lon="6.72032">
        <ele>1771.1</ele>
        <time>2026-06-27T07:33:13Z</time>
      </trkpt>
      <trkpt lat="46.11514" lon="6.72032">
        <ele>1771.2</ele>
        <time>2026-06-27T07:33:14Z</time>
      </trkpt>
      <trkpt lat="46.11514" lon="6.72032">
        <ele>1771.2</ele>
        <time>2026-06-27T07:33:15Z</time>
      </trkpt>
      <trkpt lat="46.11514" lon="6.72032">
        <ele>1771.2</ele>
        <time>2026-06-27T07:33:16Z</time>
      </trkpt>
      <trkpt lat="46.11514" lon="6.72032">
        <ele>1771.2</ele>
        <time>2026-06-27T07:33:17Z</time>
      </trkpt>
      <trkpt lat="46.11514" lon="6.72032">
        <ele>1771.1</ele>
        <time>2026-06-27T07:33:18Z</time>
      </trkpt>
      <trkpt lat="46.11513" lon="6.72032">
        <ele>1771.1</ele>
        <time>2026-06-27T07:33:19Z</time>
      </trkpt>
      <trkpt lat="46.11513" lon="6.72032">
        <ele>1771.1</ele>
        <time>2026-06-27T07:33:20Z</time>
      </trkpt>
      <trkpt lat="46.11513" lon="6.72032">
        <ele>1771.1</ele>
        <time>2026-06-27T07:33:21Z</time>
      </trkpt>
      <trkpt lat="46.11513" lon="6.72032">
        <ele>1771.1</ele>
        <time>2026-06-27T07:33:22Z</time>
      </trkpt>
      <trkpt lat="46.11513" lon="6.72032">
        <ele>1771</ele>
        <time>2026-06-27T07:33:23Z</time>
      </trkpt>
      <trkpt lat="46.11513" lon="6.72032">
        <ele>1771</ele>
        <time>2026-06-27T07:33:24Z</time>
      </trkpt>
      <trkpt lat="46.11513" lon="6.72032">
        <ele>1771</ele>
        <time>2026-06-27T07:33:25Z</time>
      </trkpt>
      <trkpt lat="46.11513" lon="6.72032">
        <ele>1771</ele>
        <time>2026-06-27T07:33:26Z</time>
      </trkpt>
      <trkpt lat="46.11513" lon="6.72033">
        <ele>1771</ele>
        <time>2026-06-27T07:33:27Z</time>
      </trkpt>
      <trkpt lat="46.11513" lon="6.72033">
        <ele>1771</ele>
        <time>2026-06-27T07:33:28Z</time>
      </trkpt>
      <trkpt lat="46.11513" lon="6.72033">
        <ele>1770.9</ele>
        <time>2026-06-27T07:33:29Z</time>
      </trkpt>
      <trkpt lat="46.11513" lon="6.72032">
        <ele>1771</ele>
        <time>2026-06-27T07:33:30Z</time>
      </trkpt>
      <trkpt lat="46.11513" lon="6.72033">
        <ele>1771</ele>
        <time>2026-06-27T07:33:31Z</time>
      </trkpt>
      <trkpt lat="46.11513" lon="6.72033">
        <ele>1771</ele>
        <time>2026-06-27T07:33:32Z</time>
      </trkpt>
      <trkpt lat="46.11513" lon="6.72033">
        <ele>1771</ele>
        <time>2026-06-27T07:33:33Z</time>
      </trkpt>
      <trkpt lat="46.11513" lon="6.72033">
        <ele>1771</ele>
        <time>2026-06-27T07:33:34Z</time>
      </trkpt>
      <trkpt lat="46.11513" lon="6.72033">
        <ele>1771.1</ele>
        <time>2026-06-27T07:33:35Z</time>
      </trkpt>
      <trkpt lat="46.11513" lon="6.72033">
        <ele>1771.1</ele>
        <time>2026-06-27T07:33:36Z</time>
      </trkpt>
      <trkpt lat="46.11513" lon="6.72033">
        <ele>1771.1</ele>
        <time>2026-06-27T07:33:37Z</time>
      </trkpt>
      <trkpt lat="46.11514" lon="6.72033">
        <ele>1771</ele>
        <time>2026-06-27T07:33:38Z</time>
      </trkpt>
      <trkpt lat="46.11514" lon="6.72033">
        <ele>1771</ele>
        <time>2026-06-27T07:33:39Z</time>
      </trkpt>
      <trkpt lat="46.11514" lon="6.72033">
        <ele>1771</ele>
        <time>2026-06-27T07:33:40Z</time>
      </trkpt>
      <trkpt lat="46.11513" lon="6.72033">
        <ele>1771</ele>
        <time>2026-06-27T07:33:41Z</time>
      </trkpt>
      <trkpt lat="46.11513" lon="6.72033">
        <ele>1771</ele>
        <time>2026-06-27T07:33:42Z</time>
      </trkpt>
      <trkpt lat="46.11513" lon="6.72033">
        <ele>1770.9</ele>
        <time>2026-06-27T07:33:43Z</time>
      </trkpt>
      <trkpt lat="46.11513" lon="6.72033">
        <ele>1770.8</ele>
        <time>2026-06-27T07:33:44Z</time>
      </trkpt>
      <trkpt lat="46.11513" lon="6.72033">
        <ele>1770.9</ele>
        <time>2026-06-27T07:33:45Z</time>
      </trkpt>
      <trkpt lat="46.11513" lon="6.72033">
        <ele>1771</ele>
        <time>2026-06-27T07:33:46Z</time>
      </trkpt>
      <trkpt lat="46.11513" lon="6.72033">
        <ele>1771</ele>
        <time>2026-06-27T07:33:47Z</time>
      </trkpt>
      <trkpt lat="46.11513" lon="6.72033">
        <ele>1771</ele>
        <time>2026-06-27T07:33:48Z</time>
      </trkpt>
      <trkpt lat="46.11513" lon="6.72033">
        <ele>1771</ele>
        <time>2026-06-27T07:33:49Z</time>
      </trkpt>
      <trkpt lat="46.11513" lon="6.72033">
        <ele>1770.9</ele>
        <time>2026-06-27T07:33:50Z</time>
      </trkpt>
      <trkpt lat="46.11513" lon="6.72033">
        <ele>1771</ele>
        <time>2026-06-27T07:33:51Z</time>
      </trkpt>
      <trkpt lat="46.11513" lon="6.72033">
        <ele>1771</ele>
        <time>2026-06-27T07:33:52Z</time>
      </trkpt>
      <trkpt lat="46.11513" lon="6.72033">
        <ele>1771.1</ele>
        <time>2026-06-27T07:33:53Z</time>
      </trkpt>
      <trkpt lat="46.11513" lon="6.72033">
        <ele>1771</ele>
        <time>2026-06-27T07:33:54Z</time>
      </trkpt>
      <trkpt lat="46.11513" lon="6.72033">
        <ele>1771</ele>
        <time>2026-06-27T07:33:55Z</time>
      </trkpt>
      <trkpt lat="46.11513" lon="6.72033">
        <ele>1770.9</ele>
        <time>2026-06-27T07:33:56Z</time>
      </trkpt>
      <trkpt lat="46.11513" lon="6.72033">
        <ele>1770.9</ele>
        <time>2026-06-27T07:33:57Z</time>
      </trkpt>
      <trkpt lat="46.11513" lon="6.72033">
        <ele>1770.9</ele>
        <time>2026-06-27T07:33:58Z</time>
      </trkpt>
      <trkpt lat="46.11513" lon="6.72033">
        <ele>1770.9</ele>
        <time>2026-06-27T07:33:59Z</time>
      </trkpt>
      <trkpt lat="46.11513" lon="6.72033">
        <ele>1771</ele>
        <time>2026-06-27T07:34:00Z</time>
      </trkpt>
      <trkpt lat="46.11513" lon="6.72033">
        <ele>1770.9</ele>
        <time>2026-06-27T07:34:01Z</time>
      </trkpt>
      <trkpt lat="46.11514" lon="6.72033">
        <ele>1770.8</ele>
        <time>2026-06-27T07:34:02Z</time>
      </trkpt>
      <trkpt lat="46.11514" lon="6.72033">
        <ele>1770.7</ele>
        <time>2026-06-27T07:34:03Z</time>
      </trkpt>
      <trkpt lat="46.11514" lon="6.72033">
        <ele>1770.7</ele>
        <time>2026-06-27T07:34:04Z</time>
      </trkpt>
      <trkpt lat="46.11514" lon="6.72033">
        <ele>1770.9</ele>
        <time>2026-06-27T07:34:05Z</time>
      </trkpt>
      <trkpt lat="46.11514" lon="6.72033">
        <ele>1770.9</ele>
        <time>2026-06-27T07:34:06Z</time>
      </trkpt>
      <trkpt lat="46.11514" lon="6.72033">
        <ele>1770.9</ele>
        <time>2026-06-27T07:34:07Z</time>
      </trkpt>
      <trkpt lat="46.11514" lon="6.72033">
        <ele>1770.8</ele>
        <time>2026-06-27T07:34:08Z</time>
      </trkpt>
      <trkpt lat="46.11514" lon="6.72033">
        <ele>1770.8</ele>
        <time>2026-06-27T07:34:09Z</time>
      </trkpt>
      <trkpt lat="46.11514" lon="6.72033">
        <ele>1770.8</ele>
        <time>2026-06-27T07:34:10Z</time>
      </trkpt>
      <trkpt lat="46.11514" lon="6.72033">
        <ele>1770.8</ele>
        <time>2026-06-27T07:34:11Z</time>
      </trkpt>
      <trkpt lat="46.11514" lon="6.72033">
        <ele>1770.8</ele>
        <time>2026-06-27T07:34:12Z</time>
      </trkpt>
      <trkpt lat="46.11514" lon="6.72032">
        <ele>1770.7</ele>
        <time>2026-06-27T07:34:13Z</time>
      </trkpt>
      <trkpt lat="46.11515" lon="6.72032">
        <ele>1770.7</ele>
        <time>2026-06-27T07:34:14Z</time>
      </trkpt>
      <trkpt lat="46.11515" lon="6.72032">
        <ele>1770.7</ele>
        <time>2026-06-27T07:34:15Z</time>
      </trkpt>
      <trkpt lat="46.11515" lon="6.72033">
        <ele>1770.8</ele>
        <time>2026-06-27T07:34:16Z</time>
      </trkpt>
      <trkpt lat="46.11515" lon="6.72033">
        <ele>1770.7</ele>
        <time>2026-06-27T07:34:17Z</time>
      </trkpt>
      <trkpt lat="46.11515" lon="6.72033">
        <ele>1770.7</ele>
        <time>2026-06-27T07:34:18Z</time>
      </trkpt>
      <trkpt lat="46.11515" lon="6.72033">
        <ele>1770.8</ele>
        <time>2026-06-27T07:34:19Z</time>
      </trkpt>
      <trkpt lat="46.11515" lon="6.72034">
        <ele>1770.9</ele>
        <time>2026-06-27T07:34:20Z</time>
      </trkpt>
      <trkpt lat="46.11515" lon="6.72034">
        <ele>1770.9</ele>
        <time>2026-06-27T07:34:21Z</time>
      </trkpt>
      <trkpt lat="46.11515" lon="6.72034">
        <ele>1771</ele>
        <time>2026-06-27T07:34:22Z</time>
      </trkpt>
      <trkpt lat="46.11515" lon="6.72034">
        <ele>1771.1</ele>
        <time>2026-06-27T07:34:23Z</time>
      </trkpt>
      <trkpt lat="46.11516" lon="6.72034">
        <ele>1771.1</ele>
        <time>2026-06-27T07:34:24Z</time>
      </trkpt>
      <trkpt lat="46.11516" lon="6.72033">
        <ele>1771.1</ele>
        <time>2026-06-27T07:34:25Z</time>
      </trkpt>
      <trkpt lat="46.11516" lon="6.72033">
        <ele>1771</ele>
        <time>2026-06-27T07:34:26Z</time>
      </trkpt>
      <trkpt lat="46.11516" lon="6.72033">
        <ele>1770.9</ele>
        <time>2026-06-27T07:34:27Z</time>
      </trkpt>
      <trkpt lat="46.11516" lon="6.72033">
        <ele>1770.8</ele>
        <time>2026-06-27T07:34:28Z</time>
      </trkpt>
      <trkpt lat="46.11516" lon="6.72033">
        <ele>1770.7</ele>
        <time>2026-06-27T07:34:29Z</time>
      </trkpt>
      <trkpt lat="46.11516" lon="6.72033">
        <ele>1770.8</ele>
        <time>2026-06-27T07:34:30Z</time>
      </trkpt>
      <trkpt lat="46.11516" lon="6.72033">
        <ele>1770.8</ele>
        <time>2026-06-27T07:34:31Z</time>
      </trkpt>
      <trkpt lat="46.11516" lon="6.72033">
        <ele>1770.7</ele>
        <time>2026-06-27T07:34:32Z</time>
      </trkpt>
      <trkpt lat="46.11515" lon="6.72033">
        <ele>1770.8</ele>
        <time>2026-06-27T07:34:33Z</time>
      </trkpt>
      <trkpt lat="46.11515" lon="6.72033">
        <ele>1770.8</ele>
        <time>2026-06-27T07:34:34Z</time>
      </trkpt>
      <trkpt lat="46.11515" lon="6.72033">
        <ele>1770.7</ele>
        <time>2026-06-27T07:34:35Z</time>
      </trkpt>
      <trkpt lat="46.11515" lon="6.72033">
        <ele>1770.7</ele>
        <time>2026-06-27T07:34:36Z</time>
      </trkpt>
      <trkpt lat="46.11515" lon="6.72033">
        <ele>1770.7</ele>
        <time>2026-06-27T07:34:37Z</time>
      </trkpt>
      <trkpt lat="46.11515" lon="6.72033">
        <ele>1770.7</ele>
        <time>2026-06-27T07:34:38Z</time>
      </trkpt>
      <trkpt lat="46.11515" lon="6.72033">
        <ele>1770.8</ele>
        <time>2026-06-27T07:34:39Z</time>
      </trkpt>
      <trkpt lat="46.11515" lon="6.72033">
        <ele>1770.8</ele>
        <time>2026-06-27T07:34:40Z</time>
      </trkpt>
      <trkpt lat="46.11515" lon="6.72033">
        <ele>1770.9</ele>
        <time>2026-06-27T07:34:41Z</time>
      </trkpt>
      <trkpt lat="46.11515" lon="6.72033">
        <ele>1770.9</ele>
        <time>2026-06-27T07:34:42Z</time>
      </trkpt>
      <trkpt lat="46.11515" lon="6.72033">
        <ele>1770.9</ele>
        <time>2026-06-27T07:34:43Z</time>
      </trkpt>
      <trkpt lat="46.11515" lon="6.72034">
        <ele>1770.9</ele>
        <time>2026-06-27T07:34:44Z</time>
      </trkpt>
      <trkpt lat="46.11515" lon="6.72034">
        <ele>1771</ele>
        <time>2026-06-27T07:34:45Z</time>
      </trkpt>
      <trkpt lat="46.11514" lon="6.72034">
        <ele>1771</ele>
        <time>2026-06-27T07:34:46Z</time>
      </trkpt>
      <trkpt lat="46.11514" lon="6.72034">
        <ele>1771</ele>
        <time>2026-06-27T07:34:47Z</time>
      </trkpt>
      <trkpt lat="46.11514" lon="6.72034">
        <ele>1771</ele>
        <time>2026-06-27T07:34:48Z</time>
      </trkpt>
      <trkpt lat="46.11514" lon="6.72034">
        <ele>1770.9</ele>
        <time>2026-06-27T07:34:49Z</time>
      </trkpt>
      <trkpt lat="46.11514" lon="6.72034">
        <ele>1771</ele>
        <time>2026-06-27T07:34:50Z</time>
      </trkpt>
      <trkpt lat="46.11514" lon="6.72034">
        <ele>1771</ele>
        <time>2026-06-27T07:34:51Z</time>
      </trkpt>
      <trkpt lat="46.11514" lon="6.72035">
        <ele>1771</ele>
        <time>2026-06-27T07:34:52Z</time>
      </trkpt>
      <trkpt lat="46.11514" lon="6.72035">
        <ele>1771</ele>
        <time>2026-06-27T07:34:53Z</time>
      </trkpt>
      <trkpt lat="46.11513" lon="6.72035">
        <ele>1770.9</ele>
        <time>2026-06-27T07:34:54Z</time>
      </trkpt>
      <trkpt lat="46.11514" lon="6.72035">
        <ele>1770.9</ele>
        <time>2026-06-27T07:34:55Z</time>
      </trkpt>
      <trkpt lat="46.11513" lon="6.72035">
        <ele>1770.9</ele>
        <time>2026-06-27T07:34:56Z</time>
      </trkpt>
      <trkpt lat="46.11513" lon="6.72035">
        <ele>1770.9</ele>
        <time>2026-06-27T07:34:57Z</time>
      </trkpt>
      <trkpt lat="46.11513" lon="6.72035">
        <ele>1771</ele>
        <time>2026-06-27T07:34:58Z</time>
      </trkpt>
      <trkpt lat="46.11513" lon="6.72035">
        <ele>1770.9</ele>
        <time>2026-06-27T07:34:59Z</time>
      </trkpt>
      <trkpt lat="46.11513" lon="6.72035">
        <ele>1770.9</ele>
        <time>2026-06-27T07:35:00Z</time>
      </trkpt>
      <trkpt lat="46.11513" lon="6.72035">
        <ele>1770.8</ele>
        <time>2026-06-27T07:35:01Z</time>
      </trkpt>
      <trkpt lat="46.11513" lon="6.72035">
        <ele>1770.8</ele>
        <time>2026-06-27T07:35:02Z</time>
      </trkpt>
      <trkpt lat="46.11513" lon="6.72035">
        <ele>1770.8</ele>
        <time>2026-06-27T07:35:03Z</time>
      </trkpt>
      <trkpt lat="46.11513" lon="6.72035">
        <ele>1770.9</ele>
        <time>2026-06-27T07:35:04Z</time>
      </trkpt>
      <trkpt lat="46.11513" lon="6.72035">
        <ele>1770.9</ele>
        <time>2026-06-27T07:35:05Z</time>
      </trkpt>
      <trkpt lat="46.11513" lon="6.72035">
        <ele>1770.9</ele>
        <time>2026-06-27T07:35:06Z</time>
      </trkpt>
      <trkpt lat="46.11513" lon="6.72035">
        <ele>1770.8</ele>
        <time>2026-06-27T07:35:07Z</time>
      </trkpt>
      <trkpt lat="46.11514" lon="6.72035">
        <ele>1770.8</ele>
        <time>2026-06-27T07:35:08Z</time>
      </trkpt>
      <trkpt lat="46.11514" lon="6.72035">
        <ele>1770.7</ele>
        <time>2026-06-27T07:35:09Z</time>
      </trkpt>
      <trkpt lat="46.11514" lon="6.72035">
        <ele>1770.7</ele>
        <time>2026-06-27T07:35:10Z</time>
      </trkpt>
      <trkpt lat="46.11514" lon="6.72035">
        <ele>1770.7</ele>
        <time>2026-06-27T07:35:11Z</time>
      </trkpt>
      <trkpt lat="46.11514" lon="6.72035">
        <ele>1770.7</ele>
        <time>2026-06-27T07:35:12Z</time>
      </trkpt>
      <trkpt lat="46.11514" lon="6.72034">
        <ele>1770.8</ele>
        <time>2026-06-27T07:35:13Z</time>
      </trkpt>
      <trkpt lat="46.11515" lon="6.72034">
        <ele>1770.8</ele>
        <time>2026-06-27T07:35:14Z</time>
      </trkpt>
      <trkpt lat="46.11515" lon="6.72034">
        <ele>1770.8</ele>
        <time>2026-06-27T07:35:15Z</time>
      </trkpt>
      <trkpt lat="46.11515" lon="6.72034">
        <ele>1770.8</ele>
        <time>2026-06-27T07:35:16Z</time>
      </trkpt>
      <trkpt lat="46.11515" lon="6.72034">
        <ele>1770.8</ele>
        <time>2026-06-27T07:35:17Z</time>
      </trkpt>
      <trkpt lat="46.11515" lon="6.72034">
        <ele>1770.9</ele>
        <time>2026-06-27T07:35:18Z</time>
      </trkpt>
      <trkpt lat="46.11515" lon="6.72034">
        <ele>1770.9</ele>
        <time>2026-06-27T07:35:19Z</time>
      </trkpt>
      <trkpt lat="46.11515" lon="6.72034">
        <ele>1771</ele>
        <time>2026-06-27T07:35:20Z</time>
      </trkpt>
      <trkpt lat="46.11515" lon="6.72034">
        <ele>1771.1</ele>
        <time>2026-06-27T07:35:21Z</time>
      </trkpt>
      <trkpt lat="46.11515" lon="6.72034">
        <ele>1771.1</ele>
        <time>2026-06-27T07:35:22Z</time>
      </trkpt>
      <trkpt lat="46.11515" lon="6.72034">
        <ele>1771.2</ele>
        <time>2026-06-27T07:35:23Z</time>
      </trkpt>
      <trkpt lat="46.11515" lon="6.72034">
        <ele>1771.1</ele>
        <time>2026-06-27T07:35:24Z</time>
      </trkpt>
      <trkpt lat="46.11515" lon="6.72034">
        <ele>1771.1</ele>
        <time>2026-06-27T07:35:25Z</time>
      </trkpt>
      <trkpt lat="46.11516" lon="6.72034">
        <ele>1771</ele>
        <time>2026-06-27T07:35:26Z</time>
      </trkpt>
      <trkpt lat="46.11516" lon="6.72034">
        <ele>1771</ele>
        <time>2026-06-27T07:35:27Z</time>
      </trkpt>
      <trkpt lat="46.11516" lon="6.72033">
        <ele>1770.9</ele>
        <time>2026-06-27T07:35:28Z</time>
      </trkpt>
      <trkpt lat="46.11516" lon="6.72033">
        <ele>1770.9</ele>
        <time>2026-06-27T07:35:29Z</time>
      </trkpt>
      <trkpt lat="46.11516" lon="6.72033">
        <ele>1770.9</ele>
        <time>2026-06-27T07:35:30Z</time>
      </trkpt>
      <trkpt lat="46.11516" lon="6.72033">
        <ele>1770.9</ele>
        <time>2026-06-27T07:35:31Z</time>
      </trkpt>
      <trkpt lat="46.11516" lon="6.72034">
        <ele>1770.9</ele>
        <time>2026-06-27T07:35:32Z</time>
      </trkpt>
      <trkpt lat="46.11516" lon="6.72034">
        <ele>1770.9</ele>
        <time>2026-06-27T07:35:33Z</time>
      </trkpt>
      <trkpt lat="46.11516" lon="6.72034">
        <ele>1770.8</ele>
        <time>2026-06-27T07:35:34Z</time>
      </trkpt>
      <trkpt lat="46.11516" lon="6.72034">
        <ele>1770.9</ele>
        <time>2026-06-27T07:35:35Z</time>
      </trkpt>
      <trkpt lat="46.11516" lon="6.72034">
        <ele>1770.9</ele>
        <time>2026-06-27T07:35:36Z</time>
      </trkpt>
      <trkpt lat="46.11516" lon="6.72034">
        <ele>1771</ele>
        <time>2026-06-27T07:35:37Z</time>
      </trkpt>
      <trkpt lat="46.11516" lon="6.72034">
        <ele>1771</ele>
        <time>2026-06-27T07:35:38Z</time>
      </trkpt>
      <trkpt lat="46.11516" lon="6.72034">
        <ele>1771</ele>
        <time>2026-06-27T07:35:39Z</time>
      </trkpt>
      <trkpt lat="46.11515" lon="6.72034">
        <ele>1771</ele>
        <time>2026-06-27T07:35:40Z</time>
      </trkpt>
      <trkpt lat="46.11515" lon="6.72034">
        <ele>1771</ele>
        <time>2026-06-27T07:35:41Z</time>
      </trkpt>
      <trkpt lat="46.11515" lon="6.72034">
        <ele>1771</ele>
        <time>2026-06-27T07:35:42Z</time>
      </trkpt>
      <trkpt lat="46.11515" lon="6.72034">
        <ele>1771.1</ele>
        <time>2026-06-27T07:35:43Z</time>
      </trkpt>
      <trkpt lat="46.11515" lon="6.72034">
        <ele>1771.1</ele>
        <time>2026-06-27T07:35:44Z</time>
      </trkpt>
      <trkpt lat="46.11515" lon="6.72034">
        <ele>1771.1</ele>
        <time>2026-06-27T07:35:45Z</time>
      </trkpt>
      <trkpt lat="46.11515" lon="6.72034">
        <ele>1771</ele>
        <time>2026-06-27T07:35:46Z</time>
      </trkpt>
      <trkpt lat="46.11515" lon="6.72034">
        <ele>1771</ele>
        <time>2026-06-27T07:35:47Z</time>
      </trkpt>
      <trkpt lat="46.11515" lon="6.72034">
        <ele>1771.1</ele>
        <time>2026-06-27T07:35:48Z</time>
      </trkpt>
      <trkpt lat="46.11515" lon="6.72034">
        <ele>1771.1</ele>
        <time>2026-06-27T07:35:49Z</time>
      </trkpt>
      <trkpt lat="46.11515" lon="6.72034">
        <ele>1771</ele>
        <time>2026-06-27T07:35:50Z</time>
      </trkpt>
      <trkpt lat="46.11515" lon="6.72034">
        <ele>1770.9</ele>
        <time>2026-06-27T07:35:51Z</time>
      </trkpt>
      <trkpt lat="46.11515" lon="6.72034">
        <ele>1770.9</ele>
        <time>2026-06-27T07:35:52Z</time>
      </trkpt>
      <trkpt lat="46.11515" lon="6.72034">
        <ele>1770.8</ele>
        <time>2026-06-27T07:35:53Z</time>
      </trkpt>
      <trkpt lat="46.11514" lon="6.72034">
        <ele>1770.8</ele>
        <time>2026-06-27T07:35:54Z</time>
      </trkpt>
      <trkpt lat="46.11514" lon="6.72034">
        <ele>1770.8</ele>
        <time>2026-06-27T07:35:55Z</time>
      </trkpt>
      <trkpt lat="46.11514" lon="6.72034">
        <ele>1770.8</ele>
        <time>2026-06-27T07:35:56Z</time>
      </trkpt>
      <trkpt lat="46.11514" lon="6.72034">
        <ele>1770.8</ele>
        <time>2026-06-27T07:35:57Z</time>
      </trkpt>
      <trkpt lat="46.11514" lon="6.72035">
        <ele>1770.8</ele>
        <time>2026-06-27T07:35:58Z</time>
      </trkpt>
      <trkpt lat="46.11514" lon="6.72035">
        <ele>1770.8</ele>
        <time>2026-06-27T07:35:59Z</time>
      </trkpt>
      <trkpt lat="46.11514" lon="6.72035">
        <ele>1770.8</ele>
        <time>2026-06-27T07:36:00Z</time>
      </trkpt>
      <trkpt lat="46.11513" lon="6.72035">
        <ele>1770.8</ele>
        <time>2026-06-27T07:36:01Z</time>
      </trkpt>
      <trkpt lat="46.11513" lon="6.72035">
        <ele>1770.8</ele>
        <time>2026-06-27T07:36:02Z</time>
      </trkpt>
      <trkpt lat="46.11513" lon="6.72035">
        <ele>1770.8</ele>
        <time>2026-06-27T07:36:03Z</time>
      </trkpt>
      <trkpt lat="46.11513" lon="6.72035">
        <ele>1770.8</ele>
        <time>2026-06-27T07:36:04Z</time>
      </trkpt>
      <trkpt lat="46.11513" lon="6.72035">
        <ele>1770.7</ele>
        <time>2026-06-27T07:36:05Z</time>
      </trkpt>
      <trkpt lat="46.11513" lon="6.72035">
        <ele>1770.7</ele>
        <time>2026-06-27T07:36:06Z</time>
      </trkpt>
      <trkpt lat="46.11512" lon="6.72036">
        <ele>1770.7</ele>
        <time>2026-06-27T07:36:07Z</time>
      </trkpt>
      <trkpt lat="46.11512" lon="6.72036">
        <ele>1770.7</ele>
        <time>2026-06-27T07:36:08Z</time>
      </trkpt>
      <trkpt lat="46.11512" lon="6.72036">
        <ele>1770.6</ele>
        <time>2026-06-27T07:36:09Z</time>
      </trkpt>
      <trkpt lat="46.11512" lon="6.72036">
        <ele>1770.5</ele>
        <time>2026-06-27T07:36:10Z</time>
      </trkpt>
      <trkpt lat="46.11512" lon="6.72036">
        <ele>1770.6</ele>
        <time>2026-06-27T07:36:11Z</time>
      </trkpt>
      <trkpt lat="46.11512" lon="6.72036">
        <ele>1770.7</ele>
        <time>2026-06-27T07:36:12Z</time>
      </trkpt>
      <trkpt lat="46.11512" lon="6.72036">
        <ele>1770.7</ele>
        <time>2026-06-27T07:36:13Z</time>
      </trkpt>
      <trkpt lat="46.11512" lon="6.72036">
        <ele>1770.7</ele>
        <time>2026-06-27T07:36:14Z</time>
      </trkpt>
      <trkpt lat="46.11512" lon="6.72036">
        <ele>1770.7</ele>
        <time>2026-06-27T07:36:15Z</time>
      </trkpt>
      <trkpt lat="46.11513" lon="6.72036">
        <ele>1770.7</ele>
        <time>2026-06-27T07:36:16Z</time>
      </trkpt>
      <trkpt lat="46.11513" lon="6.72036">
        <ele>1770.8</ele>
        <time>2026-06-27T07:36:17Z</time>
      </trkpt>
      <trkpt lat="46.11513" lon="6.72036">
        <ele>1770.7</ele>
        <time>2026-06-27T07:36:18Z</time>
      </trkpt>
      <trkpt lat="46.11513" lon="6.72036">
        <ele>1770.7</ele>
        <time>2026-06-27T07:36:19Z</time>
      </trkpt>
      <trkpt lat="46.11513" lon="6.72036">
        <ele>1770.7</ele>
        <time>2026-06-27T07:36:20Z</time>
      </trkpt>
      <trkpt lat="46.11513" lon="6.72036">
        <ele>1770.7</ele>
        <time>2026-06-27T07:36:21Z</time>
      </trkpt>
      <trkpt lat="46.11513" lon="6.72036">
        <ele>1770.7</ele>
        <time>2026-06-27T07:36:22Z</time>
      </trkpt>
      <trkpt lat="46.11513" lon="6.72036">
        <ele>1770.6</ele>
        <time>2026-06-27T07:36:23Z</time>
      </trkpt>
      <trkpt lat="46.11513" lon="6.72036">
        <ele>1770.7</ele>
        <time>2026-06-27T07:36:24Z</time>
      </trkpt>
      <trkpt lat="46.11513" lon="6.72036">
        <ele>1770.7</ele>
        <time>2026-06-27T07:36:25Z</time>
      </trkpt>
      <trkpt lat="46.11513" lon="6.72036">
        <ele>1770.7</ele>
        <time>2026-06-27T07:36:26Z</time>
      </trkpt>
      <trkpt lat="46.11513" lon="6.72036">
        <ele>1770.7</ele>
        <time>2026-06-27T07:36:27Z</time>
      </trkpt>
      <trkpt lat="46.11513" lon="6.72036">
        <ele>1770.8</ele>
        <time>2026-06-27T07:36:28Z</time>
      </trkpt>
      <trkpt lat="46.11513" lon="6.72036">
        <ele>1770.7</ele>
        <time>2026-06-27T07:36:29Z</time>
      </trkpt>
      <trkpt lat="46.11513" lon="6.72036">
        <ele>1770.7</ele>
        <time>2026-06-27T07:36:30Z</time>
      </trkpt>
      <trkpt lat="46.11512" lon="6.72036">
        <ele>1770.8</ele>
        <time>2026-06-27T07:36:31Z</time>
      </trkpt>
      <trkpt lat="46.11512" lon="6.72036">
        <ele>1770.8</ele>
        <time>2026-06-27T07:36:32Z</time>
      </trkpt>
      <trkpt lat="46.11512" lon="6.72036">
        <ele>1770.8</ele>
        <time>2026-06-27T07:36:33Z</time>
      </trkpt>
      <trkpt lat="46.11512" lon="6.72036">
        <ele>1770.7</ele>
        <time>2026-06-27T07:36:34Z</time>
      </trkpt>
      <trkpt lat="46.11512" lon="6.72036">
        <ele>1770.7</ele>
        <time>2026-06-27T07:36:35Z</time>
      </trkpt>
      <trkpt lat="46.11512" lon="6.72037">
        <ele>1770.6</ele>
        <time>2026-06-27T07:36:36Z</time>
      </trkpt>
      <trkpt lat="46.11512" lon="6.72037">
        <ele>1770.5</ele>
        <time>2026-06-27T07:36:37Z</time>
      </trkpt>
      <trkpt lat="46.11512" lon="6.72037">
        <ele>1770.5</ele>
        <time>2026-06-27T07:36:38Z</time>
      </trkpt>
      <trkpt lat="46.11512" lon="6.72037">
        <ele>1770.5</ele>
        <time>2026-06-27T07:36:39Z</time>
      </trkpt>
      <trkpt lat="46.11512" lon="6.72037">
        <ele>1770.5</ele>
        <time>2026-06-27T07:36:40Z</time>
      </trkpt>
      <trkpt lat="46.11512" lon="6.72037">
        <ele>1770.6</ele>
        <time>2026-06-27T07:36:41Z</time>
      </trkpt>
      <trkpt lat="46.11512" lon="6.72037">
        <ele>1770.6</ele>
        <time>2026-06-27T07:36:42Z</time>
      </trkpt>
      <trkpt lat="46.11512" lon="6.72037">
        <ele>1770.7</ele>
        <time>2026-06-27T07:36:43Z</time>
      </trkpt>
      <trkpt lat="46.11513" lon="6.72037">
        <ele>1770.6</ele>
        <time>2026-06-27T07:36:44Z</time>
      </trkpt>
      <trkpt lat="46.11513" lon="6.72037">
        <ele>1770.5</ele>
        <time>2026-06-27T07:36:45Z</time>
      </trkpt>
      <trkpt lat="46.11513" lon="6.72037">
        <ele>1770.5</ele>
        <time>2026-06-27T07:36:46Z</time>
      </trkpt>
      <trkpt lat="46.11513" lon="6.72037">
        <ele>1770.4</ele>
        <time>2026-06-27T07:36:47Z</time>
      </trkpt>
      <trkpt lat="46.11513" lon="6.72037">
        <ele>1770.5</ele>
        <time>2026-06-27T07:36:48Z</time>
      </trkpt>
      <trkpt lat="46.11513" lon="6.72037">
        <ele>1770.5</ele>
        <time>2026-06-27T07:36:49Z</time>
      </trkpt>
      <trkpt lat="46.11513" lon="6.72036">
        <ele>1770.5</ele>
        <time>2026-06-27T07:36:50Z</time>
      </trkpt>
      <trkpt lat="46.11514" lon="6.72035">
        <ele>1770.5</ele>
        <time>2026-06-27T07:36:51Z</time>
      </trkpt>
      <trkpt lat="46.11515" lon="6.72035">
        <ele>1770.5</ele>
        <time>2026-06-27T07:36:52Z</time>
      </trkpt>
      <trkpt lat="46.11515" lon="6.72035">
        <ele>1770.5</ele>
        <time>2026-06-27T07:36:53Z</time>
      </trkpt>
      <trkpt lat="46.11515" lon="6.72035">
        <ele>1770.5</ele>
        <time>2026-06-27T07:36:54Z</time>
      </trkpt>
      <trkpt lat="46.11515" lon="6.72034">
        <ele>1770.5</ele>
        <time>2026-06-27T07:36:55Z</time>
      </trkpt>
      <trkpt lat="46.11516" lon="6.72034">
        <ele>1770.5</ele>
        <time>2026-06-27T07:36:56Z</time>
      </trkpt>
      <trkpt lat="46.11516" lon="6.72033">
        <ele>1770.5</ele>
        <time>2026-06-27T07:36:57Z</time>
      </trkpt>
      <trkpt lat="46.11516" lon="6.72033">
        <ele>1770.6</ele>
        <time>2026-06-27T07:36:58Z</time>
      </trkpt>
      <trkpt lat="46.11517" lon="6.72033">
        <ele>1770.7</ele>
        <time>2026-06-27T07:36:59Z</time>
      </trkpt>
      <trkpt lat="46.11517" lon="6.72032">
        <ele>1770.8</ele>
        <time>2026-06-27T07:37:00Z</time>
      </trkpt>
      <trkpt lat="46.11517" lon="6.72032">
        <ele>1770.8</ele>
        <time>2026-06-27T07:37:01Z</time>
      </trkpt>
      <trkpt lat="46.11517" lon="6.72032">
        <ele>1770.9</ele>
        <time>2026-06-27T07:37:02Z</time>
      </trkpt>
      <trkpt lat="46.11517" lon="6.72032">
        <ele>1770.9</ele>
        <time>2026-06-27T07:37:03Z</time>
      </trkpt>
      <trkpt lat="46.11518" lon="6.72032">
        <ele>1771</ele>
        <time>2026-06-27T07:37:04Z</time>
      </trkpt>
      <trkpt lat="46.11518" lon="6.72031">
        <ele>1771</ele>
        <time>2026-06-27T07:37:05Z</time>
      </trkpt>
      <trkpt lat="46.11517" lon="6.72031">
        <ele>1771</ele>
        <time>2026-06-27T07:37:06Z</time>
      </trkpt>
      <trkpt lat="46.11517" lon="6.72031">
        <ele>1771</ele>
        <time>2026-06-27T07:37:07Z</time>
      </trkpt>
      <trkpt lat="46.11517" lon="6.72031">
        <ele>1770.9</ele>
        <time>2026-06-27T07:37:08Z</time>
      </trkpt>
      <trkpt lat="46.11517" lon="6.72032">
        <ele>1770.8</ele>
        <time>2026-06-27T07:37:09Z</time>
      </trkpt>
      <trkpt lat="46.11517" lon="6.72032">
        <ele>1770.8</ele>
        <time>2026-06-27T07:37:10Z</time>
      </trkpt>
      <trkpt lat="46.11516" lon="6.72033">
        <ele>1770.7</ele>
        <time>2026-06-27T07:37:11Z</time>
      </trkpt>
      <trkpt lat="46.11516" lon="6.72033">
        <ele>1770.7</ele>
        <time>2026-06-27T07:37:12Z</time>
      </trkpt>
      <trkpt lat="46.11516" lon="6.72033">
        <ele>1770.7</ele>
        <time>2026-06-27T07:37:13Z</time>
      </trkpt>
      <trkpt lat="46.11515" lon="6.72033">
        <ele>1770.6</ele>
        <time>2026-06-27T07:37:14Z</time>
      </trkpt>
      <trkpt lat="46.11515" lon="6.72033">
        <ele>1770.6</ele>
        <time>2026-06-27T07:37:15Z</time>
      </trkpt>
      <trkpt lat="46.11515" lon="6.72033">
        <ele>1770.6</ele>
        <time>2026-06-27T07:37:16Z</time>
      </trkpt>
      <trkpt lat="46.11516" lon="6.72033">
        <ele>1770.6</ele>
        <time>2026-06-27T07:37:17Z</time>
      </trkpt>
      <trkpt lat="46.11516" lon="6.72033">
        <ele>1770.6</ele>
        <time>2026-06-27T07:37:18Z</time>
      </trkpt>
      <trkpt lat="46.11516" lon="6.72033">
        <ele>1770.5</ele>
        <time>2026-06-27T07:37:19Z</time>
      </trkpt>
      <trkpt lat="46.11516" lon="6.72032">
        <ele>1770.5</ele>
        <time>2026-06-27T07:37:20Z</time>
      </trkpt>
      <trkpt lat="46.11516" lon="6.72032">
        <ele>1770.5</ele>
        <time>2026-06-27T07:37:21Z</time>
      </trkpt>
      <trkpt lat="46.11516" lon="6.72032">
        <ele>1770.5</ele>
        <time>2026-06-27T07:37:22Z</time>
      </trkpt>
      <trkpt lat="46.11516" lon="6.72032">
        <ele>1770.5</ele>
        <time>2026-06-27T07:37:23Z</time>
      </trkpt>
      <trkpt lat="46.11517" lon="6.72032">
        <ele>1770.4</ele>
        <time>2026-06-27T07:37:24Z</time>
      </trkpt>
      <trkpt lat="46.11517" lon="6.72032">
        <ele>1770.3</ele>
        <time>2026-06-27T07:37:25Z</time>
      </trkpt>
      <trkpt lat="46.11517" lon="6.72032">
        <ele>1770.2</ele>
        <time>2026-06-27T07:37:26Z</time>
      </trkpt>
      <trkpt lat="46.11517" lon="6.72031">
        <ele>1770.1</ele>
        <time>2026-06-27T07:37:27Z</time>
      </trkpt>
      <trkpt lat="46.11517" lon="6.72031">
        <ele>1770.1</ele>
        <time>2026-06-27T07:37:28Z</time>
      </trkpt>
      <trkpt lat="46.11517" lon="6.72031">
        <ele>1770</ele>
        <time>2026-06-27T07:37:29Z</time>
      </trkpt>
      <trkpt lat="46.11517" lon="6.72031">
        <ele>1769.9</ele>
        <time>2026-06-27T07:37:30Z</time>
      </trkpt>
      <trkpt lat="46.11517" lon="6.72031">
        <ele>1769.9</ele>
        <time>2026-06-27T07:37:31Z</time>
      </trkpt>
      <trkpt lat="46.11517" lon="6.72031">
        <ele>1769.9</ele>
        <time>2026-06-27T07:37:32Z</time>
      </trkpt>
      <trkpt lat="46.11517" lon="6.72031">
        <ele>1769.9</ele>
        <time>2026-06-27T07:37:33Z</time>
      </trkpt>
      <trkpt lat="46.11517" lon="6.72031">
        <ele>1770</ele>
        <time>2026-06-27T07:37:34Z</time>
      </trkpt>
      <trkpt lat="46.11517" lon="6.72031">
        <ele>1770.2</ele>
        <time>2026-06-27T07:37:35Z</time>
      </trkpt>
      <trkpt lat="46.11517" lon="6.72031">
        <ele>1770.3</ele>
        <time>2026-06-27T07:37:36Z</time>
      </trkpt>
      <trkpt lat="46.11517" lon="6.72031">
        <ele>1770.2</ele>
        <time>2026-06-27T07:37:37Z</time>
      </trkpt>
      <trkpt lat="46.11517" lon="6.72031">
        <ele>1770.1</ele>
        <time>2026-06-27T07:37:38Z</time>
      </trkpt>
      <trkpt lat="46.11517" lon="6.72031">
        <ele>1770.1</ele>
        <time>2026-06-27T07:37:39Z</time>
      </trkpt>
      <trkpt lat="46.11517" lon="6.72031">
        <ele>1770.2</ele>
        <time>2026-06-27T07:37:40Z</time>
      </trkpt>
      <trkpt lat="46.11517" lon="6.72031">
        <ele>1770.3</ele>
        <time>2026-06-27T07:37:41Z</time>
      </trkpt>
      <trkpt lat="46.11517" lon="6.72031">
        <ele>1770.3</ele>
        <time>2026-06-27T07:37:42Z</time>
      </trkpt>
      <trkpt lat="46.11518" lon="6.72031">
        <ele>1770.2</ele>
        <time>2026-06-27T07:37:43Z</time>
      </trkpt>
      <trkpt lat="46.11518" lon="6.72031">
        <ele>1770.2</ele>
        <time>2026-06-27T07:37:44Z</time>
      </trkpt>
      <trkpt lat="46.11518" lon="6.72032">
        <ele>1770.2</ele>
        <time>2026-06-27T07:37:45Z</time>
      </trkpt>
      <trkpt lat="46.11518" lon="6.72032">
        <ele>1770.2</ele>
        <time>2026-06-27T07:37:46Z</time>
      </trkpt>
      <trkpt lat="46.11518" lon="6.72032">
        <ele>1770.2</ele>
        <time>2026-06-27T07:37:47Z</time>
      </trkpt>
      <trkpt lat="46.11518" lon="6.72032">
        <ele>1770.2</ele>
        <time>2026-06-27T07:37:48Z</time>
      </trkpt>
      <trkpt lat="46.11518" lon="6.72032">
        <ele>1770.2</ele>
        <time>2026-06-27T07:37:49Z</time>
      </trkpt>
      <trkpt lat="46.11518" lon="6.72032">
        <ele>1770.2</ele>
        <time>2026-06-27T07:37:50Z</time>
      </trkpt>
      <trkpt lat="46.11518" lon="6.72032">
        <ele>1770.3</ele>
        <time>2026-06-27T07:37:51Z</time>
      </trkpt>
      <trkpt lat="46.11518" lon="6.72032">
        <ele>1770.4</ele>
        <time>2026-06-27T07:37:52Z</time>
      </trkpt>
      <trkpt lat="46.11518" lon="6.72032">
        <ele>1770.4</ele>
        <time>2026-06-27T07:37:53Z</time>
      </trkpt>
      <trkpt lat="46.11518" lon="6.72032">
        <ele>1770.5</ele>
        <time>2026-06-27T07:37:54Z</time>
      </trkpt>
      <trkpt lat="46.11518" lon="6.72032">
        <ele>1770.5</ele>
        <time>2026-06-27T07:37:55Z</time>
      </trkpt>
      <trkpt lat="46.11518" lon="6.72031">
        <ele>1770.5</ele>
        <time>2026-06-27T07:37:56Z</time>
      </trkpt>
      <trkpt lat="46.11518" lon="6.72031">
        <ele>1770.4</ele>
        <time>2026-06-27T07:37:57Z</time>
      </trkpt>
      <trkpt lat="46.11518" lon="6.72031">
        <ele>1770.4</ele>
        <time>2026-06-27T07:37:58Z</time>
      </trkpt>
      <trkpt lat="46.11518" lon="6.7203">
        <ele>1770.4</ele>
        <time>2026-06-27T07:37:59Z</time>
      </trkpt>
      <trkpt lat="46.11518" lon="6.7203">
        <ele>1770.4</ele>
        <time>2026-06-27T07:38:00Z</time>
      </trkpt>
      <trkpt lat="46.11518" lon="6.7203">
        <ele>1770.5</ele>
        <time>2026-06-27T07:38:01Z</time>
      </trkpt>
      <trkpt lat="46.11518" lon="6.7203">
        <ele>1770.4</ele>
        <time>2026-06-27T07:38:02Z</time>
      </trkpt>
      <trkpt lat="46.11518" lon="6.7203">
        <ele>1770.3</ele>
        <time>2026-06-27T07:38:03Z</time>
      </trkpt>
      <trkpt lat="46.11518" lon="6.7203">
        <ele>1770.3</ele>
        <time>2026-06-27T07:38:04Z</time>
      </trkpt>
      <trkpt lat="46.11518" lon="6.7203">
        <ele>1770.3</ele>
        <time>2026-06-27T07:38:05Z</time>
      </trkpt>
      <trkpt lat="46.11518" lon="6.7203">
        <ele>1770.3</ele>
        <time>2026-06-27T07:38:06Z</time>
      </trkpt>
      <trkpt lat="46.11518" lon="6.7203">
        <ele>1770.3</ele>
        <time>2026-06-27T07:38:07Z</time>
      </trkpt>
      <trkpt lat="46.11518" lon="6.7203">
        <ele>1770.3</ele>
        <time>2026-06-27T07:38:08Z</time>
      </trkpt>
      <trkpt lat="46.11518" lon="6.7203">
        <ele>1770.3</ele>
        <time>2026-06-27T07:38:09Z</time>
      </trkpt>
      <trkpt lat="46.11518" lon="6.7203">
        <ele>1770.3</ele>
        <time>2026-06-27T07:38:10Z</time>
      </trkpt>
      <trkpt lat="46.11518" lon="6.72031">
        <ele>1770.3</ele>
        <time>2026-06-27T07:38:11Z</time>
      </trkpt>
      <trkpt lat="46.11518" lon="6.7203">
        <ele>1770.3</ele>
        <time>2026-06-27T07:38:12Z</time>
      </trkpt>
      <trkpt lat="46.11518" lon="6.7203">
        <ele>1770.3</ele>
        <time>2026-06-27T07:38:13Z</time>
      </trkpt>
      <trkpt lat="46.11518" lon="6.7203">
        <ele>1770.3</ele>
        <time>2026-06-27T07:38:14Z</time>
      </trkpt>
      <trkpt lat="46.11518" lon="6.7203">
        <ele>1770.3</ele>
        <time>2026-06-27T07:38:15Z</time>
      </trkpt>
      <trkpt lat="46.11518" lon="6.7203">
        <ele>1770.2</ele>
        <time>2026-06-27T07:38:16Z</time>
      </trkpt>
      <trkpt lat="46.11518" lon="6.72029">
        <ele>1770.2</ele>
        <time>2026-06-27T07:38:17Z</time>
      </trkpt>
      <trkpt lat="46.11518" lon="6.72029">
        <ele>1770.2</ele>
        <time>2026-06-27T07:38:18Z</time>
      </trkpt>
      <trkpt lat="46.11518" lon="6.72029">
        <ele>1770.3</ele>
        <time>2026-06-27T07:38:19Z</time>
      </trkpt>
      <trkpt lat="46.11519" lon="6.72029">
        <ele>1770.3</ele>
        <time>2026-06-27T07:38:20Z</time>
      </trkpt>
      <trkpt lat="46.11519" lon="6.72029">
        <ele>1770.3</ele>
        <time>2026-06-27T07:38:21Z</time>
      </trkpt>
      <trkpt lat="46.11519" lon="6.72029">
        <ele>1770.3</ele>
        <time>2026-06-27T07:38:22Z</time>
      </trkpt>
      <trkpt lat="46.11519" lon="6.7203">
        <ele>1770.3</ele>
        <time>2026-06-27T07:38:23Z</time>
      </trkpt>
      <trkpt lat="46.11519" lon="6.72029">
        <ele>1770.2</ele>
        <time>2026-06-27T07:38:24Z</time>
      </trkpt>
      <trkpt lat="46.11518" lon="6.7203">
        <ele>1770.2</ele>
        <time>2026-06-27T07:38:25Z</time>
      </trkpt>
      <trkpt lat="46.11518" lon="6.7203">
        <ele>1770.2</ele>
        <time>2026-06-27T07:38:26Z</time>
      </trkpt>
      <trkpt lat="46.11518" lon="6.72029">
        <ele>1770.2</ele>
        <time>2026-06-27T07:38:27Z</time>
      </trkpt>
      <trkpt lat="46.11518" lon="6.72029">
        <ele>1770.2</ele>
        <time>2026-06-27T07:38:28Z</time>
      </trkpt>
      <trkpt lat="46.11519" lon="6.72029">
        <ele>1770.3</ele>
        <time>2026-06-27T07:38:29Z</time>
      </trkpt>
      <trkpt lat="46.11519" lon="6.72029">
        <ele>1770.3</ele>
        <time>2026-06-27T07:38:30Z</time>
      </trkpt>
      <trkpt lat="46.11519" lon="6.7203">
        <ele>1770.3</ele>
        <time>2026-06-27T07:38:31Z</time>
      </trkpt>
      <trkpt lat="46.11519" lon="6.7203">
        <ele>1770.4</ele>
        <time>2026-06-27T07:38:32Z</time>
      </trkpt>
      <trkpt lat="46.11519" lon="6.7203">
        <ele>1770.4</ele>
        <time>2026-06-27T07:38:33Z</time>
      </trkpt>
      <trkpt lat="46.1152" lon="6.7203">
        <ele>1770.4</ele>
        <time>2026-06-27T07:38:34Z</time>
      </trkpt>
      <trkpt lat="46.1152" lon="6.7203">
        <ele>1770.4</ele>
        <time>2026-06-27T07:38:35Z</time>
      </trkpt>
      <trkpt lat="46.1152" lon="6.7203">
        <ele>1770.4</ele>
        <time>2026-06-27T07:38:36Z</time>
      </trkpt>
      <trkpt lat="46.1152" lon="6.7203">
        <ele>1770.5</ele>
        <time>2026-06-27T07:38:37Z</time>
      </trkpt>
      <trkpt lat="46.1152" lon="6.7203">
        <ele>1770.5</ele>
        <time>2026-06-27T07:38:38Z</time>
      </trkpt>
      <trkpt lat="46.1152" lon="6.7203">
        <ele>1770.5</ele>
        <time>2026-06-27T07:38:39Z</time>
      </trkpt>
      <trkpt lat="46.1152" lon="6.7203">
        <ele>1770.5</ele>
        <time>2026-06-27T07:38:40Z</time>
      </trkpt>
      <trkpt lat="46.1152" lon="6.72031">
        <ele>1770.5</ele>
        <time>2026-06-27T07:38:41Z</time>
      </trkpt>
      <trkpt lat="46.1152" lon="6.72031">
        <ele>1770.4</ele>
        <time>2026-06-27T07:38:42Z</time>
      </trkpt>
      <trkpt lat="46.1152" lon="6.72031">
        <ele>1770.4</ele>
        <time>2026-06-27T07:38:43Z</time>
      </trkpt>
      <trkpt lat="46.1152" lon="6.72031">
        <ele>1770.5</ele>
        <time>2026-06-27T07:38:44Z</time>
      </trkpt>
      <trkpt lat="46.11519" lon="6.72031">
        <ele>1770.5</ele>
        <time>2026-06-27T07:38:45Z</time>
      </trkpt>
      <trkpt lat="46.11519" lon="6.72031">
        <ele>1770.4</ele>
        <time>2026-06-27T07:38:46Z</time>
      </trkpt>
      <trkpt lat="46.11519" lon="6.7203">
        <ele>1770.4</ele>
        <time>2026-06-27T07:38:47Z</time>
      </trkpt>
      <trkpt lat="46.11519" lon="6.7203">
        <ele>1770.5</ele>
        <time>2026-06-27T07:38:48Z</time>
      </trkpt>
      <trkpt lat="46.1152" lon="6.7203">
        <ele>1770.5</ele>
        <time>2026-06-27T07:38:49Z</time>
      </trkpt>
      <trkpt lat="46.1152" lon="6.7203">
        <ele>1770.5</ele>
        <time>2026-06-27T07:38:50Z</time>
      </trkpt>
      <trkpt lat="46.1152" lon="6.7203">
        <ele>1770.4</ele>
        <time>2026-06-27T07:38:51Z</time>
      </trkpt>
      <trkpt lat="46.1152" lon="6.72031">
        <ele>1770.5</ele>
        <time>2026-06-27T07:38:52Z</time>
      </trkpt>
      <trkpt lat="46.1152" lon="6.72031">
        <ele>1770.6</ele>
        <time>2026-06-27T07:38:53Z</time>
      </trkpt>
      <trkpt lat="46.1152" lon="6.72031">
        <ele>1770.6</ele>
        <time>2026-06-27T07:38:54Z</time>
      </trkpt>
      <trkpt lat="46.1152" lon="6.72031">
        <ele>1770.6</ele>
        <time>2026-06-27T07:38:55Z</time>
      </trkpt>
      <trkpt lat="46.1152" lon="6.72031">
        <ele>1770.7</ele>
        <time>2026-06-27T07:38:56Z</time>
      </trkpt>
      <trkpt lat="46.1152" lon="6.72031">
        <ele>1770.8</ele>
        <time>2026-06-27T07:38:57Z</time>
      </trkpt>
      <trkpt lat="46.1152" lon="6.72031">
        <ele>1770.9</ele>
        <time>2026-06-27T07:38:58Z</time>
      </trkpt>
      <trkpt lat="46.1152" lon="6.7203">
        <ele>1770.9</ele>
        <time>2026-06-27T07:38:59Z</time>
      </trkpt>
      <trkpt lat="46.1152" lon="6.72031">
        <ele>1770.8</ele>
        <time>2026-06-27T07:39:00Z</time>
      </trkpt>
      <trkpt lat="46.1152" lon="6.72031">
        <ele>1770.7</ele>
        <time>2026-06-27T07:39:01Z</time>
      </trkpt>
      <trkpt lat="46.1152" lon="6.72031">
        <ele>1770.8</ele>
        <time>2026-06-27T07:39:02Z</time>
      </trkpt>
      <trkpt lat="46.1152" lon="6.72031">
        <ele>1770.8</ele>
        <time>2026-06-27T07:39:03Z</time>
      </trkpt>
      <trkpt lat="46.1152" lon="6.72031">
        <ele>1770.8</ele>
        <time>2026-06-27T07:39:04Z</time>
      </trkpt>
      <trkpt lat="46.1152" lon="6.72031">
        <ele>1770.7</ele>
        <time>2026-06-27T07:39:05Z</time>
      </trkpt>
      <trkpt lat="46.1152" lon="6.7203">
        <ele>1770.6</ele>
        <time>2026-06-27T07:39:06Z</time>
      </trkpt>
      <trkpt lat="46.1152" lon="6.7203">
        <ele>1770.5</ele>
        <time>2026-06-27T07:39:07Z</time>
      </trkpt>
      <trkpt lat="46.1152" lon="6.72029">
        <ele>1770.4</ele>
        <time>2026-06-27T07:39:08Z</time>
      </trkpt>
      <trkpt lat="46.1152" lon="6.72029">
        <ele>1770.4</ele>
        <time>2026-06-27T07:39:09Z</time>
      </trkpt>
      <trkpt lat="46.1152" lon="6.72028">
        <ele>1770.4</ele>
        <time>2026-06-27T07:39:10Z</time>
      </trkpt>
      <trkpt lat="46.1152" lon="6.72027">
        <ele>1770.4</ele>
        <time>2026-06-27T07:39:11Z</time>
      </trkpt>
      <trkpt lat="46.1152" lon="6.72027">
        <ele>1770.4</ele>
        <time>2026-06-27T07:39:12Z</time>
      </trkpt>
      <trkpt lat="46.1152" lon="6.72027">
        <ele>1770.5</ele>
        <time>2026-06-27T07:39:13Z</time>
      </trkpt>
      <trkpt lat="46.11521" lon="6.72027">
        <ele>1770.6</ele>
        <time>2026-06-27T07:39:14Z</time>
      </trkpt>
      <trkpt lat="46.11521" lon="6.72027">
        <ele>1770.6</ele>
        <time>2026-06-27T07:39:15Z</time>
      </trkpt>
      <trkpt lat="46.11521" lon="6.72027">
        <ele>1770.6</ele>
        <time>2026-06-27T07:39:16Z</time>
      </trkpt>
      <trkpt lat="46.11521" lon="6.72027">
        <ele>1770.5</ele>
        <time>2026-06-27T07:39:17Z</time>
      </trkpt>
      <trkpt lat="46.11521" lon="6.72027">
        <ele>1770.5</ele>
        <time>2026-06-27T07:39:18Z</time>
      </trkpt>
      <trkpt lat="46.11521" lon="6.72027">
        <ele>1770.5</ele>
        <time>2026-06-27T07:39:19Z</time>
      </trkpt>
      <trkpt lat="46.11521" lon="6.72027">
        <ele>1770.5</ele>
        <time>2026-06-27T07:39:20Z</time>
      </trkpt>
      <trkpt lat="46.11521" lon="6.72027">
        <ele>1770.5</ele>
        <time>2026-06-27T07:39:21Z</time>
      </trkpt>
      <trkpt lat="46.11521" lon="6.72027">
        <ele>1770.6</ele>
        <time>2026-06-27T07:39:22Z</time>
      </trkpt>
      <trkpt lat="46.11521" lon="6.72026">
        <ele>1770.6</ele>
        <time>2026-06-27T07:39:23Z</time>
      </trkpt>
      <trkpt lat="46.11521" lon="6.72026">
        <ele>1770.6</ele>
        <time>2026-06-27T07:39:24Z</time>
      </trkpt>
      <trkpt lat="46.11521" lon="6.72026">
        <ele>1770.6</ele>
        <time>2026-06-27T07:39:25Z</time>
      </trkpt>
      <trkpt lat="46.11521" lon="6.72026">
        <ele>1770.5</ele>
        <time>2026-06-27T07:39:26Z</time>
      </trkpt>
      <trkpt lat="46.11521" lon="6.72026">
        <ele>1770.5</ele>
        <time>2026-06-27T07:39:27Z</time>
      </trkpt>
      <trkpt lat="46.11521" lon="6.72026">
        <ele>1770.5</ele>
        <time>2026-06-27T07:39:28Z</time>
      </trkpt>
      <trkpt lat="46.11521" lon="6.72026">
        <ele>1770.5</ele>
        <time>2026-06-27T07:39:29Z</time>
      </trkpt>
      <trkpt lat="46.11521" lon="6.72026">
        <ele>1770.4</ele>
        <time>2026-06-27T07:39:30Z</time>
      </trkpt>
      <trkpt lat="46.11521" lon="6.72026">
        <ele>1770.4</ele>
        <time>2026-06-27T07:39:31Z</time>
      </trkpt>
      <trkpt lat="46.11521" lon="6.72026">
        <ele>1770.3</ele>
        <time>2026-06-27T07:39:32Z</time>
      </trkpt>
      <trkpt lat="46.11521" lon="6.72026">
        <ele>1770.3</ele>
        <time>2026-06-27T07:39:33Z</time>
      </trkpt>
      <trkpt lat="46.11521" lon="6.72026">
        <ele>1770.3</ele>
        <time>2026-06-27T07:39:34Z</time>
      </trkpt>
      <trkpt lat="46.11521" lon="6.72026">
        <ele>1770.3</ele>
        <time>2026-06-27T07:39:35Z</time>
      </trkpt>
      <trkpt lat="46.11521" lon="6.72026">
        <ele>1770.2</ele>
        <time>2026-06-27T07:39:36Z</time>
      </trkpt>
      <trkpt lat="46.11521" lon="6.72026">
        <ele>1770.2</ele>
        <time>2026-06-27T07:39:37Z</time>
      </trkpt>
      <trkpt lat="46.11521" lon="6.72027">
        <ele>1770.2</ele>
        <time>2026-06-27T07:39:38Z</time>
      </trkpt>
      <trkpt lat="46.11521" lon="6.72026">
        <ele>1770.1</ele>
        <time>2026-06-27T07:39:39Z</time>
      </trkpt>
      <trkpt lat="46.11521" lon="6.72026">
        <ele>1770</ele>
        <time>2026-06-27T07:39:40Z</time>
      </trkpt>
      <trkpt lat="46.11521" lon="6.72026">
        <ele>1769.9</ele>
        <time>2026-06-27T07:39:41Z</time>
      </trkpt>
      <trkpt lat="46.11521" lon="6.72026">
        <ele>1770</ele>
        <time>2026-06-27T07:39:42Z</time>
      </trkpt>
      <trkpt lat="46.11521" lon="6.72026">
        <ele>1770.1</ele>
        <time>2026-06-27T07:39:43Z</time>
      </trkpt>
      <trkpt lat="46.11521" lon="6.72026">
        <ele>1770.2</ele>
        <time>2026-06-27T07:39:44Z</time>
      </trkpt>
      <trkpt lat="46.11521" lon="6.72026">
        <ele>1770.3</ele>
        <time>2026-06-27T07:39:45Z</time>
      </trkpt>
      <trkpt lat="46.11521" lon="6.72026">
        <ele>1770.4</ele>
        <time>2026-06-27T07:39:46Z</time>
      </trkpt>
      <trkpt lat="46.11521" lon="6.72026">
        <ele>1770.3</ele>
        <time>2026-06-27T07:39:47Z</time>
      </trkpt>
      <trkpt lat="46.11521" lon="6.72026">
        <ele>1770.4</ele>
        <time>2026-06-27T07:39:48Z</time>
      </trkpt>
      <trkpt lat="46.11521" lon="6.72026">
        <ele>1770.4</ele>
        <time>2026-06-27T07:39:49Z</time>
      </trkpt>
      <trkpt lat="46.11521" lon="6.72026">
        <ele>1770.5</ele>
        <time>2026-06-27T07:39:50Z</time>
      </trkpt>
      <trkpt lat="46.11521" lon="6.72026">
        <ele>1770.5</ele>
        <time>2026-06-27T07:39:51Z</time>
      </trkpt>
      <trkpt lat="46.11521" lon="6.72026">
        <ele>1770.3</ele>
        <time>2026-06-27T07:39:52Z</time>
      </trkpt>
      <trkpt lat="46.11521" lon="6.72026">
        <ele>1770.2</ele>
        <time>2026-06-27T07:39:53Z</time>
      </trkpt>
      <trkpt lat="46.11521" lon="6.72025">
        <ele>1770.2</ele>
        <time>2026-06-27T07:39:54Z</time>
      </trkpt>
      <trkpt lat="46.11521" lon="6.72025">
        <ele>1770.3</ele>
        <time>2026-06-27T07:39:55Z</time>
      </trkpt>
      <trkpt lat="46.11521" lon="6.72025">
        <ele>1770.4</ele>
        <time>2026-06-27T07:39:56Z</time>
      </trkpt>
      <trkpt lat="46.11521" lon="6.72025">
        <ele>1770.4</ele>
        <time>2026-06-27T07:39:57Z</time>
      </trkpt>
      <trkpt lat="46.11521" lon="6.72025">
        <ele>1770.5</ele>
        <time>2026-06-27T07:39:58Z</time>
      </trkpt>
      <trkpt lat="46.11521" lon="6.72025">
        <ele>1770.6</ele>
        <time>2026-06-27T07:39:59Z</time>
      </trkpt>
      <trkpt lat="46.11521" lon="6.72025">
        <ele>1770.5</ele>
        <time>2026-06-27T07:40:00Z</time>
      </trkpt>
      <trkpt lat="46.11521" lon="6.72025">
        <ele>1770.6</ele>
        <time>2026-06-27T07:40:01Z</time>
      </trkpt>
      <trkpt lat="46.11521" lon="6.72025">
        <ele>1770.5</ele>
        <time>2026-06-27T07:40:02Z</time>
      </trkpt>
      <trkpt lat="46.11521" lon="6.72025">
        <ele>1770.5</ele>
        <time>2026-06-27T07:40:03Z</time>
      </trkpt>
      <trkpt lat="46.11521" lon="6.72025">
        <ele>1770.4</ele>
        <time>2026-06-27T07:40:04Z</time>
      </trkpt>
      <trkpt lat="46.11521" lon="6.72025">
        <ele>1770.5</ele>
        <time>2026-06-27T07:40:05Z</time>
      </trkpt>
      <trkpt lat="46.1152" lon="6.72024">
        <ele>1770.5</ele>
        <time>2026-06-27T07:40:06Z</time>
      </trkpt>
      <trkpt lat="46.11521" lon="6.72024">
        <ele>1770.5</ele>
        <time>2026-06-27T07:40:07Z</time>
      </trkpt>
      <trkpt lat="46.11521" lon="6.72024">
        <ele>1770.4</ele>
        <time>2026-06-27T07:40:08Z</time>
      </trkpt>
      <trkpt lat="46.1152" lon="6.72024">
        <ele>1770.4</ele>
        <time>2026-06-27T07:40:09Z</time>
      </trkpt>
      <trkpt lat="46.1152" lon="6.72024">
        <ele>1770.4</ele>
        <time>2026-06-27T07:40:10Z</time>
      </trkpt>
      <trkpt lat="46.1152" lon="6.72024">
        <ele>1770.5</ele>
        <time>2026-06-27T07:40:11Z</time>
      </trkpt>
      <trkpt lat="46.1152" lon="6.72024">
        <ele>1770.5</ele>
        <time>2026-06-27T07:40:12Z</time>
      </trkpt>
      <trkpt lat="46.1152" lon="6.72024">
        <ele>1770.5</ele>
        <time>2026-06-27T07:40:13Z</time>
      </trkpt>
      <trkpt lat="46.1152" lon="6.72024">
        <ele>1770.4</ele>
        <time>2026-06-27T07:40:14Z</time>
      </trkpt>
      <trkpt lat="46.1152" lon="6.72024">
        <ele>1770.4</ele>
        <time>2026-06-27T07:40:15Z</time>
      </trkpt>
      <trkpt lat="46.1152" lon="6.72024">
        <ele>1770.3</ele>
        <time>2026-06-27T07:40:16Z</time>
      </trkpt>
      <trkpt lat="46.1152" lon="6.72024">
        <ele>1770.3</ele>
        <time>2026-06-27T07:40:17Z</time>
      </trkpt>
      <trkpt lat="46.1152" lon="6.72024">
        <ele>1770.2</ele>
        <time>2026-06-27T07:40:18Z</time>
      </trkpt>
      <trkpt lat="46.1152" lon="6.72024">
        <ele>1770.2</ele>
        <time>2026-06-27T07:40:19Z</time>
      </trkpt>
      <trkpt lat="46.1152" lon="6.72024">
        <ele>1770.2</ele>
        <time>2026-06-27T07:40:20Z</time>
      </trkpt>
      <trkpt lat="46.1152" lon="6.72024">
        <ele>1770.2</ele>
        <time>2026-06-27T07:40:21Z</time>
      </trkpt>
      <trkpt lat="46.1152" lon="6.72024">
        <ele>1770.2</ele>
        <time>2026-06-27T07:40:22Z</time>
      </trkpt>
      <trkpt lat="46.1152" lon="6.72024">
        <ele>1770.1</ele>
        <time>2026-06-27T07:40:23Z</time>
      </trkpt>
      <trkpt lat="46.11521" lon="6.72025">
        <ele>1770.1</ele>
        <time>2026-06-27T07:40:24Z</time>
      </trkpt>
      <trkpt lat="46.11521" lon="6.72025">
        <ele>1770.1</ele>
        <time>2026-06-27T07:40:25Z</time>
      </trkpt>
      <trkpt lat="46.11522" lon="6.72026">
        <ele>1770.1</ele>
        <time>2026-06-27T07:40:26Z</time>
      </trkpt>
      <trkpt lat="46.11523" lon="6.72027">
        <ele>1770.2</ele>
        <time>2026-06-27T07:40:27Z</time>
      </trkpt>
      <trkpt lat="46.11524" lon="6.72028">
        <ele>1770.3</ele>
        <time>2026-06-27T07:40:28Z</time>
      </trkpt>
      <trkpt lat="46.11524" lon="6.72029">
        <ele>1770.4</ele>
        <time>2026-06-27T07:40:29Z</time>
      </trkpt>
      <trkpt lat="46.11525" lon="6.7203">
        <ele>1770.4</ele>
        <time>2026-06-27T07:40:30Z</time>
      </trkpt>
      <trkpt lat="46.11526" lon="6.72031">
        <ele>1770.5</ele>
        <time>2026-06-27T07:40:31Z</time>
      </trkpt>
      <trkpt lat="46.11526" lon="6.72032">
        <ele>1770.6</ele>
        <time>2026-06-27T07:40:32Z</time>
      </trkpt>
      <trkpt lat="46.11527" lon="6.72033">
        <ele>1770.7</ele>
        <time>2026-06-27T07:40:33Z</time>
      </trkpt>
      <trkpt lat="46.11528" lon="6.72034">
        <ele>1770.8</ele>
        <time>2026-06-27T07:40:34Z</time>
      </trkpt>
      <trkpt lat="46.11528" lon="6.72035">
        <ele>1770.9</ele>
        <time>2026-06-27T07:40:35Z</time>
      </trkpt>
      <trkpt lat="46.11529" lon="6.72036">
        <ele>1771.1</ele>
        <time>2026-06-27T07:40:36Z</time>
      </trkpt>
      <trkpt lat="46.1153" lon="6.72036">
        <ele>1771.1</ele>
        <time>2026-06-27T07:40:37Z</time>
      </trkpt>
      <trkpt lat="46.1153" lon="6.72038">
        <ele>1771.2</ele>
        <time>2026-06-27T07:40:38Z</time>
      </trkpt>
      <trkpt lat="46.11531" lon="6.72039">
        <ele>1771.1</ele>
        <time>2026-06-27T07:40:39Z</time>
      </trkpt>
      <trkpt lat="46.11532" lon="6.7204">
        <ele>1771.1</ele>
        <time>2026-06-27T07:40:40Z</time>
      </trkpt>
      <trkpt lat="46.11533" lon="6.72041">
        <ele>1771.2</ele>
        <time>2026-06-27T07:40:41Z</time>
      </trkpt>
      <trkpt lat="46.11534" lon="6.72042">
        <ele>1771.2</ele>
        <time>2026-06-27T07:40:42Z</time>
      </trkpt>
      <trkpt lat="46.11535" lon="6.72042">
        <ele>1771.2</ele>
        <time>2026-06-27T07:40:43Z</time>
      </trkpt>
      <trkpt lat="46.11535" lon="6.72043">
        <ele>1771.1</ele>
        <time>2026-06-27T07:40:44Z</time>
      </trkpt>
      <trkpt lat="46.11536" lon="6.72044">
        <ele>1771.1</ele>
        <time>2026-06-27T07:40:45Z</time>
      </trkpt>
      <trkpt lat="46.11536" lon="6.72045">
        <ele>1771.1</ele>
        <time>2026-06-27T07:40:46Z</time>
      </trkpt>
      <trkpt lat="46.11537" lon="6.72046">
        <ele>1771.1</ele>
        <time>2026-06-27T07:40:47Z</time>
      </trkpt>
      <trkpt lat="46.11538" lon="6.72048">
        <ele>1771.2</ele>
        <time>2026-06-27T07:40:48Z</time>
      </trkpt>
      <trkpt lat="46.11539" lon="6.72049">
        <ele>1771.2</ele>
        <time>2026-06-27T07:40:49Z</time>
      </trkpt>
      <trkpt lat="46.1154" lon="6.7205">
        <ele>1771.2</ele>
        <time>2026-06-27T07:40:50Z</time>
      </trkpt>
      <trkpt lat="46.11541" lon="6.72051">
        <ele>1771.2</ele>
        <time>2026-06-27T07:40:51Z</time>
      </trkpt>
      <trkpt lat="46.11541" lon="6.72052">
        <ele>1771.2</ele>
        <time>2026-06-27T07:40:52Z</time>
      </trkpt>
      <trkpt lat="46.11542" lon="6.72053">
        <ele>1771.2</ele>
        <time>2026-06-27T07:40:53Z</time>
      </trkpt>
      <trkpt lat="46.11543" lon="6.72054">
        <ele>1771.3</ele>
        <time>2026-06-27T07:40:54Z</time>
      </trkpt>
      <trkpt lat="46.11544" lon="6.72054">
        <ele>1771.2</ele>
        <time>2026-06-27T07:40:55Z</time>
      </trkpt>
      <trkpt lat="46.11545" lon="6.72055">
        <ele>1771.1</ele>
        <time>2026-06-27T07:40:56Z</time>
      </trkpt>
      <trkpt lat="46.11546" lon="6.72056">
        <ele>1771</ele>
        <time>2026-06-27T07:40:57Z</time>
      </trkpt>
      <trkpt lat="46.11547" lon="6.72057">
        <ele>1770.9</ele>
        <time>2026-06-27T07:40:58Z</time>
      </trkpt>
      <trkpt lat="46.11548" lon="6.72058">
        <ele>1770.8</ele>
        <time>2026-06-27T07:40:59Z</time>
      </trkpt>
      <trkpt lat="46.11549" lon="6.7206">
        <ele>1770.7</ele>
        <time>2026-06-27T07:41:00Z</time>
      </trkpt>
      <trkpt lat="46.1155" lon="6.7206">
        <ele>1770.6</ele>
        <time>2026-06-27T07:41:01Z</time>
      </trkpt>
      <trkpt lat="46.1155" lon="6.7206">
        <ele>1770.5</ele>
        <time>2026-06-27T07:41:02Z</time>
      </trkpt>
      <trkpt lat="46.1155" lon="6.7206">
        <ele>1770.3</ele>
        <time>2026-06-27T07:41:03Z</time>
      </trkpt>
      <trkpt lat="46.11551" lon="6.7206">
        <ele>1770.3</ele>
        <time>2026-06-27T07:41:04Z</time>
      </trkpt>
      <trkpt lat="46.11551" lon="6.72059">
        <ele>1770.2</ele>
        <time>2026-06-27T07:41:05Z</time>
      </trkpt>
      <trkpt lat="46.11551" lon="6.72059">
        <ele>1770.2</ele>
        <time>2026-06-27T07:41:06Z</time>
      </trkpt>
      <trkpt lat="46.11551" lon="6.7206">
        <ele>1770.1</ele>
        <time>2026-06-27T07:41:07Z</time>
      </trkpt>
      <trkpt lat="46.11551" lon="6.72061">
        <ele>1770.1</ele>
        <time>2026-06-27T07:41:08Z</time>
      </trkpt>
      <trkpt lat="46.11552" lon="6.72062">
        <ele>1770.1</ele>
        <time>2026-06-27T07:41:09Z</time>
      </trkpt>
      <trkpt lat="46.11553" lon="6.72063">
        <ele>1770</ele>
        <time>2026-06-27T07:41:10Z</time>
      </trkpt>
      <trkpt lat="46.11553" lon="6.72064">
        <ele>1770</ele>
        <time>2026-06-27T07:41:11Z</time>
      </trkpt>
      <trkpt lat="46.11554" lon="6.72065">
        <ele>1770</ele>
        <time>2026-06-27T07:41:12Z</time>
      </trkpt>
      <trkpt lat="46.11555" lon="6.72067">
        <ele>1769.9</ele>
        <time>2026-06-27T07:41:13Z</time>
      </trkpt>
      <trkpt lat="46.11555" lon="6.72068">
        <ele>1769.9</ele>
        <time>2026-06-27T07:41:14Z</time>
      </trkpt>
      <trkpt lat="46.11556" lon="6.7207">
        <ele>1769.9</ele>
        <time>2026-06-27T07:41:15Z</time>
      </trkpt>
      <trkpt lat="46.11557" lon="6.72071">
        <ele>1769.9</ele>
        <time>2026-06-27T07:41:16Z</time>
      </trkpt>
      <trkpt lat="46.11558" lon="6.72072">
        <ele>1769.7</ele>
        <time>2026-06-27T07:41:17Z</time>
      </trkpt>
      <trkpt lat="46.11559" lon="6.72073">
        <ele>1769.7</ele>
        <time>2026-06-27T07:41:18Z</time>
      </trkpt>
      <trkpt lat="46.1156" lon="6.72074">
        <ele>1769.6</ele>
        <time>2026-06-27T07:41:19Z</time>
      </trkpt>
      <trkpt lat="46.11561" lon="6.72075">
        <ele>1769.5</ele>
        <time>2026-06-27T07:41:20Z</time>
      </trkpt>
      <trkpt lat="46.11561" lon="6.72077">
        <ele>1769.4</ele>
        <time>2026-06-27T07:41:21Z</time>
      </trkpt>
      <trkpt lat="46.11562" lon="6.72078">
        <ele>1769.4</ele>
        <time>2026-06-27T07:41:22Z</time>
      </trkpt>
      <trkpt lat="46.11563" lon="6.72079">
        <ele>1769.2</ele>
        <time>2026-06-27T07:41:23Z</time>
      </trkpt>
      <trkpt lat="46.11564" lon="6.72081">
        <ele>1769.2</ele>
        <time>2026-06-27T07:41:24Z</time>
      </trkpt>
      <trkpt lat="46.11564" lon="6.72082">
        <ele>1769.1</ele>
        <time>2026-06-27T07:41:25Z</time>
      </trkpt>
      <trkpt lat="46.11565" lon="6.72083">
        <ele>1769.1</ele>
        <time>2026-06-27T07:41:26Z</time>
      </trkpt>
      <trkpt lat="46.11566" lon="6.72084">
        <ele>1769.1</ele>
        <time>2026-06-27T07:41:27Z</time>
      </trkpt>
      <trkpt lat="46.11567" lon="6.72085">
        <ele>1769.1</ele>
        <time>2026-06-27T07:41:28Z</time>
      </trkpt>
      <trkpt lat="46.11567" lon="6.72086">
        <ele>1769.2</ele>
        <time>2026-06-27T07:41:29Z</time>
      </trkpt>
      <trkpt lat="46.11568" lon="6.72087">
        <ele>1769.4</ele>
        <time>2026-06-27T07:41:30Z</time>
      </trkpt>
      <trkpt lat="46.11569" lon="6.72088">
        <ele>1769.3</ele>
        <time>2026-06-27T07:41:31Z</time>
      </trkpt>
      <trkpt lat="46.1157" lon="6.72089">
        <ele>1769.3</ele>
        <time>2026-06-27T07:41:32Z</time>
      </trkpt>
      <trkpt lat="46.1157" lon="6.7209">
        <ele>1769.2</ele>
        <time>2026-06-27T07:41:33Z</time>
      </trkpt>
      <trkpt lat="46.11571" lon="6.72091">
        <ele>1769.2</ele>
        <time>2026-06-27T07:41:34Z</time>
      </trkpt>
      <trkpt lat="46.11572" lon="6.72092">
        <ele>1769.2</ele>
        <time>2026-06-27T07:41:35Z</time>
      </trkpt>
      <trkpt lat="46.11572" lon="6.72093">
        <ele>1769.2</ele>
        <time>2026-06-27T07:41:36Z</time>
      </trkpt>
      <trkpt lat="46.11573" lon="6.72094">
        <ele>1769.2</ele>
        <time>2026-06-27T07:41:37Z</time>
      </trkpt>
      <trkpt lat="46.11574" lon="6.72096">
        <ele>1769.2</ele>
        <time>2026-06-27T07:41:38Z</time>
      </trkpt>
      <trkpt lat="46.11575" lon="6.72097">
        <ele>1769.2</ele>
        <time>2026-06-27T07:41:39Z</time>
      </trkpt>
      <trkpt lat="46.11575" lon="6.72098">
        <ele>1769.3</ele>
        <time>2026-06-27T07:41:40Z</time>
      </trkpt>
      <trkpt lat="46.11576" lon="6.72099">
        <ele>1769.3</ele>
        <time>2026-06-27T07:41:41Z</time>
      </trkpt>
      <trkpt lat="46.11577" lon="6.721">
        <ele>1769.3</ele>
        <time>2026-06-27T07:41:42Z</time>
      </trkpt>
      <trkpt lat="46.11578" lon="6.72101">
        <ele>1769.2</ele>
        <time>2026-06-27T07:41:43Z</time>
      </trkpt>
      <trkpt lat="46.11578" lon="6.72103">
        <ele>1769.1</ele>
        <time>2026-06-27T07:41:44Z</time>
      </trkpt>
      <trkpt lat="46.11579" lon="6.72104">
        <ele>1769.1</ele>
        <time>2026-06-27T07:41:45Z</time>
      </trkpt>
      <trkpt lat="46.1158" lon="6.72105">
        <ele>1769</ele>
        <time>2026-06-27T07:41:46Z</time>
      </trkpt>
      <trkpt lat="46.1158" lon="6.72106">
        <ele>1769</ele>
        <time>2026-06-27T07:41:47Z</time>
      </trkpt>
      <trkpt lat="46.11581" lon="6.72107">
        <ele>1769</ele>
        <time>2026-06-27T07:41:48Z</time>
      </trkpt>
      <trkpt lat="46.11582" lon="6.72108">
        <ele>1769</ele>
        <time>2026-06-27T07:41:49Z</time>
      </trkpt>
      <trkpt lat="46.11583" lon="6.72109">
        <ele>1768.9</ele>
        <time>2026-06-27T07:41:50Z</time>
      </trkpt>
      <trkpt lat="46.11583" lon="6.7211">
        <ele>1768.9</ele>
        <time>2026-06-27T07:41:51Z</time>
      </trkpt>
      <trkpt lat="46.11584" lon="6.72111">
        <ele>1768.8</ele>
        <time>2026-06-27T07:41:52Z</time>
      </trkpt>
      <trkpt lat="46.11585" lon="6.72112">
        <ele>1768.8</ele>
        <time>2026-06-27T07:41:53Z</time>
      </trkpt>
      <trkpt lat="46.11586" lon="6.72113">
        <ele>1768.7</ele>
        <time>2026-06-27T07:41:54Z</time>
      </trkpt>
      <trkpt lat="46.11587" lon="6.72114">
        <ele>1768.7</ele>
        <time>2026-06-27T07:41:55Z</time>
      </trkpt>
      <trkpt lat="46.11588" lon="6.72115">
        <ele>1768.6</ele>
        <time>2026-06-27T07:41:56Z</time>
      </trkpt>
      <trkpt lat="46.11589" lon="6.72116">
        <ele>1768.5</ele>
        <time>2026-06-27T07:41:57Z</time>
      </trkpt>
      <trkpt lat="46.1159" lon="6.72117">
        <ele>1768.5</ele>
        <time>2026-06-27T07:41:58Z</time>
      </trkpt>
      <trkpt lat="46.1159" lon="6.72117">
        <ele>1768.4</ele>
        <time>2026-06-27T07:41:59Z</time>
      </trkpt>
      <trkpt lat="46.11591" lon="6.72118">
        <ele>1768.3</ele>
        <time>2026-06-27T07:42:00Z</time>
      </trkpt>
      <trkpt lat="46.11592" lon="6.72119">
        <ele>1768.3</ele>
        <time>2026-06-27T07:42:01Z</time>
      </trkpt>
      <trkpt lat="46.11593" lon="6.7212">
        <ele>1768</ele>
        <time>2026-06-27T07:42:02Z</time>
      </trkpt>
      <trkpt lat="46.11594" lon="6.72121">
        <ele>1767.9</ele>
        <time>2026-06-27T07:42:03Z</time>
      </trkpt>
      <trkpt lat="46.11594" lon="6.72122">
        <ele>1767.7</ele>
        <time>2026-06-27T07:42:04Z</time>
      </trkpt>
      <trkpt lat="46.11595" lon="6.72122">
        <ele>1767.6</ele>
        <time>2026-06-27T07:42:05Z</time>
      </trkpt>
      <trkpt lat="46.11596" lon="6.72123">
        <ele>1767.5</ele>
        <time>2026-06-27T07:42:06Z</time>
      </trkpt>
      <trkpt lat="46.11597" lon="6.72124">
        <ele>1767.4</ele>
        <time>2026-06-27T07:42:07Z</time>
      </trkpt>
      <trkpt lat="46.11598" lon="6.72124">
        <ele>1767.1</ele>
        <time>2026-06-27T07:42:08Z</time>
      </trkpt>
      <trkpt lat="46.11599" lon="6.72125">
        <ele>1766.9</ele>
        <time>2026-06-27T07:42:09Z</time>
      </trkpt>
      <trkpt lat="46.116" lon="6.72125">
        <ele>1766.7</ele>
        <time>2026-06-27T07:42:10Z</time>
      </trkpt>
      <trkpt lat="46.11602" lon="6.72126">
        <ele>1766.5</ele>
        <time>2026-06-27T07:42:11Z</time>
      </trkpt>
      <trkpt lat="46.11603" lon="6.72127">
        <ele>1766.4</ele>
        <time>2026-06-27T07:42:12Z</time>
      </trkpt>
      <trkpt lat="46.11604" lon="6.72127">
        <ele>1766.2</ele>
        <time>2026-06-27T07:42:13Z</time>
      </trkpt>
      <trkpt lat="46.11604" lon="6.72128">
        <ele>1766</ele>
        <time>2026-06-27T07:42:14Z</time>
      </trkpt>
      <trkpt lat="46.11605" lon="6.72129">
        <ele>1765.9</ele>
        <time>2026-06-27T07:42:15Z</time>
      </trkpt>
      <trkpt lat="46.11607" lon="6.72129">
        <ele>1765.8</ele>
        <time>2026-06-27T07:42:16Z</time>
      </trkpt>
      <trkpt lat="46.11608" lon="6.7213">
        <ele>1765.7</ele>
        <time>2026-06-27T07:42:17Z</time>
      </trkpt>
      <trkpt lat="46.11609" lon="6.72131">
        <ele>1765.6</ele>
        <time>2026-06-27T07:42:18Z</time>
      </trkpt>
      <trkpt lat="46.1161" lon="6.72131">
        <ele>1765.5</ele>
        <time>2026-06-27T07:42:19Z</time>
      </trkpt>
      <trkpt lat="46.11611" lon="6.72132">
        <ele>1765.4</ele>
        <time>2026-06-27T07:42:20Z</time>
      </trkpt>
      <trkpt lat="46.11612" lon="6.72133">
        <ele>1765.4</ele>
        <time>2026-06-27T07:42:21Z</time>
      </trkpt>
      <trkpt lat="46.11613" lon="6.72133">
        <ele>1765.3</ele>
        <time>2026-06-27T07:42:22Z</time>
      </trkpt>
      <trkpt lat="46.11614" lon="6.72134">
        <ele>1765.2</ele>
        <time>2026-06-27T07:42:23Z</time>
      </trkpt>
      <trkpt lat="46.11615" lon="6.72134">
        <ele>1765.2</ele>
        <time>2026-06-27T07:42:24Z</time>
      </trkpt>
      <trkpt lat="46.11616" lon="6.72135">
        <ele>1765.2</ele>
        <time>2026-06-27T07:42:25Z</time>
      </trkpt>
      <trkpt lat="46.11617" lon="6.72135">
        <ele>1765.2</ele>
        <time>2026-06-27T07:42:26Z</time>
      </trkpt>
      <trkpt lat="46.11618" lon="6.72136">
        <ele>1765.1</ele>
        <time>2026-06-27T07:42:27Z</time>
      </trkpt>
      <trkpt lat="46.11619" lon="6.72136">
        <ele>1765.2</ele>
        <time>2026-06-27T07:42:28Z</time>
      </trkpt>
      <trkpt lat="46.1162" lon="6.72137">
        <ele>1765.1</ele>
        <time>2026-06-27T07:42:29Z</time>
      </trkpt>
      <trkpt lat="46.11621" lon="6.72138">
        <ele>1765.1</ele>
        <time>2026-06-27T07:42:30Z</time>
      </trkpt>
      <trkpt lat="46.11622" lon="6.72138">
        <ele>1765.1</ele>
        <time>2026-06-27T07:42:31Z</time>
      </trkpt>
      <trkpt lat="46.11623" lon="6.72138">
        <ele>1765</ele>
        <time>2026-06-27T07:42:32Z</time>
      </trkpt>
      <trkpt lat="46.11625" lon="6.72139">
        <ele>1764.9</ele>
        <time>2026-06-27T07:42:33Z</time>
      </trkpt>
      <trkpt lat="46.11625" lon="6.72139">
        <ele>1764.8</ele>
        <time>2026-06-27T07:42:34Z</time>
      </trkpt>
      <trkpt lat="46.11626" lon="6.72139">
        <ele>1764.7</ele>
        <time>2026-06-27T07:42:35Z</time>
      </trkpt>
      <trkpt lat="46.11627" lon="6.7214">
        <ele>1764.6</ele>
        <time>2026-06-27T07:42:36Z</time>
      </trkpt>
      <trkpt lat="46.11628" lon="6.7214">
        <ele>1764.6</ele>
        <time>2026-06-27T07:42:37Z</time>
      </trkpt>
      <trkpt lat="46.11629" lon="6.72141">
        <ele>1764.5</ele>
        <time>2026-06-27T07:42:38Z</time>
      </trkpt>
      <trkpt lat="46.1163" lon="6.72141">
        <ele>1764.5</ele>
        <time>2026-06-27T07:42:39Z</time>
      </trkpt>
      <trkpt lat="46.11631" lon="6.72141">
        <ele>1764.4</ele>
        <time>2026-06-27T07:42:40Z</time>
      </trkpt>
      <trkpt lat="46.11632" lon="6.72142">
        <ele>1764.3</ele>
        <time>2026-06-27T07:42:41Z</time>
      </trkpt>
      <trkpt lat="46.11633" lon="6.72143">
        <ele>1764.2</ele>
        <time>2026-06-27T07:42:42Z</time>
      </trkpt>
      <trkpt lat="46.11634" lon="6.72143">
        <ele>1764.2</ele>
        <time>2026-06-27T07:42:43Z</time>
      </trkpt>
      <trkpt lat="46.11636" lon="6.72143">
        <ele>1764.1</ele>
        <time>2026-06-27T07:42:44Z</time>
      </trkpt>
      <trkpt lat="46.11637" lon="6.72143">
        <ele>1764.2</ele>
        <time>2026-06-27T07:42:45Z</time>
      </trkpt>
      <trkpt lat="46.11638" lon="6.72143">
        <ele>1764.2</ele>
        <time>2026-06-27T07:42:46Z</time>
      </trkpt>
      <trkpt lat="46.11639" lon="6.72144">
        <ele>1764.2</ele>
        <time>2026-06-27T07:42:47Z</time>
      </trkpt>
      <trkpt lat="46.1164" lon="6.72144">
        <ele>1764.2</ele>
        <time>2026-06-27T07:42:48Z</time>
      </trkpt>
      <trkpt lat="46.11641" lon="6.72144">
        <ele>1764.2</ele>
        <time>2026-06-27T07:42:49Z</time>
      </trkpt>
      <trkpt lat="46.11642" lon="6.72144">
        <ele>1764.1</ele>
        <time>2026-06-27T07:42:50Z</time>
      </trkpt>
      <trkpt lat="46.11643" lon="6.72144">
        <ele>1764.1</ele>
        <time>2026-06-27T07:42:51Z</time>
      </trkpt>
      <trkpt lat="46.11644" lon="6.72145">
        <ele>1764</ele>
        <time>2026-06-27T07:42:52Z</time>
      </trkpt>
      <trkpt lat="46.11645" lon="6.72144">
        <ele>1764</ele>
        <time>2026-06-27T07:42:53Z</time>
      </trkpt>
      <trkpt lat="46.11646" lon="6.72144">
        <ele>1764</ele>
        <time>2026-06-27T07:42:54Z</time>
      </trkpt>
      <trkpt lat="46.11647" lon="6.72144">
        <ele>1763.9</ele>
        <time>2026-06-27T07:42:55Z</time>
      </trkpt>
      <trkpt lat="46.11649" lon="6.72143">
        <ele>1763.9</ele>
        <time>2026-06-27T07:42:56Z</time>
      </trkpt>
      <trkpt lat="46.1165" lon="6.72143">
        <ele>1763.8</ele>
        <time>2026-06-27T07:42:57Z</time>
      </trkpt>
      <trkpt lat="46.11651" lon="6.72143">
        <ele>1763.7</ele>
        <time>2026-06-27T07:42:58Z</time>
      </trkpt>
      <trkpt lat="46.11652" lon="6.72143">
        <ele>1763.7</ele>
        <time>2026-06-27T07:42:59Z</time>
      </trkpt>
      <trkpt lat="46.11653" lon="6.72143">
        <ele>1763.6</ele>
        <time>2026-06-27T07:43:00Z</time>
      </trkpt>
      <trkpt lat="46.11654" lon="6.72142">
        <ele>1763.6</ele>
        <time>2026-06-27T07:43:01Z</time>
      </trkpt>
      <trkpt lat="46.11655" lon="6.72142">
        <ele>1763.6</ele>
        <time>2026-06-27T07:43:02Z</time>
      </trkpt>
      <trkpt lat="46.11655" lon="6.72141">
        <ele>1763.5</ele>
        <time>2026-06-27T07:43:03Z</time>
      </trkpt>
      <trkpt lat="46.11657" lon="6.7214">
        <ele>1763.4</ele>
        <time>2026-06-27T07:43:04Z</time>
      </trkpt>
      <trkpt lat="46.11658" lon="6.72139">
        <ele>1763.3</ele>
        <time>2026-06-27T07:43:05Z</time>
      </trkpt>
      <trkpt lat="46.11659" lon="6.72139">
        <ele>1763.2</ele>
        <time>2026-06-27T07:43:06Z</time>
      </trkpt>
      <trkpt lat="46.11659" lon="6.72138">
        <ele>1763.2</ele>
        <time>2026-06-27T07:43:07Z</time>
      </trkpt>
      <trkpt lat="46.11661" lon="6.72137">
        <ele>1763.2</ele>
        <time>2026-06-27T07:43:08Z</time>
      </trkpt>
      <trkpt lat="46.11662" lon="6.72137">
        <ele>1763.2</ele>
        <time>2026-06-27T07:43:09Z</time>
      </trkpt>
      <trkpt lat="46.11662" lon="6.72136">
        <ele>1763.2</ele>
        <time>2026-06-27T07:43:10Z</time>
      </trkpt>
      <trkpt lat="46.11663" lon="6.72136">
        <ele>1763.2</ele>
        <time>2026-06-27T07:43:11Z</time>
      </trkpt>
      <trkpt lat="46.11664" lon="6.72135">
        <ele>1763.2</ele>
        <time>2026-06-27T07:43:12Z</time>
      </trkpt>
      <trkpt lat="46.11664" lon="6.72135">
        <ele>1763.2</ele>
        <time>2026-06-27T07:43:13Z</time>
      </trkpt>
      <trkpt lat="46.11665" lon="6.72135">
        <ele>1763.2</ele>
        <time>2026-06-27T07:43:14Z</time>
      </trkpt>
      <trkpt lat="46.11666" lon="6.72134">
        <ele>1763.2</ele>
        <time>2026-06-27T07:43:15Z</time>
      </trkpt>
      <trkpt lat="46.11667" lon="6.72133">
        <ele>1763.4</ele>
        <time>2026-06-27T07:43:16Z</time>
      </trkpt>
      <trkpt lat="46.11668" lon="6.72132">
        <ele>1763.5</ele>
        <time>2026-06-27T07:43:17Z</time>
      </trkpt>
      <trkpt lat="46.11669" lon="6.72132">
        <ele>1763.5</ele>
        <time>2026-06-27T07:43:18Z</time>
      </trkpt>
      <trkpt lat="46.1167" lon="6.72131">
        <ele>1763.5</ele>
        <time>2026-06-27T07:43:19Z</time>
      </trkpt>
      <trkpt lat="46.11671" lon="6.7213">
        <ele>1763.6</ele>
        <time>2026-06-27T07:43:20Z</time>
      </trkpt>
      <trkpt lat="46.11672" lon="6.72129">
        <ele>1763.6</ele>
        <time>2026-06-27T07:43:21Z</time>
      </trkpt>
      <trkpt lat="46.11673" lon="6.72129">
        <ele>1763.6</ele>
        <time>2026-06-27T07:43:22Z</time>
      </trkpt>
      <trkpt lat="46.11674" lon="6.72128">
        <ele>1763.6</ele>
        <time>2026-06-27T07:43:23Z</time>
      </trkpt>
      <trkpt lat="46.11675" lon="6.72127">
        <ele>1763.7</ele>
        <time>2026-06-27T07:43:24Z</time>
      </trkpt>
      <trkpt lat="46.11676" lon="6.72126">
        <ele>1763.8</ele>
        <time>2026-06-27T07:43:25Z</time>
      </trkpt>
      <trkpt lat="46.11677" lon="6.72125">
        <ele>1763.9</ele>
        <time>2026-06-27T07:43:26Z</time>
      </trkpt>
      <trkpt lat="46.11678" lon="6.72124">
        <ele>1764</ele>
        <time>2026-06-27T07:43:27Z</time>
      </trkpt>
      <trkpt lat="46.11678" lon="6.72123">
        <ele>1764.1</ele>
        <time>2026-06-27T07:43:28Z</time>
      </trkpt>
      <trkpt lat="46.11679" lon="6.72123">
        <ele>1764.1</ele>
        <time>2026-06-27T07:43:29Z</time>
      </trkpt>
      <trkpt lat="46.1168" lon="6.72122">
        <ele>1764.2</ele>
        <time>2026-06-27T07:43:30Z</time>
      </trkpt>
      <trkpt lat="46.11681" lon="6.72121">
        <ele>1764.2</ele>
        <time>2026-06-27T07:43:31Z</time>
      </trkpt>
      <trkpt lat="46.11682" lon="6.7212">
        <ele>1764.3</ele>
        <time>2026-06-27T07:43:32Z</time>
      </trkpt>
      <trkpt lat="46.11683" lon="6.7212">
        <ele>1764.4</ele>
        <time>2026-06-27T07:43:33Z</time>
      </trkpt>
      <trkpt lat="46.11683" lon="6.72119">
        <ele>1764.5</ele>
        <time>2026-06-27T07:43:34Z</time>
      </trkpt>
      <trkpt lat="46.11685" lon="6.72119">
        <ele>1764.6</ele>
        <time>2026-06-27T07:43:35Z</time>
      </trkpt>
      <trkpt lat="46.11686" lon="6.72118">
        <ele>1764.6</ele>
        <time>2026-06-27T07:43:36Z</time>
      </trkpt>
      <trkpt lat="46.11687" lon="6.72118">
        <ele>1764.7</ele>
        <time>2026-06-27T07:43:37Z</time>
      </trkpt>
      <trkpt lat="46.11688" lon="6.72117">
        <ele>1764.7</ele>
        <time>2026-06-27T07:43:38Z</time>
      </trkpt>
      <trkpt lat="46.11689" lon="6.72116">
        <ele>1764.8</ele>
        <time>2026-06-27T07:43:39Z</time>
      </trkpt>
      <trkpt lat="46.1169" lon="6.72116">
        <ele>1764.9</ele>
        <time>2026-06-27T07:43:40Z</time>
      </trkpt>
      <trkpt lat="46.11691" lon="6.72116">
        <ele>1765</ele>
        <time>2026-06-27T07:43:41Z</time>
      </trkpt>
      <trkpt lat="46.11692" lon="6.72116">
        <ele>1765</ele>
        <time>2026-06-27T07:43:42Z</time>
      </trkpt>
      <trkpt lat="46.11693" lon="6.72115">
        <ele>1765</ele>
        <time>2026-06-27T07:43:43Z</time>
      </trkpt>
      <trkpt lat="46.11694" lon="6.72115">
        <ele>1765.1</ele>
        <time>2026-06-27T07:43:44Z</time>
      </trkpt>
      <trkpt lat="46.11695" lon="6.72114">
        <ele>1765.1</ele>
        <time>2026-06-27T07:43:45Z</time>
      </trkpt>
      <trkpt lat="46.11696" lon="6.72114">
        <ele>1765.1</ele>
        <time>2026-06-27T07:43:46Z</time>
      </trkpt>
      <trkpt lat="46.11697" lon="6.72114">
        <ele>1765.2</ele>
        <time>2026-06-27T07:43:47Z</time>
      </trkpt>
      <trkpt lat="46.11698" lon="6.72114">
        <ele>1765.2</ele>
        <time>2026-06-27T07:43:48Z</time>
      </trkpt>
      <trkpt lat="46.11699" lon="6.72114">
        <ele>1765.2</ele>
        <time>2026-06-27T07:43:49Z</time>
      </trkpt>
      <trkpt lat="46.117" lon="6.72113">
        <ele>1765.2</ele>
        <time>2026-06-27T07:43:50Z</time>
      </trkpt>
      <trkpt lat="46.11701" lon="6.72113">
        <ele>1765.2</ele>
        <time>2026-06-27T07:43:51Z</time>
      </trkpt>
      <trkpt lat="46.11702" lon="6.72113">
        <ele>1765.2</ele>
        <time>2026-06-27T07:43:52Z</time>
      </trkpt>
      <trkpt lat="46.11704" lon="6.72113">
        <ele>1765.3</ele>
        <time>2026-06-27T07:43:53Z</time>
      </trkpt>
      <trkpt lat="46.11705" lon="6.72113">
        <ele>1765.3</ele>
        <time>2026-06-27T07:43:54Z</time>
      </trkpt>
      <trkpt lat="46.11706" lon="6.72112">
        <ele>1765.3</ele>
        <time>2026-06-27T07:43:55Z</time>
      </trkpt>
      <trkpt lat="46.11707" lon="6.72112">
        <ele>1765.3</ele>
        <time>2026-06-27T07:43:56Z</time>
      </trkpt>
      <trkpt lat="46.11709" lon="6.72111">
        <ele>1765.4</ele>
        <time>2026-06-27T07:43:57Z</time>
      </trkpt>
      <trkpt lat="46.1171" lon="6.72111">
        <ele>1765.5</ele>
        <time>2026-06-27T07:43:58Z</time>
      </trkpt>
      <trkpt lat="46.11711" lon="6.72111">
        <ele>1765.5</ele>
        <time>2026-06-27T07:43:59Z</time>
      </trkpt>
      <trkpt lat="46.11712" lon="6.72111">
        <ele>1765.5</ele>
        <time>2026-06-27T07:44:00Z</time>
      </trkpt>
      <trkpt lat="46.11713" lon="6.7211">
        <ele>1765.6</ele>
        <time>2026-06-27T07:44:01Z</time>
      </trkpt>
      <trkpt lat="46.11715" lon="6.7211">
        <ele>1765.6</ele>
        <time>2026-06-27T07:44:02Z</time>
      </trkpt>
      <trkpt lat="46.11716" lon="6.72109">
        <ele>1765.6</ele>
        <time>2026-06-27T07:44:03Z</time>
      </trkpt>
      <trkpt lat="46.11717" lon="6.72109">
        <ele>1765.7</ele>
        <time>2026-06-27T07:44:04Z</time>
      </trkpt>
      <trkpt lat="46.11718" lon="6.72109">
        <ele>1765.7</ele>
        <time>2026-06-27T07:44:05Z</time>
      </trkpt>
      <trkpt lat="46.11719" lon="6.72108">
        <ele>1765.7</ele>
        <time>2026-06-27T07:44:06Z</time>
      </trkpt>
      <trkpt lat="46.1172" lon="6.72108">
        <ele>1765.8</ele>
        <time>2026-06-27T07:44:07Z</time>
      </trkpt>
      <trkpt lat="46.11721" lon="6.72108">
        <ele>1765.8</ele>
        <time>2026-06-27T07:44:08Z</time>
      </trkpt>
      <trkpt lat="46.11722" lon="6.72107">
        <ele>1765.9</ele>
        <time>2026-06-27T07:44:09Z</time>
      </trkpt>
      <trkpt lat="46.11723" lon="6.72106">
        <ele>1765.9</ele>
        <time>2026-06-27T07:44:10Z</time>
      </trkpt>
      <trkpt lat="46.11724" lon="6.72106">
        <ele>1765.9</ele>
        <time>2026-06-27T07:44:11Z</time>
      </trkpt>
      <trkpt lat="46.11725" lon="6.72105">
        <ele>1765.9</ele>
        <time>2026-06-27T07:44:12Z</time>
      </trkpt>
      <trkpt lat="46.11726" lon="6.72105">
        <ele>1765.9</ele>
        <time>2026-06-27T07:44:13Z</time>
      </trkpt>
      <trkpt lat="46.11727" lon="6.72103">
        <ele>1765.8</ele>
        <time>2026-06-27T07:44:14Z</time>
      </trkpt>
      <trkpt lat="46.11728" lon="6.72102">
        <ele>1765.7</ele>
        <time>2026-06-27T07:44:15Z</time>
      </trkpt>
      <trkpt lat="46.11729" lon="6.72101">
        <ele>1765.6</ele>
        <time>2026-06-27T07:44:16Z</time>
      </trkpt>
      <trkpt lat="46.11729" lon="6.721">
        <ele>1765.6</ele>
        <time>2026-06-27T07:44:17Z</time>
      </trkpt>
      <trkpt lat="46.1173" lon="6.72099">
        <ele>1765.5</ele>
        <time>2026-06-27T07:44:18Z</time>
      </trkpt>
      <trkpt lat="46.11731" lon="6.72098">
        <ele>1765.3</ele>
        <time>2026-06-27T07:44:19Z</time>
      </trkpt>
      <trkpt lat="46.11732" lon="6.72096">
        <ele>1765.2</ele>
        <time>2026-06-27T07:44:20Z</time>
      </trkpt>
      <trkpt lat="46.11732" lon="6.72095">
        <ele>1765.1</ele>
        <time>2026-06-27T07:44:21Z</time>
      </trkpt>
      <trkpt lat="46.11733" lon="6.72094">
        <ele>1764.9</ele>
        <time>2026-06-27T07:44:22Z</time>
      </trkpt>
      <trkpt lat="46.11734" lon="6.72094">
        <ele>1764.8</ele>
        <time>2026-06-27T07:44:23Z</time>
      </trkpt>
      <trkpt lat="46.11735" lon="6.72093">
        <ele>1764.7</ele>
        <time>2026-06-27T07:44:24Z</time>
      </trkpt>
      <trkpt lat="46.11736" lon="6.72092">
        <ele>1764.6</ele>
        <time>2026-06-27T07:44:25Z</time>
      </trkpt>
      <trkpt lat="46.11737" lon="6.72092">
        <ele>1764.6</ele>
        <time>2026-06-27T07:44:26Z</time>
      </trkpt>
      <trkpt lat="46.11738" lon="6.72091">
        <ele>1764.5</ele>
        <time>2026-06-27T07:44:27Z</time>
      </trkpt>
      <trkpt lat="46.11739" lon="6.7209">
        <ele>1764.4</ele>
        <time>2026-06-27T07:44:28Z</time>
      </trkpt>
      <trkpt lat="46.1174" lon="6.7209">
        <ele>1764.3</ele>
        <time>2026-06-27T07:44:29Z</time>
      </trkpt>
      <trkpt lat="46.11741" lon="6.72089">
        <ele>1764.2</ele>
        <time>2026-06-27T07:44:30Z</time>
      </trkpt>
      <trkpt lat="46.11742" lon="6.72088">
        <ele>1764.1</ele>
        <time>2026-06-27T07:44:31Z</time>
      </trkpt>
      <trkpt lat="46.11743" lon="6.72088">
        <ele>1764.1</ele>
        <time>2026-06-27T07:44:32Z</time>
      </trkpt>
      <trkpt lat="46.11744" lon="6.72087">
        <ele>1764</ele>
        <time>2026-06-27T07:44:33Z</time>
      </trkpt>
      <trkpt lat="46.11745" lon="6.72087">
        <ele>1764</ele>
        <time>2026-06-27T07:44:34Z</time>
      </trkpt>
      <trkpt lat="46.11746" lon="6.72087">
        <ele>1763.9</ele>
        <time>2026-06-27T07:44:35Z</time>
      </trkpt>
      <trkpt lat="46.11748" lon="6.72086">
        <ele>1763.8</ele>
        <time>2026-06-27T07:44:36Z</time>
      </trkpt>
      <trkpt lat="46.11748" lon="6.72086">
        <ele>1763.7</ele>
        <time>2026-06-27T07:44:37Z</time>
      </trkpt>
      <trkpt lat="46.11749" lon="6.72086">
        <ele>1763.6</ele>
        <time>2026-06-27T07:44:38Z</time>
      </trkpt>
      <trkpt lat="46.1175" lon="6.72086">
        <ele>1763.5</ele>
        <time>2026-06-27T07:44:39Z</time>
      </trkpt>
      <trkpt lat="46.11751" lon="6.72085">
        <ele>1763.5</ele>
        <time>2026-06-27T07:44:40Z</time>
      </trkpt>
      <trkpt lat="46.11752" lon="6.72085">
        <ele>1763.3</ele>
        <time>2026-06-27T07:44:41Z</time>
      </trkpt>
      <trkpt lat="46.11753" lon="6.72085">
        <ele>1763.2</ele>
        <time>2026-06-27T07:44:42Z</time>
      </trkpt>
      <trkpt lat="46.11755" lon="6.72084">
        <ele>1763.1</ele>
        <time>2026-06-27T07:44:43Z</time>
      </trkpt>
      <trkpt lat="46.11756" lon="6.72084">
        <ele>1763</ele>
        <time>2026-06-27T07:44:44Z</time>
      </trkpt>
      <trkpt lat="46.11757" lon="6.72084">
        <ele>1763</ele>
        <time>2026-06-27T07:44:45Z</time>
      </trkpt>
      <trkpt lat="46.11758" lon="6.72084">
        <ele>1762.9</ele>
        <time>2026-06-27T07:44:46Z</time>
      </trkpt>
      <trkpt lat="46.11759" lon="6.72084">
        <ele>1762.9</ele>
        <time>2026-06-27T07:44:47Z</time>
      </trkpt>
      <trkpt lat="46.11759" lon="6.72084">
        <ele>1762.8</ele>
        <time>2026-06-27T07:44:48Z</time>
      </trkpt>
      <trkpt lat="46.11761" lon="6.72084">
        <ele>1762.8</ele>
        <time>2026-06-27T07:44:49Z</time>
      </trkpt>
      <trkpt lat="46.11762" lon="6.72084">
        <ele>1762.7</ele>
        <time>2026-06-27T07:44:50Z</time>
      </trkpt>
      <trkpt lat="46.11763" lon="6.72084">
        <ele>1762.6</ele>
        <time>2026-06-27T07:44:51Z</time>
      </trkpt>
      <trkpt lat="46.11764" lon="6.72084">
        <ele>1762.5</ele>
        <time>2026-06-27T07:44:52Z</time>
      </trkpt>
      <trkpt lat="46.11765" lon="6.72084">
        <ele>1762.4</ele>
        <time>2026-06-27T07:44:53Z</time>
      </trkpt>
      <trkpt lat="46.11765" lon="6.72084">
        <ele>1762.4</ele>
        <time>2026-06-27T07:44:54Z</time>
      </trkpt>
      <trkpt lat="46.11766" lon="6.72084">
        <ele>1762.3</ele>
        <time>2026-06-27T07:44:55Z</time>
      </trkpt>
      <trkpt lat="46.11767" lon="6.72084">
        <ele>1762.3</ele>
        <time>2026-06-27T07:44:56Z</time>
      </trkpt>
      <trkpt lat="46.11769" lon="6.72084">
        <ele>1762.2</ele>
        <time>2026-06-27T07:44:57Z</time>
      </trkpt>
      <trkpt lat="46.1177" lon="6.72084">
        <ele>1762.1</ele>
        <time>2026-06-27T07:44:58Z</time>
      </trkpt>
      <trkpt lat="46.11771" lon="6.72085">
        <ele>1762</ele>
        <time>2026-06-27T07:44:59Z</time>
      </trkpt>
      <trkpt lat="46.11772" lon="6.72085">
        <ele>1762</ele>
        <time>2026-06-27T07:45:00Z</time>
      </trkpt>
      <trkpt lat="46.11773" lon="6.72085">
        <ele>1761.9</ele>
        <time>2026-06-27T07:45:01Z</time>
      </trkpt>
      <trkpt lat="46.11774" lon="6.72085">
        <ele>1761.8</ele>
        <time>2026-06-27T07:45:02Z</time>
      </trkpt>
      <trkpt lat="46.11775" lon="6.72085">
        <ele>1761.6</ele>
        <time>2026-06-27T07:45:03Z</time>
      </trkpt>
      <trkpt lat="46.11777" lon="6.72085">
        <ele>1761.4</ele>
        <time>2026-06-27T07:45:04Z</time>
      </trkpt>
      <trkpt lat="46.11778" lon="6.72085">
        <ele>1761.3</ele>
        <time>2026-06-27T07:45:05Z</time>
      </trkpt>
      <trkpt lat="46.11778" lon="6.72085">
        <ele>1761.2</ele>
        <time>2026-06-27T07:45:06Z</time>
      </trkpt>
      <trkpt lat="46.1178" lon="6.72085">
        <ele>1761.1</ele>
        <time>2026-06-27T07:45:07Z</time>
      </trkpt>
      <trkpt lat="46.11781" lon="6.72085">
        <ele>1760.9</ele>
        <time>2026-06-27T07:45:08Z</time>
      </trkpt>
      <trkpt lat="46.11782" lon="6.72086">
        <ele>1760.7</ele>
        <time>2026-06-27T07:45:09Z</time>
      </trkpt>
      <trkpt lat="46.11783" lon="6.72086">
        <ele>1760.5</ele>
        <time>2026-06-27T07:45:10Z</time>
      </trkpt>
      <trkpt lat="46.11784" lon="6.72086">
        <ele>1760.3</ele>
        <time>2026-06-27T07:45:11Z</time>
      </trkpt>
      <trkpt lat="46.11785" lon="6.72085">
        <ele>1760.2</ele>
        <time>2026-06-27T07:45:12Z</time>
      </trkpt>
      <trkpt lat="46.11786" lon="6.72085">
        <ele>1760.1</ele>
        <time>2026-06-27T07:45:13Z</time>
      </trkpt>
      <trkpt lat="46.11787" lon="6.72085">
        <ele>1759.9</ele>
        <time>2026-06-27T07:45:14Z</time>
      </trkpt>
      <trkpt lat="46.11789" lon="6.72086">
        <ele>1759.8</ele>
        <time>2026-06-27T07:45:15Z</time>
      </trkpt>
      <trkpt lat="46.11789" lon="6.72086">
        <ele>1759.5</ele>
        <time>2026-06-27T07:45:16Z</time>
      </trkpt>
      <trkpt lat="46.1179" lon="6.72086">
        <ele>1759.3</ele>
        <time>2026-06-27T07:45:17Z</time>
      </trkpt>
      <trkpt lat="46.11791" lon="6.72086">
        <ele>1759.2</ele>
        <time>2026-06-27T07:45:18Z</time>
      </trkpt>
      <trkpt lat="46.11792" lon="6.72087">
        <ele>1759.1</ele>
        <time>2026-06-27T07:45:19Z</time>
      </trkpt>
      <trkpt lat="46.11793" lon="6.72087">
        <ele>1758.9</ele>
        <time>2026-06-27T07:45:20Z</time>
      </trkpt>
      <trkpt lat="46.11794" lon="6.72087">
        <ele>1758.7</ele>
        <time>2026-06-27T07:45:21Z</time>
      </trkpt>
      <trkpt lat="46.11795" lon="6.72088">
        <ele>1758.6</ele>
        <time>2026-06-27T07:45:22Z</time>
      </trkpt>
      <trkpt lat="46.11796" lon="6.72088">
        <ele>1758.5</ele>
        <time>2026-06-27T07:45:23Z</time>
      </trkpt>
      <trkpt lat="46.11797" lon="6.72088">
        <ele>1758.5</ele>
        <time>2026-06-27T07:45:24Z</time>
      </trkpt>
      <trkpt lat="46.11798" lon="6.72089">
        <ele>1758.2</ele>
        <time>2026-06-27T07:45:25Z</time>
      </trkpt>
      <trkpt lat="46.11799" lon="6.72089">
        <ele>1758</ele>
        <time>2026-06-27T07:45:26Z</time>
      </trkpt>
      <trkpt lat="46.118" lon="6.72089">
        <ele>1757.9</ele>
        <time>2026-06-27T07:45:27Z</time>
      </trkpt>
      <trkpt lat="46.11801" lon="6.7209">
        <ele>1757.8</ele>
        <time>2026-06-27T07:45:28Z</time>
      </trkpt>
      <trkpt lat="46.11802" lon="6.7209">
        <ele>1757.7</ele>
        <time>2026-06-27T07:45:29Z</time>
      </trkpt>
      <trkpt lat="46.11803" lon="6.7209">
        <ele>1757.4</ele>
        <time>2026-06-27T07:45:30Z</time>
      </trkpt>
      <trkpt lat="46.11804" lon="6.72091">
        <ele>1757.3</ele>
        <time>2026-06-27T07:45:31Z</time>
      </trkpt>
      <trkpt lat="46.11805" lon="6.72091">
        <ele>1757.2</ele>
        <time>2026-06-27T07:45:32Z</time>
      </trkpt>
      <trkpt lat="46.11807" lon="6.72091">
        <ele>1757.2</ele>
        <time>2026-06-27T07:45:33Z</time>
      </trkpt>
      <trkpt lat="46.11808" lon="6.72091">
        <ele>1757.2</ele>
        <time>2026-06-27T07:45:34Z</time>
      </trkpt>
      <trkpt lat="46.11809" lon="6.72091">
        <ele>1757.2</ele>
        <time>2026-06-27T07:45:35Z</time>
      </trkpt>
      <trkpt lat="46.1181" lon="6.72091">
        <ele>1757.1</ele>
        <time>2026-06-27T07:45:36Z</time>
      </trkpt>
      <trkpt lat="46.11812" lon="6.72091">
        <ele>1757</ele>
        <time>2026-06-27T07:45:37Z</time>
      </trkpt>
      <trkpt lat="46.11813" lon="6.72092">
        <ele>1756.9</ele>
        <time>2026-06-27T07:45:38Z</time>
      </trkpt>
      <trkpt lat="46.11813" lon="6.72092">
        <ele>1756.9</ele>
        <time>2026-06-27T07:45:39Z</time>
      </trkpt>
      <trkpt lat="46.11814" lon="6.72093">
        <ele>1756.6</ele>
        <time>2026-06-27T07:45:40Z</time>
      </trkpt>
      <trkpt lat="46.11815" lon="6.72094">
        <ele>1756.4</ele>
        <time>2026-06-27T07:45:41Z</time>
      </trkpt>
      <trkpt lat="46.11817" lon="6.72094">
        <ele>1756.3</ele>
        <time>2026-06-27T07:45:42Z</time>
      </trkpt>
      <trkpt lat="46.11817" lon="6.72095">
        <ele>1756.2</ele>
        <time>2026-06-27T07:45:43Z</time>
      </trkpt>
      <trkpt lat="46.11818" lon="6.72095">
        <ele>1756</ele>
        <time>2026-06-27T07:45:44Z</time>
      </trkpt>
      <trkpt lat="46.11818" lon="6.72095">
        <ele>1755.9</ele>
        <time>2026-06-27T07:45:45Z</time>
      </trkpt>
      <trkpt lat="46.11818" lon="6.72096">
        <ele>1755.7</ele>
        <time>2026-06-27T07:45:46Z</time>
      </trkpt>
      <trkpt lat="46.11819" lon="6.72096">
        <ele>1755.6</ele>
        <time>2026-06-27T07:45:47Z</time>
      </trkpt>
      <trkpt lat="46.11819" lon="6.72096">
        <ele>1755.5</ele>
        <time>2026-06-27T07:45:48Z</time>
      </trkpt>
      <trkpt lat="46.11819" lon="6.72096">
        <ele>1755.5</ele>
        <time>2026-06-27T07:45:49Z</time>
      </trkpt>
      <trkpt lat="46.11819" lon="6.72096">
        <ele>1755.5</ele>
        <time>2026-06-27T07:45:50Z</time>
      </trkpt>
      <trkpt lat="46.11819" lon="6.72095">
        <ele>1755.4</ele>
        <time>2026-06-27T07:45:51Z</time>
      </trkpt>
      <trkpt lat="46.1182" lon="6.72095">
        <ele>1755.4</ele>
        <time>2026-06-27T07:45:52Z</time>
      </trkpt>
      <trkpt lat="46.11821" lon="6.72095">
        <ele>1755.3</ele>
        <time>2026-06-27T07:45:53Z</time>
      </trkpt>
      <trkpt lat="46.11822" lon="6.72095">
        <ele>1755.3</ele>
        <time>2026-06-27T07:45:54Z</time>
      </trkpt>
      <trkpt lat="46.11823" lon="6.72095">
        <ele>1755.2</ele>
        <time>2026-06-27T07:45:55Z</time>
      </trkpt>
      <trkpt lat="46.11824" lon="6.72096">
        <ele>1755.1</ele>
        <time>2026-06-27T07:45:56Z</time>
      </trkpt>
      <trkpt lat="46.11825" lon="6.72095">
        <ele>1755.1</ele>
        <time>2026-06-27T07:45:57Z</time>
      </trkpt>
      <trkpt lat="46.11826" lon="6.72095">
        <ele>1755</ele>
        <time>2026-06-27T07:45:58Z</time>
      </trkpt>
      <trkpt lat="46.11827" lon="6.72094">
        <ele>1755</ele>
        <time>2026-06-27T07:45:59Z</time>
      </trkpt>
      <trkpt lat="46.11828" lon="6.72094">
        <ele>1754.8</ele>
        <time>2026-06-27T07:46:00Z</time>
      </trkpt>
      <trkpt lat="46.11829" lon="6.72093">
        <ele>1754.7</ele>
        <time>2026-06-27T07:46:01Z</time>
      </trkpt>
      <trkpt lat="46.1183" lon="6.72093">
        <ele>1754.6</ele>
        <time>2026-06-27T07:46:02Z</time>
      </trkpt>
      <trkpt lat="46.11831" lon="6.72092">
        <ele>1754.5</ele>
        <time>2026-06-27T07:46:03Z</time>
      </trkpt>
      <trkpt lat="46.11832" lon="6.72091">
        <ele>1754.4</ele>
        <time>2026-06-27T07:46:04Z</time>
      </trkpt>
      <trkpt lat="46.11833" lon="6.72091">
        <ele>1754.2</ele>
        <time>2026-06-27T07:46:05Z</time>
      </trkpt>
      <trkpt lat="46.11835" lon="6.7209">
        <ele>1754</ele>
        <time>2026-06-27T07:46:06Z</time>
      </trkpt>
      <trkpt lat="46.11835" lon="6.72089">
        <ele>1753.9</ele>
        <time>2026-06-27T07:46:07Z</time>
      </trkpt>
      <trkpt lat="46.11836" lon="6.72089">
        <ele>1753.8</ele>
        <time>2026-06-27T07:46:08Z</time>
      </trkpt>
      <trkpt lat="46.11838" lon="6.72089">
        <ele>1753.6</ele>
        <time>2026-06-27T07:46:09Z</time>
      </trkpt>
      <trkpt lat="46.11838" lon="6.72088">
        <ele>1753.4</ele>
        <time>2026-06-27T07:46:10Z</time>
      </trkpt>
      <trkpt lat="46.11839" lon="6.72088">
        <ele>1753.2</ele>
        <time>2026-06-27T07:46:11Z</time>
      </trkpt>
      <trkpt lat="46.1184" lon="6.72088">
        <ele>1753.1</ele>
        <time>2026-06-27T07:46:12Z</time>
      </trkpt>
      <trkpt lat="46.11841" lon="6.72087">
        <ele>1753</ele>
        <time>2026-06-27T07:46:13Z</time>
      </trkpt>
      <trkpt lat="46.11841" lon="6.72087">
        <ele>1752.8</ele>
        <time>2026-06-27T07:46:14Z</time>
      </trkpt>
      <trkpt lat="46.11842" lon="6.72086">
        <ele>1752.7</ele>
        <time>2026-06-27T07:46:15Z</time>
      </trkpt>
      <trkpt lat="46.11842" lon="6.72086">
        <ele>1752.7</ele>
        <time>2026-06-27T07:46:16Z</time>
      </trkpt>
      <trkpt lat="46.11843" lon="6.72086">
        <ele>1752.5</ele>
        <time>2026-06-27T07:46:17Z</time>
      </trkpt>
      <trkpt lat="46.11845" lon="6.72085">
        <ele>1752.4</ele>
        <time>2026-06-27T07:46:18Z</time>
      </trkpt>
      <trkpt lat="46.11845" lon="6.72084">
        <ele>1752.3</ele>
        <time>2026-06-27T07:46:19Z</time>
      </trkpt>
      <trkpt lat="46.11846" lon="6.72084">
        <ele>1752.2</ele>
        <time>2026-06-27T07:46:20Z</time>
      </trkpt>
      <trkpt lat="46.11847" lon="6.72084">
        <ele>1752</ele>
        <time>2026-06-27T07:46:21Z</time>
      </trkpt>
      <trkpt lat="46.11847" lon="6.72083">
        <ele>1751.9</ele>
        <time>2026-06-27T07:46:22Z</time>
      </trkpt>
      <trkpt lat="46.11848" lon="6.72082">
        <ele>1751.7</ele>
        <time>2026-06-27T07:46:23Z</time>
      </trkpt>
      <trkpt lat="46.11849" lon="6.72082">
        <ele>1751.6</ele>
        <time>2026-06-27T07:46:24Z</time>
      </trkpt>
      <trkpt lat="46.1185" lon="6.72081">
        <ele>1751.5</ele>
        <time>2026-06-27T07:46:25Z</time>
      </trkpt>
      <trkpt lat="46.1185" lon="6.72081">
        <ele>1751.4</ele>
        <time>2026-06-27T07:46:26Z</time>
      </trkpt>
      <trkpt lat="46.11851" lon="6.7208">
        <ele>1751.3</ele>
        <time>2026-06-27T07:46:27Z</time>
      </trkpt>
      <trkpt lat="46.11852" lon="6.7208">
        <ele>1751.3</ele>
        <time>2026-06-27T07:46:28Z</time>
      </trkpt>
      <trkpt lat="46.11853" lon="6.72079">
        <ele>1751.1</ele>
        <time>2026-06-27T07:46:29Z</time>
      </trkpt>
      <trkpt lat="46.11855" lon="6.72079">
        <ele>1750.9</ele>
        <time>2026-06-27T07:46:30Z</time>
      </trkpt>
      <trkpt lat="46.11856" lon="6.72078">
        <ele>1750.8</ele>
        <time>2026-06-27T07:46:31Z</time>
      </trkpt>
      <trkpt lat="46.11857" lon="6.72078">
        <ele>1750.7</ele>
        <time>2026-06-27T07:46:32Z</time>
      </trkpt>
      <trkpt lat="46.11858" lon="6.72077">
        <ele>1750.5</ele>
        <time>2026-06-27T07:46:33Z</time>
      </trkpt>
      <trkpt lat="46.11859" lon="6.72077">
        <ele>1750.4</ele>
        <time>2026-06-27T07:46:34Z</time>
      </trkpt>
      <trkpt lat="46.11859" lon="6.72076">
        <ele>1750.4</ele>
        <time>2026-06-27T07:46:35Z</time>
      </trkpt>
      <trkpt lat="46.11859" lon="6.72076">
        <ele>1750.3</ele>
        <time>2026-06-27T07:46:36Z</time>
      </trkpt>
      <trkpt lat="46.1186" lon="6.72076">
        <ele>1750.1</ele>
        <time>2026-06-27T07:46:37Z</time>
      </trkpt>
      <trkpt lat="46.11861" lon="6.72075">
        <ele>1750</ele>
        <time>2026-06-27T07:46:38Z</time>
      </trkpt>
      <trkpt lat="46.11861" lon="6.72075">
        <ele>1749.8</ele>
        <time>2026-06-27T07:46:39Z</time>
      </trkpt>
      <trkpt lat="46.11861" lon="6.72074">
        <ele>1749.6</ele>
        <time>2026-06-27T07:46:40Z</time>
      </trkpt>
      <trkpt lat="46.11862" lon="6.72074">
        <ele>1749.5</ele>
        <time>2026-06-27T07:46:41Z</time>
      </trkpt>
      <trkpt lat="46.11862" lon="6.72074">
        <ele>1749.3</ele>
        <time>2026-06-27T07:46:42Z</time>
      </trkpt>
      <trkpt lat="46.11862" lon="6.72074">
        <ele>1749.2</ele>
        <time>2026-06-27T07:46:43Z</time>
      </trkpt>
      <trkpt lat="46.11862" lon="6.72074">
        <ele>1749.2</ele>
        <time>2026-06-27T07:46:44Z</time>
      </trkpt>
      <trkpt lat="46.11862" lon="6.72074">
        <ele>1749.1</ele>
        <time>2026-06-27T07:46:45Z</time>
      </trkpt>
      <trkpt lat="46.11862" lon="6.72074">
        <ele>1749.1</ele>
        <time>2026-06-27T07:46:46Z</time>
      </trkpt>
      <trkpt lat="46.11863" lon="6.72074">
        <ele>1749</ele>
        <time>2026-06-27T07:46:47Z</time>
      </trkpt>
      <trkpt lat="46.11863" lon="6.72074">
        <ele>1749</ele>
        <time>2026-06-27T07:46:48Z</time>
      </trkpt>
      <trkpt lat="46.11864" lon="6.72074">
        <ele>1749</ele>
        <time>2026-06-27T07:46:49Z</time>
      </trkpt>
      <trkpt lat="46.11864" lon="6.72074">
        <ele>1749</ele>
        <time>2026-06-27T07:46:50Z</time>
      </trkpt>
      <trkpt lat="46.11864" lon="6.72074">
        <ele>1748.9</ele>
        <time>2026-06-27T07:46:51Z</time>
      </trkpt>
      <trkpt lat="46.11863" lon="6.72075">
        <ele>1748.9</ele>
        <time>2026-06-27T07:46:52Z</time>
      </trkpt>
      <trkpt lat="46.11863" lon="6.72075">
        <ele>1749</ele>
        <time>2026-06-27T07:46:53Z</time>
      </trkpt>
      <trkpt lat="46.11863" lon="6.72075">
        <ele>1749</ele>
        <time>2026-06-27T07:46:54Z</time>
      </trkpt>
      <trkpt lat="46.11863" lon="6.72075">
        <ele>1749.1</ele>
        <time>2026-06-27T07:46:55Z</time>
      </trkpt>
      <trkpt lat="46.11863" lon="6.72075">
        <ele>1749.1</ele>
        <time>2026-06-27T07:46:56Z</time>
      </trkpt>
      <trkpt lat="46.11863" lon="6.72075">
        <ele>1749</ele>
        <time>2026-06-27T07:46:57Z</time>
      </trkpt>
      <trkpt lat="46.11863" lon="6.72075">
        <ele>1749</ele>
        <time>2026-06-27T07:46:58Z</time>
      </trkpt>
      <trkpt lat="46.11863" lon="6.72075">
        <ele>1748.9</ele>
        <time>2026-06-27T07:46:59Z</time>
      </trkpt>
      <trkpt lat="46.11863" lon="6.72075">
        <ele>1748.9</ele>
        <time>2026-06-27T07:47:00Z</time>
      </trkpt>
      <trkpt lat="46.11863" lon="6.72075">
        <ele>1749</ele>
        <time>2026-06-27T07:47:01Z</time>
      </trkpt>
      <trkpt lat="46.11863" lon="6.72075">
        <ele>1749</ele>
        <time>2026-06-27T07:47:02Z</time>
      </trkpt>
      <trkpt lat="46.11863" lon="6.72075">
        <ele>1749</ele>
        <time>2026-06-27T07:47:03Z</time>
      </trkpt>
      <trkpt lat="46.11863" lon="6.72075">
        <ele>1749</ele>
        <time>2026-06-27T07:47:04Z</time>
      </trkpt>
      <trkpt lat="46.11863" lon="6.72075">
        <ele>1748.9</ele>
        <time>2026-06-27T07:47:05Z</time>
      </trkpt>
      <trkpt lat="46.11863" lon="6.72075">
        <ele>1748.9</ele>
        <time>2026-06-27T07:47:06Z</time>
      </trkpt>
      <trkpt lat="46.11863" lon="6.72075">
        <ele>1748.9</ele>
        <time>2026-06-27T07:47:07Z</time>
      </trkpt>
      <trkpt lat="46.11863" lon="6.72075">
        <ele>1748.9</ele>
        <time>2026-06-27T07:47:08Z</time>
      </trkpt>
      <trkpt lat="46.11862" lon="6.72075">
        <ele>1749</ele>
        <time>2026-06-27T07:47:09Z</time>
      </trkpt>
      <trkpt lat="46.11862" lon="6.72075">
        <ele>1749.1</ele>
        <time>2026-06-27T07:47:10Z</time>
      </trkpt>
      <trkpt lat="46.11862" lon="6.72075">
        <ele>1749.1</ele>
        <time>2026-06-27T07:47:11Z</time>
      </trkpt>
      <trkpt lat="46.11862" lon="6.72075">
        <ele>1749.2</ele>
        <time>2026-06-27T07:47:12Z</time>
      </trkpt>
      <trkpt lat="46.11862" lon="6.72075">
        <ele>1749.2</ele>
        <time>2026-06-27T07:47:13Z</time>
      </trkpt>
      <trkpt lat="46.11862" lon="6.72075">
        <ele>1749.3</ele>
        <time>2026-06-27T07:47:14Z</time>
      </trkpt>
      <trkpt lat="46.11862" lon="6.72075">
        <ele>1749.3</ele>
        <time>2026-06-27T07:47:15Z</time>
      </trkpt>
      <trkpt lat="46.11863" lon="6.72074">
        <ele>1749.2</ele>
        <time>2026-06-27T07:47:16Z</time>
      </trkpt>
      <trkpt lat="46.11864" lon="6.72074">
        <ele>1748.9</ele>
        <time>2026-06-27T07:47:17Z</time>
      </trkpt>
      <trkpt lat="46.11865" lon="6.72073">
        <ele>1748.8</ele>
        <time>2026-06-27T07:47:18Z</time>
      </trkpt>
      <trkpt lat="46.11865" lon="6.72072">
        <ele>1748.7</ele>
        <time>2026-06-27T07:47:19Z</time>
      </trkpt>
      <trkpt lat="46.11866" lon="6.72072">
        <ele>1748.6</ele>
        <time>2026-06-27T07:47:20Z</time>
      </trkpt>
      <trkpt lat="46.11867" lon="6.72071">
        <ele>1748.6</ele>
        <time>2026-06-27T07:47:21Z</time>
      </trkpt>
      <trkpt lat="46.11868" lon="6.7207">
        <ele>1748.4</ele>
        <time>2026-06-27T07:47:22Z</time>
      </trkpt>
      <trkpt lat="46.11869" lon="6.72069">
        <ele>1748.3</ele>
        <time>2026-06-27T07:47:23Z</time>
      </trkpt>
      <trkpt lat="46.1187" lon="6.72068">
        <ele>1748.3</ele>
        <time>2026-06-27T07:47:24Z</time>
      </trkpt>
      <trkpt lat="46.1187" lon="6.72068">
        <ele>1748</ele>
        <time>2026-06-27T07:47:25Z</time>
      </trkpt>
      <trkpt lat="46.11871" lon="6.72067">
        <ele>1747.7</ele>
        <time>2026-06-27T07:47:26Z</time>
      </trkpt>
      <trkpt lat="46.11872" lon="6.72067">
        <ele>1747.6</ele>
        <time>2026-06-27T07:47:27Z</time>
      </trkpt>
      <trkpt lat="46.11873" lon="6.72065">
        <ele>1747.3</ele>
        <time>2026-06-27T07:47:28Z</time>
      </trkpt>
      <trkpt lat="46.11874" lon="6.72065">
        <ele>1747.2</ele>
        <time>2026-06-27T07:47:29Z</time>
      </trkpt>
      <trkpt lat="46.11875" lon="6.72064">
        <ele>1747</ele>
        <time>2026-06-27T07:47:30Z</time>
      </trkpt>
      <trkpt lat="46.11876" lon="6.72064">
        <ele>1746.9</ele>
        <time>2026-06-27T07:47:31Z</time>
      </trkpt>
      <trkpt lat="46.11877" lon="6.72064">
        <ele>1746.7</ele>
        <time>2026-06-27T07:47:32Z</time>
      </trkpt>
      <trkpt lat="46.11878" lon="6.72064">
        <ele>1746.6</ele>
        <time>2026-06-27T07:47:33Z</time>
      </trkpt>
      <trkpt lat="46.11879" lon="6.72064">
        <ele>1746.3</ele>
        <time>2026-06-27T07:47:34Z</time>
      </trkpt>
      <trkpt lat="46.1188" lon="6.72064">
        <ele>1746.2</ele>
        <time>2026-06-27T07:47:35Z</time>
      </trkpt>
      <trkpt lat="46.11882" lon="6.72064">
        <ele>1746</ele>
        <time>2026-06-27T07:47:36Z</time>
      </trkpt>
      <trkpt lat="46.11883" lon="6.72063">
        <ele>1745.8</ele>
        <time>2026-06-27T07:47:37Z</time>
      </trkpt>
      <trkpt lat="46.11884" lon="6.72062">
        <ele>1745.7</ele>
        <time>2026-06-27T07:47:38Z</time>
      </trkpt>
      <trkpt lat="46.11885" lon="6.72062">
        <ele>1745.6</ele>
        <time>2026-06-27T07:47:39Z</time>
      </trkpt>
      <trkpt lat="46.11886" lon="6.72061">
        <ele>1745.5</ele>
        <time>2026-06-27T07:47:40Z</time>
      </trkpt>
      <trkpt lat="46.11887" lon="6.7206">
        <ele>1745.4</ele>
        <time>2026-06-27T07:47:41Z</time>
      </trkpt>
      <trkpt lat="46.11888" lon="6.7206">
        <ele>1745.3</ele>
        <time>2026-06-27T07:47:42Z</time>
      </trkpt>
      <trkpt lat="46.11889" lon="6.72059">
        <ele>1745.3</ele>
        <time>2026-06-27T07:47:43Z</time>
      </trkpt>
      <trkpt lat="46.1189" lon="6.72059">
        <ele>1745.1</ele>
        <time>2026-06-27T07:47:44Z</time>
      </trkpt>
      <trkpt lat="46.11891" lon="6.72059">
        <ele>1745</ele>
        <time>2026-06-27T07:47:45Z</time>
      </trkpt>
      <trkpt lat="46.11892" lon="6.72059">
        <ele>1744.9</ele>
        <time>2026-06-27T07:47:46Z</time>
      </trkpt>
      <trkpt lat="46.11893" lon="6.72059">
        <ele>1744.9</ele>
        <time>2026-06-27T07:47:47Z</time>
      </trkpt>
      <trkpt lat="46.11894" lon="6.72059">
        <ele>1744.9</ele>
        <time>2026-06-27T07:47:48Z</time>
      </trkpt>
      <trkpt lat="46.11895" lon="6.72058">
        <ele>1745</ele>
        <time>2026-06-27T07:47:49Z</time>
      </trkpt>
      <trkpt lat="46.11896" lon="6.72058">
        <ele>1745.1</ele>
        <time>2026-06-27T07:47:50Z</time>
      </trkpt>
      <trkpt lat="46.11897" lon="6.72058">
        <ele>1745.1</ele>
        <time>2026-06-27T07:47:51Z</time>
      </trkpt>
      <trkpt lat="46.11897" lon="6.72057">
        <ele>1745.2</ele>
        <time>2026-06-27T07:47:52Z</time>
      </trkpt>
      <trkpt lat="46.11898" lon="6.72057">
        <ele>1745.4</ele>
        <time>2026-06-27T07:47:53Z</time>
      </trkpt>
      <trkpt lat="46.11899" lon="6.72057">
        <ele>1745.5</ele>
        <time>2026-06-27T07:47:54Z</time>
      </trkpt>
      <trkpt lat="46.119" lon="6.72057">
        <ele>1745.7</ele>
        <time>2026-06-27T07:47:55Z</time>
      </trkpt>
      <trkpt lat="46.11901" lon="6.72057">
        <ele>1745.8</ele>
        <time>2026-06-27T07:47:56Z</time>
      </trkpt>
      <trkpt lat="46.11902" lon="6.72057">
        <ele>1746</ele>
        <time>2026-06-27T07:47:57Z</time>
      </trkpt>
      <trkpt lat="46.11903" lon="6.72056">
        <ele>1746.1</ele>
        <time>2026-06-27T07:47:58Z</time>
      </trkpt>
      <trkpt lat="46.11904" lon="6.72056">
        <ele>1746.3</ele>
        <time>2026-06-27T07:47:59Z</time>
      </trkpt>
      <trkpt lat="46.11905" lon="6.72056">
        <ele>1746.4</ele>
        <time>2026-06-27T07:48:00Z</time>
      </trkpt>
      <trkpt lat="46.11906" lon="6.72056">
        <ele>1746.5</ele>
        <time>2026-06-27T07:48:01Z</time>
      </trkpt>
      <trkpt lat="46.11907" lon="6.72056">
        <ele>1746.7</ele>
        <time>2026-06-27T07:48:02Z</time>
      </trkpt>
      <trkpt lat="46.11908" lon="6.72056">
        <ele>1747</ele>
        <time>2026-06-27T07:48:03Z</time>
      </trkpt>
      <trkpt lat="46.11909" lon="6.72056">
        <ele>1747.2</ele>
        <time>2026-06-27T07:48:04Z</time>
      </trkpt>
      <trkpt lat="46.11909" lon="6.72056">
        <ele>1747.4</ele>
        <time>2026-06-27T07:48:05Z</time>
      </trkpt>
      <trkpt lat="46.11911" lon="6.72056">
        <ele>1747.6</ele>
        <time>2026-06-27T07:48:06Z</time>
      </trkpt>
      <trkpt lat="46.11912" lon="6.72056">
        <ele>1747.8</ele>
        <time>2026-06-27T07:48:07Z</time>
      </trkpt>
      <trkpt lat="46.11913" lon="6.72056">
        <ele>1747.8</ele>
        <time>2026-06-27T07:48:08Z</time>
      </trkpt>
      <trkpt lat="46.11913" lon="6.72056">
        <ele>1747.8</ele>
        <time>2026-06-27T07:48:09Z</time>
      </trkpt>
      <trkpt lat="46.11914" lon="6.72056">
        <ele>1747.8</ele>
        <time>2026-06-27T07:48:10Z</time>
      </trkpt>
      <trkpt lat="46.11915" lon="6.72056">
        <ele>1747.9</ele>
        <time>2026-06-27T07:48:11Z</time>
      </trkpt>
      <trkpt lat="46.11916" lon="6.72056">
        <ele>1748</ele>
        <time>2026-06-27T07:48:12Z</time>
      </trkpt>
      <trkpt lat="46.11917" lon="6.72056">
        <ele>1748.1</ele>
        <time>2026-06-27T07:48:13Z</time>
      </trkpt>
      <trkpt lat="46.11917" lon="6.72056">
        <ele>1748.2</ele>
        <time>2026-06-27T07:48:14Z</time>
      </trkpt>
      <trkpt lat="46.11918" lon="6.72056">
        <ele>1748.3</ele>
        <time>2026-06-27T07:48:15Z</time>
      </trkpt>
      <trkpt lat="46.11919" lon="6.72056">
        <ele>1748.3</ele>
        <time>2026-06-27T07:48:16Z</time>
      </trkpt>
      <trkpt lat="46.11919" lon="6.72056">
        <ele>1748.4</ele>
        <time>2026-06-27T07:48:17Z</time>
      </trkpt>
      <trkpt lat="46.1192" lon="6.72055">
        <ele>1748.4</ele>
        <time>2026-06-27T07:48:18Z</time>
      </trkpt>
      <trkpt lat="46.11921" lon="6.72055">
        <ele>1748.6</ele>
        <time>2026-06-27T07:48:19Z</time>
      </trkpt>
      <trkpt lat="46.11922" lon="6.72055">
        <ele>1748.8</ele>
        <time>2026-06-27T07:48:20Z</time>
      </trkpt>
      <trkpt lat="46.11922" lon="6.72055">
        <ele>1749</ele>
        <time>2026-06-27T07:48:21Z</time>
      </trkpt>
      <trkpt lat="46.11923" lon="6.72054">
        <ele>1749.2</ele>
        <time>2026-06-27T07:48:22Z</time>
      </trkpt>
      <trkpt lat="46.11924" lon="6.72054">
        <ele>1749.3</ele>
        <time>2026-06-27T07:48:23Z</time>
      </trkpt>
      <trkpt lat="46.11925" lon="6.72054">
        <ele>1749.5</ele>
        <time>2026-06-27T07:48:24Z</time>
      </trkpt>
      <trkpt lat="46.11925" lon="6.72054">
        <ele>1749.6</ele>
        <time>2026-06-27T07:48:25Z</time>
      </trkpt>
      <trkpt lat="46.11926" lon="6.72053">
        <ele>1749.8</ele>
        <time>2026-06-27T07:48:26Z</time>
      </trkpt>
      <trkpt lat="46.11927" lon="6.72053">
        <ele>1750</ele>
        <time>2026-06-27T07:48:27Z</time>
      </trkpt>
      <trkpt lat="46.11927" lon="6.72052">
        <ele>1750.2</ele>
        <time>2026-06-27T07:48:28Z</time>
      </trkpt>
      <trkpt lat="46.11928" lon="6.72051">
        <ele>1750.4</ele>
        <time>2026-06-27T07:48:29Z</time>
      </trkpt>
      <trkpt lat="46.11928" lon="6.72051">
        <ele>1750.6</ele>
        <time>2026-06-27T07:48:30Z</time>
      </trkpt>
      <trkpt lat="46.11929" lon="6.7205">
        <ele>1750.8</ele>
        <time>2026-06-27T07:48:31Z</time>
      </trkpt>
      <trkpt lat="46.1193" lon="6.72049">
        <ele>1750.9</ele>
        <time>2026-06-27T07:48:32Z</time>
      </trkpt>
      <trkpt lat="46.11931" lon="6.72049">
        <ele>1751</ele>
        <time>2026-06-27T07:48:33Z</time>
      </trkpt>
      <trkpt lat="46.11932" lon="6.72049">
        <ele>1751.2</ele>
        <time>2026-06-27T07:48:34Z</time>
      </trkpt>
      <trkpt lat="46.11932" lon="6.72048">
        <ele>1751.3</ele>
        <time>2026-06-27T07:48:35Z</time>
      </trkpt>
      <trkpt lat="46.11933" lon="6.72048">
        <ele>1751.4</ele>
        <time>2026-06-27T07:48:36Z</time>
      </trkpt>
      <trkpt lat="46.11934" lon="6.72047">
        <ele>1751.5</ele>
        <time>2026-06-27T07:48:37Z</time>
      </trkpt>
      <trkpt lat="46.11934" lon="6.72047">
        <ele>1751.6</ele>
        <time>2026-06-27T07:48:38Z</time>
      </trkpt>
      <trkpt lat="46.11935" lon="6.72046">
        <ele>1751.8</ele>
        <time>2026-06-27T07:48:39Z</time>
      </trkpt>
      <trkpt lat="46.11936" lon="6.72045">
        <ele>1751.9</ele>
        <time>2026-06-27T07:48:40Z</time>
      </trkpt>
      <trkpt lat="46.11936" lon="6.72044">
        <ele>1752</ele>
        <time>2026-06-27T07:48:41Z</time>
      </trkpt>
      <trkpt lat="46.11937" lon="6.72044">
        <ele>1752.1</ele>
        <time>2026-06-27T07:48:42Z</time>
      </trkpt>
      <trkpt lat="46.11938" lon="6.72044">
        <ele>1752.2</ele>
        <time>2026-06-27T07:48:43Z</time>
      </trkpt>
      <trkpt lat="46.11938" lon="6.72043">
        <ele>1752.3</ele>
        <time>2026-06-27T07:48:44Z</time>
      </trkpt>
      <trkpt lat="46.11939" lon="6.72043">
        <ele>1752.3</ele>
        <time>2026-06-27T07:48:45Z</time>
      </trkpt>
      <trkpt lat="46.1194" lon="6.72042">
        <ele>1752.4</ele>
        <time>2026-06-27T07:48:46Z</time>
      </trkpt>
      <trkpt lat="46.1194" lon="6.72041">
        <ele>1752.6</ele>
        <time>2026-06-27T07:48:47Z</time>
      </trkpt>
      <trkpt lat="46.11941" lon="6.72041">
        <ele>1752.7</ele>
        <time>2026-06-27T07:48:48Z</time>
      </trkpt>
      <trkpt lat="46.11942" lon="6.7204">
        <ele>1752.9</ele>
        <time>2026-06-27T07:48:49Z</time>
      </trkpt>
      <trkpt lat="46.11943" lon="6.72039">
        <ele>1753</ele>
        <time>2026-06-27T07:48:50Z</time>
      </trkpt>
      <trkpt lat="46.11944" lon="6.72039">
        <ele>1753.1</ele>
        <time>2026-06-27T07:48:51Z</time>
      </trkpt>
      <trkpt lat="46.11944" lon="6.72038">
        <ele>1753.2</ele>
        <time>2026-06-27T07:48:52Z</time>
      </trkpt>
      <trkpt lat="46.11945" lon="6.72038">
        <ele>1753.4</ele>
        <time>2026-06-27T07:48:53Z</time>
      </trkpt>
      <trkpt lat="46.11946" lon="6.72037">
        <ele>1753.5</ele>
        <time>2026-06-27T07:48:54Z</time>
      </trkpt>
      <trkpt lat="46.11946" lon="6.72036">
        <ele>1753.7</ele>
        <time>2026-06-27T07:48:55Z</time>
      </trkpt>
      <trkpt lat="46.11947" lon="6.72036">
        <ele>1753.9</ele>
        <time>2026-06-27T07:48:56Z</time>
      </trkpt>
      <trkpt lat="46.11948" lon="6.72035">
        <ele>1754</ele>
        <time>2026-06-27T07:48:57Z</time>
      </trkpt>
      <trkpt lat="46.11948" lon="6.72035">
        <ele>1754.1</ele>
        <time>2026-06-27T07:48:58Z</time>
      </trkpt>
      <trkpt lat="46.11949" lon="6.72035">
        <ele>1754.1</ele>
        <time>2026-06-27T07:48:59Z</time>
      </trkpt>
      <trkpt lat="46.1195" lon="6.72034">
        <ele>1754.2</ele>
        <time>2026-06-27T07:49:00Z</time>
      </trkpt>
      <trkpt lat="46.1195" lon="6.72034">
        <ele>1754.4</ele>
        <time>2026-06-27T07:49:01Z</time>
      </trkpt>
      <trkpt lat="46.11951" lon="6.72033">
        <ele>1754.6</ele>
        <time>2026-06-27T07:49:02Z</time>
      </trkpt>
      <trkpt lat="46.11952" lon="6.72033">
        <ele>1754.7</ele>
        <time>2026-06-27T07:49:03Z</time>
      </trkpt>
      <trkpt lat="46.11952" lon="6.72032">
        <ele>1754.9</ele>
        <time>2026-06-27T07:49:04Z</time>
      </trkpt>
      <trkpt lat="46.11953" lon="6.72031">
        <ele>1755.1</ele>
        <time>2026-06-27T07:49:05Z</time>
      </trkpt>
      <trkpt lat="46.11953" lon="6.7203">
        <ele>1755.3</ele>
        <time>2026-06-27T07:49:06Z</time>
      </trkpt>
      <trkpt lat="46.11954" lon="6.7203">
        <ele>1755.5</ele>
        <time>2026-06-27T07:49:07Z</time>
      </trkpt>
      <trkpt lat="46.11955" lon="6.72029">
        <ele>1755.7</ele>
        <time>2026-06-27T07:49:08Z</time>
      </trkpt>
      <trkpt lat="46.11955" lon="6.72028">
        <ele>1755.8</ele>
        <time>2026-06-27T07:49:09Z</time>
      </trkpt>
      <trkpt lat="46.11956" lon="6.72028">
        <ele>1756</ele>
        <time>2026-06-27T07:49:10Z</time>
      </trkpt>
      <trkpt lat="46.11957" lon="6.72027">
        <ele>1756.1</ele>
        <time>2026-06-27T07:49:11Z</time>
      </trkpt>
      <trkpt lat="46.11957" lon="6.72027">
        <ele>1756.3</ele>
        <time>2026-06-27T07:49:12Z</time>
      </trkpt>
      <trkpt lat="46.11958" lon="6.72026">
        <ele>1756.4</ele>
        <time>2026-06-27T07:49:13Z</time>
      </trkpt>
      <trkpt lat="46.11958" lon="6.72026">
        <ele>1756.5</ele>
        <time>2026-06-27T07:49:14Z</time>
      </trkpt>
      <trkpt lat="46.11959" lon="6.72026">
        <ele>1756.8</ele>
        <time>2026-06-27T07:49:15Z</time>
      </trkpt>
      <trkpt lat="46.11959" lon="6.72025">
        <ele>1757</ele>
        <time>2026-06-27T07:49:16Z</time>
      </trkpt>
      <trkpt lat="46.1196" lon="6.72025">
        <ele>1757.2</ele>
        <time>2026-06-27T07:49:17Z</time>
      </trkpt>
      <trkpt lat="46.11961" lon="6.72024">
        <ele>1757.3</ele>
        <time>2026-06-27T07:49:18Z</time>
      </trkpt>
      <trkpt lat="46.11961" lon="6.72024">
        <ele>1757.5</ele>
        <time>2026-06-27T07:49:19Z</time>
      </trkpt>
      <trkpt lat="46.11962" lon="6.72024">
        <ele>1757.6</ele>
        <time>2026-06-27T07:49:20Z</time>
      </trkpt>
      <trkpt lat="46.11962" lon="6.72024">
        <ele>1757.7</ele>
        <time>2026-06-27T07:49:21Z</time>
      </trkpt>
      <trkpt lat="46.11963" lon="6.72024">
        <ele>1757.8</ele>
        <time>2026-06-27T07:49:22Z</time>
      </trkpt>
      <trkpt lat="46.11964" lon="6.72024">
        <ele>1758</ele>
        <time>2026-06-27T07:49:23Z</time>
      </trkpt>
      <trkpt lat="46.11964" lon="6.72024">
        <ele>1758.1</ele>
        <time>2026-06-27T07:49:24Z</time>
      </trkpt>
      <trkpt lat="46.11965" lon="6.72024">
        <ele>1758.3</ele>
        <time>2026-06-27T07:49:25Z</time>
      </trkpt>
      <trkpt lat="46.11966" lon="6.72024">
        <ele>1758.5</ele>
        <time>2026-06-27T07:49:26Z</time>
      </trkpt>
      <trkpt lat="46.11966" lon="6.72024">
        <ele>1758.7</ele>
        <time>2026-06-27T07:49:27Z</time>
      </trkpt>
      <trkpt lat="46.11967" lon="6.72023">
        <ele>1758.9</ele>
        <time>2026-06-27T07:49:28Z</time>
      </trkpt>
      <trkpt lat="46.11968" lon="6.72023">
        <ele>1759.1</ele>
        <time>2026-06-27T07:49:29Z</time>
      </trkpt>
      <trkpt lat="46.11968" lon="6.72023">
        <ele>1759.3</ele>
        <time>2026-06-27T07:49:30Z</time>
      </trkpt>
      <trkpt lat="46.11969" lon="6.72022">
        <ele>1759.5</ele>
        <time>2026-06-27T07:49:31Z</time>
      </trkpt>
      <trkpt lat="46.11969" lon="6.72022">
        <ele>1759.7</ele>
        <time>2026-06-27T07:49:32Z</time>
      </trkpt>
      <trkpt lat="46.1197" lon="6.72022">
        <ele>1760</ele>
        <time>2026-06-27T07:49:33Z</time>
      </trkpt>
      <trkpt lat="46.1197" lon="6.72023">
        <ele>1760.2</ele>
        <time>2026-06-27T07:49:34Z</time>
      </trkpt>
      <trkpt lat="46.11971" lon="6.72023">
        <ele>1760.4</ele>
        <time>2026-06-27T07:49:35Z</time>
      </trkpt>
      <trkpt lat="46.11971" lon="6.72022">
        <ele>1760.7</ele>
        <time>2026-06-27T07:49:36Z</time>
      </trkpt>
      <trkpt lat="46.11972" lon="6.72022">
        <ele>1760.9</ele>
        <time>2026-06-27T07:49:37Z</time>
      </trkpt>
      <trkpt lat="46.11973" lon="6.72022">
        <ele>1761.1</ele>
        <time>2026-06-27T07:49:38Z</time>
      </trkpt>
      <trkpt lat="46.11974" lon="6.72022">
        <ele>1761.2</ele>
        <time>2026-06-27T07:49:39Z</time>
      </trkpt>
      <trkpt lat="46.11974" lon="6.72022">
        <ele>1761.4</ele>
        <time>2026-06-27T07:49:40Z</time>
      </trkpt>
      <trkpt lat="46.11975" lon="6.72021">
        <ele>1761.6</ele>
        <time>2026-06-27T07:49:41Z</time>
      </trkpt>
      <trkpt lat="46.11975" lon="6.72021">
        <ele>1761.7</ele>
        <time>2026-06-27T07:49:42Z</time>
      </trkpt>
      <trkpt lat="46.11976" lon="6.72021">
        <ele>1762</ele>
        <time>2026-06-27T07:49:43Z</time>
      </trkpt>
      <trkpt lat="46.11976" lon="6.72021">
        <ele>1762.2</ele>
        <time>2026-06-27T07:49:44Z</time>
      </trkpt>
      <trkpt lat="46.11977" lon="6.72021">
        <ele>1762.3</ele>
        <time>2026-06-27T07:49:45Z</time>
      </trkpt>
      <trkpt lat="46.11977" lon="6.72021">
        <ele>1762.5</ele>
        <time>2026-06-27T07:49:46Z</time>
      </trkpt>
      <trkpt lat="46.11978" lon="6.72021">
        <ele>1762.6</ele>
        <time>2026-06-27T07:49:47Z</time>
      </trkpt>
      <trkpt lat="46.11978" lon="6.72021">
        <ele>1762.7</ele>
        <time>2026-06-27T07:49:48Z</time>
      </trkpt>
      <trkpt lat="46.11979" lon="6.72021">
        <ele>1763</ele>
        <time>2026-06-27T07:49:49Z</time>
      </trkpt>
      <trkpt lat="46.11979" lon="6.72022">
        <ele>1763.2</ele>
        <time>2026-06-27T07:49:50Z</time>
      </trkpt>
      <trkpt lat="46.1198" lon="6.72022">
        <ele>1763.4</ele>
        <time>2026-06-27T07:49:51Z</time>
      </trkpt>
      <trkpt lat="46.1198" lon="6.72022">
        <ele>1763.5</ele>
        <time>2026-06-27T07:49:52Z</time>
      </trkpt>
      <trkpt lat="46.11981" lon="6.72023">
        <ele>1763.7</ele>
        <time>2026-06-27T07:49:53Z</time>
      </trkpt>
      <trkpt lat="46.11982" lon="6.72023">
        <ele>1763.9</ele>
        <time>2026-06-27T07:49:54Z</time>
      </trkpt>
      <trkpt lat="46.11982" lon="6.72023">
        <ele>1764</ele>
        <time>2026-06-27T07:49:55Z</time>
      </trkpt>
      <trkpt lat="46.11983" lon="6.72024">
        <ele>1764.1</ele>
        <time>2026-06-27T07:49:56Z</time>
      </trkpt>
      <trkpt lat="46.11983" lon="6.72024">
        <ele>1764.2</ele>
        <time>2026-06-27T07:49:57Z</time>
      </trkpt>
      <trkpt lat="46.11984" lon="6.72024">
        <ele>1764.3</ele>
        <time>2026-06-27T07:49:58Z</time>
      </trkpt>
      <trkpt lat="46.11984" lon="6.72023">
        <ele>1764.5</ele>
        <time>2026-06-27T07:49:59Z</time>
      </trkpt>
      <trkpt lat="46.11985" lon="6.72023">
        <ele>1764.7</ele>
        <time>2026-06-27T07:50:00Z</time>
      </trkpt>
      <trkpt lat="46.11985" lon="6.72023">
        <ele>1764.7</ele>
        <time>2026-06-27T07:50:01Z</time>
      </trkpt>
      <trkpt lat="46.11986" lon="6.72023">
        <ele>1764.8</ele>
        <time>2026-06-27T07:50:02Z</time>
      </trkpt>
      <trkpt lat="46.11986" lon="6.72023">
        <ele>1764.9</ele>
        <time>2026-06-27T07:50:03Z</time>
      </trkpt>
      <trkpt lat="46.11987" lon="6.72022">
        <ele>1765.1</ele>
        <time>2026-06-27T07:50:04Z</time>
      </trkpt>
      <trkpt lat="46.11987" lon="6.72022">
        <ele>1765.2</ele>
        <time>2026-06-27T07:50:05Z</time>
      </trkpt>
      <trkpt lat="46.11988" lon="6.72022">
        <ele>1765.5</ele>
        <time>2026-06-27T07:50:06Z</time>
      </trkpt>
      <trkpt lat="46.11988" lon="6.72022">
        <ele>1765.6</ele>
        <time>2026-06-27T07:50:07Z</time>
      </trkpt>
      <trkpt lat="46.11989" lon="6.72022">
        <ele>1765.8</ele>
        <time>2026-06-27T07:50:08Z</time>
      </trkpt>
      <trkpt lat="46.11989" lon="6.72022">
        <ele>1766</ele>
        <time>2026-06-27T07:50:09Z</time>
      </trkpt>
      <trkpt lat="46.1199" lon="6.72022">
        <ele>1766.1</ele>
        <time>2026-06-27T07:50:10Z</time>
      </trkpt>
      <trkpt lat="46.1199" lon="6.72022">
        <ele>1766.4</ele>
        <time>2026-06-27T07:50:11Z</time>
      </trkpt>
      <trkpt lat="46.11991" lon="6.72022">
        <ele>1766.6</ele>
        <time>2026-06-27T07:50:12Z</time>
      </trkpt>
      <trkpt lat="46.11991" lon="6.72022">
        <ele>1766.8</ele>
        <time>2026-06-27T07:50:13Z</time>
      </trkpt>
      <trkpt lat="46.11991" lon="6.72022">
        <ele>1767</ele>
        <time>2026-06-27T07:50:14Z</time>
      </trkpt>
      <trkpt lat="46.11992" lon="6.72022">
        <ele>1767.2</ele>
        <time>2026-06-27T07:50:15Z</time>
      </trkpt>
      <trkpt lat="46.11993" lon="6.72021">
        <ele>1767.4</ele>
        <time>2026-06-27T07:50:16Z</time>
      </trkpt>
      <trkpt lat="46.11993" lon="6.7202">
        <ele>1767.6</ele>
        <time>2026-06-27T07:50:17Z</time>
      </trkpt>
      <trkpt lat="46.11994" lon="6.72021">
        <ele>1767.7</ele>
        <time>2026-06-27T07:50:18Z</time>
      </trkpt>
      <trkpt lat="46.11995" lon="6.72021">
        <ele>1767.8</ele>
        <time>2026-06-27T07:50:19Z</time>
      </trkpt>
      <trkpt lat="46.11995" lon="6.72021">
        <ele>1768</ele>
        <time>2026-06-27T07:50:20Z</time>
      </trkpt>
      <trkpt lat="46.11996" lon="6.72021">
        <ele>1768.1</ele>
        <time>2026-06-27T07:50:21Z</time>
      </trkpt>
      <trkpt lat="46.11996" lon="6.72022">
        <ele>1768.2</ele>
        <time>2026-06-27T07:50:22Z</time>
      </trkpt>
      <trkpt lat="46.11997" lon="6.72022">
        <ele>1768.4</ele>
        <time>2026-06-27T07:50:23Z</time>
      </trkpt>
      <trkpt lat="46.11997" lon="6.72022">
        <ele>1768.6</ele>
        <time>2026-06-27T07:50:24Z</time>
      </trkpt>
      <trkpt lat="46.11997" lon="6.72021">
        <ele>1768.9</ele>
        <time>2026-06-27T07:50:25Z</time>
      </trkpt>
      <trkpt lat="46.11998" lon="6.72021">
        <ele>1769.1</ele>
        <time>2026-06-27T07:50:26Z</time>
      </trkpt>
      <trkpt lat="46.11999" lon="6.72021">
        <ele>1769.4</ele>
        <time>2026-06-27T07:50:27Z</time>
      </trkpt>
      <trkpt lat="46.11999" lon="6.72021">
        <ele>1769.7</ele>
        <time>2026-06-27T07:50:28Z</time>
      </trkpt>
      <trkpt lat="46.12" lon="6.72021">
        <ele>1770</ele>
        <time>2026-06-27T07:50:29Z</time>
      </trkpt>
      <trkpt lat="46.12001" lon="6.7202">
        <ele>1770.3</ele>
        <time>2026-06-27T07:50:30Z</time>
      </trkpt>
      <trkpt lat="46.12002" lon="6.7202">
        <ele>1770.5</ele>
        <time>2026-06-27T07:50:31Z</time>
      </trkpt>
      <trkpt lat="46.12002" lon="6.7202">
        <ele>1770.8</ele>
        <time>2026-06-27T07:50:32Z</time>
      </trkpt>
      <trkpt lat="46.12003" lon="6.72021">
        <ele>1771</ele>
        <time>2026-06-27T07:50:33Z</time>
      </trkpt>
      <trkpt lat="46.12003" lon="6.7202">
        <ele>1771.1</ele>
        <time>2026-06-27T07:50:34Z</time>
      </trkpt>
      <trkpt lat="46.12004" lon="6.7202">
        <ele>1771.2</ele>
        <time>2026-06-27T07:50:35Z</time>
      </trkpt>
      <trkpt lat="46.12004" lon="6.7202">
        <ele>1771.4</ele>
        <time>2026-06-27T07:50:36Z</time>
      </trkpt>
      <trkpt lat="46.12005" lon="6.7202">
        <ele>1771.6</ele>
        <time>2026-06-27T07:50:37Z</time>
      </trkpt>
      <trkpt lat="46.12006" lon="6.7202">
        <ele>1771.8</ele>
        <time>2026-06-27T07:50:38Z</time>
      </trkpt>
      <trkpt lat="46.12006" lon="6.7202">
        <ele>1771.8</ele>
        <time>2026-06-27T07:50:39Z</time>
      </trkpt>
      <trkpt lat="46.12007" lon="6.7202">
        <ele>1772.1</ele>
        <time>2026-06-27T07:50:40Z</time>
      </trkpt>
      <trkpt lat="46.12008" lon="6.7202">
        <ele>1772.2</ele>
        <time>2026-06-27T07:50:41Z</time>
      </trkpt>
      <trkpt lat="46.12008" lon="6.7202">
        <ele>1772.4</ele>
        <time>2026-06-27T07:50:42Z</time>
      </trkpt>
      <trkpt lat="46.12009" lon="6.7202">
        <ele>1772.7</ele>
        <time>2026-06-27T07:50:43Z</time>
      </trkpt>
      <trkpt lat="46.1201" lon="6.7202">
        <ele>1772.9</ele>
        <time>2026-06-27T07:50:44Z</time>
      </trkpt>
      <trkpt lat="46.12011" lon="6.7202">
        <ele>1773.1</ele>
        <time>2026-06-27T07:50:45Z</time>
      </trkpt>
      <trkpt lat="46.12011" lon="6.7202">
        <ele>1773.2</ele>
        <time>2026-06-27T07:50:46Z</time>
      </trkpt>
      <trkpt lat="46.12012" lon="6.7202">
        <ele>1773.4</ele>
        <time>2026-06-27T07:50:47Z</time>
      </trkpt>
      <trkpt lat="46.12013" lon="6.72019">
        <ele>1773.6</ele>
        <time>2026-06-27T07:50:48Z</time>
      </trkpt>
      <trkpt lat="46.12014" lon="6.72019">
        <ele>1773.8</ele>
        <time>2026-06-27T07:50:49Z</time>
      </trkpt>
      <trkpt lat="46.12015" lon="6.72019">
        <ele>1774</ele>
        <time>2026-06-27T07:50:50Z</time>
      </trkpt>
      <trkpt lat="46.12015" lon="6.72018">
        <ele>1774.2</ele>
        <time>2026-06-27T07:50:51Z</time>
      </trkpt>
      <trkpt lat="46.12016" lon="6.72018">
        <ele>1774.4</ele>
        <time>2026-06-27T07:50:52Z</time>
      </trkpt>
      <trkpt lat="46.12017" lon="6.72018">
        <ele>1774.6</ele>
        <time>2026-06-27T07:50:53Z</time>
      </trkpt>
      <trkpt lat="46.12017" lon="6.72019">
        <ele>1774.7</ele>
        <time>2026-06-27T07:50:54Z</time>
      </trkpt>
      <trkpt lat="46.12018" lon="6.72019">
        <ele>1774.9</ele>
        <time>2026-06-27T07:50:55Z</time>
      </trkpt>
      <trkpt lat="46.12019" lon="6.72019">
        <ele>1775.1</ele>
        <time>2026-06-27T07:50:56Z</time>
      </trkpt>
      <trkpt lat="46.12019" lon="6.72018">
        <ele>1775.3</ele>
        <time>2026-06-27T07:50:57Z</time>
      </trkpt>
      <trkpt lat="46.1202" lon="6.72019">
        <ele>1775.4</ele>
        <time>2026-06-27T07:50:58Z</time>
      </trkpt>
      <trkpt lat="46.12021" lon="6.72019">
        <ele>1775.6</ele>
        <time>2026-06-27T07:50:59Z</time>
      </trkpt>
      <trkpt lat="46.12022" lon="6.72018">
        <ele>1775.7</ele>
        <time>2026-06-27T07:51:00Z</time>
      </trkpt>
      <trkpt lat="46.12022" lon="6.72018">
        <ele>1775.8</ele>
        <time>2026-06-27T07:51:01Z</time>
      </trkpt>
      <trkpt lat="46.12023" lon="6.72019">
        <ele>1775.8</ele>
        <time>2026-06-27T07:51:02Z</time>
      </trkpt>
      <trkpt lat="46.12024" lon="6.72019">
        <ele>1775.9</ele>
        <time>2026-06-27T07:51:03Z</time>
      </trkpt>
      <trkpt lat="46.12024" lon="6.72019">
        <ele>1776</ele>
        <time>2026-06-27T07:51:04Z</time>
      </trkpt>
      <trkpt lat="46.12025" lon="6.72019">
        <ele>1776.1</ele>
        <time>2026-06-27T07:51:05Z</time>
      </trkpt>
      <trkpt lat="46.12026" lon="6.72019">
        <ele>1776.3</ele>
        <time>2026-06-27T07:51:06Z</time>
      </trkpt>
      <trkpt lat="46.12026" lon="6.72019">
        <ele>1776.4</ele>
        <time>2026-06-27T07:51:07Z</time>
      </trkpt>
      <trkpt lat="46.12027" lon="6.72018">
        <ele>1776.6</ele>
        <time>2026-06-27T07:51:08Z</time>
      </trkpt>
      <trkpt lat="46.12028" lon="6.72018">
        <ele>1776.8</ele>
        <time>2026-06-27T07:51:09Z</time>
      </trkpt>
      <trkpt lat="46.12029" lon="6.72018">
        <ele>1776.9</ele>
        <time>2026-06-27T07:51:10Z</time>
      </trkpt>
      <trkpt lat="46.12029" lon="6.72018">
        <ele>1777.1</ele>
        <time>2026-06-27T07:51:11Z</time>
      </trkpt>
      <trkpt lat="46.1203" lon="6.72017">
        <ele>1777.3</ele>
        <time>2026-06-27T07:51:12Z</time>
      </trkpt>
      <trkpt lat="46.12031" lon="6.72017">
        <ele>1777.5</ele>
        <time>2026-06-27T07:51:13Z</time>
      </trkpt>
      <trkpt lat="46.12032" lon="6.72015">
        <ele>1777.7</ele>
        <time>2026-06-27T07:51:14Z</time>
      </trkpt>
      <trkpt lat="46.12032" lon="6.72015">
        <ele>1777.9</ele>
        <time>2026-06-27T07:51:15Z</time>
      </trkpt>
      <trkpt lat="46.12033" lon="6.72015">
        <ele>1778</ele>
        <time>2026-06-27T07:51:16Z</time>
      </trkpt>
      <trkpt lat="46.12033" lon="6.72015">
        <ele>1778.2</ele>
        <time>2026-06-27T07:51:17Z</time>
      </trkpt>
      <trkpt lat="46.12034" lon="6.72016">
        <ele>1778.3</ele>
        <time>2026-06-27T07:51:18Z</time>
      </trkpt>
      <trkpt lat="46.12035" lon="6.72016">
        <ele>1778.5</ele>
        <time>2026-06-27T07:51:19Z</time>
      </trkpt>
      <trkpt lat="46.12035" lon="6.72016">
        <ele>1778.7</ele>
        <time>2026-06-27T07:51:20Z</time>
      </trkpt>
      <trkpt lat="46.12036" lon="6.72016">
        <ele>1778.8</ele>
        <time>2026-06-27T07:51:21Z</time>
      </trkpt>
      <trkpt lat="46.12036" lon="6.72016">
        <ele>1779</ele>
        <time>2026-06-27T07:51:22Z</time>
      </trkpt>
      <trkpt lat="46.12036" lon="6.72016">
        <ele>1779.1</ele>
        <time>2026-06-27T07:51:23Z</time>
      </trkpt>
      <trkpt lat="46.12037" lon="6.72016">
        <ele>1779.3</ele>
        <time>2026-06-27T07:51:24Z</time>
      </trkpt>
      <trkpt lat="46.12038" lon="6.72016">
        <ele>1779.5</ele>
        <time>2026-06-27T07:51:25Z</time>
      </trkpt>
      <trkpt lat="46.12039" lon="6.72016">
        <ele>1779.7</ele>
        <time>2026-06-27T07:51:26Z</time>
      </trkpt>
      <trkpt lat="46.12039" lon="6.72016">
        <ele>1779.9</ele>
        <time>2026-06-27T07:51:27Z</time>
      </trkpt>
      <trkpt lat="46.1204" lon="6.72016">
        <ele>1780</ele>
        <time>2026-06-27T07:51:28Z</time>
      </trkpt>
      <trkpt lat="46.12041" lon="6.72016">
        <ele>1780.2</ele>
        <time>2026-06-27T07:51:29Z</time>
      </trkpt>
      <trkpt lat="46.12041" lon="6.72016">
        <ele>1780.4</ele>
        <time>2026-06-27T07:51:30Z</time>
      </trkpt>
      <trkpt lat="46.12042" lon="6.72017">
        <ele>1780.5</ele>
        <time>2026-06-27T07:51:31Z</time>
      </trkpt>
      <trkpt lat="46.12042" lon="6.72016">
        <ele>1780.7</ele>
        <time>2026-06-27T07:51:32Z</time>
      </trkpt>
      <trkpt lat="46.12043" lon="6.72016">
        <ele>1780.9</ele>
        <time>2026-06-27T07:51:33Z</time>
      </trkpt>
      <trkpt lat="46.12043" lon="6.72016">
        <ele>1781.1</ele>
        <time>2026-06-27T07:51:34Z</time>
      </trkpt>
      <trkpt lat="46.12044" lon="6.72015">
        <ele>1781.2</ele>
        <time>2026-06-27T07:51:35Z</time>
      </trkpt>
      <trkpt lat="46.12044" lon="6.72015">
        <ele>1781.4</ele>
        <time>2026-06-27T07:51:36Z</time>
      </trkpt>
      <trkpt lat="46.12045" lon="6.72016">
        <ele>1781.5</ele>
        <time>2026-06-27T07:51:37Z</time>
      </trkpt>
      <trkpt lat="46.12045" lon="6.72016">
        <ele>1781.7</ele>
        <time>2026-06-27T07:51:38Z</time>
      </trkpt>
      <trkpt lat="46.12045" lon="6.72016">
        <ele>1781.8</ele>
        <time>2026-06-27T07:51:39Z</time>
      </trkpt>
      <trkpt lat="46.12046" lon="6.72015">
        <ele>1782</ele>
        <time>2026-06-27T07:51:40Z</time>
      </trkpt>
      <trkpt lat="46.12046" lon="6.72016">
        <ele>1782.3</ele>
        <time>2026-06-27T07:51:41Z</time>
      </trkpt>
      <trkpt lat="46.12047" lon="6.72015">
        <ele>1782.5</ele>
        <time>2026-06-27T07:51:42Z</time>
      </trkpt>
      <trkpt lat="46.12047" lon="6.72015">
        <ele>1782.8</ele>
        <time>2026-06-27T07:51:43Z</time>
      </trkpt>
      <trkpt lat="46.12048" lon="6.72015">
        <ele>1782.8</ele>
        <time>2026-06-27T07:51:44Z</time>
      </trkpt>
      <trkpt lat="46.12048" lon="6.72015">
        <ele>1783.1</ele>
        <time>2026-06-27T07:51:45Z</time>
      </trkpt>
      <trkpt lat="46.12049" lon="6.72015">
        <ele>1783.3</ele>
        <time>2026-06-27T07:51:46Z</time>
      </trkpt>
      <trkpt lat="46.12049" lon="6.72014">
        <ele>1783.3</ele>
        <time>2026-06-27T07:51:47Z</time>
      </trkpt>
      <trkpt lat="46.1205" lon="6.72014">
        <ele>1783.5</ele>
        <time>2026-06-27T07:51:48Z</time>
      </trkpt>
      <trkpt lat="46.1205" lon="6.72014">
        <ele>1783.6</ele>
        <time>2026-06-27T07:51:49Z</time>
      </trkpt>
      <trkpt lat="46.1205" lon="6.72014">
        <ele>1783.7</ele>
        <time>2026-06-27T07:51:50Z</time>
      </trkpt>
      <trkpt lat="46.12051" lon="6.72013">
        <ele>1783.8</ele>
        <time>2026-06-27T07:51:51Z</time>
      </trkpt>
      <trkpt lat="46.12051" lon="6.72013">
        <ele>1784</ele>
        <time>2026-06-27T07:51:52Z</time>
      </trkpt>
      <trkpt lat="46.12051" lon="6.72014">
        <ele>1784.1</ele>
        <time>2026-06-27T07:51:53Z</time>
      </trkpt>
      <trkpt lat="46.12052" lon="6.72014">
        <ele>1784.2</ele>
        <time>2026-06-27T07:51:54Z</time>
      </trkpt>
      <trkpt lat="46.12052" lon="6.72013">
        <ele>1784.3</ele>
        <time>2026-06-27T07:51:55Z</time>
      </trkpt>
      <trkpt lat="46.12053" lon="6.72013">
        <ele>1784.4</ele>
        <time>2026-06-27T07:51:56Z</time>
      </trkpt>
      <trkpt lat="46.12053" lon="6.72013">
        <ele>1784.6</ele>
        <time>2026-06-27T07:51:57Z</time>
      </trkpt>
      <trkpt lat="46.12054" lon="6.72013">
        <ele>1784.8</ele>
        <time>2026-06-27T07:51:58Z</time>
      </trkpt>
      <trkpt lat="46.12054" lon="6.72012">
        <ele>1785.1</ele>
        <time>2026-06-27T07:51:59Z</time>
      </trkpt>
      <trkpt lat="46.12054" lon="6.72012">
        <ele>1785.3</ele>
        <time>2026-06-27T07:52:00Z</time>
      </trkpt>
      <trkpt lat="46.12055" lon="6.72012">
        <ele>1785.3</ele>
        <time>2026-06-27T07:52:01Z</time>
      </trkpt>
      <trkpt lat="46.12055" lon="6.72012">
        <ele>1785.5</ele>
        <time>2026-06-27T07:52:02Z</time>
      </trkpt>
      <trkpt lat="46.12055" lon="6.72013">
        <ele>1785.7</ele>
        <time>2026-06-27T07:52:03Z</time>
      </trkpt>
      <trkpt lat="46.12056" lon="6.72012">
        <ele>1785.9</ele>
        <time>2026-06-27T07:52:04Z</time>
      </trkpt>
      <trkpt lat="46.12056" lon="6.72012">
        <ele>1786</ele>
        <time>2026-06-27T07:52:05Z</time>
      </trkpt>
      <trkpt lat="46.12056" lon="6.72012">
        <ele>1786.2</ele>
        <time>2026-06-27T07:52:06Z</time>
      </trkpt>
      <trkpt lat="46.12056" lon="6.72012">
        <ele>1786.4</ele>
        <time>2026-06-27T07:52:07Z</time>
      </trkpt>
      <trkpt lat="46.12057" lon="6.72011">
        <ele>1786.5</ele>
        <time>2026-06-27T07:52:08Z</time>
      </trkpt>
      <trkpt lat="46.12057" lon="6.72011">
        <ele>1786.6</ele>
        <time>2026-06-27T07:52:09Z</time>
      </trkpt>
      <trkpt lat="46.12057" lon="6.72011">
        <ele>1786.7</ele>
        <time>2026-06-27T07:52:10Z</time>
      </trkpt>
      <trkpt lat="46.12058" lon="6.72011">
        <ele>1786.9</ele>
        <time>2026-06-27T07:52:11Z</time>
      </trkpt>
      <trkpt lat="46.12059" lon="6.72011">
        <ele>1787</ele>
        <time>2026-06-27T07:52:12Z</time>
      </trkpt>
      <trkpt lat="46.12059" lon="6.72011">
        <ele>1787.4</ele>
        <time>2026-06-27T07:52:13Z</time>
      </trkpt>
      <trkpt lat="46.1206" lon="6.72011">
        <ele>1787.6</ele>
        <time>2026-06-27T07:52:14Z</time>
      </trkpt>
      <trkpt lat="46.1206" lon="6.72011">
        <ele>1787.8</ele>
        <time>2026-06-27T07:52:15Z</time>
      </trkpt>
      <trkpt lat="46.12061" lon="6.72011">
        <ele>1788</ele>
        <time>2026-06-27T07:52:16Z</time>
      </trkpt>
      <trkpt lat="46.12061" lon="6.72011">
        <ele>1788.2</ele>
        <time>2026-06-27T07:52:17Z</time>
      </trkpt>
      <trkpt lat="46.12061" lon="6.72012">
        <ele>1788.4</ele>
        <time>2026-06-27T07:52:18Z</time>
      </trkpt>
      <trkpt lat="46.12062" lon="6.72011">
        <ele>1788.5</ele>
        <time>2026-06-27T07:52:19Z</time>
      </trkpt>
      <trkpt lat="46.12062" lon="6.72011">
        <ele>1788.6</ele>
        <time>2026-06-27T07:52:20Z</time>
      </trkpt>
      <trkpt lat="46.12062" lon="6.72011">
        <ele>1788.7</ele>
        <time>2026-06-27T07:52:21Z</time>
      </trkpt>
      <trkpt lat="46.12063" lon="6.72012">
        <ele>1788.9</ele>
        <time>2026-06-27T07:52:22Z</time>
      </trkpt>
      <trkpt lat="46.12063" lon="6.72012">
        <ele>1789</ele>
        <time>2026-06-27T07:52:23Z</time>
      </trkpt>
      <trkpt lat="46.12064" lon="6.72012">
        <ele>1789.1</ele>
        <time>2026-06-27T07:52:24Z</time>
      </trkpt>
      <trkpt lat="46.12064" lon="6.72012">
        <ele>1789.3</ele>
        <time>2026-06-27T07:52:25Z</time>
      </trkpt>
      <trkpt lat="46.12065" lon="6.72012">
        <ele>1789.4</ele>
        <time>2026-06-27T07:52:26Z</time>
      </trkpt>
      <trkpt lat="46.12065" lon="6.72013">
        <ele>1789.6</ele>
        <time>2026-06-27T07:52:27Z</time>
      </trkpt>
      <trkpt lat="46.12066" lon="6.72013">
        <ele>1789.7</ele>
        <time>2026-06-27T07:52:28Z</time>
      </trkpt>
      <trkpt lat="46.12067" lon="6.72013">
        <ele>1789.8</ele>
        <time>2026-06-27T07:52:29Z</time>
      </trkpt>
      <trkpt lat="46.12068" lon="6.72012">
        <ele>1790</ele>
        <time>2026-06-27T07:52:30Z</time>
      </trkpt>
      <trkpt lat="46.12068" lon="6.72011">
        <ele>1790.1</ele>
        <time>2026-06-27T07:52:31Z</time>
      </trkpt>
      <trkpt lat="46.12068" lon="6.72011">
        <ele>1790.3</ele>
        <time>2026-06-27T07:52:32Z</time>
      </trkpt>
      <trkpt lat="46.12069" lon="6.7201">
        <ele>1790.5</ele>
        <time>2026-06-27T07:52:33Z</time>
      </trkpt>
      <trkpt lat="46.12069" lon="6.7201">
        <ele>1790.8</ele>
        <time>2026-06-27T07:52:34Z</time>
      </trkpt>
      <trkpt lat="46.1207" lon="6.7201">
        <ele>1791</ele>
        <time>2026-06-27T07:52:35Z</time>
      </trkpt>
      <trkpt lat="46.1207" lon="6.72009">
        <ele>1791.3</ele>
        <time>2026-06-27T07:52:36Z</time>
      </trkpt>
      <trkpt lat="46.12071" lon="6.72009">
        <ele>1791.5</ele>
        <time>2026-06-27T07:52:37Z</time>
      </trkpt>
      <trkpt lat="46.12071" lon="6.72009">
        <ele>1791.7</ele>
        <time>2026-06-27T07:52:38Z</time>
      </trkpt>
      <trkpt lat="46.12071" lon="6.72009">
        <ele>1791.8</ele>
        <time>2026-06-27T07:52:39Z</time>
      </trkpt>
      <trkpt lat="46.12072" lon="6.72009">
        <ele>1791.9</ele>
        <time>2026-06-27T07:52:40Z</time>
      </trkpt>
      <trkpt lat="46.12072" lon="6.72009">
        <ele>1792.1</ele>
        <time>2026-06-27T07:52:41Z</time>
      </trkpt>
      <trkpt lat="46.12073" lon="6.72009">
        <ele>1792.2</ele>
        <time>2026-06-27T07:52:42Z</time>
      </trkpt>
      <trkpt lat="46.12074" lon="6.72009">
        <ele>1792.4</ele>
        <time>2026-06-27T07:52:43Z</time>
      </trkpt>
      <trkpt lat="46.12075" lon="6.72009">
        <ele>1792.6</ele>
        <time>2026-06-27T07:52:44Z</time>
      </trkpt>
      <trkpt lat="46.12075" lon="6.72009">
        <ele>1792.7</ele>
        <time>2026-06-27T07:52:45Z</time>
      </trkpt>
      <trkpt lat="46.12076" lon="6.72009">
        <ele>1792.9</ele>
        <time>2026-06-27T07:52:46Z</time>
      </trkpt>
      <trkpt lat="46.12076" lon="6.72009">
        <ele>1793.1</ele>
        <time>2026-06-27T07:52:47Z</time>
      </trkpt>
      <trkpt lat="46.12077" lon="6.72009">
        <ele>1793.4</ele>
        <time>2026-06-27T07:52:48Z</time>
      </trkpt>
      <trkpt lat="46.12078" lon="6.72009">
        <ele>1793.6</ele>
        <time>2026-06-27T07:52:49Z</time>
      </trkpt>
      <trkpt lat="46.12078" lon="6.7201">
        <ele>1793.8</ele>
        <time>2026-06-27T07:52:50Z</time>
      </trkpt>
      <trkpt lat="46.12079" lon="6.7201">
        <ele>1794.1</ele>
        <time>2026-06-27T07:52:51Z</time>
      </trkpt>
      <trkpt lat="46.12079" lon="6.72009">
        <ele>1794.2</ele>
        <time>2026-06-27T07:52:52Z</time>
      </trkpt>
      <trkpt lat="46.1208" lon="6.72009">
        <ele>1794.3</ele>
        <time>2026-06-27T07:52:53Z</time>
      </trkpt>
      <trkpt lat="46.12081" lon="6.72009">
        <ele>1794.5</ele>
        <time>2026-06-27T07:52:54Z</time>
      </trkpt>
      <trkpt lat="46.12081" lon="6.72009">
        <ele>1794.7</ele>
        <time>2026-06-27T07:52:55Z</time>
      </trkpt>
      <trkpt lat="46.12081" lon="6.72009">
        <ele>1794.8</ele>
        <time>2026-06-27T07:52:56Z</time>
      </trkpt>
      <trkpt lat="46.12082" lon="6.72009">
        <ele>1794.9</ele>
        <time>2026-06-27T07:52:57Z</time>
      </trkpt>
      <trkpt lat="46.12082" lon="6.72009">
        <ele>1795</ele>
        <time>2026-06-27T07:52:58Z</time>
      </trkpt>
      <trkpt lat="46.12083" lon="6.72009">
        <ele>1795.2</ele>
        <time>2026-06-27T07:52:59Z</time>
      </trkpt>
      <trkpt lat="46.12083" lon="6.72009">
        <ele>1795.3</ele>
        <time>2026-06-27T07:53:00Z</time>
      </trkpt>
      <trkpt lat="46.12084" lon="6.72009">
        <ele>1795.5</ele>
        <time>2026-06-27T07:53:01Z</time>
      </trkpt>
      <trkpt lat="46.12084" lon="6.7201">
        <ele>1795.7</ele>
        <time>2026-06-27T07:53:02Z</time>
      </trkpt>
      <trkpt lat="46.12085" lon="6.7201">
        <ele>1795.9</ele>
        <time>2026-06-27T07:53:03Z</time>
      </trkpt>
      <trkpt lat="46.12085" lon="6.7201">
        <ele>1796</ele>
        <time>2026-06-27T07:53:04Z</time>
      </trkpt>
      <trkpt lat="46.12086" lon="6.7201">
        <ele>1796.1</ele>
        <time>2026-06-27T07:53:05Z</time>
      </trkpt>
      <trkpt lat="46.12086" lon="6.7201">
        <ele>1796.2</ele>
        <time>2026-06-27T07:53:06Z</time>
      </trkpt>
      <trkpt lat="46.12087" lon="6.7201">
        <ele>1796.4</ele>
        <time>2026-06-27T07:53:07Z</time>
      </trkpt>
      <trkpt lat="46.12088" lon="6.72009">
        <ele>1796.4</ele>
        <time>2026-06-27T07:53:08Z</time>
      </trkpt>
      <trkpt lat="46.12089" lon="6.72009">
        <ele>1796.7</ele>
        <time>2026-06-27T07:53:09Z</time>
      </trkpt>
      <trkpt lat="46.12089" lon="6.72009">
        <ele>1796.9</ele>
        <time>2026-06-27T07:53:10Z</time>
      </trkpt>
      <trkpt lat="46.1209" lon="6.72009">
        <ele>1797.1</ele>
        <time>2026-06-27T07:53:11Z</time>
      </trkpt>
      <trkpt lat="46.1209" lon="6.72009">
        <ele>1797.3</ele>
        <time>2026-06-27T07:53:12Z</time>
      </trkpt>
      <trkpt lat="46.12091" lon="6.72009">
        <ele>1797.4</ele>
        <time>2026-06-27T07:53:13Z</time>
      </trkpt>
      <trkpt lat="46.12092" lon="6.72009">
        <ele>1797.5</ele>
        <time>2026-06-27T07:53:14Z</time>
      </trkpt>
      <trkpt lat="46.12093" lon="6.72009">
        <ele>1797.6</ele>
        <time>2026-06-27T07:53:15Z</time>
      </trkpt>
      <trkpt lat="46.12093" lon="6.72009">
        <ele>1797.8</ele>
        <time>2026-06-27T07:53:16Z</time>
      </trkpt>
      <trkpt lat="46.12094" lon="6.72009">
        <ele>1797.9</ele>
        <time>2026-06-27T07:53:17Z</time>
      </trkpt>
      <trkpt lat="46.12095" lon="6.72008">
        <ele>1798.1</ele>
        <time>2026-06-27T07:53:18Z</time>
      </trkpt>
      <trkpt lat="46.12096" lon="6.72008">
        <ele>1798.2</ele>
        <time>2026-06-27T07:53:19Z</time>
      </trkpt>
      <trkpt lat="46.12096" lon="6.72008">
        <ele>1798.3</ele>
        <time>2026-06-27T07:53:20Z</time>
      </trkpt>
      <trkpt lat="46.12097" lon="6.72009">
        <ele>1798.6</ele>
        <time>2026-06-27T07:53:21Z</time>
      </trkpt>
      <trkpt lat="46.12098" lon="6.72009">
        <ele>1798.7</ele>
        <time>2026-06-27T07:53:22Z</time>
      </trkpt>
      <trkpt lat="46.12099" lon="6.72008">
        <ele>1798.9</ele>
        <time>2026-06-27T07:53:23Z</time>
      </trkpt>
      <trkpt lat="46.12099" lon="6.72008">
        <ele>1799</ele>
        <time>2026-06-27T07:53:24Z</time>
      </trkpt>
      <trkpt lat="46.121" lon="6.72008">
        <ele>1799.1</ele>
        <time>2026-06-27T07:53:25Z</time>
      </trkpt>
      <trkpt lat="46.12101" lon="6.72008">
        <ele>1799.2</ele>
        <time>2026-06-27T07:53:26Z</time>
      </trkpt>
      <trkpt lat="46.12101" lon="6.72008">
        <ele>1799.3</ele>
        <time>2026-06-27T07:53:27Z</time>
      </trkpt>
      <trkpt lat="46.12102" lon="6.72008">
        <ele>1799.3</ele>
        <time>2026-06-27T07:53:28Z</time>
      </trkpt>
      <trkpt lat="46.12102" lon="6.72008">
        <ele>1799.4</ele>
        <time>2026-06-27T07:53:29Z</time>
      </trkpt>
      <trkpt lat="46.12103" lon="6.72008">
        <ele>1799.5</ele>
        <time>2026-06-27T07:53:30Z</time>
      </trkpt>
      <trkpt lat="46.12103" lon="6.72008">
        <ele>1799.6</ele>
        <time>2026-06-27T07:53:31Z</time>
      </trkpt>
      <trkpt lat="46.12104" lon="6.72008">
        <ele>1799.7</ele>
        <time>2026-06-27T07:53:32Z</time>
      </trkpt>
      <trkpt lat="46.12104" lon="6.72008">
        <ele>1799.8</ele>
        <time>2026-06-27T07:53:33Z</time>
      </trkpt>
      <trkpt lat="46.12105" lon="6.72008">
        <ele>1799.9</ele>
        <time>2026-06-27T07:53:34Z</time>
      </trkpt>
      <trkpt lat="46.12106" lon="6.72009">
        <ele>1800</ele>
        <time>2026-06-27T07:53:35Z</time>
      </trkpt>
      <trkpt lat="46.12107" lon="6.72009">
        <ele>1800.2</ele>
        <time>2026-06-27T07:53:36Z</time>
      </trkpt>
      <trkpt lat="46.12108" lon="6.72009">
        <ele>1800.3</ele>
        <time>2026-06-27T07:53:37Z</time>
      </trkpt>
      <trkpt lat="46.12108" lon="6.72009">
        <ele>1800.4</ele>
        <time>2026-06-27T07:53:38Z</time>
      </trkpt>
      <trkpt lat="46.12109" lon="6.72009">
        <ele>1800.6</ele>
        <time>2026-06-27T07:53:39Z</time>
      </trkpt>
      <trkpt lat="46.12109" lon="6.72009">
        <ele>1800.7</ele>
        <time>2026-06-27T07:53:40Z</time>
      </trkpt>
      <trkpt lat="46.1211" lon="6.72009">
        <ele>1800.9</ele>
        <time>2026-06-27T07:53:41Z</time>
      </trkpt>
      <trkpt lat="46.12111" lon="6.72009">
        <ele>1801.1</ele>
        <time>2026-06-27T07:53:42Z</time>
      </trkpt>
      <trkpt lat="46.12112" lon="6.72008">
        <ele>1801.2</ele>
        <time>2026-06-27T07:53:43Z</time>
      </trkpt>
      <trkpt lat="46.12112" lon="6.72008">
        <ele>1801.2</ele>
        <time>2026-06-27T07:53:44Z</time>
      </trkpt>
      <trkpt lat="46.12113" lon="6.72008">
        <ele>1801.3</ele>
        <time>2026-06-27T07:53:45Z</time>
      </trkpt>
      <trkpt lat="46.12114" lon="6.72008">
        <ele>1801.5</ele>
        <time>2026-06-27T07:53:46Z</time>
      </trkpt>
      <trkpt lat="46.12115" lon="6.72008">
        <ele>1801.7</ele>
        <time>2026-06-27T07:53:47Z</time>
      </trkpt>
      <trkpt lat="46.12116" lon="6.72008">
        <ele>1801.7</ele>
        <time>2026-06-27T07:53:48Z</time>
      </trkpt>
      <trkpt lat="46.12116" lon="6.72008">
        <ele>1801.7</ele>
        <time>2026-06-27T07:53:49Z</time>
      </trkpt>
      <trkpt lat="46.12117" lon="6.72008">
        <ele>1801.8</ele>
        <time>2026-06-27T07:53:50Z</time>
      </trkpt>
      <trkpt lat="46.12117" lon="6.72008">
        <ele>1802</ele>
        <time>2026-06-27T07:53:51Z</time>
      </trkpt>
      <trkpt lat="46.12118" lon="6.72008">
        <ele>1802.1</ele>
        <time>2026-06-27T07:53:52Z</time>
      </trkpt>
      <trkpt lat="46.12119" lon="6.72008">
        <ele>1802.1</ele>
        <time>2026-06-27T07:53:53Z</time>
      </trkpt>
      <trkpt lat="46.1212" lon="6.72008">
        <ele>1802.1</ele>
        <time>2026-06-27T07:53:54Z</time>
      </trkpt>
      <trkpt lat="46.1212" lon="6.72008">
        <ele>1802.1</ele>
        <time>2026-06-27T07:53:55Z</time>
      </trkpt>
      <trkpt lat="46.12121" lon="6.72008">
        <ele>1802.1</ele>
        <time>2026-06-27T07:53:56Z</time>
      </trkpt>
      <trkpt lat="46.12122" lon="6.72008">
        <ele>1802</ele>
        <time>2026-06-27T07:53:57Z</time>
      </trkpt>
      <trkpt lat="46.12123" lon="6.72008">
        <ele>1802</ele>
        <time>2026-06-27T07:53:58Z</time>
      </trkpt>
      <trkpt lat="46.12124" lon="6.72008">
        <ele>1802</ele>
        <time>2026-06-27T07:53:59Z</time>
      </trkpt>
      <trkpt lat="46.12124" lon="6.72007">
        <ele>1802.1</ele>
        <time>2026-06-27T07:54:00Z</time>
      </trkpt>
      <trkpt lat="46.12125" lon="6.72007">
        <ele>1802.2</ele>
        <time>2026-06-27T07:54:01Z</time>
      </trkpt>
      <trkpt lat="46.12125" lon="6.72007">
        <ele>1802.2</ele>
        <time>2026-06-27T07:54:02Z</time>
      </trkpt>
      <trkpt lat="46.12126" lon="6.72007">
        <ele>1802.3</ele>
        <time>2026-06-27T07:54:03Z</time>
      </trkpt>
      <trkpt lat="46.12127" lon="6.72007">
        <ele>1802.4</ele>
        <time>2026-06-27T07:54:04Z</time>
      </trkpt>
      <trkpt lat="46.12128" lon="6.72007">
        <ele>1802.5</ele>
        <time>2026-06-27T07:54:05Z</time>
      </trkpt>
      <trkpt lat="46.12129" lon="6.72007">
        <ele>1802.5</ele>
        <time>2026-06-27T07:54:06Z</time>
      </trkpt>
      <trkpt lat="46.1213" lon="6.72007">
        <ele>1802.6</ele>
        <time>2026-06-27T07:54:07Z</time>
      </trkpt>
      <trkpt lat="46.1213" lon="6.72007">
        <ele>1802.7</ele>
        <time>2026-06-27T07:54:08Z</time>
      </trkpt>
      <trkpt lat="46.12131" lon="6.72007">
        <ele>1802.8</ele>
        <time>2026-06-27T07:54:09Z</time>
      </trkpt>
      <trkpt lat="46.12131" lon="6.72006">
        <ele>1802.9</ele>
        <time>2026-06-27T07:54:10Z</time>
      </trkpt>
      <trkpt lat="46.12132" lon="6.72006">
        <ele>1802.9</ele>
        <time>2026-06-27T07:54:11Z</time>
      </trkpt>
      <trkpt lat="46.12133" lon="6.72006">
        <ele>1802.9</ele>
        <time>2026-06-27T07:54:12Z</time>
      </trkpt>
      <trkpt lat="46.12133" lon="6.72006">
        <ele>1803</ele>
        <time>2026-06-27T07:54:13Z</time>
      </trkpt>
      <trkpt lat="46.12134" lon="6.72005">
        <ele>1803.1</ele>
        <time>2026-06-27T07:54:14Z</time>
      </trkpt>
      <trkpt lat="46.12135" lon="6.72005">
        <ele>1803.2</ele>
        <time>2026-06-27T07:54:15Z</time>
      </trkpt>
      <trkpt lat="46.12135" lon="6.72005">
        <ele>1803.4</ele>
        <time>2026-06-27T07:54:16Z</time>
      </trkpt>
      <trkpt lat="46.12136" lon="6.72004">
        <ele>1803.6</ele>
        <time>2026-06-27T07:54:17Z</time>
      </trkpt>
      <trkpt lat="46.12137" lon="6.72004">
        <ele>1803.7</ele>
        <time>2026-06-27T07:54:18Z</time>
      </trkpt>
      <trkpt lat="46.12137" lon="6.72004">
        <ele>1803.9</ele>
        <time>2026-06-27T07:54:19Z</time>
      </trkpt>
      <trkpt lat="46.12138" lon="6.72004">
        <ele>1804</ele>
        <time>2026-06-27T07:54:20Z</time>
      </trkpt>
      <trkpt lat="46.12138" lon="6.72004">
        <ele>1804.1</ele>
        <time>2026-06-27T07:54:21Z</time>
      </trkpt>
      <trkpt lat="46.12139" lon="6.72004">
        <ele>1804.2</ele>
        <time>2026-06-27T07:54:22Z</time>
      </trkpt>
      <trkpt lat="46.1214" lon="6.72004">
        <ele>1804.3</ele>
        <time>2026-06-27T07:54:23Z</time>
      </trkpt>
      <trkpt lat="46.1214" lon="6.72004">
        <ele>1804.3</ele>
        <time>2026-06-27T07:54:24Z</time>
      </trkpt>
      <trkpt lat="46.12141" lon="6.72004">
        <ele>1804.4</ele>
        <time>2026-06-27T07:54:25Z</time>
      </trkpt>
      <trkpt lat="46.12142" lon="6.72004">
        <ele>1804.5</ele>
        <time>2026-06-27T07:54:26Z</time>
      </trkpt>
      <trkpt lat="46.12142" lon="6.72004">
        <ele>1804.6</ele>
        <time>2026-06-27T07:54:27Z</time>
      </trkpt>
      <trkpt lat="46.12143" lon="6.72004">
        <ele>1804.9</ele>
        <time>2026-06-27T07:54:28Z</time>
      </trkpt>
      <trkpt lat="46.12144" lon="6.72004">
        <ele>1805.1</ele>
        <time>2026-06-27T07:54:29Z</time>
      </trkpt>
      <trkpt lat="46.12144" lon="6.72004">
        <ele>1805.2</ele>
        <time>2026-06-27T07:54:30Z</time>
      </trkpt>
      <trkpt lat="46.12145" lon="6.72004">
        <ele>1805.3</ele>
        <time>2026-06-27T07:54:31Z</time>
      </trkpt>
      <trkpt lat="46.12145" lon="6.72004">
        <ele>1805.5</ele>
        <time>2026-06-27T07:54:32Z</time>
      </trkpt>
      <trkpt lat="46.12146" lon="6.72004">
        <ele>1805.7</ele>
        <time>2026-06-27T07:54:33Z</time>
      </trkpt>
      <trkpt lat="46.12146" lon="6.72003">
        <ele>1805.8</ele>
        <time>2026-06-27T07:54:34Z</time>
      </trkpt>
      <trkpt lat="46.12147" lon="6.72003">
        <ele>1806</ele>
        <time>2026-06-27T07:54:35Z</time>
      </trkpt>
      <trkpt lat="46.12147" lon="6.72002">
        <ele>1806.1</ele>
        <time>2026-06-27T07:54:36Z</time>
      </trkpt>
      <trkpt lat="46.12148" lon="6.72002">
        <ele>1806.3</ele>
        <time>2026-06-27T07:54:37Z</time>
      </trkpt>
      <trkpt lat="46.12149" lon="6.72002">
        <ele>1806.4</ele>
        <time>2026-06-27T07:54:38Z</time>
      </trkpt>
      <trkpt lat="46.1215" lon="6.72002">
        <ele>1806.5</ele>
        <time>2026-06-27T07:54:39Z</time>
      </trkpt>
      <trkpt lat="46.1215" lon="6.72002">
        <ele>1806.7</ele>
        <time>2026-06-27T07:54:40Z</time>
      </trkpt>
      <trkpt lat="46.12151" lon="6.72002">
        <ele>1806.9</ele>
        <time>2026-06-27T07:54:41Z</time>
      </trkpt>
      <trkpt lat="46.12151" lon="6.72002">
        <ele>1807.1</ele>
        <time>2026-06-27T07:54:42Z</time>
      </trkpt>
      <trkpt lat="46.12152" lon="6.72002">
        <ele>1807.3</ele>
        <time>2026-06-27T07:54:43Z</time>
      </trkpt>
      <trkpt lat="46.12153" lon="6.72001">
        <ele>1807.4</ele>
        <time>2026-06-27T07:54:44Z</time>
      </trkpt>
      <trkpt lat="46.12153" lon="6.72001">
        <ele>1807.5</ele>
        <time>2026-06-27T07:54:45Z</time>
      </trkpt>
      <trkpt lat="46.12154" lon="6.72001">
        <ele>1807.6</ele>
        <time>2026-06-27T07:54:46Z</time>
      </trkpt>
      <trkpt lat="46.12155" lon="6.72001">
        <ele>1807.7</ele>
        <time>2026-06-27T07:54:47Z</time>
      </trkpt>
      <trkpt lat="46.12155" lon="6.72001">
        <ele>1807.9</ele>
        <time>2026-06-27T07:54:48Z</time>
      </trkpt>
      <trkpt lat="46.12156" lon="6.72">
        <ele>1808</ele>
        <time>2026-06-27T07:54:49Z</time>
      </trkpt>
      <trkpt lat="46.12157" lon="6.72">
        <ele>1808.2</ele>
        <time>2026-06-27T07:54:50Z</time>
      </trkpt>
      <trkpt lat="46.12158" lon="6.72">
        <ele>1808.3</ele>
        <time>2026-06-27T07:54:51Z</time>
      </trkpt>
      <trkpt lat="46.12158" lon="6.72">
        <ele>1808.4</ele>
        <time>2026-06-27T07:54:52Z</time>
      </trkpt>
      <trkpt lat="46.12159" lon="6.72">
        <ele>1808.7</ele>
        <time>2026-06-27T07:54:53Z</time>
      </trkpt>
      <trkpt lat="46.1216" lon="6.72">
        <ele>1808.7</ele>
        <time>2026-06-27T07:54:54Z</time>
      </trkpt>
      <trkpt lat="46.12161" lon="6.72001">
        <ele>1808.8</ele>
        <time>2026-06-27T07:54:55Z</time>
      </trkpt>
      <trkpt lat="46.12161" lon="6.72001">
        <ele>1809.1</ele>
        <time>2026-06-27T07:54:56Z</time>
      </trkpt>
      <trkpt lat="46.12162" lon="6.72001">
        <ele>1809.2</ele>
        <time>2026-06-27T07:54:57Z</time>
      </trkpt>
      <trkpt lat="46.12163" lon="6.72001">
        <ele>1809.3</ele>
        <time>2026-06-27T07:54:58Z</time>
      </trkpt>
      <trkpt lat="46.12164" lon="6.72002">
        <ele>1809.4</ele>
        <time>2026-06-27T07:54:59Z</time>
      </trkpt>
      <trkpt lat="46.12165" lon="6.72002">
        <ele>1809.5</ele>
        <time>2026-06-27T07:55:00Z</time>
      </trkpt>
      <trkpt lat="46.12165" lon="6.72002">
        <ele>1809.5</ele>
        <time>2026-06-27T07:55:01Z</time>
      </trkpt>
      <trkpt lat="46.12166" lon="6.72002">
        <ele>1809.6</ele>
        <time>2026-06-27T07:55:02Z</time>
      </trkpt>
      <trkpt lat="46.12166" lon="6.72002">
        <ele>1809.6</ele>
        <time>2026-06-27T07:55:03Z</time>
      </trkpt>
      <trkpt lat="46.12167" lon="6.72003">
        <ele>1809.6</ele>
        <time>2026-06-27T07:55:04Z</time>
      </trkpt>
      <trkpt lat="46.12167" lon="6.72003">
        <ele>1809.7</ele>
        <time>2026-06-27T07:55:05Z</time>
      </trkpt>
      <trkpt lat="46.12168" lon="6.72003">
        <ele>1809.9</ele>
        <time>2026-06-27T07:55:06Z</time>
      </trkpt>
      <trkpt lat="46.12169" lon="6.72002">
        <ele>1809.9</ele>
        <time>2026-06-27T07:55:07Z</time>
      </trkpt>
      <trkpt lat="46.12169" lon="6.72001">
        <ele>1809.9</ele>
        <time>2026-06-27T07:55:08Z</time>
      </trkpt>
      <trkpt lat="46.12169" lon="6.72001">
        <ele>1809.9</ele>
        <time>2026-06-27T07:55:09Z</time>
      </trkpt>
      <trkpt lat="46.1217" lon="6.72001">
        <ele>1809.9</ele>
        <time>2026-06-27T07:55:10Z</time>
      </trkpt>
      <trkpt lat="46.12171" lon="6.72001">
        <ele>1809.9</ele>
        <time>2026-06-27T07:55:11Z</time>
      </trkpt>
      <trkpt lat="46.12172" lon="6.72001">
        <ele>1810</ele>
        <time>2026-06-27T07:55:12Z</time>
      </trkpt>
      <trkpt lat="46.12173" lon="6.72001">
        <ele>1810.1</ele>
        <time>2026-06-27T07:55:13Z</time>
      </trkpt>
      <trkpt lat="46.12173" lon="6.72001">
        <ele>1810.2</ele>
        <time>2026-06-27T07:55:14Z</time>
      </trkpt>
      <trkpt lat="46.12174" lon="6.72001">
        <ele>1810.4</ele>
        <time>2026-06-27T07:55:15Z</time>
      </trkpt>
      <trkpt lat="46.12175" lon="6.72001">
        <ele>1810.5</ele>
        <time>2026-06-27T07:55:16Z</time>
      </trkpt>
      <trkpt lat="46.12176" lon="6.72001">
        <ele>1810.6</ele>
        <time>2026-06-27T07:55:17Z</time>
      </trkpt>
      <trkpt lat="46.12177" lon="6.72">
        <ele>1810.6</ele>
        <time>2026-06-27T07:55:18Z</time>
      </trkpt>
      <trkpt lat="46.12178" lon="6.72001">
        <ele>1810.7</ele>
        <time>2026-06-27T07:55:19Z</time>
      </trkpt>
      <trkpt lat="46.12179" lon="6.72001">
        <ele>1810.7</ele>
        <time>2026-06-27T07:55:20Z</time>
      </trkpt>
      <trkpt lat="46.12179" lon="6.72001">
        <ele>1810.8</ele>
        <time>2026-06-27T07:55:21Z</time>
      </trkpt>
      <trkpt lat="46.1218" lon="6.72001">
        <ele>1810.9</ele>
        <time>2026-06-27T07:55:22Z</time>
      </trkpt>
      <trkpt lat="46.12181" lon="6.72001">
        <ele>1811</ele>
        <time>2026-06-27T07:55:23Z</time>
      </trkpt>
      <trkpt lat="46.12182" lon="6.72001">
        <ele>1811.1</ele>
        <time>2026-06-27T07:55:24Z</time>
      </trkpt>
      <trkpt lat="46.12183" lon="6.72001">
        <ele>1811.2</ele>
        <time>2026-06-27T07:55:25Z</time>
      </trkpt>
      <trkpt lat="46.12184" lon="6.72001">
        <ele>1811.4</ele>
        <time>2026-06-27T07:55:26Z</time>
      </trkpt>
      <trkpt lat="46.12185" lon="6.72002">
        <ele>1811.5</ele>
        <time>2026-06-27T07:55:27Z</time>
      </trkpt>
      <trkpt lat="46.12185" lon="6.72002">
        <ele>1811.6</ele>
        <time>2026-06-27T07:55:28Z</time>
      </trkpt>
      <trkpt lat="46.12186" lon="6.72002">
        <ele>1811.7</ele>
        <time>2026-06-27T07:55:29Z</time>
      </trkpt>
      <trkpt lat="46.12187" lon="6.72002">
        <ele>1811.8</ele>
        <time>2026-06-27T07:55:30Z</time>
      </trkpt>
      <trkpt lat="46.12188" lon="6.72002">
        <ele>1811.8</ele>
        <time>2026-06-27T07:55:31Z</time>
      </trkpt>
      <trkpt lat="46.12189" lon="6.72002">
        <ele>1812</ele>
        <time>2026-06-27T07:55:32Z</time>
      </trkpt>
      <trkpt lat="46.1219" lon="6.72002">
        <ele>1812</ele>
        <time>2026-06-27T07:55:33Z</time>
      </trkpt>
      <trkpt lat="46.1219" lon="6.72002">
        <ele>1812.2</ele>
        <time>2026-06-27T07:55:34Z</time>
      </trkpt>
      <trkpt lat="46.12191" lon="6.72002">
        <ele>1812.3</ele>
        <time>2026-06-27T07:55:35Z</time>
      </trkpt>
      <trkpt lat="46.12192" lon="6.72002">
        <ele>1812.3</ele>
        <time>2026-06-27T07:55:36Z</time>
      </trkpt>
      <trkpt lat="46.12193" lon="6.72002">
        <ele>1812.5</ele>
        <time>2026-06-27T07:55:37Z</time>
      </trkpt>
      <trkpt lat="46.12194" lon="6.72002">
        <ele>1812.5</ele>
        <time>2026-06-27T07:55:38Z</time>
      </trkpt>
      <trkpt lat="46.12194" lon="6.72003">
        <ele>1812.6</ele>
        <time>2026-06-27T07:55:39Z</time>
      </trkpt>
      <trkpt lat="46.12195" lon="6.72003">
        <ele>1812.7</ele>
        <time>2026-06-27T07:55:40Z</time>
      </trkpt>
      <trkpt lat="46.12196" lon="6.72003">
        <ele>1812.7</ele>
        <time>2026-06-27T07:55:41Z</time>
      </trkpt>
      <trkpt lat="46.12197" lon="6.72003">
        <ele>1812.8</ele>
        <time>2026-06-27T07:55:42Z</time>
      </trkpt>
      <trkpt lat="46.12198" lon="6.72004">
        <ele>1812.9</ele>
        <time>2026-06-27T07:55:43Z</time>
      </trkpt>
      <trkpt lat="46.12199" lon="6.72004">
        <ele>1813</ele>
        <time>2026-06-27T07:55:44Z</time>
      </trkpt>
      <trkpt lat="46.122" lon="6.72004">
        <ele>1813.1</ele>
        <time>2026-06-27T07:55:45Z</time>
      </trkpt>
      <trkpt lat="46.12201" lon="6.72004">
        <ele>1813.2</ele>
        <time>2026-06-27T07:55:46Z</time>
      </trkpt>
      <trkpt lat="46.12202" lon="6.72005">
        <ele>1813.3</ele>
        <time>2026-06-27T07:55:47Z</time>
      </trkpt>
      <trkpt lat="46.12203" lon="6.72005">
        <ele>1813.5</ele>
        <time>2026-06-27T07:55:48Z</time>
      </trkpt>
      <trkpt lat="46.12204" lon="6.72005">
        <ele>1813.5</ele>
        <time>2026-06-27T07:55:49Z</time>
      </trkpt>
      <trkpt lat="46.12205" lon="6.72005">
        <ele>1813.6</ele>
        <time>2026-06-27T07:55:50Z</time>
      </trkpt>
      <trkpt lat="46.12205" lon="6.72006">
        <ele>1813.7</ele>
        <time>2026-06-27T07:55:51Z</time>
      </trkpt>
      <trkpt lat="46.12206" lon="6.72006">
        <ele>1813.8</ele>
        <time>2026-06-27T07:55:52Z</time>
      </trkpt>
      <trkpt lat="46.12208" lon="6.72006">
        <ele>1813.8</ele>
        <time>2026-06-27T07:55:53Z</time>
      </trkpt>
      <trkpt lat="46.12209" lon="6.72006">
        <ele>1813.9</ele>
        <time>2026-06-27T07:55:54Z</time>
      </trkpt>
      <trkpt lat="46.1221" lon="6.72005">
        <ele>1814.1</ele>
        <time>2026-06-27T07:55:55Z</time>
      </trkpt>
      <trkpt lat="46.1221" lon="6.72005">
        <ele>1814.2</ele>
        <time>2026-06-27T07:55:56Z</time>
      </trkpt>
      <trkpt lat="46.12211" lon="6.72005">
        <ele>1814.3</ele>
        <time>2026-06-27T07:55:57Z</time>
      </trkpt>
      <trkpt lat="46.12212" lon="6.72004">
        <ele>1814.4</ele>
        <time>2026-06-27T07:55:58Z</time>
      </trkpt>
      <trkpt lat="46.12212" lon="6.72005">
        <ele>1814.6</ele>
        <time>2026-06-27T07:55:59Z</time>
      </trkpt>
      <trkpt lat="46.12213" lon="6.72005">
        <ele>1814.7</ele>
        <time>2026-06-27T07:56:00Z</time>
      </trkpt>
      <trkpt lat="46.12214" lon="6.72004">
        <ele>1814.8</ele>
        <time>2026-06-27T07:56:01Z</time>
      </trkpt>
      <trkpt lat="46.12215" lon="6.72004">
        <ele>1814.9</ele>
        <time>2026-06-27T07:56:02Z</time>
      </trkpt>
      <trkpt lat="46.12215" lon="6.72003">
        <ele>1815</ele>
        <time>2026-06-27T07:56:03Z</time>
      </trkpt>
      <trkpt lat="46.12216" lon="6.72003">
        <ele>1815</ele>
        <time>2026-06-27T07:56:04Z</time>
      </trkpt>
      <trkpt lat="46.12217" lon="6.72002">
        <ele>1815.2</ele>
        <time>2026-06-27T07:56:05Z</time>
      </trkpt>
      <trkpt lat="46.12218" lon="6.72001">
        <ele>1815.3</ele>
        <time>2026-06-27T07:56:06Z</time>
      </trkpt>
      <trkpt lat="46.12219" lon="6.72001">
        <ele>1815.5</ele>
        <time>2026-06-27T07:56:07Z</time>
      </trkpt>
      <trkpt lat="46.12219" lon="6.72">
        <ele>1815.6</ele>
        <time>2026-06-27T07:56:08Z</time>
      </trkpt>
      <trkpt lat="46.1222" lon="6.72">
        <ele>1815.6</ele>
        <time>2026-06-27T07:56:09Z</time>
      </trkpt>
      <trkpt lat="46.12221" lon="6.72">
        <ele>1815.7</ele>
        <time>2026-06-27T07:56:10Z</time>
      </trkpt>
      <trkpt lat="46.12221" lon="6.72">
        <ele>1815.8</ele>
        <time>2026-06-27T07:56:11Z</time>
      </trkpt>
      <trkpt lat="46.12221" lon="6.72">
        <ele>1815.9</ele>
        <time>2026-06-27T07:56:12Z</time>
      </trkpt>
      <trkpt lat="46.12222" lon="6.72">
        <ele>1816</ele>
        <time>2026-06-27T07:56:13Z</time>
      </trkpt>
      <trkpt lat="46.12223" lon="6.72">
        <ele>1816.1</ele>
        <time>2026-06-27T07:56:14Z</time>
      </trkpt>
      <trkpt lat="46.12223" lon="6.71999">
        <ele>1816.2</ele>
        <time>2026-06-27T07:56:15Z</time>
      </trkpt>
      <trkpt lat="46.12224" lon="6.71999">
        <ele>1816.4</ele>
        <time>2026-06-27T07:56:16Z</time>
      </trkpt>
      <trkpt lat="46.12225" lon="6.71999">
        <ele>1816.6</ele>
        <time>2026-06-27T07:56:17Z</time>
      </trkpt>
      <trkpt lat="46.12226" lon="6.71999">
        <ele>1816.7</ele>
        <time>2026-06-27T07:56:18Z</time>
      </trkpt>
      <trkpt lat="46.12226" lon="6.71998">
        <ele>1816.9</ele>
        <time>2026-06-27T07:56:19Z</time>
      </trkpt>
      <trkpt lat="46.12227" lon="6.71997">
        <ele>1816.9</ele>
        <time>2026-06-27T07:56:20Z</time>
      </trkpt>
      <trkpt lat="46.12227" lon="6.71997">
        <ele>1817.1</ele>
        <time>2026-06-27T07:56:21Z</time>
      </trkpt>
      <trkpt lat="46.12228" lon="6.71996">
        <ele>1817.3</ele>
        <time>2026-06-27T07:56:22Z</time>
      </trkpt>
      <trkpt lat="46.12228" lon="6.71996">
        <ele>1817.4</ele>
        <time>2026-06-27T07:56:23Z</time>
      </trkpt>
      <trkpt lat="46.12229" lon="6.71995">
        <ele>1817.5</ele>
        <time>2026-06-27T07:56:24Z</time>
      </trkpt>
      <trkpt lat="46.1223" lon="6.71994">
        <ele>1817.5</ele>
        <time>2026-06-27T07:56:25Z</time>
      </trkpt>
      <trkpt lat="46.12231" lon="6.71993">
        <ele>1817.7</ele>
        <time>2026-06-27T07:56:26Z</time>
      </trkpt>
      <trkpt lat="46.12232" lon="6.71993">
        <ele>1817.8</ele>
        <time>2026-06-27T07:56:27Z</time>
      </trkpt>
      <trkpt lat="46.12232" lon="6.71992">
        <ele>1817.8</ele>
        <time>2026-06-27T07:56:28Z</time>
      </trkpt>
      <trkpt lat="46.12233" lon="6.71991">
        <ele>1818.1</ele>
        <time>2026-06-27T07:56:29Z</time>
      </trkpt>
      <trkpt lat="46.12233" lon="6.71991">
        <ele>1818.2</ele>
        <time>2026-06-27T07:56:30Z</time>
      </trkpt>
      <trkpt lat="46.12234" lon="6.7199">
        <ele>1818.4</ele>
        <time>2026-06-27T07:56:31Z</time>
      </trkpt>
      <trkpt lat="46.12235" lon="6.7199">
        <ele>1818.5</ele>
        <time>2026-06-27T07:56:32Z</time>
      </trkpt>
      <trkpt lat="46.12236" lon="6.7199">
        <ele>1818.6</ele>
        <time>2026-06-27T07:56:33Z</time>
      </trkpt>
      <trkpt lat="46.12237" lon="6.71989">
        <ele>1818.8</ele>
        <time>2026-06-27T07:56:34Z</time>
      </trkpt>
      <trkpt lat="46.12237" lon="6.71989">
        <ele>1818.9</ele>
        <time>2026-06-27T07:56:35Z</time>
      </trkpt>
      <trkpt lat="46.12238" lon="6.71989">
        <ele>1818.9</ele>
        <time>2026-06-27T07:56:36Z</time>
      </trkpt>
      <trkpt lat="46.12239" lon="6.71988">
        <ele>1819</ele>
        <time>2026-06-27T07:56:37Z</time>
      </trkpt>
      <trkpt lat="46.1224" lon="6.71988">
        <ele>1819.1</ele>
        <time>2026-06-27T07:56:38Z</time>
      </trkpt>
      <trkpt lat="46.12241" lon="6.71987">
        <ele>1819.2</ele>
        <time>2026-06-27T07:56:39Z</time>
      </trkpt>
      <trkpt lat="46.12242" lon="6.71986">
        <ele>1819.2</ele>
        <time>2026-06-27T07:56:40Z</time>
      </trkpt>
      <trkpt lat="46.12242" lon="6.71986">
        <ele>1819.3</ele>
        <time>2026-06-27T07:56:41Z</time>
      </trkpt>
      <trkpt lat="46.12243" lon="6.71985">
        <ele>1819.4</ele>
        <time>2026-06-27T07:56:42Z</time>
      </trkpt>
      <trkpt lat="46.12243" lon="6.71984">
        <ele>1819.5</ele>
        <time>2026-06-27T07:56:43Z</time>
      </trkpt>
      <trkpt lat="46.12244" lon="6.71983">
        <ele>1819.5</ele>
        <time>2026-06-27T07:56:44Z</time>
      </trkpt>
      <trkpt lat="46.12245" lon="6.71983">
        <ele>1819.5</ele>
        <time>2026-06-27T07:56:45Z</time>
      </trkpt>
      <trkpt lat="46.12246" lon="6.71982">
        <ele>1819.5</ele>
        <time>2026-06-27T07:56:46Z</time>
      </trkpt>
      <trkpt lat="46.12247" lon="6.71981">
        <ele>1819.5</ele>
        <time>2026-06-27T07:56:47Z</time>
      </trkpt>
      <trkpt lat="46.12248" lon="6.7198">
        <ele>1819.6</ele>
        <time>2026-06-27T07:56:48Z</time>
      </trkpt>
      <trkpt lat="46.12248" lon="6.7198">
        <ele>1819.5</ele>
        <time>2026-06-27T07:56:49Z</time>
      </trkpt>
      <trkpt lat="46.12249" lon="6.71979">
        <ele>1819.5</ele>
        <time>2026-06-27T07:56:50Z</time>
      </trkpt>
      <trkpt lat="46.1225" lon="6.71978">
        <ele>1819.5</ele>
        <time>2026-06-27T07:56:51Z</time>
      </trkpt>
      <trkpt lat="46.12251" lon="6.71977">
        <ele>1819.5</ele>
        <time>2026-06-27T07:56:52Z</time>
      </trkpt>
      <trkpt lat="46.12251" lon="6.71976">
        <ele>1819.6</ele>
        <time>2026-06-27T07:56:53Z</time>
      </trkpt>
      <trkpt lat="46.12252" lon="6.71975">
        <ele>1819.6</ele>
        <time>2026-06-27T07:56:54Z</time>
      </trkpt>
      <trkpt lat="46.12253" lon="6.71974">
        <ele>1819.6</ele>
        <time>2026-06-27T07:56:55Z</time>
      </trkpt>
      <trkpt lat="46.12254" lon="6.71974">
        <ele>1819.6</ele>
        <time>2026-06-27T07:56:56Z</time>
      </trkpt>
      <trkpt lat="46.12254" lon="6.71973">
        <ele>1819.6</ele>
        <time>2026-06-27T07:56:57Z</time>
      </trkpt>
      <trkpt lat="46.12255" lon="6.71972">
        <ele>1819.6</ele>
        <time>2026-06-27T07:56:58Z</time>
      </trkpt>
      <trkpt lat="46.12256" lon="6.71972">
        <ele>1819.5</ele>
        <time>2026-06-27T07:56:59Z</time>
      </trkpt>
      <trkpt lat="46.12257" lon="6.71971">
        <ele>1819.5</ele>
        <time>2026-06-27T07:57:00Z</time>
      </trkpt>
      <trkpt lat="46.12258" lon="6.7197">
        <ele>1819.5</ele>
        <time>2026-06-27T07:57:01Z</time>
      </trkpt>
      <trkpt lat="46.12259" lon="6.71969">
        <ele>1819.5</ele>
        <time>2026-06-27T07:57:02Z</time>
      </trkpt>
      <trkpt lat="46.12259" lon="6.71968">
        <ele>1819.5</ele>
        <time>2026-06-27T07:57:03Z</time>
      </trkpt>
      <trkpt lat="46.1226" lon="6.71967">
        <ele>1819.6</ele>
        <time>2026-06-27T07:57:04Z</time>
      </trkpt>
      <trkpt lat="46.12261" lon="6.71966">
        <ele>1819.7</ele>
        <time>2026-06-27T07:57:05Z</time>
      </trkpt>
      <trkpt lat="46.12262" lon="6.71965">
        <ele>1819.7</ele>
        <time>2026-06-27T07:57:06Z</time>
      </trkpt>
      <trkpt lat="46.12263" lon="6.71964">
        <ele>1819.7</ele>
        <time>2026-06-27T07:57:07Z</time>
      </trkpt>
      <trkpt lat="46.12263" lon="6.71963">
        <ele>1819.8</ele>
        <time>2026-06-27T07:57:08Z</time>
      </trkpt>
      <trkpt lat="46.12264" lon="6.71963">
        <ele>1819.7</ele>
        <time>2026-06-27T07:57:09Z</time>
      </trkpt>
      <trkpt lat="46.12265" lon="6.71962">
        <ele>1819.7</ele>
        <time>2026-06-27T07:57:10Z</time>
      </trkpt>
      <trkpt lat="46.12266" lon="6.71962">
        <ele>1819.7</ele>
        <time>2026-06-27T07:57:11Z</time>
      </trkpt>
      <trkpt lat="46.12267" lon="6.71962">
        <ele>1819.7</ele>
        <time>2026-06-27T07:57:12Z</time>
      </trkpt>
      <trkpt lat="46.12268" lon="6.71962">
        <ele>1819.7</ele>
        <time>2026-06-27T07:57:13Z</time>
      </trkpt>
      <trkpt lat="46.12269" lon="6.71963">
        <ele>1819.7</ele>
        <time>2026-06-27T07:57:14Z</time>
      </trkpt>
      <trkpt lat="46.1227" lon="6.71963">
        <ele>1819.7</ele>
        <time>2026-06-27T07:57:15Z</time>
      </trkpt>
      <trkpt lat="46.12271" lon="6.71963">
        <ele>1819.7</ele>
        <time>2026-06-27T07:57:16Z</time>
      </trkpt>
      <trkpt lat="46.12272" lon="6.71962">
        <ele>1819.6</ele>
        <time>2026-06-27T07:57:17Z</time>
      </trkpt>
      <trkpt lat="46.12273" lon="6.71962">
        <ele>1819.6</ele>
        <time>2026-06-27T07:57:18Z</time>
      </trkpt>
      <trkpt lat="46.12274" lon="6.71962">
        <ele>1819.6</ele>
        <time>2026-06-27T07:57:19Z</time>
      </trkpt>
      <trkpt lat="46.12276" lon="6.71962">
        <ele>1819.6</ele>
        <time>2026-06-27T07:57:20Z</time>
      </trkpt>
      <trkpt lat="46.12277" lon="6.71962">
        <ele>1819.6</ele>
        <time>2026-06-27T07:57:21Z</time>
      </trkpt>
      <trkpt lat="46.12278" lon="6.71962">
        <ele>1819.6</ele>
        <time>2026-06-27T07:57:22Z</time>
      </trkpt>
      <trkpt lat="46.12278" lon="6.71962">
        <ele>1819.7</ele>
        <time>2026-06-27T07:57:23Z</time>
      </trkpt>
      <trkpt lat="46.12279" lon="6.71962">
        <ele>1819.8</ele>
        <time>2026-06-27T07:57:24Z</time>
      </trkpt>
      <trkpt lat="46.1228" lon="6.71962">
        <ele>1819.9</ele>
        <time>2026-06-27T07:57:25Z</time>
      </trkpt>
      <trkpt lat="46.12281" lon="6.71961">
        <ele>1820</ele>
        <time>2026-06-27T07:57:26Z</time>
      </trkpt>
      <trkpt lat="46.12283" lon="6.71961">
        <ele>1820.1</ele>
        <time>2026-06-27T07:57:27Z</time>
      </trkpt>
      <trkpt lat="46.12284" lon="6.71961">
        <ele>1820.2</ele>
        <time>2026-06-27T07:57:28Z</time>
      </trkpt>
      <trkpt lat="46.12284" lon="6.71961">
        <ele>1820.3</ele>
        <time>2026-06-27T07:57:29Z</time>
      </trkpt>
      <trkpt lat="46.12285" lon="6.71961">
        <ele>1820.3</ele>
        <time>2026-06-27T07:57:30Z</time>
      </trkpt>
      <trkpt lat="46.12287" lon="6.7196">
        <ele>1820.4</ele>
        <time>2026-06-27T07:57:31Z</time>
      </trkpt>
      <trkpt lat="46.12287" lon="6.7196">
        <ele>1820.5</ele>
        <time>2026-06-27T07:57:32Z</time>
      </trkpt>
      <trkpt lat="46.12288" lon="6.71959">
        <ele>1820.6</ele>
        <time>2026-06-27T07:57:33Z</time>
      </trkpt>
      <trkpt lat="46.12289" lon="6.71958">
        <ele>1820.7</ele>
        <time>2026-06-27T07:57:34Z</time>
      </trkpt>
      <trkpt lat="46.1229" lon="6.71957">
        <ele>1820.7</ele>
        <time>2026-06-27T07:57:35Z</time>
      </trkpt>
      <trkpt lat="46.12291" lon="6.71956">
        <ele>1820.9</ele>
        <time>2026-06-27T07:57:36Z</time>
      </trkpt>
      <trkpt lat="46.12291" lon="6.71955">
        <ele>1821</ele>
        <time>2026-06-27T07:57:37Z</time>
      </trkpt>
      <trkpt lat="46.12292" lon="6.71955">
        <ele>1821.2</ele>
        <time>2026-06-27T07:57:38Z</time>
      </trkpt>
      <trkpt lat="46.12293" lon="6.71954">
        <ele>1821.3</ele>
        <time>2026-06-27T07:57:39Z</time>
      </trkpt>
      <trkpt lat="46.12293" lon="6.71954">
        <ele>1821.5</ele>
        <time>2026-06-27T07:57:40Z</time>
      </trkpt>
      <trkpt lat="46.12294" lon="6.71954">
        <ele>1821.6</ele>
        <time>2026-06-27T07:57:41Z</time>
      </trkpt>
      <trkpt lat="46.12295" lon="6.71953">
        <ele>1821.8</ele>
        <time>2026-06-27T07:57:42Z</time>
      </trkpt>
      <trkpt lat="46.12296" lon="6.71953">
        <ele>1821.8</ele>
        <time>2026-06-27T07:57:43Z</time>
      </trkpt>
      <trkpt lat="46.12296" lon="6.71952">
        <ele>1821.9</ele>
        <time>2026-06-27T07:57:44Z</time>
      </trkpt>
      <trkpt lat="46.12297" lon="6.71951">
        <ele>1822</ele>
        <time>2026-06-27T07:57:45Z</time>
      </trkpt>
      <trkpt lat="46.12298" lon="6.7195">
        <ele>1822</ele>
        <time>2026-06-27T07:57:46Z</time>
      </trkpt>
      <trkpt lat="46.12298" lon="6.71949">
        <ele>1822</ele>
        <time>2026-06-27T07:57:47Z</time>
      </trkpt>
      <trkpt lat="46.12299" lon="6.71948">
        <ele>1821.8</ele>
        <time>2026-06-27T07:57:48Z</time>
      </trkpt>
      <trkpt lat="46.123" lon="6.71947">
        <ele>1821.7</ele>
        <time>2026-06-27T07:57:49Z</time>
      </trkpt>
      <trkpt lat="46.12301" lon="6.71946">
        <ele>1821.6</ele>
        <time>2026-06-27T07:57:50Z</time>
      </trkpt>
      <trkpt lat="46.12301" lon="6.71945">
        <ele>1821.6</ele>
        <time>2026-06-27T07:57:51Z</time>
      </trkpt>
      <trkpt lat="46.12302" lon="6.71945">
        <ele>1821.6</ele>
        <time>2026-06-27T07:57:52Z</time>
      </trkpt>
      <trkpt lat="46.12303" lon="6.71944">
        <ele>1821.5</ele>
        <time>2026-06-27T07:57:53Z</time>
      </trkpt>
      <trkpt lat="46.12304" lon="6.71943">
        <ele>1821.5</ele>
        <time>2026-06-27T07:57:54Z</time>
      </trkpt>
      <trkpt lat="46.12305" lon="6.71943">
        <ele>1821.5</ele>
        <time>2026-06-27T07:57:55Z</time>
      </trkpt>
      <trkpt lat="46.12306" lon="6.71942">
        <ele>1821.5</ele>
        <time>2026-06-27T07:57:56Z</time>
      </trkpt>
      <trkpt lat="46.12307" lon="6.71942">
        <ele>1821.5</ele>
        <time>2026-06-27T07:57:57Z</time>
      </trkpt>
      <trkpt lat="46.12308" lon="6.71942">
        <ele>1821.6</ele>
        <time>2026-06-27T07:57:58Z</time>
      </trkpt>
      <trkpt lat="46.12309" lon="6.71942">
        <ele>1821.6</ele>
        <time>2026-06-27T07:57:59Z</time>
      </trkpt>
      <trkpt lat="46.12309" lon="6.71942">
        <ele>1821.8</ele>
        <time>2026-06-27T07:58:00Z</time>
      </trkpt>
      <trkpt lat="46.1231" lon="6.71941">
        <ele>1821.9</ele>
        <time>2026-06-27T07:58:01Z</time>
      </trkpt>
      <trkpt lat="46.12311" lon="6.71941">
        <ele>1822.1</ele>
        <time>2026-06-27T07:58:02Z</time>
      </trkpt>
      <trkpt lat="46.12312" lon="6.7194">
        <ele>1822.2</ele>
        <time>2026-06-27T07:58:03Z</time>
      </trkpt>
      <trkpt lat="46.12313" lon="6.7194">
        <ele>1822.4</ele>
        <time>2026-06-27T07:58:04Z</time>
      </trkpt>
      <trkpt lat="46.12314" lon="6.7194">
        <ele>1822.6</ele>
        <time>2026-06-27T07:58:05Z</time>
      </trkpt>
      <trkpt lat="46.12315" lon="6.7194">
        <ele>1822.8</ele>
        <time>2026-06-27T07:58:06Z</time>
      </trkpt>
      <trkpt lat="46.12316" lon="6.71939">
        <ele>1822.9</ele>
        <time>2026-06-27T07:58:07Z</time>
      </trkpt>
      <trkpt lat="46.12317" lon="6.71939">
        <ele>1823</ele>
        <time>2026-06-27T07:58:08Z</time>
      </trkpt>
      <trkpt lat="46.12318" lon="6.71939">
        <ele>1823</ele>
        <time>2026-06-27T07:58:09Z</time>
      </trkpt>
      <trkpt lat="46.12319" lon="6.71939">
        <ele>1823.1</ele>
        <time>2026-06-27T07:58:10Z</time>
      </trkpt>
      <trkpt lat="46.1232" lon="6.71939">
        <ele>1823.2</ele>
        <time>2026-06-27T07:58:11Z</time>
      </trkpt>
      <trkpt lat="46.12321" lon="6.71939">
        <ele>1823.2</ele>
        <time>2026-06-27T07:58:12Z</time>
      </trkpt>
      <trkpt lat="46.12322" lon="6.71938">
        <ele>1823.2</ele>
        <time>2026-06-27T07:58:13Z</time>
      </trkpt>
      <trkpt lat="46.12323" lon="6.71938">
        <ele>1823.2</ele>
        <time>2026-06-27T07:58:14Z</time>
      </trkpt>
      <trkpt lat="46.12324" lon="6.71937">
        <ele>1823.2</ele>
        <time>2026-06-27T07:58:15Z</time>
      </trkpt>
      <trkpt lat="46.12325" lon="6.71937">
        <ele>1823.2</ele>
        <time>2026-06-27T07:58:16Z</time>
      </trkpt>
      <trkpt lat="46.12326" lon="6.71936">
        <ele>1823.2</ele>
        <time>2026-06-27T07:58:17Z</time>
      </trkpt>
      <trkpt lat="46.12327" lon="6.71935">
        <ele>1823.2</ele>
        <time>2026-06-27T07:58:18Z</time>
      </trkpt>
      <trkpt lat="46.12328" lon="6.71934">
        <ele>1823.1</ele>
        <time>2026-06-27T07:58:19Z</time>
      </trkpt>
      <trkpt lat="46.12329" lon="6.71934">
        <ele>1823</ele>
        <time>2026-06-27T07:58:20Z</time>
      </trkpt>
      <trkpt lat="46.1233" lon="6.71932">
        <ele>1823</ele>
        <time>2026-06-27T07:58:21Z</time>
      </trkpt>
      <trkpt lat="46.12331" lon="6.71931">
        <ele>1823</ele>
        <time>2026-06-27T07:58:22Z</time>
      </trkpt>
      <trkpt lat="46.12332" lon="6.7193">
        <ele>1822.9</ele>
        <time>2026-06-27T07:58:23Z</time>
      </trkpt>
      <trkpt lat="46.12333" lon="6.71929">
        <ele>1823</ele>
        <time>2026-06-27T07:58:24Z</time>
      </trkpt>
      <trkpt lat="46.12334" lon="6.71928">
        <ele>1823.1</ele>
        <time>2026-06-27T07:58:25Z</time>
      </trkpt>
      <trkpt lat="46.12335" lon="6.71927">
        <ele>1823.1</ele>
        <time>2026-06-27T07:58:26Z</time>
      </trkpt>
      <trkpt lat="46.12336" lon="6.71926">
        <ele>1823.1</ele>
        <time>2026-06-27T07:58:27Z</time>
      </trkpt>
      <trkpt lat="46.12337" lon="6.71925">
        <ele>1823.2</ele>
        <time>2026-06-27T07:58:28Z</time>
      </trkpt>
      <trkpt lat="46.12338" lon="6.71924">
        <ele>1823.2</ele>
        <time>2026-06-27T07:58:29Z</time>
      </trkpt>
      <trkpt lat="46.12339" lon="6.71923">
        <ele>1823.2</ele>
        <time>2026-06-27T07:58:30Z</time>
      </trkpt>
      <trkpt lat="46.1234" lon="6.71922">
        <ele>1823.2</ele>
        <time>2026-06-27T07:58:31Z</time>
      </trkpt>
      <trkpt lat="46.1234" lon="6.71921">
        <ele>1823.3</ele>
        <time>2026-06-27T07:58:32Z</time>
      </trkpt>
      <trkpt lat="46.12341" lon="6.7192">
        <ele>1823.3</ele>
        <time>2026-06-27T07:58:33Z</time>
      </trkpt>
      <trkpt lat="46.12342" lon="6.71919">
        <ele>1823.4</ele>
        <time>2026-06-27T07:58:34Z</time>
      </trkpt>
      <trkpt lat="46.12343" lon="6.71918">
        <ele>1823.5</ele>
        <time>2026-06-27T07:58:35Z</time>
      </trkpt>
      <trkpt lat="46.12344" lon="6.71917">
        <ele>1823.6</ele>
        <time>2026-06-27T07:58:36Z</time>
      </trkpt>
      <trkpt lat="46.12345" lon="6.71916">
        <ele>1823.7</ele>
        <time>2026-06-27T07:58:37Z</time>
      </trkpt>
      <trkpt lat="46.12345" lon="6.71915">
        <ele>1823.8</ele>
        <time>2026-06-27T07:58:38Z</time>
      </trkpt>
      <trkpt lat="46.12346" lon="6.71914">
        <ele>1823.8</ele>
        <time>2026-06-27T07:58:39Z</time>
      </trkpt>
      <trkpt lat="46.12347" lon="6.71913">
        <ele>1823.9</ele>
        <time>2026-06-27T07:58:40Z</time>
      </trkpt>
      <trkpt lat="46.12347" lon="6.71911">
        <ele>1823.9</ele>
        <time>2026-06-27T07:58:41Z</time>
      </trkpt>
      <trkpt lat="46.12348" lon="6.7191">
        <ele>1823.9</ele>
        <time>2026-06-27T07:58:42Z</time>
      </trkpt>
      <trkpt lat="46.12349" lon="6.71909">
        <ele>1823.9</ele>
        <time>2026-06-27T07:58:43Z</time>
      </trkpt>
      <trkpt lat="46.12349" lon="6.71909">
        <ele>1824</ele>
        <time>2026-06-27T07:58:44Z</time>
      </trkpt>
      <trkpt lat="46.1235" lon="6.71908">
        <ele>1824</ele>
        <time>2026-06-27T07:58:45Z</time>
      </trkpt>
      <trkpt lat="46.12351" lon="6.71907">
        <ele>1824</ele>
        <time>2026-06-27T07:58:46Z</time>
      </trkpt>
      <trkpt lat="46.12352" lon="6.71906">
        <ele>1824</ele>
        <time>2026-06-27T07:58:47Z</time>
      </trkpt>
      <trkpt lat="46.12353" lon="6.71905">
        <ele>1824.2</ele>
        <time>2026-06-27T07:58:48Z</time>
      </trkpt>
      <trkpt lat="46.12353" lon="6.71904">
        <ele>1824.3</ele>
        <time>2026-06-27T07:58:49Z</time>
      </trkpt>
      <trkpt lat="46.12354" lon="6.71903">
        <ele>1824.4</ele>
        <time>2026-06-27T07:58:50Z</time>
      </trkpt>
      <trkpt lat="46.12355" lon="6.71903">
        <ele>1824.5</ele>
        <time>2026-06-27T07:58:51Z</time>
      </trkpt>
      <trkpt lat="46.12355" lon="6.71902">
        <ele>1824.5</ele>
        <time>2026-06-27T07:58:52Z</time>
      </trkpt>
      <trkpt lat="46.12356" lon="6.71902">
        <ele>1824.6</ele>
        <time>2026-06-27T07:58:53Z</time>
      </trkpt>
      <trkpt lat="46.12356" lon="6.71902">
        <ele>1824.6</ele>
        <time>2026-06-27T07:58:54Z</time>
      </trkpt>
      <trkpt lat="46.12356" lon="6.71901">
        <ele>1824.7</ele>
        <time>2026-06-27T07:58:55Z</time>
      </trkpt>
      <trkpt lat="46.12356" lon="6.71901">
        <ele>1824.8</ele>
        <time>2026-06-27T07:58:56Z</time>
      </trkpt>
      <trkpt lat="46.12357" lon="6.719">
        <ele>1824.8</ele>
        <time>2026-06-27T07:58:57Z</time>
      </trkpt>
      <trkpt lat="46.12357" lon="6.719">
        <ele>1824.9</ele>
        <time>2026-06-27T07:58:58Z</time>
      </trkpt>
      <trkpt lat="46.12358" lon="6.719">
        <ele>1825.1</ele>
        <time>2026-06-27T07:58:59Z</time>
      </trkpt>
      <trkpt lat="46.12359" lon="6.719">
        <ele>1825.2</ele>
        <time>2026-06-27T07:59:00Z</time>
      </trkpt>
      <trkpt lat="46.12359" lon="6.719">
        <ele>1825.3</ele>
        <time>2026-06-27T07:59:01Z</time>
      </trkpt>
      <trkpt lat="46.12359" lon="6.71899">
        <ele>1825.4</ele>
        <time>2026-06-27T07:59:02Z</time>
      </trkpt>
      <trkpt lat="46.12359" lon="6.71899">
        <ele>1825.7</ele>
        <time>2026-06-27T07:59:03Z</time>
      </trkpt>
      <trkpt lat="46.12359" lon="6.71898">
        <ele>1825.8</ele>
        <time>2026-06-27T07:59:04Z</time>
      </trkpt>
      <trkpt lat="46.12359" lon="6.71898">
        <ele>1826</ele>
        <time>2026-06-27T07:59:05Z</time>
      </trkpt>
      <trkpt lat="46.12359" lon="6.71898">
        <ele>1826</ele>
        <time>2026-06-27T07:59:06Z</time>
      </trkpt>
      <trkpt lat="46.12359" lon="6.71898">
        <ele>1826.1</ele>
        <time>2026-06-27T07:59:07Z</time>
      </trkpt>
      <trkpt lat="46.12359" lon="6.71898">
        <ele>1826.1</ele>
        <time>2026-06-27T07:59:08Z</time>
      </trkpt>
      <trkpt lat="46.12359" lon="6.71898">
        <ele>1826.2</ele>
        <time>2026-06-27T07:59:09Z</time>
      </trkpt>
      <trkpt lat="46.1236" lon="6.71898">
        <ele>1826.2</ele>
        <time>2026-06-27T07:59:10Z</time>
      </trkpt>
      <trkpt lat="46.1236" lon="6.71898">
        <ele>1826.2</ele>
        <time>2026-06-27T07:59:11Z</time>
      </trkpt>
      <trkpt lat="46.1236" lon="6.71898">
        <ele>1826.3</ele>
        <time>2026-06-27T07:59:12Z</time>
      </trkpt>
      <trkpt lat="46.1236" lon="6.71898">
        <ele>1826.5</ele>
        <time>2026-06-27T07:59:13Z</time>
      </trkpt>
      <trkpt lat="46.1236" lon="6.71898">
        <ele>1826.7</ele>
        <time>2026-06-27T07:59:14Z</time>
      </trkpt>
      <trkpt lat="46.1236" lon="6.71898">
        <ele>1826.8</ele>
        <time>2026-06-27T07:59:15Z</time>
      </trkpt>
      <trkpt lat="46.12361" lon="6.71898">
        <ele>1827</ele>
        <time>2026-06-27T07:59:16Z</time>
      </trkpt>
      <trkpt lat="46.12361" lon="6.71898">
        <ele>1827.1</ele>
        <time>2026-06-27T07:59:17Z</time>
      </trkpt>
      <trkpt lat="46.12362" lon="6.71898">
        <ele>1827.2</ele>
        <time>2026-06-27T07:59:18Z</time>
      </trkpt>
      <trkpt lat="46.12362" lon="6.71898">
        <ele>1827.3</ele>
        <time>2026-06-27T07:59:19Z</time>
      </trkpt>
      <trkpt lat="46.12362" lon="6.71898">
        <ele>1827.5</ele>
        <time>2026-06-27T07:59:20Z</time>
      </trkpt>
      <trkpt lat="46.12363" lon="6.71899">
        <ele>1827.6</ele>
        <time>2026-06-27T07:59:21Z</time>
      </trkpt>
      <trkpt lat="46.12363" lon="6.71898">
        <ele>1827.9</ele>
        <time>2026-06-27T07:59:22Z</time>
      </trkpt>
      <trkpt lat="46.12364" lon="6.71898">
        <ele>1828.1</ele>
        <time>2026-06-27T07:59:23Z</time>
      </trkpt>
      <trkpt lat="46.12364" lon="6.71898">
        <ele>1828.2</ele>
        <time>2026-06-27T07:59:24Z</time>
      </trkpt>
      <trkpt lat="46.12364" lon="6.71898">
        <ele>1828.4</ele>
        <time>2026-06-27T07:59:25Z</time>
      </trkpt>
      <trkpt lat="46.12365" lon="6.71898">
        <ele>1828.5</ele>
        <time>2026-06-27T07:59:26Z</time>
      </trkpt>
      <trkpt lat="46.12365" lon="6.71898">
        <ele>1828.7</ele>
        <time>2026-06-27T07:59:27Z</time>
      </trkpt>
      <trkpt lat="46.12365" lon="6.71898">
        <ele>1828.8</ele>
        <time>2026-06-27T07:59:28Z</time>
      </trkpt>
      <trkpt lat="46.12366" lon="6.71898">
        <ele>1829</ele>
        <time>2026-06-27T07:59:29Z</time>
      </trkpt>
      <trkpt lat="46.12366" lon="6.71898">
        <ele>1829.2</ele>
        <time>2026-06-27T07:59:30Z</time>
      </trkpt>
      <trkpt lat="46.12367" lon="6.71898">
        <ele>1829.3</ele>
        <time>2026-06-27T07:59:31Z</time>
      </trkpt>
      <trkpt lat="46.12367" lon="6.71899">
        <ele>1829.4</ele>
        <time>2026-06-27T07:59:32Z</time>
      </trkpt>
      <trkpt lat="46.12368" lon="6.71898">
        <ele>1829.6</ele>
        <time>2026-06-27T07:59:33Z</time>
      </trkpt>
      <trkpt lat="46.12368" lon="6.71898">
        <ele>1829.9</ele>
        <time>2026-06-27T07:59:34Z</time>
      </trkpt>
      <trkpt lat="46.12369" lon="6.71896">
        <ele>1830.1</ele>
        <time>2026-06-27T07:59:35Z</time>
      </trkpt>
      <trkpt lat="46.12369" lon="6.71896">
        <ele>1830.2</ele>
        <time>2026-06-27T07:59:36Z</time>
      </trkpt>
      <trkpt lat="46.12369" lon="6.71895">
        <ele>1830.4</ele>
        <time>2026-06-27T07:59:37Z</time>
      </trkpt>
      <trkpt lat="46.12369" lon="6.71895">
        <ele>1830.5</ele>
        <time>2026-06-27T07:59:38Z</time>
      </trkpt>
      <trkpt lat="46.12369" lon="6.71895">
        <ele>1830.7</ele>
        <time>2026-06-27T07:59:39Z</time>
      </trkpt>
      <trkpt lat="46.12369" lon="6.71895">
        <ele>1830.8</ele>
        <time>2026-06-27T07:59:40Z</time>
      </trkpt>
      <trkpt lat="46.12369" lon="6.71895">
        <ele>1830.9</ele>
        <time>2026-06-27T07:59:41Z</time>
      </trkpt>
      <trkpt lat="46.1237" lon="6.71895">
        <ele>1830.9</ele>
        <time>2026-06-27T07:59:42Z</time>
      </trkpt>
      <trkpt lat="46.1237" lon="6.71895">
        <ele>1831</ele>
        <time>2026-06-27T07:59:43Z</time>
      </trkpt>
      <trkpt lat="46.1237" lon="6.71895">
        <ele>1831.1</ele>
        <time>2026-06-27T07:59:44Z</time>
      </trkpt>
      <trkpt lat="46.1237" lon="6.71895">
        <ele>1831.1</ele>
        <time>2026-06-27T07:59:45Z</time>
      </trkpt>
      <trkpt lat="46.1237" lon="6.71895">
        <ele>1831.1</ele>
        <time>2026-06-27T07:59:46Z</time>
      </trkpt>
      <trkpt lat="46.1237" lon="6.71895">
        <ele>1831.1</ele>
        <time>2026-06-27T07:59:47Z</time>
      </trkpt>
      <trkpt lat="46.1237" lon="6.71894">
        <ele>1831</ele>
        <time>2026-06-27T07:59:48Z</time>
      </trkpt>
      <trkpt lat="46.1237" lon="6.71894">
        <ele>1831</ele>
        <time>2026-06-27T07:59:49Z</time>
      </trkpt>
      <trkpt lat="46.1237" lon="6.71894">
        <ele>1830.9</ele>
        <time>2026-06-27T07:59:50Z</time>
      </trkpt>
      <trkpt lat="46.1237" lon="6.71894">
        <ele>1830.9</ele>
        <time>2026-06-27T07:59:51Z</time>
      </trkpt>
      <trkpt lat="46.1237" lon="6.71894">
        <ele>1830.9</ele>
        <time>2026-06-27T07:59:52Z</time>
      </trkpt>
      <trkpt lat="46.12371" lon="6.71894">
        <ele>1830.8</ele>
        <time>2026-06-27T07:59:53Z</time>
      </trkpt>
      <trkpt lat="46.12371" lon="6.71894">
        <ele>1830.8</ele>
        <time>2026-06-27T07:59:54Z</time>
      </trkpt>
      <trkpt lat="46.12371" lon="6.71894">
        <ele>1830.7</ele>
        <time>2026-06-27T07:59:55Z</time>
      </trkpt>
      <trkpt lat="46.12371" lon="6.71894">
        <ele>1830.8</ele>
        <time>2026-06-27T07:59:56Z</time>
      </trkpt>
      <trkpt lat="46.12371" lon="6.71894">
        <ele>1830.8</ele>
        <time>2026-06-27T07:59:57Z</time>
      </trkpt>
      <trkpt lat="46.12371" lon="6.71894">
        <ele>1830.8</ele>
        <time>2026-06-27T07:59:58Z</time>
      </trkpt>
      <trkpt lat="46.12371" lon="6.71894">
        <ele>1830.8</ele>
        <time>2026-06-27T07:59:59Z</time>
      </trkpt>
      <trkpt lat="46.12371" lon="6.71894">
        <ele>1830.8</ele>
        <time>2026-06-27T08:00:00Z</time>
      </trkpt>
      <trkpt lat="46.12371" lon="6.71894">
        <ele>1830.8</ele>
        <time>2026-06-27T08:00:01Z</time>
      </trkpt>
      <trkpt lat="46.12371" lon="6.71894">
        <ele>1830.8</ele>
        <time>2026-06-27T08:00:02Z</time>
      </trkpt>
      <trkpt lat="46.12371" lon="6.71893">
        <ele>1830.8</ele>
        <time>2026-06-27T08:00:03Z</time>
      </trkpt>
      <trkpt lat="46.12371" lon="6.71893">
        <ele>1830.8</ele>
        <time>2026-06-27T08:00:04Z</time>
      </trkpt>
      <trkpt lat="46.12372" lon="6.71893">
        <ele>1830.8</ele>
        <time>2026-06-27T08:00:05Z</time>
      </trkpt>
      <trkpt lat="46.12372" lon="6.71893">
        <ele>1830.8</ele>
        <time>2026-06-27T08:00:06Z</time>
      </trkpt>
      <trkpt lat="46.12372" lon="6.71893">
        <ele>1830.7</ele>
        <time>2026-06-27T08:00:07Z</time>
      </trkpt>
      <trkpt lat="46.12372" lon="6.71893">
        <ele>1830.8</ele>
        <time>2026-06-27T08:00:08Z</time>
      </trkpt>
      <trkpt lat="46.12372" lon="6.71893">
        <ele>1830.8</ele>
        <time>2026-06-27T08:00:09Z</time>
      </trkpt>
      <trkpt lat="46.12372" lon="6.71893">
        <ele>1830.9</ele>
        <time>2026-06-27T08:00:10Z</time>
      </trkpt>
      <trkpt lat="46.12372" lon="6.71893">
        <ele>1830.8</ele>
        <time>2026-06-27T08:00:11Z</time>
      </trkpt>
      <trkpt lat="46.12372" lon="6.71893">
        <ele>1830.8</ele>
        <time>2026-06-27T08:00:12Z</time>
      </trkpt>
      <trkpt lat="46.12372" lon="6.71893">
        <ele>1830.7</ele>
        <time>2026-06-27T08:00:13Z</time>
      </trkpt>
      <trkpt lat="46.12371" lon="6.71893">
        <ele>1830.8</ele>
        <time>2026-06-27T08:00:14Z</time>
      </trkpt>
      <trkpt lat="46.12371" lon="6.71893">
        <ele>1830.7</ele>
        <time>2026-06-27T08:00:15Z</time>
      </trkpt>
      <trkpt lat="46.12371" lon="6.71893">
        <ele>1830.8</ele>
        <time>2026-06-27T08:00:16Z</time>
      </trkpt>
      <trkpt lat="46.12371" lon="6.71893">
        <ele>1830.8</ele>
        <time>2026-06-27T08:00:17Z</time>
      </trkpt>
      <trkpt lat="46.12371" lon="6.71893">
        <ele>1830.8</ele>
        <time>2026-06-27T08:00:18Z</time>
      </trkpt>
      <trkpt lat="46.12371" lon="6.71893">
        <ele>1830.8</ele>
        <time>2026-06-27T08:00:19Z</time>
      </trkpt>
      <trkpt lat="46.12372" lon="6.71893">
        <ele>1830.9</ele>
        <time>2026-06-27T08:00:20Z</time>
      </trkpt>
      <trkpt lat="46.12372" lon="6.71894">
        <ele>1830.9</ele>
        <time>2026-06-27T08:00:21Z</time>
      </trkpt>
      <trkpt lat="46.12373" lon="6.71894">
        <ele>1830.9</ele>
        <time>2026-06-27T08:00:22Z</time>
      </trkpt>
      <trkpt lat="46.12374" lon="6.71894">
        <ele>1831</ele>
        <time>2026-06-27T08:00:23Z</time>
      </trkpt>
      <trkpt lat="46.12374" lon="6.71894">
        <ele>1831.2</ele>
        <time>2026-06-27T08:00:24Z</time>
      </trkpt>
      <trkpt lat="46.12375" lon="6.71893">
        <ele>1831.4</ele>
        <time>2026-06-27T08:00:25Z</time>
      </trkpt>
      <trkpt lat="46.12375" lon="6.71893">
        <ele>1831.5</ele>
        <time>2026-06-27T08:00:26Z</time>
      </trkpt>
      <trkpt lat="46.12376" lon="6.71894">
        <ele>1831.8</ele>
        <time>2026-06-27T08:00:27Z</time>
      </trkpt>
      <trkpt lat="46.12376" lon="6.71894">
        <ele>1831.9</ele>
        <time>2026-06-27T08:00:28Z</time>
      </trkpt>
      <trkpt lat="46.12377" lon="6.71894">
        <ele>1832.1</ele>
        <time>2026-06-27T08:00:29Z</time>
      </trkpt>
      <trkpt lat="46.12377" lon="6.71894">
        <ele>1832.3</ele>
        <time>2026-06-27T08:00:30Z</time>
      </trkpt>
      <trkpt lat="46.12378" lon="6.71895">
        <ele>1832.5</ele>
        <time>2026-06-27T08:00:31Z</time>
      </trkpt>
      <trkpt lat="46.12378" lon="6.71895">
        <ele>1832.9</ele>
        <time>2026-06-27T08:00:32Z</time>
      </trkpt>
      <trkpt lat="46.12379" lon="6.71895">
        <ele>1833.2</ele>
        <time>2026-06-27T08:00:33Z</time>
      </trkpt>
      <trkpt lat="46.12379" lon="6.71895">
        <ele>1833.6</ele>
        <time>2026-06-27T08:00:34Z</time>
      </trkpt>
      <trkpt lat="46.1238" lon="6.71895">
        <ele>1833.8</ele>
        <time>2026-06-27T08:00:35Z</time>
      </trkpt>
      <trkpt lat="46.12381" lon="6.71895">
        <ele>1834.1</ele>
        <time>2026-06-27T08:00:36Z</time>
      </trkpt>
      <trkpt lat="46.12381" lon="6.71895">
        <ele>1834.3</ele>
        <time>2026-06-27T08:00:37Z</time>
      </trkpt>
      <trkpt lat="46.12381" lon="6.71895">
        <ele>1834.6</ele>
        <time>2026-06-27T08:00:38Z</time>
      </trkpt>
      <trkpt lat="46.12382" lon="6.71896">
        <ele>1834.9</ele>
        <time>2026-06-27T08:00:39Z</time>
      </trkpt>
      <trkpt lat="46.12383" lon="6.71896">
        <ele>1835.2</ele>
        <time>2026-06-27T08:00:40Z</time>
      </trkpt>
      <trkpt lat="46.12383" lon="6.71896">
        <ele>1835.4</ele>
        <time>2026-06-27T08:00:41Z</time>
      </trkpt>
      <trkpt lat="46.12383" lon="6.71897">
        <ele>1835.7</ele>
        <time>2026-06-27T08:00:42Z</time>
      </trkpt>
      <trkpt lat="46.12384" lon="6.71897">
        <ele>1836</ele>
        <time>2026-06-27T08:00:43Z</time>
      </trkpt>
      <trkpt lat="46.12384" lon="6.71898">
        <ele>1836.3</ele>
        <time>2026-06-27T08:00:44Z</time>
      </trkpt>
      <trkpt lat="46.12385" lon="6.71898">
        <ele>1836.6</ele>
        <time>2026-06-27T08:00:45Z</time>
      </trkpt>
      <trkpt lat="46.12385" lon="6.71898">
        <ele>1836.9</ele>
        <time>2026-06-27T08:00:46Z</time>
      </trkpt>
      <trkpt lat="46.12386" lon="6.71899">
        <ele>1837.2</ele>
        <time>2026-06-27T08:00:47Z</time>
      </trkpt>
      <trkpt lat="46.12386" lon="6.71899">
        <ele>1837.5</ele>
        <time>2026-06-27T08:00:48Z</time>
      </trkpt>
      <trkpt lat="46.12387" lon="6.71899">
        <ele>1837.9</ele>
        <time>2026-06-27T08:00:49Z</time>
      </trkpt>
      <trkpt lat="46.12387" lon="6.71899">
        <ele>1838.2</ele>
        <time>2026-06-27T08:00:50Z</time>
      </trkpt>
      <trkpt lat="46.12388" lon="6.71899">
        <ele>1838.5</ele>
        <time>2026-06-27T08:00:51Z</time>
      </trkpt>
      <trkpt lat="46.12389" lon="6.71899">
        <ele>1838.7</ele>
        <time>2026-06-27T08:00:52Z</time>
      </trkpt>
      <trkpt lat="46.12389" lon="6.71899">
        <ele>1839</ele>
        <time>2026-06-27T08:00:53Z</time>
      </trkpt>
      <trkpt lat="46.1239" lon="6.71899">
        <ele>1839.4</ele>
        <time>2026-06-27T08:00:54Z</time>
      </trkpt>
      <trkpt lat="46.1239" lon="6.71899">
        <ele>1839.7</ele>
        <time>2026-06-27T08:00:55Z</time>
      </trkpt>
      <trkpt lat="46.12391" lon="6.71898">
        <ele>1840.1</ele>
        <time>2026-06-27T08:00:56Z</time>
      </trkpt>
      <trkpt lat="46.12391" lon="6.71898">
        <ele>1840.3</ele>
        <time>2026-06-27T08:00:57Z</time>
      </trkpt>
      <trkpt lat="46.12392" lon="6.71898">
        <ele>1840.7</ele>
        <time>2026-06-27T08:00:58Z</time>
      </trkpt>
      <trkpt lat="46.12392" lon="6.71898">
        <ele>1841</ele>
        <time>2026-06-27T08:00:59Z</time>
      </trkpt>
      <trkpt lat="46.12393" lon="6.71898">
        <ele>1841.2</ele>
        <time>2026-06-27T08:01:00Z</time>
      </trkpt>
      <trkpt lat="46.12393" lon="6.71898">
        <ele>1841.4</ele>
        <time>2026-06-27T08:01:01Z</time>
      </trkpt>
      <trkpt lat="46.12394" lon="6.71898">
        <ele>1841.7</ele>
        <time>2026-06-27T08:01:02Z</time>
      </trkpt>
      <trkpt lat="46.12394" lon="6.71898">
        <ele>1842</ele>
        <time>2026-06-27T08:01:03Z</time>
      </trkpt>
      <trkpt lat="46.12394" lon="6.71899">
        <ele>1842.2</ele>
        <time>2026-06-27T08:01:04Z</time>
      </trkpt>
      <trkpt lat="46.12394" lon="6.71899">
        <ele>1842.5</ele>
        <time>2026-06-27T08:01:05Z</time>
      </trkpt>
      <trkpt lat="46.12395" lon="6.71898">
        <ele>1842.7</ele>
        <time>2026-06-27T08:01:06Z</time>
      </trkpt>
      <trkpt lat="46.12395" lon="6.71898">
        <ele>1843</ele>
        <time>2026-06-27T08:01:07Z</time>
      </trkpt>
      <trkpt lat="46.12395" lon="6.71898">
        <ele>1843.2</ele>
        <time>2026-06-27T08:01:08Z</time>
      </trkpt>
      <trkpt lat="46.12395" lon="6.71898">
        <ele>1843.3</ele>
        <time>2026-06-27T08:01:09Z</time>
      </trkpt>
      <trkpt lat="46.12395" lon="6.71898">
        <ele>1843.5</ele>
        <time>2026-06-27T08:01:10Z</time>
      </trkpt>
      <trkpt lat="46.12396" lon="6.71898">
        <ele>1843.8</ele>
        <time>2026-06-27T08:01:11Z</time>
      </trkpt>
      <trkpt lat="46.12396" lon="6.71898">
        <ele>1843.9</ele>
        <time>2026-06-27T08:01:12Z</time>
      </trkpt>
      <trkpt lat="46.12396" lon="6.71898">
        <ele>1843.9</ele>
        <time>2026-06-27T08:01:13Z</time>
      </trkpt>
      <trkpt lat="46.12396" lon="6.71898">
        <ele>1844</ele>
        <time>2026-06-27T08:01:14Z</time>
      </trkpt>
      <trkpt lat="46.12396" lon="6.71899">
        <ele>1844.1</ele>
        <time>2026-06-27T08:01:15Z</time>
      </trkpt>
      <trkpt lat="46.12397" lon="6.71898">
        <ele>1844.2</ele>
        <time>2026-06-27T08:01:16Z</time>
      </trkpt>
      <trkpt lat="46.12397" lon="6.71898">
        <ele>1844.2</ele>
        <time>2026-06-27T08:01:17Z</time>
      </trkpt>
      <trkpt lat="46.12398" lon="6.71897">
        <ele>1844.3</ele>
        <time>2026-06-27T08:01:18Z</time>
      </trkpt>
      <trkpt lat="46.12398" lon="6.71897">
        <ele>1844.2</ele>
        <time>2026-06-27T08:01:19Z</time>
      </trkpt>
      <trkpt lat="46.12398" lon="6.71897">
        <ele>1844.3</ele>
        <time>2026-06-27T08:01:20Z</time>
      </trkpt>
      <trkpt lat="46.12399" lon="6.71897">
        <ele>1844.4</ele>
        <time>2026-06-27T08:01:21Z</time>
      </trkpt>
      <trkpt lat="46.124" lon="6.71896">
        <ele>1844.4</ele>
        <time>2026-06-27T08:01:22Z</time>
      </trkpt>
      <trkpt lat="46.124" lon="6.71896">
        <ele>1844.5</ele>
        <time>2026-06-27T08:01:23Z</time>
      </trkpt>
      <trkpt lat="46.124" lon="6.71896">
        <ele>1844.6</ele>
        <time>2026-06-27T08:01:24Z</time>
      </trkpt>
      <trkpt lat="46.124" lon="6.71897">
        <ele>1844.7</ele>
        <time>2026-06-27T08:01:25Z</time>
      </trkpt>
      <trkpt lat="46.124" lon="6.71897">
        <ele>1844.7</ele>
        <time>2026-06-27T08:01:26Z</time>
      </trkpt>
      <trkpt lat="46.124" lon="6.71897">
        <ele>1844.8</ele>
        <time>2026-06-27T08:01:27Z</time>
      </trkpt>
      <trkpt lat="46.124" lon="6.71897">
        <ele>1844.8</ele>
        <time>2026-06-27T08:01:28Z</time>
      </trkpt>
      <trkpt lat="46.124" lon="6.71897">
        <ele>1844.9</ele>
        <time>2026-06-27T08:01:29Z</time>
      </trkpt>
      <trkpt lat="46.124" lon="6.71897">
        <ele>1844.9</ele>
        <time>2026-06-27T08:01:30Z</time>
      </trkpt>
      <trkpt lat="46.124" lon="6.71897">
        <ele>1845</ele>
        <time>2026-06-27T08:01:31Z</time>
      </trkpt>
      <trkpt lat="46.124" lon="6.71897">
        <ele>1845</ele>
        <time>2026-06-27T08:01:32Z</time>
      </trkpt>
      <trkpt lat="46.124" lon="6.71897">
        <ele>1845</ele>
        <time>2026-06-27T08:01:33Z</time>
      </trkpt>
      <trkpt lat="46.124" lon="6.71897">
        <ele>1845</ele>
        <time>2026-06-27T08:01:34Z</time>
      </trkpt>
      <trkpt lat="46.12401" lon="6.71897">
        <ele>1845</ele>
        <time>2026-06-27T08:01:35Z</time>
      </trkpt>
      <trkpt lat="46.12401" lon="6.71897">
        <ele>1845</ele>
        <time>2026-06-27T08:01:36Z</time>
      </trkpt>
      <trkpt lat="46.12401" lon="6.71897">
        <ele>1845.1</ele>
        <time>2026-06-27T08:01:37Z</time>
      </trkpt>
      <trkpt lat="46.12401" lon="6.71897">
        <ele>1845.1</ele>
        <time>2026-06-27T08:01:38Z</time>
      </trkpt>
      <trkpt lat="46.12401" lon="6.71896">
        <ele>1845.1</ele>
        <time>2026-06-27T08:01:39Z</time>
      </trkpt>
      <trkpt lat="46.12401" lon="6.71897">
        <ele>1845.2</ele>
        <time>2026-06-27T08:01:40Z</time>
      </trkpt>
      <trkpt lat="46.12401" lon="6.71897">
        <ele>1845.2</ele>
        <time>2026-06-27T08:01:41Z</time>
      </trkpt>
      <trkpt lat="46.12401" lon="6.71897">
        <ele>1845.2</ele>
        <time>2026-06-27T08:01:42Z</time>
      </trkpt>
      <trkpt lat="46.12401" lon="6.71897">
        <ele>1845.1</ele>
        <time>2026-06-27T08:01:43Z</time>
      </trkpt>
      <trkpt lat="46.12401" lon="6.71897">
        <ele>1845.1</ele>
        <time>2026-06-27T08:01:44Z</time>
      </trkpt>
      <trkpt lat="46.12401" lon="6.71897">
        <ele>1845.1</ele>
        <time>2026-06-27T08:01:45Z</time>
      </trkpt>
      <trkpt lat="46.12402" lon="6.71896">
        <ele>1845</ele>
        <time>2026-06-27T08:01:46Z</time>
      </trkpt>
      <trkpt lat="46.12403" lon="6.71895">
        <ele>1845</ele>
        <time>2026-06-27T08:01:47Z</time>
      </trkpt>
      <trkpt lat="46.12404" lon="6.71895">
        <ele>1844.9</ele>
        <time>2026-06-27T08:01:48Z</time>
      </trkpt>
      <trkpt lat="46.12405" lon="6.71894">
        <ele>1844.9</ele>
        <time>2026-06-27T08:01:49Z</time>
      </trkpt>
      <trkpt lat="46.12406" lon="6.71894">
        <ele>1845</ele>
        <time>2026-06-27T08:01:50Z</time>
      </trkpt>
      <trkpt lat="46.12407" lon="6.71894">
        <ele>1845</ele>
        <time>2026-06-27T08:01:51Z</time>
      </trkpt>
      <trkpt lat="46.12408" lon="6.71894">
        <ele>1845.1</ele>
        <time>2026-06-27T08:01:52Z</time>
      </trkpt>
      <trkpt lat="46.12408" lon="6.71894">
        <ele>1845.3</ele>
        <time>2026-06-27T08:01:53Z</time>
      </trkpt>
      <trkpt lat="46.12409" lon="6.71893">
        <ele>1845.4</ele>
        <time>2026-06-27T08:01:54Z</time>
      </trkpt>
      <trkpt lat="46.1241" lon="6.71892">
        <ele>1845.5</ele>
        <time>2026-06-27T08:01:55Z</time>
      </trkpt>
      <trkpt lat="46.12411" lon="6.71893">
        <ele>1845.5</ele>
        <time>2026-06-27T08:01:56Z</time>
      </trkpt>
      <trkpt lat="46.12411" lon="6.71893">
        <ele>1845.6</ele>
        <time>2026-06-27T08:01:57Z</time>
      </trkpt>
      <trkpt lat="46.12412" lon="6.71893">
        <ele>1845.7</ele>
        <time>2026-06-27T08:01:58Z</time>
      </trkpt>
      <trkpt lat="46.12413" lon="6.71893">
        <ele>1845.8</ele>
        <time>2026-06-27T08:01:59Z</time>
      </trkpt>
      <trkpt lat="46.12414" lon="6.71893">
        <ele>1845.9</ele>
        <time>2026-06-27T08:02:00Z</time>
      </trkpt>
      <trkpt lat="46.12415" lon="6.71893">
        <ele>1846.1</ele>
        <time>2026-06-27T08:02:01Z</time>
      </trkpt>
      <trkpt lat="46.12416" lon="6.71894">
        <ele>1846.2</ele>
        <time>2026-06-27T08:02:02Z</time>
      </trkpt>
      <trkpt lat="46.12417" lon="6.71894">
        <ele>1846.3</ele>
        <time>2026-06-27T08:02:03Z</time>
      </trkpt>
      <trkpt lat="46.12418" lon="6.71895">
        <ele>1846.4</ele>
        <time>2026-06-27T08:02:04Z</time>
      </trkpt>
      <trkpt lat="46.12418" lon="6.71895">
        <ele>1846.7</ele>
        <time>2026-06-27T08:02:05Z</time>
      </trkpt>
      <trkpt lat="46.12419" lon="6.71896">
        <ele>1846.9</ele>
        <time>2026-06-27T08:02:06Z</time>
      </trkpt>
      <trkpt lat="46.12419" lon="6.71896">
        <ele>1847.1</ele>
        <time>2026-06-27T08:02:07Z</time>
      </trkpt>
      <trkpt lat="46.1242" lon="6.71896">
        <ele>1847.3</ele>
        <time>2026-06-27T08:02:08Z</time>
      </trkpt>
      <trkpt lat="46.12421" lon="6.71895">
        <ele>1847.5</ele>
        <time>2026-06-27T08:02:09Z</time>
      </trkpt>
      <trkpt lat="46.12421" lon="6.71895">
        <ele>1847.6</ele>
        <time>2026-06-27T08:02:10Z</time>
      </trkpt>
      <trkpt lat="46.12421" lon="6.71895">
        <ele>1847.7</ele>
        <time>2026-06-27T08:02:11Z</time>
      </trkpt>
      <trkpt lat="46.12421" lon="6.71895">
        <ele>1847.8</ele>
        <time>2026-06-27T08:02:12Z</time>
      </trkpt>
      <trkpt lat="46.12421" lon="6.71895">
        <ele>1848</ele>
        <time>2026-06-27T08:02:13Z</time>
      </trkpt>
      <trkpt lat="46.12422" lon="6.71895">
        <ele>1848.1</ele>
        <time>2026-06-27T08:02:14Z</time>
      </trkpt>
      <trkpt lat="46.12422" lon="6.71896">
        <ele>1848.2</ele>
        <time>2026-06-27T08:02:15Z</time>
      </trkpt>
      <trkpt lat="46.12422" lon="6.71896">
        <ele>1848.4</ele>
        <time>2026-06-27T08:02:16Z</time>
      </trkpt>
      <trkpt lat="46.12422" lon="6.71896">
        <ele>1848.6</ele>
        <time>2026-06-27T08:02:17Z</time>
      </trkpt>
      <trkpt lat="46.12423" lon="6.71896">
        <ele>1848.8</ele>
        <time>2026-06-27T08:02:18Z</time>
      </trkpt>
      <trkpt lat="46.12423" lon="6.71896">
        <ele>1849</ele>
        <time>2026-06-27T08:02:19Z</time>
      </trkpt>
      <trkpt lat="46.12423" lon="6.71897">
        <ele>1849.1</ele>
        <time>2026-06-27T08:02:20Z</time>
      </trkpt>
      <trkpt lat="46.12423" lon="6.71897">
        <ele>1849.3</ele>
        <time>2026-06-27T08:02:21Z</time>
      </trkpt>
      <trkpt lat="46.12423" lon="6.71897">
        <ele>1849.4</ele>
        <time>2026-06-27T08:02:22Z</time>
      </trkpt>
      <trkpt lat="46.12423" lon="6.71897">
        <ele>1849.5</ele>
        <time>2026-06-27T08:02:23Z</time>
      </trkpt>
      <trkpt lat="46.12423" lon="6.71897">
        <ele>1849.5</ele>
        <time>2026-06-27T08:02:24Z</time>
      </trkpt>
      <trkpt lat="46.12423" lon="6.71897">
        <ele>1849.5</ele>
        <time>2026-06-27T08:02:25Z</time>
      </trkpt>
      <trkpt lat="46.12423" lon="6.71897">
        <ele>1849.5</ele>
        <time>2026-06-27T08:02:26Z</time>
      </trkpt>
      <trkpt lat="46.12423" lon="6.71897">
        <ele>1849.6</ele>
        <time>2026-06-27T08:02:27Z</time>
      </trkpt>
      <trkpt lat="46.12423" lon="6.71897">
        <ele>1849.6</ele>
        <time>2026-06-27T08:02:28Z</time>
      </trkpt>
      <trkpt lat="46.12423" lon="6.71897">
        <ele>1849.7</ele>
        <time>2026-06-27T08:02:29Z</time>
      </trkpt>
      <trkpt lat="46.12423" lon="6.71897">
        <ele>1849.8</ele>
        <time>2026-06-27T08:02:30Z</time>
      </trkpt>
      <trkpt lat="46.12423" lon="6.71897">
        <ele>1849.7</ele>
        <time>2026-06-27T08:02:31Z</time>
      </trkpt>
      <trkpt lat="46.12423" lon="6.71897">
        <ele>1849.7</ele>
        <time>2026-06-27T08:02:32Z</time>
      </trkpt>
      <trkpt lat="46.12423" lon="6.71897">
        <ele>1849.7</ele>
        <time>2026-06-27T08:02:33Z</time>
      </trkpt>
      <trkpt lat="46.12423" lon="6.71897">
        <ele>1849.7</ele>
        <time>2026-06-27T08:02:34Z</time>
      </trkpt>
      <trkpt lat="46.12423" lon="6.71897">
        <ele>1849.6</ele>
        <time>2026-06-27T08:02:35Z</time>
      </trkpt>
      <trkpt lat="46.12423" lon="6.71896">
        <ele>1849.6</ele>
        <time>2026-06-27T08:02:36Z</time>
      </trkpt>
      <trkpt lat="46.12424" lon="6.71896">
        <ele>1849.6</ele>
        <time>2026-06-27T08:02:37Z</time>
      </trkpt>
      <trkpt lat="46.12424" lon="6.71895">
        <ele>1849.7</ele>
        <time>2026-06-27T08:02:38Z</time>
      </trkpt>
      <trkpt lat="46.12424" lon="6.71894">
        <ele>1849.6</ele>
        <time>2026-06-27T08:02:39Z</time>
      </trkpt>
      <trkpt lat="46.12424" lon="6.71894">
        <ele>1849.6</ele>
        <time>2026-06-27T08:02:40Z</time>
      </trkpt>
      <trkpt lat="46.12425" lon="6.71894">
        <ele>1849.5</ele>
        <time>2026-06-27T08:02:41Z</time>
      </trkpt>
      <trkpt lat="46.12425" lon="6.71894">
        <ele>1849.5</ele>
        <time>2026-06-27T08:02:42Z</time>
      </trkpt>
      <trkpt lat="46.12426" lon="6.71894">
        <ele>1849.5</ele>
        <time>2026-06-27T08:02:43Z</time>
      </trkpt>
      <trkpt lat="46.12427" lon="6.71893">
        <ele>1849.6</ele>
        <time>2026-06-27T08:02:44Z</time>
      </trkpt>
      <trkpt lat="46.12427" lon="6.71893">
        <ele>1849.6</ele>
        <time>2026-06-27T08:02:45Z</time>
      </trkpt>
      <trkpt lat="46.12428" lon="6.71893">
        <ele>1849.7</ele>
        <time>2026-06-27T08:02:46Z</time>
      </trkpt>
      <trkpt lat="46.12429" lon="6.71893">
        <ele>1849.7</ele>
        <time>2026-06-27T08:02:47Z</time>
      </trkpt>
      <trkpt lat="46.1243" lon="6.71893">
        <ele>1849.9</ele>
        <time>2026-06-27T08:02:48Z</time>
      </trkpt>
      <trkpt lat="46.1243" lon="6.71893">
        <ele>1850.2</ele>
        <time>2026-06-27T08:02:49Z</time>
      </trkpt>
      <trkpt lat="46.1243" lon="6.71893">
        <ele>1850.4</ele>
        <time>2026-06-27T08:02:50Z</time>
      </trkpt>
      <trkpt lat="46.12431" lon="6.71893">
        <ele>1850.7</ele>
        <time>2026-06-27T08:02:51Z</time>
      </trkpt>
      <trkpt lat="46.12431" lon="6.71893">
        <ele>1850.9</ele>
        <time>2026-06-27T08:02:52Z</time>
      </trkpt>
      <trkpt lat="46.12431" lon="6.71894">
        <ele>1851.2</ele>
        <time>2026-06-27T08:02:53Z</time>
      </trkpt>
      <trkpt lat="46.12432" lon="6.71894">
        <ele>1851.4</ele>
        <time>2026-06-27T08:02:54Z</time>
      </trkpt>
      <trkpt lat="46.12432" lon="6.71894">
        <ele>1851.6</ele>
        <time>2026-06-27T08:02:55Z</time>
      </trkpt>
      <trkpt lat="46.12432" lon="6.71894">
        <ele>1851.8</ele>
        <time>2026-06-27T08:02:56Z</time>
      </trkpt>
      <trkpt lat="46.12433" lon="6.71894">
        <ele>1852</ele>
        <time>2026-06-27T08:02:57Z</time>
      </trkpt>
      <trkpt lat="46.12434" lon="6.71894">
        <ele>1852.2</ele>
        <time>2026-06-27T08:02:58Z</time>
      </trkpt>
      <trkpt lat="46.12434" lon="6.71894">
        <ele>1852.9</ele>
        <time>2026-06-27T08:02:59Z</time>
      </trkpt>
      <trkpt lat="46.12435" lon="6.71894">
        <ele>1853.2</ele>
        <time>2026-06-27T08:03:00Z</time>
      </trkpt>
      <trkpt lat="46.12435" lon="6.71894">
        <ele>1853.4</ele>
        <time>2026-06-27T08:03:01Z</time>
      </trkpt>
      <trkpt lat="46.12436" lon="6.71894">
        <ele>1853.7</ele>
        <time>2026-06-27T08:03:02Z</time>
      </trkpt>
      <trkpt lat="46.12437" lon="6.71893">
        <ele>1854</ele>
        <time>2026-06-27T08:03:03Z</time>
      </trkpt>
      <trkpt lat="46.12437" lon="6.71893">
        <ele>1854.4</ele>
        <time>2026-06-27T08:03:04Z</time>
      </trkpt>
      <trkpt lat="46.12438" lon="6.71893">
        <ele>1854.7</ele>
        <time>2026-06-27T08:03:05Z</time>
      </trkpt>
      <trkpt lat="46.12438" lon="6.71892">
        <ele>1854.9</ele>
        <time>2026-06-27T08:03:06Z</time>
      </trkpt>
      <trkpt lat="46.12438" lon="6.71892">
        <ele>1855.1</ele>
        <time>2026-06-27T08:03:07Z</time>
      </trkpt>
      <trkpt lat="46.12438" lon="6.71892">
        <ele>1855.3</ele>
        <time>2026-06-27T08:03:08Z</time>
      </trkpt>
      <trkpt lat="46.12438" lon="6.71892">
        <ele>1855.5</ele>
        <time>2026-06-27T08:03:09Z</time>
      </trkpt>
      <trkpt lat="46.12439" lon="6.71893">
        <ele>1855.8</ele>
        <time>2026-06-27T08:03:10Z</time>
      </trkpt>
      <trkpt lat="46.12439" lon="6.71893">
        <ele>1856.1</ele>
        <time>2026-06-27T08:03:11Z</time>
      </trkpt>
      <trkpt lat="46.12439" lon="6.71893">
        <ele>1856.3</ele>
        <time>2026-06-27T08:03:12Z</time>
      </trkpt>
      <trkpt lat="46.1244" lon="6.71893">
        <ele>1856.6</ele>
        <time>2026-06-27T08:03:13Z</time>
      </trkpt>
      <trkpt lat="46.12441" lon="6.71893">
        <ele>1856.8</ele>
        <time>2026-06-27T08:03:14Z</time>
      </trkpt>
      <trkpt lat="46.12441" lon="6.71892">
        <ele>1857</ele>
        <time>2026-06-27T08:03:15Z</time>
      </trkpt>
      <trkpt lat="46.12442" lon="6.71892">
        <ele>1857.2</ele>
        <time>2026-06-27T08:03:16Z</time>
      </trkpt>
      <trkpt lat="46.12442" lon="6.71892">
        <ele>1857.4</ele>
        <time>2026-06-27T08:03:17Z</time>
      </trkpt>
      <trkpt lat="46.12442" lon="6.71892">
        <ele>1857.4</ele>
        <time>2026-06-27T08:03:18Z</time>
      </trkpt>
      <trkpt lat="46.12443" lon="6.71892">
        <ele>1857.6</ele>
        <time>2026-06-27T08:03:19Z</time>
      </trkpt>
      <trkpt lat="46.12443" lon="6.71891">
        <ele>1857.8</ele>
        <time>2026-06-27T08:03:20Z</time>
      </trkpt>
      <trkpt lat="46.12444" lon="6.71891">
        <ele>1858</ele>
        <time>2026-06-27T08:03:21Z</time>
      </trkpt>
      <trkpt lat="46.12444" lon="6.71891">
        <ele>1858.3</ele>
        <time>2026-06-27T08:03:22Z</time>
      </trkpt>
      <trkpt lat="46.12445" lon="6.71891">
        <ele>1858.6</ele>
        <time>2026-06-27T08:03:23Z</time>
      </trkpt>
      <trkpt lat="46.12445" lon="6.71891">
        <ele>1858.8</ele>
        <time>2026-06-27T08:03:24Z</time>
      </trkpt>
      <trkpt lat="46.12446" lon="6.71891">
        <ele>1859</ele>
        <time>2026-06-27T08:03:25Z</time>
      </trkpt>
      <trkpt lat="46.12446" lon="6.71891">
        <ele>1859.1</ele>
        <time>2026-06-27T08:03:26Z</time>
      </trkpt>
      <trkpt lat="46.12447" lon="6.71891">
        <ele>1859.3</ele>
        <time>2026-06-27T08:03:27Z</time>
      </trkpt>
      <trkpt lat="46.12448" lon="6.7189">
        <ele>1859.5</ele>
        <time>2026-06-27T08:03:28Z</time>
      </trkpt>
      <trkpt lat="46.12448" lon="6.7189">
        <ele>1859.8</ele>
        <time>2026-06-27T08:03:29Z</time>
      </trkpt>
      <trkpt lat="46.12449" lon="6.7189">
        <ele>1859.9</ele>
        <time>2026-06-27T08:03:30Z</time>
      </trkpt>
      <trkpt lat="46.12449" lon="6.7189">
        <ele>1860.1</ele>
        <time>2026-06-27T08:03:31Z</time>
      </trkpt>
      <trkpt lat="46.12449" lon="6.7189">
        <ele>1860.3</ele>
        <time>2026-06-27T08:03:32Z</time>
      </trkpt>
      <trkpt lat="46.12449" lon="6.7189">
        <ele>1860.5</ele>
        <time>2026-06-27T08:03:33Z</time>
      </trkpt>
      <trkpt lat="46.12449" lon="6.7189">
        <ele>1860.7</ele>
        <time>2026-06-27T08:03:34Z</time>
      </trkpt>
      <trkpt lat="46.12449" lon="6.7189">
        <ele>1860.8</ele>
        <time>2026-06-27T08:03:35Z</time>
      </trkpt>
      <trkpt lat="46.12449" lon="6.7189">
        <ele>1860.9</ele>
        <time>2026-06-27T08:03:36Z</time>
      </trkpt>
      <trkpt lat="46.12449" lon="6.71891">
        <ele>1861</ele>
        <time>2026-06-27T08:03:37Z</time>
      </trkpt>
      <trkpt lat="46.12449" lon="6.71891">
        <ele>1861.1</ele>
        <time>2026-06-27T08:03:38Z</time>
      </trkpt>
      <trkpt lat="46.12449" lon="6.71891">
        <ele>1861.1</ele>
        <time>2026-06-27T08:03:39Z</time>
      </trkpt>
      <trkpt lat="46.12449" lon="6.71892">
        <ele>1861.2</ele>
        <time>2026-06-27T08:03:40Z</time>
      </trkpt>
      <trkpt lat="46.12449" lon="6.71892">
        <ele>1861.2</ele>
        <time>2026-06-27T08:03:41Z</time>
      </trkpt>
      <trkpt lat="46.12449" lon="6.71892">
        <ele>1861.3</ele>
        <time>2026-06-27T08:03:42Z</time>
      </trkpt>
      <trkpt lat="46.12449" lon="6.71892">
        <ele>1861.3</ele>
        <time>2026-06-27T08:03:43Z</time>
      </trkpt>
      <trkpt lat="46.12449" lon="6.71892">
        <ele>1861.4</ele>
        <time>2026-06-27T08:03:44Z</time>
      </trkpt>
      <trkpt lat="46.12449" lon="6.71893">
        <ele>1861.4</ele>
        <time>2026-06-27T08:03:45Z</time>
      </trkpt>
      <trkpt lat="46.12449" lon="6.71893">
        <ele>1861.4</ele>
        <time>2026-06-27T08:03:46Z</time>
      </trkpt>
      <trkpt lat="46.12449" lon="6.71893">
        <ele>1861.4</ele>
        <time>2026-06-27T08:03:47Z</time>
      </trkpt>
      <trkpt lat="46.12449" lon="6.71893">
        <ele>1861.4</ele>
        <time>2026-06-27T08:03:48Z</time>
      </trkpt>
      <trkpt lat="46.12449" lon="6.71894">
        <ele>1861.4</ele>
        <time>2026-06-27T08:03:49Z</time>
      </trkpt>
      <trkpt lat="46.12449" lon="6.71894">
        <ele>1861.4</ele>
        <time>2026-06-27T08:03:50Z</time>
      </trkpt>
      <trkpt lat="46.12448" lon="6.71894">
        <ele>1861.5</ele>
        <time>2026-06-27T08:03:51Z</time>
      </trkpt>
      <trkpt lat="46.12449" lon="6.71894">
        <ele>1861.5</ele>
        <time>2026-06-27T08:03:52Z</time>
      </trkpt>
      <trkpt lat="46.12449" lon="6.71894">
        <ele>1861.5</ele>
        <time>2026-06-27T08:03:53Z</time>
      </trkpt>
      <trkpt lat="46.12449" lon="6.71894">
        <ele>1861.6</ele>
        <time>2026-06-27T08:03:54Z</time>
      </trkpt>
      <trkpt lat="46.1245" lon="6.71893">
        <ele>1861.6</ele>
        <time>2026-06-27T08:03:55Z</time>
      </trkpt>
      <trkpt lat="46.12451" lon="6.71893">
        <ele>1861.7</ele>
        <time>2026-06-27T08:03:56Z</time>
      </trkpt>
      <trkpt lat="46.12451" lon="6.71893">
        <ele>1861.7</ele>
        <time>2026-06-27T08:03:57Z</time>
      </trkpt>
      <trkpt lat="46.12452" lon="6.71892">
        <ele>1861.8</ele>
        <time>2026-06-27T08:03:58Z</time>
      </trkpt>
      <trkpt lat="46.12453" lon="6.71892">
        <ele>1861.9</ele>
        <time>2026-06-27T08:03:59Z</time>
      </trkpt>
      <trkpt lat="46.12453" lon="6.71892">
        <ele>1862.1</ele>
        <time>2026-06-27T08:04:00Z</time>
      </trkpt>
      <trkpt lat="46.12454" lon="6.71891">
        <ele>1862.3</ele>
        <time>2026-06-27T08:04:01Z</time>
      </trkpt>
      <trkpt lat="46.12455" lon="6.71891">
        <ele>1862.5</ele>
        <time>2026-06-27T08:04:02Z</time>
      </trkpt>
      <trkpt lat="46.12456" lon="6.71891">
        <ele>1862.9</ele>
        <time>2026-06-27T08:04:03Z</time>
      </trkpt>
      <trkpt lat="46.12456" lon="6.71891">
        <ele>1863.2</ele>
        <time>2026-06-27T08:04:04Z</time>
      </trkpt>
      <trkpt lat="46.12457" lon="6.7189">
        <ele>1863.5</ele>
        <time>2026-06-27T08:04:05Z</time>
      </trkpt>
      <trkpt lat="46.12457" lon="6.7189">
        <ele>1863.7</ele>
        <time>2026-06-27T08:04:06Z</time>
      </trkpt>
      <trkpt lat="46.12458" lon="6.7189">
        <ele>1863.9</ele>
        <time>2026-06-27T08:04:07Z</time>
      </trkpt>
      <trkpt lat="46.12458" lon="6.7189">
        <ele>1864.1</ele>
        <time>2026-06-27T08:04:08Z</time>
      </trkpt>
      <trkpt lat="46.12459" lon="6.7189">
        <ele>1864.4</ele>
        <time>2026-06-27T08:04:09Z</time>
      </trkpt>
      <trkpt lat="46.12459" lon="6.7189">
        <ele>1864.7</ele>
        <time>2026-06-27T08:04:10Z</time>
      </trkpt>
      <trkpt lat="46.1246" lon="6.7189">
        <ele>1865</ele>
        <time>2026-06-27T08:04:11Z</time>
      </trkpt>
      <trkpt lat="46.12461" lon="6.71889">
        <ele>1865.2</ele>
        <time>2026-06-27T08:04:12Z</time>
      </trkpt>
      <trkpt lat="46.12461" lon="6.71889">
        <ele>1865.4</ele>
        <time>2026-06-27T08:04:13Z</time>
      </trkpt>
      <trkpt lat="46.12461" lon="6.71889">
        <ele>1865.7</ele>
        <time>2026-06-27T08:04:14Z</time>
      </trkpt>
      <trkpt lat="46.12461" lon="6.71889">
        <ele>1865.9</ele>
        <time>2026-06-27T08:04:15Z</time>
      </trkpt>
      <trkpt lat="46.12462" lon="6.71889">
        <ele>1866.1</ele>
        <time>2026-06-27T08:04:16Z</time>
      </trkpt>
      <trkpt lat="46.12462" lon="6.71889">
        <ele>1866.2</ele>
        <time>2026-06-27T08:04:17Z</time>
      </trkpt>
      <trkpt lat="46.12462" lon="6.71889">
        <ele>1866.4</ele>
        <time>2026-06-27T08:04:18Z</time>
      </trkpt>
      <trkpt lat="46.12463" lon="6.71889">
        <ele>1866.7</ele>
        <time>2026-06-27T08:04:19Z</time>
      </trkpt>
      <trkpt lat="46.12463" lon="6.71889">
        <ele>1866.9</ele>
        <time>2026-06-27T08:04:20Z</time>
      </trkpt>
      <trkpt lat="46.12464" lon="6.71889">
        <ele>1867.3</ele>
        <time>2026-06-27T08:04:21Z</time>
      </trkpt>
      <trkpt lat="46.12465" lon="6.71888">
        <ele>1867.5</ele>
        <time>2026-06-27T08:04:22Z</time>
      </trkpt>
      <trkpt lat="46.12465" lon="6.71888">
        <ele>1867.8</ele>
        <time>2026-06-27T08:04:23Z</time>
      </trkpt>
      <trkpt lat="46.12464" lon="6.71888">
        <ele>1868</ele>
        <time>2026-06-27T08:04:24Z</time>
      </trkpt>
      <trkpt lat="46.12464" lon="6.71888">
        <ele>1868.2</ele>
        <time>2026-06-27T08:04:25Z</time>
      </trkpt>
      <trkpt lat="46.12464" lon="6.71889">
        <ele>1868.7</ele>
        <time>2026-06-27T08:04:26Z</time>
      </trkpt>
      <trkpt lat="46.12465" lon="6.71889">
        <ele>1869</ele>
        <time>2026-06-27T08:04:27Z</time>
      </trkpt>
      <trkpt lat="46.12465" lon="6.71889">
        <ele>1869.3</ele>
        <time>2026-06-27T08:04:28Z</time>
      </trkpt>
      <trkpt lat="46.12465" lon="6.71889">
        <ele>1869.6</ele>
        <time>2026-06-27T08:04:29Z</time>
      </trkpt>
      <trkpt lat="46.12466" lon="6.71889">
        <ele>1869.8</ele>
        <time>2026-06-27T08:04:30Z</time>
      </trkpt>
      <trkpt lat="46.12466" lon="6.71889">
        <ele>1870</ele>
        <time>2026-06-27T08:04:31Z</time>
      </trkpt>
      <trkpt lat="46.12466" lon="6.71889">
        <ele>1870.2</ele>
        <time>2026-06-27T08:04:32Z</time>
      </trkpt>
      <trkpt lat="46.12467" lon="6.71889">
        <ele>1870.4</ele>
        <time>2026-06-27T08:04:33Z</time>
      </trkpt>
      <trkpt lat="46.12468" lon="6.71889">
        <ele>1870.6</ele>
        <time>2026-06-27T08:04:34Z</time>
      </trkpt>
      <trkpt lat="46.12468" lon="6.71888">
        <ele>1870.7</ele>
        <time>2026-06-27T08:04:35Z</time>
      </trkpt>
      <trkpt lat="46.12468" lon="6.71888">
        <ele>1870.9</ele>
        <time>2026-06-27T08:04:36Z</time>
      </trkpt>
      <trkpt lat="46.12469" lon="6.71887">
        <ele>1871</ele>
        <time>2026-06-27T08:04:37Z</time>
      </trkpt>
      <trkpt lat="46.12469" lon="6.71886">
        <ele>1871.2</ele>
        <time>2026-06-27T08:04:38Z</time>
      </trkpt>
      <trkpt lat="46.12469" lon="6.71886">
        <ele>1871.3</ele>
        <time>2026-06-27T08:04:39Z</time>
      </trkpt>
      <trkpt lat="46.12469" lon="6.71886">
        <ele>1871.4</ele>
        <time>2026-06-27T08:04:40Z</time>
      </trkpt>
      <trkpt lat="46.12469" lon="6.71886">
        <ele>1871.4</ele>
        <time>2026-06-27T08:04:41Z</time>
      </trkpt>
      <trkpt lat="46.1247" lon="6.71886">
        <ele>1871.5</ele>
        <time>2026-06-27T08:04:42Z</time>
      </trkpt>
      <trkpt lat="46.1247" lon="6.71885">
        <ele>1871.6</ele>
        <time>2026-06-27T08:04:43Z</time>
      </trkpt>
      <trkpt lat="46.1247" lon="6.71885">
        <ele>1871.6</ele>
        <time>2026-06-27T08:04:44Z</time>
      </trkpt>
      <trkpt lat="46.1247" lon="6.71885">
        <ele>1871.7</ele>
        <time>2026-06-27T08:04:45Z</time>
      </trkpt>
      <trkpt lat="46.1247" lon="6.71885">
        <ele>1871.7</ele>
        <time>2026-06-27T08:04:46Z</time>
      </trkpt>
      <trkpt lat="46.1247" lon="6.71885">
        <ele>1871.7</ele>
        <time>2026-06-27T08:04:47Z</time>
      </trkpt>
      <trkpt lat="46.1247" lon="6.71885">
        <ele>1871.7</ele>
        <time>2026-06-27T08:04:48Z</time>
      </trkpt>
      <trkpt lat="46.1247" lon="6.71885">
        <ele>1871.7</ele>
        <time>2026-06-27T08:04:49Z</time>
      </trkpt>
      <trkpt lat="46.1247" lon="6.71885">
        <ele>1871.6</ele>
        <time>2026-06-27T08:04:50Z</time>
      </trkpt>
      <trkpt lat="46.1247" lon="6.71884">
        <ele>1871.5</ele>
        <time>2026-06-27T08:04:51Z</time>
      </trkpt>
      <trkpt lat="46.1247" lon="6.71884">
        <ele>1871.4</ele>
        <time>2026-06-27T08:04:52Z</time>
      </trkpt>
      <trkpt lat="46.1247" lon="6.71884">
        <ele>1871.3</ele>
        <time>2026-06-27T08:04:53Z</time>
      </trkpt>
      <trkpt lat="46.1247" lon="6.71885">
        <ele>1871.2</ele>
        <time>2026-06-27T08:04:54Z</time>
      </trkpt>
      <trkpt lat="46.1247" lon="6.71884">
        <ele>1871.2</ele>
        <time>2026-06-27T08:04:55Z</time>
      </trkpt>
      <trkpt lat="46.1247" lon="6.71884">
        <ele>1871.2</ele>
        <time>2026-06-27T08:04:56Z</time>
      </trkpt>
      <trkpt lat="46.1247" lon="6.71884">
        <ele>1871.2</ele>
        <time>2026-06-27T08:04:57Z</time>
      </trkpt>
      <trkpt lat="46.1247" lon="6.71884">
        <ele>1871.3</ele>
        <time>2026-06-27T08:04:58Z</time>
      </trkpt>
      <trkpt lat="46.1247" lon="6.71884">
        <ele>1871.3</ele>
        <time>2026-06-27T08:04:59Z</time>
      </trkpt>
      <trkpt lat="46.1247" lon="6.71884">
        <ele>1871.3</ele>
        <time>2026-06-27T08:05:00Z</time>
      </trkpt>
      <trkpt lat="46.1247" lon="6.71884">
        <ele>1871.3</ele>
        <time>2026-06-27T08:05:01Z</time>
      </trkpt>
      <trkpt lat="46.1247" lon="6.71884">
        <ele>1871.3</ele>
        <time>2026-06-27T08:05:02Z</time>
      </trkpt>
      <trkpt lat="46.1247" lon="6.71885">
        <ele>1871.4</ele>
        <time>2026-06-27T08:05:03Z</time>
      </trkpt>
      <trkpt lat="46.12471" lon="6.71885">
        <ele>1871.5</ele>
        <time>2026-06-27T08:05:04Z</time>
      </trkpt>
      <trkpt lat="46.12471" lon="6.71884">
        <ele>1871.6</ele>
        <time>2026-06-27T08:05:05Z</time>
      </trkpt>
      <trkpt lat="46.12471" lon="6.71884">
        <ele>1871.8</ele>
        <time>2026-06-27T08:05:06Z</time>
      </trkpt>
      <trkpt lat="46.12471" lon="6.71884">
        <ele>1871.9</ele>
        <time>2026-06-27T08:05:07Z</time>
      </trkpt>
      <trkpt lat="46.12471" lon="6.71884">
        <ele>1871.9</ele>
        <time>2026-06-27T08:05:08Z</time>
      </trkpt>
      <trkpt lat="46.12471" lon="6.71884">
        <ele>1871.9</ele>
        <time>2026-06-27T08:05:09Z</time>
      </trkpt>
      <trkpt lat="46.12471" lon="6.71884">
        <ele>1872</ele>
        <time>2026-06-27T08:05:10Z</time>
      </trkpt>
      <trkpt lat="46.12472" lon="6.71884">
        <ele>1872.1</ele>
        <time>2026-06-27T08:05:11Z</time>
      </trkpt>
      <trkpt lat="46.12473" lon="6.71884">
        <ele>1872.1</ele>
        <time>2026-06-27T08:05:12Z</time>
      </trkpt>
      <trkpt lat="46.12474" lon="6.71884">
        <ele>1872.2</ele>
        <time>2026-06-27T08:05:13Z</time>
      </trkpt>
      <trkpt lat="46.12474" lon="6.71884">
        <ele>1872.2</ele>
        <time>2026-06-27T08:05:14Z</time>
      </trkpt>
      <trkpt lat="46.12475" lon="6.71884">
        <ele>1872.3</ele>
        <time>2026-06-27T08:05:15Z</time>
      </trkpt>
      <trkpt lat="46.12475" lon="6.71884">
        <ele>1872.4</ele>
        <time>2026-06-27T08:05:16Z</time>
      </trkpt>
      <trkpt lat="46.12476" lon="6.71884">
        <ele>1872.6</ele>
        <time>2026-06-27T08:05:17Z</time>
      </trkpt>
      <trkpt lat="46.12477" lon="6.71884">
        <ele>1872.8</ele>
        <time>2026-06-27T08:05:18Z</time>
      </trkpt>
      <trkpt lat="46.12478" lon="6.71884">
        <ele>1873.1</ele>
        <time>2026-06-27T08:05:19Z</time>
      </trkpt>
      <trkpt lat="46.12479" lon="6.71884">
        <ele>1873.3</ele>
        <time>2026-06-27T08:05:20Z</time>
      </trkpt>
      <trkpt lat="46.12479" lon="6.71884">
        <ele>1873.5</ele>
        <time>2026-06-27T08:05:21Z</time>
      </trkpt>
      <trkpt lat="46.1248" lon="6.71883">
        <ele>1873.7</ele>
        <time>2026-06-27T08:05:22Z</time>
      </trkpt>
      <trkpt lat="46.1248" lon="6.71882">
        <ele>1873.9</ele>
        <time>2026-06-27T08:05:23Z</time>
      </trkpt>
      <trkpt lat="46.12481" lon="6.71882">
        <ele>1874.1</ele>
        <time>2026-06-27T08:05:24Z</time>
      </trkpt>
      <trkpt lat="46.1248" lon="6.71882">
        <ele>1874.2</ele>
        <time>2026-06-27T08:05:25Z</time>
      </trkpt>
      <trkpt lat="46.12481" lon="6.71882">
        <ele>1874.4</ele>
        <time>2026-06-27T08:05:26Z</time>
      </trkpt>
      <trkpt lat="46.12481" lon="6.71882">
        <ele>1874.5</ele>
        <time>2026-06-27T08:05:27Z</time>
      </trkpt>
      <trkpt lat="46.12482" lon="6.71882">
        <ele>1874.6</ele>
        <time>2026-06-27T08:05:28Z</time>
      </trkpt>
      <trkpt lat="46.12482" lon="6.71882">
        <ele>1874.8</ele>
        <time>2026-06-27T08:05:29Z</time>
      </trkpt>
      <trkpt lat="46.12483" lon="6.71882">
        <ele>1875</ele>
        <time>2026-06-27T08:05:30Z</time>
      </trkpt>
      <trkpt lat="46.12483" lon="6.71882">
        <ele>1875.2</ele>
        <time>2026-06-27T08:05:31Z</time>
      </trkpt>
      <trkpt lat="46.12484" lon="6.71881">
        <ele>1875.4</ele>
        <time>2026-06-27T08:05:32Z</time>
      </trkpt>
      <trkpt lat="46.12485" lon="6.7188">
        <ele>1875.6</ele>
        <time>2026-06-27T08:05:33Z</time>
      </trkpt>
      <trkpt lat="46.12485" lon="6.7188">
        <ele>1875.8</ele>
        <time>2026-06-27T08:05:34Z</time>
      </trkpt>
      <trkpt lat="46.12486" lon="6.7188">
        <ele>1876</ele>
        <time>2026-06-27T08:05:35Z</time>
      </trkpt>
      <trkpt lat="46.12487" lon="6.7188">
        <ele>1876.3</ele>
        <time>2026-06-27T08:05:36Z</time>
      </trkpt>
      <trkpt lat="46.12488" lon="6.7188">
        <ele>1876.5</ele>
        <time>2026-06-27T08:05:37Z</time>
      </trkpt>
      <trkpt lat="46.12488" lon="6.71879">
        <ele>1876.8</ele>
        <time>2026-06-27T08:05:38Z</time>
      </trkpt>
      <trkpt lat="46.12489" lon="6.7188">
        <ele>1877</ele>
        <time>2026-06-27T08:05:39Z</time>
      </trkpt>
      <trkpt lat="46.12489" lon="6.7188">
        <ele>1877.2</ele>
        <time>2026-06-27T08:05:40Z</time>
      </trkpt>
      <trkpt lat="46.1249" lon="6.7188">
        <ele>1877.4</ele>
        <time>2026-06-27T08:05:41Z</time>
      </trkpt>
      <trkpt lat="46.1249" lon="6.71881">
        <ele>1877.7</ele>
        <time>2026-06-27T08:05:42Z</time>
      </trkpt>
      <trkpt lat="46.1249" lon="6.71881">
        <ele>1878</ele>
        <time>2026-06-27T08:05:43Z</time>
      </trkpt>
      <trkpt lat="46.12491" lon="6.71882">
        <ele>1878.3</ele>
        <time>2026-06-27T08:05:44Z</time>
      </trkpt>
      <trkpt lat="46.12491" lon="6.71882">
        <ele>1878.4</ele>
        <time>2026-06-27T08:05:45Z</time>
      </trkpt>
      <trkpt lat="46.12492" lon="6.71883">
        <ele>1878.4</ele>
        <time>2026-06-27T08:05:46Z</time>
      </trkpt>
      <trkpt lat="46.12493" lon="6.71883">
        <ele>1878.4</ele>
        <time>2026-06-27T08:05:47Z</time>
      </trkpt>
      <trkpt lat="46.12493" lon="6.71884">
        <ele>1878.5</ele>
        <time>2026-06-27T08:05:48Z</time>
      </trkpt>
      <trkpt lat="46.12494" lon="6.71884">
        <ele>1878.6</ele>
        <time>2026-06-27T08:05:49Z</time>
      </trkpt>
      <trkpt lat="46.12494" lon="6.71885">
        <ele>1878.5</ele>
        <time>2026-06-27T08:05:50Z</time>
      </trkpt>
      <trkpt lat="46.12494" lon="6.71886">
        <ele>1878.5</ele>
        <time>2026-06-27T08:05:51Z</time>
      </trkpt>
      <trkpt lat="46.12495" lon="6.71886">
        <ele>1878.5</ele>
        <time>2026-06-27T08:05:52Z</time>
      </trkpt>
      <trkpt lat="46.12495" lon="6.71887">
        <ele>1878.4</ele>
        <time>2026-06-27T08:05:53Z</time>
      </trkpt>
      <trkpt lat="46.12495" lon="6.71888">
        <ele>1878.2</ele>
        <time>2026-06-27T08:05:54Z</time>
      </trkpt>
      <trkpt lat="46.12496" lon="6.71888">
        <ele>1878.1</ele>
        <time>2026-06-27T08:05:55Z</time>
      </trkpt>
      <trkpt lat="46.12496" lon="6.71889">
        <ele>1877.9</ele>
        <time>2026-06-27T08:05:56Z</time>
      </trkpt>
      <trkpt lat="46.12496" lon="6.71889">
        <ele>1877.8</ele>
        <time>2026-06-27T08:05:57Z</time>
      </trkpt>
      <trkpt lat="46.12497" lon="6.71891">
        <ele>1877.7</ele>
        <time>2026-06-27T08:05:58Z</time>
      </trkpt>
      <trkpt lat="46.12497" lon="6.71892">
        <ele>1877.6</ele>
        <time>2026-06-27T08:05:59Z</time>
      </trkpt>
      <trkpt lat="46.12497" lon="6.71893">
        <ele>1877.3</ele>
        <time>2026-06-27T08:06:00Z</time>
      </trkpt>
      <trkpt lat="46.12497" lon="6.71894">
        <ele>1877.1</ele>
        <time>2026-06-27T08:06:01Z</time>
      </trkpt>
      <trkpt lat="46.12498" lon="6.71895">
        <ele>1876.9</ele>
        <time>2026-06-27T08:06:02Z</time>
      </trkpt>
      <trkpt lat="46.12498" lon="6.71896">
        <ele>1876.8</ele>
        <time>2026-06-27T08:06:03Z</time>
      </trkpt>
      <trkpt lat="46.12498" lon="6.71897">
        <ele>1876.7</ele>
        <time>2026-06-27T08:06:04Z</time>
      </trkpt>
      <trkpt lat="46.12498" lon="6.71897">
        <ele>1876.7</ele>
        <time>2026-06-27T08:06:05Z</time>
      </trkpt>
      <trkpt lat="46.12498" lon="6.71896">
        <ele>1876.5</ele>
        <time>2026-06-27T08:06:06Z</time>
      </trkpt>
      <trkpt lat="46.12498" lon="6.71897">
        <ele>1876.5</ele>
        <time>2026-06-27T08:06:07Z</time>
      </trkpt>
      <trkpt lat="46.12499" lon="6.71898">
        <ele>1876.4</ele>
        <time>2026-06-27T08:06:08Z</time>
      </trkpt>
      <trkpt lat="46.12499" lon="6.71898">
        <ele>1876.3</ele>
        <time>2026-06-27T08:06:09Z</time>
      </trkpt>
      <trkpt lat="46.12499" lon="6.71899">
        <ele>1876.3</ele>
        <time>2026-06-27T08:06:10Z</time>
      </trkpt>
      <trkpt lat="46.125" lon="6.719">
        <ele>1876.2</ele>
        <time>2026-06-27T08:06:11Z</time>
      </trkpt>
      <trkpt lat="46.12501" lon="6.71901">
        <ele>1876.2</ele>
        <time>2026-06-27T08:06:12Z</time>
      </trkpt>
      <trkpt lat="46.12501" lon="6.71902">
        <ele>1876</ele>
        <time>2026-06-27T08:06:13Z</time>
      </trkpt>
      <trkpt lat="46.12501" lon="6.71903">
        <ele>1875.9</ele>
        <time>2026-06-27T08:06:14Z</time>
      </trkpt>
      <trkpt lat="46.12502" lon="6.71903">
        <ele>1875.8</ele>
        <time>2026-06-27T08:06:15Z</time>
      </trkpt>
      <trkpt lat="46.12502" lon="6.71904">
        <ele>1875.7</ele>
        <time>2026-06-27T08:06:16Z</time>
      </trkpt>
      <trkpt lat="46.12502" lon="6.71904">
        <ele>1875.5</ele>
        <time>2026-06-27T08:06:17Z</time>
      </trkpt>
      <trkpt lat="46.12503" lon="6.71905">
        <ele>1875.4</ele>
        <time>2026-06-27T08:06:18Z</time>
      </trkpt>
      <trkpt lat="46.12503" lon="6.71906">
        <ele>1875.2</ele>
        <time>2026-06-27T08:06:19Z</time>
      </trkpt>
      <trkpt lat="46.12503" lon="6.71906">
        <ele>1875</ele>
        <time>2026-06-27T08:06:20Z</time>
      </trkpt>
      <trkpt lat="46.12504" lon="6.71906">
        <ele>1874.8</ele>
        <time>2026-06-27T08:06:21Z</time>
      </trkpt>
      <trkpt lat="46.12504" lon="6.71907">
        <ele>1874.5</ele>
        <time>2026-06-27T08:06:22Z</time>
      </trkpt>
      <trkpt lat="46.12504" lon="6.71907">
        <ele>1874.2</ele>
        <time>2026-06-27T08:06:23Z</time>
      </trkpt>
      <trkpt lat="46.12505" lon="6.71908">
        <ele>1874.1</ele>
        <time>2026-06-27T08:06:24Z</time>
      </trkpt>
      <trkpt lat="46.12505" lon="6.71908">
        <ele>1874</ele>
        <time>2026-06-27T08:06:25Z</time>
      </trkpt>
      <trkpt lat="46.12505" lon="6.71909">
        <ele>1874</ele>
        <time>2026-06-27T08:06:26Z</time>
      </trkpt>
      <trkpt lat="46.12506" lon="6.71909">
        <ele>1873.8</ele>
        <time>2026-06-27T08:06:27Z</time>
      </trkpt>
      <trkpt lat="46.12506" lon="6.71909">
        <ele>1873.7</ele>
        <time>2026-06-27T08:06:28Z</time>
      </trkpt>
      <trkpt lat="46.12506" lon="6.7191">
        <ele>1873.6</ele>
        <time>2026-06-27T08:06:29Z</time>
      </trkpt>
      <trkpt lat="46.12506" lon="6.7191">
        <ele>1873.4</ele>
        <time>2026-06-27T08:06:30Z</time>
      </trkpt>
      <trkpt lat="46.12506" lon="6.7191">
        <ele>1873.3</ele>
        <time>2026-06-27T08:06:31Z</time>
      </trkpt>
      <trkpt lat="46.12506" lon="6.71911">
        <ele>1873.2</ele>
        <time>2026-06-27T08:06:32Z</time>
      </trkpt>
      <trkpt lat="46.12507" lon="6.71911">
        <ele>1873.1</ele>
        <time>2026-06-27T08:06:33Z</time>
      </trkpt>
      <trkpt lat="46.12507" lon="6.7191">
        <ele>1873</ele>
        <time>2026-06-27T08:06:34Z</time>
      </trkpt>
      <trkpt lat="46.12507" lon="6.71911">
        <ele>1872.8</ele>
        <time>2026-06-27T08:06:35Z</time>
      </trkpt>
      <trkpt lat="46.12508" lon="6.71911">
        <ele>1872.7</ele>
        <time>2026-06-27T08:06:36Z</time>
      </trkpt>
      <trkpt lat="46.12508" lon="6.71911">
        <ele>1872.4</ele>
        <time>2026-06-27T08:06:37Z</time>
      </trkpt>
      <trkpt lat="46.12508" lon="6.71911">
        <ele>1872.2</ele>
        <time>2026-06-27T08:06:38Z</time>
      </trkpt>
      <trkpt lat="46.12509" lon="6.71911">
        <ele>1872</ele>
        <time>2026-06-27T08:06:39Z</time>
      </trkpt>
      <trkpt lat="46.12509" lon="6.71912">
        <ele>1872</ele>
        <time>2026-06-27T08:06:40Z</time>
      </trkpt>
      <trkpt lat="46.12509" lon="6.71912">
        <ele>1872</ele>
        <time>2026-06-27T08:06:41Z</time>
      </trkpt>
      <trkpt lat="46.1251" lon="6.71912">
        <ele>1871.8</ele>
        <time>2026-06-27T08:06:42Z</time>
      </trkpt>
      <trkpt lat="46.1251" lon="6.71912">
        <ele>1871.5</ele>
        <time>2026-06-27T08:06:43Z</time>
      </trkpt>
      <trkpt lat="46.12511" lon="6.71912">
        <ele>1871.4</ele>
        <time>2026-06-27T08:06:44Z</time>
      </trkpt>
      <trkpt lat="46.12511" lon="6.71913">
        <ele>1871.2</ele>
        <time>2026-06-27T08:06:45Z</time>
      </trkpt>
      <trkpt lat="46.12512" lon="6.71913">
        <ele>1871.1</ele>
        <time>2026-06-27T08:06:46Z</time>
      </trkpt>
      <trkpt lat="46.12512" lon="6.71913">
        <ele>1871</ele>
        <time>2026-06-27T08:06:47Z</time>
      </trkpt>
      <trkpt lat="46.12512" lon="6.71914">
        <ele>1870.7</ele>
        <time>2026-06-27T08:06:48Z</time>
      </trkpt>
      <trkpt lat="46.12513" lon="6.71914">
        <ele>1870.4</ele>
        <time>2026-06-27T08:06:49Z</time>
      </trkpt>
      <trkpt lat="46.12513" lon="6.71915">
        <ele>1870.1</ele>
        <time>2026-06-27T08:06:50Z</time>
      </trkpt>
      <trkpt lat="46.12513" lon="6.71915">
        <ele>1869.6</ele>
        <time>2026-06-27T08:06:51Z</time>
      </trkpt>
      <trkpt lat="46.12514" lon="6.71916">
        <ele>1869.1</ele>
        <time>2026-06-27T08:06:52Z</time>
      </trkpt>
      <trkpt lat="46.12514" lon="6.71917">
        <ele>1868.9</ele>
        <time>2026-06-27T08:06:53Z</time>
      </trkpt>
      <trkpt lat="46.12514" lon="6.71916">
        <ele>1868.7</ele>
        <time>2026-06-27T08:06:54Z</time>
      </trkpt>
      <trkpt lat="46.12514" lon="6.71916">
        <ele>1868.5</ele>
        <time>2026-06-27T08:06:55Z</time>
      </trkpt>
      <trkpt lat="46.12514" lon="6.71917">
        <ele>1868.4</ele>
        <time>2026-06-27T08:06:56Z</time>
      </trkpt>
      <trkpt lat="46.12514" lon="6.71917">
        <ele>1868.4</ele>
        <time>2026-06-27T08:06:57Z</time>
      </trkpt>
      <trkpt lat="46.12514" lon="6.71917">
        <ele>1868.3</ele>
        <time>2026-06-27T08:06:58Z</time>
      </trkpt>
      <trkpt lat="46.12514" lon="6.71917">
        <ele>1868.2</ele>
        <time>2026-06-27T08:06:59Z</time>
      </trkpt>
      <trkpt lat="46.12514" lon="6.71917">
        <ele>1868.2</ele>
        <time>2026-06-27T08:07:00Z</time>
      </trkpt>
      <trkpt lat="46.12514" lon="6.71917">
        <ele>1868.1</ele>
        <time>2026-06-27T08:07:01Z</time>
      </trkpt>
      <trkpt lat="46.12514" lon="6.71918">
        <ele>1868.1</ele>
        <time>2026-06-27T08:07:02Z</time>
      </trkpt>
      <trkpt lat="46.12514" lon="6.71918">
        <ele>1868</ele>
        <time>2026-06-27T08:07:03Z</time>
      </trkpt>
      <trkpt lat="46.12515" lon="6.71918">
        <ele>1867.8</ele>
        <time>2026-06-27T08:07:04Z</time>
      </trkpt>
      <trkpt lat="46.12515" lon="6.71918">
        <ele>1867.6</ele>
        <time>2026-06-27T08:07:05Z</time>
      </trkpt>
      <trkpt lat="46.12515" lon="6.71918">
        <ele>1867.5</ele>
        <time>2026-06-27T08:07:06Z</time>
      </trkpt>
      <trkpt lat="46.12515" lon="6.71918">
        <ele>1867.4</ele>
        <time>2026-06-27T08:07:07Z</time>
      </trkpt>
      <trkpt lat="46.12515" lon="6.71918">
        <ele>1867.4</ele>
        <time>2026-06-27T08:07:08Z</time>
      </trkpt>
      <trkpt lat="46.12515" lon="6.71918">
        <ele>1867.4</ele>
        <time>2026-06-27T08:07:09Z</time>
      </trkpt>
      <trkpt lat="46.12515" lon="6.71918">
        <ele>1867.4</ele>
        <time>2026-06-27T08:07:10Z</time>
      </trkpt>
      <trkpt lat="46.12516" lon="6.71918">
        <ele>1867.4</ele>
        <time>2026-06-27T08:07:11Z</time>
      </trkpt>
      <trkpt lat="46.12516" lon="6.71918">
        <ele>1867.5</ele>
        <time>2026-06-27T08:07:12Z</time>
      </trkpt>
      <trkpt lat="46.12516" lon="6.71918">
        <ele>1867.5</ele>
        <time>2026-06-27T08:07:13Z</time>
      </trkpt>
      <trkpt lat="46.12516" lon="6.71918">
        <ele>1867.5</ele>
        <time>2026-06-27T08:07:14Z</time>
      </trkpt>
      <trkpt lat="46.12516" lon="6.71918">
        <ele>1867.4</ele>
        <time>2026-06-27T08:07:15Z</time>
      </trkpt>
      <trkpt lat="46.12516" lon="6.71917">
        <ele>1867.3</ele>
        <time>2026-06-27T08:07:16Z</time>
      </trkpt>
      <trkpt lat="46.12516" lon="6.71917">
        <ele>1867.3</ele>
        <time>2026-06-27T08:07:17Z</time>
      </trkpt>
      <trkpt lat="46.12516" lon="6.71917">
        <ele>1867.3</ele>
        <time>2026-06-27T08:07:18Z</time>
      </trkpt>
      <trkpt lat="46.12516" lon="6.71917">
        <ele>1867.3</ele>
        <time>2026-06-27T08:07:19Z</time>
      </trkpt>
      <trkpt lat="46.12516" lon="6.71917">
        <ele>1867.2</ele>
        <time>2026-06-27T08:07:20Z</time>
      </trkpt>
      <trkpt lat="46.12516" lon="6.71917">
        <ele>1867.3</ele>
        <time>2026-06-27T08:07:21Z</time>
      </trkpt>
      <trkpt lat="46.12516" lon="6.71917">
        <ele>1867.4</ele>
        <time>2026-06-27T08:07:22Z</time>
      </trkpt>
      <trkpt lat="46.12516" lon="6.71917">
        <ele>1867.5</ele>
        <time>2026-06-27T08:07:23Z</time>
      </trkpt>
      <trkpt lat="46.12516" lon="6.71917">
        <ele>1867.6</ele>
        <time>2026-06-27T08:07:24Z</time>
      </trkpt>
      <trkpt lat="46.12517" lon="6.71917">
        <ele>1867.7</ele>
        <time>2026-06-27T08:07:25Z</time>
      </trkpt>
      <trkpt lat="46.12517" lon="6.71917">
        <ele>1867.8</ele>
        <time>2026-06-27T08:07:26Z</time>
      </trkpt>
      <trkpt lat="46.12517" lon="6.71917">
        <ele>1867.8</ele>
        <time>2026-06-27T08:07:27Z</time>
      </trkpt>
      <trkpt lat="46.12517" lon="6.71916">
        <ele>1867.8</ele>
        <time>2026-06-27T08:07:28Z</time>
      </trkpt>
      <trkpt lat="46.12517" lon="6.71916">
        <ele>1867.7</ele>
        <time>2026-06-27T08:07:29Z</time>
      </trkpt>
      <trkpt lat="46.12517" lon="6.71915">
        <ele>1867.9</ele>
        <time>2026-06-27T08:07:30Z</time>
      </trkpt>
      <trkpt lat="46.12516" lon="6.71915">
        <ele>1868</ele>
        <time>2026-06-27T08:07:31Z</time>
      </trkpt>
      <trkpt lat="46.12516" lon="6.71914">
        <ele>1868.2</ele>
        <time>2026-06-27T08:07:32Z</time>
      </trkpt>
      <trkpt lat="46.12515" lon="6.71914">
        <ele>1868.3</ele>
        <time>2026-06-27T08:07:33Z</time>
      </trkpt>
      <trkpt lat="46.12515" lon="6.71913">
        <ele>1868.4</ele>
        <time>2026-06-27T08:07:34Z</time>
      </trkpt>
      <trkpt lat="46.12515" lon="6.71913">
        <ele>1868.6</ele>
        <time>2026-06-27T08:07:35Z</time>
      </trkpt>
      <trkpt lat="46.12515" lon="6.71913">
        <ele>1868.9</ele>
        <time>2026-06-27T08:07:36Z</time>
      </trkpt>
      <trkpt lat="46.12515" lon="6.71912">
        <ele>1869</ele>
        <time>2026-06-27T08:07:37Z</time>
      </trkpt>
      <trkpt lat="46.12515" lon="6.71912">
        <ele>1869.2</ele>
        <time>2026-06-27T08:07:38Z</time>
      </trkpt>
      <trkpt lat="46.12515" lon="6.71911">
        <ele>1869.4</ele>
        <time>2026-06-27T08:07:39Z</time>
      </trkpt>
      <trkpt lat="46.12515" lon="6.71911">
        <ele>1869.6</ele>
        <time>2026-06-27T08:07:40Z</time>
      </trkpt>
      <trkpt lat="46.12514" lon="6.71911">
        <ele>1869.8</ele>
        <time>2026-06-27T08:07:41Z</time>
      </trkpt>
      <trkpt lat="46.12514" lon="6.71911">
        <ele>1869.9</ele>
        <time>2026-06-27T08:07:42Z</time>
      </trkpt>
      <trkpt lat="46.12514" lon="6.71911">
        <ele>1870.2</ele>
        <time>2026-06-27T08:07:43Z</time>
      </trkpt>
      <trkpt lat="46.12514" lon="6.7191">
        <ele>1870.4</ele>
        <time>2026-06-27T08:07:44Z</time>
      </trkpt>
      <trkpt lat="46.12514" lon="6.71909">
        <ele>1870.5</ele>
        <time>2026-06-27T08:07:45Z</time>
      </trkpt>
      <trkpt lat="46.12513" lon="6.71909">
        <ele>1870.7</ele>
        <time>2026-06-27T08:07:46Z</time>
      </trkpt>
      <trkpt lat="46.12513" lon="6.71909">
        <ele>1870.9</ele>
        <time>2026-06-27T08:07:47Z</time>
      </trkpt>
      <trkpt lat="46.12513" lon="6.71909">
        <ele>1871</ele>
        <time>2026-06-27T08:07:48Z</time>
      </trkpt>
      <trkpt lat="46.12512" lon="6.71909">
        <ele>1871.2</ele>
        <time>2026-06-27T08:07:49Z</time>
      </trkpt>
      <trkpt lat="46.12512" lon="6.71909">
        <ele>1871.3</ele>
        <time>2026-06-27T08:07:50Z</time>
      </trkpt>
      <trkpt lat="46.12512" lon="6.71909">
        <ele>1871.4</ele>
        <time>2026-06-27T08:07:51Z</time>
      </trkpt>
      <trkpt lat="46.12511" lon="6.71909">
        <ele>1871.5</ele>
        <time>2026-06-27T08:07:52Z</time>
      </trkpt>
      <trkpt lat="46.12511" lon="6.71909">
        <ele>1871.8</ele>
        <time>2026-06-27T08:07:53Z</time>
      </trkpt>
      <trkpt lat="46.12511" lon="6.71909">
        <ele>1871.8</ele>
        <time>2026-06-27T08:07:54Z</time>
      </trkpt>
      <trkpt lat="46.1251" lon="6.71909">
        <ele>1872</ele>
        <time>2026-06-27T08:07:55Z</time>
      </trkpt>
      <trkpt lat="46.1251" lon="6.71908">
        <ele>1872.1</ele>
        <time>2026-06-27T08:07:56Z</time>
      </trkpt>
      <trkpt lat="46.1251" lon="6.71908">
        <ele>1872.3</ele>
        <time>2026-06-27T08:07:57Z</time>
      </trkpt>
      <trkpt lat="46.12509" lon="6.71907">
        <ele>1872.5</ele>
        <time>2026-06-27T08:07:58Z</time>
      </trkpt>
      <trkpt lat="46.12509" lon="6.71907">
        <ele>1872.6</ele>
        <time>2026-06-27T08:07:59Z</time>
      </trkpt>
      <trkpt lat="46.12509" lon="6.71906">
        <ele>1872.8</ele>
        <time>2026-06-27T08:08:00Z</time>
      </trkpt>
      <trkpt lat="46.12508" lon="6.71906">
        <ele>1873</ele>
        <time>2026-06-27T08:08:01Z</time>
      </trkpt>
      <trkpt lat="46.12508" lon="6.71906">
        <ele>1873.1</ele>
        <time>2026-06-27T08:08:02Z</time>
      </trkpt>
      <trkpt lat="46.12508" lon="6.71905">
        <ele>1873.3</ele>
        <time>2026-06-27T08:08:03Z</time>
      </trkpt>
      <trkpt lat="46.12508" lon="6.71905">
        <ele>1873.5</ele>
        <time>2026-06-27T08:08:04Z</time>
      </trkpt>
      <trkpt lat="46.12508" lon="6.71905">
        <ele>1873.6</ele>
        <time>2026-06-27T08:08:05Z</time>
      </trkpt>
      <trkpt lat="46.12508" lon="6.71904">
        <ele>1873.8</ele>
        <time>2026-06-27T08:08:06Z</time>
      </trkpt>
      <trkpt lat="46.12508" lon="6.71904">
        <ele>1873.8</ele>
        <time>2026-06-27T08:08:07Z</time>
      </trkpt>
      <trkpt lat="46.12507" lon="6.71904">
        <ele>1874</ele>
        <time>2026-06-27T08:08:08Z</time>
      </trkpt>
      <trkpt lat="46.12507" lon="6.71904">
        <ele>1874.2</ele>
        <time>2026-06-27T08:08:09Z</time>
      </trkpt>
      <trkpt lat="46.12506" lon="6.71903">
        <ele>1874.4</ele>
        <time>2026-06-27T08:08:10Z</time>
      </trkpt>
      <trkpt lat="46.12506" lon="6.71903">
        <ele>1874.5</ele>
        <time>2026-06-27T08:08:11Z</time>
      </trkpt>
      <trkpt lat="46.12506" lon="6.71902">
        <ele>1874.6</ele>
        <time>2026-06-27T08:08:12Z</time>
      </trkpt>
      <trkpt lat="46.12506" lon="6.71902">
        <ele>1874.7</ele>
        <time>2026-06-27T08:08:13Z</time>
      </trkpt>
      <trkpt lat="46.12505" lon="6.71902">
        <ele>1874.8</ele>
        <time>2026-06-27T08:08:14Z</time>
      </trkpt>
      <trkpt lat="46.12505" lon="6.71902">
        <ele>1875</ele>
        <time>2026-06-27T08:08:15Z</time>
      </trkpt>
      <trkpt lat="46.12505" lon="6.71902">
        <ele>1875.1</ele>
        <time>2026-06-27T08:08:16Z</time>
      </trkpt>
      <trkpt lat="46.12505" lon="6.71901">
        <ele>1875.3</ele>
        <time>2026-06-27T08:08:17Z</time>
      </trkpt>
      <trkpt lat="46.12505" lon="6.71901">
        <ele>1875.3</ele>
        <time>2026-06-27T08:08:18Z</time>
      </trkpt>
      <trkpt lat="46.12505" lon="6.71901">
        <ele>1875.3</ele>
        <time>2026-06-27T08:08:19Z</time>
      </trkpt>
      <trkpt lat="46.12505" lon="6.71901">
        <ele>1875.2</ele>
        <time>2026-06-27T08:08:20Z</time>
      </trkpt>
      <trkpt lat="46.12505" lon="6.71901">
        <ele>1875.3</ele>
        <time>2026-06-27T08:08:21Z</time>
      </trkpt>
      <trkpt lat="46.12505" lon="6.71901">
        <ele>1875.2</ele>
        <time>2026-06-27T08:08:22Z</time>
      </trkpt>
      <trkpt lat="46.12505" lon="6.71901">
        <ele>1875.1</ele>
        <time>2026-06-27T08:08:23Z</time>
      </trkpt>
      <trkpt lat="46.12505" lon="6.71901">
        <ele>1875.2</ele>
        <time>2026-06-27T08:08:24Z</time>
      </trkpt>
      <trkpt lat="46.12505" lon="6.71901">
        <ele>1875.2</ele>
        <time>2026-06-27T08:08:25Z</time>
      </trkpt>
      <trkpt lat="46.12505" lon="6.71901">
        <ele>1875.3</ele>
        <time>2026-06-27T08:08:26Z</time>
      </trkpt>
      <trkpt lat="46.12505" lon="6.71901">
        <ele>1875.3</ele>
        <time>2026-06-27T08:08:27Z</time>
      </trkpt>
      <trkpt lat="46.12505" lon="6.71901">
        <ele>1875.4</ele>
        <time>2026-06-27T08:08:28Z</time>
      </trkpt>
      <trkpt lat="46.12505" lon="6.71901">
        <ele>1875.4</ele>
        <time>2026-06-27T08:08:29Z</time>
      </trkpt>
      <trkpt lat="46.12505" lon="6.71901">
        <ele>1875.4</ele>
        <time>2026-06-27T08:08:30Z</time>
      </trkpt>
      <trkpt lat="46.12505" lon="6.71901">
        <ele>1875.4</ele>
        <time>2026-06-27T08:08:31Z</time>
      </trkpt>
      <trkpt lat="46.12505" lon="6.71901">
        <ele>1875.4</ele>
        <time>2026-06-27T08:08:32Z</time>
      </trkpt>
      <trkpt lat="46.12505" lon="6.71901">
        <ele>1875.4</ele>
        <time>2026-06-27T08:08:33Z</time>
      </trkpt>
      <trkpt lat="46.12505" lon="6.71901">
        <ele>1875.4</ele>
        <time>2026-06-27T08:08:34Z</time>
      </trkpt>
      <trkpt lat="46.12505" lon="6.719">
        <ele>1875.4</ele>
        <time>2026-06-27T08:08:35Z</time>
      </trkpt>
      <trkpt lat="46.12505" lon="6.71899">
        <ele>1875.5</ele>
        <time>2026-06-27T08:08:36Z</time>
      </trkpt>
      <trkpt lat="46.12504" lon="6.71899">
        <ele>1875.6</ele>
        <time>2026-06-27T08:08:37Z</time>
      </trkpt>
      <trkpt lat="46.12504" lon="6.71898">
        <ele>1875.6</ele>
        <time>2026-06-27T08:08:38Z</time>
      </trkpt>
      <trkpt lat="46.12504" lon="6.71897">
        <ele>1875.6</ele>
        <time>2026-06-27T08:08:39Z</time>
      </trkpt>
      <trkpt lat="46.12503" lon="6.71897">
        <ele>1875.6</ele>
        <time>2026-06-27T08:08:40Z</time>
      </trkpt>
      <trkpt lat="46.12503" lon="6.71896">
        <ele>1875.7</ele>
        <time>2026-06-27T08:08:41Z</time>
      </trkpt>
      <trkpt lat="46.12503" lon="6.71895">
        <ele>1875.7</ele>
        <time>2026-06-27T08:08:42Z</time>
      </trkpt>
      <trkpt lat="46.12502" lon="6.71894">
        <ele>1875.9</ele>
        <time>2026-06-27T08:08:43Z</time>
      </trkpt>
      <trkpt lat="46.12502" lon="6.71893">
        <ele>1876</ele>
        <time>2026-06-27T08:08:44Z</time>
      </trkpt>
      <trkpt lat="46.12502" lon="6.71892">
        <ele>1876.2</ele>
        <time>2026-06-27T08:08:45Z</time>
      </trkpt>
      <trkpt lat="46.12502" lon="6.71892">
        <ele>1876.3</ele>
        <time>2026-06-27T08:08:46Z</time>
      </trkpt>
      <trkpt lat="46.12501" lon="6.71891">
        <ele>1876.4</ele>
        <time>2026-06-27T08:08:47Z</time>
      </trkpt>
      <trkpt lat="46.12501" lon="6.7189">
        <ele>1876.5</ele>
        <time>2026-06-27T08:08:48Z</time>
      </trkpt>
      <trkpt lat="46.12501" lon="6.7189">
        <ele>1876.6</ele>
        <time>2026-06-27T08:08:49Z</time>
      </trkpt>
      <trkpt lat="46.12501" lon="6.71889">
        <ele>1876.8</ele>
        <time>2026-06-27T08:08:50Z</time>
      </trkpt>
      <trkpt lat="46.12501" lon="6.71888">
        <ele>1876.9</ele>
        <time>2026-06-27T08:08:51Z</time>
      </trkpt>
      <trkpt lat="46.125" lon="6.71888">
        <ele>1876.9</ele>
        <time>2026-06-27T08:08:52Z</time>
      </trkpt>
      <trkpt lat="46.125" lon="6.71887">
        <ele>1877</ele>
        <time>2026-06-27T08:08:53Z</time>
      </trkpt>
      <trkpt lat="46.125" lon="6.71887">
        <ele>1877.1</ele>
        <time>2026-06-27T08:08:54Z</time>
      </trkpt>
      <trkpt lat="46.12499" lon="6.71886">
        <ele>1877.2</ele>
        <time>2026-06-27T08:08:55Z</time>
      </trkpt>
      <trkpt lat="46.12499" lon="6.71885">
        <ele>1877.2</ele>
        <time>2026-06-27T08:08:56Z</time>
      </trkpt>
      <trkpt lat="46.12499" lon="6.71884">
        <ele>1877.2</ele>
        <time>2026-06-27T08:08:57Z</time>
      </trkpt>
      <trkpt lat="46.12499" lon="6.71884">
        <ele>1877.4</ele>
        <time>2026-06-27T08:08:58Z</time>
      </trkpt>
      <trkpt lat="46.12499" lon="6.71883">
        <ele>1877.5</ele>
        <time>2026-06-27T08:08:59Z</time>
      </trkpt>
      <trkpt lat="46.12498" lon="6.71883">
        <ele>1877.6</ele>
        <time>2026-06-27T08:09:00Z</time>
      </trkpt>
      <trkpt lat="46.12497" lon="6.71883">
        <ele>1877.7</ele>
        <time>2026-06-27T08:09:01Z</time>
      </trkpt>
      <trkpt lat="46.12497" lon="6.71883">
        <ele>1877.9</ele>
        <time>2026-06-27T08:09:02Z</time>
      </trkpt>
      <trkpt lat="46.12497" lon="6.71884">
        <ele>1878</ele>
        <time>2026-06-27T08:09:03Z</time>
      </trkpt>
      <trkpt lat="46.12496" lon="6.71884">
        <ele>1878.2</ele>
        <time>2026-06-27T08:09:04Z</time>
      </trkpt>
      <trkpt lat="46.12496" lon="6.71884">
        <ele>1878.3</ele>
        <time>2026-06-27T08:09:05Z</time>
      </trkpt>
      <trkpt lat="46.12496" lon="6.71884">
        <ele>1878.4</ele>
        <time>2026-06-27T08:09:06Z</time>
      </trkpt>
      <trkpt lat="46.12496" lon="6.71884">
        <ele>1878.4</ele>
        <time>2026-06-27T08:09:07Z</time>
      </trkpt>
      <trkpt lat="46.12496" lon="6.71884">
        <ele>1878.5</ele>
        <time>2026-06-27T08:09:08Z</time>
      </trkpt>
      <trkpt lat="46.12495" lon="6.71884">
        <ele>1878.6</ele>
        <time>2026-06-27T08:09:09Z</time>
      </trkpt>
      <trkpt lat="46.12495" lon="6.71884">
        <ele>1878.7</ele>
        <time>2026-06-27T08:09:10Z</time>
      </trkpt>
      <trkpt lat="46.12495" lon="6.71884">
        <ele>1878.8</ele>
        <time>2026-06-27T08:09:11Z</time>
      </trkpt>
      <trkpt lat="46.12495" lon="6.71884">
        <ele>1878.8</ele>
        <time>2026-06-27T08:09:12Z</time>
      </trkpt>
      <trkpt lat="46.12495" lon="6.71884">
        <ele>1878.8</ele>
        <time>2026-06-27T08:09:13Z</time>
      </trkpt>
      <trkpt lat="46.12495" lon="6.71884">
        <ele>1878.8</ele>
        <time>2026-06-27T08:09:14Z</time>
      </trkpt>
      <trkpt lat="46.12495" lon="6.71884">
        <ele>1878.8</ele>
        <time>2026-06-27T08:09:15Z</time>
      </trkpt>
      <trkpt lat="46.12495" lon="6.71884">
        <ele>1878.7</ele>
        <time>2026-06-27T08:09:16Z</time>
      </trkpt>
      <trkpt lat="46.12495" lon="6.71884">
        <ele>1878.7</ele>
        <time>2026-06-27T08:09:17Z</time>
      </trkpt>
      <trkpt lat="46.12495" lon="6.71884">
        <ele>1878.6</ele>
        <time>2026-06-27T08:09:18Z</time>
      </trkpt>
      <trkpt lat="46.12494" lon="6.71884">
        <ele>1878.6</ele>
        <time>2026-06-27T08:09:19Z</time>
      </trkpt>
      <trkpt lat="46.12494" lon="6.71884">
        <ele>1878.5</ele>
        <time>2026-06-27T08:09:20Z</time>
      </trkpt>
      <trkpt lat="46.12494" lon="6.71884">
        <ele>1878.5</ele>
        <time>2026-06-27T08:09:21Z</time>
      </trkpt>
      <trkpt lat="46.12494" lon="6.71884">
        <ele>1878.5</ele>
        <time>2026-06-27T08:09:22Z</time>
      </trkpt>
      <trkpt lat="46.12494" lon="6.71885">
        <ele>1878.5</ele>
        <time>2026-06-27T08:09:23Z</time>
      </trkpt>
      <trkpt lat="46.12494" lon="6.71885">
        <ele>1878.5</ele>
        <time>2026-06-27T08:09:24Z</time>
      </trkpt>
      <trkpt lat="46.12494" lon="6.71885">
        <ele>1878.5</ele>
        <time>2026-06-27T08:09:25Z</time>
      </trkpt>
      <trkpt lat="46.12494" lon="6.71885">
        <ele>1878.6</ele>
        <time>2026-06-27T08:09:26Z</time>
      </trkpt>
      <trkpt lat="46.12494" lon="6.71885">
        <ele>1878.6</ele>
        <time>2026-06-27T08:09:27Z</time>
      </trkpt>
      <trkpt lat="46.12494" lon="6.71885">
        <ele>1878.7</ele>
        <time>2026-06-27T08:09:28Z</time>
      </trkpt>
      <trkpt lat="46.12494" lon="6.71885">
        <ele>1878.6</ele>
        <time>2026-06-27T08:09:29Z</time>
      </trkpt>
      <trkpt lat="46.12494" lon="6.71885">
        <ele>1878.6</ele>
        <time>2026-06-27T08:09:30Z</time>
      </trkpt>
      <trkpt lat="46.12494" lon="6.71886">
        <ele>1878.6</ele>
        <time>2026-06-27T08:09:31Z</time>
      </trkpt>
      <trkpt lat="46.12494" lon="6.71886">
        <ele>1878.5</ele>
        <time>2026-06-27T08:09:32Z</time>
      </trkpt>
      <trkpt lat="46.12494" lon="6.71886">
        <ele>1878.5</ele>
        <time>2026-06-27T08:09:33Z</time>
      </trkpt>
      <trkpt lat="46.12494" lon="6.71886">
        <ele>1878.4</ele>
        <time>2026-06-27T08:09:34Z</time>
      </trkpt>
      <trkpt lat="46.12494" lon="6.71886">
        <ele>1878.4</ele>
        <time>2026-06-27T08:09:35Z</time>
      </trkpt>
      <trkpt lat="46.12494" lon="6.71886">
        <ele>1878.4</ele>
        <time>2026-06-27T08:09:36Z</time>
      </trkpt>
      <trkpt lat="46.12494" lon="6.71886">
        <ele>1878.4</ele>
        <time>2026-06-27T08:09:37Z</time>
      </trkpt>
      <trkpt lat="46.12494" lon="6.71886">
        <ele>1878.3</ele>
        <time>2026-06-27T08:09:38Z</time>
      </trkpt>
      <trkpt lat="46.12494" lon="6.71886">
        <ele>1878.4</ele>
        <time>2026-06-27T08:09:39Z</time>
      </trkpt>
      <trkpt lat="46.12494" lon="6.71886">
        <ele>1878.4</ele>
        <time>2026-06-27T08:09:40Z</time>
      </trkpt>
      <trkpt lat="46.12494" lon="6.71886">
        <ele>1878.4</ele>
        <time>2026-06-27T08:09:41Z</time>
      </trkpt>
      <trkpt lat="46.12493" lon="6.71885">
        <ele>1878.4</ele>
        <time>2026-06-27T08:09:42Z</time>
      </trkpt>
      <trkpt lat="46.12493" lon="6.71885">
        <ele>1878.4</ele>
        <time>2026-06-27T08:09:43Z</time>
      </trkpt>
      <trkpt lat="46.12493" lon="6.71885">
        <ele>1878.4</ele>
        <time>2026-06-27T08:09:44Z</time>
      </trkpt>
      <trkpt lat="46.12493" lon="6.71885">
        <ele>1878.5</ele>
        <time>2026-06-27T08:09:45Z</time>
      </trkpt>
      <trkpt lat="46.12493" lon="6.71885">
        <ele>1878.5</ele>
        <time>2026-06-27T08:09:46Z</time>
      </trkpt>
      <trkpt lat="46.12493" lon="6.71885">
        <ele>1878.5</ele>
        <time>2026-06-27T08:09:47Z</time>
      </trkpt>
      <trkpt lat="46.12493" lon="6.71885">
        <ele>1878.5</ele>
        <time>2026-06-27T08:09:48Z</time>
      </trkpt>
      <trkpt lat="46.12493" lon="6.71885">
        <ele>1878.5</ele>
        <time>2026-06-27T08:09:49Z</time>
      </trkpt>
      <trkpt lat="46.12493" lon="6.71885">
        <ele>1878.5</ele>
        <time>2026-06-27T08:09:50Z</time>
      </trkpt>
      <trkpt lat="46.12493" lon="6.71885">
        <ele>1878.6</ele>
        <time>2026-06-27T08:09:51Z</time>
      </trkpt>
      <trkpt lat="46.12493" lon="6.71885">
        <ele>1878.6</ele>
        <time>2026-06-27T08:09:52Z</time>
      </trkpt>
      <trkpt lat="46.12493" lon="6.71885">
        <ele>1878.5</ele>
        <time>2026-06-27T08:09:53Z</time>
      </trkpt>
      <trkpt lat="46.12493" lon="6.71885">
        <ele>1878.5</ele>
        <time>2026-06-27T08:09:54Z</time>
      </trkpt>
      <trkpt lat="46.12493" lon="6.71885">
        <ele>1878.5</ele>
        <time>2026-06-27T08:09:55Z</time>
      </trkpt>
      <trkpt lat="46.12493" lon="6.71885">
        <ele>1878.5</ele>
        <time>2026-06-27T08:09:56Z</time>
      </trkpt>
      <trkpt lat="46.12493" lon="6.71885">
        <ele>1878.4</ele>
        <time>2026-06-27T08:09:57Z</time>
      </trkpt>
      <trkpt lat="46.12493" lon="6.71885">
        <ele>1878.4</ele>
        <time>2026-06-27T08:09:58Z</time>
      </trkpt>
      <trkpt lat="46.12493" lon="6.71885">
        <ele>1878.4</ele>
        <time>2026-06-27T08:09:59Z</time>
      </trkpt>
      <trkpt lat="46.12493" lon="6.71885">
        <ele>1878.3</ele>
        <time>2026-06-27T08:10:00Z</time>
      </trkpt>
      <trkpt lat="46.12493" lon="6.71885">
        <ele>1878.3</ele>
        <time>2026-06-27T08:10:01Z</time>
      </trkpt>
      <trkpt lat="46.12493" lon="6.71885">
        <ele>1878.3</ele>
        <time>2026-06-27T08:10:02Z</time>
      </trkpt>
      <trkpt lat="46.12493" lon="6.71885">
        <ele>1878.3</ele>
        <time>2026-06-27T08:10:03Z</time>
      </trkpt>
      <trkpt lat="46.12493" lon="6.71885">
        <ele>1878.3</ele>
        <time>2026-06-27T08:10:04Z</time>
      </trkpt>
      <trkpt lat="46.12493" lon="6.71886">
        <ele>1878.3</ele>
        <time>2026-06-27T08:10:05Z</time>
      </trkpt>
      <trkpt lat="46.12493" lon="6.71886">
        <ele>1878.3</ele>
        <time>2026-06-27T08:10:06Z</time>
      </trkpt>
      <trkpt lat="46.12493" lon="6.71886">
        <ele>1878.3</ele>
        <time>2026-06-27T08:10:07Z</time>
      </trkpt>
      <trkpt lat="46.12493" lon="6.71886">
        <ele>1878.3</ele>
        <time>2026-06-27T08:10:08Z</time>
      </trkpt>
      <trkpt lat="46.12494" lon="6.71886">
        <ele>1878.2</ele>
        <time>2026-06-27T08:10:09Z</time>
      </trkpt>
      <trkpt lat="46.12494" lon="6.71886">
        <ele>1878.2</ele>
        <time>2026-06-27T08:10:10Z</time>
      </trkpt>
      <trkpt lat="46.12494" lon="6.71886">
        <ele>1878.2</ele>
        <time>2026-06-27T08:10:11Z</time>
      </trkpt>
      <trkpt lat="46.12494" lon="6.71886">
        <ele>1878.1</ele>
        <time>2026-06-27T08:10:12Z</time>
      </trkpt>
      <trkpt lat="46.12494" lon="6.71886">
        <ele>1878.1</ele>
        <time>2026-06-27T08:10:13Z</time>
      </trkpt>
      <trkpt lat="46.12494" lon="6.71886">
        <ele>1878.2</ele>
        <time>2026-06-27T08:10:14Z</time>
      </trkpt>
      <trkpt lat="46.12494" lon="6.71886">
        <ele>1878.1</ele>
        <time>2026-06-27T08:10:15Z</time>
      </trkpt>
      <trkpt lat="46.12494" lon="6.71886">
        <ele>1878</ele>
        <time>2026-06-27T08:10:16Z</time>
      </trkpt>
      <trkpt lat="46.12494" lon="6.71886">
        <ele>1878</ele>
        <time>2026-06-27T08:10:17Z</time>
      </trkpt>
      <trkpt lat="46.12494" lon="6.71886">
        <ele>1878</ele>
        <time>2026-06-27T08:10:18Z</time>
      </trkpt>
      <trkpt lat="46.12494" lon="6.71886">
        <ele>1878.1</ele>
        <time>2026-06-27T08:10:19Z</time>
      </trkpt>
      <trkpt lat="46.12494" lon="6.71887">
        <ele>1878.1</ele>
        <time>2026-06-27T08:10:20Z</time>
      </trkpt>
      <trkpt lat="46.12494" lon="6.71887">
        <ele>1878.2</ele>
        <time>2026-06-27T08:10:21Z</time>
      </trkpt>
      <trkpt lat="46.12494" lon="6.71887">
        <ele>1878.3</ele>
        <time>2026-06-27T08:10:22Z</time>
      </trkpt>
      <trkpt lat="46.12494" lon="6.71887">
        <ele>1878.4</ele>
        <time>2026-06-27T08:10:23Z</time>
      </trkpt>
      <trkpt lat="46.12494" lon="6.71887">
        <ele>1878.4</ele>
        <time>2026-06-27T08:10:24Z</time>
      </trkpt>
      <trkpt lat="46.12494" lon="6.71887">
        <ele>1878.4</ele>
        <time>2026-06-27T08:10:25Z</time>
      </trkpt>
      <trkpt lat="46.12494" lon="6.71887">
        <ele>1878.4</ele>
        <time>2026-06-27T08:10:26Z</time>
      </trkpt>
      <trkpt lat="46.12494" lon="6.71887">
        <ele>1878.4</ele>
        <time>2026-06-27T08:10:27Z</time>
      </trkpt>
      <trkpt lat="46.12494" lon="6.71887">
        <ele>1878.4</ele>
        <time>2026-06-27T08:10:28Z</time>
      </trkpt>
      <trkpt lat="46.12494" lon="6.71887">
        <ele>1878.3</ele>
        <time>2026-06-27T08:10:29Z</time>
      </trkpt>
      <trkpt lat="46.12494" lon="6.71887">
        <ele>1878.4</ele>
        <time>2026-06-27T08:10:30Z</time>
      </trkpt>
      <trkpt lat="46.12494" lon="6.71887">
        <ele>1878.4</ele>
        <time>2026-06-27T08:10:31Z</time>
      </trkpt>
      <trkpt lat="46.12494" lon="6.71887">
        <ele>1878.4</ele>
        <time>2026-06-27T08:10:32Z</time>
      </trkpt>
      <trkpt lat="46.12494" lon="6.71887">
        <ele>1878.4</ele>
        <time>2026-06-27T08:10:33Z</time>
      </trkpt>
      <trkpt lat="46.12493" lon="6.71888">
        <ele>1878.4</ele>
        <time>2026-06-27T08:10:34Z</time>
      </trkpt>
      <trkpt lat="46.12493" lon="6.71888">
        <ele>1878.4</ele>
        <time>2026-06-27T08:10:35Z</time>
      </trkpt>
      <trkpt lat="46.12493" lon="6.71888">
        <ele>1878.5</ele>
        <time>2026-06-27T08:10:36Z</time>
      </trkpt>
      <trkpt lat="46.12493" lon="6.71888">
        <ele>1878.5</ele>
        <time>2026-06-27T08:10:37Z</time>
      </trkpt>
      <trkpt lat="46.12493" lon="6.71888">
        <ele>1878.5</ele>
        <time>2026-06-27T08:10:38Z</time>
      </trkpt>
      <trkpt lat="46.12493" lon="6.71888">
        <ele>1878.5</ele>
        <time>2026-06-27T08:10:39Z</time>
      </trkpt>
      <trkpt lat="46.12493" lon="6.71888">
        <ele>1878.4</ele>
        <time>2026-06-27T08:10:40Z</time>
      </trkpt>
      <trkpt lat="46.12493" lon="6.71888">
        <ele>1878.4</ele>
        <time>2026-06-27T08:10:41Z</time>
      </trkpt>
      <trkpt lat="46.12493" lon="6.71888">
        <ele>1878.5</ele>
        <time>2026-06-27T08:10:42Z</time>
      </trkpt>
      <trkpt lat="46.12493" lon="6.71889">
        <ele>1878.5</ele>
        <time>2026-06-27T08:10:43Z</time>
      </trkpt>
      <trkpt lat="46.12493" lon="6.71889">
        <ele>1878.5</ele>
        <time>2026-06-27T08:10:44Z</time>
      </trkpt>
      <trkpt lat="46.12493" lon="6.71889">
        <ele>1878.5</ele>
        <time>2026-06-27T08:10:45Z</time>
      </trkpt>
      <trkpt lat="46.12493" lon="6.71889">
        <ele>1878.5</ele>
        <time>2026-06-27T08:10:46Z</time>
      </trkpt>
      <trkpt lat="46.12493" lon="6.71889">
        <ele>1878.6</ele>
        <time>2026-06-27T08:10:47Z</time>
      </trkpt>
      <trkpt lat="46.12493" lon="6.71889">
        <ele>1878.6</ele>
        <time>2026-06-27T08:10:48Z</time>
      </trkpt>
      <trkpt lat="46.12493" lon="6.71889">
        <ele>1878.6</ele>
        <time>2026-06-27T08:10:49Z</time>
      </trkpt>
      <trkpt lat="46.12493" lon="6.71889">
        <ele>1878.5</ele>
        <time>2026-06-27T08:10:50Z</time>
      </trkpt>
      <trkpt lat="46.12493" lon="6.71889">
        <ele>1878.5</ele>
        <time>2026-06-27T08:10:51Z</time>
      </trkpt>
      <trkpt lat="46.12493" lon="6.71889">
        <ele>1878.5</ele>
        <time>2026-06-27T08:10:52Z</time>
      </trkpt>
      <trkpt lat="46.12493" lon="6.71889">
        <ele>1878.5</ele>
        <time>2026-06-27T08:10:53Z</time>
      </trkpt>
      <trkpt lat="46.12493" lon="6.71889">
        <ele>1878.5</ele>
        <time>2026-06-27T08:10:54Z</time>
      </trkpt>
      <trkpt lat="46.12493" lon="6.71889">
        <ele>1878.4</ele>
        <time>2026-06-27T08:10:55Z</time>
      </trkpt>
      <trkpt lat="46.12493" lon="6.71889">
        <ele>1878.4</ele>
        <time>2026-06-27T08:10:56Z</time>
      </trkpt>
      <trkpt lat="46.12493" lon="6.71889">
        <ele>1878.4</ele>
        <time>2026-06-27T08:10:57Z</time>
      </trkpt>
      <trkpt lat="46.12493" lon="6.71889">
        <ele>1878.3</ele>
        <time>2026-06-27T08:10:58Z</time>
      </trkpt>
      <trkpt lat="46.12493" lon="6.71889">
        <ele>1878.3</ele>
        <time>2026-06-27T08:10:59Z</time>
      </trkpt>
      <trkpt lat="46.12493" lon="6.71889">
        <ele>1878.3</ele>
        <time>2026-06-27T08:11:00Z</time>
      </trkpt>
      <trkpt lat="46.12493" lon="6.7189">
        <ele>1878.4</ele>
        <time>2026-06-27T08:11:01Z</time>
      </trkpt>
      <trkpt lat="46.12493" lon="6.7189">
        <ele>1878.4</ele>
        <time>2026-06-27T08:11:02Z</time>
      </trkpt>
      <trkpt lat="46.12493" lon="6.7189">
        <ele>1878.4</ele>
        <time>2026-06-27T08:11:03Z</time>
      </trkpt>
      <trkpt lat="46.12493" lon="6.7189">
        <ele>1878.4</ele>
        <time>2026-06-27T08:11:04Z</time>
      </trkpt>
      <trkpt lat="46.12493" lon="6.7189">
        <ele>1878.4</ele>
        <time>2026-06-27T08:11:05Z</time>
      </trkpt>
      <trkpt lat="46.12493" lon="6.7189">
        <ele>1878.4</ele>
        <time>2026-06-27T08:11:06Z</time>
      </trkpt>
      <trkpt lat="46.12493" lon="6.7189">
        <ele>1878.4</ele>
        <time>2026-06-27T08:11:07Z</time>
      </trkpt>
      <trkpt lat="46.12493" lon="6.7189">
        <ele>1878.5</ele>
        <time>2026-06-27T08:11:08Z</time>
      </trkpt>
      <trkpt lat="46.12493" lon="6.7189">
        <ele>1878.5</ele>
        <time>2026-06-27T08:11:09Z</time>
      </trkpt>
      <trkpt lat="46.12493" lon="6.7189">
        <ele>1878.5</ele>
        <time>2026-06-27T08:11:10Z</time>
      </trkpt>
      <trkpt lat="46.12493" lon="6.7189">
        <ele>1878.4</ele>
        <time>2026-06-27T08:11:11Z</time>
      </trkpt>
      <trkpt lat="46.12493" lon="6.7189">
        <ele>1878.4</ele>
        <time>2026-06-27T08:11:12Z</time>
      </trkpt>
      <trkpt lat="46.12493" lon="6.7189">
        <ele>1878.4</ele>
        <time>2026-06-27T08:11:13Z</time>
      </trkpt>
      <trkpt lat="46.12493" lon="6.7189">
        <ele>1878.4</ele>
        <time>2026-06-27T08:11:14Z</time>
      </trkpt>
      <trkpt lat="46.12493" lon="6.7189">
        <ele>1878.4</ele>
        <time>2026-06-27T08:11:15Z</time>
      </trkpt>
      <trkpt lat="46.12493" lon="6.7189">
        <ele>1878.4</ele>
        <time>2026-06-27T08:11:16Z</time>
      </trkpt>
      <trkpt lat="46.12493" lon="6.7189">
        <ele>1878.4</ele>
        <time>2026-06-27T08:11:17Z</time>
      </trkpt>
      <trkpt lat="46.12493" lon="6.7189">
        <ele>1878.4</ele>
        <time>2026-06-27T08:11:18Z</time>
      </trkpt>
      <trkpt lat="46.12493" lon="6.7189">
        <ele>1878.4</ele>
        <time>2026-06-27T08:11:19Z</time>
      </trkpt>
      <trkpt lat="46.12493" lon="6.7189">
        <ele>1878.4</ele>
        <time>2026-06-27T08:11:20Z</time>
      </trkpt>
      <trkpt lat="46.12493" lon="6.7189">
        <ele>1878.4</ele>
        <time>2026-06-27T08:11:21Z</time>
      </trkpt>
      <trkpt lat="46.12493" lon="6.7189">
        <ele>1878.4</ele>
        <time>2026-06-27T08:11:22Z</time>
      </trkpt>
      <trkpt lat="46.12493" lon="6.7189">
        <ele>1878.5</ele>
        <time>2026-06-27T08:11:23Z</time>
      </trkpt>
      <trkpt lat="46.12492" lon="6.7189">
        <ele>1878.5</ele>
        <time>2026-06-27T08:11:24Z</time>
      </trkpt>
      <trkpt lat="46.12492" lon="6.7189">
        <ele>1878.6</ele>
        <time>2026-06-27T08:11:25Z</time>
      </trkpt>
      <trkpt lat="46.12492" lon="6.7189">
        <ele>1878.6</ele>
        <time>2026-06-27T08:11:26Z</time>
      </trkpt>
      <trkpt lat="46.12492" lon="6.7189">
        <ele>1878.6</ele>
        <time>2026-06-27T08:11:27Z</time>
      </trkpt>
      <trkpt lat="46.12492" lon="6.7189">
        <ele>1878.6</ele>
        <time>2026-06-27T08:11:28Z</time>
      </trkpt>
      <trkpt lat="46.12492" lon="6.7189">
        <ele>1878.7</ele>
        <time>2026-06-27T08:11:29Z</time>
      </trkpt>
      <trkpt lat="46.12492" lon="6.7189">
        <ele>1878.7</ele>
        <time>2026-06-27T08:11:30Z</time>
      </trkpt>
      <trkpt lat="46.12492" lon="6.7189">
        <ele>1878.6</ele>
        <time>2026-06-27T08:11:31Z</time>
      </trkpt>
      <trkpt lat="46.12492" lon="6.7189">
        <ele>1878.5</ele>
        <time>2026-06-27T08:11:32Z</time>
      </trkpt>
      <trkpt lat="46.12492" lon="6.7189">
        <ele>1878.5</ele>
        <time>2026-06-27T08:11:33Z</time>
      </trkpt>
      <trkpt lat="46.12492" lon="6.7189">
        <ele>1878.4</ele>
        <time>2026-06-27T08:11:34Z</time>
      </trkpt>
      <trkpt lat="46.12492" lon="6.7189">
        <ele>1878.3</ele>
        <time>2026-06-27T08:11:35Z</time>
      </trkpt>
      <trkpt lat="46.12492" lon="6.7189">
        <ele>1878.3</ele>
        <time>2026-06-27T08:11:36Z</time>
      </trkpt>
      <trkpt lat="46.12492" lon="6.7189">
        <ele>1878.2</ele>
        <time>2026-06-27T08:11:37Z</time>
      </trkpt>
      <trkpt lat="46.12492" lon="6.7189">
        <ele>1878.1</ele>
        <time>2026-06-27T08:11:38Z</time>
      </trkpt>
      <trkpt lat="46.12492" lon="6.7189">
        <ele>1878.1</ele>
        <time>2026-06-27T08:11:39Z</time>
      </trkpt>
      <trkpt lat="46.12492" lon="6.7189">
        <ele>1878.1</ele>
        <time>2026-06-27T08:11:40Z</time>
      </trkpt>
      <trkpt lat="46.12492" lon="6.7189">
        <ele>1878.1</ele>
        <time>2026-06-27T08:11:41Z</time>
      </trkpt>
      <trkpt lat="46.12492" lon="6.71889">
        <ele>1878.1</ele>
        <time>2026-06-27T08:11:42Z</time>
      </trkpt>
      <trkpt lat="46.12492" lon="6.71889">
        <ele>1878.1</ele>
        <time>2026-06-27T08:11:43Z</time>
      </trkpt>
      <trkpt lat="46.12492" lon="6.71889">
        <ele>1878.2</ele>
        <time>2026-06-27T08:11:44Z</time>
      </trkpt>
      <trkpt lat="46.12492" lon="6.71889">
        <ele>1878.2</ele>
        <time>2026-06-27T08:11:45Z</time>
      </trkpt>
      <trkpt lat="46.12492" lon="6.71889">
        <ele>1878.2</ele>
        <time>2026-06-27T08:11:46Z</time>
      </trkpt>
      <trkpt lat="46.12493" lon="6.71889">
        <ele>1878.2</ele>
        <time>2026-06-27T08:11:47Z</time>
      </trkpt>
      <trkpt lat="46.12493" lon="6.71889">
        <ele>1878.1</ele>
        <time>2026-06-27T08:11:48Z</time>
      </trkpt>
      <trkpt lat="46.12493" lon="6.71889">
        <ele>1878.1</ele>
        <time>2026-06-27T08:11:49Z</time>
      </trkpt>
      <trkpt lat="46.12493" lon="6.71888">
        <ele>1878.2</ele>
        <time>2026-06-27T08:11:50Z</time>
      </trkpt>
      <trkpt lat="46.12493" lon="6.71888">
        <ele>1878.2</ele>
        <time>2026-06-27T08:11:51Z</time>
      </trkpt>
      <trkpt lat="46.12493" lon="6.71888">
        <ele>1878.2</ele>
        <time>2026-06-27T08:11:52Z</time>
      </trkpt>
      <trkpt lat="46.12493" lon="6.71888">
        <ele>1878.2</ele>
        <time>2026-06-27T08:11:53Z</time>
      </trkpt>
      <trkpt lat="46.12493" lon="6.71887">
        <ele>1878.2</ele>
        <time>2026-06-27T08:11:54Z</time>
      </trkpt>
      <trkpt lat="46.12493" lon="6.71887">
        <ele>1878.3</ele>
        <time>2026-06-27T08:11:55Z</time>
      </trkpt>
      <trkpt lat="46.12493" lon="6.71887">
        <ele>1878.3</ele>
        <time>2026-06-27T08:11:56Z</time>
      </trkpt>
      <trkpt lat="46.12493" lon="6.71887">
        <ele>1878.3</ele>
        <time>2026-06-27T08:11:57Z</time>
      </trkpt>
      <trkpt lat="46.12493" lon="6.71887">
        <ele>1878.3</ele>
        <time>2026-06-27T08:11:58Z</time>
      </trkpt>
      <trkpt lat="46.12493" lon="6.71887">
        <ele>1878.4</ele>
        <time>2026-06-27T08:11:59Z</time>
      </trkpt>
      <trkpt lat="46.12493" lon="6.71887">
        <ele>1878.4</ele>
        <time>2026-06-27T08:12:00Z</time>
      </trkpt>
      <trkpt lat="46.12493" lon="6.71887">
        <ele>1878.4</ele>
        <time>2026-06-27T08:12:01Z</time>
      </trkpt>
      <trkpt lat="46.12493" lon="6.71887">
        <ele>1878.4</ele>
        <time>2026-06-27T08:12:02Z</time>
      </trkpt>
      <trkpt lat="46.12493" lon="6.71887">
        <ele>1878.4</ele>
        <time>2026-06-27T08:12:03Z</time>
      </trkpt>
      <trkpt lat="46.12493" lon="6.71886">
        <ele>1878.4</ele>
        <time>2026-06-27T08:12:04Z</time>
      </trkpt>
      <trkpt lat="46.12493" lon="6.71886">
        <ele>1878.2</ele>
        <time>2026-06-27T08:12:05Z</time>
      </trkpt>
      <trkpt lat="46.12493" lon="6.71886">
        <ele>1878.3</ele>
        <time>2026-06-27T08:12:06Z</time>
      </trkpt>
      <trkpt lat="46.12493" lon="6.71886">
        <ele>1878.3</ele>
        <time>2026-06-27T08:12:07Z</time>
      </trkpt>
      <trkpt lat="46.12493" lon="6.71886">
        <ele>1878.3</ele>
        <time>2026-06-27T08:12:08Z</time>
      </trkpt>
      <trkpt lat="46.12493" lon="6.71886">
        <ele>1878.3</ele>
        <time>2026-06-27T08:12:09Z</time>
      </trkpt>
      <trkpt lat="46.12493" lon="6.71886">
        <ele>1878.3</ele>
        <time>2026-06-27T08:12:10Z</time>
      </trkpt>
      <trkpt lat="46.12493" lon="6.71886">
        <ele>1878.2</ele>
        <time>2026-06-27T08:12:11Z</time>
      </trkpt>
      <trkpt lat="46.12493" lon="6.71886">
        <ele>1878.2</ele>
        <time>2026-06-27T08:12:12Z</time>
      </trkpt>
      <trkpt lat="46.12493" lon="6.71886">
        <ele>1878.1</ele>
        <time>2026-06-27T08:12:13Z</time>
      </trkpt>
      <trkpt lat="46.12493" lon="6.71885">
        <ele>1878</ele>
        <time>2026-06-27T08:12:14Z</time>
      </trkpt>
      <trkpt lat="46.12493" lon="6.71885">
        <ele>1878</ele>
        <time>2026-06-27T08:12:15Z</time>
      </trkpt>
      <trkpt lat="46.12493" lon="6.71885">
        <ele>1878</ele>
        <time>2026-06-27T08:12:16Z</time>
      </trkpt>
      <trkpt lat="46.12493" lon="6.71885">
        <ele>1878</ele>
        <time>2026-06-27T08:12:17Z</time>
      </trkpt>
      <trkpt lat="46.12493" lon="6.71885">
        <ele>1878</ele>
        <time>2026-06-27T08:12:18Z</time>
      </trkpt>
      <trkpt lat="46.12493" lon="6.71885">
        <ele>1878</ele>
        <time>2026-06-27T08:12:19Z</time>
      </trkpt>
      <trkpt lat="46.12493" lon="6.71885">
        <ele>1878.2</ele>
        <time>2026-06-27T08:12:20Z</time>
      </trkpt>
      <trkpt lat="46.12493" lon="6.71885">
        <ele>1878.2</ele>
        <time>2026-06-27T08:12:21Z</time>
      </trkpt>
      <trkpt lat="46.12493" lon="6.71885">
        <ele>1878.3</ele>
        <time>2026-06-27T08:12:22Z</time>
      </trkpt>
      <trkpt lat="46.12493" lon="6.71885">
        <ele>1878.4</ele>
        <time>2026-06-27T08:12:23Z</time>
      </trkpt>
      <trkpt lat="46.12493" lon="6.71885">
        <ele>1878.4</ele>
        <time>2026-06-27T08:12:24Z</time>
      </trkpt>
      <trkpt lat="46.12493" lon="6.71885">
        <ele>1878.4</ele>
        <time>2026-06-27T08:12:25Z</time>
      </trkpt>
      <trkpt lat="46.12493" lon="6.71885">
        <ele>1878.3</ele>
        <time>2026-06-27T08:12:26Z</time>
      </trkpt>
      <trkpt lat="46.12493" lon="6.71885">
        <ele>1878.3</ele>
        <time>2026-06-27T08:12:27Z</time>
      </trkpt>
      <trkpt lat="46.12493" lon="6.71885">
        <ele>1878.3</ele>
        <time>2026-06-27T08:12:28Z</time>
      </trkpt>
      <trkpt lat="46.12493" lon="6.71885">
        <ele>1878.4</ele>
        <time>2026-06-27T08:12:29Z</time>
      </trkpt>
      <trkpt lat="46.12493" lon="6.71885">
        <ele>1878.3</ele>
        <time>2026-06-27T08:12:30Z</time>
      </trkpt>
      <trkpt lat="46.12493" lon="6.71885">
        <ele>1878.3</ele>
        <time>2026-06-27T08:12:31Z</time>
      </trkpt>
      <trkpt lat="46.12493" lon="6.71885">
        <ele>1878.4</ele>
        <time>2026-06-27T08:12:32Z</time>
      </trkpt>
      <trkpt lat="46.12493" lon="6.71885">
        <ele>1878.4</ele>
        <time>2026-06-27T08:12:33Z</time>
      </trkpt>
      <trkpt lat="46.12493" lon="6.71885">
        <ele>1878.4</ele>
        <time>2026-06-27T08:12:34Z</time>
      </trkpt>
      <trkpt lat="46.12493" lon="6.71885">
        <ele>1878.4</ele>
        <time>2026-06-27T08:12:35Z</time>
      </trkpt>
      <trkpt lat="46.12493" lon="6.71885">
        <ele>1878.5</ele>
        <time>2026-06-27T08:12:36Z</time>
      </trkpt>
      <trkpt lat="46.12493" lon="6.71885">
        <ele>1878.5</ele>
        <time>2026-06-27T08:12:37Z</time>
      </trkpt>
      <trkpt lat="46.12493" lon="6.71885">
        <ele>1878.5</ele>
        <time>2026-06-27T08:12:38Z</time>
      </trkpt>
      <trkpt lat="46.12493" lon="6.71885">
        <ele>1878.4</ele>
        <time>2026-06-27T08:12:39Z</time>
      </trkpt>
      <trkpt lat="46.12493" lon="6.71885">
        <ele>1878.4</ele>
        <time>2026-06-27T08:12:40Z</time>
      </trkpt>
      <trkpt lat="46.12493" lon="6.71885">
        <ele>1878.3</ele>
        <time>2026-06-27T08:12:41Z</time>
      </trkpt>
      <trkpt lat="46.12493" lon="6.71885">
        <ele>1878.3</ele>
        <time>2026-06-27T08:12:42Z</time>
      </trkpt>
      <trkpt lat="46.12493" lon="6.71885">
        <ele>1878.3</ele>
        <time>2026-06-27T08:12:43Z</time>
      </trkpt>
      <trkpt lat="46.12493" lon="6.71885">
        <ele>1878.3</ele>
        <time>2026-06-27T08:12:44Z</time>
      </trkpt>
      <trkpt lat="46.12493" lon="6.71885">
        <ele>1878.4</ele>
        <time>2026-06-27T08:12:45Z</time>
      </trkpt>
      <trkpt lat="46.12493" lon="6.71885">
        <ele>1878.4</ele>
        <time>2026-06-27T08:12:46Z</time>
      </trkpt>
      <trkpt lat="46.12493" lon="6.71885">
        <ele>1878.4</ele>
        <time>2026-06-27T08:12:47Z</time>
      </trkpt>
      <trkpt lat="46.12493" lon="6.71885">
        <ele>1878.5</ele>
        <time>2026-06-27T08:12:48Z</time>
      </trkpt>
      <trkpt lat="46.12493" lon="6.71886">
        <ele>1878.5</ele>
        <time>2026-06-27T08:12:49Z</time>
      </trkpt>
      <trkpt lat="46.12493" lon="6.71886">
        <ele>1878.6</ele>
        <time>2026-06-27T08:12:50Z</time>
      </trkpt>
      <trkpt lat="46.12493" lon="6.71886">
        <ele>1878.6</ele>
        <time>2026-06-27T08:12:51Z</time>
      </trkpt>
      <trkpt lat="46.12493" lon="6.71886">
        <ele>1878.5</ele>
        <time>2026-06-27T08:12:52Z</time>
      </trkpt>
      <trkpt lat="46.12493" lon="6.71886">
        <ele>1878.5</ele>
        <time>2026-06-27T08:12:53Z</time>
      </trkpt>
      <trkpt lat="46.12493" lon="6.71886">
        <ele>1878.5</ele>
        <time>2026-06-27T08:12:54Z</time>
      </trkpt>
      <trkpt lat="46.12493" lon="6.71886">
        <ele>1878.6</ele>
        <time>2026-06-27T08:12:55Z</time>
      </trkpt>
      <trkpt lat="46.12493" lon="6.71886">
        <ele>1878.6</ele>
        <time>2026-06-27T08:12:56Z</time>
      </trkpt>
      <trkpt lat="46.12493" lon="6.71886">
        <ele>1878.7</ele>
        <time>2026-06-27T08:12:57Z</time>
      </trkpt>
      <trkpt lat="46.12493" lon="6.71886">
        <ele>1878.7</ele>
        <time>2026-06-27T08:12:58Z</time>
      </trkpt>
      <trkpt lat="46.12493" lon="6.71886">
        <ele>1878.6</ele>
        <time>2026-06-27T08:12:59Z</time>
      </trkpt>
      <trkpt lat="46.12493" lon="6.71886">
        <ele>1878.5</ele>
        <time>2026-06-27T08:13:00Z</time>
      </trkpt>
      <trkpt lat="46.12493" lon="6.71886">
        <ele>1878.5</ele>
        <time>2026-06-27T08:13:01Z</time>
      </trkpt>
      <trkpt lat="46.12492" lon="6.71885">
        <ele>1878.5</ele>
        <time>2026-06-27T08:13:02Z</time>
      </trkpt>
      <trkpt lat="46.12492" lon="6.71884">
        <ele>1878.5</ele>
        <time>2026-06-27T08:13:03Z</time>
      </trkpt>
      <trkpt lat="46.12492" lon="6.71884">
        <ele>1878.5</ele>
        <time>2026-06-27T08:13:04Z</time>
      </trkpt>
      <trkpt lat="46.12492" lon="6.71883">
        <ele>1878.4</ele>
        <time>2026-06-27T08:13:05Z</time>
      </trkpt>
      <trkpt lat="46.12492" lon="6.71884">
        <ele>1878.4</ele>
        <time>2026-06-27T08:13:06Z</time>
      </trkpt>
      <trkpt lat="46.12492" lon="6.71884">
        <ele>1878.5</ele>
        <time>2026-06-27T08:13:07Z</time>
      </trkpt>
      <trkpt lat="46.12492" lon="6.71884">
        <ele>1878.6</ele>
        <time>2026-06-27T08:13:08Z</time>
      </trkpt>
      <trkpt lat="46.12492" lon="6.71884">
        <ele>1878.6</ele>
        <time>2026-06-27T08:13:09Z</time>
      </trkpt>
      <trkpt lat="46.12491" lon="6.71884">
        <ele>1878.7</ele>
        <time>2026-06-27T08:13:10Z</time>
      </trkpt>
      <trkpt lat="46.12491" lon="6.71884">
        <ele>1878.6</ele>
        <time>2026-06-27T08:13:11Z</time>
      </trkpt>
      <trkpt lat="46.12491" lon="6.71884">
        <ele>1878.6</ele>
        <time>2026-06-27T08:13:12Z</time>
      </trkpt>
      <trkpt lat="46.12491" lon="6.71884">
        <ele>1878.5</ele>
        <time>2026-06-27T08:13:13Z</time>
      </trkpt>
      <trkpt lat="46.12491" lon="6.71884">
        <ele>1878.5</ele>
        <time>2026-06-27T08:13:14Z</time>
      </trkpt>
      <trkpt lat="46.12491" lon="6.71884">
        <ele>1878.6</ele>
        <time>2026-06-27T08:13:15Z</time>
      </trkpt>
      <trkpt lat="46.12491" lon="6.71884">
        <ele>1878.6</ele>
        <time>2026-06-27T08:13:16Z</time>
      </trkpt>
      <trkpt lat="46.12491" lon="6.71884">
        <ele>1878.6</ele>
        <time>2026-06-27T08:13:17Z</time>
      </trkpt>
      <trkpt lat="46.12491" lon="6.71884">
        <ele>1878.6</ele>
        <time>2026-06-27T08:13:18Z</time>
      </trkpt>
      <trkpt lat="46.12491" lon="6.71884">
        <ele>1878.6</ele>
        <time>2026-06-27T08:13:19Z</time>
      </trkpt>
      <trkpt lat="46.12491" lon="6.71884">
        <ele>1878.6</ele>
        <time>2026-06-27T08:13:20Z</time>
      </trkpt>
      <trkpt lat="46.12491" lon="6.71884">
        <ele>1878.6</ele>
        <time>2026-06-27T08:13:21Z</time>
      </trkpt>
      <trkpt lat="46.12491" lon="6.71884">
        <ele>1878.6</ele>
        <time>2026-06-27T08:13:22Z</time>
      </trkpt>
      <trkpt lat="46.1249" lon="6.71884">
        <ele>1878.7</ele>
        <time>2026-06-27T08:13:23Z</time>
      </trkpt>
      <trkpt lat="46.1249" lon="6.71884">
        <ele>1878.7</ele>
        <time>2026-06-27T08:13:24Z</time>
      </trkpt>
      <trkpt lat="46.1249" lon="6.71884">
        <ele>1878.7</ele>
        <time>2026-06-27T08:13:25Z</time>
      </trkpt>
      <trkpt lat="46.1249" lon="6.71884">
        <ele>1878.7</ele>
        <time>2026-06-27T08:13:26Z</time>
      </trkpt>
      <trkpt lat="46.1249" lon="6.71884">
        <ele>1878.7</ele>
        <time>2026-06-27T08:13:27Z</time>
      </trkpt>
      <trkpt lat="46.1249" lon="6.71884">
        <ele>1878.6</ele>
        <time>2026-06-27T08:13:28Z</time>
      </trkpt>
      <trkpt lat="46.1249" lon="6.71884">
        <ele>1878.8</ele>
        <time>2026-06-27T08:13:29Z</time>
      </trkpt>
      <trkpt lat="46.1249" lon="6.71884">
        <ele>1878.9</ele>
        <time>2026-06-27T08:13:30Z</time>
      </trkpt>
      <trkpt lat="46.1249" lon="6.71884">
        <ele>1879</ele>
        <time>2026-06-27T08:13:31Z</time>
      </trkpt>
      <trkpt lat="46.1249" lon="6.71884">
        <ele>1879</ele>
        <time>2026-06-27T08:13:32Z</time>
      </trkpt>
      <trkpt lat="46.1249" lon="6.71884">
        <ele>1879</ele>
        <time>2026-06-27T08:13:33Z</time>
      </trkpt>
      <trkpt lat="46.1249" lon="6.71884">
        <ele>1879</ele>
        <time>2026-06-27T08:13:34Z</time>
      </trkpt>
      <trkpt lat="46.1249" lon="6.71884">
        <ele>1879</ele>
        <time>2026-06-27T08:13:35Z</time>
      </trkpt>
      <trkpt lat="46.1249" lon="6.71884">
        <ele>1878.9</ele>
        <time>2026-06-27T08:13:36Z</time>
      </trkpt>
      <trkpt lat="46.1249" lon="6.71884">
        <ele>1878.9</ele>
        <time>2026-06-27T08:13:37Z</time>
      </trkpt>
      <trkpt lat="46.1249" lon="6.71884">
        <ele>1878.8</ele>
        <time>2026-06-27T08:13:38Z</time>
      </trkpt>
      <trkpt lat="46.1249" lon="6.71884">
        <ele>1878.7</ele>
        <time>2026-06-27T08:13:39Z</time>
      </trkpt>
      <trkpt lat="46.1249" lon="6.71884">
        <ele>1878.7</ele>
        <time>2026-06-27T08:13:40Z</time>
      </trkpt>
      <trkpt lat="46.1249" lon="6.71884">
        <ele>1878.7</ele>
        <time>2026-06-27T08:13:41Z</time>
      </trkpt>
      <trkpt lat="46.1249" lon="6.71883">
        <ele>1878.8</ele>
        <time>2026-06-27T08:13:42Z</time>
      </trkpt>
      <trkpt lat="46.1249" lon="6.71884">
        <ele>1878.9</ele>
        <time>2026-06-27T08:13:43Z</time>
      </trkpt>
      <trkpt lat="46.1249" lon="6.71884">
        <ele>1878.8</ele>
        <time>2026-06-27T08:13:44Z</time>
      </trkpt>
      <trkpt lat="46.1249" lon="6.71884">
        <ele>1878.8</ele>
        <time>2026-06-27T08:13:45Z</time>
      </trkpt>
      <trkpt lat="46.1249" lon="6.71884">
        <ele>1878.8</ele>
        <time>2026-06-27T08:13:46Z</time>
      </trkpt>
      <trkpt lat="46.1249" lon="6.71884">
        <ele>1878.7</ele>
        <time>2026-06-27T08:13:47Z</time>
      </trkpt>
      <trkpt lat="46.1249" lon="6.71884">
        <ele>1878.6</ele>
        <time>2026-06-27T08:13:48Z</time>
      </trkpt>
      <trkpt lat="46.1249" lon="6.71884">
        <ele>1878.6</ele>
        <time>2026-06-27T08:13:49Z</time>
      </trkpt>
      <trkpt lat="46.1249" lon="6.71884">
        <ele>1878.5</ele>
        <time>2026-06-27T08:13:50Z</time>
      </trkpt>
      <trkpt lat="46.12489" lon="6.71884">
        <ele>1878.5</ele>
        <time>2026-06-27T08:13:51Z</time>
      </trkpt>
      <trkpt lat="46.12489" lon="6.71884">
        <ele>1878.5</ele>
        <time>2026-06-27T08:13:52Z</time>
      </trkpt>
      <trkpt lat="46.12489" lon="6.71884">
        <ele>1878.6</ele>
        <time>2026-06-27T08:13:53Z</time>
      </trkpt>
      <trkpt lat="46.12489" lon="6.71884">
        <ele>1878.6</ele>
        <time>2026-06-27T08:13:54Z</time>
      </trkpt>
      <trkpt lat="46.12489" lon="6.71883">
        <ele>1878.6</ele>
        <time>2026-06-27T08:13:55Z</time>
      </trkpt>
      <trkpt lat="46.12489" lon="6.71883">
        <ele>1878.6</ele>
        <time>2026-06-27T08:13:56Z</time>
      </trkpt>
      <trkpt lat="46.12489" lon="6.71883">
        <ele>1878.6</ele>
        <time>2026-06-27T08:13:57Z</time>
      </trkpt>
      <trkpt lat="46.12489" lon="6.71883">
        <ele>1878.5</ele>
        <time>2026-06-27T08:13:58Z</time>
      </trkpt>
      <trkpt lat="46.12489" lon="6.71883">
        <ele>1878.4</ele>
        <time>2026-06-27T08:13:59Z</time>
      </trkpt>
      <trkpt lat="46.12488" lon="6.71883">
        <ele>1878.4</ele>
        <time>2026-06-27T08:14:00Z</time>
      </trkpt>
      <trkpt lat="46.12488" lon="6.71883">
        <ele>1878.4</ele>
        <time>2026-06-27T08:14:01Z</time>
      </trkpt>
      <trkpt lat="46.12488" lon="6.71883">
        <ele>1878.4</ele>
        <time>2026-06-27T08:14:02Z</time>
      </trkpt>
      <trkpt lat="46.12488" lon="6.71883">
        <ele>1878.3</ele>
        <time>2026-06-27T08:14:03Z</time>
      </trkpt>
      <trkpt lat="46.12488" lon="6.71883">
        <ele>1878.3</ele>
        <time>2026-06-27T08:14:04Z</time>
      </trkpt>
      <trkpt lat="46.12488" lon="6.71883">
        <ele>1878.3</ele>
        <time>2026-06-27T08:14:05Z</time>
      </trkpt>
      <trkpt lat="46.12488" lon="6.71883">
        <ele>1878.3</ele>
        <time>2026-06-27T08:14:06Z</time>
      </trkpt>
      <trkpt lat="46.12488" lon="6.71883">
        <ele>1878.3</ele>
        <time>2026-06-27T08:14:07Z</time>
      </trkpt>
      <trkpt lat="46.12488" lon="6.71883">
        <ele>1878.3</ele>
        <time>2026-06-27T08:14:08Z</time>
      </trkpt>
      <trkpt lat="46.12488" lon="6.71883">
        <ele>1878.4</ele>
        <time>2026-06-27T08:14:09Z</time>
      </trkpt>
      <trkpt lat="46.12488" lon="6.71883">
        <ele>1878.4</ele>
        <time>2026-06-27T08:14:10Z</time>
      </trkpt>
      <trkpt lat="46.12488" lon="6.71883">
        <ele>1878.5</ele>
        <time>2026-06-27T08:14:11Z</time>
      </trkpt>
      <trkpt lat="46.12488" lon="6.71883">
        <ele>1878.6</ele>
        <time>2026-06-27T08:14:12Z</time>
      </trkpt>
      <trkpt lat="46.12488" lon="6.71883">
        <ele>1878.6</ele>
        <time>2026-06-27T08:14:13Z</time>
      </trkpt>
      <trkpt lat="46.12488" lon="6.71883">
        <ele>1878.7</ele>
        <time>2026-06-27T08:14:14Z</time>
      </trkpt>
      <trkpt lat="46.12488" lon="6.71883">
        <ele>1878.7</ele>
        <time>2026-06-27T08:14:15Z</time>
      </trkpt>
      <trkpt lat="46.12488" lon="6.71883">
        <ele>1878.7</ele>
        <time>2026-06-27T08:14:16Z</time>
      </trkpt>
      <trkpt lat="46.12488" lon="6.71883">
        <ele>1878.6</ele>
        <time>2026-06-27T08:14:17Z</time>
      </trkpt>
      <trkpt lat="46.12488" lon="6.71883">
        <ele>1878.5</ele>
        <time>2026-06-27T08:14:18Z</time>
      </trkpt>
      <trkpt lat="46.12488" lon="6.71883">
        <ele>1878.5</ele>
        <time>2026-06-27T08:14:19Z</time>
      </trkpt>
      <trkpt lat="46.12488" lon="6.71883">
        <ele>1878.5</ele>
        <time>2026-06-27T08:14:20Z</time>
      </trkpt>
      <trkpt lat="46.12488" lon="6.71883">
        <ele>1878.5</ele>
        <time>2026-06-27T08:14:21Z</time>
      </trkpt>
      <trkpt lat="46.12488" lon="6.71883">
        <ele>1878.4</ele>
        <time>2026-06-27T08:14:22Z</time>
      </trkpt>
      <trkpt lat="46.12488" lon="6.71883">
        <ele>1878.4</ele>
        <time>2026-06-27T08:14:23Z</time>
      </trkpt>
      <trkpt lat="46.12488" lon="6.71883">
        <ele>1878.4</ele>
        <time>2026-06-27T08:14:24Z</time>
      </trkpt>
      <trkpt lat="46.12488" lon="6.71883">
        <ele>1878.3</ele>
        <time>2026-06-27T08:14:25Z</time>
      </trkpt>
      <trkpt lat="46.12488" lon="6.71883">
        <ele>1878.3</ele>
        <time>2026-06-27T08:14:26Z</time>
      </trkpt>
      <trkpt lat="46.12488" lon="6.71883">
        <ele>1878.3</ele>
        <time>2026-06-27T08:14:27Z</time>
      </trkpt>
      <trkpt lat="46.12487" lon="6.71883">
        <ele>1878.4</ele>
        <time>2026-06-27T08:14:28Z</time>
      </trkpt>
      <trkpt lat="46.12487" lon="6.71883">
        <ele>1878.4</ele>
        <time>2026-06-27T08:14:29Z</time>
      </trkpt>
      <trkpt lat="46.12487" lon="6.71883">
        <ele>1878.5</ele>
        <time>2026-06-27T08:14:30Z</time>
      </trkpt>
      <trkpt lat="46.12487" lon="6.71883">
        <ele>1878.5</ele>
        <time>2026-06-27T08:14:31Z</time>
      </trkpt>
      <trkpt lat="46.12487" lon="6.71883">
        <ele>1878.5</ele>
        <time>2026-06-27T08:14:32Z</time>
      </trkpt>
      <trkpt lat="46.12487" lon="6.71883">
        <ele>1878.5</ele>
        <time>2026-06-27T08:14:33Z</time>
      </trkpt>
      <trkpt lat="46.12487" lon="6.71883">
        <ele>1878.6</ele>
        <time>2026-06-27T08:14:34Z</time>
      </trkpt>
      <trkpt lat="46.12487" lon="6.71884">
        <ele>1878.5</ele>
        <time>2026-06-27T08:14:35Z</time>
      </trkpt>
      <trkpt lat="46.12487" lon="6.71884">
        <ele>1878.4</ele>
        <time>2026-06-27T08:14:36Z</time>
      </trkpt>
      <trkpt lat="46.12487" lon="6.71884">
        <ele>1878.4</ele>
        <time>2026-06-27T08:14:37Z</time>
      </trkpt>
      <trkpt lat="46.12487" lon="6.71884">
        <ele>1878.4</ele>
        <time>2026-06-27T08:14:38Z</time>
      </trkpt>
      <trkpt lat="46.12487" lon="6.71884">
        <ele>1878.4</ele>
        <time>2026-06-27T08:14:39Z</time>
      </trkpt>
      <trkpt lat="46.12487" lon="6.71884">
        <ele>1878.4</ele>
        <time>2026-06-27T08:14:40Z</time>
      </trkpt>
      <trkpt lat="46.12487" lon="6.71884">
        <ele>1878.3</ele>
        <time>2026-06-27T08:14:41Z</time>
      </trkpt>
      <trkpt lat="46.12487" lon="6.71884">
        <ele>1878.4</ele>
        <time>2026-06-27T08:14:42Z</time>
      </trkpt>
      <trkpt lat="46.12487" lon="6.71884">
        <ele>1878.4</ele>
        <time>2026-06-27T08:14:43Z</time>
      </trkpt>
      <trkpt lat="46.12487" lon="6.71884">
        <ele>1878.3</ele>
        <time>2026-06-27T08:14:44Z</time>
      </trkpt>
      <trkpt lat="46.12487" lon="6.71884">
        <ele>1878.3</ele>
        <time>2026-06-27T08:14:45Z</time>
      </trkpt>
      <trkpt lat="46.12487" lon="6.71884">
        <ele>1878.3</ele>
        <time>2026-06-27T08:14:46Z</time>
      </trkpt>
      <trkpt lat="46.12487" lon="6.71884">
        <ele>1878.2</ele>
        <time>2026-06-27T08:14:47Z</time>
      </trkpt>
      <trkpt lat="46.12487" lon="6.71883">
        <ele>1878.2</ele>
        <time>2026-06-27T08:14:48Z</time>
      </trkpt>
      <trkpt lat="46.12487" lon="6.71883">
        <ele>1878.1</ele>
        <time>2026-06-27T08:14:49Z</time>
      </trkpt>
      <trkpt lat="46.12487" lon="6.71883">
        <ele>1878.1</ele>
        <time>2026-06-27T08:14:50Z</time>
      </trkpt>
      <trkpt lat="46.12488" lon="6.71883">
        <ele>1878.1</ele>
        <time>2026-06-27T08:14:51Z</time>
      </trkpt>
      <trkpt lat="46.12488" lon="6.71883">
        <ele>1878.2</ele>
        <time>2026-06-27T08:14:52Z</time>
      </trkpt>
      <trkpt lat="46.12488" lon="6.71883">
        <ele>1878.1</ele>
        <time>2026-06-27T08:14:53Z</time>
      </trkpt>
      <trkpt lat="46.12488" lon="6.71883">
        <ele>1878.1</ele>
        <time>2026-06-27T08:14:54Z</time>
      </trkpt>
      <trkpt lat="46.12488" lon="6.71883">
        <ele>1878</ele>
        <time>2026-06-27T08:14:55Z</time>
      </trkpt>
      <trkpt lat="46.12488" lon="6.71883">
        <ele>1878</ele>
        <time>2026-06-27T08:14:56Z</time>
      </trkpt>
      <trkpt lat="46.12488" lon="6.71883">
        <ele>1878</ele>
        <time>2026-06-27T08:14:57Z</time>
      </trkpt>
      <trkpt lat="46.12488" lon="6.71883">
        <ele>1877.9</ele>
        <time>2026-06-27T08:14:58Z</time>
      </trkpt>
      <trkpt lat="46.12488" lon="6.71883">
        <ele>1877.9</ele>
        <time>2026-06-27T08:14:59Z</time>
      </trkpt>
      <trkpt lat="46.12488" lon="6.71883">
        <ele>1877.9</ele>
        <time>2026-06-27T08:15:00Z</time>
      </trkpt>
      <trkpt lat="46.12488" lon="6.71883">
        <ele>1877.9</ele>
        <time>2026-06-27T08:15:01Z</time>
      </trkpt>
      <trkpt lat="46.12488" lon="6.71883">
        <ele>1877.9</ele>
        <time>2026-06-27T08:15:02Z</time>
      </trkpt>
      <trkpt lat="46.12488" lon="6.71883">
        <ele>1877.9</ele>
        <time>2026-06-27T08:15:03Z</time>
      </trkpt>
      <trkpt lat="46.12488" lon="6.71883">
        <ele>1877.9</ele>
        <time>2026-06-27T08:15:04Z</time>
      </trkpt>
      <trkpt lat="46.12488" lon="6.71883">
        <ele>1877.9</ele>
        <time>2026-06-27T08:15:05Z</time>
      </trkpt>
      <trkpt lat="46.12489" lon="6.71883">
        <ele>1878</ele>
        <time>2026-06-27T08:15:06Z</time>
      </trkpt>
      <trkpt lat="46.12489" lon="6.71883">
        <ele>1878</ele>
        <time>2026-06-27T08:15:07Z</time>
      </trkpt>
      <trkpt lat="46.12489" lon="6.71883">
        <ele>1878</ele>
        <time>2026-06-27T08:15:08Z</time>
      </trkpt>
      <trkpt lat="46.12489" lon="6.71883">
        <ele>1878</ele>
        <time>2026-06-27T08:15:09Z</time>
      </trkpt>
      <trkpt lat="46.12488" lon="6.71883">
        <ele>1878</ele>
        <time>2026-06-27T08:15:10Z</time>
      </trkpt>
      <trkpt lat="46.12488" lon="6.71883">
        <ele>1878</ele>
        <time>2026-06-27T08:15:11Z</time>
      </trkpt>
      <trkpt lat="46.12488" lon="6.71883">
        <ele>1878</ele>
        <time>2026-06-27T08:15:12Z</time>
      </trkpt>
      <trkpt lat="46.12488" lon="6.71883">
        <ele>1878</ele>
        <time>2026-06-27T08:15:13Z</time>
      </trkpt>
      <trkpt lat="46.12488" lon="6.71883">
        <ele>1878</ele>
        <time>2026-06-27T08:15:14Z</time>
      </trkpt>
      <trkpt lat="46.12488" lon="6.71883">
        <ele>1878</ele>
        <time>2026-06-27T08:15:15Z</time>
      </trkpt>
      <trkpt lat="46.12488" lon="6.71883">
        <ele>1878</ele>
        <time>2026-06-27T08:15:16Z</time>
      </trkpt>
      <trkpt lat="46.12488" lon="6.71883">
        <ele>1878</ele>
        <time>2026-06-27T08:15:17Z</time>
      </trkpt>
      <trkpt lat="46.12488" lon="6.71883">
        <ele>1878.1</ele>
        <time>2026-06-27T08:15:18Z</time>
      </trkpt>
      <trkpt lat="46.12488" lon="6.71883">
        <ele>1878.2</ele>
        <time>2026-06-27T08:15:19Z</time>
      </trkpt>
      <trkpt lat="46.12488" lon="6.71883">
        <ele>1878.3</ele>
        <time>2026-06-27T08:15:20Z</time>
      </trkpt>
      <trkpt lat="46.12488" lon="6.71883">
        <ele>1878.4</ele>
        <time>2026-06-27T08:15:21Z</time>
      </trkpt>
      <trkpt lat="46.12488" lon="6.71883">
        <ele>1878.4</ele>
        <time>2026-06-27T08:15:22Z</time>
      </trkpt>
      <trkpt lat="46.12488" lon="6.71883">
        <ele>1878.4</ele>
        <time>2026-06-27T08:15:23Z</time>
      </trkpt>
      <trkpt lat="46.12488" lon="6.71883">
        <ele>1878.4</ele>
        <time>2026-06-27T08:15:24Z</time>
      </trkpt>
      <trkpt lat="46.12488" lon="6.71883">
        <ele>1878.5</ele>
        <time>2026-06-27T08:15:25Z</time>
      </trkpt>
      <trkpt lat="46.12488" lon="6.71883">
        <ele>1878.7</ele>
        <time>2026-06-27T08:15:26Z</time>
      </trkpt>
      <trkpt lat="46.12488" lon="6.71883">
        <ele>1878.8</ele>
        <time>2026-06-27T08:15:27Z</time>
      </trkpt>
      <trkpt lat="46.12487" lon="6.71883">
        <ele>1878.8</ele>
        <time>2026-06-27T08:15:28Z</time>
      </trkpt>
      <trkpt lat="46.12487" lon="6.71883">
        <ele>1878.8</ele>
        <time>2026-06-27T08:15:29Z</time>
      </trkpt>
      <trkpt lat="46.12487" lon="6.71883">
        <ele>1878.8</ele>
        <time>2026-06-27T08:15:30Z</time>
      </trkpt>
      <trkpt lat="46.12487" lon="6.71883">
        <ele>1878.7</ele>
        <time>2026-06-27T08:15:31Z</time>
      </trkpt>
      <trkpt lat="46.12487" lon="6.71883">
        <ele>1878.7</ele>
        <time>2026-06-27T08:15:32Z</time>
      </trkpt>
      <trkpt lat="46.12487" lon="6.71883">
        <ele>1878.6</ele>
        <time>2026-06-27T08:15:33Z</time>
      </trkpt>
      <trkpt lat="46.12487" lon="6.71883">
        <ele>1878.6</ele>
        <time>2026-06-27T08:15:34Z</time>
      </trkpt>
      <trkpt lat="46.12486" lon="6.71883">
        <ele>1878.6</ele>
        <time>2026-06-27T08:15:35Z</time>
      </trkpt>
      <trkpt lat="46.12486" lon="6.71883">
        <ele>1878.6</ele>
        <time>2026-06-27T08:15:36Z</time>
      </trkpt>
      <trkpt lat="46.12486" lon="6.71883">
        <ele>1878.6</ele>
        <time>2026-06-27T08:15:37Z</time>
      </trkpt>
      <trkpt lat="46.12486" lon="6.71883">
        <ele>1878.6</ele>
        <time>2026-06-27T08:15:38Z</time>
      </trkpt>
      <trkpt lat="46.12486" lon="6.71883">
        <ele>1878.7</ele>
        <time>2026-06-27T08:15:39Z</time>
      </trkpt>
      <trkpt lat="46.12486" lon="6.71883">
        <ele>1878.8</ele>
        <time>2026-06-27T08:15:40Z</time>
      </trkpt>
      <trkpt lat="46.12486" lon="6.71883">
        <ele>1878.8</ele>
        <time>2026-06-27T08:15:41Z</time>
      </trkpt>
      <trkpt lat="46.12486" lon="6.71883">
        <ele>1878.8</ele>
        <time>2026-06-27T08:15:42Z</time>
      </trkpt>
      <trkpt lat="46.12486" lon="6.71883">
        <ele>1878.7</ele>
        <time>2026-06-27T08:15:43Z</time>
      </trkpt>
      <trkpt lat="46.12486" lon="6.71883">
        <ele>1878.6</ele>
        <time>2026-06-27T08:15:44Z</time>
      </trkpt>
      <trkpt lat="46.12486" lon="6.71882">
        <ele>1878.5</ele>
        <time>2026-06-27T08:15:45Z</time>
      </trkpt>
      <trkpt lat="46.12486" lon="6.71882">
        <ele>1878.3</ele>
        <time>2026-06-27T08:15:46Z</time>
      </trkpt>
      <trkpt lat="46.12486" lon="6.71882">
        <ele>1878.4</ele>
        <time>2026-06-27T08:15:47Z</time>
      </trkpt>
      <trkpt lat="46.12486" lon="6.71882">
        <ele>1878.3</ele>
        <time>2026-06-27T08:15:48Z</time>
      </trkpt>
      <trkpt lat="46.12486" lon="6.71882">
        <ele>1878.3</ele>
        <time>2026-06-27T08:15:49Z</time>
      </trkpt>
      <trkpt lat="46.12486" lon="6.71882">
        <ele>1878.3</ele>
        <time>2026-06-27T08:15:50Z</time>
      </trkpt>
      <trkpt lat="46.12485" lon="6.71882">
        <ele>1878.2</ele>
        <time>2026-06-27T08:15:51Z</time>
      </trkpt>
      <trkpt lat="46.12485" lon="6.71882">
        <ele>1878.2</ele>
        <time>2026-06-27T08:15:52Z</time>
      </trkpt>
      <trkpt lat="46.12486" lon="6.71881">
        <ele>1878</ele>
        <time>2026-06-27T08:15:53Z</time>
      </trkpt>
      <trkpt lat="46.12486" lon="6.71881">
        <ele>1878</ele>
        <time>2026-06-27T08:15:54Z</time>
      </trkpt>
      <trkpt lat="46.12486" lon="6.71881">
        <ele>1878</ele>
        <time>2026-06-27T08:15:55Z</time>
      </trkpt>
      <trkpt lat="46.12486" lon="6.71881">
        <ele>1878</ele>
        <time>2026-06-27T08:15:56Z</time>
      </trkpt>
      <trkpt lat="46.12487" lon="6.71881">
        <ele>1878.1</ele>
        <time>2026-06-27T08:15:57Z</time>
      </trkpt>
      <trkpt lat="46.12487" lon="6.71881">
        <ele>1878.1</ele>
        <time>2026-06-27T08:15:58Z</time>
      </trkpt>
      <trkpt lat="46.12487" lon="6.71881">
        <ele>1878.2</ele>
        <time>2026-06-27T08:15:59Z</time>
      </trkpt>
      <trkpt lat="46.12487" lon="6.71881">
        <ele>1878.4</ele>
        <time>2026-06-27T08:16:00Z</time>
      </trkpt>
      <trkpt lat="46.12487" lon="6.71881">
        <ele>1878.5</ele>
        <time>2026-06-27T08:16:01Z</time>
      </trkpt>
      <trkpt lat="46.12487" lon="6.71881">
        <ele>1878.5</ele>
        <time>2026-06-27T08:16:02Z</time>
      </trkpt>
      <trkpt lat="46.12487" lon="6.71881">
        <ele>1878.4</ele>
        <time>2026-06-27T08:16:03Z</time>
      </trkpt>
      <trkpt lat="46.12488" lon="6.71881">
        <ele>1878.4</ele>
        <time>2026-06-27T08:16:04Z</time>
      </trkpt>
      <trkpt lat="46.12487" lon="6.71881">
        <ele>1878.4</ele>
        <time>2026-06-27T08:16:05Z</time>
      </trkpt>
      <trkpt lat="46.12487" lon="6.71882">
        <ele>1878.4</ele>
        <time>2026-06-27T08:16:06Z</time>
      </trkpt>
      <trkpt lat="46.12487" lon="6.71882">
        <ele>1878.4</ele>
        <time>2026-06-27T08:16:07Z</time>
      </trkpt>
      <trkpt lat="46.12487" lon="6.71882">
        <ele>1878.4</ele>
        <time>2026-06-27T08:16:08Z</time>
      </trkpt>
      <trkpt lat="46.12487" lon="6.71882">
        <ele>1878.5</ele>
        <time>2026-06-27T08:16:09Z</time>
      </trkpt>
      <trkpt lat="46.12487" lon="6.71883">
        <ele>1878.5</ele>
        <time>2026-06-27T08:16:10Z</time>
      </trkpt>
      <trkpt lat="46.12487" lon="6.71883">
        <ele>1878.6</ele>
        <time>2026-06-27T08:16:11Z</time>
      </trkpt>
      <trkpt lat="46.12487" lon="6.71883">
        <ele>1878.7</ele>
        <time>2026-06-27T08:16:12Z</time>
      </trkpt>
      <trkpt lat="46.12487" lon="6.71883">
        <ele>1878.7</ele>
        <time>2026-06-27T08:16:13Z</time>
      </trkpt>
      <trkpt lat="46.12487" lon="6.71883">
        <ele>1878.7</ele>
        <time>2026-06-27T08:16:14Z</time>
      </trkpt>
      <trkpt lat="46.12487" lon="6.71883">
        <ele>1878.7</ele>
        <time>2026-06-27T08:16:15Z</time>
      </trkpt>
      <trkpt lat="46.12487" lon="6.71883">
        <ele>1878.6</ele>
        <time>2026-06-27T08:16:16Z</time>
      </trkpt>
      <trkpt lat="46.12487" lon="6.71883">
        <ele>1878.5</ele>
        <time>2026-06-27T08:16:17Z</time>
      </trkpt>
      <trkpt lat="46.12487" lon="6.71883">
        <ele>1878.6</ele>
        <time>2026-06-27T08:16:18Z</time>
      </trkpt>
      <trkpt lat="46.12487" lon="6.71884">
        <ele>1878.6</ele>
        <time>2026-06-27T08:16:19Z</time>
      </trkpt>
      <trkpt lat="46.12487" lon="6.71884">
        <ele>1878.6</ele>
        <time>2026-06-27T08:16:20Z</time>
      </trkpt>
      <trkpt lat="46.12487" lon="6.71884">
        <ele>1878.6</ele>
        <time>2026-06-27T08:16:21Z</time>
      </trkpt>
      <trkpt lat="46.12487" lon="6.71884">
        <ele>1878.6</ele>
        <time>2026-06-27T08:16:22Z</time>
      </trkpt>
      <trkpt lat="46.12487" lon="6.71884">
        <ele>1878.5</ele>
        <time>2026-06-27T08:16:23Z</time>
      </trkpt>
      <trkpt lat="46.12487" lon="6.71884">
        <ele>1878.4</ele>
        <time>2026-06-27T08:16:24Z</time>
      </trkpt>
      <trkpt lat="46.12487" lon="6.71884">
        <ele>1878.4</ele>
        <time>2026-06-27T08:16:25Z</time>
      </trkpt>
      <trkpt lat="46.12487" lon="6.71884">
        <ele>1878.3</ele>
        <time>2026-06-27T08:16:26Z</time>
      </trkpt>
      <trkpt lat="46.12487" lon="6.71884">
        <ele>1878.2</ele>
        <time>2026-06-27T08:16:27Z</time>
      </trkpt>
      <trkpt lat="46.12487" lon="6.71884">
        <ele>1878.1</ele>
        <time>2026-06-27T08:16:28Z</time>
      </trkpt>
      <trkpt lat="46.12487" lon="6.71884">
        <ele>1878.1</ele>
        <time>2026-06-27T08:16:29Z</time>
      </trkpt>
      <trkpt lat="46.12487" lon="6.71884">
        <ele>1878</ele>
        <time>2026-06-27T08:16:30Z</time>
      </trkpt>
      <trkpt lat="46.12487" lon="6.71884">
        <ele>1878</ele>
        <time>2026-06-27T08:16:31Z</time>
      </trkpt>
      <trkpt lat="46.12487" lon="6.71884">
        <ele>1878.1</ele>
        <time>2026-06-27T08:16:32Z</time>
      </trkpt>
      <trkpt lat="46.12487" lon="6.71884">
        <ele>1878.2</ele>
        <time>2026-06-27T08:16:33Z</time>
      </trkpt>
      <trkpt lat="46.12488" lon="6.71884">
        <ele>1878.2</ele>
        <time>2026-06-27T08:16:34Z</time>
      </trkpt>
      <trkpt lat="46.12488" lon="6.71884">
        <ele>1878.1</ele>
        <time>2026-06-27T08:16:35Z</time>
      </trkpt>
      <trkpt lat="46.12488" lon="6.71884">
        <ele>1878.1</ele>
        <time>2026-06-27T08:16:36Z</time>
      </trkpt>
      <trkpt lat="46.12488" lon="6.71884">
        <ele>1878.1</ele>
        <time>2026-06-27T08:16:37Z</time>
      </trkpt>
      <trkpt lat="46.12488" lon="6.71884">
        <ele>1878.2</ele>
        <time>2026-06-27T08:16:38Z</time>
      </trkpt>
      <trkpt lat="46.12488" lon="6.71884">
        <ele>1878.3</ele>
        <time>2026-06-27T08:16:39Z</time>
      </trkpt>
      <trkpt lat="46.12488" lon="6.71884">
        <ele>1878.3</ele>
        <time>2026-06-27T08:16:40Z</time>
      </trkpt>
      <trkpt lat="46.12488" lon="6.71884">
        <ele>1878.3</ele>
        <time>2026-06-27T08:16:41Z</time>
      </trkpt>
      <trkpt lat="46.12488" lon="6.71884">
        <ele>1878.4</ele>
        <time>2026-06-27T08:16:42Z</time>
      </trkpt>
      <trkpt lat="46.12488" lon="6.71884">
        <ele>1878.4</ele>
        <time>2026-06-27T08:16:43Z</time>
      </trkpt>
      <trkpt lat="46.12488" lon="6.71884">
        <ele>1878.4</ele>
        <time>2026-06-27T08:16:44Z</time>
      </trkpt>
      <trkpt lat="46.12488" lon="6.71884">
        <ele>1878.4</ele>
        <time>2026-06-27T08:16:45Z</time>
      </trkpt>
      <trkpt lat="46.12489" lon="6.71884">
        <ele>1878.3</ele>
        <time>2026-06-27T08:16:46Z</time>
      </trkpt>
      <trkpt lat="46.12489" lon="6.71884">
        <ele>1878.3</ele>
        <time>2026-06-27T08:16:47Z</time>
      </trkpt>
      <trkpt lat="46.12489" lon="6.71884">
        <ele>1878.2</ele>
        <time>2026-06-27T08:16:48Z</time>
      </trkpt>
      <trkpt lat="46.12489" lon="6.71884">
        <ele>1878.2</ele>
        <time>2026-06-27T08:16:49Z</time>
      </trkpt>
      <trkpt lat="46.12489" lon="6.71884">
        <ele>1878.2</ele>
        <time>2026-06-27T08:16:50Z</time>
      </trkpt>
      <trkpt lat="46.12489" lon="6.71884">
        <ele>1878.2</ele>
        <time>2026-06-27T08:16:51Z</time>
      </trkpt>
      <trkpt lat="46.12489" lon="6.71884">
        <ele>1878.2</ele>
        <time>2026-06-27T08:16:52Z</time>
      </trkpt>
      <trkpt lat="46.12489" lon="6.71885">
        <ele>1878.3</ele>
        <time>2026-06-27T08:16:53Z</time>
      </trkpt>
      <trkpt lat="46.12489" lon="6.71885">
        <ele>1878.2</ele>
        <time>2026-06-27T08:16:54Z</time>
      </trkpt>
      <trkpt lat="46.12489" lon="6.71885">
        <ele>1878.3</ele>
        <time>2026-06-27T08:16:55Z</time>
      </trkpt>
      <trkpt lat="46.12489" lon="6.71885">
        <ele>1878.3</ele>
        <time>2026-06-27T08:16:56Z</time>
      </trkpt>
      <trkpt lat="46.12489" lon="6.71885">
        <ele>1878.4</ele>
        <time>2026-06-27T08:16:57Z</time>
      </trkpt>
      <trkpt lat="46.1249" lon="6.71885">
        <ele>1878.5</ele>
        <time>2026-06-27T08:16:58Z</time>
      </trkpt>
      <trkpt lat="46.1249" lon="6.71886">
        <ele>1878.4</ele>
        <time>2026-06-27T08:16:59Z</time>
      </trkpt>
      <trkpt lat="46.1249" lon="6.71886">
        <ele>1878.4</ele>
        <time>2026-06-27T08:17:00Z</time>
      </trkpt>
      <trkpt lat="46.1249" lon="6.71886">
        <ele>1878.3</ele>
        <time>2026-06-27T08:17:01Z</time>
      </trkpt>
      <trkpt lat="46.12489" lon="6.71886">
        <ele>1878.3</ele>
        <time>2026-06-27T08:17:02Z</time>
      </trkpt>
      <trkpt lat="46.12489" lon="6.71886">
        <ele>1878.3</ele>
        <time>2026-06-27T08:17:03Z</time>
      </trkpt>
      <trkpt lat="46.12489" lon="6.71886">
        <ele>1878.3</ele>
        <time>2026-06-27T08:17:04Z</time>
      </trkpt>
      <trkpt lat="46.12489" lon="6.71886">
        <ele>1878.4</ele>
        <time>2026-06-27T08:17:05Z</time>
      </trkpt>
      <trkpt lat="46.12489" lon="6.71886">
        <ele>1878.4</ele>
        <time>2026-06-27T08:17:06Z</time>
      </trkpt>
      <trkpt lat="46.12489" lon="6.71886">
        <ele>1878.4</ele>
        <time>2026-06-27T08:17:07Z</time>
      </trkpt>
      <trkpt lat="46.12489" lon="6.71887">
        <ele>1878.5</ele>
        <time>2026-06-27T08:17:08Z</time>
      </trkpt>
      <trkpt lat="46.12489" lon="6.71886">
        <ele>1878.5</ele>
        <time>2026-06-27T08:17:09Z</time>
      </trkpt>
      <trkpt lat="46.12489" lon="6.71886">
        <ele>1878.4</ele>
        <time>2026-06-27T08:17:10Z</time>
      </trkpt>
      <trkpt lat="46.12489" lon="6.71886">
        <ele>1878.3</ele>
        <time>2026-06-27T08:17:11Z</time>
      </trkpt>
      <trkpt lat="46.12489" lon="6.71886">
        <ele>1878.3</ele>
        <time>2026-06-27T08:17:12Z</time>
      </trkpt>
      <trkpt lat="46.12489" lon="6.71886">
        <ele>1878.3</ele>
        <time>2026-06-27T08:17:13Z</time>
      </trkpt>
      <trkpt lat="46.1249" lon="6.71886">
        <ele>1878.3</ele>
        <time>2026-06-27T08:17:14Z</time>
      </trkpt>
      <trkpt lat="46.1249" lon="6.71886">
        <ele>1878.3</ele>
        <time>2026-06-27T08:17:15Z</time>
      </trkpt>
      <trkpt lat="46.1249" lon="6.71886">
        <ele>1878.3</ele>
        <time>2026-06-27T08:17:16Z</time>
      </trkpt>
      <trkpt lat="46.1249" lon="6.71885">
        <ele>1878.3</ele>
        <time>2026-06-27T08:17:17Z</time>
      </trkpt>
      <trkpt lat="46.1249" lon="6.71885">
        <ele>1878.3</ele>
        <time>2026-06-27T08:17:18Z</time>
      </trkpt>
      <trkpt lat="46.12491" lon="6.71885">
        <ele>1878.2</ele>
        <time>2026-06-27T08:17:19Z</time>
      </trkpt>
      <trkpt lat="46.12491" lon="6.71885">
        <ele>1878.2</ele>
        <time>2026-06-27T08:17:20Z</time>
      </trkpt>
      <trkpt lat="46.12491" lon="6.71884">
        <ele>1878.1</ele>
        <time>2026-06-27T08:17:21Z</time>
      </trkpt>
      <trkpt lat="46.12491" lon="6.71884">
        <ele>1878.1</ele>
        <time>2026-06-27T08:17:22Z</time>
      </trkpt>
      <trkpt lat="46.12491" lon="6.71884">
        <ele>1878</ele>
        <time>2026-06-27T08:17:23Z</time>
      </trkpt>
      <trkpt lat="46.12492" lon="6.71884">
        <ele>1877.9</ele>
        <time>2026-06-27T08:17:24Z</time>
      </trkpt>
      <trkpt lat="46.12492" lon="6.71884">
        <ele>1877.8</ele>
        <time>2026-06-27T08:17:25Z</time>
      </trkpt>
      <trkpt lat="46.12492" lon="6.71884">
        <ele>1877.7</ele>
        <time>2026-06-27T08:17:26Z</time>
      </trkpt>
      <trkpt lat="46.12492" lon="6.71884">
        <ele>1877.7</ele>
        <time>2026-06-27T08:17:27Z</time>
      </trkpt>
      <trkpt lat="46.12492" lon="6.71884">
        <ele>1877.8</ele>
        <time>2026-06-27T08:17:28Z</time>
      </trkpt>
      <trkpt lat="46.12492" lon="6.71884">
        <ele>1877.9</ele>
        <time>2026-06-27T08:17:29Z</time>
      </trkpt>
      <trkpt lat="46.12492" lon="6.71884">
        <ele>1877.9</ele>
        <time>2026-06-27T08:17:30Z</time>
      </trkpt>
      <trkpt lat="46.12493" lon="6.71884">
        <ele>1877.9</ele>
        <time>2026-06-27T08:17:31Z</time>
      </trkpt>
      <trkpt lat="46.12493" lon="6.71884">
        <ele>1877.9</ele>
        <time>2026-06-27T08:17:32Z</time>
      </trkpt>
      <trkpt lat="46.12493" lon="6.71884">
        <ele>1877.9</ele>
        <time>2026-06-27T08:17:33Z</time>
      </trkpt>
      <trkpt lat="46.12493" lon="6.71884">
        <ele>1877.9</ele>
        <time>2026-06-27T08:17:34Z</time>
      </trkpt>
      <trkpt lat="46.12493" lon="6.71884">
        <ele>1877.8</ele>
        <time>2026-06-27T08:17:35Z</time>
      </trkpt>
      <trkpt lat="46.12493" lon="6.71884">
        <ele>1877.8</ele>
        <time>2026-06-27T08:17:36Z</time>
      </trkpt>
      <trkpt lat="46.12493" lon="6.71884">
        <ele>1877.8</ele>
        <time>2026-06-27T08:17:37Z</time>
      </trkpt>
      <trkpt lat="46.12493" lon="6.71884">
        <ele>1877.7</ele>
        <time>2026-06-27T08:17:38Z</time>
      </trkpt>
      <trkpt lat="46.12493" lon="6.71883">
        <ele>1877.6</ele>
        <time>2026-06-27T08:17:39Z</time>
      </trkpt>
      <trkpt lat="46.12493" lon="6.71883">
        <ele>1877.5</ele>
        <time>2026-06-27T08:17:40Z</time>
      </trkpt>
      <trkpt lat="46.12494" lon="6.71882">
        <ele>1877.4</ele>
        <time>2026-06-27T08:17:41Z</time>
      </trkpt>
      <trkpt lat="46.12495" lon="6.71882">
        <ele>1877.3</ele>
        <time>2026-06-27T08:17:42Z</time>
      </trkpt>
      <trkpt lat="46.12495" lon="6.71881">
        <ele>1877.1</ele>
        <time>2026-06-27T08:17:43Z</time>
      </trkpt>
      <trkpt lat="46.12495" lon="6.71881">
        <ele>1877.1</ele>
        <time>2026-06-27T08:17:44Z</time>
      </trkpt>
      <trkpt lat="46.12496" lon="6.71881">
        <ele>1877.1</ele>
        <time>2026-06-27T08:17:45Z</time>
      </trkpt>
      <trkpt lat="46.12496" lon="6.71881">
        <ele>1876.9</ele>
        <time>2026-06-27T08:17:46Z</time>
      </trkpt>
      <trkpt lat="46.12496" lon="6.71881">
        <ele>1876.8</ele>
        <time>2026-06-27T08:17:47Z</time>
      </trkpt>
      <trkpt lat="46.12497" lon="6.7188">
        <ele>1876.7</ele>
        <time>2026-06-27T08:17:48Z</time>
      </trkpt>
      <trkpt lat="46.12497" lon="6.7188">
        <ele>1876.6</ele>
        <time>2026-06-27T08:17:49Z</time>
      </trkpt>
      <trkpt lat="46.12497" lon="6.7188">
        <ele>1876.5</ele>
        <time>2026-06-27T08:17:50Z</time>
      </trkpt>
      <trkpt lat="46.12497" lon="6.7188">
        <ele>1876.3</ele>
        <time>2026-06-27T08:17:51Z</time>
      </trkpt>
      <trkpt lat="46.12497" lon="6.7188">
        <ele>1876.2</ele>
        <time>2026-06-27T08:17:52Z</time>
      </trkpt>
      <trkpt lat="46.12497" lon="6.7188">
        <ele>1876.1</ele>
        <time>2026-06-27T08:17:53Z</time>
      </trkpt>
      <trkpt lat="46.12498" lon="6.71879">
        <ele>1876</ele>
        <time>2026-06-27T08:17:54Z</time>
      </trkpt>
      <trkpt lat="46.12498" lon="6.7188">
        <ele>1875.9</ele>
        <time>2026-06-27T08:17:55Z</time>
      </trkpt>
      <trkpt lat="46.12498" lon="6.7188">
        <ele>1875.8</ele>
        <time>2026-06-27T08:17:56Z</time>
      </trkpt>
      <trkpt lat="46.12499" lon="6.71879">
        <ele>1875.7</ele>
        <time>2026-06-27T08:17:57Z</time>
      </trkpt>
      <trkpt lat="46.12499" lon="6.71879">
        <ele>1875.6</ele>
        <time>2026-06-27T08:17:58Z</time>
      </trkpt>
      <trkpt lat="46.12499" lon="6.71879">
        <ele>1875.4</ele>
        <time>2026-06-27T08:17:59Z</time>
      </trkpt>
      <trkpt lat="46.125" lon="6.7188">
        <ele>1875.3</ele>
        <time>2026-06-27T08:18:00Z</time>
      </trkpt>
      <trkpt lat="46.125" lon="6.7188">
        <ele>1875</ele>
        <time>2026-06-27T08:18:01Z</time>
      </trkpt>
      <trkpt lat="46.125" lon="6.7188">
        <ele>1874.9</ele>
        <time>2026-06-27T08:18:02Z</time>
      </trkpt>
      <trkpt lat="46.12501" lon="6.7188">
        <ele>1874.7</ele>
        <time>2026-06-27T08:18:03Z</time>
      </trkpt>
      <trkpt lat="46.12501" lon="6.7188">
        <ele>1874.6</ele>
        <time>2026-06-27T08:18:04Z</time>
      </trkpt>
      <trkpt lat="46.12501" lon="6.7188">
        <ele>1874.5</ele>
        <time>2026-06-27T08:18:05Z</time>
      </trkpt>
      <trkpt lat="46.12502" lon="6.7188">
        <ele>1874.3</ele>
        <time>2026-06-27T08:18:06Z</time>
      </trkpt>
      <trkpt lat="46.12502" lon="6.7188">
        <ele>1874.1</ele>
        <time>2026-06-27T08:18:07Z</time>
      </trkpt>
      <trkpt lat="46.12503" lon="6.7188">
        <ele>1873.9</ele>
        <time>2026-06-27T08:18:08Z</time>
      </trkpt>
      <trkpt lat="46.12503" lon="6.7188">
        <ele>1873.7</ele>
        <time>2026-06-27T08:18:09Z</time>
      </trkpt>
      <trkpt lat="46.12504" lon="6.71881">
        <ele>1873.6</ele>
        <time>2026-06-27T08:18:10Z</time>
      </trkpt>
      <trkpt lat="46.12504" lon="6.7188">
        <ele>1873.4</ele>
        <time>2026-06-27T08:18:11Z</time>
      </trkpt>
      <trkpt lat="46.12505" lon="6.7188">
        <ele>1873.2</ele>
        <time>2026-06-27T08:18:12Z</time>
      </trkpt>
      <trkpt lat="46.12505" lon="6.7188">
        <ele>1873.1</ele>
        <time>2026-06-27T08:18:13Z</time>
      </trkpt>
      <trkpt lat="46.12505" lon="6.7188">
        <ele>1873</ele>
        <time>2026-06-27T08:18:14Z</time>
      </trkpt>
      <trkpt lat="46.12506" lon="6.7188">
        <ele>1872.9</ele>
        <time>2026-06-27T08:18:15Z</time>
      </trkpt>
      <trkpt lat="46.12506" lon="6.7188">
        <ele>1872.8</ele>
        <time>2026-06-27T08:18:16Z</time>
      </trkpt>
      <trkpt lat="46.12507" lon="6.71879">
        <ele>1872.5</ele>
        <time>2026-06-27T08:18:17Z</time>
      </trkpt>
      <trkpt lat="46.12507" lon="6.71879">
        <ele>1872.3</ele>
        <time>2026-06-27T08:18:18Z</time>
      </trkpt>
      <trkpt lat="46.12508" lon="6.71879">
        <ele>1872.1</ele>
        <time>2026-06-27T08:18:19Z</time>
      </trkpt>
      <trkpt lat="46.12509" lon="6.71879">
        <ele>1871.8</ele>
        <time>2026-06-27T08:18:20Z</time>
      </trkpt>
      <trkpt lat="46.12509" lon="6.71879">
        <ele>1871.6</ele>
        <time>2026-06-27T08:18:21Z</time>
      </trkpt>
      <trkpt lat="46.12509" lon="6.71879">
        <ele>1871.4</ele>
        <time>2026-06-27T08:18:22Z</time>
      </trkpt>
      <trkpt lat="46.1251" lon="6.7188">
        <ele>1871.2</ele>
        <time>2026-06-27T08:18:23Z</time>
      </trkpt>
      <trkpt lat="46.1251" lon="6.7188">
        <ele>1871</ele>
        <time>2026-06-27T08:18:24Z</time>
      </trkpt>
      <trkpt lat="46.12511" lon="6.7188">
        <ele>1870.9</ele>
        <time>2026-06-27T08:18:25Z</time>
      </trkpt>
      <trkpt lat="46.12511" lon="6.7188">
        <ele>1870.7</ele>
        <time>2026-06-27T08:18:26Z</time>
      </trkpt>
      <trkpt lat="46.12512" lon="6.71881">
        <ele>1870.4</ele>
        <time>2026-06-27T08:18:27Z</time>
      </trkpt>
      <trkpt lat="46.12513" lon="6.71881">
        <ele>1870.2</ele>
        <time>2026-06-27T08:18:28Z</time>
      </trkpt>
      <trkpt lat="46.12513" lon="6.7188">
        <ele>1870</ele>
        <time>2026-06-27T08:18:29Z</time>
      </trkpt>
      <trkpt lat="46.12514" lon="6.71881">
        <ele>1869.8</ele>
        <time>2026-06-27T08:18:30Z</time>
      </trkpt>
      <trkpt lat="46.12514" lon="6.71882">
        <ele>1869.3</ele>
        <time>2026-06-27T08:18:31Z</time>
      </trkpt>
      <trkpt lat="46.12514" lon="6.71882">
        <ele>1869.1</ele>
        <time>2026-06-27T08:18:32Z</time>
      </trkpt>
      <trkpt lat="46.12515" lon="6.71883">
        <ele>1868.8</ele>
        <time>2026-06-27T08:18:33Z</time>
      </trkpt>
      <trkpt lat="46.12515" lon="6.71883">
        <ele>1868.5</ele>
        <time>2026-06-27T08:18:34Z</time>
      </trkpt>
      <trkpt lat="46.12516" lon="6.71884">
        <ele>1868.1</ele>
        <time>2026-06-27T08:18:35Z</time>
      </trkpt>
      <trkpt lat="46.12516" lon="6.71884">
        <ele>1867.8</ele>
        <time>2026-06-27T08:18:36Z</time>
      </trkpt>
      <trkpt lat="46.12517" lon="6.71884">
        <ele>1867.5</ele>
        <time>2026-06-27T08:18:37Z</time>
      </trkpt>
      <trkpt lat="46.12517" lon="6.71884">
        <ele>1867.3</ele>
        <time>2026-06-27T08:18:38Z</time>
      </trkpt>
      <trkpt lat="46.12518" lon="6.71885">
        <ele>1867</ele>
        <time>2026-06-27T08:18:39Z</time>
      </trkpt>
      <trkpt lat="46.12518" lon="6.71885">
        <ele>1866.8</ele>
        <time>2026-06-27T08:18:40Z</time>
      </trkpt>
      <trkpt lat="46.12519" lon="6.71886">
        <ele>1866.7</ele>
        <time>2026-06-27T08:18:41Z</time>
      </trkpt>
      <trkpt lat="46.12519" lon="6.71886">
        <ele>1866.5</ele>
        <time>2026-06-27T08:18:42Z</time>
      </trkpt>
      <trkpt lat="46.1252" lon="6.71887">
        <ele>1866.3</ele>
        <time>2026-06-27T08:18:43Z</time>
      </trkpt>
      <trkpt lat="46.1252" lon="6.71888">
        <ele>1866.1</ele>
        <time>2026-06-27T08:18:44Z</time>
      </trkpt>
      <trkpt lat="46.12521" lon="6.71888">
        <ele>1865.7</ele>
        <time>2026-06-27T08:18:45Z</time>
      </trkpt>
      <trkpt lat="46.12522" lon="6.71888">
        <ele>1865.5</ele>
        <time>2026-06-27T08:18:46Z</time>
      </trkpt>
      <trkpt lat="46.12522" lon="6.71889">
        <ele>1865.1</ele>
        <time>2026-06-27T08:18:47Z</time>
      </trkpt>
      <trkpt lat="46.12523" lon="6.71889">
        <ele>1864.8</ele>
        <time>2026-06-27T08:18:48Z</time>
      </trkpt>
      <trkpt lat="46.12523" lon="6.7189">
        <ele>1864.5</ele>
        <time>2026-06-27T08:18:49Z</time>
      </trkpt>
      <trkpt lat="46.12524" lon="6.7189">
        <ele>1864.4</ele>
        <time>2026-06-27T08:18:50Z</time>
      </trkpt>
      <trkpt lat="46.12524" lon="6.7189">
        <ele>1864.2</ele>
        <time>2026-06-27T08:18:51Z</time>
      </trkpt>
      <trkpt lat="46.12525" lon="6.71891">
        <ele>1864</ele>
        <time>2026-06-27T08:18:52Z</time>
      </trkpt>
      <trkpt lat="46.12525" lon="6.71891">
        <ele>1863.6</ele>
        <time>2026-06-27T08:18:53Z</time>
      </trkpt>
      <trkpt lat="46.12526" lon="6.71892">
        <ele>1863.4</ele>
        <time>2026-06-27T08:18:54Z</time>
      </trkpt>
      <trkpt lat="46.12526" lon="6.71892">
        <ele>1863.2</ele>
        <time>2026-06-27T08:18:55Z</time>
      </trkpt>
      <trkpt lat="46.12527" lon="6.71892">
        <ele>1862.9</ele>
        <time>2026-06-27T08:18:56Z</time>
      </trkpt>
      <trkpt lat="46.12527" lon="6.71893">
        <ele>1862.7</ele>
        <time>2026-06-27T08:18:57Z</time>
      </trkpt>
      <trkpt lat="46.12527" lon="6.71894">
        <ele>1862.5</ele>
        <time>2026-06-27T08:18:58Z</time>
      </trkpt>
      <trkpt lat="46.12528" lon="6.71895">
        <ele>1862.2</ele>
        <time>2026-06-27T08:18:59Z</time>
      </trkpt>
      <trkpt lat="46.12528" lon="6.71895">
        <ele>1861.9</ele>
        <time>2026-06-27T08:19:00Z</time>
      </trkpt>
      <trkpt lat="46.12528" lon="6.71895">
        <ele>1861.7</ele>
        <time>2026-06-27T08:19:01Z</time>
      </trkpt>
      <trkpt lat="46.12528" lon="6.71895">
        <ele>1861.5</ele>
        <time>2026-06-27T08:19:02Z</time>
      </trkpt>
      <trkpt lat="46.12529" lon="6.71896">
        <ele>1861.3</ele>
        <time>2026-06-27T08:19:03Z</time>
      </trkpt>
      <trkpt lat="46.12529" lon="6.71896">
        <ele>1861</ele>
        <time>2026-06-27T08:19:04Z</time>
      </trkpt>
      <trkpt lat="46.12529" lon="6.71897">
        <ele>1860.8</ele>
        <time>2026-06-27T08:19:05Z</time>
      </trkpt>
      <trkpt lat="46.1253" lon="6.71897">
        <ele>1860.6</ele>
        <time>2026-06-27T08:19:06Z</time>
      </trkpt>
      <trkpt lat="46.1253" lon="6.71898">
        <ele>1860.4</ele>
        <time>2026-06-27T08:19:07Z</time>
      </trkpt>
      <trkpt lat="46.1253" lon="6.71898">
        <ele>1860.4</ele>
        <time>2026-06-27T08:19:08Z</time>
      </trkpt>
      <trkpt lat="46.12531" lon="6.71898">
        <ele>1860.2</ele>
        <time>2026-06-27T08:19:09Z</time>
      </trkpt>
      <trkpt lat="46.12531" lon="6.71899">
        <ele>1860.1</ele>
        <time>2026-06-27T08:19:10Z</time>
      </trkpt>
      <trkpt lat="46.12531" lon="6.71899">
        <ele>1859.8</ele>
        <time>2026-06-27T08:19:11Z</time>
      </trkpt>
      <trkpt lat="46.12532" lon="6.71899">
        <ele>1859.6</ele>
        <time>2026-06-27T08:19:12Z</time>
      </trkpt>
      <trkpt lat="46.12532" lon="6.71899">
        <ele>1859.3</ele>
        <time>2026-06-27T08:19:13Z</time>
      </trkpt>
      <trkpt lat="46.12533" lon="6.71899">
        <ele>1859.1</ele>
        <time>2026-06-27T08:19:14Z</time>
      </trkpt>
      <trkpt lat="46.12533" lon="6.71899">
        <ele>1858.9</ele>
        <time>2026-06-27T08:19:15Z</time>
      </trkpt>
      <trkpt lat="46.12533" lon="6.719">
        <ele>1858.7</ele>
        <time>2026-06-27T08:19:16Z</time>
      </trkpt>
      <trkpt lat="46.12533" lon="6.71901">
        <ele>1858.5</ele>
        <time>2026-06-27T08:19:17Z</time>
      </trkpt>
      <trkpt lat="46.12533" lon="6.71903">
        <ele>1858.4</ele>
        <time>2026-06-27T08:19:18Z</time>
      </trkpt>
      <trkpt lat="46.12534" lon="6.71904">
        <ele>1858.2</ele>
        <time>2026-06-27T08:19:19Z</time>
      </trkpt>
      <trkpt lat="46.12534" lon="6.71905">
        <ele>1858.1</ele>
        <time>2026-06-27T08:19:20Z</time>
      </trkpt>
      <trkpt lat="46.12535" lon="6.71904">
        <ele>1857.9</ele>
        <time>2026-06-27T08:19:21Z</time>
      </trkpt>
      <trkpt lat="46.12535" lon="6.71903">
        <ele>1857.8</ele>
        <time>2026-06-27T08:19:22Z</time>
      </trkpt>
      <trkpt lat="46.12535" lon="6.71903">
        <ele>1857.7</ele>
        <time>2026-06-27T08:19:23Z</time>
      </trkpt>
      <trkpt lat="46.12535" lon="6.71903">
        <ele>1857.6</ele>
        <time>2026-06-27T08:19:24Z</time>
      </trkpt>
      <trkpt lat="46.12536" lon="6.71903">
        <ele>1857.4</ele>
        <time>2026-06-27T08:19:25Z</time>
      </trkpt>
      <trkpt lat="46.12536" lon="6.71904">
        <ele>1857.2</ele>
        <time>2026-06-27T08:19:26Z</time>
      </trkpt>
      <trkpt lat="46.12537" lon="6.71904">
        <ele>1856.9</ele>
        <time>2026-06-27T08:19:27Z</time>
      </trkpt>
      <trkpt lat="46.12537" lon="6.71905">
        <ele>1856.7</ele>
        <time>2026-06-27T08:19:28Z</time>
      </trkpt>
      <trkpt lat="46.12537" lon="6.71905">
        <ele>1856.5</ele>
        <time>2026-06-27T08:19:29Z</time>
      </trkpt>
      <trkpt lat="46.12537" lon="6.71905">
        <ele>1856.4</ele>
        <time>2026-06-27T08:19:30Z</time>
      </trkpt>
      <trkpt lat="46.12538" lon="6.71905">
        <ele>1856.3</ele>
        <time>2026-06-27T08:19:31Z</time>
      </trkpt>
      <trkpt lat="46.12538" lon="6.71906">
        <ele>1856.2</ele>
        <time>2026-06-27T08:19:32Z</time>
      </trkpt>
      <trkpt lat="46.12538" lon="6.71905">
        <ele>1856</ele>
        <time>2026-06-27T08:19:33Z</time>
      </trkpt>
      <trkpt lat="46.12538" lon="6.71905">
        <ele>1855.9</ele>
        <time>2026-06-27T08:19:34Z</time>
      </trkpt>
      <trkpt lat="46.12539" lon="6.71904">
        <ele>1855.8</ele>
        <time>2026-06-27T08:19:35Z</time>
      </trkpt>
      <trkpt lat="46.12539" lon="6.71904">
        <ele>1855.5</ele>
        <time>2026-06-27T08:19:36Z</time>
      </trkpt>
      <trkpt lat="46.1254" lon="6.71903">
        <ele>1855.3</ele>
        <time>2026-06-27T08:19:37Z</time>
      </trkpt>
      <trkpt lat="46.1254" lon="6.71903">
        <ele>1855.2</ele>
        <time>2026-06-27T08:19:38Z</time>
      </trkpt>
      <trkpt lat="46.1254" lon="6.71904">
        <ele>1855</ele>
        <time>2026-06-27T08:19:39Z</time>
      </trkpt>
      <trkpt lat="46.1254" lon="6.71905">
        <ele>1854.8</ele>
        <time>2026-06-27T08:19:40Z</time>
      </trkpt>
      <trkpt lat="46.1254" lon="6.71906">
        <ele>1854.7</ele>
        <time>2026-06-27T08:19:41Z</time>
      </trkpt>
      <trkpt lat="46.1254" lon="6.71906">
        <ele>1854.5</ele>
        <time>2026-06-27T08:19:42Z</time>
      </trkpt>
      <trkpt lat="46.12541" lon="6.71907">
        <ele>1854.3</ele>
        <time>2026-06-27T08:19:43Z</time>
      </trkpt>
      <trkpt lat="46.12541" lon="6.71907">
        <ele>1854.2</ele>
        <time>2026-06-27T08:19:44Z</time>
      </trkpt>
      <trkpt lat="46.12542" lon="6.71906">
        <ele>1854</ele>
        <time>2026-06-27T08:19:45Z</time>
      </trkpt>
      <trkpt lat="46.12542" lon="6.71905">
        <ele>1853.8</ele>
        <time>2026-06-27T08:19:46Z</time>
      </trkpt>
      <trkpt lat="46.12542" lon="6.71904">
        <ele>1853.7</ele>
        <time>2026-06-27T08:19:47Z</time>
      </trkpt>
      <trkpt lat="46.12543" lon="6.71904">
        <ele>1853.6</ele>
        <time>2026-06-27T08:19:48Z</time>
      </trkpt>
      <trkpt lat="46.12543" lon="6.71904">
        <ele>1853.5</ele>
        <time>2026-06-27T08:19:49Z</time>
      </trkpt>
      <trkpt lat="46.12544" lon="6.71903">
        <ele>1853.4</ele>
        <time>2026-06-27T08:19:50Z</time>
      </trkpt>
      <trkpt lat="46.12544" lon="6.71903">
        <ele>1853.3</ele>
        <time>2026-06-27T08:19:51Z</time>
      </trkpt>
      <trkpt lat="46.12544" lon="6.71903">
        <ele>1853.1</ele>
        <time>2026-06-27T08:19:52Z</time>
      </trkpt>
      <trkpt lat="46.12544" lon="6.71902">
        <ele>1852.9</ele>
        <time>2026-06-27T08:19:53Z</time>
      </trkpt>
      <trkpt lat="46.12544" lon="6.71902">
        <ele>1852.7</ele>
        <time>2026-06-27T08:19:54Z</time>
      </trkpt>
      <trkpt lat="46.12544" lon="6.71902">
        <ele>1852.6</ele>
        <time>2026-06-27T08:19:55Z</time>
      </trkpt>
      <trkpt lat="46.12544" lon="6.71902">
        <ele>1852.5</ele>
        <time>2026-06-27T08:19:56Z</time>
      </trkpt>
      <trkpt lat="46.12544" lon="6.71902">
        <ele>1852.4</ele>
        <time>2026-06-27T08:19:57Z</time>
      </trkpt>
      <trkpt lat="46.12545" lon="6.71901">
        <ele>1852.4</ele>
        <time>2026-06-27T08:19:58Z</time>
      </trkpt>
      <trkpt lat="46.12545" lon="6.71901">
        <ele>1852.3</ele>
        <time>2026-06-27T08:19:59Z</time>
      </trkpt>
      <trkpt lat="46.12545" lon="6.71901">
        <ele>1852.3</ele>
        <time>2026-06-27T08:20:00Z</time>
      </trkpt>
      <trkpt lat="46.12545" lon="6.71901">
        <ele>1852.2</ele>
        <time>2026-06-27T08:20:01Z</time>
      </trkpt>
      <trkpt lat="46.12546" lon="6.719">
        <ele>1852.2</ele>
        <time>2026-06-27T08:20:02Z</time>
      </trkpt>
      <trkpt lat="46.12546" lon="6.719">
        <ele>1852.2</ele>
        <time>2026-06-27T08:20:03Z</time>
      </trkpt>
      <trkpt lat="46.12546" lon="6.719">
        <ele>1852.1</ele>
        <time>2026-06-27T08:20:04Z</time>
      </trkpt>
      <trkpt lat="46.12546" lon="6.719">
        <ele>1852</ele>
        <time>2026-06-27T08:20:05Z</time>
      </trkpt>
      <trkpt lat="46.12546" lon="6.719">
        <ele>1851.9</ele>
        <time>2026-06-27T08:20:06Z</time>
      </trkpt>
      <trkpt lat="46.12546" lon="6.71899">
        <ele>1851.9</ele>
        <time>2026-06-27T08:20:07Z</time>
      </trkpt>
      <trkpt lat="46.12546" lon="6.71898">
        <ele>1851.9</ele>
        <time>2026-06-27T08:20:08Z</time>
      </trkpt>
      <trkpt lat="46.12547" lon="6.71898">
        <ele>1851.8</ele>
        <time>2026-06-27T08:20:09Z</time>
      </trkpt>
      <trkpt lat="46.12547" lon="6.71898">
        <ele>1851.9</ele>
        <time>2026-06-27T08:20:10Z</time>
      </trkpt>
      <trkpt lat="46.12547" lon="6.71898">
        <ele>1851.8</ele>
        <time>2026-06-27T08:20:11Z</time>
      </trkpt>
      <trkpt lat="46.12547" lon="6.71899">
        <ele>1851.7</ele>
        <time>2026-06-27T08:20:12Z</time>
      </trkpt>
      <trkpt lat="46.12547" lon="6.71899">
        <ele>1851.5</ele>
        <time>2026-06-27T08:20:13Z</time>
      </trkpt>
      <trkpt lat="46.12547" lon="6.71899">
        <ele>1851.4</ele>
        <time>2026-06-27T08:20:14Z</time>
      </trkpt>
      <trkpt lat="46.12548" lon="6.71899">
        <ele>1851.3</ele>
        <time>2026-06-27T08:20:15Z</time>
      </trkpt>
      <trkpt lat="46.12548" lon="6.71899">
        <ele>1851.2</ele>
        <time>2026-06-27T08:20:16Z</time>
      </trkpt>
      <trkpt lat="46.12548" lon="6.719">
        <ele>1851</ele>
        <time>2026-06-27T08:20:17Z</time>
      </trkpt>
      <trkpt lat="46.12548" lon="6.71902">
        <ele>1850.8</ele>
        <time>2026-06-27T08:20:18Z</time>
      </trkpt>
      <trkpt lat="46.12549" lon="6.71903">
        <ele>1850.6</ele>
        <time>2026-06-27T08:20:19Z</time>
      </trkpt>
      <trkpt lat="46.12549" lon="6.71904">
        <ele>1850.4</ele>
        <time>2026-06-27T08:20:20Z</time>
      </trkpt>
      <trkpt lat="46.12549" lon="6.71904">
        <ele>1850.2</ele>
        <time>2026-06-27T08:20:21Z</time>
      </trkpt>
      <trkpt lat="46.1255" lon="6.71904">
        <ele>1850.1</ele>
        <time>2026-06-27T08:20:22Z</time>
      </trkpt>
      <trkpt lat="46.1255" lon="6.71904">
        <ele>1850</ele>
        <time>2026-06-27T08:20:23Z</time>
      </trkpt>
      <trkpt lat="46.1255" lon="6.71904">
        <ele>1849.8</ele>
        <time>2026-06-27T08:20:24Z</time>
      </trkpt>
      <trkpt lat="46.12551" lon="6.71905">
        <ele>1849.6</ele>
        <time>2026-06-27T08:20:25Z</time>
      </trkpt>
      <trkpt lat="46.12551" lon="6.71905">
        <ele>1849.4</ele>
        <time>2026-06-27T08:20:26Z</time>
      </trkpt>
      <trkpt lat="46.12552" lon="6.71905">
        <ele>1849.3</ele>
        <time>2026-06-27T08:20:27Z</time>
      </trkpt>
      <trkpt lat="46.12552" lon="6.71905">
        <ele>1849</ele>
        <time>2026-06-27T08:20:28Z</time>
      </trkpt>
      <trkpt lat="46.12553" lon="6.71904">
        <ele>1848.7</ele>
        <time>2026-06-27T08:20:29Z</time>
      </trkpt>
      <trkpt lat="46.12553" lon="6.71904">
        <ele>1848.4</ele>
        <time>2026-06-27T08:20:30Z</time>
      </trkpt>
      <trkpt lat="46.12553" lon="6.71904">
        <ele>1848.3</ele>
        <time>2026-06-27T08:20:31Z</time>
      </trkpt>
      <trkpt lat="46.12553" lon="6.71903">
        <ele>1848.2</ele>
        <time>2026-06-27T08:20:32Z</time>
      </trkpt>
      <trkpt lat="46.12553" lon="6.71904">
        <ele>1848</ele>
        <time>2026-06-27T08:20:33Z</time>
      </trkpt>
      <trkpt lat="46.12554" lon="6.71904">
        <ele>1847.8</ele>
        <time>2026-06-27T08:20:34Z</time>
      </trkpt>
      <trkpt lat="46.12554" lon="6.71904">
        <ele>1847.5</ele>
        <time>2026-06-27T08:20:35Z</time>
      </trkpt>
      <trkpt lat="46.12554" lon="6.71905">
        <ele>1847.3</ele>
        <time>2026-06-27T08:20:36Z</time>
      </trkpt>
      <trkpt lat="46.12554" lon="6.71905">
        <ele>1847.2</ele>
        <time>2026-06-27T08:20:37Z</time>
      </trkpt>
      <trkpt lat="46.12554" lon="6.71905">
        <ele>1847</ele>
        <time>2026-06-27T08:20:38Z</time>
      </trkpt>
      <trkpt lat="46.12555" lon="6.71906">
        <ele>1846.8</ele>
        <time>2026-06-27T08:20:39Z</time>
      </trkpt>
      <trkpt lat="46.12555" lon="6.71906">
        <ele>1846.6</ele>
        <time>2026-06-27T08:20:40Z</time>
      </trkpt>
      <trkpt lat="46.12556" lon="6.71906">
        <ele>1846.6</ele>
        <time>2026-06-27T08:20:41Z</time>
      </trkpt>
      <trkpt lat="46.12556" lon="6.71905">
        <ele>1846.6</ele>
        <time>2026-06-27T08:20:42Z</time>
      </trkpt>
      <trkpt lat="46.12557" lon="6.71906">
        <ele>1846.4</ele>
        <time>2026-06-27T08:20:43Z</time>
      </trkpt>
      <trkpt lat="46.12557" lon="6.71905">
        <ele>1846.2</ele>
        <time>2026-06-27T08:20:44Z</time>
      </trkpt>
      <trkpt lat="46.12557" lon="6.71905">
        <ele>1846</ele>
        <time>2026-06-27T08:20:45Z</time>
      </trkpt>
      <trkpt lat="46.12557" lon="6.71905">
        <ele>1845.9</ele>
        <time>2026-06-27T08:20:46Z</time>
      </trkpt>
      <trkpt lat="46.12557" lon="6.71905">
        <ele>1845.8</ele>
        <time>2026-06-27T08:20:47Z</time>
      </trkpt>
      <trkpt lat="46.12557" lon="6.71905">
        <ele>1845.6</ele>
        <time>2026-06-27T08:20:48Z</time>
      </trkpt>
      <trkpt lat="46.12558" lon="6.71906">
        <ele>1845.4</ele>
        <time>2026-06-27T08:20:49Z</time>
      </trkpt>
      <trkpt lat="46.12558" lon="6.71906">
        <ele>1845.3</ele>
        <time>2026-06-27T08:20:50Z</time>
      </trkpt>
      <trkpt lat="46.12558" lon="6.71906">
        <ele>1845.2</ele>
        <time>2026-06-27T08:20:51Z</time>
      </trkpt>
      <trkpt lat="46.12558" lon="6.71906">
        <ele>1845.1</ele>
        <time>2026-06-27T08:20:52Z</time>
      </trkpt>
      <trkpt lat="46.12559" lon="6.71907">
        <ele>1844.9</ele>
        <time>2026-06-27T08:20:53Z</time>
      </trkpt>
      <trkpt lat="46.12559" lon="6.71907">
        <ele>1844.8</ele>
        <time>2026-06-27T08:20:54Z</time>
      </trkpt>
      <trkpt lat="46.12559" lon="6.71908">
        <ele>1844.6</ele>
        <time>2026-06-27T08:20:55Z</time>
      </trkpt>
      <trkpt lat="46.12559" lon="6.71908">
        <ele>1844.3</ele>
        <time>2026-06-27T08:20:56Z</time>
      </trkpt>
      <trkpt lat="46.12559" lon="6.71908">
        <ele>1844.1</ele>
        <time>2026-06-27T08:20:57Z</time>
      </trkpt>
      <trkpt lat="46.12559" lon="6.71908">
        <ele>1843.9</ele>
        <time>2026-06-27T08:20:58Z</time>
      </trkpt>
      <trkpt lat="46.12559" lon="6.71909">
        <ele>1843.8</ele>
        <time>2026-06-27T08:20:59Z</time>
      </trkpt>
      <trkpt lat="46.1256" lon="6.71909">
        <ele>1843.7</ele>
        <time>2026-06-27T08:21:00Z</time>
      </trkpt>
      <trkpt lat="46.12561" lon="6.71909">
        <ele>1843.6</ele>
        <time>2026-06-27T08:21:01Z</time>
      </trkpt>
      <trkpt lat="46.12561" lon="6.71909">
        <ele>1843.3</ele>
        <time>2026-06-27T08:21:02Z</time>
      </trkpt>
      <trkpt lat="46.12562" lon="6.71908">
        <ele>1843.1</ele>
        <time>2026-06-27T08:21:03Z</time>
      </trkpt>
      <trkpt lat="46.12562" lon="6.71908">
        <ele>1842.9</ele>
        <time>2026-06-27T08:21:04Z</time>
      </trkpt>
      <trkpt lat="46.12562" lon="6.71908">
        <ele>1842.8</ele>
        <time>2026-06-27T08:21:05Z</time>
      </trkpt>
      <trkpt lat="46.12563" lon="6.71908">
        <ele>1842.7</ele>
        <time>2026-06-27T08:21:06Z</time>
      </trkpt>
      <trkpt lat="46.12563" lon="6.71908">
        <ele>1842.5</ele>
        <time>2026-06-27T08:21:07Z</time>
      </trkpt>
      <trkpt lat="46.12563" lon="6.71907">
        <ele>1842.4</ele>
        <time>2026-06-27T08:21:08Z</time>
      </trkpt>
      <trkpt lat="46.12563" lon="6.71907">
        <ele>1842.3</ele>
        <time>2026-06-27T08:21:09Z</time>
      </trkpt>
      <trkpt lat="46.12563" lon="6.71907">
        <ele>1842.2</ele>
        <time>2026-06-27T08:21:10Z</time>
      </trkpt>
      <trkpt lat="46.12564" lon="6.71907">
        <ele>1842.1</ele>
        <time>2026-06-27T08:21:11Z</time>
      </trkpt>
      <trkpt lat="46.12564" lon="6.71906">
        <ele>1842.1</ele>
        <time>2026-06-27T08:21:12Z</time>
      </trkpt>
      <trkpt lat="46.12564" lon="6.71906">
        <ele>1841.9</ele>
        <time>2026-06-27T08:21:13Z</time>
      </trkpt>
      <trkpt lat="46.12565" lon="6.71906">
        <ele>1841.7</ele>
        <time>2026-06-27T08:21:14Z</time>
      </trkpt>
      <trkpt lat="46.12565" lon="6.71905">
        <ele>1841.5</ele>
        <time>2026-06-27T08:21:15Z</time>
      </trkpt>
      <trkpt lat="46.12565" lon="6.71905">
        <ele>1841.3</ele>
        <time>2026-06-27T08:21:16Z</time>
      </trkpt>
      <trkpt lat="46.12565" lon="6.71905">
        <ele>1841.2</ele>
        <time>2026-06-27T08:21:17Z</time>
      </trkpt>
      <trkpt lat="46.12566" lon="6.71905">
        <ele>1841</ele>
        <time>2026-06-27T08:21:18Z</time>
      </trkpt>
      <trkpt lat="46.12566" lon="6.71906">
        <ele>1840.9</ele>
        <time>2026-06-27T08:21:19Z</time>
      </trkpt>
      <trkpt lat="46.12566" lon="6.71906">
        <ele>1840.8</ele>
        <time>2026-06-27T08:21:20Z</time>
      </trkpt>
      <trkpt lat="46.12567" lon="6.71906">
        <ele>1840.6</ele>
        <time>2026-06-27T08:21:21Z</time>
      </trkpt>
      <trkpt lat="46.12567" lon="6.71907">
        <ele>1840.5</ele>
        <time>2026-06-27T08:21:22Z</time>
      </trkpt>
      <trkpt lat="46.12567" lon="6.71907">
        <ele>1840.4</ele>
        <time>2026-06-27T08:21:23Z</time>
      </trkpt>
      <trkpt lat="46.12567" lon="6.71908">
        <ele>1840</ele>
        <time>2026-06-27T08:21:24Z</time>
      </trkpt>
      <trkpt lat="46.12567" lon="6.71909">
        <ele>1839.7</ele>
        <time>2026-06-27T08:21:25Z</time>
      </trkpt>
      <trkpt lat="46.12567" lon="6.7191">
        <ele>1839.4</ele>
        <time>2026-06-27T08:21:26Z</time>
      </trkpt>
      <trkpt lat="46.12567" lon="6.71911">
        <ele>1839.2</ele>
        <time>2026-06-27T08:21:27Z</time>
      </trkpt>
      <trkpt lat="46.12567" lon="6.71912">
        <ele>1839.1</ele>
        <time>2026-06-27T08:21:28Z</time>
      </trkpt>
      <trkpt lat="46.12567" lon="6.71912">
        <ele>1838.9</ele>
        <time>2026-06-27T08:21:29Z</time>
      </trkpt>
      <trkpt lat="46.12567" lon="6.71912">
        <ele>1838.8</ele>
        <time>2026-06-27T08:21:30Z</time>
      </trkpt>
      <trkpt lat="46.12567" lon="6.71912">
        <ele>1838.7</ele>
        <time>2026-06-27T08:21:31Z</time>
      </trkpt>
      <trkpt lat="46.12567" lon="6.71912">
        <ele>1838.7</ele>
        <time>2026-06-27T08:21:32Z</time>
      </trkpt>
      <trkpt lat="46.12567" lon="6.71912">
        <ele>1838.6</ele>
        <time>2026-06-27T08:21:33Z</time>
      </trkpt>
      <trkpt lat="46.12567" lon="6.71912">
        <ele>1838.6</ele>
        <time>2026-06-27T08:21:34Z</time>
      </trkpt>
      <trkpt lat="46.12567" lon="6.71913">
        <ele>1838.5</ele>
        <time>2026-06-27T08:21:35Z</time>
      </trkpt>
      <trkpt lat="46.12567" lon="6.71913">
        <ele>1838.4</ele>
        <time>2026-06-27T08:21:36Z</time>
      </trkpt>
      <trkpt lat="46.12568" lon="6.71912">
        <ele>1838.3</ele>
        <time>2026-06-27T08:21:37Z</time>
      </trkpt>
      <trkpt lat="46.12568" lon="6.71912">
        <ele>1838.2</ele>
        <time>2026-06-27T08:21:38Z</time>
      </trkpt>
      <trkpt lat="46.12569" lon="6.71912">
        <ele>1838.1</ele>
        <time>2026-06-27T08:21:39Z</time>
      </trkpt>
      <trkpt lat="46.1257" lon="6.71912">
        <ele>1837.9</ele>
        <time>2026-06-27T08:21:40Z</time>
      </trkpt>
      <trkpt lat="46.1257" lon="6.71912">
        <ele>1837.7</ele>
        <time>2026-06-27T08:21:41Z</time>
      </trkpt>
      <trkpt lat="46.1257" lon="6.71912">
        <ele>1837.5</ele>
        <time>2026-06-27T08:21:42Z</time>
      </trkpt>
      <trkpt lat="46.1257" lon="6.71913">
        <ele>1837.4</ele>
        <time>2026-06-27T08:21:43Z</time>
      </trkpt>
      <trkpt lat="46.12571" lon="6.71913">
        <ele>1837.1</ele>
        <time>2026-06-27T08:21:44Z</time>
      </trkpt>
      <trkpt lat="46.12571" lon="6.71914">
        <ele>1836.9</ele>
        <time>2026-06-27T08:21:45Z</time>
      </trkpt>
      <trkpt lat="46.12571" lon="6.71915">
        <ele>1836.6</ele>
        <time>2026-06-27T08:21:46Z</time>
      </trkpt>
      <trkpt lat="46.12572" lon="6.71915">
        <ele>1836.2</ele>
        <time>2026-06-27T08:21:47Z</time>
      </trkpt>
      <trkpt lat="46.12572" lon="6.71916">
        <ele>1836.1</ele>
        <time>2026-06-27T08:21:48Z</time>
      </trkpt>
      <trkpt lat="46.12572" lon="6.71916">
        <ele>1836</ele>
        <time>2026-06-27T08:21:49Z</time>
      </trkpt>
      <trkpt lat="46.12572" lon="6.71916">
        <ele>1835.9</ele>
        <time>2026-06-27T08:21:50Z</time>
      </trkpt>
      <trkpt lat="46.12572" lon="6.71917">
        <ele>1835.8</ele>
        <time>2026-06-27T08:21:51Z</time>
      </trkpt>
      <trkpt lat="46.12572" lon="6.71917">
        <ele>1835.6</ele>
        <time>2026-06-27T08:21:52Z</time>
      </trkpt>
      <trkpt lat="46.12572" lon="6.71918">
        <ele>1835.5</ele>
        <time>2026-06-27T08:21:53Z</time>
      </trkpt>
      <trkpt lat="46.12573" lon="6.71918">
        <ele>1835.4</ele>
        <time>2026-06-27T08:21:54Z</time>
      </trkpt>
      <trkpt lat="46.12573" lon="6.71918">
        <ele>1835.2</ele>
        <time>2026-06-27T08:21:55Z</time>
      </trkpt>
      <trkpt lat="46.12574" lon="6.71918">
        <ele>1835.1</ele>
        <time>2026-06-27T08:21:56Z</time>
      </trkpt>
      <trkpt lat="46.12574" lon="6.71919">
        <ele>1834.9</ele>
        <time>2026-06-27T08:21:57Z</time>
      </trkpt>
      <trkpt lat="46.12574" lon="6.71919">
        <ele>1834.8</ele>
        <time>2026-06-27T08:21:58Z</time>
      </trkpt>
      <trkpt lat="46.12575" lon="6.7192">
        <ele>1834.6</ele>
        <time>2026-06-27T08:21:59Z</time>
      </trkpt>
      <trkpt lat="46.12575" lon="6.7192">
        <ele>1834.4</ele>
        <time>2026-06-27T08:22:00Z</time>
      </trkpt>
      <trkpt lat="46.12575" lon="6.7192">
        <ele>1834.2</ele>
        <time>2026-06-27T08:22:01Z</time>
      </trkpt>
      <trkpt lat="46.12576" lon="6.71919">
        <ele>1833.9</ele>
        <time>2026-06-27T08:22:02Z</time>
      </trkpt>
      <trkpt lat="46.12576" lon="6.71919">
        <ele>1833.6</ele>
        <time>2026-06-27T08:22:03Z</time>
      </trkpt>
      <trkpt lat="46.12577" lon="6.7192">
        <ele>1833.5</ele>
        <time>2026-06-27T08:22:04Z</time>
      </trkpt>
      <trkpt lat="46.12577" lon="6.71921">
        <ele>1833.2</ele>
        <time>2026-06-27T08:22:05Z</time>
      </trkpt>
      <trkpt lat="46.12577" lon="6.71921">
        <ele>1833</ele>
        <time>2026-06-27T08:22:06Z</time>
      </trkpt>
      <trkpt lat="46.12578" lon="6.71922">
        <ele>1832.7</ele>
        <time>2026-06-27T08:22:07Z</time>
      </trkpt>
      <trkpt lat="46.12578" lon="6.71922">
        <ele>1832.6</ele>
        <time>2026-06-27T08:22:08Z</time>
      </trkpt>
      <trkpt lat="46.12578" lon="6.71922">
        <ele>1832.3</ele>
        <time>2026-06-27T08:22:09Z</time>
      </trkpt>
      <trkpt lat="46.12579" lon="6.71922">
        <ele>1832.1</ele>
        <time>2026-06-27T08:22:10Z</time>
      </trkpt>
      <trkpt lat="46.12579" lon="6.71922">
        <ele>1831.8</ele>
        <time>2026-06-27T08:22:11Z</time>
      </trkpt>
      <trkpt lat="46.1258" lon="6.71922">
        <ele>1831.6</ele>
        <time>2026-06-27T08:22:12Z</time>
      </trkpt>
      <trkpt lat="46.1258" lon="6.71922">
        <ele>1831.4</ele>
        <time>2026-06-27T08:22:13Z</time>
      </trkpt>
      <trkpt lat="46.1258" lon="6.71922">
        <ele>1831.2</ele>
        <time>2026-06-27T08:22:14Z</time>
      </trkpt>
      <trkpt lat="46.12581" lon="6.71923">
        <ele>1831.1</ele>
        <time>2026-06-27T08:22:15Z</time>
      </trkpt>
      <trkpt lat="46.12581" lon="6.71924">
        <ele>1830.8</ele>
        <time>2026-06-27T08:22:16Z</time>
      </trkpt>
      <trkpt lat="46.12581" lon="6.71924">
        <ele>1830.6</ele>
        <time>2026-06-27T08:22:17Z</time>
      </trkpt>
      <trkpt lat="46.12582" lon="6.71924">
        <ele>1830.5</ele>
        <time>2026-06-27T08:22:18Z</time>
      </trkpt>
      <trkpt lat="46.12582" lon="6.71924">
        <ele>1830.3</ele>
        <time>2026-06-27T08:22:19Z</time>
      </trkpt>
      <trkpt lat="46.12583" lon="6.71924">
        <ele>1830.1</ele>
        <time>2026-06-27T08:22:20Z</time>
      </trkpt>
      <trkpt lat="46.12583" lon="6.71923">
        <ele>1829.8</ele>
        <time>2026-06-27T08:22:21Z</time>
      </trkpt>
      <trkpt lat="46.12583" lon="6.71923">
        <ele>1829.7</ele>
        <time>2026-06-27T08:22:22Z</time>
      </trkpt>
      <trkpt lat="46.12583" lon="6.71923">
        <ele>1829.5</ele>
        <time>2026-06-27T08:22:23Z</time>
      </trkpt>
      <trkpt lat="46.12584" lon="6.71923">
        <ele>1829.3</ele>
        <time>2026-06-27T08:22:24Z</time>
      </trkpt>
      <trkpt lat="46.12584" lon="6.71923">
        <ele>1829</ele>
        <time>2026-06-27T08:22:25Z</time>
      </trkpt>
      <trkpt lat="46.12584" lon="6.71924">
        <ele>1828.8</ele>
        <time>2026-06-27T08:22:26Z</time>
      </trkpt>
      <trkpt lat="46.12584" lon="6.71925">
        <ele>1828.7</ele>
        <time>2026-06-27T08:22:27Z</time>
      </trkpt>
      <trkpt lat="46.12584" lon="6.71926">
        <ele>1828.5</ele>
        <time>2026-06-27T08:22:28Z</time>
      </trkpt>
      <trkpt lat="46.12585" lon="6.71927">
        <ele>1828.4</ele>
        <time>2026-06-27T08:22:29Z</time>
      </trkpt>
      <trkpt lat="46.12585" lon="6.71927">
        <ele>1828.2</ele>
        <time>2026-06-27T08:22:30Z</time>
      </trkpt>
      <trkpt lat="46.12585" lon="6.71927">
        <ele>1828.1</ele>
        <time>2026-06-27T08:22:31Z</time>
      </trkpt>
      <trkpt lat="46.12585" lon="6.71927">
        <ele>1828</ele>
        <time>2026-06-27T08:22:32Z</time>
      </trkpt>
      <trkpt lat="46.12585" lon="6.71927">
        <ele>1827.9</ele>
        <time>2026-06-27T08:22:33Z</time>
      </trkpt>
      <trkpt lat="46.12585" lon="6.71927">
        <ele>1827.8</ele>
        <time>2026-06-27T08:22:34Z</time>
      </trkpt>
      <trkpt lat="46.12585" lon="6.71927">
        <ele>1827.7</ele>
        <time>2026-06-27T08:22:35Z</time>
      </trkpt>
      <trkpt lat="46.12586" lon="6.71927">
        <ele>1827.7</ele>
        <time>2026-06-27T08:22:36Z</time>
      </trkpt>
      <trkpt lat="46.12586" lon="6.71926">
        <ele>1827.7</ele>
        <time>2026-06-27T08:22:37Z</time>
      </trkpt>
      <trkpt lat="46.12585" lon="6.71926">
        <ele>1827.7</ele>
        <time>2026-06-27T08:22:38Z</time>
      </trkpt>
      <trkpt lat="46.12586" lon="6.71926">
        <ele>1827.6</ele>
        <time>2026-06-27T08:22:39Z</time>
      </trkpt>
      <trkpt lat="46.12586" lon="6.71926">
        <ele>1827.6</ele>
        <time>2026-06-27T08:22:40Z</time>
      </trkpt>
      <trkpt lat="46.12586" lon="6.71925">
        <ele>1827.4</ele>
        <time>2026-06-27T08:22:41Z</time>
      </trkpt>
      <trkpt lat="46.12586" lon="6.71925">
        <ele>1827.3</ele>
        <time>2026-06-27T08:22:42Z</time>
      </trkpt>
      <trkpt lat="46.12587" lon="6.71925">
        <ele>1827.2</ele>
        <time>2026-06-27T08:22:43Z</time>
      </trkpt>
      <trkpt lat="46.12587" lon="6.71924">
        <ele>1827</ele>
        <time>2026-06-27T08:22:44Z</time>
      </trkpt>
      <trkpt lat="46.12588" lon="6.71924">
        <ele>1826.9</ele>
        <time>2026-06-27T08:22:45Z</time>
      </trkpt>
      <trkpt lat="46.12588" lon="6.71924">
        <ele>1826.7</ele>
        <time>2026-06-27T08:22:46Z</time>
      </trkpt>
      <trkpt lat="46.12588" lon="6.71924">
        <ele>1826.5</ele>
        <time>2026-06-27T08:22:47Z</time>
      </trkpt>
      <trkpt lat="46.12588" lon="6.71925">
        <ele>1826.3</ele>
        <time>2026-06-27T08:22:48Z</time>
      </trkpt>
      <trkpt lat="46.12589" lon="6.71924">
        <ele>1826.1</ele>
        <time>2026-06-27T08:22:49Z</time>
      </trkpt>
      <trkpt lat="46.12589" lon="6.71924">
        <ele>1826</ele>
        <time>2026-06-27T08:22:50Z</time>
      </trkpt>
      <trkpt lat="46.12589" lon="6.71925">
        <ele>1825.8</ele>
        <time>2026-06-27T08:22:51Z</time>
      </trkpt>
      <trkpt lat="46.1259" lon="6.71925">
        <ele>1825.6</ele>
        <time>2026-06-27T08:22:52Z</time>
      </trkpt>
      <trkpt lat="46.12591" lon="6.71926">
        <ele>1825.4</ele>
        <time>2026-06-27T08:22:53Z</time>
      </trkpt>
      <trkpt lat="46.12591" lon="6.71926">
        <ele>1825.2</ele>
        <time>2026-06-27T08:22:54Z</time>
      </trkpt>
      <trkpt lat="46.12591" lon="6.71927">
        <ele>1825</ele>
        <time>2026-06-27T08:22:55Z</time>
      </trkpt>
      <trkpt lat="46.12591" lon="6.71927">
        <ele>1824.8</ele>
        <time>2026-06-27T08:22:56Z</time>
      </trkpt>
      <trkpt lat="46.12591" lon="6.71927">
        <ele>1824.7</ele>
        <time>2026-06-27T08:22:57Z</time>
      </trkpt>
      <trkpt lat="46.12591" lon="6.71927">
        <ele>1824.7</ele>
        <time>2026-06-27T08:22:58Z</time>
      </trkpt>
      <trkpt lat="46.12591" lon="6.71928">
        <ele>1824.5</ele>
        <time>2026-06-27T08:22:59Z</time>
      </trkpt>
      <trkpt lat="46.12591" lon="6.71928">
        <ele>1824.3</ele>
        <time>2026-06-27T08:23:00Z</time>
      </trkpt>
      <trkpt lat="46.12591" lon="6.71928">
        <ele>1824.1</ele>
        <time>2026-06-27T08:23:01Z</time>
      </trkpt>
      <trkpt lat="46.12592" lon="6.71928">
        <ele>1824</ele>
        <time>2026-06-27T08:23:02Z</time>
      </trkpt>
      <trkpt lat="46.12593" lon="6.71929">
        <ele>1823.8</ele>
        <time>2026-06-27T08:23:03Z</time>
      </trkpt>
      <trkpt lat="46.12593" lon="6.71929">
        <ele>1823.8</ele>
        <time>2026-06-27T08:23:04Z</time>
      </trkpt>
      <trkpt lat="46.12594" lon="6.71929">
        <ele>1823.6</ele>
        <time>2026-06-27T08:23:05Z</time>
      </trkpt>
      <trkpt lat="46.12594" lon="6.71929">
        <ele>1823.4</ele>
        <time>2026-06-27T08:23:06Z</time>
      </trkpt>
      <trkpt lat="46.12595" lon="6.71929">
        <ele>1823.2</ele>
        <time>2026-06-27T08:23:07Z</time>
      </trkpt>
      <trkpt lat="46.12595" lon="6.71929">
        <ele>1823</ele>
        <time>2026-06-27T08:23:08Z</time>
      </trkpt>
      <trkpt lat="46.12595" lon="6.71929">
        <ele>1822.8</ele>
        <time>2026-06-27T08:23:09Z</time>
      </trkpt>
      <trkpt lat="46.12596" lon="6.71929">
        <ele>1822.6</ele>
        <time>2026-06-27T08:23:10Z</time>
      </trkpt>
      <trkpt lat="46.12596" lon="6.71929">
        <ele>1822.4</ele>
        <time>2026-06-27T08:23:11Z</time>
      </trkpt>
      <trkpt lat="46.12596" lon="6.71929">
        <ele>1822.2</ele>
        <time>2026-06-27T08:23:12Z</time>
      </trkpt>
      <trkpt lat="46.12597" lon="6.71928">
        <ele>1822</ele>
        <time>2026-06-27T08:23:13Z</time>
      </trkpt>
      <trkpt lat="46.12597" lon="6.71928">
        <ele>1821.7</ele>
        <time>2026-06-27T08:23:14Z</time>
      </trkpt>
      <trkpt lat="46.12598" lon="6.71927">
        <ele>1821.6</ele>
        <time>2026-06-27T08:23:15Z</time>
      </trkpt>
      <trkpt lat="46.12599" lon="6.71927">
        <ele>1821.4</ele>
        <time>2026-06-27T08:23:16Z</time>
      </trkpt>
      <trkpt lat="46.126" lon="6.71927">
        <ele>1821.2</ele>
        <time>2026-06-27T08:23:17Z</time>
      </trkpt>
      <trkpt lat="46.126" lon="6.71926">
        <ele>1821</ele>
        <time>2026-06-27T08:23:18Z</time>
      </trkpt>
      <trkpt lat="46.12601" lon="6.71926">
        <ele>1820.7</ele>
        <time>2026-06-27T08:23:19Z</time>
      </trkpt>
      <trkpt lat="46.12602" lon="6.71926">
        <ele>1820.5</ele>
        <time>2026-06-27T08:23:20Z</time>
      </trkpt>
      <trkpt lat="46.12602" lon="6.71926">
        <ele>1820.2</ele>
        <time>2026-06-27T08:23:21Z</time>
      </trkpt>
      <trkpt lat="46.12602" lon="6.71927">
        <ele>1819.9</ele>
        <time>2026-06-27T08:23:22Z</time>
      </trkpt>
      <trkpt lat="46.12602" lon="6.71927">
        <ele>1819.7</ele>
        <time>2026-06-27T08:23:23Z</time>
      </trkpt>
      <trkpt lat="46.12602" lon="6.71927">
        <ele>1819.5</ele>
        <time>2026-06-27T08:23:24Z</time>
      </trkpt>
      <trkpt lat="46.12603" lon="6.71927">
        <ele>1819.3</ele>
        <time>2026-06-27T08:23:25Z</time>
      </trkpt>
      <trkpt lat="46.12603" lon="6.71927">
        <ele>1819.2</ele>
        <time>2026-06-27T08:23:26Z</time>
      </trkpt>
      <trkpt lat="46.12603" lon="6.71927">
        <ele>1819</ele>
        <time>2026-06-27T08:23:27Z</time>
      </trkpt>
      <trkpt lat="46.12604" lon="6.71927">
        <ele>1818.9</ele>
        <time>2026-06-27T08:23:28Z</time>
      </trkpt>
      <trkpt lat="46.12603" lon="6.71927">
        <ele>1818.8</ele>
        <time>2026-06-27T08:23:29Z</time>
      </trkpt>
      <trkpt lat="46.12603" lon="6.71927">
        <ele>1818.6</ele>
        <time>2026-06-27T08:23:30Z</time>
      </trkpt>
      <trkpt lat="46.12603" lon="6.71927">
        <ele>1818.5</ele>
        <time>2026-06-27T08:23:31Z</time>
      </trkpt>
      <trkpt lat="46.12603" lon="6.71927">
        <ele>1818.4</ele>
        <time>2026-06-27T08:23:32Z</time>
      </trkpt>
      <trkpt lat="46.12603" lon="6.71927">
        <ele>1818.3</ele>
        <time>2026-06-27T08:23:33Z</time>
      </trkpt>
      <trkpt lat="46.12603" lon="6.71927">
        <ele>1818.3</ele>
        <time>2026-06-27T08:23:34Z</time>
      </trkpt>
      <trkpt lat="46.12603" lon="6.71927">
        <ele>1818.3</ele>
        <time>2026-06-27T08:23:35Z</time>
      </trkpt>
      <trkpt lat="46.12603" lon="6.71927">
        <ele>1818.2</ele>
        <time>2026-06-27T08:23:36Z</time>
      </trkpt>
      <trkpt lat="46.12603" lon="6.71927">
        <ele>1818.2</ele>
        <time>2026-06-27T08:23:37Z</time>
      </trkpt>
      <trkpt lat="46.12603" lon="6.71927">
        <ele>1818.2</ele>
        <time>2026-06-27T08:23:38Z</time>
      </trkpt>
      <trkpt lat="46.12603" lon="6.71927">
        <ele>1818.3</ele>
        <time>2026-06-27T08:23:39Z</time>
      </trkpt>
      <trkpt lat="46.12603" lon="6.71927">
        <ele>1818.3</ele>
        <time>2026-06-27T08:23:40Z</time>
      </trkpt>
      <trkpt lat="46.12603" lon="6.71926">
        <ele>1818.4</ele>
        <time>2026-06-27T08:23:41Z</time>
      </trkpt>
      <trkpt lat="46.12603" lon="6.71927">
        <ele>1818.3</ele>
        <time>2026-06-27T08:23:42Z</time>
      </trkpt>
      <trkpt lat="46.12603" lon="6.71927">
        <ele>1818.3</ele>
        <time>2026-06-27T08:23:43Z</time>
      </trkpt>
      <trkpt lat="46.12603" lon="6.71927">
        <ele>1818.2</ele>
        <time>2026-06-27T08:23:44Z</time>
      </trkpt>
      <trkpt lat="46.12603" lon="6.71927">
        <ele>1818.2</ele>
        <time>2026-06-27T08:23:45Z</time>
      </trkpt>
      <trkpt lat="46.12603" lon="6.71927">
        <ele>1818.2</ele>
        <time>2026-06-27T08:23:46Z</time>
      </trkpt>
      <trkpt lat="46.12603" lon="6.71927">
        <ele>1818.2</ele>
        <time>2026-06-27T08:23:47Z</time>
      </trkpt>
      <trkpt lat="46.12603" lon="6.71927">
        <ele>1818.2</ele>
        <time>2026-06-27T08:23:48Z</time>
      </trkpt>
      <trkpt lat="46.12603" lon="6.71927">
        <ele>1818.2</ele>
        <time>2026-06-27T08:23:49Z</time>
      </trkpt>
      <trkpt lat="46.12604" lon="6.71927">
        <ele>1818.2</ele>
        <time>2026-06-27T08:23:50Z</time>
      </trkpt>
      <trkpt lat="46.12604" lon="6.71927">
        <ele>1818.1</ele>
        <time>2026-06-27T08:23:51Z</time>
      </trkpt>
      <trkpt lat="46.12604" lon="6.71927">
        <ele>1818.1</ele>
        <time>2026-06-27T08:23:52Z</time>
      </trkpt>
      <trkpt lat="46.12604" lon="6.71927">
        <ele>1818</ele>
        <time>2026-06-27T08:23:53Z</time>
      </trkpt>
      <trkpt lat="46.12604" lon="6.71927">
        <ele>1818</ele>
        <time>2026-06-27T08:23:54Z</time>
      </trkpt>
      <trkpt lat="46.12604" lon="6.71927">
        <ele>1818.1</ele>
        <time>2026-06-27T08:23:55Z</time>
      </trkpt>
      <trkpt lat="46.12604" lon="6.71927">
        <ele>1818.2</ele>
        <time>2026-06-27T08:23:56Z</time>
      </trkpt>
      <trkpt lat="46.12604" lon="6.71927">
        <ele>1818.2</ele>
        <time>2026-06-27T08:23:57Z</time>
      </trkpt>
      <trkpt lat="46.12604" lon="6.71927">
        <ele>1818.3</ele>
        <time>2026-06-27T08:23:58Z</time>
      </trkpt>
      <trkpt lat="46.12604" lon="6.71927">
        <ele>1818.3</ele>
        <time>2026-06-27T08:23:59Z</time>
      </trkpt>
      <trkpt lat="46.12604" lon="6.71927">
        <ele>1818.3</ele>
        <time>2026-06-27T08:24:00Z</time>
      </trkpt>
      <trkpt lat="46.12604" lon="6.71927">
        <ele>1818.3</ele>
        <time>2026-06-27T08:24:01Z</time>
      </trkpt>
      <trkpt lat="46.12604" lon="6.71927">
        <ele>1818.3</ele>
        <time>2026-06-27T08:24:02Z</time>
      </trkpt>
      <trkpt lat="46.12604" lon="6.71927">
        <ele>1818.3</ele>
        <time>2026-06-27T08:24:03Z</time>
      </trkpt>
      <trkpt lat="46.12604" lon="6.71926">
        <ele>1818.4</ele>
        <time>2026-06-27T08:24:04Z</time>
      </trkpt>
      <trkpt lat="46.12604" lon="6.71926">
        <ele>1818.3</ele>
        <time>2026-06-27T08:24:05Z</time>
      </trkpt>
      <trkpt lat="46.12604" lon="6.71926">
        <ele>1818.2</ele>
        <time>2026-06-27T08:24:06Z</time>
      </trkpt>
      <trkpt lat="46.12604" lon="6.71926">
        <ele>1818.1</ele>
        <time>2026-06-27T08:24:07Z</time>
      </trkpt>
      <trkpt lat="46.12605" lon="6.71926">
        <ele>1818</ele>
        <time>2026-06-27T08:24:08Z</time>
      </trkpt>
      <trkpt lat="46.12605" lon="6.71926">
        <ele>1818</ele>
        <time>2026-06-27T08:24:09Z</time>
      </trkpt>
      <trkpt lat="46.12605" lon="6.71926">
        <ele>1818</ele>
        <time>2026-06-27T08:24:10Z</time>
      </trkpt>
      <trkpt lat="46.12604" lon="6.71926">
        <ele>1818</ele>
        <time>2026-06-27T08:24:11Z</time>
      </trkpt>
      <trkpt lat="46.12604" lon="6.71926">
        <ele>1817.9</ele>
        <time>2026-06-27T08:24:12Z</time>
      </trkpt>
      <trkpt lat="46.12604" lon="6.71927">
        <ele>1817.9</ele>
        <time>2026-06-27T08:24:13Z</time>
      </trkpt>
      <trkpt lat="46.12605" lon="6.71927">
        <ele>1818</ele>
        <time>2026-06-27T08:24:14Z</time>
      </trkpt>
      <trkpt lat="46.12605" lon="6.71927">
        <ele>1818</ele>
        <time>2026-06-27T08:24:15Z</time>
      </trkpt>
      <trkpt lat="46.12605" lon="6.71927">
        <ele>1817.9</ele>
        <time>2026-06-27T08:24:16Z</time>
      </trkpt>
      <trkpt lat="46.12605" lon="6.71927">
        <ele>1817.9</ele>
        <time>2026-06-27T08:24:17Z</time>
      </trkpt>
      <trkpt lat="46.12605" lon="6.71927">
        <ele>1817.9</ele>
        <time>2026-06-27T08:24:18Z</time>
      </trkpt>
      <trkpt lat="46.12605" lon="6.71927">
        <ele>1817.8</ele>
        <time>2026-06-27T08:24:19Z</time>
      </trkpt>
      <trkpt lat="46.12606" lon="6.71927">
        <ele>1817.8</ele>
        <time>2026-06-27T08:24:20Z</time>
      </trkpt>
      <trkpt lat="46.12606" lon="6.71927">
        <ele>1817.7</ele>
        <time>2026-06-27T08:24:21Z</time>
      </trkpt>
      <trkpt lat="46.12606" lon="6.71926">
        <ele>1817.5</ele>
        <time>2026-06-27T08:24:22Z</time>
      </trkpt>
      <trkpt lat="46.12607" lon="6.71927">
        <ele>1817.3</ele>
        <time>2026-06-27T08:24:23Z</time>
      </trkpt>
      <trkpt lat="46.12607" lon="6.71927">
        <ele>1817.2</ele>
        <time>2026-06-27T08:24:24Z</time>
      </trkpt>
      <trkpt lat="46.12608" lon="6.71927">
        <ele>1817.1</ele>
        <time>2026-06-27T08:24:25Z</time>
      </trkpt>
      <trkpt lat="46.12608" lon="6.71927">
        <ele>1816.8</ele>
        <time>2026-06-27T08:24:26Z</time>
      </trkpt>
      <trkpt lat="46.12609" lon="6.71927">
        <ele>1816.7</ele>
        <time>2026-06-27T08:24:27Z</time>
      </trkpt>
      <trkpt lat="46.1261" lon="6.71927">
        <ele>1816.5</ele>
        <time>2026-06-27T08:24:28Z</time>
      </trkpt>
      <trkpt lat="46.1261" lon="6.71928">
        <ele>1816.2</ele>
        <time>2026-06-27T08:24:29Z</time>
      </trkpt>
      <trkpt lat="46.12611" lon="6.71928">
        <ele>1816</ele>
        <time>2026-06-27T08:24:30Z</time>
      </trkpt>
      <trkpt lat="46.12611" lon="6.71928">
        <ele>1815.8</ele>
        <time>2026-06-27T08:24:31Z</time>
      </trkpt>
      <trkpt lat="46.12611" lon="6.71928">
        <ele>1815.7</ele>
        <time>2026-06-27T08:24:32Z</time>
      </trkpt>
      <trkpt lat="46.12612" lon="6.71929">
        <ele>1815.5</ele>
        <time>2026-06-27T08:24:33Z</time>
      </trkpt>
      <trkpt lat="46.12613" lon="6.71929">
        <ele>1815.4</ele>
        <time>2026-06-27T08:24:34Z</time>
      </trkpt>
      <trkpt lat="46.12614" lon="6.7193">
        <ele>1815.2</ele>
        <time>2026-06-27T08:24:35Z</time>
      </trkpt>
      <trkpt lat="46.12614" lon="6.7193">
        <ele>1815</ele>
        <time>2026-06-27T08:24:36Z</time>
      </trkpt>
      <trkpt lat="46.12615" lon="6.71931">
        <ele>1814.9</ele>
        <time>2026-06-27T08:24:37Z</time>
      </trkpt>
      <trkpt lat="46.12616" lon="6.71932">
        <ele>1814.6</ele>
        <time>2026-06-27T08:24:38Z</time>
      </trkpt>
      <trkpt lat="46.12616" lon="6.71932">
        <ele>1814.3</ele>
        <time>2026-06-27T08:24:39Z</time>
      </trkpt>
      <trkpt lat="46.12617" lon="6.71932">
        <ele>1814</ele>
        <time>2026-06-27T08:24:40Z</time>
      </trkpt>
      <trkpt lat="46.12617" lon="6.71932">
        <ele>1813.8</ele>
        <time>2026-06-27T08:24:41Z</time>
      </trkpt>
      <trkpt lat="46.12618" lon="6.71932">
        <ele>1813.6</ele>
        <time>2026-06-27T08:24:42Z</time>
      </trkpt>
      <trkpt lat="46.12619" lon="6.71933">
        <ele>1813.4</ele>
        <time>2026-06-27T08:24:43Z</time>
      </trkpt>
      <trkpt lat="46.1262" lon="6.71933">
        <ele>1813.3</ele>
        <time>2026-06-27T08:24:44Z</time>
      </trkpt>
      <trkpt lat="46.12621" lon="6.71933">
        <ele>1813.1</ele>
        <time>2026-06-27T08:24:45Z</time>
      </trkpt>
      <trkpt lat="46.12621" lon="6.71933">
        <ele>1813</ele>
        <time>2026-06-27T08:24:46Z</time>
      </trkpt>
      <trkpt lat="46.12622" lon="6.71934">
        <ele>1812.7</ele>
        <time>2026-06-27T08:24:47Z</time>
      </trkpt>
      <trkpt lat="46.12623" lon="6.71935">
        <ele>1812.5</ele>
        <time>2026-06-27T08:24:48Z</time>
      </trkpt>
      <trkpt lat="46.12624" lon="6.71936">
        <ele>1812.3</ele>
        <time>2026-06-27T08:24:49Z</time>
      </trkpt>
      <trkpt lat="46.12625" lon="6.71938">
        <ele>1812.2</ele>
        <time>2026-06-27T08:24:50Z</time>
      </trkpt>
      <trkpt lat="46.12625" lon="6.71939">
        <ele>1812.1</ele>
        <time>2026-06-27T08:24:51Z</time>
      </trkpt>
      <trkpt lat="46.12626" lon="6.7194">
        <ele>1812.1</ele>
        <time>2026-06-27T08:24:52Z</time>
      </trkpt>
      <trkpt lat="46.12627" lon="6.7194">
        <ele>1812</ele>
        <time>2026-06-27T08:24:53Z</time>
      </trkpt>
      <trkpt lat="46.12628" lon="6.71941">
        <ele>1811.8</ele>
        <time>2026-06-27T08:24:54Z</time>
      </trkpt>
      <trkpt lat="46.12628" lon="6.71942">
        <ele>1811.7</ele>
        <time>2026-06-27T08:24:55Z</time>
      </trkpt>
      <trkpt lat="46.12629" lon="6.71944">
        <ele>1811.4</ele>
        <time>2026-06-27T08:24:56Z</time>
      </trkpt>
      <trkpt lat="46.1263" lon="6.71945">
        <ele>1811.3</ele>
        <time>2026-06-27T08:24:57Z</time>
      </trkpt>
      <trkpt lat="46.1263" lon="6.71946">
        <ele>1811.2</ele>
        <time>2026-06-27T08:24:58Z</time>
      </trkpt>
      <trkpt lat="46.12631" lon="6.71947">
        <ele>1811.1</ele>
        <time>2026-06-27T08:24:59Z</time>
      </trkpt>
      <trkpt lat="46.12631" lon="6.71949">
        <ele>1811</ele>
        <time>2026-06-27T08:25:00Z</time>
      </trkpt>
      <trkpt lat="46.12632" lon="6.7195">
        <ele>1811</ele>
        <time>2026-06-27T08:25:01Z</time>
      </trkpt>
      <trkpt lat="46.12633" lon="6.71951">
        <ele>1810.8</ele>
        <time>2026-06-27T08:25:02Z</time>
      </trkpt>
      <trkpt lat="46.12633" lon="6.71952">
        <ele>1810.7</ele>
        <time>2026-06-27T08:25:03Z</time>
      </trkpt>
      <trkpt lat="46.12634" lon="6.71953">
        <ele>1810.5</ele>
        <time>2026-06-27T08:25:04Z</time>
      </trkpt>
      <trkpt lat="46.12634" lon="6.71954">
        <ele>1810.2</ele>
        <time>2026-06-27T08:25:05Z</time>
      </trkpt>
      <trkpt lat="46.12635" lon="6.71955">
        <ele>1810.2</ele>
        <time>2026-06-27T08:25:06Z</time>
      </trkpt>
      <trkpt lat="46.12635" lon="6.71956">
        <ele>1810.1</ele>
        <time>2026-06-27T08:25:07Z</time>
      </trkpt>
      <trkpt lat="46.12635" lon="6.71957">
        <ele>1810</ele>
        <time>2026-06-27T08:25:08Z</time>
      </trkpt>
      <trkpt lat="46.12636" lon="6.71958">
        <ele>1809.9</ele>
        <time>2026-06-27T08:25:09Z</time>
      </trkpt>
      <trkpt lat="46.12637" lon="6.7196">
        <ele>1809.8</ele>
        <time>2026-06-27T08:25:10Z</time>
      </trkpt>
      <trkpt lat="46.12637" lon="6.71961">
        <ele>1809.6</ele>
        <time>2026-06-27T08:25:11Z</time>
      </trkpt>
      <trkpt lat="46.12638" lon="6.71962">
        <ele>1809.5</ele>
        <time>2026-06-27T08:25:12Z</time>
      </trkpt>
      <trkpt lat="46.12639" lon="6.71962">
        <ele>1809.5</ele>
        <time>2026-06-27T08:25:13Z</time>
      </trkpt>
      <trkpt lat="46.1264" lon="6.71963">
        <ele>1809.4</ele>
        <time>2026-06-27T08:25:14Z</time>
      </trkpt>
      <trkpt lat="46.12641" lon="6.71964">
        <ele>1809.3</ele>
        <time>2026-06-27T08:25:15Z</time>
      </trkpt>
      <trkpt lat="46.12642" lon="6.71964">
        <ele>1809.2</ele>
        <time>2026-06-27T08:25:16Z</time>
      </trkpt>
      <trkpt lat="46.12643" lon="6.71965">
        <ele>1809</ele>
        <time>2026-06-27T08:25:17Z</time>
      </trkpt>
      <trkpt lat="46.12643" lon="6.71966">
        <ele>1808.9</ele>
        <time>2026-06-27T08:25:18Z</time>
      </trkpt>
      <trkpt lat="46.12644" lon="6.71967">
        <ele>1808.7</ele>
        <time>2026-06-27T08:25:19Z</time>
      </trkpt>
      <trkpt lat="46.12644" lon="6.71967">
        <ele>1808.5</ele>
        <time>2026-06-27T08:25:20Z</time>
      </trkpt>
      <trkpt lat="46.12644" lon="6.71967">
        <ele>1808.3</ele>
        <time>2026-06-27T08:25:21Z</time>
      </trkpt>
      <trkpt lat="46.12644" lon="6.71968">
        <ele>1808.2</ele>
        <time>2026-06-27T08:25:22Z</time>
      </trkpt>
      <trkpt lat="46.12644" lon="6.71968">
        <ele>1808.1</ele>
        <time>2026-06-27T08:25:23Z</time>
      </trkpt>
      <trkpt lat="46.12645" lon="6.71969">
        <ele>1808</ele>
        <time>2026-06-27T08:25:24Z</time>
      </trkpt>
      <trkpt lat="46.12645" lon="6.7197">
        <ele>1808</ele>
        <time>2026-06-27T08:25:25Z</time>
      </trkpt>
      <trkpt lat="46.12646" lon="6.71971">
        <ele>1807.9</ele>
        <time>2026-06-27T08:25:26Z</time>
      </trkpt>
      <trkpt lat="46.12647" lon="6.71972">
        <ele>1807.8</ele>
        <time>2026-06-27T08:25:27Z</time>
      </trkpt>
      <trkpt lat="46.12647" lon="6.71972">
        <ele>1807.6</ele>
        <time>2026-06-27T08:25:28Z</time>
      </trkpt>
      <trkpt lat="46.12648" lon="6.71973">
        <ele>1807.5</ele>
        <time>2026-06-27T08:25:29Z</time>
      </trkpt>
      <trkpt lat="46.12648" lon="6.71973">
        <ele>1807.4</ele>
        <time>2026-06-27T08:25:30Z</time>
      </trkpt>
      <trkpt lat="46.12648" lon="6.71973">
        <ele>1807.3</ele>
        <time>2026-06-27T08:25:31Z</time>
      </trkpt>
      <trkpt lat="46.12648" lon="6.71973">
        <ele>1807.1</ele>
        <time>2026-06-27T08:25:32Z</time>
      </trkpt>
      <trkpt lat="46.12648" lon="6.71973">
        <ele>1807</ele>
        <time>2026-06-27T08:25:33Z</time>
      </trkpt>
      <trkpt lat="46.12648" lon="6.71973">
        <ele>1806.9</ele>
        <time>2026-06-27T08:25:34Z</time>
      </trkpt>
      <trkpt lat="46.12649" lon="6.71973">
        <ele>1806.9</ele>
        <time>2026-06-27T08:25:35Z</time>
      </trkpt>
      <trkpt lat="46.12649" lon="6.71973">
        <ele>1806.8</ele>
        <time>2026-06-27T08:25:36Z</time>
      </trkpt>
      <trkpt lat="46.12648" lon="6.71973">
        <ele>1806.8</ele>
        <time>2026-06-27T08:25:37Z</time>
      </trkpt>
      <trkpt lat="46.12649" lon="6.71974">
        <ele>1806.7</ele>
        <time>2026-06-27T08:25:38Z</time>
      </trkpt>
      <trkpt lat="46.1265" lon="6.71974">
        <ele>1806.7</ele>
        <time>2026-06-27T08:25:39Z</time>
      </trkpt>
      <trkpt lat="46.12651" lon="6.71974">
        <ele>1806.7</ele>
        <time>2026-06-27T08:25:40Z</time>
      </trkpt>
      <trkpt lat="46.12652" lon="6.71973">
        <ele>1806.6</ele>
        <time>2026-06-27T08:25:41Z</time>
      </trkpt>
      <trkpt lat="46.12653" lon="6.71973">
        <ele>1806.5</ele>
        <time>2026-06-27T08:25:42Z</time>
      </trkpt>
      <trkpt lat="46.12653" lon="6.71973">
        <ele>1806.4</ele>
        <time>2026-06-27T08:25:43Z</time>
      </trkpt>
      <trkpt lat="46.12654" lon="6.71973">
        <ele>1806.2</ele>
        <time>2026-06-27T08:25:44Z</time>
      </trkpt>
      <trkpt lat="46.12655" lon="6.71974">
        <ele>1806.1</ele>
        <time>2026-06-27T08:25:45Z</time>
      </trkpt>
      <trkpt lat="46.12656" lon="6.71974">
        <ele>1805.9</ele>
        <time>2026-06-27T08:25:46Z</time>
      </trkpt>
      <trkpt lat="46.12657" lon="6.71974">
        <ele>1805.8</ele>
        <time>2026-06-27T08:25:47Z</time>
      </trkpt>
      <trkpt lat="46.12659" lon="6.71974">
        <ele>1805.6</ele>
        <time>2026-06-27T08:25:48Z</time>
      </trkpt>
      <trkpt lat="46.1266" lon="6.71975">
        <ele>1805.5</ele>
        <time>2026-06-27T08:25:49Z</time>
      </trkpt>
      <trkpt lat="46.12661" lon="6.71975">
        <ele>1805.3</ele>
        <time>2026-06-27T08:25:50Z</time>
      </trkpt>
      <trkpt lat="46.12662" lon="6.71975">
        <ele>1805.2</ele>
        <time>2026-06-27T08:25:51Z</time>
      </trkpt>
      <trkpt lat="46.12664" lon="6.71975">
        <ele>1805</ele>
        <time>2026-06-27T08:25:52Z</time>
      </trkpt>
      <trkpt lat="46.12665" lon="6.71976">
        <ele>1804.9</ele>
        <time>2026-06-27T08:25:53Z</time>
      </trkpt>
      <trkpt lat="46.12666" lon="6.71976">
        <ele>1804.9</ele>
        <time>2026-06-27T08:25:54Z</time>
      </trkpt>
      <trkpt lat="46.12667" lon="6.71976">
        <ele>1804.8</ele>
        <time>2026-06-27T08:25:55Z</time>
      </trkpt>
      <trkpt lat="46.12668" lon="6.71976">
        <ele>1804.7</ele>
        <time>2026-06-27T08:25:56Z</time>
      </trkpt>
      <trkpt lat="46.12669" lon="6.71976">
        <ele>1804.5</ele>
        <time>2026-06-27T08:25:57Z</time>
      </trkpt>
      <trkpt lat="46.1267" lon="6.71976">
        <ele>1804.4</ele>
        <time>2026-06-27T08:25:58Z</time>
      </trkpt>
      <trkpt lat="46.12671" lon="6.71977">
        <ele>1804.2</ele>
        <time>2026-06-27T08:25:59Z</time>
      </trkpt>
      <trkpt lat="46.12672" lon="6.71977">
        <ele>1804.1</ele>
        <time>2026-06-27T08:26:00Z</time>
      </trkpt>
      <trkpt lat="46.12673" lon="6.71978">
        <ele>1803.9</ele>
        <time>2026-06-27T08:26:01Z</time>
      </trkpt>
      <trkpt lat="46.12673" lon="6.71978">
        <ele>1803.8</ele>
        <time>2026-06-27T08:26:02Z</time>
      </trkpt>
      <trkpt lat="46.12674" lon="6.71979">
        <ele>1803.8</ele>
        <time>2026-06-27T08:26:03Z</time>
      </trkpt>
      <trkpt lat="46.12675" lon="6.71979">
        <ele>1803.7</ele>
        <time>2026-06-27T08:26:04Z</time>
      </trkpt>
      <trkpt lat="46.12675" lon="6.7198">
        <ele>1803.4</ele>
        <time>2026-06-27T08:26:05Z</time>
      </trkpt>
      <trkpt lat="46.12676" lon="6.7198">
        <ele>1803.2</ele>
        <time>2026-06-27T08:26:06Z</time>
      </trkpt>
      <trkpt lat="46.12676" lon="6.71981">
        <ele>1803</ele>
        <time>2026-06-27T08:26:07Z</time>
      </trkpt>
      <trkpt lat="46.12676" lon="6.71982">
        <ele>1802.7</ele>
        <time>2026-06-27T08:26:08Z</time>
      </trkpt>
      <trkpt lat="46.12677" lon="6.71983">
        <ele>1802.5</ele>
        <time>2026-06-27T08:26:09Z</time>
      </trkpt>
      <trkpt lat="46.12677" lon="6.71984">
        <ele>1802.4</ele>
        <time>2026-06-27T08:26:10Z</time>
      </trkpt>
      <trkpt lat="46.12678" lon="6.71985">
        <ele>1802.3</ele>
        <time>2026-06-27T08:26:11Z</time>
      </trkpt>
      <trkpt lat="46.12678" lon="6.71985">
        <ele>1802.1</ele>
        <time>2026-06-27T08:26:12Z</time>
      </trkpt>
      <trkpt lat="46.12678" lon="6.71986">
        <ele>1801.9</ele>
        <time>2026-06-27T08:26:13Z</time>
      </trkpt>
      <trkpt lat="46.12679" lon="6.71986">
        <ele>1801.7</ele>
        <time>2026-06-27T08:26:14Z</time>
      </trkpt>
      <trkpt lat="46.12679" lon="6.71987">
        <ele>1801.5</ele>
        <time>2026-06-27T08:26:15Z</time>
      </trkpt>
      <trkpt lat="46.12679" lon="6.71987">
        <ele>1801.3</ele>
        <time>2026-06-27T08:26:16Z</time>
      </trkpt>
      <trkpt lat="46.1268" lon="6.71988">
        <ele>1801.1</ele>
        <time>2026-06-27T08:26:17Z</time>
      </trkpt>
      <trkpt lat="46.1268" lon="6.71989">
        <ele>1800.9</ele>
        <time>2026-06-27T08:26:18Z</time>
      </trkpt>
      <trkpt lat="46.12681" lon="6.71991">
        <ele>1800.6</ele>
        <time>2026-06-27T08:26:19Z</time>
      </trkpt>
      <trkpt lat="46.12681" lon="6.71992">
        <ele>1800.3</ele>
        <time>2026-06-27T08:26:20Z</time>
      </trkpt>
      <trkpt lat="46.12682" lon="6.71993">
        <ele>1800.1</ele>
        <time>2026-06-27T08:26:21Z</time>
      </trkpt>
      <trkpt lat="46.12682" lon="6.71993">
        <ele>1799.6</ele>
        <time>2026-06-27T08:26:22Z</time>
      </trkpt>
      <trkpt lat="46.12682" lon="6.71993">
        <ele>1799.5</ele>
        <time>2026-06-27T08:26:23Z</time>
      </trkpt>
      <trkpt lat="46.12681" lon="6.71993">
        <ele>1799.6</ele>
        <time>2026-06-27T08:26:24Z</time>
      </trkpt>
      <trkpt lat="46.12681" lon="6.71993">
        <ele>1799.6</ele>
        <time>2026-06-27T08:26:25Z</time>
      </trkpt>
      <trkpt lat="46.12681" lon="6.71993">
        <ele>1799.6</ele>
        <time>2026-06-27T08:26:26Z</time>
      </trkpt>
      <trkpt lat="46.12681" lon="6.71993">
        <ele>1799.6</ele>
        <time>2026-06-27T08:26:27Z</time>
      </trkpt>
      <trkpt lat="46.12681" lon="6.71993">
        <ele>1799.6</ele>
        <time>2026-06-27T08:26:28Z</time>
      </trkpt>
      <trkpt lat="46.12682" lon="6.71993">
        <ele>1799.7</ele>
        <time>2026-06-27T08:26:29Z</time>
      </trkpt>
      <trkpt lat="46.12682" lon="6.71993">
        <ele>1799.7</ele>
        <time>2026-06-27T08:26:30Z</time>
      </trkpt>
      <trkpt lat="46.12681" lon="6.71993">
        <ele>1799.7</ele>
        <time>2026-06-27T08:26:31Z</time>
      </trkpt>
      <trkpt lat="46.12681" lon="6.71993">
        <ele>1799.7</ele>
        <time>2026-06-27T08:26:32Z</time>
      </trkpt>
      <trkpt lat="46.12682" lon="6.71993">
        <ele>1799.8</ele>
        <time>2026-06-27T08:26:33Z</time>
      </trkpt>
      <trkpt lat="46.12681" lon="6.71993">
        <ele>1799.8</ele>
        <time>2026-06-27T08:26:34Z</time>
      </trkpt>
      <trkpt lat="46.12681" lon="6.71993">
        <ele>1799.8</ele>
        <time>2026-06-27T08:26:35Z</time>
      </trkpt>
      <trkpt lat="46.12681" lon="6.71992">
        <ele>1799.9</ele>
        <time>2026-06-27T08:26:36Z</time>
      </trkpt>
      <trkpt lat="46.12681" lon="6.71992">
        <ele>1799.9</ele>
        <time>2026-06-27T08:26:37Z</time>
      </trkpt>
      <trkpt lat="46.12681" lon="6.71992">
        <ele>1800</ele>
        <time>2026-06-27T08:26:38Z</time>
      </trkpt>
      <trkpt lat="46.12682" lon="6.71992">
        <ele>1800.1</ele>
        <time>2026-06-27T08:26:39Z</time>
      </trkpt>
      <trkpt lat="46.12682" lon="6.71992">
        <ele>1800.2</ele>
        <time>2026-06-27T08:26:40Z</time>
      </trkpt>
      <trkpt lat="46.12682" lon="6.71992">
        <ele>1800.2</ele>
        <time>2026-06-27T08:26:41Z</time>
      </trkpt>
      <trkpt lat="46.12682" lon="6.71992">
        <ele>1800.2</ele>
        <time>2026-06-27T08:26:42Z</time>
      </trkpt>
      <trkpt lat="46.12682" lon="6.71992">
        <ele>1800.2</ele>
        <time>2026-06-27T08:26:43Z</time>
      </trkpt>
      <trkpt lat="46.12682" lon="6.71992">
        <ele>1800.2</ele>
        <time>2026-06-27T08:26:44Z</time>
      </trkpt>
      <trkpt lat="46.12682" lon="6.71992">
        <ele>1800.2</ele>
        <time>2026-06-27T08:26:45Z</time>
      </trkpt>
      <trkpt lat="46.12682" lon="6.71993">
        <ele>1800.2</ele>
        <time>2026-06-27T08:26:46Z</time>
      </trkpt>
      <trkpt lat="46.12682" lon="6.71994">
        <ele>1800.2</ele>
        <time>2026-06-27T08:26:47Z</time>
      </trkpt>
      <trkpt lat="46.12683" lon="6.71994">
        <ele>1800.2</ele>
        <time>2026-06-27T08:26:48Z</time>
      </trkpt>
      <trkpt lat="46.12683" lon="6.71995">
        <ele>1800.1</ele>
        <time>2026-06-27T08:26:49Z</time>
      </trkpt>
      <trkpt lat="46.12683" lon="6.71995">
        <ele>1800.1</ele>
        <time>2026-06-27T08:26:50Z</time>
      </trkpt>
      <trkpt lat="46.12683" lon="6.71996">
        <ele>1800.1</ele>
        <time>2026-06-27T08:26:51Z</time>
      </trkpt>
      <trkpt lat="46.12683" lon="6.71996">
        <ele>1800.1</ele>
        <time>2026-06-27T08:26:52Z</time>
      </trkpt>
      <trkpt lat="46.12683" lon="6.71997">
        <ele>1800.2</ele>
        <time>2026-06-27T08:26:53Z</time>
      </trkpt>
      <trkpt lat="46.12683" lon="6.71998">
        <ele>1800.2</ele>
        <time>2026-06-27T08:26:54Z</time>
      </trkpt>
      <trkpt lat="46.12683" lon="6.71999">
        <ele>1800.3</ele>
        <time>2026-06-27T08:26:55Z</time>
      </trkpt>
      <trkpt lat="46.12683" lon="6.72">
        <ele>1800.3</ele>
        <time>2026-06-27T08:26:56Z</time>
      </trkpt>
      <trkpt lat="46.12683" lon="6.72">
        <ele>1800.3</ele>
        <time>2026-06-27T08:26:57Z</time>
      </trkpt>
      <trkpt lat="46.12683" lon="6.72">
        <ele>1800.3</ele>
        <time>2026-06-27T08:26:58Z</time>
      </trkpt>
      <trkpt lat="46.12683" lon="6.72">
        <ele>1800.4</ele>
        <time>2026-06-27T08:26:59Z</time>
      </trkpt>
      <trkpt lat="46.12683" lon="6.72">
        <ele>1800.4</ele>
        <time>2026-06-27T08:27:00Z</time>
      </trkpt>
      <trkpt lat="46.12683" lon="6.72001">
        <ele>1800.6</ele>
        <time>2026-06-27T08:27:01Z</time>
      </trkpt>
      <trkpt lat="46.12683" lon="6.72002">
        <ele>1800.7</ele>
        <time>2026-06-27T08:27:02Z</time>
      </trkpt>
      <trkpt lat="46.12683" lon="6.72003">
        <ele>1800.7</ele>
        <time>2026-06-27T08:27:03Z</time>
      </trkpt>
      <trkpt lat="46.12684" lon="6.72003">
        <ele>1800.8</ele>
        <time>2026-06-27T08:27:04Z</time>
      </trkpt>
      <trkpt lat="46.12684" lon="6.72004">
        <ele>1800.8</ele>
        <time>2026-06-27T08:27:05Z</time>
      </trkpt>
      <trkpt lat="46.12684" lon="6.72003">
        <ele>1800.8</ele>
        <time>2026-06-27T08:27:06Z</time>
      </trkpt>
      <trkpt lat="46.12684" lon="6.72003">
        <ele>1800.9</ele>
        <time>2026-06-27T08:27:07Z</time>
      </trkpt>
      <trkpt lat="46.12684" lon="6.72004">
        <ele>1800.9</ele>
        <time>2026-06-27T08:27:08Z</time>
      </trkpt>
      <trkpt lat="46.12685" lon="6.72004">
        <ele>1800.9</ele>
        <time>2026-06-27T08:27:09Z</time>
      </trkpt>
      <trkpt lat="46.12685" lon="6.72004">
        <ele>1800.9</ele>
        <time>2026-06-27T08:27:10Z</time>
      </trkpt>
      <trkpt lat="46.12685" lon="6.72004">
        <ele>1801</ele>
        <time>2026-06-27T08:27:11Z</time>
      </trkpt>
      <trkpt lat="46.12685" lon="6.72004">
        <ele>1801</ele>
        <time>2026-06-27T08:27:12Z</time>
      </trkpt>
      <trkpt lat="46.12685" lon="6.72005">
        <ele>1801</ele>
        <time>2026-06-27T08:27:13Z</time>
      </trkpt>
      <trkpt lat="46.12685" lon="6.72005">
        <ele>1801</ele>
        <time>2026-06-27T08:27:14Z</time>
      </trkpt>
      <trkpt lat="46.12685" lon="6.72005">
        <ele>1800.9</ele>
        <time>2026-06-27T08:27:15Z</time>
      </trkpt>
      <trkpt lat="46.12685" lon="6.72005">
        <ele>1801</ele>
        <time>2026-06-27T08:27:16Z</time>
      </trkpt>
      <trkpt lat="46.12685" lon="6.72005">
        <ele>1801</ele>
        <time>2026-06-27T08:27:17Z</time>
      </trkpt>
      <trkpt lat="46.12686" lon="6.72005">
        <ele>1801.1</ele>
        <time>2026-06-27T08:27:18Z</time>
      </trkpt>
      <trkpt lat="46.12686" lon="6.72005">
        <ele>1801.1</ele>
        <time>2026-06-27T08:27:19Z</time>
      </trkpt>
      <trkpt lat="46.12686" lon="6.72005">
        <ele>1801.1</ele>
        <time>2026-06-27T08:27:20Z</time>
      </trkpt>
      <trkpt lat="46.12686" lon="6.72005">
        <ele>1801.1</ele>
        <time>2026-06-27T08:27:21Z</time>
      </trkpt>
      <trkpt lat="46.12686" lon="6.72005">
        <ele>1801.1</ele>
        <time>2026-06-27T08:27:22Z</time>
      </trkpt>
      <trkpt lat="46.12686" lon="6.72005">
        <ele>1801.1</ele>
        <time>2026-06-27T08:27:23Z</time>
      </trkpt>
      <trkpt lat="46.12686" lon="6.72005">
        <ele>1801.1</ele>
        <time>2026-06-27T08:27:24Z</time>
      </trkpt>
      <trkpt lat="46.12686" lon="6.72004">
        <ele>1801</ele>
        <time>2026-06-27T08:27:25Z</time>
      </trkpt>
      <trkpt lat="46.12686" lon="6.72004">
        <ele>1800.9</ele>
        <time>2026-06-27T08:27:26Z</time>
      </trkpt>
      <trkpt lat="46.12686" lon="6.72004">
        <ele>1800.9</ele>
        <time>2026-06-27T08:27:27Z</time>
      </trkpt>
      <trkpt lat="46.12686" lon="6.72004">
        <ele>1800.9</ele>
        <time>2026-06-27T08:27:28Z</time>
      </trkpt>
      <trkpt lat="46.12686" lon="6.72005">
        <ele>1800.9</ele>
        <time>2026-06-27T08:27:29Z</time>
      </trkpt>
      <trkpt lat="46.12686" lon="6.72006">
        <ele>1800.9</ele>
        <time>2026-06-27T08:27:30Z</time>
      </trkpt>
      <trkpt lat="46.12685" lon="6.72007">
        <ele>1801</ele>
        <time>2026-06-27T08:27:31Z</time>
      </trkpt>
      <trkpt lat="46.12684" lon="6.72008">
        <ele>1801</ele>
        <time>2026-06-27T08:27:32Z</time>
      </trkpt>
      <trkpt lat="46.12684" lon="6.72008">
        <ele>1801.1</ele>
        <time>2026-06-27T08:27:33Z</time>
      </trkpt>
      <trkpt lat="46.12683" lon="6.72009">
        <ele>1801.2</ele>
        <time>2026-06-27T08:27:34Z</time>
      </trkpt>
      <trkpt lat="46.12683" lon="6.7201">
        <ele>1801.5</ele>
        <time>2026-06-27T08:27:35Z</time>
      </trkpt>
      <trkpt lat="46.12683" lon="6.7201">
        <ele>1801.7</ele>
        <time>2026-06-27T08:27:36Z</time>
      </trkpt>
      <trkpt lat="46.12683" lon="6.7201">
        <ele>1801.8</ele>
        <time>2026-06-27T08:27:37Z</time>
      </trkpt>
      <trkpt lat="46.12683" lon="6.7201">
        <ele>1801.9</ele>
        <time>2026-06-27T08:27:38Z</time>
      </trkpt>
      <trkpt lat="46.12683" lon="6.7201">
        <ele>1802</ele>
        <time>2026-06-27T08:27:39Z</time>
      </trkpt>
      <trkpt lat="46.12683" lon="6.72011">
        <ele>1802.1</ele>
        <time>2026-06-27T08:27:40Z</time>
      </trkpt>
      <trkpt lat="46.12683" lon="6.72011">
        <ele>1802.2</ele>
        <time>2026-06-27T08:27:41Z</time>
      </trkpt>
      <trkpt lat="46.12683" lon="6.72011">
        <ele>1802.2</ele>
        <time>2026-06-27T08:27:42Z</time>
      </trkpt>
      <trkpt lat="46.12683" lon="6.72011">
        <ele>1802.2</ele>
        <time>2026-06-27T08:27:43Z</time>
      </trkpt>
      <trkpt lat="46.12683" lon="6.72011">
        <ele>1802.3</ele>
        <time>2026-06-27T08:27:44Z</time>
      </trkpt>
      <trkpt lat="46.12683" lon="6.72011">
        <ele>1802.3</ele>
        <time>2026-06-27T08:27:45Z</time>
      </trkpt>
      <trkpt lat="46.12683" lon="6.72011">
        <ele>1802.3</ele>
        <time>2026-06-27T08:27:46Z</time>
      </trkpt>
      <trkpt lat="46.12683" lon="6.72011">
        <ele>1802.3</ele>
        <time>2026-06-27T08:27:47Z</time>
      </trkpt>
      <trkpt lat="46.12684" lon="6.7201">
        <ele>1802.2</ele>
        <time>2026-06-27T08:27:48Z</time>
      </trkpt>
      <trkpt lat="46.12684" lon="6.7201">
        <ele>1802</ele>
        <time>2026-06-27T08:27:49Z</time>
      </trkpt>
      <trkpt lat="46.12685" lon="6.72009">
        <ele>1802</ele>
        <time>2026-06-27T08:27:50Z</time>
      </trkpt>
      <trkpt lat="46.12685" lon="6.72009">
        <ele>1802</ele>
        <time>2026-06-27T08:27:51Z</time>
      </trkpt>
      <trkpt lat="46.12686" lon="6.72008">
        <ele>1802</ele>
        <time>2026-06-27T08:27:52Z</time>
      </trkpt>
      <trkpt lat="46.12686" lon="6.72007">
        <ele>1801.7</ele>
        <time>2026-06-27T08:27:53Z</time>
      </trkpt>
      <trkpt lat="46.12686" lon="6.72006">
        <ele>1801.5</ele>
        <time>2026-06-27T08:27:54Z</time>
      </trkpt>
      <trkpt lat="46.12686" lon="6.72005">
        <ele>1801.4</ele>
        <time>2026-06-27T08:27:55Z</time>
      </trkpt>
      <trkpt lat="46.12687" lon="6.72005">
        <ele>1801.2</ele>
        <time>2026-06-27T08:27:56Z</time>
      </trkpt>
      <trkpt lat="46.12687" lon="6.72005">
        <ele>1801.1</ele>
        <time>2026-06-27T08:27:57Z</time>
      </trkpt>
      <trkpt lat="46.12686" lon="6.72005">
        <ele>1800.9</ele>
        <time>2026-06-27T08:27:58Z</time>
      </trkpt>
      <trkpt lat="46.12686" lon="6.72005">
        <ele>1800.9</ele>
        <time>2026-06-27T08:27:59Z</time>
      </trkpt>
      <trkpt lat="46.12686" lon="6.72005">
        <ele>1800.8</ele>
        <time>2026-06-27T08:28:00Z</time>
      </trkpt>
      <trkpt lat="46.12686" lon="6.72005">
        <ele>1800.7</ele>
        <time>2026-06-27T08:28:01Z</time>
      </trkpt>
      <trkpt lat="46.12686" lon="6.72005">
        <ele>1800.7</ele>
        <time>2026-06-27T08:28:02Z</time>
      </trkpt>
      <trkpt lat="46.12685" lon="6.72005">
        <ele>1800.6</ele>
        <time>2026-06-27T08:28:03Z</time>
      </trkpt>
      <trkpt lat="46.12685" lon="6.72005">
        <ele>1800.6</ele>
        <time>2026-06-27T08:28:04Z</time>
      </trkpt>
      <trkpt lat="46.12685" lon="6.72005">
        <ele>1800.6</ele>
        <time>2026-06-27T08:28:05Z</time>
      </trkpt>
      <trkpt lat="46.12685" lon="6.72005">
        <ele>1800.6</ele>
        <time>2026-06-27T08:28:06Z</time>
      </trkpt>
      <trkpt lat="46.12685" lon="6.72005">
        <ele>1800.6</ele>
        <time>2026-06-27T08:28:07Z</time>
      </trkpt>
      <trkpt lat="46.12685" lon="6.72005">
        <ele>1800.6</ele>
        <time>2026-06-27T08:28:08Z</time>
      </trkpt>
      <trkpt lat="46.12685" lon="6.72006">
        <ele>1800.6</ele>
        <time>2026-06-27T08:28:09Z</time>
      </trkpt>
      <trkpt lat="46.12685" lon="6.72006">
        <ele>1800.6</ele>
        <time>2026-06-27T08:28:10Z</time>
      </trkpt>
      <trkpt lat="46.12685" lon="6.72006">
        <ele>1800.6</ele>
        <time>2026-06-27T08:28:11Z</time>
      </trkpt>
      <trkpt lat="46.12685" lon="6.72006">
        <ele>1800.7</ele>
        <time>2026-06-27T08:28:12Z</time>
      </trkpt>
      <trkpt lat="46.12685" lon="6.72006">
        <ele>1800.7</ele>
        <time>2026-06-27T08:28:13Z</time>
      </trkpt>
      <trkpt lat="46.12685" lon="6.72006">
        <ele>1800.7</ele>
        <time>2026-06-27T08:28:14Z</time>
      </trkpt>
      <trkpt lat="46.12685" lon="6.72006">
        <ele>1800.7</ele>
        <time>2026-06-27T08:28:15Z</time>
      </trkpt>
      <trkpt lat="46.12685" lon="6.72007">
        <ele>1800.7</ele>
        <time>2026-06-27T08:28:16Z</time>
      </trkpt>
      <trkpt lat="46.12686" lon="6.72008">
        <ele>1800.8</ele>
        <time>2026-06-27T08:28:17Z</time>
      </trkpt>
      <trkpt lat="46.12686" lon="6.72009">
        <ele>1801</ele>
        <time>2026-06-27T08:28:18Z</time>
      </trkpt>
      <trkpt lat="46.12687" lon="6.72009">
        <ele>1801.1</ele>
        <time>2026-06-27T08:28:19Z</time>
      </trkpt>
      <trkpt lat="46.12687" lon="6.7201">
        <ele>1801.1</ele>
        <time>2026-06-27T08:28:20Z</time>
      </trkpt>
      <trkpt lat="46.12688" lon="6.7201">
        <ele>1801.2</ele>
        <time>2026-06-27T08:28:21Z</time>
      </trkpt>
      <trkpt lat="46.12688" lon="6.72011">
        <ele>1801.2</ele>
        <time>2026-06-27T08:28:22Z</time>
      </trkpt>
      <trkpt lat="46.12688" lon="6.72011">
        <ele>1801.2</ele>
        <time>2026-06-27T08:28:23Z</time>
      </trkpt>
      <trkpt lat="46.12688" lon="6.72011">
        <ele>1801.2</ele>
        <time>2026-06-27T08:28:24Z</time>
      </trkpt>
      <trkpt lat="46.12688" lon="6.72011">
        <ele>1801.3</ele>
        <time>2026-06-27T08:28:25Z</time>
      </trkpt>
      <trkpt lat="46.12688" lon="6.72011">
        <ele>1801.3</ele>
        <time>2026-06-27T08:28:26Z</time>
      </trkpt>
      <trkpt lat="46.12688" lon="6.72011">
        <ele>1801.4</ele>
        <time>2026-06-27T08:28:27Z</time>
      </trkpt>
      <trkpt lat="46.12688" lon="6.72011">
        <ele>1801.4</ele>
        <time>2026-06-27T08:28:28Z</time>
      </trkpt>
      <trkpt lat="46.12688" lon="6.72011">
        <ele>1801.4</ele>
        <time>2026-06-27T08:28:29Z</time>
      </trkpt>
      <trkpt lat="46.12688" lon="6.72011">
        <ele>1801.4</ele>
        <time>2026-06-27T08:28:30Z</time>
      </trkpt>
      <trkpt lat="46.12687" lon="6.7201">
        <ele>1801.5</ele>
        <time>2026-06-27T08:28:31Z</time>
      </trkpt>
      <trkpt lat="46.12687" lon="6.7201">
        <ele>1801.4</ele>
        <time>2026-06-27T08:28:32Z</time>
      </trkpt>
      <trkpt lat="46.12687" lon="6.72009">
        <ele>1801.3</ele>
        <time>2026-06-27T08:28:33Z</time>
      </trkpt>
      <trkpt lat="46.12686" lon="6.72009">
        <ele>1801.4</ele>
        <time>2026-06-27T08:28:34Z</time>
      </trkpt>
      <trkpt lat="46.12686" lon="6.72008">
        <ele>1801</ele>
        <time>2026-06-27T08:28:35Z</time>
      </trkpt>
      <trkpt lat="46.12686" lon="6.72007">
        <ele>1800.9</ele>
        <time>2026-06-27T08:28:36Z</time>
      </trkpt>
      <trkpt lat="46.12685" lon="6.72006">
        <ele>1800.7</ele>
        <time>2026-06-27T08:28:37Z</time>
      </trkpt>
      <trkpt lat="46.12685" lon="6.72005">
        <ele>1800.6</ele>
        <time>2026-06-27T08:28:38Z</time>
      </trkpt>
      <trkpt lat="46.12685" lon="6.72004">
        <ele>1800.6</ele>
        <time>2026-06-27T08:28:39Z</time>
      </trkpt>
      <trkpt lat="46.12685" lon="6.72004">
        <ele>1800.6</ele>
        <time>2026-06-27T08:28:40Z</time>
      </trkpt>
      <trkpt lat="46.12685" lon="6.72004">
        <ele>1800.5</ele>
        <time>2026-06-27T08:28:41Z</time>
      </trkpt>
      <trkpt lat="46.12684" lon="6.72004">
        <ele>1800.5</ele>
        <time>2026-06-27T08:28:42Z</time>
      </trkpt>
      <trkpt lat="46.12684" lon="6.72004">
        <ele>1800.4</ele>
        <time>2026-06-27T08:28:43Z</time>
      </trkpt>
      <trkpt lat="46.12684" lon="6.72004">
        <ele>1800.4</ele>
        <time>2026-06-27T08:28:44Z</time>
      </trkpt>
      <trkpt lat="46.12684" lon="6.72004">
        <ele>1800.4</ele>
        <time>2026-06-27T08:28:45Z</time>
      </trkpt>
      <trkpt lat="46.12684" lon="6.72004">
        <ele>1800.3</ele>
        <time>2026-06-27T08:28:46Z</time>
      </trkpt>
      <trkpt lat="46.12684" lon="6.72004">
        <ele>1800.3</ele>
        <time>2026-06-27T08:28:47Z</time>
      </trkpt>
      <trkpt lat="46.12684" lon="6.72004">
        <ele>1800.3</ele>
        <time>2026-06-27T08:28:48Z</time>
      </trkpt>
      <trkpt lat="46.12684" lon="6.72004">
        <ele>1800.3</ele>
        <time>2026-06-27T08:28:49Z</time>
      </trkpt>
      <trkpt lat="46.12684" lon="6.72004">
        <ele>1800.4</ele>
        <time>2026-06-27T08:28:50Z</time>
      </trkpt>
      <trkpt lat="46.12684" lon="6.72004">
        <ele>1800.4</ele>
        <time>2026-06-27T08:28:51Z</time>
      </trkpt>
      <trkpt lat="46.12684" lon="6.72004">
        <ele>1800.4</ele>
        <time>2026-06-27T08:28:52Z</time>
      </trkpt>
      <trkpt lat="46.12684" lon="6.72004">
        <ele>1800.4</ele>
        <time>2026-06-27T08:28:53Z</time>
      </trkpt>
      <trkpt lat="46.12684" lon="6.72005">
        <ele>1800.5</ele>
        <time>2026-06-27T08:28:54Z</time>
      </trkpt>
      <trkpt lat="46.12684" lon="6.72005">
        <ele>1800.5</ele>
        <time>2026-06-27T08:28:55Z</time>
      </trkpt>
      <trkpt lat="46.12684" lon="6.72005">
        <ele>1800.5</ele>
        <time>2026-06-27T08:28:56Z</time>
      </trkpt>
      <trkpt lat="46.12684" lon="6.72005">
        <ele>1800.5</ele>
        <time>2026-06-27T08:28:57Z</time>
      </trkpt>
      <trkpt lat="46.12684" lon="6.72005">
        <ele>1800.5</ele>
        <time>2026-06-27T08:28:58Z</time>
      </trkpt>
      <trkpt lat="46.12684" lon="6.72004">
        <ele>1800.5</ele>
        <time>2026-06-27T08:28:59Z</time>
      </trkpt>
      <trkpt lat="46.12684" lon="6.72004">
        <ele>1800.5</ele>
        <time>2026-06-27T08:29:00Z</time>
      </trkpt>
      <trkpt lat="46.12684" lon="6.72004">
        <ele>1800.5</ele>
        <time>2026-06-27T08:29:01Z</time>
      </trkpt>
      <trkpt lat="46.12684" lon="6.72004">
        <ele>1800.4</ele>
        <time>2026-06-27T08:29:02Z</time>
      </trkpt>
      <trkpt lat="46.12684" lon="6.72004">
        <ele>1800.3</ele>
        <time>2026-06-27T08:29:03Z</time>
      </trkpt>
      <trkpt lat="46.12684" lon="6.72004">
        <ele>1800.3</ele>
        <time>2026-06-27T08:29:04Z</time>
      </trkpt>
      <trkpt lat="46.12684" lon="6.72004">
        <ele>1800.2</ele>
        <time>2026-06-27T08:29:05Z</time>
      </trkpt>
      <trkpt lat="46.12684" lon="6.72004">
        <ele>1800.2</ele>
        <time>2026-06-27T08:29:06Z</time>
      </trkpt>
      <trkpt lat="46.12684" lon="6.72004">
        <ele>1800.2</ele>
        <time>2026-06-27T08:29:07Z</time>
      </trkpt>
      <trkpt lat="46.12684" lon="6.72004">
        <ele>1800.3</ele>
        <time>2026-06-27T08:29:08Z</time>
      </trkpt>
      <trkpt lat="46.12684" lon="6.72004">
        <ele>1800.3</ele>
        <time>2026-06-27T08:29:09Z</time>
      </trkpt>
      <trkpt lat="46.12684" lon="6.72005">
        <ele>1800.3</ele>
        <time>2026-06-27T08:29:10Z</time>
      </trkpt>
      <trkpt lat="46.12684" lon="6.72005">
        <ele>1800.3</ele>
        <time>2026-06-27T08:29:11Z</time>
      </trkpt>
      <trkpt lat="46.12684" lon="6.72005">
        <ele>1800.2</ele>
        <time>2026-06-27T08:29:12Z</time>
      </trkpt>
      <trkpt lat="46.12684" lon="6.72005">
        <ele>1800.2</ele>
        <time>2026-06-27T08:29:13Z</time>
      </trkpt>
      <trkpt lat="46.12684" lon="6.72005">
        <ele>1800.2</ele>
        <time>2026-06-27T08:29:14Z</time>
      </trkpt>
      <trkpt lat="46.12684" lon="6.72005">
        <ele>1800.2</ele>
        <time>2026-06-27T08:29:15Z</time>
      </trkpt>
      <trkpt lat="46.12684" lon="6.72005">
        <ele>1800.2</ele>
        <time>2026-06-27T08:29:16Z</time>
      </trkpt>
      <trkpt lat="46.12684" lon="6.72005">
        <ele>1800.2</ele>
        <time>2026-06-27T08:29:17Z</time>
      </trkpt>
      <trkpt lat="46.12684" lon="6.72005">
        <ele>1800.2</ele>
        <time>2026-06-27T08:29:18Z</time>
      </trkpt>
      <trkpt lat="46.12685" lon="6.72005">
        <ele>1800.2</ele>
        <time>2026-06-27T08:29:19Z</time>
      </trkpt>
      <trkpt lat="46.12685" lon="6.72005">
        <ele>1800.2</ele>
        <time>2026-06-27T08:29:20Z</time>
      </trkpt>
      <trkpt lat="46.12685" lon="6.72005">
        <ele>1800.2</ele>
        <time>2026-06-27T08:29:21Z</time>
      </trkpt>
      <trkpt lat="46.12685" lon="6.72005">
        <ele>1800.2</ele>
        <time>2026-06-27T08:29:22Z</time>
      </trkpt>
      <trkpt lat="46.12685" lon="6.72005">
        <ele>1800.1</ele>
        <time>2026-06-27T08:29:23Z</time>
      </trkpt>
      <trkpt lat="46.12685" lon="6.72005">
        <ele>1800.1</ele>
        <time>2026-06-27T08:29:24Z</time>
      </trkpt>
      <trkpt lat="46.12685" lon="6.72005">
        <ele>1800.1</ele>
        <time>2026-06-27T08:29:25Z</time>
      </trkpt>
      <trkpt lat="46.12685" lon="6.72005">
        <ele>1800</ele>
        <time>2026-06-27T08:29:26Z</time>
      </trkpt>
      <trkpt lat="46.12685" lon="6.72005">
        <ele>1800</ele>
        <time>2026-06-27T08:29:27Z</time>
      </trkpt>
      <trkpt lat="46.12685" lon="6.72005">
        <ele>1799.9</ele>
        <time>2026-06-27T08:29:28Z</time>
      </trkpt>
      <trkpt lat="46.12686" lon="6.72005">
        <ele>1799.9</ele>
        <time>2026-06-27T08:29:29Z</time>
      </trkpt>
      <trkpt lat="46.12686" lon="6.72005">
        <ele>1799.9</ele>
        <time>2026-06-27T08:29:30Z</time>
      </trkpt>
      <trkpt lat="46.12686" lon="6.72004">
        <ele>1799.8</ele>
        <time>2026-06-27T08:29:31Z</time>
      </trkpt>
      <trkpt lat="46.12686" lon="6.72004">
        <ele>1799.7</ele>
        <time>2026-06-27T08:29:32Z</time>
      </trkpt>
      <trkpt lat="46.12686" lon="6.72004">
        <ele>1799.7</ele>
        <time>2026-06-27T08:29:33Z</time>
      </trkpt>
      <trkpt lat="46.12686" lon="6.72004">
        <ele>1799.6</ele>
        <time>2026-06-27T08:29:34Z</time>
      </trkpt>
      <trkpt lat="46.12686" lon="6.72004">
        <ele>1799.5</ele>
        <time>2026-06-27T08:29:35Z</time>
      </trkpt>
      <trkpt lat="46.12686" lon="6.72004">
        <ele>1799.4</ele>
        <time>2026-06-27T08:29:36Z</time>
      </trkpt>
      <trkpt lat="46.12686" lon="6.72004">
        <ele>1799.4</ele>
        <time>2026-06-27T08:29:37Z</time>
      </trkpt>
      <trkpt lat="46.12686" lon="6.72005">
        <ele>1799.3</ele>
        <time>2026-06-27T08:29:38Z</time>
      </trkpt>
      <trkpt lat="46.12686" lon="6.72005">
        <ele>1799.3</ele>
        <time>2026-06-27T08:29:39Z</time>
      </trkpt>
      <trkpt lat="46.12686" lon="6.72005">
        <ele>1799.3</ele>
        <time>2026-06-27T08:29:40Z</time>
      </trkpt>
      <trkpt lat="46.12687" lon="6.72005">
        <ele>1799.2</ele>
        <time>2026-06-27T08:29:41Z</time>
      </trkpt>
      <trkpt lat="46.12687" lon="6.72005">
        <ele>1799.2</ele>
        <time>2026-06-27T08:29:42Z</time>
      </trkpt>
      <trkpt lat="46.12687" lon="6.72005">
        <ele>1799.1</ele>
        <time>2026-06-27T08:29:43Z</time>
      </trkpt>
      <trkpt lat="46.12688" lon="6.72004">
        <ele>1799</ele>
        <time>2026-06-27T08:29:44Z</time>
      </trkpt>
      <trkpt lat="46.12688" lon="6.72004">
        <ele>1798.9</ele>
        <time>2026-06-27T08:29:45Z</time>
      </trkpt>
      <trkpt lat="46.12688" lon="6.72003">
        <ele>1798.8</ele>
        <time>2026-06-27T08:29:46Z</time>
      </trkpt>
      <trkpt lat="46.12688" lon="6.72003">
        <ele>1798.7</ele>
        <time>2026-06-27T08:29:47Z</time>
      </trkpt>
      <trkpt lat="46.12689" lon="6.72002">
        <ele>1798.6</ele>
        <time>2026-06-27T08:29:48Z</time>
      </trkpt>
      <trkpt lat="46.12689" lon="6.72002">
        <ele>1798.5</ele>
        <time>2026-06-27T08:29:49Z</time>
      </trkpt>
      <trkpt lat="46.1269" lon="6.72002">
        <ele>1798.3</ele>
        <time>2026-06-27T08:29:50Z</time>
      </trkpt>
      <trkpt lat="46.1269" lon="6.72002">
        <ele>1798.2</ele>
        <time>2026-06-27T08:29:51Z</time>
      </trkpt>
      <trkpt lat="46.1269" lon="6.72001">
        <ele>1798</ele>
        <time>2026-06-27T08:29:52Z</time>
      </trkpt>
      <trkpt lat="46.1269" lon="6.72001">
        <ele>1797.9</ele>
        <time>2026-06-27T08:29:53Z</time>
      </trkpt>
      <trkpt lat="46.12691" lon="6.72001">
        <ele>1797.8</ele>
        <time>2026-06-27T08:29:54Z</time>
      </trkpt>
      <trkpt lat="46.12692" lon="6.72">
        <ele>1797.8</ele>
        <time>2026-06-27T08:29:55Z</time>
      </trkpt>
      <trkpt lat="46.12692" lon="6.72">
        <ele>1797.7</ele>
        <time>2026-06-27T08:29:56Z</time>
      </trkpt>
      <trkpt lat="46.12692" lon="6.71999">
        <ele>1797.6</ele>
        <time>2026-06-27T08:29:57Z</time>
      </trkpt>
      <trkpt lat="46.12692" lon="6.71998">
        <ele>1797.3</ele>
        <time>2026-06-27T08:29:58Z</time>
      </trkpt>
      <trkpt lat="46.12692" lon="6.71998">
        <ele>1797</ele>
        <time>2026-06-27T08:29:59Z</time>
      </trkpt>
      <trkpt lat="46.12692" lon="6.71997">
        <ele>1796.8</ele>
        <time>2026-06-27T08:30:00Z</time>
      </trkpt>
      <trkpt lat="46.12691" lon="6.71996">
        <ele>1796.5</ele>
        <time>2026-06-27T08:30:01Z</time>
      </trkpt>
      <trkpt lat="46.12691" lon="6.71995">
        <ele>1796.3</ele>
        <time>2026-06-27T08:30:02Z</time>
      </trkpt>
      <trkpt lat="46.12692" lon="6.71994">
        <ele>1796.1</ele>
        <time>2026-06-27T08:30:03Z</time>
      </trkpt>
      <trkpt lat="46.12692" lon="6.71993">
        <ele>1795.9</ele>
        <time>2026-06-27T08:30:04Z</time>
      </trkpt>
      <trkpt lat="46.12692" lon="6.71992">
        <ele>1795.7</ele>
        <time>2026-06-27T08:30:05Z</time>
      </trkpt>
      <trkpt lat="46.12692" lon="6.71992">
        <ele>1795.6</ele>
        <time>2026-06-27T08:30:06Z</time>
      </trkpt>
      <trkpt lat="46.12693" lon="6.71992">
        <ele>1795.4</ele>
        <time>2026-06-27T08:30:07Z</time>
      </trkpt>
      <trkpt lat="46.12693" lon="6.71992">
        <ele>1795.2</ele>
        <time>2026-06-27T08:30:08Z</time>
      </trkpt>
      <trkpt lat="46.12693" lon="6.71992">
        <ele>1795.1</ele>
        <time>2026-06-27T08:30:09Z</time>
      </trkpt>
      <trkpt lat="46.12693" lon="6.71991">
        <ele>1795.1</ele>
        <time>2026-06-27T08:30:10Z</time>
      </trkpt>
      <trkpt lat="46.12694" lon="6.71991">
        <ele>1795</ele>
        <time>2026-06-27T08:30:11Z</time>
      </trkpt>
      <trkpt lat="46.12694" lon="6.7199">
        <ele>1794.9</ele>
        <time>2026-06-27T08:30:12Z</time>
      </trkpt>
      <trkpt lat="46.12695" lon="6.71989">
        <ele>1794.8</ele>
        <time>2026-06-27T08:30:13Z</time>
      </trkpt>
      <trkpt lat="46.12695" lon="6.71989">
        <ele>1794.6</ele>
        <time>2026-06-27T08:30:14Z</time>
      </trkpt>
      <trkpt lat="46.12695" lon="6.71988">
        <ele>1794.4</ele>
        <time>2026-06-27T08:30:15Z</time>
      </trkpt>
      <trkpt lat="46.12696" lon="6.71988">
        <ele>1794.2</ele>
        <time>2026-06-27T08:30:16Z</time>
      </trkpt>
      <trkpt lat="46.12696" lon="6.71987">
        <ele>1794</ele>
        <time>2026-06-27T08:30:17Z</time>
      </trkpt>
      <trkpt lat="46.12696" lon="6.71987">
        <ele>1793.8</ele>
        <time>2026-06-27T08:30:18Z</time>
      </trkpt>
      <trkpt lat="46.12696" lon="6.71986">
        <ele>1793.6</ele>
        <time>2026-06-27T08:30:19Z</time>
      </trkpt>
      <trkpt lat="46.12697" lon="6.71985">
        <ele>1793.4</ele>
        <time>2026-06-27T08:30:20Z</time>
      </trkpt>
      <trkpt lat="46.12697" lon="6.71985">
        <ele>1793.2</ele>
        <time>2026-06-27T08:30:21Z</time>
      </trkpt>
      <trkpt lat="46.12697" lon="6.71984">
        <ele>1793</ele>
        <time>2026-06-27T08:30:22Z</time>
      </trkpt>
      <trkpt lat="46.12698" lon="6.71983">
        <ele>1792.8</ele>
        <time>2026-06-27T08:30:23Z</time>
      </trkpt>
      <trkpt lat="46.12698" lon="6.71983">
        <ele>1792.7</ele>
        <time>2026-06-27T08:30:24Z</time>
      </trkpt>
      <trkpt lat="46.12698" lon="6.71983">
        <ele>1792.4</ele>
        <time>2026-06-27T08:30:25Z</time>
      </trkpt>
      <trkpt lat="46.12698" lon="6.71982">
        <ele>1792.2</ele>
        <time>2026-06-27T08:30:26Z</time>
      </trkpt>
      <trkpt lat="46.12699" lon="6.71982">
        <ele>1792</ele>
        <time>2026-06-27T08:30:27Z</time>
      </trkpt>
      <trkpt lat="46.12699" lon="6.71981">
        <ele>1791.7</ele>
        <time>2026-06-27T08:30:28Z</time>
      </trkpt>
      <trkpt lat="46.12699" lon="6.7198">
        <ele>1791.5</ele>
        <time>2026-06-27T08:30:29Z</time>
      </trkpt>
      <trkpt lat="46.127" lon="6.7198">
        <ele>1791.2</ele>
        <time>2026-06-27T08:30:30Z</time>
      </trkpt>
      <trkpt lat="46.127" lon="6.71979">
        <ele>1791</ele>
        <time>2026-06-27T08:30:31Z</time>
      </trkpt>
      <trkpt lat="46.127" lon="6.71979">
        <ele>1790.9</ele>
        <time>2026-06-27T08:30:32Z</time>
      </trkpt>
      <trkpt lat="46.12701" lon="6.71978">
        <ele>1790.7</ele>
        <time>2026-06-27T08:30:33Z</time>
      </trkpt>
      <trkpt lat="46.12701" lon="6.71977">
        <ele>1790.5</ele>
        <time>2026-06-27T08:30:34Z</time>
      </trkpt>
      <trkpt lat="46.12702" lon="6.71976">
        <ele>1790.2</ele>
        <time>2026-06-27T08:30:35Z</time>
      </trkpt>
      <trkpt lat="46.12703" lon="6.71976">
        <ele>1790.1</ele>
        <time>2026-06-27T08:30:36Z</time>
      </trkpt>
      <trkpt lat="46.12704" lon="6.71975">
        <ele>1789.8</ele>
        <time>2026-06-27T08:30:37Z</time>
      </trkpt>
      <trkpt lat="46.12704" lon="6.71974">
        <ele>1789.5</ele>
        <time>2026-06-27T08:30:38Z</time>
      </trkpt>
      <trkpt lat="46.12705" lon="6.71973">
        <ele>1789.4</ele>
        <time>2026-06-27T08:30:39Z</time>
      </trkpt>
      <trkpt lat="46.12706" lon="6.71972">
        <ele>1789.1</ele>
        <time>2026-06-27T08:30:40Z</time>
      </trkpt>
      <trkpt lat="46.12706" lon="6.71972">
        <ele>1788.9</ele>
        <time>2026-06-27T08:30:41Z</time>
      </trkpt>
      <trkpt lat="46.12707" lon="6.71972">
        <ele>1788.7</ele>
        <time>2026-06-27T08:30:42Z</time>
      </trkpt>
      <trkpt lat="46.12708" lon="6.71971">
        <ele>1788.3</ele>
        <time>2026-06-27T08:30:43Z</time>
      </trkpt>
      <trkpt lat="46.12709" lon="6.71971">
        <ele>1788</ele>
        <time>2026-06-27T08:30:44Z</time>
      </trkpt>
      <trkpt lat="46.1271" lon="6.71971">
        <ele>1787.7</ele>
        <time>2026-06-27T08:30:45Z</time>
      </trkpt>
      <trkpt lat="46.12711" lon="6.7197">
        <ele>1787.4</ele>
        <time>2026-06-27T08:30:46Z</time>
      </trkpt>
      <trkpt lat="46.12712" lon="6.71969">
        <ele>1787.1</ele>
        <time>2026-06-27T08:30:47Z</time>
      </trkpt>
      <trkpt lat="46.12712" lon="6.71969">
        <ele>1786.7</ele>
        <time>2026-06-27T08:30:48Z</time>
      </trkpt>
      <trkpt lat="46.12713" lon="6.71968">
        <ele>1786.5</ele>
        <time>2026-06-27T08:30:49Z</time>
      </trkpt>
      <trkpt lat="46.12714" lon="6.71967">
        <ele>1786.4</ele>
        <time>2026-06-27T08:30:50Z</time>
      </trkpt>
      <trkpt lat="46.12714" lon="6.71967">
        <ele>1786.2</ele>
        <time>2026-06-27T08:30:51Z</time>
      </trkpt>
      <trkpt lat="46.12715" lon="6.71967">
        <ele>1786.1</ele>
        <time>2026-06-27T08:30:52Z</time>
      </trkpt>
      <trkpt lat="46.12716" lon="6.71967">
        <ele>1786</ele>
        <time>2026-06-27T08:30:53Z</time>
      </trkpt>
      <trkpt lat="46.12717" lon="6.71967">
        <ele>1785.8</ele>
        <time>2026-06-27T08:30:54Z</time>
      </trkpt>
      <trkpt lat="46.12718" lon="6.71968">
        <ele>1785.7</ele>
        <time>2026-06-27T08:30:55Z</time>
      </trkpt>
      <trkpt lat="46.12719" lon="6.71967">
        <ele>1785.6</ele>
        <time>2026-06-27T08:30:56Z</time>
      </trkpt>
      <trkpt lat="46.1272" lon="6.71967">
        <ele>1785.5</ele>
        <time>2026-06-27T08:30:57Z</time>
      </trkpt>
      <trkpt lat="46.12721" lon="6.71967">
        <ele>1785.3</ele>
        <time>2026-06-27T08:30:58Z</time>
      </trkpt>
      <trkpt lat="46.12721" lon="6.71967">
        <ele>1785.2</ele>
        <time>2026-06-27T08:30:59Z</time>
      </trkpt>
      <trkpt lat="46.12722" lon="6.71967">
        <ele>1785</ele>
        <time>2026-06-27T08:31:00Z</time>
      </trkpt>
      <trkpt lat="46.12723" lon="6.71967">
        <ele>1784.9</ele>
        <time>2026-06-27T08:31:01Z</time>
      </trkpt>
      <trkpt lat="46.12724" lon="6.71967">
        <ele>1784.8</ele>
        <time>2026-06-27T08:31:02Z</time>
      </trkpt>
      <trkpt lat="46.12724" lon="6.71967">
        <ele>1784.7</ele>
        <time>2026-06-27T08:31:03Z</time>
      </trkpt>
      <trkpt lat="46.12725" lon="6.71967">
        <ele>1784.6</ele>
        <time>2026-06-27T08:31:04Z</time>
      </trkpt>
      <trkpt lat="46.12726" lon="6.71968">
        <ele>1784.4</ele>
        <time>2026-06-27T08:31:05Z</time>
      </trkpt>
      <trkpt lat="46.12727" lon="6.71968">
        <ele>1784.1</ele>
        <time>2026-06-27T08:31:06Z</time>
      </trkpt>
      <trkpt lat="46.12728" lon="6.71968">
        <ele>1784</ele>
        <time>2026-06-27T08:31:07Z</time>
      </trkpt>
      <trkpt lat="46.12729" lon="6.71968">
        <ele>1783.9</ele>
        <time>2026-06-27T08:31:08Z</time>
      </trkpt>
      <trkpt lat="46.1273" lon="6.71968">
        <ele>1783.8</ele>
        <time>2026-06-27T08:31:09Z</time>
      </trkpt>
      <trkpt lat="46.12731" lon="6.71967">
        <ele>1783.7</ele>
        <time>2026-06-27T08:31:10Z</time>
      </trkpt>
      <trkpt lat="46.12731" lon="6.71967">
        <ele>1783.5</ele>
        <time>2026-06-27T08:31:11Z</time>
      </trkpt>
      <trkpt lat="46.12732" lon="6.71967">
        <ele>1783.4</ele>
        <time>2026-06-27T08:31:12Z</time>
      </trkpt>
      <trkpt lat="46.12733" lon="6.71966">
        <ele>1783.3</ele>
        <time>2026-06-27T08:31:13Z</time>
      </trkpt>
      <trkpt lat="46.12734" lon="6.71966">
        <ele>1783.1</ele>
        <time>2026-06-27T08:31:14Z</time>
      </trkpt>
      <trkpt lat="46.12735" lon="6.71966">
        <ele>1783</ele>
        <time>2026-06-27T08:31:15Z</time>
      </trkpt>
      <trkpt lat="46.12736" lon="6.71966">
        <ele>1782.9</ele>
        <time>2026-06-27T08:31:16Z</time>
      </trkpt>
      <trkpt lat="46.12736" lon="6.71966">
        <ele>1782.7</ele>
        <time>2026-06-27T08:31:17Z</time>
      </trkpt>
      <trkpt lat="46.12737" lon="6.71966">
        <ele>1782.6</ele>
        <time>2026-06-27T08:31:18Z</time>
      </trkpt>
      <trkpt lat="46.12737" lon="6.71964">
        <ele>1782.4</ele>
        <time>2026-06-27T08:31:19Z</time>
      </trkpt>
      <trkpt lat="46.12737" lon="6.71963">
        <ele>1782.2</ele>
        <time>2026-06-27T08:31:20Z</time>
      </trkpt>
      <trkpt lat="46.12737" lon="6.71962">
        <ele>1782</ele>
        <time>2026-06-27T08:31:21Z</time>
      </trkpt>
      <trkpt lat="46.12738" lon="6.71961">
        <ele>1781.9</ele>
        <time>2026-06-27T08:31:22Z</time>
      </trkpt>
      <trkpt lat="46.12738" lon="6.7196">
        <ele>1781.7</ele>
        <time>2026-06-27T08:31:23Z</time>
      </trkpt>
      <trkpt lat="46.12738" lon="6.71959">
        <ele>1781.5</ele>
        <time>2026-06-27T08:31:24Z</time>
      </trkpt>
      <trkpt lat="46.12738" lon="6.71957">
        <ele>1781.3</ele>
        <time>2026-06-27T08:31:25Z</time>
      </trkpt>
      <trkpt lat="46.12738" lon="6.71956">
        <ele>1781.1</ele>
        <time>2026-06-27T08:31:26Z</time>
      </trkpt>
      <trkpt lat="46.12738" lon="6.71955">
        <ele>1780.9</ele>
        <time>2026-06-27T08:31:27Z</time>
      </trkpt>
      <trkpt lat="46.12739" lon="6.71954">
        <ele>1780.7</ele>
        <time>2026-06-27T08:31:28Z</time>
      </trkpt>
      <trkpt lat="46.12739" lon="6.71954">
        <ele>1780.5</ele>
        <time>2026-06-27T08:31:29Z</time>
      </trkpt>
      <trkpt lat="46.1274" lon="6.71953">
        <ele>1780.3</ele>
        <time>2026-06-27T08:31:30Z</time>
      </trkpt>
      <trkpt lat="46.1274" lon="6.71951">
        <ele>1780</ele>
        <time>2026-06-27T08:31:31Z</time>
      </trkpt>
      <trkpt lat="46.1274" lon="6.7195">
        <ele>1779.9</ele>
        <time>2026-06-27T08:31:32Z</time>
      </trkpt>
      <trkpt lat="46.1274" lon="6.71949">
        <ele>1779.6</ele>
        <time>2026-06-27T08:31:33Z</time>
      </trkpt>
      <trkpt lat="46.12741" lon="6.71948">
        <ele>1779.5</ele>
        <time>2026-06-27T08:31:34Z</time>
      </trkpt>
      <trkpt lat="46.12742" lon="6.71947">
        <ele>1779.4</ele>
        <time>2026-06-27T08:31:35Z</time>
      </trkpt>
      <trkpt lat="46.12742" lon="6.71946">
        <ele>1779.3</ele>
        <time>2026-06-27T08:31:36Z</time>
      </trkpt>
      <trkpt lat="46.12743" lon="6.71945">
        <ele>1779.1</ele>
        <time>2026-06-27T08:31:37Z</time>
      </trkpt>
      <trkpt lat="46.12743" lon="6.71944">
        <ele>1779</ele>
        <time>2026-06-27T08:31:38Z</time>
      </trkpt>
      <trkpt lat="46.12744" lon="6.71943">
        <ele>1778.9</ele>
        <time>2026-06-27T08:31:39Z</time>
      </trkpt>
      <trkpt lat="46.12744" lon="6.71942">
        <ele>1778.7</ele>
        <time>2026-06-27T08:31:40Z</time>
      </trkpt>
      <trkpt lat="46.12745" lon="6.7194">
        <ele>1778.5</ele>
        <time>2026-06-27T08:31:41Z</time>
      </trkpt>
      <trkpt lat="46.12746" lon="6.71939">
        <ele>1778.4</ele>
        <time>2026-06-27T08:31:42Z</time>
      </trkpt>
      <trkpt lat="46.12746" lon="6.71938">
        <ele>1778.2</ele>
        <time>2026-06-27T08:31:43Z</time>
      </trkpt>
      <trkpt lat="46.12747" lon="6.71937">
        <ele>1778</ele>
        <time>2026-06-27T08:31:44Z</time>
      </trkpt>
      <trkpt lat="46.12747" lon="6.71936">
        <ele>1777.8</ele>
        <time>2026-06-27T08:31:45Z</time>
      </trkpt>
      <trkpt lat="46.12748" lon="6.71935">
        <ele>1777.5</ele>
        <time>2026-06-27T08:31:46Z</time>
      </trkpt>
      <trkpt lat="46.12748" lon="6.71934">
        <ele>1777.3</ele>
        <time>2026-06-27T08:31:47Z</time>
      </trkpt>
      <trkpt lat="46.12749" lon="6.71934">
        <ele>1777.1</ele>
        <time>2026-06-27T08:31:48Z</time>
      </trkpt>
      <trkpt lat="46.12749" lon="6.71933">
        <ele>1777</ele>
        <time>2026-06-27T08:31:49Z</time>
      </trkpt>
      <trkpt lat="46.1275" lon="6.71932">
        <ele>1776.8</ele>
        <time>2026-06-27T08:31:50Z</time>
      </trkpt>
      <trkpt lat="46.1275" lon="6.71931">
        <ele>1776.7</ele>
        <time>2026-06-27T08:31:51Z</time>
      </trkpt>
      <trkpt lat="46.12751" lon="6.71931">
        <ele>1776.6</ele>
        <time>2026-06-27T08:31:52Z</time>
      </trkpt>
      <trkpt lat="46.12751" lon="6.7193">
        <ele>1776.4</ele>
        <time>2026-06-27T08:31:53Z</time>
      </trkpt>
      <trkpt lat="46.12752" lon="6.71929">
        <ele>1776.3</ele>
        <time>2026-06-27T08:31:54Z</time>
      </trkpt>
      <trkpt lat="46.12752" lon="6.71929">
        <ele>1776.1</ele>
        <time>2026-06-27T08:31:55Z</time>
      </trkpt>
      <trkpt lat="46.12752" lon="6.7193">
        <ele>1776</ele>
        <time>2026-06-27T08:31:56Z</time>
      </trkpt>
      <trkpt lat="46.12752" lon="6.7193">
        <ele>1775.9</ele>
        <time>2026-06-27T08:31:57Z</time>
      </trkpt>
      <trkpt lat="46.12752" lon="6.7193">
        <ele>1775.8</ele>
        <time>2026-06-27T08:31:58Z</time>
      </trkpt>
      <trkpt lat="46.12752" lon="6.7193">
        <ele>1775.8</ele>
        <time>2026-06-27T08:31:59Z</time>
      </trkpt>
      <trkpt lat="46.12752" lon="6.7193">
        <ele>1775.7</ele>
        <time>2026-06-27T08:32:00Z</time>
      </trkpt>
      <trkpt lat="46.12752" lon="6.7193">
        <ele>1775.7</ele>
        <time>2026-06-27T08:32:01Z</time>
      </trkpt>
      <trkpt lat="46.12752" lon="6.7193">
        <ele>1775.6</ele>
        <time>2026-06-27T08:32:02Z</time>
      </trkpt>
      <trkpt lat="46.12751" lon="6.7193">
        <ele>1775.6</ele>
        <time>2026-06-27T08:32:03Z</time>
      </trkpt>
      <trkpt lat="46.12751" lon="6.7193">
        <ele>1775.5</ele>
        <time>2026-06-27T08:32:04Z</time>
      </trkpt>
      <trkpt lat="46.12751" lon="6.7193">
        <ele>1775.4</ele>
        <time>2026-06-27T08:32:05Z</time>
      </trkpt>
      <trkpt lat="46.12751" lon="6.7193">
        <ele>1775.4</ele>
        <time>2026-06-27T08:32:06Z</time>
      </trkpt>
      <trkpt lat="46.12751" lon="6.71931">
        <ele>1775.5</ele>
        <time>2026-06-27T08:32:07Z</time>
      </trkpt>
      <trkpt lat="46.12751" lon="6.71931">
        <ele>1775.5</ele>
        <time>2026-06-27T08:32:08Z</time>
      </trkpt>
      <trkpt lat="46.12751" lon="6.71932">
        <ele>1775.5</ele>
        <time>2026-06-27T08:32:09Z</time>
      </trkpt>
      <trkpt lat="46.12752" lon="6.71932">
        <ele>1775.5</ele>
        <time>2026-06-27T08:32:10Z</time>
      </trkpt>
      <trkpt lat="46.12752" lon="6.71932">
        <ele>1775.5</ele>
        <time>2026-06-27T08:32:11Z</time>
      </trkpt>
      <trkpt lat="46.12752" lon="6.71932">
        <ele>1775.6</ele>
        <time>2026-06-27T08:32:12Z</time>
      </trkpt>
      <trkpt lat="46.12752" lon="6.71932">
        <ele>1775.8</ele>
        <time>2026-06-27T08:32:13Z</time>
      </trkpt>
      <trkpt lat="46.12752" lon="6.71932">
        <ele>1775.8</ele>
        <time>2026-06-27T08:32:14Z</time>
      </trkpt>
      <trkpt lat="46.12753" lon="6.71932">
        <ele>1775.8</ele>
        <time>2026-06-27T08:32:15Z</time>
      </trkpt>
      <trkpt lat="46.12753" lon="6.71932">
        <ele>1775.8</ele>
        <time>2026-06-27T08:32:16Z</time>
      </trkpt>
      <trkpt lat="46.12753" lon="6.71932">
        <ele>1775.9</ele>
        <time>2026-06-27T08:32:17Z</time>
      </trkpt>
      <trkpt lat="46.12754" lon="6.71933">
        <ele>1775.9</ele>
        <time>2026-06-27T08:32:18Z</time>
      </trkpt>
      <trkpt lat="46.12754" lon="6.71933">
        <ele>1776</ele>
        <time>2026-06-27T08:32:19Z</time>
      </trkpt>
      <trkpt lat="46.12754" lon="6.71933">
        <ele>1776</ele>
        <time>2026-06-27T08:32:20Z</time>
      </trkpt>
      <trkpt lat="46.12755" lon="6.71933">
        <ele>1776</ele>
        <time>2026-06-27T08:32:21Z</time>
      </trkpt>
      <trkpt lat="46.12755" lon="6.71933">
        <ele>1776</ele>
        <time>2026-06-27T08:32:22Z</time>
      </trkpt>
      <trkpt lat="46.12755" lon="6.71933">
        <ele>1776</ele>
        <time>2026-06-27T08:32:23Z</time>
      </trkpt>
      <trkpt lat="46.12755" lon="6.71934">
        <ele>1776.1</ele>
        <time>2026-06-27T08:32:24Z</time>
      </trkpt>
      <trkpt lat="46.12755" lon="6.71933">
        <ele>1776.2</ele>
        <time>2026-06-27T08:32:25Z</time>
      </trkpt>
      <trkpt lat="46.12755" lon="6.71933">
        <ele>1776.2</ele>
        <time>2026-06-27T08:32:26Z</time>
      </trkpt>
      <trkpt lat="46.12755" lon="6.71933">
        <ele>1776.3</ele>
        <time>2026-06-27T08:32:27Z</time>
      </trkpt>
      <trkpt lat="46.12755" lon="6.71933">
        <ele>1776.4</ele>
        <time>2026-06-27T08:32:28Z</time>
      </trkpt>
      <trkpt lat="46.12755" lon="6.71933">
        <ele>1776.4</ele>
        <time>2026-06-27T08:32:29Z</time>
      </trkpt>
      <trkpt lat="46.12755" lon="6.71933">
        <ele>1776.4</ele>
        <time>2026-06-27T08:32:30Z</time>
      </trkpt>
      <trkpt lat="46.12755" lon="6.71934">
        <ele>1776.5</ele>
        <time>2026-06-27T08:32:31Z</time>
      </trkpt>
      <trkpt lat="46.12755" lon="6.71934">
        <ele>1776.5</ele>
        <time>2026-06-27T08:32:32Z</time>
      </trkpt>
      <trkpt lat="46.12755" lon="6.71933">
        <ele>1776.5</ele>
        <time>2026-06-27T08:32:33Z</time>
      </trkpt>
      <trkpt lat="46.12755" lon="6.71933">
        <ele>1776.3</ele>
        <time>2026-06-27T08:32:34Z</time>
      </trkpt>
      <trkpt lat="46.12755" lon="6.71933">
        <ele>1776.3</ele>
        <time>2026-06-27T08:32:35Z</time>
      </trkpt>
      <trkpt lat="46.12755" lon="6.71933">
        <ele>1776.4</ele>
        <time>2026-06-27T08:32:36Z</time>
      </trkpt>
      <trkpt lat="46.12755" lon="6.71933">
        <ele>1776.4</ele>
        <time>2026-06-27T08:32:37Z</time>
      </trkpt>
      <trkpt lat="46.12755" lon="6.71933">
        <ele>1776.4</ele>
        <time>2026-06-27T08:32:38Z</time>
      </trkpt>
      <trkpt lat="46.12755" lon="6.71933">
        <ele>1776.3</ele>
        <time>2026-06-27T08:32:39Z</time>
      </trkpt>
      <trkpt lat="46.12755" lon="6.71933">
        <ele>1776.3</ele>
        <time>2026-06-27T08:32:40Z</time>
      </trkpt>
      <trkpt lat="46.12755" lon="6.71932">
        <ele>1776.3</ele>
        <time>2026-06-27T08:32:41Z</time>
      </trkpt>
      <trkpt lat="46.12754" lon="6.71931">
        <ele>1776.4</ele>
        <time>2026-06-27T08:32:42Z</time>
      </trkpt>
      <trkpt lat="46.12754" lon="6.71931">
        <ele>1776.3</ele>
        <time>2026-06-27T08:32:43Z</time>
      </trkpt>
      <trkpt lat="46.12754" lon="6.7193">
        <ele>1776.3</ele>
        <time>2026-06-27T08:32:44Z</time>
      </trkpt>
      <trkpt lat="46.12754" lon="6.71929">
        <ele>1776.2</ele>
        <time>2026-06-27T08:32:45Z</time>
      </trkpt>
      <trkpt lat="46.12754" lon="6.71929">
        <ele>1776.1</ele>
        <time>2026-06-27T08:32:46Z</time>
      </trkpt>
      <trkpt lat="46.12753" lon="6.71929">
        <ele>1776.1</ele>
        <time>2026-06-27T08:32:47Z</time>
      </trkpt>
      <trkpt lat="46.12753" lon="6.71929">
        <ele>1776.1</ele>
        <time>2026-06-27T08:32:48Z</time>
      </trkpt>
      <trkpt lat="46.12753" lon="6.71929">
        <ele>1776.1</ele>
        <time>2026-06-27T08:32:49Z</time>
      </trkpt>
      <trkpt lat="46.12754" lon="6.71929">
        <ele>1776.1</ele>
        <time>2026-06-27T08:32:50Z</time>
      </trkpt>
      <trkpt lat="46.12754" lon="6.71928">
        <ele>1776</ele>
        <time>2026-06-27T08:32:51Z</time>
      </trkpt>
      <trkpt lat="46.12754" lon="6.71927">
        <ele>1775.8</ele>
        <time>2026-06-27T08:32:52Z</time>
      </trkpt>
      <trkpt lat="46.12755" lon="6.71927">
        <ele>1775.7</ele>
        <time>2026-06-27T08:32:53Z</time>
      </trkpt>
      <trkpt lat="46.12756" lon="6.71927">
        <ele>1775.5</ele>
        <time>2026-06-27T08:32:54Z</time>
      </trkpt>
      <trkpt lat="46.12757" lon="6.71927">
        <ele>1775.3</ele>
        <time>2026-06-27T08:32:55Z</time>
      </trkpt>
      <trkpt lat="46.12758" lon="6.71927">
        <ele>1775.2</ele>
        <time>2026-06-27T08:32:56Z</time>
      </trkpt>
      <trkpt lat="46.12759" lon="6.71926">
        <ele>1775</ele>
        <time>2026-06-27T08:32:57Z</time>
      </trkpt>
      <trkpt lat="46.12759" lon="6.71926">
        <ele>1774.9</ele>
        <time>2026-06-27T08:32:58Z</time>
      </trkpt>
      <trkpt lat="46.12759" lon="6.71926">
        <ele>1774.7</ele>
        <time>2026-06-27T08:32:59Z</time>
      </trkpt>
      <trkpt lat="46.12759" lon="6.71925">
        <ele>1774.6</ele>
        <time>2026-06-27T08:33:00Z</time>
      </trkpt>
      <trkpt lat="46.12759" lon="6.71925">
        <ele>1774.5</ele>
        <time>2026-06-27T08:33:01Z</time>
      </trkpt>
      <trkpt lat="46.1276" lon="6.71924">
        <ele>1774.4</ele>
        <time>2026-06-27T08:33:02Z</time>
      </trkpt>
      <trkpt lat="46.1276" lon="6.71924">
        <ele>1774.3</ele>
        <time>2026-06-27T08:33:03Z</time>
      </trkpt>
      <trkpt lat="46.12761" lon="6.71923">
        <ele>1774.2</ele>
        <time>2026-06-27T08:33:04Z</time>
      </trkpt>
      <trkpt lat="46.12762" lon="6.71922">
        <ele>1774.3</ele>
        <time>2026-06-27T08:33:05Z</time>
      </trkpt>
      <trkpt lat="46.12763" lon="6.71921">
        <ele>1774.1</ele>
        <time>2026-06-27T08:33:06Z</time>
      </trkpt>
      <trkpt lat="46.12764" lon="6.71921">
        <ele>1774</ele>
        <time>2026-06-27T08:33:07Z</time>
      </trkpt>
      <trkpt lat="46.12764" lon="6.7192">
        <ele>1774</ele>
        <time>2026-06-27T08:33:08Z</time>
      </trkpt>
      <trkpt lat="46.12765" lon="6.71919">
        <ele>1773.9</ele>
        <time>2026-06-27T08:33:09Z</time>
      </trkpt>
      <trkpt lat="46.12766" lon="6.71919">
        <ele>1773.8</ele>
        <time>2026-06-27T08:33:10Z</time>
      </trkpt>
      <trkpt lat="46.12767" lon="6.71918">
        <ele>1773.7</ele>
        <time>2026-06-27T08:33:11Z</time>
      </trkpt>
      <trkpt lat="46.12768" lon="6.71917">
        <ele>1773.5</ele>
        <time>2026-06-27T08:33:12Z</time>
      </trkpt>
      <trkpt lat="46.12769" lon="6.71916">
        <ele>1773.4</ele>
        <time>2026-06-27T08:33:13Z</time>
      </trkpt>
      <trkpt lat="46.1277" lon="6.71916">
        <ele>1773.2</ele>
        <time>2026-06-27T08:33:14Z</time>
      </trkpt>
      <trkpt lat="46.12771" lon="6.71916">
        <ele>1773.2</ele>
        <time>2026-06-27T08:33:15Z</time>
      </trkpt>
      <trkpt lat="46.12772" lon="6.71916">
        <ele>1773.1</ele>
        <time>2026-06-27T08:33:16Z</time>
      </trkpt>
      <trkpt lat="46.12772" lon="6.71916">
        <ele>1773</ele>
        <time>2026-06-27T08:33:17Z</time>
      </trkpt>
      <trkpt lat="46.12774" lon="6.71916">
        <ele>1773</ele>
        <time>2026-06-27T08:33:18Z</time>
      </trkpt>
      <trkpt lat="46.12775" lon="6.71915">
        <ele>1773</ele>
        <time>2026-06-27T08:33:19Z</time>
      </trkpt>
      <trkpt lat="46.12776" lon="6.71915">
        <ele>1772.9</ele>
        <time>2026-06-27T08:33:20Z</time>
      </trkpt>
      <trkpt lat="46.12776" lon="6.71915">
        <ele>1772.8</ele>
        <time>2026-06-27T08:33:21Z</time>
      </trkpt>
      <trkpt lat="46.12777" lon="6.71914">
        <ele>1772.6</ele>
        <time>2026-06-27T08:33:22Z</time>
      </trkpt>
      <trkpt lat="46.12777" lon="6.71914">
        <ele>1772.5</ele>
        <time>2026-06-27T08:33:23Z</time>
      </trkpt>
      <trkpt lat="46.12778" lon="6.71914">
        <ele>1772.4</ele>
        <time>2026-06-27T08:33:24Z</time>
      </trkpt>
      <trkpt lat="46.12779" lon="6.71914">
        <ele>1772.3</ele>
        <time>2026-06-27T08:33:25Z</time>
      </trkpt>
      <trkpt lat="46.12779" lon="6.71913">
        <ele>1772.2</ele>
        <time>2026-06-27T08:33:26Z</time>
      </trkpt>
      <trkpt lat="46.1278" lon="6.71913">
        <ele>1772.2</ele>
        <time>2026-06-27T08:33:27Z</time>
      </trkpt>
      <trkpt lat="46.1278" lon="6.71913">
        <ele>1772.1</ele>
        <time>2026-06-27T08:33:28Z</time>
      </trkpt>
      <trkpt lat="46.12781" lon="6.71912">
        <ele>1772</ele>
        <time>2026-06-27T08:33:29Z</time>
      </trkpt>
      <trkpt lat="46.12782" lon="6.71912">
        <ele>1771.9</ele>
        <time>2026-06-27T08:33:30Z</time>
      </trkpt>
      <trkpt lat="46.12783" lon="6.71912">
        <ele>1771.8</ele>
        <time>2026-06-27T08:33:31Z</time>
      </trkpt>
      <trkpt lat="46.12784" lon="6.71911">
        <ele>1771.6</ele>
        <time>2026-06-27T08:33:32Z</time>
      </trkpt>
      <trkpt lat="46.12785" lon="6.71911">
        <ele>1771.5</ele>
        <time>2026-06-27T08:33:33Z</time>
      </trkpt>
      <trkpt lat="46.12785" lon="6.71911">
        <ele>1771.5</ele>
        <time>2026-06-27T08:33:34Z</time>
      </trkpt>
      <trkpt lat="46.12786" lon="6.71911">
        <ele>1771.5</ele>
        <time>2026-06-27T08:33:35Z</time>
      </trkpt>
      <trkpt lat="46.12787" lon="6.71911">
        <ele>1771.4</ele>
        <time>2026-06-27T08:33:36Z</time>
      </trkpt>
      <trkpt lat="46.12787" lon="6.71911">
        <ele>1771.3</ele>
        <time>2026-06-27T08:33:37Z</time>
      </trkpt>
      <trkpt lat="46.12788" lon="6.7191">
        <ele>1771.3</ele>
        <time>2026-06-27T08:33:38Z</time>
      </trkpt>
      <trkpt lat="46.12788" lon="6.7191">
        <ele>1771.3</ele>
        <time>2026-06-27T08:33:39Z</time>
      </trkpt>
      <trkpt lat="46.12789" lon="6.7191">
        <ele>1771.1</ele>
        <time>2026-06-27T08:33:40Z</time>
      </trkpt>
      <trkpt lat="46.12789" lon="6.71909">
        <ele>1771</ele>
        <time>2026-06-27T08:33:41Z</time>
      </trkpt>
      <trkpt lat="46.1279" lon="6.71909">
        <ele>1770.8</ele>
        <time>2026-06-27T08:33:42Z</time>
      </trkpt>
      <trkpt lat="46.1279" lon="6.71909">
        <ele>1770.6</ele>
        <time>2026-06-27T08:33:43Z</time>
      </trkpt>
      <trkpt lat="46.12791" lon="6.71909">
        <ele>1770.5</ele>
        <time>2026-06-27T08:33:44Z</time>
      </trkpt>
      <trkpt lat="46.12792" lon="6.71908">
        <ele>1770.3</ele>
        <time>2026-06-27T08:33:45Z</time>
      </trkpt>
      <trkpt lat="46.12792" lon="6.71908">
        <ele>1770.2</ele>
        <time>2026-06-27T08:33:46Z</time>
      </trkpt>
      <trkpt lat="46.12793" lon="6.71908">
        <ele>1770</ele>
        <time>2026-06-27T08:33:47Z</time>
      </trkpt>
      <trkpt lat="46.12793" lon="6.71908">
        <ele>1769.8</ele>
        <time>2026-06-27T08:33:48Z</time>
      </trkpt>
      <trkpt lat="46.12793" lon="6.71908">
        <ele>1769.6</ele>
        <time>2026-06-27T08:33:49Z</time>
      </trkpt>
      <trkpt lat="46.12793" lon="6.71908">
        <ele>1769.5</ele>
        <time>2026-06-27T08:33:50Z</time>
      </trkpt>
      <trkpt lat="46.12792" lon="6.71908">
        <ele>1769.4</ele>
        <time>2026-06-27T08:33:51Z</time>
      </trkpt>
      <trkpt lat="46.12792" lon="6.71908">
        <ele>1769.4</ele>
        <time>2026-06-27T08:33:52Z</time>
      </trkpt>
      <trkpt lat="46.12792" lon="6.71908">
        <ele>1769.2</ele>
        <time>2026-06-27T08:33:53Z</time>
      </trkpt>
      <trkpt lat="46.12792" lon="6.71908">
        <ele>1769.1</ele>
        <time>2026-06-27T08:33:54Z</time>
      </trkpt>
      <trkpt lat="46.12792" lon="6.71908">
        <ele>1769.1</ele>
        <time>2026-06-27T08:33:55Z</time>
      </trkpt>
      <trkpt lat="46.12793" lon="6.71908">
        <ele>1769</ele>
        <time>2026-06-27T08:33:56Z</time>
      </trkpt>
      <trkpt lat="46.12794" lon="6.71907">
        <ele>1768.9</ele>
        <time>2026-06-27T08:33:57Z</time>
      </trkpt>
      <trkpt lat="46.12794" lon="6.71906">
        <ele>1768.8</ele>
        <time>2026-06-27T08:33:58Z</time>
      </trkpt>
      <trkpt lat="46.12795" lon="6.71906">
        <ele>1768.6</ele>
        <time>2026-06-27T08:33:59Z</time>
      </trkpt>
      <trkpt lat="46.12795" lon="6.71905">
        <ele>1768.5</ele>
        <time>2026-06-27T08:34:00Z</time>
      </trkpt>
      <trkpt lat="46.12796" lon="6.71904">
        <ele>1768.3</ele>
        <time>2026-06-27T08:34:01Z</time>
      </trkpt>
      <trkpt lat="46.12796" lon="6.71904">
        <ele>1768.2</ele>
        <time>2026-06-27T08:34:02Z</time>
      </trkpt>
      <trkpt lat="46.12797" lon="6.71903">
        <ele>1768.1</ele>
        <time>2026-06-27T08:34:03Z</time>
      </trkpt>
      <trkpt lat="46.12798" lon="6.71903">
        <ele>1767.8</ele>
        <time>2026-06-27T08:34:04Z</time>
      </trkpt>
      <trkpt lat="46.12798" lon="6.71902">
        <ele>1767.5</ele>
        <time>2026-06-27T08:34:05Z</time>
      </trkpt>
      <trkpt lat="46.12799" lon="6.71902">
        <ele>1767.3</ele>
        <time>2026-06-27T08:34:06Z</time>
      </trkpt>
      <trkpt lat="46.12799" lon="6.71901">
        <ele>1766.9</ele>
        <time>2026-06-27T08:34:07Z</time>
      </trkpt>
      <trkpt lat="46.128" lon="6.719">
        <ele>1766.7</ele>
        <time>2026-06-27T08:34:08Z</time>
      </trkpt>
      <trkpt lat="46.128" lon="6.719">
        <ele>1766.6</ele>
        <time>2026-06-27T08:34:09Z</time>
      </trkpt>
      <trkpt lat="46.12801" lon="6.71899">
        <ele>1766.4</ele>
        <time>2026-06-27T08:34:10Z</time>
      </trkpt>
      <trkpt lat="46.12802" lon="6.71899">
        <ele>1766.1</ele>
        <time>2026-06-27T08:34:11Z</time>
      </trkpt>
      <trkpt lat="46.12803" lon="6.71898">
        <ele>1765.9</ele>
        <time>2026-06-27T08:34:12Z</time>
      </trkpt>
      <trkpt lat="46.12804" lon="6.71898">
        <ele>1765.7</ele>
        <time>2026-06-27T08:34:13Z</time>
      </trkpt>
      <trkpt lat="46.12804" lon="6.71898">
        <ele>1765.5</ele>
        <time>2026-06-27T08:34:14Z</time>
      </trkpt>
      <trkpt lat="46.12805" lon="6.71897">
        <ele>1765.3</ele>
        <time>2026-06-27T08:34:15Z</time>
      </trkpt>
      <trkpt lat="46.12805" lon="6.71897">
        <ele>1765.1</ele>
        <time>2026-06-27T08:34:16Z</time>
      </trkpt>
      <trkpt lat="46.12806" lon="6.71896">
        <ele>1765</ele>
        <time>2026-06-27T08:34:17Z</time>
      </trkpt>
      <trkpt lat="46.12806" lon="6.71895">
        <ele>1764.9</ele>
        <time>2026-06-27T08:34:18Z</time>
      </trkpt>
      <trkpt lat="46.12806" lon="6.71894">
        <ele>1764.8</ele>
        <time>2026-06-27T08:34:19Z</time>
      </trkpt>
      <trkpt lat="46.12806" lon="6.71893">
        <ele>1764.5</ele>
        <time>2026-06-27T08:34:20Z</time>
      </trkpt>
      <trkpt lat="46.12807" lon="6.71893">
        <ele>1764.3</ele>
        <time>2026-06-27T08:34:21Z</time>
      </trkpt>
      <trkpt lat="46.12807" lon="6.71892">
        <ele>1764.1</ele>
        <time>2026-06-27T08:34:22Z</time>
      </trkpt>
      <trkpt lat="46.12808" lon="6.71892">
        <ele>1763.8</ele>
        <time>2026-06-27T08:34:23Z</time>
      </trkpt>
      <trkpt lat="46.12808" lon="6.71891">
        <ele>1763.6</ele>
        <time>2026-06-27T08:34:24Z</time>
      </trkpt>
      <trkpt lat="46.12808" lon="6.7189">
        <ele>1763.3</ele>
        <time>2026-06-27T08:34:25Z</time>
      </trkpt>
      <trkpt lat="46.12809" lon="6.7189">
        <ele>1763.1</ele>
        <time>2026-06-27T08:34:26Z</time>
      </trkpt>
      <trkpt lat="46.1281" lon="6.71889">
        <ele>1762.9</ele>
        <time>2026-06-27T08:34:27Z</time>
      </trkpt>
      <trkpt lat="46.1281" lon="6.71889">
        <ele>1762.6</ele>
        <time>2026-06-27T08:34:28Z</time>
      </trkpt>
      <trkpt lat="46.12811" lon="6.71888">
        <ele>1762.3</ele>
        <time>2026-06-27T08:34:29Z</time>
      </trkpt>
      <trkpt lat="46.12811" lon="6.71888">
        <ele>1761.9</ele>
        <time>2026-06-27T08:34:30Z</time>
      </trkpt>
      <trkpt lat="46.12812" lon="6.71887">
        <ele>1761.6</ele>
        <time>2026-06-27T08:34:31Z</time>
      </trkpt>
      <trkpt lat="46.12812" lon="6.71886">
        <ele>1761.3</ele>
        <time>2026-06-27T08:34:32Z</time>
      </trkpt>
      <trkpt lat="46.12812" lon="6.71886">
        <ele>1761</ele>
        <time>2026-06-27T08:34:33Z</time>
      </trkpt>
      <trkpt lat="46.12812" lon="6.71884">
        <ele>1760.6</ele>
        <time>2026-06-27T08:34:34Z</time>
      </trkpt>
      <trkpt lat="46.12811" lon="6.71884">
        <ele>1760.3</ele>
        <time>2026-06-27T08:34:35Z</time>
      </trkpt>
      <trkpt lat="46.12812" lon="6.71882">
        <ele>1760</ele>
        <time>2026-06-27T08:34:36Z</time>
      </trkpt>
      <trkpt lat="46.12812" lon="6.71881">
        <ele>1759.8</ele>
        <time>2026-06-27T08:34:37Z</time>
      </trkpt>
      <trkpt lat="46.12812" lon="6.71881">
        <ele>1759.6</ele>
        <time>2026-06-27T08:34:38Z</time>
      </trkpt>
      <trkpt lat="46.12813" lon="6.71881">
        <ele>1759.4</ele>
        <time>2026-06-27T08:34:39Z</time>
      </trkpt>
      <trkpt lat="46.12813" lon="6.71881">
        <ele>1759.2</ele>
        <time>2026-06-27T08:34:40Z</time>
      </trkpt>
      <trkpt lat="46.12814" lon="6.71881">
        <ele>1758.9</ele>
        <time>2026-06-27T08:34:41Z</time>
      </trkpt>
      <trkpt lat="46.12814" lon="6.71881">
        <ele>1758.7</ele>
        <time>2026-06-27T08:34:42Z</time>
      </trkpt>
      <trkpt lat="46.12815" lon="6.71881">
        <ele>1758.6</ele>
        <time>2026-06-27T08:34:43Z</time>
      </trkpt>
      <trkpt lat="46.12815" lon="6.71881">
        <ele>1758.4</ele>
        <time>2026-06-27T08:34:44Z</time>
      </trkpt>
      <trkpt lat="46.12816" lon="6.7188">
        <ele>1758.3</ele>
        <time>2026-06-27T08:34:45Z</time>
      </trkpt>
      <trkpt lat="46.12816" lon="6.7188">
        <ele>1758.1</ele>
        <time>2026-06-27T08:34:46Z</time>
      </trkpt>
      <trkpt lat="46.12817" lon="6.71879">
        <ele>1757.9</ele>
        <time>2026-06-27T08:34:47Z</time>
      </trkpt>
      <trkpt lat="46.12817" lon="6.71879">
        <ele>1757.5</ele>
        <time>2026-06-27T08:34:48Z</time>
      </trkpt>
      <trkpt lat="46.12818" lon="6.71879">
        <ele>1757.3</ele>
        <time>2026-06-27T08:34:49Z</time>
      </trkpt>
      <trkpt lat="46.12819" lon="6.71878">
        <ele>1757.1</ele>
        <time>2026-06-27T08:34:50Z</time>
      </trkpt>
      <trkpt lat="46.1282" lon="6.71878">
        <ele>1756.9</ele>
        <time>2026-06-27T08:34:51Z</time>
      </trkpt>
      <trkpt lat="46.1282" lon="6.71877">
        <ele>1756.6</ele>
        <time>2026-06-27T08:34:52Z</time>
      </trkpt>
      <trkpt lat="46.1282" lon="6.71876">
        <ele>1756.4</ele>
        <time>2026-06-27T08:34:53Z</time>
      </trkpt>
      <trkpt lat="46.12821" lon="6.71875">
        <ele>1756.2</ele>
        <time>2026-06-27T08:34:54Z</time>
      </trkpt>
      <trkpt lat="46.12821" lon="6.71875">
        <ele>1756</ele>
        <time>2026-06-27T08:34:55Z</time>
      </trkpt>
      <trkpt lat="46.12821" lon="6.71874">
        <ele>1755.7</ele>
        <time>2026-06-27T08:34:56Z</time>
      </trkpt>
      <trkpt lat="46.12822" lon="6.71874">
        <ele>1755.5</ele>
        <time>2026-06-27T08:34:57Z</time>
      </trkpt>
      <trkpt lat="46.12822" lon="6.71873">
        <ele>1755.3</ele>
        <time>2026-06-27T08:34:58Z</time>
      </trkpt>
      <trkpt lat="46.12823" lon="6.71872">
        <ele>1755</ele>
        <time>2026-06-27T08:34:59Z</time>
      </trkpt>
      <trkpt lat="46.12823" lon="6.71872">
        <ele>1754.8</ele>
        <time>2026-06-27T08:35:00Z</time>
      </trkpt>
      <trkpt lat="46.12824" lon="6.71871">
        <ele>1754.5</ele>
        <time>2026-06-27T08:35:01Z</time>
      </trkpt>
      <trkpt lat="46.12824" lon="6.71871">
        <ele>1754.2</ele>
        <time>2026-06-27T08:35:02Z</time>
      </trkpt>
      <trkpt lat="46.12825" lon="6.71871">
        <ele>1754</ele>
        <time>2026-06-27T08:35:03Z</time>
      </trkpt>
      <trkpt lat="46.12825" lon="6.7187">
        <ele>1753.8</ele>
        <time>2026-06-27T08:35:04Z</time>
      </trkpt>
      <trkpt lat="46.12826" lon="6.71869">
        <ele>1753.5</ele>
        <time>2026-06-27T08:35:05Z</time>
      </trkpt>
      <trkpt lat="46.12826" lon="6.71868">
        <ele>1753.3</ele>
        <time>2026-06-27T08:35:06Z</time>
      </trkpt>
      <trkpt lat="46.12826" lon="6.71867">
        <ele>1753</ele>
        <time>2026-06-27T08:35:07Z</time>
      </trkpt>
      <trkpt lat="46.12826" lon="6.71866">
        <ele>1752.8</ele>
        <time>2026-06-27T08:35:08Z</time>
      </trkpt>
      <trkpt lat="46.12827" lon="6.71865">
        <ele>1752.6</ele>
        <time>2026-06-27T08:35:09Z</time>
      </trkpt>
      <trkpt lat="46.12827" lon="6.71864">
        <ele>1752.4</ele>
        <time>2026-06-27T08:35:10Z</time>
      </trkpt>
      <trkpt lat="46.12828" lon="6.71863">
        <ele>1752.3</ele>
        <time>2026-06-27T08:35:11Z</time>
      </trkpt>
      <trkpt lat="46.12828" lon="6.71862">
        <ele>1752.2</ele>
        <time>2026-06-27T08:35:12Z</time>
      </trkpt>
      <trkpt lat="46.12829" lon="6.71862">
        <ele>1752</ele>
        <time>2026-06-27T08:35:13Z</time>
      </trkpt>
      <trkpt lat="46.12829" lon="6.71861">
        <ele>1751.8</ele>
        <time>2026-06-27T08:35:14Z</time>
      </trkpt>
      <trkpt lat="46.1283" lon="6.71861">
        <ele>1751.7</ele>
        <time>2026-06-27T08:35:15Z</time>
      </trkpt>
      <trkpt lat="46.12831" lon="6.7186">
        <ele>1751.4</ele>
        <time>2026-06-27T08:35:16Z</time>
      </trkpt>
      <trkpt lat="46.12831" lon="6.7186">
        <ele>1751.2</ele>
        <time>2026-06-27T08:35:17Z</time>
      </trkpt>
      <trkpt lat="46.12832" lon="6.7186">
        <ele>1751</ele>
        <time>2026-06-27T08:35:18Z</time>
      </trkpt>
      <trkpt lat="46.12833" lon="6.71859">
        <ele>1750.9</ele>
        <time>2026-06-27T08:35:19Z</time>
      </trkpt>
      <trkpt lat="46.12834" lon="6.71859">
        <ele>1750.8</ele>
        <time>2026-06-27T08:35:20Z</time>
      </trkpt>
      <trkpt lat="46.12834" lon="6.71858">
        <ele>1750.8</ele>
        <time>2026-06-27T08:35:21Z</time>
      </trkpt>
      <trkpt lat="46.12834" lon="6.71857">
        <ele>1750.6</ele>
        <time>2026-06-27T08:35:22Z</time>
      </trkpt>
      <trkpt lat="46.12834" lon="6.71856">
        <ele>1750.4</ele>
        <time>2026-06-27T08:35:23Z</time>
      </trkpt>
      <trkpt lat="46.12834" lon="6.71856">
        <ele>1750.3</ele>
        <time>2026-06-27T08:35:24Z</time>
      </trkpt>
      <trkpt lat="46.12835" lon="6.71855">
        <ele>1750.1</ele>
        <time>2026-06-27T08:35:25Z</time>
      </trkpt>
      <trkpt lat="46.12835" lon="6.71854">
        <ele>1749.9</ele>
        <time>2026-06-27T08:35:26Z</time>
      </trkpt>
      <trkpt lat="46.12836" lon="6.71853">
        <ele>1749.6</ele>
        <time>2026-06-27T08:35:27Z</time>
      </trkpt>
      <trkpt lat="46.12836" lon="6.71853">
        <ele>1749.5</ele>
        <time>2026-06-27T08:35:28Z</time>
      </trkpt>
      <trkpt lat="46.12837" lon="6.71852">
        <ele>1749.2</ele>
        <time>2026-06-27T08:35:29Z</time>
      </trkpt>
      <trkpt lat="46.12838" lon="6.71852">
        <ele>1749.1</ele>
        <time>2026-06-27T08:35:30Z</time>
      </trkpt>
      <trkpt lat="46.12838" lon="6.71851">
        <ele>1748.9</ele>
        <time>2026-06-27T08:35:31Z</time>
      </trkpt>
      <trkpt lat="46.12839" lon="6.71851">
        <ele>1748.8</ele>
        <time>2026-06-27T08:35:32Z</time>
      </trkpt>
      <trkpt lat="46.1284" lon="6.7185">
        <ele>1748.5</ele>
        <time>2026-06-27T08:35:33Z</time>
      </trkpt>
      <trkpt lat="46.1284" lon="6.71849">
        <ele>1748.3</ele>
        <time>2026-06-27T08:35:34Z</time>
      </trkpt>
      <trkpt lat="46.1284" lon="6.71848">
        <ele>1748.3</ele>
        <time>2026-06-27T08:35:35Z</time>
      </trkpt>
      <trkpt lat="46.12841" lon="6.71848">
        <ele>1748.2</ele>
        <time>2026-06-27T08:35:36Z</time>
      </trkpt>
      <trkpt lat="46.12842" lon="6.71848">
        <ele>1748</ele>
        <time>2026-06-27T08:35:37Z</time>
      </trkpt>
      <trkpt lat="46.12842" lon="6.71848">
        <ele>1747.8</ele>
        <time>2026-06-27T08:35:38Z</time>
      </trkpt>
      <trkpt lat="46.12843" lon="6.71847">
        <ele>1747.6</ele>
        <time>2026-06-27T08:35:39Z</time>
      </trkpt>
      <trkpt lat="46.12843" lon="6.71847">
        <ele>1747.3</ele>
        <time>2026-06-27T08:35:40Z</time>
      </trkpt>
      <trkpt lat="46.12844" lon="6.71847">
        <ele>1747.1</ele>
        <time>2026-06-27T08:35:41Z</time>
      </trkpt>
      <trkpt lat="46.12844" lon="6.71846">
        <ele>1746.8</ele>
        <time>2026-06-27T08:35:42Z</time>
      </trkpt>
      <trkpt lat="46.12845" lon="6.71846">
        <ele>1746.5</ele>
        <time>2026-06-27T08:35:43Z</time>
      </trkpt>
      <trkpt lat="46.12846" lon="6.71844">
        <ele>1746.3</ele>
        <time>2026-06-27T08:35:44Z</time>
      </trkpt>
      <trkpt lat="46.12846" lon="6.71844">
        <ele>1746</ele>
        <time>2026-06-27T08:35:45Z</time>
      </trkpt>
      <trkpt lat="46.12847" lon="6.71843">
        <ele>1745.7</ele>
        <time>2026-06-27T08:35:46Z</time>
      </trkpt>
      <trkpt lat="46.12847" lon="6.71843">
        <ele>1745.6</ele>
        <time>2026-06-27T08:35:47Z</time>
      </trkpt>
      <trkpt lat="46.12848" lon="6.71843">
        <ele>1745.4</ele>
        <time>2026-06-27T08:35:48Z</time>
      </trkpt>
      <trkpt lat="46.12848" lon="6.71842">
        <ele>1745.2</ele>
        <time>2026-06-27T08:35:49Z</time>
      </trkpt>
      <trkpt lat="46.12849" lon="6.71841">
        <ele>1745</ele>
        <time>2026-06-27T08:35:50Z</time>
      </trkpt>
      <trkpt lat="46.1285" lon="6.7184">
        <ele>1744.9</ele>
        <time>2026-06-27T08:35:51Z</time>
      </trkpt>
      <trkpt lat="46.1285" lon="6.7184">
        <ele>1744.4</ele>
        <time>2026-06-27T08:35:52Z</time>
      </trkpt>
      <trkpt lat="46.12851" lon="6.7184">
        <ele>1744.1</ele>
        <time>2026-06-27T08:35:53Z</time>
      </trkpt>
      <trkpt lat="46.12852" lon="6.71839">
        <ele>1743.9</ele>
        <time>2026-06-27T08:35:54Z</time>
      </trkpt>
      <trkpt lat="46.12853" lon="6.71838">
        <ele>1743.7</ele>
        <time>2026-06-27T08:35:55Z</time>
      </trkpt>
      <trkpt lat="46.12853" lon="6.71837">
        <ele>1743.6</ele>
        <time>2026-06-27T08:35:56Z</time>
      </trkpt>
      <trkpt lat="46.12853" lon="6.71837">
        <ele>1743.5</ele>
        <time>2026-06-27T08:35:57Z</time>
      </trkpt>
      <trkpt lat="46.12853" lon="6.71836">
        <ele>1743.3</ele>
        <time>2026-06-27T08:35:58Z</time>
      </trkpt>
      <trkpt lat="46.12854" lon="6.71836">
        <ele>1743.1</ele>
        <time>2026-06-27T08:35:59Z</time>
      </trkpt>
      <trkpt lat="46.12854" lon="6.71835">
        <ele>1742.9</ele>
        <time>2026-06-27T08:36:00Z</time>
      </trkpt>
      <trkpt lat="46.12854" lon="6.71834">
        <ele>1742.9</ele>
        <time>2026-06-27T08:36:01Z</time>
      </trkpt>
      <trkpt lat="46.12855" lon="6.71833">
        <ele>1742.7</ele>
        <time>2026-06-27T08:36:02Z</time>
      </trkpt>
      <trkpt lat="46.12856" lon="6.71833">
        <ele>1742.5</ele>
        <time>2026-06-27T08:36:03Z</time>
      </trkpt>
      <trkpt lat="46.12857" lon="6.71832">
        <ele>1742.3</ele>
        <time>2026-06-27T08:36:04Z</time>
      </trkpt>
      <trkpt lat="46.12857" lon="6.71832">
        <ele>1742.1</ele>
        <time>2026-06-27T08:36:05Z</time>
      </trkpt>
      <trkpt lat="46.12858" lon="6.71831">
        <ele>1742</ele>
        <time>2026-06-27T08:36:06Z</time>
      </trkpt>
      <trkpt lat="46.12859" lon="6.7183">
        <ele>1741.9</ele>
        <time>2026-06-27T08:36:07Z</time>
      </trkpt>
      <trkpt lat="46.1286" lon="6.71829">
        <ele>1741.9</ele>
        <time>2026-06-27T08:36:08Z</time>
      </trkpt>
      <trkpt lat="46.1286" lon="6.71828">
        <ele>1741.7</ele>
        <time>2026-06-27T08:36:09Z</time>
      </trkpt>
      <trkpt lat="46.12861" lon="6.71827">
        <ele>1741.5</ele>
        <time>2026-06-27T08:36:10Z</time>
      </trkpt>
      <trkpt lat="46.12861" lon="6.71827">
        <ele>1741.3</ele>
        <time>2026-06-27T08:36:11Z</time>
      </trkpt>
      <trkpt lat="46.12862" lon="6.71826">
        <ele>1741.2</ele>
        <time>2026-06-27T08:36:12Z</time>
      </trkpt>
      <trkpt lat="46.12864" lon="6.71825">
        <ele>1741</ele>
        <time>2026-06-27T08:36:13Z</time>
      </trkpt>
      <trkpt lat="46.12864" lon="6.71824">
        <ele>1740.9</ele>
        <time>2026-06-27T08:36:14Z</time>
      </trkpt>
      <trkpt lat="46.12865" lon="6.71824">
        <ele>1740.7</ele>
        <time>2026-06-27T08:36:15Z</time>
      </trkpt>
      <trkpt lat="46.12865" lon="6.71823">
        <ele>1740.6</ele>
        <time>2026-06-27T08:36:16Z</time>
      </trkpt>
      <trkpt lat="46.12866" lon="6.71822">
        <ele>1740.5</ele>
        <time>2026-06-27T08:36:17Z</time>
      </trkpt>
      <trkpt lat="46.12866" lon="6.7182">
        <ele>1740.4</ele>
        <time>2026-06-27T08:36:18Z</time>
      </trkpt>
      <trkpt lat="46.12867" lon="6.7182">
        <ele>1740.2</ele>
        <time>2026-06-27T08:36:19Z</time>
      </trkpt>
      <trkpt lat="46.12868" lon="6.71819">
        <ele>1740</ele>
        <time>2026-06-27T08:36:20Z</time>
      </trkpt>
      <trkpt lat="46.12868" lon="6.71818">
        <ele>1739.8</ele>
        <time>2026-06-27T08:36:21Z</time>
      </trkpt>
      <trkpt lat="46.12869" lon="6.71817">
        <ele>1739.6</ele>
        <time>2026-06-27T08:36:22Z</time>
      </trkpt>
      <trkpt lat="46.1287" lon="6.71816">
        <ele>1739.4</ele>
        <time>2026-06-27T08:36:23Z</time>
      </trkpt>
      <trkpt lat="46.12871" lon="6.71815">
        <ele>1739.3</ele>
        <time>2026-06-27T08:36:24Z</time>
      </trkpt>
      <trkpt lat="46.12872" lon="6.71814">
        <ele>1739.1</ele>
        <time>2026-06-27T08:36:25Z</time>
      </trkpt>
      <trkpt lat="46.12873" lon="6.71813">
        <ele>1739</ele>
        <time>2026-06-27T08:36:26Z</time>
      </trkpt>
      <trkpt lat="46.12874" lon="6.71812">
        <ele>1738.8</ele>
        <time>2026-06-27T08:36:27Z</time>
      </trkpt>
      <trkpt lat="46.12874" lon="6.71812">
        <ele>1738.6</ele>
        <time>2026-06-27T08:36:28Z</time>
      </trkpt>
      <trkpt lat="46.12875" lon="6.71811">
        <ele>1738.4</ele>
        <time>2026-06-27T08:36:29Z</time>
      </trkpt>
      <trkpt lat="46.12876" lon="6.71811">
        <ele>1738.3</ele>
        <time>2026-06-27T08:36:30Z</time>
      </trkpt>
      <trkpt lat="46.12876" lon="6.71811">
        <ele>1738.2</ele>
        <time>2026-06-27T08:36:31Z</time>
      </trkpt>
      <trkpt lat="46.12877" lon="6.7181">
        <ele>1738.1</ele>
        <time>2026-06-27T08:36:32Z</time>
      </trkpt>
      <trkpt lat="46.12877" lon="6.7181">
        <ele>1738</ele>
        <time>2026-06-27T08:36:33Z</time>
      </trkpt>
      <trkpt lat="46.12877" lon="6.71809">
        <ele>1738</ele>
        <time>2026-06-27T08:36:34Z</time>
      </trkpt>
      <trkpt lat="46.12878" lon="6.71808">
        <ele>1737.9</ele>
        <time>2026-06-27T08:36:35Z</time>
      </trkpt>
      <trkpt lat="46.12878" lon="6.71807">
        <ele>1737.8</ele>
        <time>2026-06-27T08:36:36Z</time>
      </trkpt>
      <trkpt lat="46.12878" lon="6.71806">
        <ele>1737.6</ele>
        <time>2026-06-27T08:36:37Z</time>
      </trkpt>
      <trkpt lat="46.12879" lon="6.71806">
        <ele>1737.3</ele>
        <time>2026-06-27T08:36:38Z</time>
      </trkpt>
      <trkpt lat="46.12879" lon="6.71805">
        <ele>1737.1</ele>
        <time>2026-06-27T08:36:39Z</time>
      </trkpt>
      <trkpt lat="46.1288" lon="6.71805">
        <ele>1736.9</ele>
        <time>2026-06-27T08:36:40Z</time>
      </trkpt>
      <trkpt lat="46.12881" lon="6.71804">
        <ele>1736.7</ele>
        <time>2026-06-27T08:36:41Z</time>
      </trkpt>
      <trkpt lat="46.12881" lon="6.71804">
        <ele>1736.5</ele>
        <time>2026-06-27T08:36:42Z</time>
      </trkpt>
      <trkpt lat="46.12882" lon="6.71803">
        <ele>1736.2</ele>
        <time>2026-06-27T08:36:43Z</time>
      </trkpt>
      <trkpt lat="46.12882" lon="6.71802">
        <ele>1735.9</ele>
        <time>2026-06-27T08:36:44Z</time>
      </trkpt>
      <trkpt lat="46.12882" lon="6.71801">
        <ele>1735.5</ele>
        <time>2026-06-27T08:36:45Z</time>
      </trkpt>
      <trkpt lat="46.12883" lon="6.718">
        <ele>1735.4</ele>
        <time>2026-06-27T08:36:46Z</time>
      </trkpt>
      <trkpt lat="46.12883" lon="6.718">
        <ele>1735.3</ele>
        <time>2026-06-27T08:36:47Z</time>
      </trkpt>
      <trkpt lat="46.12884" lon="6.71799">
        <ele>1735.2</ele>
        <time>2026-06-27T08:36:48Z</time>
      </trkpt>
      <trkpt lat="46.12884" lon="6.71799">
        <ele>1735</ele>
        <time>2026-06-27T08:36:49Z</time>
      </trkpt>
      <trkpt lat="46.12885" lon="6.71798">
        <ele>1734.9</ele>
        <time>2026-06-27T08:36:50Z</time>
      </trkpt>
      <trkpt lat="46.12886" lon="6.71798">
        <ele>1734.8</ele>
        <time>2026-06-27T08:36:51Z</time>
      </trkpt>
      <trkpt lat="46.12887" lon="6.71797">
        <ele>1734.7</ele>
        <time>2026-06-27T08:36:52Z</time>
      </trkpt>
      <trkpt lat="46.12888" lon="6.71796">
        <ele>1734.4</ele>
        <time>2026-06-27T08:36:53Z</time>
      </trkpt>
      <trkpt lat="46.12889" lon="6.71795">
        <ele>1734.3</ele>
        <time>2026-06-27T08:36:54Z</time>
      </trkpt>
      <trkpt lat="46.1289" lon="6.71794">
        <ele>1734.1</ele>
        <time>2026-06-27T08:36:55Z</time>
      </trkpt>
      <trkpt lat="46.1289" lon="6.71793">
        <ele>1733.9</ele>
        <time>2026-06-27T08:36:56Z</time>
      </trkpt>
      <trkpt lat="46.1289" lon="6.71792">
        <ele>1733.7</ele>
        <time>2026-06-27T08:36:57Z</time>
      </trkpt>
      <trkpt lat="46.12891" lon="6.71791">
        <ele>1733.5</ele>
        <time>2026-06-27T08:36:58Z</time>
      </trkpt>
      <trkpt lat="46.12891" lon="6.7179">
        <ele>1733.4</ele>
        <time>2026-06-27T08:36:59Z</time>
      </trkpt>
      <trkpt lat="46.12892" lon="6.7179">
        <ele>1733.2</ele>
        <time>2026-06-27T08:37:00Z</time>
      </trkpt>
      <trkpt lat="46.12893" lon="6.71789">
        <ele>1733</ele>
        <time>2026-06-27T08:37:01Z</time>
      </trkpt>
      <trkpt lat="46.12893" lon="6.71788">
        <ele>1732.9</ele>
        <time>2026-06-27T08:37:02Z</time>
      </trkpt>
      <trkpt lat="46.12894" lon="6.71787">
        <ele>1732.7</ele>
        <time>2026-06-27T08:37:03Z</time>
      </trkpt>
      <trkpt lat="46.12894" lon="6.71786">
        <ele>1732.6</ele>
        <time>2026-06-27T08:37:04Z</time>
      </trkpt>
      <trkpt lat="46.12895" lon="6.71785">
        <ele>1732.5</ele>
        <time>2026-06-27T08:37:05Z</time>
      </trkpt>
      <trkpt lat="46.12896" lon="6.71784">
        <ele>1732.4</ele>
        <time>2026-06-27T08:37:06Z</time>
      </trkpt>
      <trkpt lat="46.12897" lon="6.71783">
        <ele>1732.2</ele>
        <time>2026-06-27T08:37:07Z</time>
      </trkpt>
      <trkpt lat="46.12897" lon="6.71782">
        <ele>1732.1</ele>
        <time>2026-06-27T08:37:08Z</time>
      </trkpt>
      <trkpt lat="46.12898" lon="6.7178">
        <ele>1731.9</ele>
        <time>2026-06-27T08:37:09Z</time>
      </trkpt>
      <trkpt lat="46.12898" lon="6.71779">
        <ele>1731.8</ele>
        <time>2026-06-27T08:37:10Z</time>
      </trkpt>
      <trkpt lat="46.12899" lon="6.71778">
        <ele>1731.6</ele>
        <time>2026-06-27T08:37:11Z</time>
      </trkpt>
      <trkpt lat="46.12899" lon="6.71777">
        <ele>1731.6</ele>
        <time>2026-06-27T08:37:12Z</time>
      </trkpt>
      <trkpt lat="46.12899" lon="6.71777">
        <ele>1731.2</ele>
        <time>2026-06-27T08:37:13Z</time>
      </trkpt>
      <trkpt lat="46.12899" lon="6.71776">
        <ele>1731</ele>
        <time>2026-06-27T08:37:14Z</time>
      </trkpt>
      <trkpt lat="46.129" lon="6.71775">
        <ele>1730.8</ele>
        <time>2026-06-27T08:37:15Z</time>
      </trkpt>
      <trkpt lat="46.129" lon="6.71774">
        <ele>1730.7</ele>
        <time>2026-06-27T08:37:16Z</time>
      </trkpt>
      <trkpt lat="46.129" lon="6.71773">
        <ele>1730.6</ele>
        <time>2026-06-27T08:37:17Z</time>
      </trkpt>
      <trkpt lat="46.12901" lon="6.71772">
        <ele>1730.4</ele>
        <time>2026-06-27T08:37:18Z</time>
      </trkpt>
      <trkpt lat="46.12901" lon="6.71771">
        <ele>1730.3</ele>
        <time>2026-06-27T08:37:19Z</time>
      </trkpt>
      <trkpt lat="46.12901" lon="6.7177">
        <ele>1730.1</ele>
        <time>2026-06-27T08:37:20Z</time>
      </trkpt>
      <trkpt lat="46.12901" lon="6.71769">
        <ele>1729.9</ele>
        <time>2026-06-27T08:37:21Z</time>
      </trkpt>
      <trkpt lat="46.12901" lon="6.71767">
        <ele>1729.7</ele>
        <time>2026-06-27T08:37:22Z</time>
      </trkpt>
      <trkpt lat="46.12901" lon="6.71766">
        <ele>1729.5</ele>
        <time>2026-06-27T08:37:23Z</time>
      </trkpt>
      <trkpt lat="46.12901" lon="6.71764">
        <ele>1729.2</ele>
        <time>2026-06-27T08:37:24Z</time>
      </trkpt>
      <trkpt lat="46.12901" lon="6.71763">
        <ele>1729</ele>
        <time>2026-06-27T08:37:25Z</time>
      </trkpt>
      <trkpt lat="46.12901" lon="6.71762">
        <ele>1728.7</ele>
        <time>2026-06-27T08:37:26Z</time>
      </trkpt>
      <trkpt lat="46.12901" lon="6.7176">
        <ele>1728.4</ele>
        <time>2026-06-27T08:37:27Z</time>
      </trkpt>
      <trkpt lat="46.12901" lon="6.71759">
        <ele>1728.2</ele>
        <time>2026-06-27T08:37:28Z</time>
      </trkpt>
      <trkpt lat="46.12902" lon="6.71757">
        <ele>1728</ele>
        <time>2026-06-27T08:37:29Z</time>
      </trkpt>
      <trkpt lat="46.12902" lon="6.71756">
        <ele>1727.7</ele>
        <time>2026-06-27T08:37:30Z</time>
      </trkpt>
      <trkpt lat="46.12903" lon="6.71755">
        <ele>1727.5</ele>
        <time>2026-06-27T08:37:31Z</time>
      </trkpt>
      <trkpt lat="46.12903" lon="6.71753">
        <ele>1727.3</ele>
        <time>2026-06-27T08:37:32Z</time>
      </trkpt>
      <trkpt lat="46.12903" lon="6.71751">
        <ele>1727.1</ele>
        <time>2026-06-27T08:37:33Z</time>
      </trkpt>
      <trkpt lat="46.12903" lon="6.71749">
        <ele>1726.9</ele>
        <time>2026-06-27T08:37:34Z</time>
      </trkpt>
      <trkpt lat="46.12903" lon="6.71748">
        <ele>1726.7</ele>
        <time>2026-06-27T08:37:35Z</time>
      </trkpt>
      <trkpt lat="46.12903" lon="6.71747">
        <ele>1726.5</ele>
        <time>2026-06-27T08:37:36Z</time>
      </trkpt>
      <trkpt lat="46.12903" lon="6.71746">
        <ele>1726.1</ele>
        <time>2026-06-27T08:37:37Z</time>
      </trkpt>
      <trkpt lat="46.12903" lon="6.71744">
        <ele>1725.9</ele>
        <time>2026-06-27T08:37:38Z</time>
      </trkpt>
      <trkpt lat="46.12903" lon="6.71742">
        <ele>1725.8</ele>
        <time>2026-06-27T08:37:39Z</time>
      </trkpt>
      <trkpt lat="46.12903" lon="6.71741">
        <ele>1725.6</ele>
        <time>2026-06-27T08:37:40Z</time>
      </trkpt>
      <trkpt lat="46.12904" lon="6.7174">
        <ele>1725.5</ele>
        <time>2026-06-27T08:37:41Z</time>
      </trkpt>
      <trkpt lat="46.12903" lon="6.71738">
        <ele>1725.3</ele>
        <time>2026-06-27T08:37:42Z</time>
      </trkpt>
      <trkpt lat="46.12903" lon="6.71737">
        <ele>1725.2</ele>
        <time>2026-06-27T08:37:43Z</time>
      </trkpt>
      <trkpt lat="46.12903" lon="6.71736">
        <ele>1725</ele>
        <time>2026-06-27T08:37:44Z</time>
      </trkpt>
      <trkpt lat="46.12903" lon="6.71734">
        <ele>1724.8</ele>
        <time>2026-06-27T08:37:45Z</time>
      </trkpt>
      <trkpt lat="46.12903" lon="6.71733">
        <ele>1724.7</ele>
        <time>2026-06-27T08:37:46Z</time>
      </trkpt>
      <trkpt lat="46.12903" lon="6.71732">
        <ele>1724.5</ele>
        <time>2026-06-27T08:37:47Z</time>
      </trkpt>
      <trkpt lat="46.12903" lon="6.7173">
        <ele>1724.3</ele>
        <time>2026-06-27T08:37:48Z</time>
      </trkpt>
      <trkpt lat="46.12903" lon="6.71728">
        <ele>1724.1</ele>
        <time>2026-06-27T08:37:49Z</time>
      </trkpt>
      <trkpt lat="46.12903" lon="6.71726">
        <ele>1723.9</ele>
        <time>2026-06-27T08:37:50Z</time>
      </trkpt>
      <trkpt lat="46.12903" lon="6.71725">
        <ele>1723.7</ele>
        <time>2026-06-27T08:37:51Z</time>
      </trkpt>
      <trkpt lat="46.12902" lon="6.71723">
        <ele>1723.6</ele>
        <time>2026-06-27T08:37:52Z</time>
      </trkpt>
      <trkpt lat="46.12902" lon="6.71721">
        <ele>1723.4</ele>
        <time>2026-06-27T08:37:53Z</time>
      </trkpt>
      <trkpt lat="46.12902" lon="6.7172">
        <ele>1723.2</ele>
        <time>2026-06-27T08:37:54Z</time>
      </trkpt>
      <trkpt lat="46.12901" lon="6.71718">
        <ele>1723.1</ele>
        <time>2026-06-27T08:37:55Z</time>
      </trkpt>
      <trkpt lat="46.12902" lon="6.71716">
        <ele>1723</ele>
        <time>2026-06-27T08:37:56Z</time>
      </trkpt>
      <trkpt lat="46.12901" lon="6.71715">
        <ele>1722.8</ele>
        <time>2026-06-27T08:37:57Z</time>
      </trkpt>
      <trkpt lat="46.12902" lon="6.71713">
        <ele>1722.6</ele>
        <time>2026-06-27T08:37:58Z</time>
      </trkpt>
      <trkpt lat="46.12902" lon="6.71711">
        <ele>1722.5</ele>
        <time>2026-06-27T08:37:59Z</time>
      </trkpt>
      <trkpt lat="46.12903" lon="6.7171">
        <ele>1722.3</ele>
        <time>2026-06-27T08:38:00Z</time>
      </trkpt>
      <trkpt lat="46.12903" lon="6.71708">
        <ele>1722.2</ele>
        <time>2026-06-27T08:38:01Z</time>
      </trkpt>
      <trkpt lat="46.12904" lon="6.71706">
        <ele>1722.1</ele>
        <time>2026-06-27T08:38:02Z</time>
      </trkpt>
      <trkpt lat="46.12904" lon="6.71704">
        <ele>1722</ele>
        <time>2026-06-27T08:38:03Z</time>
      </trkpt>
      <trkpt lat="46.12904" lon="6.71702">
        <ele>1721.9</ele>
        <time>2026-06-27T08:38:04Z</time>
      </trkpt>
      <trkpt lat="46.12904" lon="6.71701">
        <ele>1721.8</ele>
        <time>2026-06-27T08:38:05Z</time>
      </trkpt>
      <trkpt lat="46.12904" lon="6.71699">
        <ele>1721.7</ele>
        <time>2026-06-27T08:38:06Z</time>
      </trkpt>
      <trkpt lat="46.12904" lon="6.71697">
        <ele>1721.5</ele>
        <time>2026-06-27T08:38:07Z</time>
      </trkpt>
      <trkpt lat="46.12905" lon="6.71695">
        <ele>1721.4</ele>
        <time>2026-06-27T08:38:08Z</time>
      </trkpt>
      <trkpt lat="46.12905" lon="6.71693">
        <ele>1721.4</ele>
        <time>2026-06-27T08:38:09Z</time>
      </trkpt>
      <trkpt lat="46.12906" lon="6.71692">
        <ele>1721.3</ele>
        <time>2026-06-27T08:38:10Z</time>
      </trkpt>
      <trkpt lat="46.12906" lon="6.71691">
        <ele>1721.1</ele>
        <time>2026-06-27T08:38:11Z</time>
      </trkpt>
      <trkpt lat="46.12906" lon="6.71689">
        <ele>1720.9</ele>
        <time>2026-06-27T08:38:12Z</time>
      </trkpt>
      <trkpt lat="46.12906" lon="6.71687">
        <ele>1720.6</ele>
        <time>2026-06-27T08:38:13Z</time>
      </trkpt>
      <trkpt lat="46.12906" lon="6.71685">
        <ele>1720.5</ele>
        <time>2026-06-27T08:38:14Z</time>
      </trkpt>
      <trkpt lat="46.12906" lon="6.71683">
        <ele>1720.3</ele>
        <time>2026-06-27T08:38:15Z</time>
      </trkpt>
      <trkpt lat="46.12906" lon="6.71681">
        <ele>1720.2</ele>
        <time>2026-06-27T08:38:16Z</time>
      </trkpt>
      <trkpt lat="46.12906" lon="6.7168">
        <ele>1720</ele>
        <time>2026-06-27T08:38:17Z</time>
      </trkpt>
      <trkpt lat="46.12905" lon="6.71678">
        <ele>1719.8</ele>
        <time>2026-06-27T08:38:18Z</time>
      </trkpt>
      <trkpt lat="46.12906" lon="6.71677">
        <ele>1719.6</ele>
        <time>2026-06-27T08:38:19Z</time>
      </trkpt>
      <trkpt lat="46.12906" lon="6.71675">
        <ele>1719.5</ele>
        <time>2026-06-27T08:38:20Z</time>
      </trkpt>
      <trkpt lat="46.12907" lon="6.71674">
        <ele>1719.4</ele>
        <time>2026-06-27T08:38:21Z</time>
      </trkpt>
      <trkpt lat="46.12907" lon="6.71672">
        <ele>1719.4</ele>
        <time>2026-06-27T08:38:22Z</time>
      </trkpt>
      <trkpt lat="46.12907" lon="6.71671">
        <ele>1719.4</ele>
        <time>2026-06-27T08:38:23Z</time>
      </trkpt>
      <trkpt lat="46.12908" lon="6.71669">
        <ele>1719.4</ele>
        <time>2026-06-27T08:38:24Z</time>
      </trkpt>
      <trkpt lat="46.12908" lon="6.71668">
        <ele>1719.3</ele>
        <time>2026-06-27T08:38:25Z</time>
      </trkpt>
      <trkpt lat="46.12908" lon="6.71667">
        <ele>1719.3</ele>
        <time>2026-06-27T08:38:26Z</time>
      </trkpt>
      <trkpt lat="46.12909" lon="6.71665">
        <ele>1719.2</ele>
        <time>2026-06-27T08:38:27Z</time>
      </trkpt>
      <trkpt lat="46.12909" lon="6.71664">
        <ele>1719.1</ele>
        <time>2026-06-27T08:38:28Z</time>
      </trkpt>
      <trkpt lat="46.1291" lon="6.71662">
        <ele>1718.9</ele>
        <time>2026-06-27T08:38:29Z</time>
      </trkpt>
      <trkpt lat="46.12911" lon="6.71661">
        <ele>1718.8</ele>
        <time>2026-06-27T08:38:30Z</time>
      </trkpt>
      <trkpt lat="46.12911" lon="6.7166">
        <ele>1718.9</ele>
        <time>2026-06-27T08:38:31Z</time>
      </trkpt>
      <trkpt lat="46.12912" lon="6.71659">
        <ele>1718.9</ele>
        <time>2026-06-27T08:38:32Z</time>
      </trkpt>
      <trkpt lat="46.12912" lon="6.71657">
        <ele>1719</ele>
        <time>2026-06-27T08:38:33Z</time>
      </trkpt>
      <trkpt lat="46.12913" lon="6.71656">
        <ele>1719</ele>
        <time>2026-06-27T08:38:34Z</time>
      </trkpt>
      <trkpt lat="46.12913" lon="6.71654">
        <ele>1718.9</ele>
        <time>2026-06-27T08:38:35Z</time>
      </trkpt>
      <trkpt lat="46.12914" lon="6.71653">
        <ele>1718.9</ele>
        <time>2026-06-27T08:38:36Z</time>
      </trkpt>
      <trkpt lat="46.12914" lon="6.71651">
        <ele>1718.9</ele>
        <time>2026-06-27T08:38:37Z</time>
      </trkpt>
      <trkpt lat="46.12914" lon="6.7165">
        <ele>1718.8</ele>
        <time>2026-06-27T08:38:38Z</time>
      </trkpt>
      <trkpt lat="46.12915" lon="6.71649">
        <ele>1718.7</ele>
        <time>2026-06-27T08:38:39Z</time>
      </trkpt>
      <trkpt lat="46.12915" lon="6.71648">
        <ele>1718.4</ele>
        <time>2026-06-27T08:38:40Z</time>
      </trkpt>
      <trkpt lat="46.12916" lon="6.71646">
        <ele>1718.2</ele>
        <time>2026-06-27T08:38:41Z</time>
      </trkpt>
      <trkpt lat="46.12917" lon="6.71645">
        <ele>1718.1</ele>
        <time>2026-06-27T08:38:42Z</time>
      </trkpt>
      <trkpt lat="46.12917" lon="6.71644">
        <ele>1718</ele>
        <time>2026-06-27T08:38:43Z</time>
      </trkpt>
      <trkpt lat="46.12918" lon="6.71643">
        <ele>1717.9</ele>
        <time>2026-06-27T08:38:44Z</time>
      </trkpt>
      <trkpt lat="46.12918" lon="6.71642">
        <ele>1717.9</ele>
        <time>2026-06-27T08:38:45Z</time>
      </trkpt>
      <trkpt lat="46.12919" lon="6.71641">
        <ele>1717.8</ele>
        <time>2026-06-27T08:38:46Z</time>
      </trkpt>
      <trkpt lat="46.1292" lon="6.7164">
        <ele>1717.8</ele>
        <time>2026-06-27T08:38:47Z</time>
      </trkpt>
      <trkpt lat="46.1292" lon="6.71639">
        <ele>1717.8</ele>
        <time>2026-06-27T08:38:48Z</time>
      </trkpt>
      <trkpt lat="46.12921" lon="6.71638">
        <ele>1717.6</ele>
        <time>2026-06-27T08:38:49Z</time>
      </trkpt>
      <trkpt lat="46.12922" lon="6.71637">
        <ele>1717.5</ele>
        <time>2026-06-27T08:38:50Z</time>
      </trkpt>
      <trkpt lat="46.12922" lon="6.71636">
        <ele>1717.3</ele>
        <time>2026-06-27T08:38:51Z</time>
      </trkpt>
      <trkpt lat="46.12923" lon="6.71635">
        <ele>1717.2</ele>
        <time>2026-06-27T08:38:52Z</time>
      </trkpt>
      <trkpt lat="46.12924" lon="6.71634">
        <ele>1717</ele>
        <time>2026-06-27T08:38:53Z</time>
      </trkpt>
      <trkpt lat="46.12925" lon="6.71633">
        <ele>1716.9</ele>
        <time>2026-06-27T08:38:54Z</time>
      </trkpt>
      <trkpt lat="46.12926" lon="6.71631">
        <ele>1716.8</ele>
        <time>2026-06-27T08:38:55Z</time>
      </trkpt>
      <trkpt lat="46.12926" lon="6.7163">
        <ele>1716.9</ele>
        <time>2026-06-27T08:38:56Z</time>
      </trkpt>
      <trkpt lat="46.12927" lon="6.71629">
        <ele>1716.7</ele>
        <time>2026-06-27T08:38:57Z</time>
      </trkpt>
      <trkpt lat="46.12927" lon="6.71628">
        <ele>1716.6</ele>
        <time>2026-06-27T08:38:58Z</time>
      </trkpt>
      <trkpt lat="46.12928" lon="6.71626">
        <ele>1716.5</ele>
        <time>2026-06-27T08:38:59Z</time>
      </trkpt>
      <trkpt lat="46.12929" lon="6.71625">
        <ele>1716.5</ele>
        <time>2026-06-27T08:39:00Z</time>
      </trkpt>
      <trkpt lat="46.12929" lon="6.71624">
        <ele>1716.4</ele>
        <time>2026-06-27T08:39:01Z</time>
      </trkpt>
      <trkpt lat="46.1293" lon="6.71623">
        <ele>1716.4</ele>
        <time>2026-06-27T08:39:02Z</time>
      </trkpt>
      <trkpt lat="46.1293" lon="6.71622">
        <ele>1716.4</ele>
        <time>2026-06-27T08:39:03Z</time>
      </trkpt>
      <trkpt lat="46.1293" lon="6.71622">
        <ele>1716.4</ele>
        <time>2026-06-27T08:39:04Z</time>
      </trkpt>
      <trkpt lat="46.1293" lon="6.71622">
        <ele>1716.4</ele>
        <time>2026-06-27T08:39:05Z</time>
      </trkpt>
      <trkpt lat="46.1293" lon="6.71622">
        <ele>1716.4</ele>
        <time>2026-06-27T08:39:06Z</time>
      </trkpt>
      <trkpt lat="46.1293" lon="6.71622">
        <ele>1716.4</ele>
        <time>2026-06-27T08:39:07Z</time>
      </trkpt>
      <trkpt lat="46.1293" lon="6.71622">
        <ele>1716.4</ele>
        <time>2026-06-27T08:39:08Z</time>
      </trkpt>
      <trkpt lat="46.1293" lon="6.71622">
        <ele>1716.4</ele>
        <time>2026-06-27T08:39:09Z</time>
      </trkpt>
      <trkpt lat="46.12931" lon="6.71622">
        <ele>1716.4</ele>
        <time>2026-06-27T08:39:10Z</time>
      </trkpt>
      <trkpt lat="46.12931" lon="6.71623">
        <ele>1716.4</ele>
        <time>2026-06-27T08:39:11Z</time>
      </trkpt>
      <trkpt lat="46.12931" lon="6.71623">
        <ele>1716.4</ele>
        <time>2026-06-27T08:39:12Z</time>
      </trkpt>
      <trkpt lat="46.12931" lon="6.71623">
        <ele>1716.4</ele>
        <time>2026-06-27T08:39:13Z</time>
      </trkpt>
      <trkpt lat="46.12931" lon="6.71623">
        <ele>1716.4</ele>
        <time>2026-06-27T08:39:14Z</time>
      </trkpt>
      <trkpt lat="46.1293" lon="6.71623">
        <ele>1716.4</ele>
        <time>2026-06-27T08:39:15Z</time>
      </trkpt>
      <trkpt lat="46.1293" lon="6.71623">
        <ele>1716.4</ele>
        <time>2026-06-27T08:39:16Z</time>
      </trkpt>
      <trkpt lat="46.1293" lon="6.71623">
        <ele>1716.4</ele>
        <time>2026-06-27T08:39:17Z</time>
      </trkpt>
      <trkpt lat="46.12931" lon="6.71623">
        <ele>1716.4</ele>
        <time>2026-06-27T08:39:18Z</time>
      </trkpt>
      <trkpt lat="46.12931" lon="6.71623">
        <ele>1716.4</ele>
        <time>2026-06-27T08:39:19Z</time>
      </trkpt>
      <trkpt lat="46.12931" lon="6.71623">
        <ele>1716.4</ele>
        <time>2026-06-27T08:39:20Z</time>
      </trkpt>
      <trkpt lat="46.12931" lon="6.71623">
        <ele>1716.5</ele>
        <time>2026-06-27T08:39:21Z</time>
      </trkpt>
      <trkpt lat="46.12931" lon="6.71622">
        <ele>1716.5</ele>
        <time>2026-06-27T08:39:22Z</time>
      </trkpt>
      <trkpt lat="46.12931" lon="6.71621">
        <ele>1716.5</ele>
        <time>2026-06-27T08:39:23Z</time>
      </trkpt>
      <trkpt lat="46.12931" lon="6.71621">
        <ele>1716.6</ele>
        <time>2026-06-27T08:39:24Z</time>
      </trkpt>
      <trkpt lat="46.12931" lon="6.71621">
        <ele>1716.6</ele>
        <time>2026-06-27T08:39:25Z</time>
      </trkpt>
      <trkpt lat="46.12931" lon="6.71621">
        <ele>1716.6</ele>
        <time>2026-06-27T08:39:26Z</time>
      </trkpt>
      <trkpt lat="46.12931" lon="6.71621">
        <ele>1716.6</ele>
        <time>2026-06-27T08:39:27Z</time>
      </trkpt>
      <trkpt lat="46.12931" lon="6.71621">
        <ele>1716.7</ele>
        <time>2026-06-27T08:39:28Z</time>
      </trkpt>
      <trkpt lat="46.12931" lon="6.71621">
        <ele>1716.8</ele>
        <time>2026-06-27T08:39:29Z</time>
      </trkpt>
      <trkpt lat="46.12932" lon="6.71621">
        <ele>1716.9</ele>
        <time>2026-06-27T08:39:30Z</time>
      </trkpt>
      <trkpt lat="46.12932" lon="6.71621">
        <ele>1716.9</ele>
        <time>2026-06-27T08:39:31Z</time>
      </trkpt>
      <trkpt lat="46.12932" lon="6.71621">
        <ele>1716.9</ele>
        <time>2026-06-27T08:39:32Z</time>
      </trkpt>
      <trkpt lat="46.12932" lon="6.71621">
        <ele>1716.8</ele>
        <time>2026-06-27T08:39:33Z</time>
      </trkpt>
      <trkpt lat="46.12932" lon="6.71621">
        <ele>1716.7</ele>
        <time>2026-06-27T08:39:34Z</time>
      </trkpt>
      <trkpt lat="46.12932" lon="6.71621">
        <ele>1716.7</ele>
        <time>2026-06-27T08:39:35Z</time>
      </trkpt>
      <trkpt lat="46.12932" lon="6.71621">
        <ele>1716.6</ele>
        <time>2026-06-27T08:39:36Z</time>
      </trkpt>
      <trkpt lat="46.12932" lon="6.71621">
        <ele>1716.6</ele>
        <time>2026-06-27T08:39:37Z</time>
      </trkpt>
      <trkpt lat="46.12932" lon="6.71621">
        <ele>1716.7</ele>
        <time>2026-06-27T08:39:38Z</time>
      </trkpt>
      <trkpt lat="46.12932" lon="6.71622">
        <ele>1716.7</ele>
        <time>2026-06-27T08:39:39Z</time>
      </trkpt>
      <trkpt lat="46.12932" lon="6.71622">
        <ele>1716.6</ele>
        <time>2026-06-27T08:39:40Z</time>
      </trkpt>
      <trkpt lat="46.12932" lon="6.71621">
        <ele>1716.6</ele>
        <time>2026-06-27T08:39:41Z</time>
      </trkpt>
      <trkpt lat="46.12932" lon="6.71621">
        <ele>1716.5</ele>
        <time>2026-06-27T08:39:42Z</time>
      </trkpt>
      <trkpt lat="46.12932" lon="6.71621">
        <ele>1716.5</ele>
        <time>2026-06-27T08:39:43Z</time>
      </trkpt>
      <trkpt lat="46.12932" lon="6.71622">
        <ele>1716.5</ele>
        <time>2026-06-27T08:39:44Z</time>
      </trkpt>
      <trkpt lat="46.12932" lon="6.71622">
        <ele>1716.5</ele>
        <time>2026-06-27T08:39:45Z</time>
      </trkpt>
      <trkpt lat="46.12932" lon="6.71622">
        <ele>1716.5</ele>
        <time>2026-06-27T08:39:46Z</time>
      </trkpt>
      <trkpt lat="46.12932" lon="6.71622">
        <ele>1716.5</ele>
        <time>2026-06-27T08:39:47Z</time>
      </trkpt>
      <trkpt lat="46.12932" lon="6.71622">
        <ele>1716.5</ele>
        <time>2026-06-27T08:39:48Z</time>
      </trkpt>
      <trkpt lat="46.12932" lon="6.71622">
        <ele>1716.4</ele>
        <time>2026-06-27T08:39:49Z</time>
      </trkpt>
      <trkpt lat="46.12932" lon="6.71622">
        <ele>1716.4</ele>
        <time>2026-06-27T08:39:50Z</time>
      </trkpt>
      <trkpt lat="46.12932" lon="6.71621">
        <ele>1716.4</ele>
        <time>2026-06-27T08:39:51Z</time>
      </trkpt>
      <trkpt lat="46.12932" lon="6.71621">
        <ele>1716.4</ele>
        <time>2026-06-27T08:39:52Z</time>
      </trkpt>
      <trkpt lat="46.12932" lon="6.71621">
        <ele>1716.4</ele>
        <time>2026-06-27T08:39:53Z</time>
      </trkpt>
      <trkpt lat="46.12932" lon="6.71621">
        <ele>1716.4</ele>
        <time>2026-06-27T08:39:54Z</time>
      </trkpt>
      <trkpt lat="46.12932" lon="6.71621">
        <ele>1716.5</ele>
        <time>2026-06-27T08:39:55Z</time>
      </trkpt>
      <trkpt lat="46.12932" lon="6.71622">
        <ele>1716.5</ele>
        <time>2026-06-27T08:39:56Z</time>
      </trkpt>
      <trkpt lat="46.12932" lon="6.71622">
        <ele>1716.5</ele>
        <time>2026-06-27T08:39:57Z</time>
      </trkpt>
      <trkpt lat="46.12932" lon="6.71621">
        <ele>1716.5</ele>
        <time>2026-06-27T08:39:58Z</time>
      </trkpt>
      <trkpt lat="46.12932" lon="6.71621">
        <ele>1716.6</ele>
        <time>2026-06-27T08:39:59Z</time>
      </trkpt>
      <trkpt lat="46.12932" lon="6.71621">
        <ele>1716.6</ele>
        <time>2026-06-27T08:40:00Z</time>
      </trkpt>
      <trkpt lat="46.12932" lon="6.71622">
        <ele>1716.7</ele>
        <time>2026-06-27T08:40:01Z</time>
      </trkpt>
      <trkpt lat="46.12932" lon="6.71621">
        <ele>1716.7</ele>
        <time>2026-06-27T08:40:02Z</time>
      </trkpt>
      <trkpt lat="46.12932" lon="6.71621">
        <ele>1716.6</ele>
        <time>2026-06-27T08:40:03Z</time>
      </trkpt>
      <trkpt lat="46.12932" lon="6.71621">
        <ele>1716.6</ele>
        <time>2026-06-27T08:40:04Z</time>
      </trkpt>
      <trkpt lat="46.12932" lon="6.71621">
        <ele>1716.6</ele>
        <time>2026-06-27T08:40:05Z</time>
      </trkpt>
      <trkpt lat="46.12932" lon="6.71621">
        <ele>1716.6</ele>
        <time>2026-06-27T08:40:06Z</time>
      </trkpt>
      <trkpt lat="46.12932" lon="6.71621">
        <ele>1716.6</ele>
        <time>2026-06-27T08:40:07Z</time>
      </trkpt>
      <trkpt lat="46.12932" lon="6.71621">
        <ele>1716.5</ele>
        <time>2026-06-27T08:40:08Z</time>
      </trkpt>
      <trkpt lat="46.12932" lon="6.71621">
        <ele>1716.5</ele>
        <time>2026-06-27T08:40:09Z</time>
      </trkpt>
      <trkpt lat="46.12932" lon="6.71622">
        <ele>1716.6</ele>
        <time>2026-06-27T08:40:10Z</time>
      </trkpt>
      <trkpt lat="46.12932" lon="6.71622">
        <ele>1716.6</ele>
        <time>2026-06-27T08:40:11Z</time>
      </trkpt>
      <trkpt lat="46.12932" lon="6.71622">
        <ele>1716.7</ele>
        <time>2026-06-27T08:40:12Z</time>
      </trkpt>
      <trkpt lat="46.12932" lon="6.71622">
        <ele>1716.6</ele>
        <time>2026-06-27T08:40:13Z</time>
      </trkpt>
      <trkpt lat="46.12932" lon="6.71622">
        <ele>1716.5</ele>
        <time>2026-06-27T08:40:14Z</time>
      </trkpt>
      <trkpt lat="46.12932" lon="6.71622">
        <ele>1716.4</ele>
        <time>2026-06-27T08:40:15Z</time>
      </trkpt>
      <trkpt lat="46.12932" lon="6.71622">
        <ele>1716.4</ele>
        <time>2026-06-27T08:40:16Z</time>
      </trkpt>
      <trkpt lat="46.12933" lon="6.71621">
        <ele>1716.3</ele>
        <time>2026-06-27T08:40:17Z</time>
      </trkpt>
      <trkpt lat="46.12933" lon="6.71621">
        <ele>1716.3</ele>
        <time>2026-06-27T08:40:18Z</time>
      </trkpt>
      <trkpt lat="46.12934" lon="6.7162">
        <ele>1716.3</ele>
        <time>2026-06-27T08:40:19Z</time>
      </trkpt>
      <trkpt lat="46.12934" lon="6.7162">
        <ele>1716.2</ele>
        <time>2026-06-27T08:40:20Z</time>
      </trkpt>
      <trkpt lat="46.12934" lon="6.71619">
        <ele>1716.2</ele>
        <time>2026-06-27T08:40:21Z</time>
      </trkpt>
      <trkpt lat="46.12934" lon="6.71619">
        <ele>1716.2</ele>
        <time>2026-06-27T08:40:22Z</time>
      </trkpt>
      <trkpt lat="46.12935" lon="6.71618">
        <ele>1716.1</ele>
        <time>2026-06-27T08:40:23Z</time>
      </trkpt>
      <trkpt lat="46.12935" lon="6.71617">
        <ele>1716.1</ele>
        <time>2026-06-27T08:40:24Z</time>
      </trkpt>
      <trkpt lat="46.12936" lon="6.71617">
        <ele>1716.1</ele>
        <time>2026-06-27T08:40:25Z</time>
      </trkpt>
      <trkpt lat="46.12936" lon="6.71616">
        <ele>1716.1</ele>
        <time>2026-06-27T08:40:26Z</time>
      </trkpt>
      <trkpt lat="46.12936" lon="6.71616">
        <ele>1716.1</ele>
        <time>2026-06-27T08:40:27Z</time>
      </trkpt>
      <trkpt lat="46.12936" lon="6.71615">
        <ele>1716.1</ele>
        <time>2026-06-27T08:40:28Z</time>
      </trkpt>
      <trkpt lat="46.12936" lon="6.71615">
        <ele>1716.1</ele>
        <time>2026-06-27T08:40:29Z</time>
      </trkpt>
      <trkpt lat="46.12937" lon="6.71614">
        <ele>1716.1</ele>
        <time>2026-06-27T08:40:30Z</time>
      </trkpt>
      <trkpt lat="46.12937" lon="6.71614">
        <ele>1716.1</ele>
        <time>2026-06-27T08:40:31Z</time>
      </trkpt>
      <trkpt lat="46.12937" lon="6.71613">
        <ele>1716.2</ele>
        <time>2026-06-27T08:40:32Z</time>
      </trkpt>
      <trkpt lat="46.12937" lon="6.71612">
        <ele>1716</ele>
        <time>2026-06-27T08:40:33Z</time>
      </trkpt>
      <trkpt lat="46.12938" lon="6.71611">
        <ele>1715.8</ele>
        <time>2026-06-27T08:40:34Z</time>
      </trkpt>
      <trkpt lat="46.12939" lon="6.7161">
        <ele>1715.6</ele>
        <time>2026-06-27T08:40:35Z</time>
      </trkpt>
      <trkpt lat="46.12939" lon="6.71609">
        <ele>1715.3</ele>
        <time>2026-06-27T08:40:36Z</time>
      </trkpt>
      <trkpt lat="46.12939" lon="6.71609">
        <ele>1715.2</ele>
        <time>2026-06-27T08:40:37Z</time>
      </trkpt>
      <trkpt lat="46.1294" lon="6.71608">
        <ele>1715.1</ele>
        <time>2026-06-27T08:40:38Z</time>
      </trkpt>
      <trkpt lat="46.1294" lon="6.71607">
        <ele>1715</ele>
        <time>2026-06-27T08:40:39Z</time>
      </trkpt>
      <trkpt lat="46.12941" lon="6.71607">
        <ele>1714.9</ele>
        <time>2026-06-27T08:40:40Z</time>
      </trkpt>
      <trkpt lat="46.12941" lon="6.71606">
        <ele>1714.8</ele>
        <time>2026-06-27T08:40:41Z</time>
      </trkpt>
      <trkpt lat="46.12942" lon="6.71605">
        <ele>1714.8</ele>
        <time>2026-06-27T08:40:42Z</time>
      </trkpt>
      <trkpt lat="46.12943" lon="6.71605">
        <ele>1714.7</ele>
        <time>2026-06-27T08:40:43Z</time>
      </trkpt>
      <trkpt lat="46.12944" lon="6.71604">
        <ele>1714.7</ele>
        <time>2026-06-27T08:40:44Z</time>
      </trkpt>
      <trkpt lat="46.12944" lon="6.71604">
        <ele>1714.7</ele>
        <time>2026-06-27T08:40:45Z</time>
      </trkpt>
      <trkpt lat="46.12945" lon="6.71603">
        <ele>1714.7</ele>
        <time>2026-06-27T08:40:46Z</time>
      </trkpt>
      <trkpt lat="46.12945" lon="6.71602">
        <ele>1714.7</ele>
        <time>2026-06-27T08:40:47Z</time>
      </trkpt>
      <trkpt lat="46.12945" lon="6.71601">
        <ele>1714.7</ele>
        <time>2026-06-27T08:40:48Z</time>
      </trkpt>
      <trkpt lat="46.12946" lon="6.716">
        <ele>1714.8</ele>
        <time>2026-06-27T08:40:49Z</time>
      </trkpt>
      <trkpt lat="46.12946" lon="6.71599">
        <ele>1714.8</ele>
        <time>2026-06-27T08:40:50Z</time>
      </trkpt>
      <trkpt lat="46.12946" lon="6.71598">
        <ele>1715.1</ele>
        <time>2026-06-27T08:40:51Z</time>
      </trkpt>
      <trkpt lat="46.12947" lon="6.71597">
        <ele>1715.1</ele>
        <time>2026-06-27T08:40:52Z</time>
      </trkpt>
      <trkpt lat="46.12947" lon="6.71596">
        <ele>1715.1</ele>
        <time>2026-06-27T08:40:53Z</time>
      </trkpt>
      <trkpt lat="46.12947" lon="6.71595">
        <ele>1715.1</ele>
        <time>2026-06-27T08:40:54Z</time>
      </trkpt>
      <trkpt lat="46.12947" lon="6.71593">
        <ele>1715</ele>
        <time>2026-06-27T08:40:55Z</time>
      </trkpt>
      <trkpt lat="46.12948" lon="6.71591">
        <ele>1715</ele>
        <time>2026-06-27T08:40:56Z</time>
      </trkpt>
      <trkpt lat="46.12948" lon="6.7159">
        <ele>1714.9</ele>
        <time>2026-06-27T08:40:57Z</time>
      </trkpt>
      <trkpt lat="46.12948" lon="6.71589">
        <ele>1714.8</ele>
        <time>2026-06-27T08:40:58Z</time>
      </trkpt>
      <trkpt lat="46.12948" lon="6.71588">
        <ele>1714.6</ele>
        <time>2026-06-27T08:40:59Z</time>
      </trkpt>
      <trkpt lat="46.12948" lon="6.71587">
        <ele>1714.5</ele>
        <time>2026-06-27T08:41:00Z</time>
      </trkpt>
      <trkpt lat="46.12947" lon="6.71586">
        <ele>1714.3</ele>
        <time>2026-06-27T08:41:01Z</time>
      </trkpt>
      <trkpt lat="46.12947" lon="6.71585">
        <ele>1714.1</ele>
        <time>2026-06-27T08:41:02Z</time>
      </trkpt>
      <trkpt lat="46.12948" lon="6.71583">
        <ele>1713.8</ele>
        <time>2026-06-27T08:41:03Z</time>
      </trkpt>
      <trkpt lat="46.12949" lon="6.71582">
        <ele>1713.6</ele>
        <time>2026-06-27T08:41:04Z</time>
      </trkpt>
      <trkpt lat="46.12949" lon="6.71581">
        <ele>1713.5</ele>
        <time>2026-06-27T08:41:05Z</time>
      </trkpt>
      <trkpt lat="46.1295" lon="6.7158">
        <ele>1713.3</ele>
        <time>2026-06-27T08:41:06Z</time>
      </trkpt>
      <trkpt lat="46.1295" lon="6.71579">
        <ele>1713.2</ele>
        <time>2026-06-27T08:41:07Z</time>
      </trkpt>
      <trkpt lat="46.12951" lon="6.71577">
        <ele>1713</ele>
        <time>2026-06-27T08:41:08Z</time>
      </trkpt>
      <trkpt lat="46.12951" lon="6.71576">
        <ele>1712.9</ele>
        <time>2026-06-27T08:41:09Z</time>
      </trkpt>
      <trkpt lat="46.12952" lon="6.71575">
        <ele>1712.8</ele>
        <time>2026-06-27T08:41:10Z</time>
      </trkpt>
      <trkpt lat="46.12952" lon="6.71574">
        <ele>1712.7</ele>
        <time>2026-06-27T08:41:11Z</time>
      </trkpt>
      <trkpt lat="46.12953" lon="6.71573">
        <ele>1712.7</ele>
        <time>2026-06-27T08:41:12Z</time>
      </trkpt>
      <trkpt lat="46.12953" lon="6.71572">
        <ele>1712.7</ele>
        <time>2026-06-27T08:41:13Z</time>
      </trkpt>
      <trkpt lat="46.12954" lon="6.71571">
        <ele>1712.6</ele>
        <time>2026-06-27T08:41:14Z</time>
      </trkpt>
      <trkpt lat="46.12954" lon="6.7157">
        <ele>1712.4</ele>
        <time>2026-06-27T08:41:15Z</time>
      </trkpt>
      <trkpt lat="46.12954" lon="6.71569">
        <ele>1712.3</ele>
        <time>2026-06-27T08:41:16Z</time>
      </trkpt>
      <trkpt lat="46.12954" lon="6.71568">
        <ele>1712.1</ele>
        <time>2026-06-27T08:41:17Z</time>
      </trkpt>
      <trkpt lat="46.12954" lon="6.71567">
        <ele>1712</ele>
        <time>2026-06-27T08:41:18Z</time>
      </trkpt>
      <trkpt lat="46.12955" lon="6.71566">
        <ele>1712</ele>
        <time>2026-06-27T08:41:19Z</time>
      </trkpt>
      <trkpt lat="46.12955" lon="6.71566">
        <ele>1711.9</ele>
        <time>2026-06-27T08:41:20Z</time>
      </trkpt>
      <trkpt lat="46.12955" lon="6.71565">
        <ele>1711.8</ele>
        <time>2026-06-27T08:41:21Z</time>
      </trkpt>
      <trkpt lat="46.12955" lon="6.71564">
        <ele>1711.8</ele>
        <time>2026-06-27T08:41:22Z</time>
      </trkpt>
      <trkpt lat="46.12956" lon="6.71563">
        <ele>1711.6</ele>
        <time>2026-06-27T08:41:23Z</time>
      </trkpt>
      <trkpt lat="46.12957" lon="6.71562">
        <ele>1711.6</ele>
        <time>2026-06-27T08:41:24Z</time>
      </trkpt>
      <trkpt lat="46.12958" lon="6.71561">
        <ele>1711.5</ele>
        <time>2026-06-27T08:41:25Z</time>
      </trkpt>
      <trkpt lat="46.12958" lon="6.7156">
        <ele>1711.3</ele>
        <time>2026-06-27T08:41:26Z</time>
      </trkpt>
      <trkpt lat="46.12958" lon="6.71559">
        <ele>1711.1</ele>
        <time>2026-06-27T08:41:27Z</time>
      </trkpt>
      <trkpt lat="46.12958" lon="6.71558">
        <ele>1711</ele>
        <time>2026-06-27T08:41:28Z</time>
      </trkpt>
      <trkpt lat="46.12959" lon="6.71557">
        <ele>1710.8</ele>
        <time>2026-06-27T08:41:29Z</time>
      </trkpt>
      <trkpt lat="46.12958" lon="6.71556">
        <ele>1710.7</ele>
        <time>2026-06-27T08:41:30Z</time>
      </trkpt>
      <trkpt lat="46.12958" lon="6.71554">
        <ele>1710.7</ele>
        <time>2026-06-27T08:41:31Z</time>
      </trkpt>
      <trkpt lat="46.12958" lon="6.71554">
        <ele>1710.6</ele>
        <time>2026-06-27T08:41:32Z</time>
      </trkpt>
      <trkpt lat="46.12958" lon="6.71552">
        <ele>1710.3</ele>
        <time>2026-06-27T08:41:33Z</time>
      </trkpt>
      <trkpt lat="46.12959" lon="6.71552">
        <ele>1710.2</ele>
        <time>2026-06-27T08:41:34Z</time>
      </trkpt>
      <trkpt lat="46.1296" lon="6.71551">
        <ele>1710.1</ele>
        <time>2026-06-27T08:41:35Z</time>
      </trkpt>
      <trkpt lat="46.1296" lon="6.7155">
        <ele>1710.1</ele>
        <time>2026-06-27T08:41:36Z</time>
      </trkpt>
      <trkpt lat="46.1296" lon="6.71549">
        <ele>1710</ele>
        <time>2026-06-27T08:41:37Z</time>
      </trkpt>
      <trkpt lat="46.1296" lon="6.71548">
        <ele>1709.9</ele>
        <time>2026-06-27T08:41:38Z</time>
      </trkpt>
      <trkpt lat="46.12961" lon="6.71547">
        <ele>1709.9</ele>
        <time>2026-06-27T08:41:39Z</time>
      </trkpt>
      <trkpt lat="46.12961" lon="6.71545">
        <ele>1709.8</ele>
        <time>2026-06-27T08:41:40Z</time>
      </trkpt>
      <trkpt lat="46.12961" lon="6.71544">
        <ele>1709.8</ele>
        <time>2026-06-27T08:41:41Z</time>
      </trkpt>
      <trkpt lat="46.12961" lon="6.71543">
        <ele>1709.7</ele>
        <time>2026-06-27T08:41:42Z</time>
      </trkpt>
      <trkpt lat="46.12961" lon="6.71542">
        <ele>1709.7</ele>
        <time>2026-06-27T08:41:43Z</time>
      </trkpt>
      <trkpt lat="46.12961" lon="6.71541">
        <ele>1709.7</ele>
        <time>2026-06-27T08:41:44Z</time>
      </trkpt>
      <trkpt lat="46.12961" lon="6.7154">
        <ele>1709.6</ele>
        <time>2026-06-27T08:41:45Z</time>
      </trkpt>
      <trkpt lat="46.1296" lon="6.71539">
        <ele>1709.6</ele>
        <time>2026-06-27T08:41:46Z</time>
      </trkpt>
      <trkpt lat="46.1296" lon="6.71538">
        <ele>1709.5</ele>
        <time>2026-06-27T08:41:47Z</time>
      </trkpt>
      <trkpt lat="46.1296" lon="6.71537">
        <ele>1709.4</ele>
        <time>2026-06-27T08:41:48Z</time>
      </trkpt>
      <trkpt lat="46.12959" lon="6.71536">
        <ele>1709.4</ele>
        <time>2026-06-27T08:41:49Z</time>
      </trkpt>
      <trkpt lat="46.12959" lon="6.71534">
        <ele>1709.2</ele>
        <time>2026-06-27T08:41:50Z</time>
      </trkpt>
      <trkpt lat="46.12959" lon="6.71533">
        <ele>1709.2</ele>
        <time>2026-06-27T08:41:51Z</time>
      </trkpt>
      <trkpt lat="46.12959" lon="6.71532">
        <ele>1709.1</ele>
        <time>2026-06-27T08:41:52Z</time>
      </trkpt>
      <trkpt lat="46.12958" lon="6.71531">
        <ele>1709</ele>
        <time>2026-06-27T08:41:53Z</time>
      </trkpt>
      <trkpt lat="46.12958" lon="6.71531">
        <ele>1708.9</ele>
        <time>2026-06-27T08:41:54Z</time>
      </trkpt>
      <trkpt lat="46.12958" lon="6.71531">
        <ele>1708.7</ele>
        <time>2026-06-27T08:41:55Z</time>
      </trkpt>
      <trkpt lat="46.12958" lon="6.71531">
        <ele>1708.6</ele>
        <time>2026-06-27T08:41:56Z</time>
      </trkpt>
      <trkpt lat="46.12958" lon="6.71531">
        <ele>1708.4</ele>
        <time>2026-06-27T08:41:57Z</time>
      </trkpt>
      <trkpt lat="46.12958" lon="6.7153">
        <ele>1708.3</ele>
        <time>2026-06-27T08:41:58Z</time>
      </trkpt>
      <trkpt lat="46.12958" lon="6.71529">
        <ele>1708.2</ele>
        <time>2026-06-27T08:41:59Z</time>
      </trkpt>
      <trkpt lat="46.12958" lon="6.71528">
        <ele>1708.2</ele>
        <time>2026-06-27T08:42:00Z</time>
      </trkpt>
      <trkpt lat="46.12959" lon="6.71528">
        <ele>1708.1</ele>
        <time>2026-06-27T08:42:01Z</time>
      </trkpt>
      <trkpt lat="46.12958" lon="6.71527">
        <ele>1708</ele>
        <time>2026-06-27T08:42:02Z</time>
      </trkpt>
      <trkpt lat="46.12959" lon="6.71526">
        <ele>1708</ele>
        <time>2026-06-27T08:42:03Z</time>
      </trkpt>
      <trkpt lat="46.12959" lon="6.71524">
        <ele>1707.7</ele>
        <time>2026-06-27T08:42:04Z</time>
      </trkpt>
      <trkpt lat="46.12959" lon="6.71523">
        <ele>1707.6</ele>
        <time>2026-06-27T08:42:05Z</time>
      </trkpt>
      <trkpt lat="46.12959" lon="6.71522">
        <ele>1707.5</ele>
        <time>2026-06-27T08:42:06Z</time>
      </trkpt>
      <trkpt lat="46.1296" lon="6.71521">
        <ele>1707.3</ele>
        <time>2026-06-27T08:42:07Z</time>
      </trkpt>
      <trkpt lat="46.1296" lon="6.7152">
        <ele>1707.1</ele>
        <time>2026-06-27T08:42:08Z</time>
      </trkpt>
      <trkpt lat="46.1296" lon="6.71519">
        <ele>1707</ele>
        <time>2026-06-27T08:42:09Z</time>
      </trkpt>
      <trkpt lat="46.12959" lon="6.71518">
        <ele>1706.7</ele>
        <time>2026-06-27T08:42:10Z</time>
      </trkpt>
      <trkpt lat="46.12959" lon="6.71517">
        <ele>1706.5</ele>
        <time>2026-06-27T08:42:11Z</time>
      </trkpt>
      <trkpt lat="46.12958" lon="6.71516">
        <ele>1706.2</ele>
        <time>2026-06-27T08:42:12Z</time>
      </trkpt>
      <trkpt lat="46.12958" lon="6.71515">
        <ele>1706</ele>
        <time>2026-06-27T08:42:13Z</time>
      </trkpt>
      <trkpt lat="46.12957" lon="6.71514">
        <ele>1705.9</ele>
        <time>2026-06-27T08:42:14Z</time>
      </trkpt>
      <trkpt lat="46.12956" lon="6.71512">
        <ele>1705.7</ele>
        <time>2026-06-27T08:42:15Z</time>
      </trkpt>
      <trkpt lat="46.12956" lon="6.71511">
        <ele>1705.6</ele>
        <time>2026-06-27T08:42:16Z</time>
      </trkpt>
      <trkpt lat="46.12956" lon="6.71509">
        <ele>1705.6</ele>
        <time>2026-06-27T08:42:17Z</time>
      </trkpt>
      <trkpt lat="46.12956" lon="6.71508">
        <ele>1705.4</ele>
        <time>2026-06-27T08:42:18Z</time>
      </trkpt>
      <trkpt lat="46.12956" lon="6.71507">
        <ele>1705.3</ele>
        <time>2026-06-27T08:42:19Z</time>
      </trkpt>
      <trkpt lat="46.12955" lon="6.71506">
        <ele>1705.2</ele>
        <time>2026-06-27T08:42:20Z</time>
      </trkpt>
      <trkpt lat="46.12954" lon="6.71505">
        <ele>1705</ele>
        <time>2026-06-27T08:42:21Z</time>
      </trkpt>
      <trkpt lat="46.12954" lon="6.71504">
        <ele>1704.9</ele>
        <time>2026-06-27T08:42:22Z</time>
      </trkpt>
      <trkpt lat="46.12953" lon="6.71504">
        <ele>1704.7</ele>
        <time>2026-06-27T08:42:23Z</time>
      </trkpt>
      <trkpt lat="46.12952" lon="6.71503">
        <ele>1704.6</ele>
        <time>2026-06-27T08:42:24Z</time>
      </trkpt>
      <trkpt lat="46.12952" lon="6.71502">
        <ele>1704.5</ele>
        <time>2026-06-27T08:42:25Z</time>
      </trkpt>
      <trkpt lat="46.12951" lon="6.71501">
        <ele>1704.6</ele>
        <time>2026-06-27T08:42:26Z</time>
      </trkpt>
      <trkpt lat="46.12951" lon="6.71499">
        <ele>1704.5</ele>
        <time>2026-06-27T08:42:27Z</time>
      </trkpt>
      <trkpt lat="46.1295" lon="6.71498">
        <ele>1704.5</ele>
        <time>2026-06-27T08:42:28Z</time>
      </trkpt>
      <trkpt lat="46.1295" lon="6.71498">
        <ele>1704.5</ele>
        <time>2026-06-27T08:42:29Z</time>
      </trkpt>
      <trkpt lat="46.1295" lon="6.71497">
        <ele>1704.4</ele>
        <time>2026-06-27T08:42:30Z</time>
      </trkpt>
      <trkpt lat="46.1295" lon="6.71496">
        <ele>1704.3</ele>
        <time>2026-06-27T08:42:31Z</time>
      </trkpt>
      <trkpt lat="46.12951" lon="6.71495">
        <ele>1704.2</ele>
        <time>2026-06-27T08:42:32Z</time>
      </trkpt>
      <trkpt lat="46.12951" lon="6.71494">
        <ele>1704.2</ele>
        <time>2026-06-27T08:42:33Z</time>
      </trkpt>
      <trkpt lat="46.12951" lon="6.71493">
        <ele>1704.1</ele>
        <time>2026-06-27T08:42:34Z</time>
      </trkpt>
      <trkpt lat="46.12952" lon="6.71492">
        <ele>1704.1</ele>
        <time>2026-06-27T08:42:35Z</time>
      </trkpt>
      <trkpt lat="46.12952" lon="6.71491">
        <ele>1703.9</ele>
        <time>2026-06-27T08:42:36Z</time>
      </trkpt>
      <trkpt lat="46.12952" lon="6.7149">
        <ele>1703.8</ele>
        <time>2026-06-27T08:42:37Z</time>
      </trkpt>
      <trkpt lat="46.12952" lon="6.71489">
        <ele>1703.6</ele>
        <time>2026-06-27T08:42:38Z</time>
      </trkpt>
      <trkpt lat="46.12952" lon="6.71489">
        <ele>1703.6</ele>
        <time>2026-06-27T08:42:39Z</time>
      </trkpt>
      <trkpt lat="46.12952" lon="6.71488">
        <ele>1703.5</ele>
        <time>2026-06-27T08:42:40Z</time>
      </trkpt>
      <trkpt lat="46.12952" lon="6.71487">
        <ele>1703.4</ele>
        <time>2026-06-27T08:42:41Z</time>
      </trkpt>
      <trkpt lat="46.12953" lon="6.71485">
        <ele>1703.3</ele>
        <time>2026-06-27T08:42:42Z</time>
      </trkpt>
      <trkpt lat="46.12953" lon="6.71484">
        <ele>1703.2</ele>
        <time>2026-06-27T08:42:43Z</time>
      </trkpt>
      <trkpt lat="46.12953" lon="6.71483">
        <ele>1702.9</ele>
        <time>2026-06-27T08:42:44Z</time>
      </trkpt>
      <trkpt lat="46.12953" lon="6.71482">
        <ele>1702.8</ele>
        <time>2026-06-27T08:42:45Z</time>
      </trkpt>
      <trkpt lat="46.12953" lon="6.71481">
        <ele>1702.8</ele>
        <time>2026-06-27T08:42:46Z</time>
      </trkpt>
      <trkpt lat="46.12953" lon="6.7148">
        <ele>1702.8</ele>
        <time>2026-06-27T08:42:47Z</time>
      </trkpt>
      <trkpt lat="46.12953" lon="6.71478">
        <ele>1702.7</ele>
        <time>2026-06-27T08:42:48Z</time>
      </trkpt>
      <trkpt lat="46.12953" lon="6.71477">
        <ele>1702.7</ele>
        <time>2026-06-27T08:42:49Z</time>
      </trkpt>
      <trkpt lat="46.12953" lon="6.71476">
        <ele>1702.6</ele>
        <time>2026-06-27T08:42:50Z</time>
      </trkpt>
      <trkpt lat="46.12953" lon="6.71476">
        <ele>1702.5</ele>
        <time>2026-06-27T08:42:51Z</time>
      </trkpt>
      <trkpt lat="46.12953" lon="6.71476">
        <ele>1702.5</ele>
        <time>2026-06-27T08:42:52Z</time>
      </trkpt>
      <trkpt lat="46.12953" lon="6.71476">
        <ele>1702.4</ele>
        <time>2026-06-27T08:42:53Z</time>
      </trkpt>
      <trkpt lat="46.12953" lon="6.71476">
        <ele>1702.3</ele>
        <time>2026-06-27T08:42:54Z</time>
      </trkpt>
      <trkpt lat="46.12953" lon="6.71476">
        <ele>1702.2</ele>
        <time>2026-06-27T08:42:55Z</time>
      </trkpt>
      <trkpt lat="46.12953" lon="6.71476">
        <ele>1702.1</ele>
        <time>2026-06-27T08:42:56Z</time>
      </trkpt>
      <trkpt lat="46.12953" lon="6.71476">
        <ele>1702.1</ele>
        <time>2026-06-27T08:42:57Z</time>
      </trkpt>
      <trkpt lat="46.12954" lon="6.71476">
        <ele>1702.1</ele>
        <time>2026-06-27T08:42:58Z</time>
      </trkpt>
      <trkpt lat="46.12954" lon="6.71476">
        <ele>1702</ele>
        <time>2026-06-27T08:42:59Z</time>
      </trkpt>
      <trkpt lat="46.12954" lon="6.71476">
        <ele>1702</ele>
        <time>2026-06-27T08:43:00Z</time>
      </trkpt>
      <trkpt lat="46.12954" lon="6.71476">
        <ele>1702.1</ele>
        <time>2026-06-27T08:43:01Z</time>
      </trkpt>
      <trkpt lat="46.12954" lon="6.71476">
        <ele>1702.2</ele>
        <time>2026-06-27T08:43:02Z</time>
      </trkpt>
      <trkpt lat="46.12954" lon="6.71476">
        <ele>1702.2</ele>
        <time>2026-06-27T08:43:03Z</time>
      </trkpt>
      <trkpt lat="46.12954" lon="6.71476">
        <ele>1702.3</ele>
        <time>2026-06-27T08:43:04Z</time>
      </trkpt>
      <trkpt lat="46.12954" lon="6.71476">
        <ele>1702.3</ele>
        <time>2026-06-27T08:43:05Z</time>
      </trkpt>
      <trkpt lat="46.12954" lon="6.71476">
        <ele>1702.3</ele>
        <time>2026-06-27T08:43:06Z</time>
      </trkpt>
      <trkpt lat="46.12954" lon="6.71476">
        <ele>1702.3</ele>
        <time>2026-06-27T08:43:07Z</time>
      </trkpt>
      <trkpt lat="46.12954" lon="6.71476">
        <ele>1702.3</ele>
        <time>2026-06-27T08:43:08Z</time>
      </trkpt>
      <trkpt lat="46.12954" lon="6.71477">
        <ele>1702.2</ele>
        <time>2026-06-27T08:43:09Z</time>
      </trkpt>
      <trkpt lat="46.12954" lon="6.71477">
        <ele>1702.2</ele>
        <time>2026-06-27T08:43:10Z</time>
      </trkpt>
      <trkpt lat="46.12954" lon="6.71477">
        <ele>1702.2</ele>
        <time>2026-06-27T08:43:11Z</time>
      </trkpt>
      <trkpt lat="46.12954" lon="6.71477">
        <ele>1702.1</ele>
        <time>2026-06-27T08:43:12Z</time>
      </trkpt>
      <trkpt lat="46.12954" lon="6.71477">
        <ele>1702.1</ele>
        <time>2026-06-27T08:43:13Z</time>
      </trkpt>
      <trkpt lat="46.12954" lon="6.71477">
        <ele>1702.1</ele>
        <time>2026-06-27T08:43:14Z</time>
      </trkpt>
      <trkpt lat="46.12954" lon="6.71477">
        <ele>1702.2</ele>
        <time>2026-06-27T08:43:15Z</time>
      </trkpt>
      <trkpt lat="46.12954" lon="6.71477">
        <ele>1702.2</ele>
        <time>2026-06-27T08:43:16Z</time>
      </trkpt>
      <trkpt lat="46.12954" lon="6.71477">
        <ele>1702.2</ele>
        <time>2026-06-27T08:43:17Z</time>
      </trkpt>
      <trkpt lat="46.12954" lon="6.71477">
        <ele>1702.2</ele>
        <time>2026-06-27T08:43:18Z</time>
      </trkpt>
      <trkpt lat="46.12954" lon="6.71477">
        <ele>1702.2</ele>
        <time>2026-06-27T08:43:19Z</time>
      </trkpt>
      <trkpt lat="46.12954" lon="6.71477">
        <ele>1702.2</ele>
        <time>2026-06-27T08:43:20Z</time>
      </trkpt>
      <trkpt lat="46.12954" lon="6.71477">
        <ele>1702.2</ele>
        <time>2026-06-27T08:43:21Z</time>
      </trkpt>
      <trkpt lat="46.12954" lon="6.71477">
        <ele>1702.2</ele>
        <time>2026-06-27T08:43:22Z</time>
      </trkpt>
      <trkpt lat="46.12954" lon="6.71477">
        <ele>1702.1</ele>
        <time>2026-06-27T08:43:23Z</time>
      </trkpt>
      <trkpt lat="46.12954" lon="6.71477">
        <ele>1702</ele>
        <time>2026-06-27T08:43:24Z</time>
      </trkpt>
      <trkpt lat="46.12954" lon="6.71477">
        <ele>1702</ele>
        <time>2026-06-27T08:43:25Z</time>
      </trkpt>
      <trkpt lat="46.12954" lon="6.71477">
        <ele>1702</ele>
        <time>2026-06-27T08:43:26Z</time>
      </trkpt>
      <trkpt lat="46.12954" lon="6.71477">
        <ele>1702.1</ele>
        <time>2026-06-27T08:43:27Z</time>
      </trkpt>
      <trkpt lat="46.12954" lon="6.71477">
        <ele>1702.2</ele>
        <time>2026-06-27T08:43:28Z</time>
      </trkpt>
      <trkpt lat="46.12954" lon="6.71477">
        <ele>1702.2</ele>
        <time>2026-06-27T08:43:29Z</time>
      </trkpt>
      <trkpt lat="46.12954" lon="6.71477">
        <ele>1702.3</ele>
        <time>2026-06-27T08:43:30Z</time>
      </trkpt>
      <trkpt lat="46.12954" lon="6.71477">
        <ele>1702.3</ele>
        <time>2026-06-27T08:43:31Z</time>
      </trkpt>
      <trkpt lat="46.12954" lon="6.71477">
        <ele>1702.4</ele>
        <time>2026-06-27T08:43:32Z</time>
      </trkpt>
      <trkpt lat="46.12953" lon="6.71477">
        <ele>1702.4</ele>
        <time>2026-06-27T08:43:33Z</time>
      </trkpt>
      <trkpt lat="46.12953" lon="6.71477">
        <ele>1702.3</ele>
        <time>2026-06-27T08:43:34Z</time>
      </trkpt>
      <trkpt lat="46.12954" lon="6.71477">
        <ele>1702.3</ele>
        <time>2026-06-27T08:43:35Z</time>
      </trkpt>
      <trkpt lat="46.12954" lon="6.71476">
        <ele>1702.3</ele>
        <time>2026-06-27T08:43:36Z</time>
      </trkpt>
      <trkpt lat="46.12954" lon="6.71476">
        <ele>1702.3</ele>
        <time>2026-06-27T08:43:37Z</time>
      </trkpt>
      <trkpt lat="46.12954" lon="6.71476">
        <ele>1702.3</ele>
        <time>2026-06-27T08:43:38Z</time>
      </trkpt>
      <trkpt lat="46.12954" lon="6.71476">
        <ele>1702.3</ele>
        <time>2026-06-27T08:43:39Z</time>
      </trkpt>
      <trkpt lat="46.12954" lon="6.71476">
        <ele>1702.3</ele>
        <time>2026-06-27T08:43:40Z</time>
      </trkpt>
      <trkpt lat="46.12954" lon="6.71476">
        <ele>1702.3</ele>
        <time>2026-06-27T08:43:41Z</time>
      </trkpt>
      <trkpt lat="46.12954" lon="6.71477">
        <ele>1702.3</ele>
        <time>2026-06-27T08:43:42Z</time>
      </trkpt>
      <trkpt lat="46.12954" lon="6.71476">
        <ele>1702.2</ele>
        <time>2026-06-27T08:43:43Z</time>
      </trkpt>
      <trkpt lat="46.12954" lon="6.71477">
        <ele>1702.2</ele>
        <time>2026-06-27T08:43:44Z</time>
      </trkpt>
      <trkpt lat="46.12954" lon="6.71476">
        <ele>1702.1</ele>
        <time>2026-06-27T08:43:45Z</time>
      </trkpt>
      <trkpt lat="46.12954" lon="6.71477">
        <ele>1702.1</ele>
        <time>2026-06-27T08:43:46Z</time>
      </trkpt>
      <trkpt lat="46.12954" lon="6.71477">
        <ele>1702.1</ele>
        <time>2026-06-27T08:43:47Z</time>
      </trkpt>
      <trkpt lat="46.12954" lon="6.71477">
        <ele>1702.2</ele>
        <time>2026-06-27T08:43:48Z</time>
      </trkpt>
      <trkpt lat="46.12954" lon="6.71477">
        <ele>1702.2</ele>
        <time>2026-06-27T08:43:49Z</time>
      </trkpt>
      <trkpt lat="46.12954" lon="6.71476">
        <ele>1702.3</ele>
        <time>2026-06-27T08:43:50Z</time>
      </trkpt>
      <trkpt lat="46.12954" lon="6.71476">
        <ele>1702.3</ele>
        <time>2026-06-27T08:43:51Z</time>
      </trkpt>
      <trkpt lat="46.12954" lon="6.71477">
        <ele>1702.3</ele>
        <time>2026-06-27T08:43:52Z</time>
      </trkpt>
      <trkpt lat="46.12954" lon="6.71477">
        <ele>1702.2</ele>
        <time>2026-06-27T08:43:53Z</time>
      </trkpt>
      <trkpt lat="46.12954" lon="6.71477">
        <ele>1702.2</ele>
        <time>2026-06-27T08:43:54Z</time>
      </trkpt>
      <trkpt lat="46.12954" lon="6.71477">
        <ele>1702.2</ele>
        <time>2026-06-27T08:43:55Z</time>
      </trkpt>
      <trkpt lat="46.12954" lon="6.71477">
        <ele>1702.2</ele>
        <time>2026-06-27T08:43:56Z</time>
      </trkpt>
      <trkpt lat="46.12954" lon="6.71476">
        <ele>1702.3</ele>
        <time>2026-06-27T08:43:57Z</time>
      </trkpt>
      <trkpt lat="46.12954" lon="6.71475">
        <ele>1702.3</ele>
        <time>2026-06-27T08:43:58Z</time>
      </trkpt>
      <trkpt lat="46.12954" lon="6.71474">
        <ele>1702.3</ele>
        <time>2026-06-27T08:43:59Z</time>
      </trkpt>
      <trkpt lat="46.12953" lon="6.71473">
        <ele>1702.1</ele>
        <time>2026-06-27T08:44:00Z</time>
      </trkpt>
      <trkpt lat="46.12954" lon="6.71472">
        <ele>1702.1</ele>
        <time>2026-06-27T08:44:01Z</time>
      </trkpt>
      <trkpt lat="46.12954" lon="6.71471">
        <ele>1702</ele>
        <time>2026-06-27T08:44:02Z</time>
      </trkpt>
      <trkpt lat="46.12954" lon="6.7147">
        <ele>1701.7</ele>
        <time>2026-06-27T08:44:03Z</time>
      </trkpt>
      <trkpt lat="46.12955" lon="6.71469">
        <ele>1701.5</ele>
        <time>2026-06-27T08:44:04Z</time>
      </trkpt>
      <trkpt lat="46.12955" lon="6.71468">
        <ele>1701.4</ele>
        <time>2026-06-27T08:44:05Z</time>
      </trkpt>
      <trkpt lat="46.12955" lon="6.71468">
        <ele>1701.2</ele>
        <time>2026-06-27T08:44:06Z</time>
      </trkpt>
      <trkpt lat="46.12955" lon="6.71467">
        <ele>1701</ele>
        <time>2026-06-27T08:44:07Z</time>
      </trkpt>
      <trkpt lat="46.12955" lon="6.71467">
        <ele>1700.9</ele>
        <time>2026-06-27T08:44:08Z</time>
      </trkpt>
      <trkpt lat="46.12955" lon="6.71466">
        <ele>1700.8</ele>
        <time>2026-06-27T08:44:09Z</time>
      </trkpt>
      <trkpt lat="46.12955" lon="6.71465">
        <ele>1700.8</ele>
        <time>2026-06-27T08:44:10Z</time>
      </trkpt>
      <trkpt lat="46.12955" lon="6.71464">
        <ele>1700.8</ele>
        <time>2026-06-27T08:44:11Z</time>
      </trkpt>
      <trkpt lat="46.12955" lon="6.71463">
        <ele>1700.7</ele>
        <time>2026-06-27T08:44:12Z</time>
      </trkpt>
      <trkpt lat="46.12955" lon="6.71461">
        <ele>1700.5</ele>
        <time>2026-06-27T08:44:13Z</time>
      </trkpt>
      <trkpt lat="46.12955" lon="6.7146">
        <ele>1700.3</ele>
        <time>2026-06-27T08:44:14Z</time>
      </trkpt>
      <trkpt lat="46.12955" lon="6.71459">
        <ele>1700.2</ele>
        <time>2026-06-27T08:44:15Z</time>
      </trkpt>
      <trkpt lat="46.12955" lon="6.71457">
        <ele>1700.2</ele>
        <time>2026-06-27T08:44:16Z</time>
      </trkpt>
      <trkpt lat="46.12955" lon="6.71455">
        <ele>1700.1</ele>
        <time>2026-06-27T08:44:17Z</time>
      </trkpt>
      <trkpt lat="46.12955" lon="6.71455">
        <ele>1700</ele>
        <time>2026-06-27T08:44:18Z</time>
      </trkpt>
      <trkpt lat="46.12955" lon="6.71454">
        <ele>1699.9</ele>
        <time>2026-06-27T08:44:19Z</time>
      </trkpt>
      <trkpt lat="46.12955" lon="6.71453">
        <ele>1699.8</ele>
        <time>2026-06-27T08:44:20Z</time>
      </trkpt>
      <trkpt lat="46.12955" lon="6.71451">
        <ele>1699.7</ele>
        <time>2026-06-27T08:44:21Z</time>
      </trkpt>
      <trkpt lat="46.12954" lon="6.7145">
        <ele>1699.6</ele>
        <time>2026-06-27T08:44:22Z</time>
      </trkpt>
      <trkpt lat="46.12954" lon="6.71449">
        <ele>1699.6</ele>
        <time>2026-06-27T08:44:23Z</time>
      </trkpt>
      <trkpt lat="46.12954" lon="6.71448">
        <ele>1699.5</ele>
        <time>2026-06-27T08:44:24Z</time>
      </trkpt>
      <trkpt lat="46.12953" lon="6.71447">
        <ele>1699.5</ele>
        <time>2026-06-27T08:44:25Z</time>
      </trkpt>
      <trkpt lat="46.12953" lon="6.71446">
        <ele>1699.4</ele>
        <time>2026-06-27T08:44:26Z</time>
      </trkpt>
      <trkpt lat="46.12953" lon="6.71444">
        <ele>1699.2</ele>
        <time>2026-06-27T08:44:27Z</time>
      </trkpt>
      <trkpt lat="46.12953" lon="6.71443">
        <ele>1699.1</ele>
        <time>2026-06-27T08:44:28Z</time>
      </trkpt>
      <trkpt lat="46.12953" lon="6.71442">
        <ele>1699.1</ele>
        <time>2026-06-27T08:44:29Z</time>
      </trkpt>
      <trkpt lat="46.12953" lon="6.7144">
        <ele>1699</ele>
        <time>2026-06-27T08:44:30Z</time>
      </trkpt>
      <trkpt lat="46.12953" lon="6.71439">
        <ele>1699</ele>
        <time>2026-06-27T08:44:31Z</time>
      </trkpt>
      <trkpt lat="46.12953" lon="6.71437">
        <ele>1698.9</ele>
        <time>2026-06-27T08:44:32Z</time>
      </trkpt>
      <trkpt lat="46.12952" lon="6.71436">
        <ele>1698.9</ele>
        <time>2026-06-27T08:44:33Z</time>
      </trkpt>
      <trkpt lat="46.12952" lon="6.71435">
        <ele>1698.8</ele>
        <time>2026-06-27T08:44:34Z</time>
      </trkpt>
      <trkpt lat="46.12952" lon="6.71433">
        <ele>1698.7</ele>
        <time>2026-06-27T08:44:35Z</time>
      </trkpt>
      <trkpt lat="46.12951" lon="6.71432">
        <ele>1698.6</ele>
        <time>2026-06-27T08:44:36Z</time>
      </trkpt>
      <trkpt lat="46.12951" lon="6.71431">
        <ele>1698.5</ele>
        <time>2026-06-27T08:44:37Z</time>
      </trkpt>
      <trkpt lat="46.12951" lon="6.71431">
        <ele>1698.4</ele>
        <time>2026-06-27T08:44:38Z</time>
      </trkpt>
      <trkpt lat="46.1295" lon="6.71429">
        <ele>1698.2</ele>
        <time>2026-06-27T08:44:39Z</time>
      </trkpt>
      <trkpt lat="46.1295" lon="6.71428">
        <ele>1698.1</ele>
        <time>2026-06-27T08:44:40Z</time>
      </trkpt>
      <trkpt lat="46.12949" lon="6.71428">
        <ele>1698.1</ele>
        <time>2026-06-27T08:44:41Z</time>
      </trkpt>
      <trkpt lat="46.12949" lon="6.71427">
        <ele>1698.2</ele>
        <time>2026-06-27T08:44:42Z</time>
      </trkpt>
      <trkpt lat="46.12948" lon="6.71427">
        <ele>1698.2</ele>
        <time>2026-06-27T08:44:43Z</time>
      </trkpt>
      <trkpt lat="46.12947" lon="6.71426">
        <ele>1698.2</ele>
        <time>2026-06-27T08:44:44Z</time>
      </trkpt>
      <trkpt lat="46.12946" lon="6.71426">
        <ele>1698.2</ele>
        <time>2026-06-27T08:44:45Z</time>
      </trkpt>
      <trkpt lat="46.12946" lon="6.71425">
        <ele>1698.1</ele>
        <time>2026-06-27T08:44:46Z</time>
      </trkpt>
      <trkpt lat="46.12946" lon="6.71424">
        <ele>1698</ele>
        <time>2026-06-27T08:44:47Z</time>
      </trkpt>
      <trkpt lat="46.12946" lon="6.71424">
        <ele>1698</ele>
        <time>2026-06-27T08:44:48Z</time>
      </trkpt>
      <trkpt lat="46.12946" lon="6.71424">
        <ele>1697.9</ele>
        <time>2026-06-27T08:44:49Z</time>
      </trkpt>
      <trkpt lat="46.12946" lon="6.71424">
        <ele>1697.9</ele>
        <time>2026-06-27T08:44:50Z</time>
      </trkpt>
      <trkpt lat="46.12946" lon="6.71424">
        <ele>1697.9</ele>
        <time>2026-06-27T08:44:51Z</time>
      </trkpt>
      <trkpt lat="46.12946" lon="6.71423">
        <ele>1697.9</ele>
        <time>2026-06-27T08:44:52Z</time>
      </trkpt>
      <trkpt lat="46.12946" lon="6.71423">
        <ele>1697.8</ele>
        <time>2026-06-27T08:44:53Z</time>
      </trkpt>
      <trkpt lat="46.12946" lon="6.71422">
        <ele>1697.7</ele>
        <time>2026-06-27T08:44:54Z</time>
      </trkpt>
      <trkpt lat="46.12946" lon="6.71422">
        <ele>1697.7</ele>
        <time>2026-06-27T08:44:55Z</time>
      </trkpt>
      <trkpt lat="46.12947" lon="6.71422">
        <ele>1697.6</ele>
        <time>2026-06-27T08:44:56Z</time>
      </trkpt>
      <trkpt lat="46.12947" lon="6.71422">
        <ele>1697.6</ele>
        <time>2026-06-27T08:44:57Z</time>
      </trkpt>
      <trkpt lat="46.12947" lon="6.71422">
        <ele>1697.6</ele>
        <time>2026-06-27T08:44:58Z</time>
      </trkpt>
      <trkpt lat="46.12946" lon="6.71423">
        <ele>1697.6</ele>
        <time>2026-06-27T08:44:59Z</time>
      </trkpt>
      <trkpt lat="46.12946" lon="6.71423">
        <ele>1697.5</ele>
        <time>2026-06-27T08:45:00Z</time>
      </trkpt>
      <trkpt lat="46.12947" lon="6.71423">
        <ele>1697.5</ele>
        <time>2026-06-27T08:45:01Z</time>
      </trkpt>
      <trkpt lat="46.12947" lon="6.71423">
        <ele>1697.4</ele>
        <time>2026-06-27T08:45:02Z</time>
      </trkpt>
      <trkpt lat="46.12947" lon="6.71423">
        <ele>1697.5</ele>
        <time>2026-06-27T08:45:03Z</time>
      </trkpt>
      <trkpt lat="46.12948" lon="6.71422">
        <ele>1697.5</ele>
        <time>2026-06-27T08:45:04Z</time>
      </trkpt>
      <trkpt lat="46.12948" lon="6.71422">
        <ele>1697.5</ele>
        <time>2026-06-27T08:45:05Z</time>
      </trkpt>
      <trkpt lat="46.12949" lon="6.71421">
        <ele>1697.5</ele>
        <time>2026-06-27T08:45:06Z</time>
      </trkpt>
      <trkpt lat="46.1295" lon="6.7142">
        <ele>1697.5</ele>
        <time>2026-06-27T08:45:07Z</time>
      </trkpt>
      <trkpt lat="46.1295" lon="6.71419">
        <ele>1697.5</ele>
        <time>2026-06-27T08:45:08Z</time>
      </trkpt>
      <trkpt lat="46.1295" lon="6.71418">
        <ele>1697.5</ele>
        <time>2026-06-27T08:45:09Z</time>
      </trkpt>
      <trkpt lat="46.12951" lon="6.71417">
        <ele>1697.5</ele>
        <time>2026-06-27T08:45:10Z</time>
      </trkpt>
      <trkpt lat="46.12952" lon="6.71416">
        <ele>1697.5</ele>
        <time>2026-06-27T08:45:11Z</time>
      </trkpt>
      <trkpt lat="46.12952" lon="6.71415">
        <ele>1697.5</ele>
        <time>2026-06-27T08:45:12Z</time>
      </trkpt>
      <trkpt lat="46.12953" lon="6.71414">
        <ele>1697.4</ele>
        <time>2026-06-27T08:45:13Z</time>
      </trkpt>
      <trkpt lat="46.12953" lon="6.71413">
        <ele>1697.4</ele>
        <time>2026-06-27T08:45:14Z</time>
      </trkpt>
      <trkpt lat="46.12954" lon="6.71412">
        <ele>1697.3</ele>
        <time>2026-06-27T08:45:15Z</time>
      </trkpt>
      <trkpt lat="46.12954" lon="6.7141">
        <ele>1697.3</ele>
        <time>2026-06-27T08:45:16Z</time>
      </trkpt>
      <trkpt lat="46.12954" lon="6.71408">
        <ele>1697.3</ele>
        <time>2026-06-27T08:45:17Z</time>
      </trkpt>
      <trkpt lat="46.12954" lon="6.71407">
        <ele>1697.3</ele>
        <time>2026-06-27T08:45:18Z</time>
      </trkpt>
      <trkpt lat="46.12954" lon="6.71405">
        <ele>1697.3</ele>
        <time>2026-06-27T08:45:19Z</time>
      </trkpt>
      <trkpt lat="46.12955" lon="6.71404">
        <ele>1697.2</ele>
        <time>2026-06-27T08:45:20Z</time>
      </trkpt>
      <trkpt lat="46.12955" lon="6.71402">
        <ele>1697.2</ele>
        <time>2026-06-27T08:45:21Z</time>
      </trkpt>
      <trkpt lat="46.12955" lon="6.71401">
        <ele>1697.1</ele>
        <time>2026-06-27T08:45:22Z</time>
      </trkpt>
      <trkpt lat="46.12956" lon="6.71399">
        <ele>1697.1</ele>
        <time>2026-06-27T08:45:23Z</time>
      </trkpt>
      <trkpt lat="46.12956" lon="6.71398">
        <ele>1697.2</ele>
        <time>2026-06-27T08:45:24Z</time>
      </trkpt>
      <trkpt lat="46.12956" lon="6.71397">
        <ele>1697.2</ele>
        <time>2026-06-27T08:45:25Z</time>
      </trkpt>
      <trkpt lat="46.12957" lon="6.71395">
        <ele>1697.1</ele>
        <time>2026-06-27T08:45:26Z</time>
      </trkpt>
      <trkpt lat="46.12957" lon="6.71394">
        <ele>1697</ele>
        <time>2026-06-27T08:45:27Z</time>
      </trkpt>
      <trkpt lat="46.12957" lon="6.71393">
        <ele>1697</ele>
        <time>2026-06-27T08:45:28Z</time>
      </trkpt>
      <trkpt lat="46.12958" lon="6.71391">
        <ele>1696.9</ele>
        <time>2026-06-27T08:45:29Z</time>
      </trkpt>
      <trkpt lat="46.12958" lon="6.71389">
        <ele>1696.9</ele>
        <time>2026-06-27T08:45:30Z</time>
      </trkpt>
      <trkpt lat="46.12959" lon="6.71388">
        <ele>1696.8</ele>
        <time>2026-06-27T08:45:31Z</time>
      </trkpt>
      <trkpt lat="46.12959" lon="6.71386">
        <ele>1696.8</ele>
        <time>2026-06-27T08:45:32Z</time>
      </trkpt>
      <trkpt lat="46.12959" lon="6.71385">
        <ele>1696.8</ele>
        <time>2026-06-27T08:45:33Z</time>
      </trkpt>
      <trkpt lat="46.1296" lon="6.71384">
        <ele>1696.7</ele>
        <time>2026-06-27T08:45:34Z</time>
      </trkpt>
      <trkpt lat="46.1296" lon="6.71382">
        <ele>1696.6</ele>
        <time>2026-06-27T08:45:35Z</time>
      </trkpt>
      <trkpt lat="46.12961" lon="6.71381">
        <ele>1696.4</ele>
        <time>2026-06-27T08:45:36Z</time>
      </trkpt>
      <trkpt lat="46.12961" lon="6.7138">
        <ele>1696.4</ele>
        <time>2026-06-27T08:45:37Z</time>
      </trkpt>
      <trkpt lat="46.12962" lon="6.71379">
        <ele>1696.3</ele>
        <time>2026-06-27T08:45:38Z</time>
      </trkpt>
      <trkpt lat="46.12962" lon="6.71378">
        <ele>1696.3</ele>
        <time>2026-06-27T08:45:39Z</time>
      </trkpt>
      <trkpt lat="46.12962" lon="6.71377">
        <ele>1696.3</ele>
        <time>2026-06-27T08:45:40Z</time>
      </trkpt>
      <trkpt lat="46.12963" lon="6.71376">
        <ele>1696.3</ele>
        <time>2026-06-27T08:45:41Z</time>
      </trkpt>
      <trkpt lat="46.12964" lon="6.71375">
        <ele>1696.3</ele>
        <time>2026-06-27T08:45:42Z</time>
      </trkpt>
      <trkpt lat="46.12965" lon="6.71375">
        <ele>1696.1</ele>
        <time>2026-06-27T08:45:43Z</time>
      </trkpt>
      <trkpt lat="46.12965" lon="6.71374">
        <ele>1696</ele>
        <time>2026-06-27T08:45:44Z</time>
      </trkpt>
      <trkpt lat="46.12965" lon="6.71374">
        <ele>1696</ele>
        <time>2026-06-27T08:45:45Z</time>
      </trkpt>
      <trkpt lat="46.12965" lon="6.71374">
        <ele>1696.1</ele>
        <time>2026-06-27T08:45:46Z</time>
      </trkpt>
      <trkpt lat="46.12965" lon="6.71374">
        <ele>1696.2</ele>
        <time>2026-06-27T08:45:47Z</time>
      </trkpt>
      <trkpt lat="46.12965" lon="6.71374">
        <ele>1696.3</ele>
        <time>2026-06-27T08:45:48Z</time>
      </trkpt>
      <trkpt lat="46.12964" lon="6.71374">
        <ele>1696.4</ele>
        <time>2026-06-27T08:45:49Z</time>
      </trkpt>
      <trkpt lat="46.12964" lon="6.71374">
        <ele>1696.4</ele>
        <time>2026-06-27T08:45:50Z</time>
      </trkpt>
      <trkpt lat="46.12963" lon="6.71374">
        <ele>1696.4</ele>
        <time>2026-06-27T08:45:51Z</time>
      </trkpt>
      <trkpt lat="46.12962" lon="6.71374">
        <ele>1696.4</ele>
        <time>2026-06-27T08:45:52Z</time>
      </trkpt>
      <trkpt lat="46.12962" lon="6.71373">
        <ele>1696.3</ele>
        <time>2026-06-27T08:45:53Z</time>
      </trkpt>
      <trkpt lat="46.12962" lon="6.71372">
        <ele>1696.2</ele>
        <time>2026-06-27T08:45:54Z</time>
      </trkpt>
      <trkpt lat="46.12961" lon="6.71371">
        <ele>1696.2</ele>
        <time>2026-06-27T08:45:55Z</time>
      </trkpt>
      <trkpt lat="46.12961" lon="6.71369">
        <ele>1696.1</ele>
        <time>2026-06-27T08:45:56Z</time>
      </trkpt>
      <trkpt lat="46.12961" lon="6.71368">
        <ele>1696</ele>
        <time>2026-06-27T08:45:57Z</time>
      </trkpt>
      <trkpt lat="46.12961" lon="6.71367">
        <ele>1696</ele>
        <time>2026-06-27T08:45:58Z</time>
      </trkpt>
      <trkpt lat="46.12961" lon="6.71366">
        <ele>1696</ele>
        <time>2026-06-27T08:45:59Z</time>
      </trkpt>
      <trkpt lat="46.12961" lon="6.71364">
        <ele>1695.9</ele>
        <time>2026-06-27T08:46:00Z</time>
      </trkpt>
      <trkpt lat="46.12961" lon="6.71363">
        <ele>1695.9</ele>
        <time>2026-06-27T08:46:01Z</time>
      </trkpt>
      <trkpt lat="46.12961" lon="6.71362">
        <ele>1696</ele>
        <time>2026-06-27T08:46:02Z</time>
      </trkpt>
      <trkpt lat="46.12961" lon="6.7136">
        <ele>1695.9</ele>
        <time>2026-06-27T08:46:03Z</time>
      </trkpt>
      <trkpt lat="46.12961" lon="6.71358">
        <ele>1695.8</ele>
        <time>2026-06-27T08:46:04Z</time>
      </trkpt>
      <trkpt lat="46.12961" lon="6.71357">
        <ele>1695.6</ele>
        <time>2026-06-27T08:46:05Z</time>
      </trkpt>
      <trkpt lat="46.12962" lon="6.71355">
        <ele>1695.5</ele>
        <time>2026-06-27T08:46:06Z</time>
      </trkpt>
      <trkpt lat="46.12962" lon="6.71354">
        <ele>1695.3</ele>
        <time>2026-06-27T08:46:07Z</time>
      </trkpt>
      <trkpt lat="46.12963" lon="6.71353">
        <ele>1695.3</ele>
        <time>2026-06-27T08:46:08Z</time>
      </trkpt>
      <trkpt lat="46.12963" lon="6.71351">
        <ele>1695.3</ele>
        <time>2026-06-27T08:46:09Z</time>
      </trkpt>
      <trkpt lat="46.12964" lon="6.7135">
        <ele>1695.3</ele>
        <time>2026-06-27T08:46:10Z</time>
      </trkpt>
      <trkpt lat="46.12964" lon="6.71349">
        <ele>1695.4</ele>
        <time>2026-06-27T08:46:11Z</time>
      </trkpt>
      <trkpt lat="46.12965" lon="6.71348">
        <ele>1695.3</ele>
        <time>2026-06-27T08:46:12Z</time>
      </trkpt>
      <trkpt lat="46.12965" lon="6.71346">
        <ele>1695.3</ele>
        <time>2026-06-27T08:46:13Z</time>
      </trkpt>
      <trkpt lat="46.12965" lon="6.71345">
        <ele>1695.3</ele>
        <time>2026-06-27T08:46:14Z</time>
      </trkpt>
      <trkpt lat="46.12965" lon="6.71344">
        <ele>1695.1</ele>
        <time>2026-06-27T08:46:15Z</time>
      </trkpt>
      <trkpt lat="46.12965" lon="6.71342">
        <ele>1695.2</ele>
        <time>2026-06-27T08:46:16Z</time>
      </trkpt>
      <trkpt lat="46.12965" lon="6.71341">
        <ele>1695.2</ele>
        <time>2026-06-27T08:46:17Z</time>
      </trkpt>
      <trkpt lat="46.12966" lon="6.71339">
        <ele>1695.2</ele>
        <time>2026-06-27T08:46:18Z</time>
      </trkpt>
      <trkpt lat="46.12966" lon="6.71338">
        <ele>1695.2</ele>
        <time>2026-06-27T08:46:19Z</time>
      </trkpt>
      <trkpt lat="46.12966" lon="6.71337">
        <ele>1695.2</ele>
        <time>2026-06-27T08:46:20Z</time>
      </trkpt>
      <trkpt lat="46.12966" lon="6.71335">
        <ele>1695.1</ele>
        <time>2026-06-27T08:46:21Z</time>
      </trkpt>
      <trkpt lat="46.12966" lon="6.71334">
        <ele>1695</ele>
        <time>2026-06-27T08:46:22Z</time>
      </trkpt>
      <trkpt lat="46.12966" lon="6.71333">
        <ele>1695</ele>
        <time>2026-06-27T08:46:23Z</time>
      </trkpt>
      <trkpt lat="46.12966" lon="6.71331">
        <ele>1694.7</ele>
        <time>2026-06-27T08:46:24Z</time>
      </trkpt>
      <trkpt lat="46.12966" lon="6.7133">
        <ele>1694.5</ele>
        <time>2026-06-27T08:46:25Z</time>
      </trkpt>
      <trkpt lat="46.12966" lon="6.71328">
        <ele>1694.5</ele>
        <time>2026-06-27T08:46:26Z</time>
      </trkpt>
      <trkpt lat="46.12966" lon="6.71327">
        <ele>1694.5</ele>
        <time>2026-06-27T08:46:27Z</time>
      </trkpt>
      <trkpt lat="46.12966" lon="6.71326">
        <ele>1694.6</ele>
        <time>2026-06-27T08:46:28Z</time>
      </trkpt>
      <trkpt lat="46.12966" lon="6.71325">
        <ele>1694.6</ele>
        <time>2026-06-27T08:46:29Z</time>
      </trkpt>
      <trkpt lat="46.12966" lon="6.71323">
        <ele>1694.7</ele>
        <time>2026-06-27T08:46:30Z</time>
      </trkpt>
      <trkpt lat="46.12966" lon="6.71322">
        <ele>1694.7</ele>
        <time>2026-06-27T08:46:31Z</time>
      </trkpt>
      <trkpt lat="46.12966" lon="6.7132">
        <ele>1694.5</ele>
        <time>2026-06-27T08:46:32Z</time>
      </trkpt>
      <trkpt lat="46.12966" lon="6.71319">
        <ele>1694.4</ele>
        <time>2026-06-27T08:46:33Z</time>
      </trkpt>
      <trkpt lat="46.12966" lon="6.71317">
        <ele>1694.3</ele>
        <time>2026-06-27T08:46:34Z</time>
      </trkpt>
      <trkpt lat="46.12966" lon="6.71316">
        <ele>1694.2</ele>
        <time>2026-06-27T08:46:35Z</time>
      </trkpt>
      <trkpt lat="46.12966" lon="6.71314">
        <ele>1694.3</ele>
        <time>2026-06-27T08:46:36Z</time>
      </trkpt>
      <trkpt lat="46.12966" lon="6.71313">
        <ele>1694.3</ele>
        <time>2026-06-27T08:46:37Z</time>
      </trkpt>
      <trkpt lat="46.12966" lon="6.71312">
        <ele>1694.3</ele>
        <time>2026-06-27T08:46:38Z</time>
      </trkpt>
      <trkpt lat="46.12966" lon="6.71311">
        <ele>1694.2</ele>
        <time>2026-06-27T08:46:39Z</time>
      </trkpt>
      <trkpt lat="46.12966" lon="6.7131">
        <ele>1694.1</ele>
        <time>2026-06-27T08:46:40Z</time>
      </trkpt>
      <trkpt lat="46.12966" lon="6.71309">
        <ele>1694</ele>
        <time>2026-06-27T08:46:41Z</time>
      </trkpt>
      <trkpt lat="46.12966" lon="6.71307">
        <ele>1693.9</ele>
        <time>2026-06-27T08:46:42Z</time>
      </trkpt>
      <trkpt lat="46.12967" lon="6.71306">
        <ele>1693.7</ele>
        <time>2026-06-27T08:46:43Z</time>
      </trkpt>
      <trkpt lat="46.12967" lon="6.71305">
        <ele>1693.5</ele>
        <time>2026-06-27T08:46:44Z</time>
      </trkpt>
      <trkpt lat="46.12967" lon="6.71304">
        <ele>1693.4</ele>
        <time>2026-06-27T08:46:45Z</time>
      </trkpt>
      <trkpt lat="46.12966" lon="6.71303">
        <ele>1693.3</ele>
        <time>2026-06-27T08:46:46Z</time>
      </trkpt>
      <trkpt lat="46.12966" lon="6.71302">
        <ele>1693.1</ele>
        <time>2026-06-27T08:46:47Z</time>
      </trkpt>
      <trkpt lat="46.12966" lon="6.713">
        <ele>1692.9</ele>
        <time>2026-06-27T08:46:48Z</time>
      </trkpt>
      <trkpt lat="46.12965" lon="6.71298">
        <ele>1692.8</ele>
        <time>2026-06-27T08:46:49Z</time>
      </trkpt>
      <trkpt lat="46.12965" lon="6.71296">
        <ele>1692.7</ele>
        <time>2026-06-27T08:46:50Z</time>
      </trkpt>
      <trkpt lat="46.12965" lon="6.71294">
        <ele>1692.6</ele>
        <time>2026-06-27T08:46:51Z</time>
      </trkpt>
      <trkpt lat="46.12965" lon="6.71292">
        <ele>1692.5</ele>
        <time>2026-06-27T08:46:52Z</time>
      </trkpt>
      <trkpt lat="46.12966" lon="6.71291">
        <ele>1692.5</ele>
        <time>2026-06-27T08:46:53Z</time>
      </trkpt>
      <trkpt lat="46.12966" lon="6.7129">
        <ele>1692.5</ele>
        <time>2026-06-27T08:46:54Z</time>
      </trkpt>
      <trkpt lat="46.12966" lon="6.71288">
        <ele>1692.5</ele>
        <time>2026-06-27T08:46:55Z</time>
      </trkpt>
      <trkpt lat="46.12967" lon="6.71286">
        <ele>1692.4</ele>
        <time>2026-06-27T08:46:56Z</time>
      </trkpt>
      <trkpt lat="46.12967" lon="6.71285">
        <ele>1692.5</ele>
        <time>2026-06-27T08:46:57Z</time>
      </trkpt>
      <trkpt lat="46.12967" lon="6.71283">
        <ele>1692.6</ele>
        <time>2026-06-27T08:46:58Z</time>
      </trkpt>
      <trkpt lat="46.12967" lon="6.71282">
        <ele>1692.7</ele>
        <time>2026-06-27T08:46:59Z</time>
      </trkpt>
      <trkpt lat="46.12968" lon="6.7128">
        <ele>1692.8</ele>
        <time>2026-06-27T08:47:00Z</time>
      </trkpt>
      <trkpt lat="46.12968" lon="6.71279">
        <ele>1692.9</ele>
        <time>2026-06-27T08:47:01Z</time>
      </trkpt>
      <trkpt lat="46.12968" lon="6.71278">
        <ele>1692.8</ele>
        <time>2026-06-27T08:47:02Z</time>
      </trkpt>
      <trkpt lat="46.12968" lon="6.71276">
        <ele>1692.9</ele>
        <time>2026-06-27T08:47:03Z</time>
      </trkpt>
      <trkpt lat="46.12968" lon="6.71274">
        <ele>1692.9</ele>
        <time>2026-06-27T08:47:04Z</time>
      </trkpt>
      <trkpt lat="46.12968" lon="6.71272">
        <ele>1692.9</ele>
        <time>2026-06-27T08:47:05Z</time>
      </trkpt>
      <trkpt lat="46.12968" lon="6.71271">
        <ele>1692.9</ele>
        <time>2026-06-27T08:47:06Z</time>
      </trkpt>
      <trkpt lat="46.12968" lon="6.71269">
        <ele>1692.8</ele>
        <time>2026-06-27T08:47:07Z</time>
      </trkpt>
      <trkpt lat="46.12968" lon="6.71267">
        <ele>1692.7</ele>
        <time>2026-06-27T08:47:08Z</time>
      </trkpt>
      <trkpt lat="46.12968" lon="6.71265">
        <ele>1692.7</ele>
        <time>2026-06-27T08:47:09Z</time>
      </trkpt>
      <trkpt lat="46.12968" lon="6.71264">
        <ele>1692.6</ele>
        <time>2026-06-27T08:47:10Z</time>
      </trkpt>
      <trkpt lat="46.12968" lon="6.71262">
        <ele>1692.7</ele>
        <time>2026-06-27T08:47:11Z</time>
      </trkpt>
      <trkpt lat="46.12968" lon="6.71261">
        <ele>1692.7</ele>
        <time>2026-06-27T08:47:12Z</time>
      </trkpt>
      <trkpt lat="46.12968" lon="6.71259">
        <ele>1692.7</ele>
        <time>2026-06-27T08:47:13Z</time>
      </trkpt>
      <trkpt lat="46.12968" lon="6.71257">
        <ele>1692.7</ele>
        <time>2026-06-27T08:47:14Z</time>
      </trkpt>
      <trkpt lat="46.12967" lon="6.71256">
        <ele>1692.5</ele>
        <time>2026-06-27T08:47:15Z</time>
      </trkpt>
      <trkpt lat="46.12967" lon="6.71254">
        <ele>1692.3</ele>
        <time>2026-06-27T08:47:16Z</time>
      </trkpt>
      <trkpt lat="46.12967" lon="6.71253">
        <ele>1692.2</ele>
        <time>2026-06-27T08:47:17Z</time>
      </trkpt>
      <trkpt lat="46.12968" lon="6.71251">
        <ele>1692.1</ele>
        <time>2026-06-27T08:47:18Z</time>
      </trkpt>
      <trkpt lat="46.12967" lon="6.71249">
        <ele>1692</ele>
        <time>2026-06-27T08:47:19Z</time>
      </trkpt>
      <trkpt lat="46.12967" lon="6.71247">
        <ele>1692</ele>
        <time>2026-06-27T08:47:20Z</time>
      </trkpt>
      <trkpt lat="46.12967" lon="6.71246">
        <ele>1692</ele>
        <time>2026-06-27T08:47:21Z</time>
      </trkpt>
      <trkpt lat="46.12966" lon="6.71244">
        <ele>1692</ele>
        <time>2026-06-27T08:47:22Z</time>
      </trkpt>
      <trkpt lat="46.12967" lon="6.71242">
        <ele>1692</ele>
        <time>2026-06-27T08:47:23Z</time>
      </trkpt>
      <trkpt lat="46.12966" lon="6.71241">
        <ele>1691.9</ele>
        <time>2026-06-27T08:47:24Z</time>
      </trkpt>
      <trkpt lat="46.12967" lon="6.71239">
        <ele>1691.9</ele>
        <time>2026-06-27T08:47:25Z</time>
      </trkpt>
      <trkpt lat="46.12967" lon="6.71237">
        <ele>1691.8</ele>
        <time>2026-06-27T08:47:26Z</time>
      </trkpt>
      <trkpt lat="46.12967" lon="6.71235">
        <ele>1691.7</ele>
        <time>2026-06-27T08:47:27Z</time>
      </trkpt>
      <trkpt lat="46.12967" lon="6.71233">
        <ele>1691.7</ele>
        <time>2026-06-27T08:47:28Z</time>
      </trkpt>
      <trkpt lat="46.12967" lon="6.71232">
        <ele>1691.6</ele>
        <time>2026-06-27T08:47:29Z</time>
      </trkpt>
      <trkpt lat="46.12967" lon="6.7123">
        <ele>1691.5</ele>
        <time>2026-06-27T08:47:30Z</time>
      </trkpt>
      <trkpt lat="46.12967" lon="6.71229">
        <ele>1691.4</ele>
        <time>2026-06-27T08:47:31Z</time>
      </trkpt>
      <trkpt lat="46.12966" lon="6.71227">
        <ele>1691.4</ele>
        <time>2026-06-27T08:47:32Z</time>
      </trkpt>
      <trkpt lat="46.12966" lon="6.71226">
        <ele>1691.3</ele>
        <time>2026-06-27T08:47:33Z</time>
      </trkpt>
      <trkpt lat="46.12966" lon="6.71224">
        <ele>1691.3</ele>
        <time>2026-06-27T08:47:34Z</time>
      </trkpt>
      <trkpt lat="46.12966" lon="6.71223">
        <ele>1691.3</ele>
        <time>2026-06-27T08:47:35Z</time>
      </trkpt>
      <trkpt lat="46.12965" lon="6.71221">
        <ele>1691.2</ele>
        <time>2026-06-27T08:47:36Z</time>
      </trkpt>
      <trkpt lat="46.12965" lon="6.7122">
        <ele>1691.1</ele>
        <time>2026-06-27T08:47:37Z</time>
      </trkpt>
      <trkpt lat="46.12965" lon="6.71218">
        <ele>1691.1</ele>
        <time>2026-06-27T08:47:38Z</time>
      </trkpt>
      <trkpt lat="46.12965" lon="6.71217">
        <ele>1691.1</ele>
        <time>2026-06-27T08:47:39Z</time>
      </trkpt>
      <trkpt lat="46.12965" lon="6.71216">
        <ele>1691.1</ele>
        <time>2026-06-27T08:47:40Z</time>
      </trkpt>
      <trkpt lat="46.12965" lon="6.71214">
        <ele>1691</ele>
        <time>2026-06-27T08:47:41Z</time>
      </trkpt>
      <trkpt lat="46.12965" lon="6.71213">
        <ele>1691.1</ele>
        <time>2026-06-27T08:47:42Z</time>
      </trkpt>
      <trkpt lat="46.12965" lon="6.71211">
        <ele>1691</ele>
        <time>2026-06-27T08:47:43Z</time>
      </trkpt>
      <trkpt lat="46.12965" lon="6.71209">
        <ele>1691</ele>
        <time>2026-06-27T08:47:44Z</time>
      </trkpt>
      <trkpt lat="46.12965" lon="6.71209">
        <ele>1691.1</ele>
        <time>2026-06-27T08:47:45Z</time>
      </trkpt>
      <trkpt lat="46.12965" lon="6.71207">
        <ele>1691</ele>
        <time>2026-06-27T08:47:46Z</time>
      </trkpt>
      <trkpt lat="46.12965" lon="6.71206">
        <ele>1691</ele>
        <time>2026-06-27T08:47:47Z</time>
      </trkpt>
      <trkpt lat="46.12966" lon="6.71204">
        <ele>1691.1</ele>
        <time>2026-06-27T08:47:48Z</time>
      </trkpt>
      <trkpt lat="46.12966" lon="6.71203">
        <ele>1691.1</ele>
        <time>2026-06-27T08:47:49Z</time>
      </trkpt>
      <trkpt lat="46.12966" lon="6.71202">
        <ele>1691</ele>
        <time>2026-06-27T08:47:50Z</time>
      </trkpt>
      <trkpt lat="46.12966" lon="6.712">
        <ele>1691.1</ele>
        <time>2026-06-27T08:47:51Z</time>
      </trkpt>
      <trkpt lat="46.12966" lon="6.71199">
        <ele>1691</ele>
        <time>2026-06-27T08:47:52Z</time>
      </trkpt>
      <trkpt lat="46.12965" lon="6.71197">
        <ele>1690.9</ele>
        <time>2026-06-27T08:47:53Z</time>
      </trkpt>
      <trkpt lat="46.12965" lon="6.71196">
        <ele>1690.9</ele>
        <time>2026-06-27T08:47:54Z</time>
      </trkpt>
      <trkpt lat="46.12965" lon="6.71195">
        <ele>1690.8</ele>
        <time>2026-06-27T08:47:55Z</time>
      </trkpt>
      <trkpt lat="46.12965" lon="6.71194">
        <ele>1690.8</ele>
        <time>2026-06-27T08:47:56Z</time>
      </trkpt>
      <trkpt lat="46.12965" lon="6.71193">
        <ele>1690.7</ele>
        <time>2026-06-27T08:47:57Z</time>
      </trkpt>
      <trkpt lat="46.12965" lon="6.71191">
        <ele>1690.7</ele>
        <time>2026-06-27T08:47:58Z</time>
      </trkpt>
      <trkpt lat="46.12965" lon="6.7119">
        <ele>1690.6</ele>
        <time>2026-06-27T08:47:59Z</time>
      </trkpt>
      <trkpt lat="46.12965" lon="6.71189">
        <ele>1690.5</ele>
        <time>2026-06-27T08:48:00Z</time>
      </trkpt>
      <trkpt lat="46.12965" lon="6.71187">
        <ele>1690.4</ele>
        <time>2026-06-27T08:48:01Z</time>
      </trkpt>
      <trkpt lat="46.12965" lon="6.71185">
        <ele>1690.5</ele>
        <time>2026-06-27T08:48:02Z</time>
      </trkpt>
      <trkpt lat="46.12965" lon="6.71184">
        <ele>1690.5</ele>
        <time>2026-06-27T08:48:03Z</time>
      </trkpt>
      <trkpt lat="46.12966" lon="6.71183">
        <ele>1690.5</ele>
        <time>2026-06-27T08:48:04Z</time>
      </trkpt>
      <trkpt lat="46.12966" lon="6.71182">
        <ele>1690.5</ele>
        <time>2026-06-27T08:48:05Z</time>
      </trkpt>
      <trkpt lat="46.12966" lon="6.7118">
        <ele>1690.5</ele>
        <time>2026-06-27T08:48:06Z</time>
      </trkpt>
      <trkpt lat="46.12966" lon="6.71178">
        <ele>1690.5</ele>
        <time>2026-06-27T08:48:07Z</time>
      </trkpt>
      <trkpt lat="46.12966" lon="6.71177">
        <ele>1690.5</ele>
        <time>2026-06-27T08:48:08Z</time>
      </trkpt>
      <trkpt lat="46.12966" lon="6.71175">
        <ele>1690.4</ele>
        <time>2026-06-27T08:48:09Z</time>
      </trkpt>
      <trkpt lat="46.12966" lon="6.71174">
        <ele>1690.4</ele>
        <time>2026-06-27T08:48:10Z</time>
      </trkpt>
      <trkpt lat="46.12965" lon="6.71172">
        <ele>1690.4</ele>
        <time>2026-06-27T08:48:11Z</time>
      </trkpt>
      <trkpt lat="46.12965" lon="6.71171">
        <ele>1690.5</ele>
        <time>2026-06-27T08:48:12Z</time>
      </trkpt>
      <trkpt lat="46.12965" lon="6.71169">
        <ele>1690.4</ele>
        <time>2026-06-27T08:48:13Z</time>
      </trkpt>
      <trkpt lat="46.12965" lon="6.71168">
        <ele>1690.3</ele>
        <time>2026-06-27T08:48:14Z</time>
      </trkpt>
      <trkpt lat="46.12965" lon="6.71167">
        <ele>1690.2</ele>
        <time>2026-06-27T08:48:15Z</time>
      </trkpt>
      <trkpt lat="46.12965" lon="6.71165">
        <ele>1690.2</ele>
        <time>2026-06-27T08:48:16Z</time>
      </trkpt>
      <trkpt lat="46.12964" lon="6.71165">
        <ele>1690.2</ele>
        <time>2026-06-27T08:48:17Z</time>
      </trkpt>
      <trkpt lat="46.12964" lon="6.71165">
        <ele>1690.2</ele>
        <time>2026-06-27T08:48:18Z</time>
      </trkpt>
      <trkpt lat="46.12965" lon="6.71165">
        <ele>1690.2</ele>
        <time>2026-06-27T08:48:19Z</time>
      </trkpt>
      <trkpt lat="46.12965" lon="6.71165">
        <ele>1690.3</ele>
        <time>2026-06-27T08:48:20Z</time>
      </trkpt>
      <trkpt lat="46.12965" lon="6.71163">
        <ele>1690.3</ele>
        <time>2026-06-27T08:48:21Z</time>
      </trkpt>
      <trkpt lat="46.12965" lon="6.71162">
        <ele>1690.4</ele>
        <time>2026-06-27T08:48:22Z</time>
      </trkpt>
      <trkpt lat="46.12965" lon="6.71161">
        <ele>1690.4</ele>
        <time>2026-06-27T08:48:23Z</time>
      </trkpt>
      <trkpt lat="46.12966" lon="6.71159">
        <ele>1690.3</ele>
        <time>2026-06-27T08:48:24Z</time>
      </trkpt>
      <trkpt lat="46.12966" lon="6.71157">
        <ele>1690.2</ele>
        <time>2026-06-27T08:48:25Z</time>
      </trkpt>
      <trkpt lat="46.12967" lon="6.71156">
        <ele>1690.2</ele>
        <time>2026-06-27T08:48:26Z</time>
      </trkpt>
      <trkpt lat="46.12967" lon="6.71155">
        <ele>1690.1</ele>
        <time>2026-06-27T08:48:27Z</time>
      </trkpt>
      <trkpt lat="46.12967" lon="6.71154">
        <ele>1690</ele>
        <time>2026-06-27T08:48:28Z</time>
      </trkpt>
      <trkpt lat="46.12967" lon="6.71153">
        <ele>1690</ele>
        <time>2026-06-27T08:48:29Z</time>
      </trkpt>
      <trkpt lat="46.12968" lon="6.71152">
        <ele>1689.9</ele>
        <time>2026-06-27T08:48:30Z</time>
      </trkpt>
      <trkpt lat="46.12968" lon="6.71151">
        <ele>1689.9</ele>
        <time>2026-06-27T08:48:31Z</time>
      </trkpt>
      <trkpt lat="46.12968" lon="6.7115">
        <ele>1689.8</ele>
        <time>2026-06-27T08:48:32Z</time>
      </trkpt>
      <trkpt lat="46.12968" lon="6.71149">
        <ele>1689.8</ele>
        <time>2026-06-27T08:48:33Z</time>
      </trkpt>
      <trkpt lat="46.12969" lon="6.71148">
        <ele>1689.7</ele>
        <time>2026-06-27T08:48:34Z</time>
      </trkpt>
      <trkpt lat="46.12969" lon="6.71148">
        <ele>1689.8</ele>
        <time>2026-06-27T08:48:35Z</time>
      </trkpt>
      <trkpt lat="46.1297" lon="6.71148">
        <ele>1689.7</ele>
        <time>2026-06-27T08:48:36Z</time>
      </trkpt>
      <trkpt lat="46.12971" lon="6.71148">
        <ele>1689.6</ele>
        <time>2026-06-27T08:48:37Z</time>
      </trkpt>
      <trkpt lat="46.12972" lon="6.71147">
        <ele>1689.4</ele>
        <time>2026-06-27T08:48:38Z</time>
      </trkpt>
      <trkpt lat="46.12972" lon="6.71147">
        <ele>1689.3</ele>
        <time>2026-06-27T08:48:39Z</time>
      </trkpt>
      <trkpt lat="46.12973" lon="6.71146">
        <ele>1689.2</ele>
        <time>2026-06-27T08:48:40Z</time>
      </trkpt>
      <trkpt lat="46.12974" lon="6.71146">
        <ele>1689.1</ele>
        <time>2026-06-27T08:48:41Z</time>
      </trkpt>
      <trkpt lat="46.12974" lon="6.71145">
        <ele>1689</ele>
        <time>2026-06-27T08:48:42Z</time>
      </trkpt>
      <trkpt lat="46.12975" lon="6.71144">
        <ele>1688.9</ele>
        <time>2026-06-27T08:48:43Z</time>
      </trkpt>
      <trkpt lat="46.12976" lon="6.71144">
        <ele>1688.9</ele>
        <time>2026-06-27T08:48:44Z</time>
      </trkpt>
      <trkpt lat="46.12976" lon="6.71143">
        <ele>1688.7</ele>
        <time>2026-06-27T08:48:45Z</time>
      </trkpt>
      <trkpt lat="46.12976" lon="6.71142">
        <ele>1688.6</ele>
        <time>2026-06-27T08:48:46Z</time>
      </trkpt>
      <trkpt lat="46.12976" lon="6.71141">
        <ele>1688.5</ele>
        <time>2026-06-27T08:48:47Z</time>
      </trkpt>
      <trkpt lat="46.12976" lon="6.71141">
        <ele>1688.5</ele>
        <time>2026-06-27T08:48:48Z</time>
      </trkpt>
      <trkpt lat="46.12977" lon="6.7114">
        <ele>1688.4</ele>
        <time>2026-06-27T08:48:49Z</time>
      </trkpt>
      <trkpt lat="46.12978" lon="6.71139">
        <ele>1688.3</ele>
        <time>2026-06-27T08:48:50Z</time>
      </trkpt>
      <trkpt lat="46.12978" lon="6.71139">
        <ele>1688.2</ele>
        <time>2026-06-27T08:48:51Z</time>
      </trkpt>
      <trkpt lat="46.12978" lon="6.71139">
        <ele>1688.1</ele>
        <time>2026-06-27T08:48:52Z</time>
      </trkpt>
      <trkpt lat="46.12978" lon="6.7114">
        <ele>1688.1</ele>
        <time>2026-06-27T08:48:53Z</time>
      </trkpt>
      <trkpt lat="46.12978" lon="6.7114">
        <ele>1688</ele>
        <time>2026-06-27T08:48:54Z</time>
      </trkpt>
      <trkpt lat="46.12978" lon="6.7114">
        <ele>1688</ele>
        <time>2026-06-27T08:48:55Z</time>
      </trkpt>
      <trkpt lat="46.12978" lon="6.7114">
        <ele>1687.9</ele>
        <time>2026-06-27T08:48:56Z</time>
      </trkpt>
      <trkpt lat="46.12978" lon="6.7114">
        <ele>1687.8</ele>
        <time>2026-06-27T08:48:57Z</time>
      </trkpt>
      <trkpt lat="46.12978" lon="6.71141">
        <ele>1687.8</ele>
        <time>2026-06-27T08:48:58Z</time>
      </trkpt>
      <trkpt lat="46.12979" lon="6.71141">
        <ele>1687.7</ele>
        <time>2026-06-27T08:48:59Z</time>
      </trkpt>
      <trkpt lat="46.12979" lon="6.71141">
        <ele>1687.7</ele>
        <time>2026-06-27T08:49:00Z</time>
      </trkpt>
      <trkpt lat="46.1298" lon="6.71141">
        <ele>1687.6</ele>
        <time>2026-06-27T08:49:01Z</time>
      </trkpt>
      <trkpt lat="46.12981" lon="6.71141">
        <ele>1687.6</ele>
        <time>2026-06-27T08:49:02Z</time>
      </trkpt>
      <trkpt lat="46.12982" lon="6.71142">
        <ele>1687.5</ele>
        <time>2026-06-27T08:49:03Z</time>
      </trkpt>
      <trkpt lat="46.12983" lon="6.71142">
        <ele>1687.4</ele>
        <time>2026-06-27T08:49:04Z</time>
      </trkpt>
      <trkpt lat="46.12984" lon="6.71143">
        <ele>1687.3</ele>
        <time>2026-06-27T08:49:05Z</time>
      </trkpt>
      <trkpt lat="46.12984" lon="6.71143">
        <ele>1687.2</ele>
        <time>2026-06-27T08:49:06Z</time>
      </trkpt>
      <trkpt lat="46.12984" lon="6.71144">
        <ele>1687</ele>
        <time>2026-06-27T08:49:07Z</time>
      </trkpt>
      <trkpt lat="46.12984" lon="6.71144">
        <ele>1687.1</ele>
        <time>2026-06-27T08:49:08Z</time>
      </trkpt>
      <trkpt lat="46.12985" lon="6.71144">
        <ele>1686.9</ele>
        <time>2026-06-27T08:49:09Z</time>
      </trkpt>
      <trkpt lat="46.12985" lon="6.71144">
        <ele>1686.9</ele>
        <time>2026-06-27T08:49:10Z</time>
      </trkpt>
      <trkpt lat="46.12985" lon="6.71145">
        <ele>1686.9</ele>
        <time>2026-06-27T08:49:11Z</time>
      </trkpt>
      <trkpt lat="46.12986" lon="6.71145">
        <ele>1686.7</ele>
        <time>2026-06-27T08:49:12Z</time>
      </trkpt>
      <trkpt lat="46.12986" lon="6.71146">
        <ele>1686.7</ele>
        <time>2026-06-27T08:49:13Z</time>
      </trkpt>
      <trkpt lat="46.12987" lon="6.71147">
        <ele>1686.6</ele>
        <time>2026-06-27T08:49:14Z</time>
      </trkpt>
      <trkpt lat="46.12987" lon="6.71149">
        <ele>1686.5</ele>
        <time>2026-06-27T08:49:15Z</time>
      </trkpt>
      <trkpt lat="46.12987" lon="6.7115">
        <ele>1686.5</ele>
        <time>2026-06-27T08:49:16Z</time>
      </trkpt>
      <trkpt lat="46.12988" lon="6.71151">
        <ele>1686.4</ele>
        <time>2026-06-27T08:49:17Z</time>
      </trkpt>
      <trkpt lat="46.12988" lon="6.71151">
        <ele>1686.4</ele>
        <time>2026-06-27T08:49:18Z</time>
      </trkpt>
      <trkpt lat="46.12988" lon="6.71152">
        <ele>1686.3</ele>
        <time>2026-06-27T08:49:19Z</time>
      </trkpt>
      <trkpt lat="46.12989" lon="6.71153">
        <ele>1686.3</ele>
        <time>2026-06-27T08:49:20Z</time>
      </trkpt>
      <trkpt lat="46.12989" lon="6.71154">
        <ele>1686.2</ele>
        <time>2026-06-27T08:49:21Z</time>
      </trkpt>
      <trkpt lat="46.12989" lon="6.71155">
        <ele>1686.2</ele>
        <time>2026-06-27T08:49:22Z</time>
      </trkpt>
      <trkpt lat="46.1299" lon="6.71156">
        <ele>1686.2</ele>
        <time>2026-06-27T08:49:23Z</time>
      </trkpt>
      <trkpt lat="46.1299" lon="6.71156">
        <ele>1686.1</ele>
        <time>2026-06-27T08:49:24Z</time>
      </trkpt>
      <trkpt lat="46.12991" lon="6.71157">
        <ele>1686.1</ele>
        <time>2026-06-27T08:49:25Z</time>
      </trkpt>
      <trkpt lat="46.12991" lon="6.71157">
        <ele>1686.1</ele>
        <time>2026-06-27T08:49:26Z</time>
      </trkpt>
      <trkpt lat="46.12992" lon="6.71156">
        <ele>1686.1</ele>
        <time>2026-06-27T08:49:27Z</time>
      </trkpt>
      <trkpt lat="46.12993" lon="6.71156">
        <ele>1686.2</ele>
        <time>2026-06-27T08:49:28Z</time>
      </trkpt>
      <trkpt lat="46.12994" lon="6.71157">
        <ele>1686.2</ele>
        <time>2026-06-27T08:49:29Z</time>
      </trkpt>
      <trkpt lat="46.12995" lon="6.71157">
        <ele>1686.2</ele>
        <time>2026-06-27T08:49:30Z</time>
      </trkpt>
      <trkpt lat="46.12996" lon="6.71157">
        <ele>1686.1</ele>
        <time>2026-06-27T08:49:31Z</time>
      </trkpt>
      <trkpt lat="46.12997" lon="6.71158">
        <ele>1686.1</ele>
        <time>2026-06-27T08:49:32Z</time>
      </trkpt>
      <trkpt lat="46.12998" lon="6.71158">
        <ele>1686.1</ele>
        <time>2026-06-27T08:49:33Z</time>
      </trkpt>
      <trkpt lat="46.12999" lon="6.71158">
        <ele>1686</ele>
        <time>2026-06-27T08:49:34Z</time>
      </trkpt>
      <trkpt lat="46.13" lon="6.71158">
        <ele>1685.9</ele>
        <time>2026-06-27T08:49:35Z</time>
      </trkpt>
      <trkpt lat="46.13001" lon="6.71159">
        <ele>1685.9</ele>
        <time>2026-06-27T08:49:36Z</time>
      </trkpt>
      <trkpt lat="46.13002" lon="6.71159">
        <ele>1685.8</ele>
        <time>2026-06-27T08:49:37Z</time>
      </trkpt>
      <trkpt lat="46.13004" lon="6.71159">
        <ele>1685.8</ele>
        <time>2026-06-27T08:49:38Z</time>
      </trkpt>
      <trkpt lat="46.13004" lon="6.7116">
        <ele>1685.8</ele>
        <time>2026-06-27T08:49:39Z</time>
      </trkpt>
      <trkpt lat="46.13005" lon="6.7116">
        <ele>1685.6</ele>
        <time>2026-06-27T08:49:40Z</time>
      </trkpt>
      <trkpt lat="46.13006" lon="6.7116">
        <ele>1685.4</ele>
        <time>2026-06-27T08:49:41Z</time>
      </trkpt>
      <trkpt lat="46.13007" lon="6.71161">
        <ele>1685.3</ele>
        <time>2026-06-27T08:49:42Z</time>
      </trkpt>
      <trkpt lat="46.13008" lon="6.71161">
        <ele>1685.3</ele>
        <time>2026-06-27T08:49:43Z</time>
      </trkpt>
      <trkpt lat="46.13009" lon="6.71161">
        <ele>1685.3</ele>
        <time>2026-06-27T08:49:44Z</time>
      </trkpt>
      <trkpt lat="46.1301" lon="6.71162">
        <ele>1685.2</ele>
        <time>2026-06-27T08:49:45Z</time>
      </trkpt>
      <trkpt lat="46.1301" lon="6.71162">
        <ele>1685.2</ele>
        <time>2026-06-27T08:49:46Z</time>
      </trkpt>
      <trkpt lat="46.13011" lon="6.71162">
        <ele>1685.3</ele>
        <time>2026-06-27T08:49:47Z</time>
      </trkpt>
      <trkpt lat="46.13012" lon="6.71163">
        <ele>1685.3</ele>
        <time>2026-06-27T08:49:48Z</time>
      </trkpt>
      <trkpt lat="46.13013" lon="6.71163">
        <ele>1685.2</ele>
        <time>2026-06-27T08:49:49Z</time>
      </trkpt>
      <trkpt lat="46.13014" lon="6.71163">
        <ele>1685.1</ele>
        <time>2026-06-27T08:49:50Z</time>
      </trkpt>
      <trkpt lat="46.13015" lon="6.71164">
        <ele>1685</ele>
        <time>2026-06-27T08:49:51Z</time>
      </trkpt>
      <trkpt lat="46.13016" lon="6.71164">
        <ele>1685</ele>
        <time>2026-06-27T08:49:52Z</time>
      </trkpt>
      <trkpt lat="46.13017" lon="6.71164">
        <ele>1685</ele>
        <time>2026-06-27T08:49:53Z</time>
      </trkpt>
      <trkpt lat="46.13018" lon="6.71164">
        <ele>1685</ele>
        <time>2026-06-27T08:49:54Z</time>
      </trkpt>
      <trkpt lat="46.13019" lon="6.71163">
        <ele>1685</ele>
        <time>2026-06-27T08:49:55Z</time>
      </trkpt>
      <trkpt lat="46.13019" lon="6.71163">
        <ele>1685</ele>
        <time>2026-06-27T08:49:56Z</time>
      </trkpt>
      <trkpt lat="46.13019" lon="6.71163">
        <ele>1685</ele>
        <time>2026-06-27T08:49:57Z</time>
      </trkpt>
      <trkpt lat="46.13019" lon="6.71163">
        <ele>1684.9</ele>
        <time>2026-06-27T08:49:58Z</time>
      </trkpt>
      <trkpt lat="46.13019" lon="6.71163">
        <ele>1684.8</ele>
        <time>2026-06-27T08:49:59Z</time>
      </trkpt>
      <trkpt lat="46.13019" lon="6.71163">
        <ele>1684.7</ele>
        <time>2026-06-27T08:50:00Z</time>
      </trkpt>
      <trkpt lat="46.13019" lon="6.71163">
        <ele>1684.7</ele>
        <time>2026-06-27T08:50:01Z</time>
      </trkpt>
      <trkpt lat="46.13019" lon="6.71163">
        <ele>1684.6</ele>
        <time>2026-06-27T08:50:02Z</time>
      </trkpt>
      <trkpt lat="46.13019" lon="6.71163">
        <ele>1684.7</ele>
        <time>2026-06-27T08:50:03Z</time>
      </trkpt>
      <trkpt lat="46.13019" lon="6.71163">
        <ele>1684.7</ele>
        <time>2026-06-27T08:50:04Z</time>
      </trkpt>
      <trkpt lat="46.13019" lon="6.71163">
        <ele>1684.7</ele>
        <time>2026-06-27T08:50:05Z</time>
      </trkpt>
      <trkpt lat="46.13019" lon="6.71162">
        <ele>1684.7</ele>
        <time>2026-06-27T08:50:06Z</time>
      </trkpt>
      <trkpt lat="46.13019" lon="6.71162">
        <ele>1684.7</ele>
        <time>2026-06-27T08:50:07Z</time>
      </trkpt>
      <trkpt lat="46.1302" lon="6.71162">
        <ele>1684.8</ele>
        <time>2026-06-27T08:50:08Z</time>
      </trkpt>
      <trkpt lat="46.13021" lon="6.71164">
        <ele>1684.8</ele>
        <time>2026-06-27T08:50:09Z</time>
      </trkpt>
      <trkpt lat="46.13022" lon="6.71164">
        <ele>1684.9</ele>
        <time>2026-06-27T08:50:10Z</time>
      </trkpt>
      <trkpt lat="46.13022" lon="6.71165">
        <ele>1684.9</ele>
        <time>2026-06-27T08:50:11Z</time>
      </trkpt>
      <trkpt lat="46.13022" lon="6.71165">
        <ele>1684.9</ele>
        <time>2026-06-27T08:50:12Z</time>
      </trkpt>
      <trkpt lat="46.13023" lon="6.71165">
        <ele>1684.8</ele>
        <time>2026-06-27T08:50:13Z</time>
      </trkpt>
      <trkpt lat="46.13023" lon="6.71165">
        <ele>1684.8</ele>
        <time>2026-06-27T08:50:14Z</time>
      </trkpt>
      <trkpt lat="46.13023" lon="6.71166">
        <ele>1684.9</ele>
        <time>2026-06-27T08:50:15Z</time>
      </trkpt>
      <trkpt lat="46.13023" lon="6.71166">
        <ele>1684.9</ele>
        <time>2026-06-27T08:50:16Z</time>
      </trkpt>
      <trkpt lat="46.13023" lon="6.71166">
        <ele>1684.9</ele>
        <time>2026-06-27T08:50:17Z</time>
      </trkpt>
      <trkpt lat="46.13023" lon="6.71166">
        <ele>1684.9</ele>
        <time>2026-06-27T08:50:18Z</time>
      </trkpt>
      <trkpt lat="46.13023" lon="6.71167">
        <ele>1684.9</ele>
        <time>2026-06-27T08:50:19Z</time>
      </trkpt>
      <trkpt lat="46.13023" lon="6.71167">
        <ele>1684.9</ele>
        <time>2026-06-27T08:50:20Z</time>
      </trkpt>
      <trkpt lat="46.13023" lon="6.71167">
        <ele>1684.8</ele>
        <time>2026-06-27T08:50:21Z</time>
      </trkpt>
      <trkpt lat="46.13023" lon="6.71167">
        <ele>1684.7</ele>
        <time>2026-06-27T08:50:22Z</time>
      </trkpt>
      <trkpt lat="46.13024" lon="6.71167">
        <ele>1684.6</ele>
        <time>2026-06-27T08:50:23Z</time>
      </trkpt>
      <trkpt lat="46.13025" lon="6.71167">
        <ele>1684.6</ele>
        <time>2026-06-27T08:50:24Z</time>
      </trkpt>
      <trkpt lat="46.13026" lon="6.71167">
        <ele>1684.6</ele>
        <time>2026-06-27T08:50:25Z</time>
      </trkpt>
      <trkpt lat="46.13027" lon="6.71167">
        <ele>1684.6</ele>
        <time>2026-06-27T08:50:26Z</time>
      </trkpt>
      <trkpt lat="46.13028" lon="6.71167">
        <ele>1684.5</ele>
        <time>2026-06-27T08:50:27Z</time>
      </trkpt>
      <trkpt lat="46.13028" lon="6.71167">
        <ele>1684.5</ele>
        <time>2026-06-27T08:50:28Z</time>
      </trkpt>
      <trkpt lat="46.13029" lon="6.71168">
        <ele>1684.5</ele>
        <time>2026-06-27T08:50:29Z</time>
      </trkpt>
      <trkpt lat="46.1303" lon="6.71168">
        <ele>1684.4</ele>
        <time>2026-06-27T08:50:30Z</time>
      </trkpt>
      <trkpt lat="46.13031" lon="6.71168">
        <ele>1684.4</ele>
        <time>2026-06-27T08:50:31Z</time>
      </trkpt>
      <trkpt lat="46.13032" lon="6.71168">
        <ele>1684.4</ele>
        <time>2026-06-27T08:50:32Z</time>
      </trkpt>
      <trkpt lat="46.13032" lon="6.71168">
        <ele>1684.4</ele>
        <time>2026-06-27T08:50:33Z</time>
      </trkpt>
      <trkpt lat="46.13033" lon="6.71168">
        <ele>1684.4</ele>
        <time>2026-06-27T08:50:34Z</time>
      </trkpt>
      <trkpt lat="46.13034" lon="6.71168">
        <ele>1684.4</ele>
        <time>2026-06-27T08:50:35Z</time>
      </trkpt>
      <trkpt lat="46.13035" lon="6.71168">
        <ele>1684.3</ele>
        <time>2026-06-27T08:50:36Z</time>
      </trkpt>
      <trkpt lat="46.13036" lon="6.71168">
        <ele>1684.2</ele>
        <time>2026-06-27T08:50:37Z</time>
      </trkpt>
      <trkpt lat="46.13037" lon="6.71168">
        <ele>1684.1</ele>
        <time>2026-06-27T08:50:38Z</time>
      </trkpt>
      <trkpt lat="46.13039" lon="6.71168">
        <ele>1684.1</ele>
        <time>2026-06-27T08:50:39Z</time>
      </trkpt>
      <trkpt lat="46.1304" lon="6.71168">
        <ele>1684.1</ele>
        <time>2026-06-27T08:50:40Z</time>
      </trkpt>
      <trkpt lat="46.1304" lon="6.71168">
        <ele>1684.1</ele>
        <time>2026-06-27T08:50:41Z</time>
      </trkpt>
      <trkpt lat="46.13041" lon="6.71168">
        <ele>1684.1</ele>
        <time>2026-06-27T08:50:42Z</time>
      </trkpt>
      <trkpt lat="46.13042" lon="6.71168">
        <ele>1684.1</ele>
        <time>2026-06-27T08:50:43Z</time>
      </trkpt>
      <trkpt lat="46.13043" lon="6.71168">
        <ele>1684.1</ele>
        <time>2026-06-27T08:50:44Z</time>
      </trkpt>
      <trkpt lat="46.13044" lon="6.71169">
        <ele>1684.1</ele>
        <time>2026-06-27T08:50:45Z</time>
      </trkpt>
      <trkpt lat="46.13045" lon="6.71169">
        <ele>1684.2</ele>
        <time>2026-06-27T08:50:46Z</time>
      </trkpt>
      <trkpt lat="46.13046" lon="6.71169">
        <ele>1684.1</ele>
        <time>2026-06-27T08:50:47Z</time>
      </trkpt>
      <trkpt lat="46.13046" lon="6.71169">
        <ele>1684</ele>
        <time>2026-06-27T08:50:48Z</time>
      </trkpt>
      <trkpt lat="46.13047" lon="6.71169">
        <ele>1684</ele>
        <time>2026-06-27T08:50:49Z</time>
      </trkpt>
      <trkpt lat="46.13048" lon="6.71169">
        <ele>1684</ele>
        <time>2026-06-27T08:50:50Z</time>
      </trkpt>
      <trkpt lat="46.13049" lon="6.71169">
        <ele>1684</ele>
        <time>2026-06-27T08:50:51Z</time>
      </trkpt>
      <trkpt lat="46.1305" lon="6.71169">
        <ele>1684.1</ele>
        <time>2026-06-27T08:50:52Z</time>
      </trkpt>
      <trkpt lat="46.13051" lon="6.71169">
        <ele>1684</ele>
        <time>2026-06-27T08:50:53Z</time>
      </trkpt>
      <trkpt lat="46.13052" lon="6.71169">
        <ele>1684</ele>
        <time>2026-06-27T08:50:54Z</time>
      </trkpt>
      <trkpt lat="46.13053" lon="6.71169">
        <ele>1683.9</ele>
        <time>2026-06-27T08:50:55Z</time>
      </trkpt>
      <trkpt lat="46.13055" lon="6.71168">
        <ele>1683.8</ele>
        <time>2026-06-27T08:50:56Z</time>
      </trkpt>
      <trkpt lat="46.13056" lon="6.71168">
        <ele>1683.7</ele>
        <time>2026-06-27T08:50:57Z</time>
      </trkpt>
      <trkpt lat="46.13057" lon="6.71167">
        <ele>1683.7</ele>
        <time>2026-06-27T08:50:58Z</time>
      </trkpt>
      <trkpt lat="46.13058" lon="6.71166">
        <ele>1683.7</ele>
        <time>2026-06-27T08:50:59Z</time>
      </trkpt>
      <trkpt lat="46.13059" lon="6.71165">
        <ele>1683.8</ele>
        <time>2026-06-27T08:51:00Z</time>
      </trkpt>
      <trkpt lat="46.1306" lon="6.71164">
        <ele>1683.8</ele>
        <time>2026-06-27T08:51:01Z</time>
      </trkpt>
      <trkpt lat="46.1306" lon="6.71163">
        <ele>1683.8</ele>
        <time>2026-06-27T08:51:02Z</time>
      </trkpt>
      <trkpt lat="46.13061" lon="6.71163">
        <ele>1683.8</ele>
        <time>2026-06-27T08:51:03Z</time>
      </trkpt>
      <trkpt lat="46.13062" lon="6.71162">
        <ele>1683.9</ele>
        <time>2026-06-27T08:51:04Z</time>
      </trkpt>
      <trkpt lat="46.13063" lon="6.71161">
        <ele>1683.9</ele>
        <time>2026-06-27T08:51:05Z</time>
      </trkpt>
      <trkpt lat="46.13064" lon="6.71161">
        <ele>1683.9</ele>
        <time>2026-06-27T08:51:06Z</time>
      </trkpt>
      <trkpt lat="46.13064" lon="6.71161">
        <ele>1683.9</ele>
        <time>2026-06-27T08:51:07Z</time>
      </trkpt>
      <trkpt lat="46.13065" lon="6.71161">
        <ele>1684</ele>
        <time>2026-06-27T08:51:08Z</time>
      </trkpt>
      <trkpt lat="46.13066" lon="6.7116">
        <ele>1684</ele>
        <time>2026-06-27T08:51:09Z</time>
      </trkpt>
      <trkpt lat="46.13067" lon="6.7116">
        <ele>1684</ele>
        <time>2026-06-27T08:51:10Z</time>
      </trkpt>
      <trkpt lat="46.13068" lon="6.71159">
        <ele>1684</ele>
        <time>2026-06-27T08:51:11Z</time>
      </trkpt>
      <trkpt lat="46.13069" lon="6.71158">
        <ele>1684</ele>
        <time>2026-06-27T08:51:12Z</time>
      </trkpt>
      <trkpt lat="46.1307" lon="6.71157">
        <ele>1684</ele>
        <time>2026-06-27T08:51:13Z</time>
      </trkpt>
      <trkpt lat="46.1307" lon="6.71156">
        <ele>1683.9</ele>
        <time>2026-06-27T08:51:14Z</time>
      </trkpt>
      <trkpt lat="46.13071" lon="6.71156">
        <ele>1683.9</ele>
        <time>2026-06-27T08:51:15Z</time>
      </trkpt>
      <trkpt lat="46.13073" lon="6.71155">
        <ele>1683.9</ele>
        <time>2026-06-27T08:51:16Z</time>
      </trkpt>
      <trkpt lat="46.13074" lon="6.71154">
        <ele>1683.8</ele>
        <time>2026-06-27T08:51:17Z</time>
      </trkpt>
      <trkpt lat="46.13074" lon="6.71154">
        <ele>1683.8</ele>
        <time>2026-06-27T08:51:18Z</time>
      </trkpt>
      <trkpt lat="46.13075" lon="6.71153">
        <ele>1683.7</ele>
        <time>2026-06-27T08:51:19Z</time>
      </trkpt>
      <trkpt lat="46.13076" lon="6.71152">
        <ele>1683.6</ele>
        <time>2026-06-27T08:51:20Z</time>
      </trkpt>
      <trkpt lat="46.13077" lon="6.71151">
        <ele>1683.6</ele>
        <time>2026-06-27T08:51:21Z</time>
      </trkpt>
      <trkpt lat="46.13078" lon="6.71151">
        <ele>1683.7</ele>
        <time>2026-06-27T08:51:22Z</time>
      </trkpt>
      <trkpt lat="46.13079" lon="6.71151">
        <ele>1683.7</ele>
        <time>2026-06-27T08:51:23Z</time>
      </trkpt>
      <trkpt lat="46.1308" lon="6.71151">
        <ele>1683.8</ele>
        <time>2026-06-27T08:51:24Z</time>
      </trkpt>
      <trkpt lat="46.13081" lon="6.7115">
        <ele>1683.8</ele>
        <time>2026-06-27T08:51:25Z</time>
      </trkpt>
      <trkpt lat="46.13082" lon="6.7115">
        <ele>1683.8</ele>
        <time>2026-06-27T08:51:26Z</time>
      </trkpt>
      <trkpt lat="46.13083" lon="6.71149">
        <ele>1683.8</ele>
        <time>2026-06-27T08:51:27Z</time>
      </trkpt>
      <trkpt lat="46.13084" lon="6.71149">
        <ele>1683.8</ele>
        <time>2026-06-27T08:51:28Z</time>
      </trkpt>
      <trkpt lat="46.13085" lon="6.71148">
        <ele>1683.8</ele>
        <time>2026-06-27T08:51:29Z</time>
      </trkpt>
      <trkpt lat="46.13087" lon="6.71148">
        <ele>1683.8</ele>
        <time>2026-06-27T08:51:30Z</time>
      </trkpt>
      <trkpt lat="46.13088" lon="6.71147">
        <ele>1683.8</ele>
        <time>2026-06-27T08:51:31Z</time>
      </trkpt>
      <trkpt lat="46.13089" lon="6.71146">
        <ele>1684</ele>
        <time>2026-06-27T08:51:32Z</time>
      </trkpt>
      <trkpt lat="46.13089" lon="6.71146">
        <ele>1684</ele>
        <time>2026-06-27T08:51:33Z</time>
      </trkpt>
      <trkpt lat="46.1309" lon="6.71145">
        <ele>1684</ele>
        <time>2026-06-27T08:51:34Z</time>
      </trkpt>
      <trkpt lat="46.13091" lon="6.71144">
        <ele>1683.9</ele>
        <time>2026-06-27T08:51:35Z</time>
      </trkpt>
      <trkpt lat="46.13092" lon="6.71143">
        <ele>1683.8</ele>
        <time>2026-06-27T08:51:36Z</time>
      </trkpt>
      <trkpt lat="46.13092" lon="6.71142">
        <ele>1683.9</ele>
        <time>2026-06-27T08:51:37Z</time>
      </trkpt>
      <trkpt lat="46.13092" lon="6.71141">
        <ele>1684</ele>
        <time>2026-06-27T08:51:38Z</time>
      </trkpt>
      <trkpt lat="46.13093" lon="6.7114">
        <ele>1684</ele>
        <time>2026-06-27T08:51:39Z</time>
      </trkpt>
      <trkpt lat="46.13094" lon="6.71139">
        <ele>1684.1</ele>
        <time>2026-06-27T08:51:40Z</time>
      </trkpt>
      <trkpt lat="46.13095" lon="6.71138">
        <ele>1684.1</ele>
        <time>2026-06-27T08:51:41Z</time>
      </trkpt>
      <trkpt lat="46.13096" lon="6.71138">
        <ele>1684.3</ele>
        <time>2026-06-27T08:51:42Z</time>
      </trkpt>
      <trkpt lat="46.13097" lon="6.71136">
        <ele>1684.3</ele>
        <time>2026-06-27T08:51:43Z</time>
      </trkpt>
      <trkpt lat="46.13098" lon="6.71135">
        <ele>1684.2</ele>
        <time>2026-06-27T08:51:44Z</time>
      </trkpt>
      <trkpt lat="46.13098" lon="6.71134">
        <ele>1684.2</ele>
        <time>2026-06-27T08:51:45Z</time>
      </trkpt>
      <trkpt lat="46.13099" lon="6.71133">
        <ele>1684.2</ele>
        <time>2026-06-27T08:51:46Z</time>
      </trkpt>
      <trkpt lat="46.131" lon="6.71132">
        <ele>1684.2</ele>
        <time>2026-06-27T08:51:47Z</time>
      </trkpt>
      <trkpt lat="46.131" lon="6.71132">
        <ele>1684.2</ele>
        <time>2026-06-27T08:51:48Z</time>
      </trkpt>
      <trkpt lat="46.13101" lon="6.71131">
        <ele>1684.2</ele>
        <time>2026-06-27T08:51:49Z</time>
      </trkpt>
      <trkpt lat="46.13101" lon="6.7113">
        <ele>1684.1</ele>
        <time>2026-06-27T08:51:50Z</time>
      </trkpt>
      <trkpt lat="46.13101" lon="6.71129">
        <ele>1684.1</ele>
        <time>2026-06-27T08:51:51Z</time>
      </trkpt>
      <trkpt lat="46.13101" lon="6.71127">
        <ele>1684.1</ele>
        <time>2026-06-27T08:51:52Z</time>
      </trkpt>
      <trkpt lat="46.13101" lon="6.71126">
        <ele>1684</ele>
        <time>2026-06-27T08:51:53Z</time>
      </trkpt>
      <trkpt lat="46.13101" lon="6.71125">
        <ele>1684</ele>
        <time>2026-06-27T08:51:54Z</time>
      </trkpt>
      <trkpt lat="46.13101" lon="6.71124">
        <ele>1684.1</ele>
        <time>2026-06-27T08:51:55Z</time>
      </trkpt>
      <trkpt lat="46.13101" lon="6.71123">
        <ele>1684.2</ele>
        <time>2026-06-27T08:51:56Z</time>
      </trkpt>
      <trkpt lat="46.131" lon="6.71122">
        <ele>1684.2</ele>
        <time>2026-06-27T08:51:57Z</time>
      </trkpt>
      <trkpt lat="46.131" lon="6.71121">
        <ele>1684.3</ele>
        <time>2026-06-27T08:51:58Z</time>
      </trkpt>
      <trkpt lat="46.131" lon="6.7112">
        <ele>1684.3</ele>
        <time>2026-06-27T08:51:59Z</time>
      </trkpt>
      <trkpt lat="46.13099" lon="6.71119">
        <ele>1684.3</ele>
        <time>2026-06-27T08:52:00Z</time>
      </trkpt>
      <trkpt lat="46.13099" lon="6.71118">
        <ele>1684.4</ele>
        <time>2026-06-27T08:52:01Z</time>
      </trkpt>
      <trkpt lat="46.13099" lon="6.71118">
        <ele>1684.4</ele>
        <time>2026-06-27T08:52:02Z</time>
      </trkpt>
      <trkpt lat="46.13099" lon="6.71117">
        <ele>1684.4</ele>
        <time>2026-06-27T08:52:03Z</time>
      </trkpt>
      <trkpt lat="46.13098" lon="6.71116">
        <ele>1684.3</ele>
        <time>2026-06-27T08:52:04Z</time>
      </trkpt>
      <trkpt lat="46.13098" lon="6.71114">
        <ele>1684.2</ele>
        <time>2026-06-27T08:52:05Z</time>
      </trkpt>
      <trkpt lat="46.13098" lon="6.71113">
        <ele>1684.1</ele>
        <time>2026-06-27T08:52:06Z</time>
      </trkpt>
      <trkpt lat="46.13098" lon="6.71112">
        <ele>1684.1</ele>
        <time>2026-06-27T08:52:07Z</time>
      </trkpt>
      <trkpt lat="46.13098" lon="6.71112">
        <ele>1684.1</ele>
        <time>2026-06-27T08:52:08Z</time>
      </trkpt>
      <trkpt lat="46.13098" lon="6.7111">
        <ele>1684.1</ele>
        <time>2026-06-27T08:52:09Z</time>
      </trkpt>
      <trkpt lat="46.13097" lon="6.71109">
        <ele>1684</ele>
        <time>2026-06-27T08:52:10Z</time>
      </trkpt>
      <trkpt lat="46.13097" lon="6.71108">
        <ele>1684</ele>
        <time>2026-06-27T08:52:11Z</time>
      </trkpt>
      <trkpt lat="46.13098" lon="6.71106">
        <ele>1683.9</ele>
        <time>2026-06-27T08:52:12Z</time>
      </trkpt>
      <trkpt lat="46.13098" lon="6.71105">
        <ele>1683.8</ele>
        <time>2026-06-27T08:52:13Z</time>
      </trkpt>
      <trkpt lat="46.13099" lon="6.71103">
        <ele>1683.8</ele>
        <time>2026-06-27T08:52:14Z</time>
      </trkpt>
      <trkpt lat="46.13099" lon="6.71102">
        <ele>1683.7</ele>
        <time>2026-06-27T08:52:15Z</time>
      </trkpt>
      <trkpt lat="46.131" lon="6.71101">
        <ele>1683.7</ele>
        <time>2026-06-27T08:52:16Z</time>
      </trkpt>
      <trkpt lat="46.13099" lon="6.71099">
        <ele>1683.7</ele>
        <time>2026-06-27T08:52:17Z</time>
      </trkpt>
      <trkpt lat="46.131" lon="6.71098">
        <ele>1683.7</ele>
        <time>2026-06-27T08:52:18Z</time>
      </trkpt>
      <trkpt lat="46.131" lon="6.71096">
        <ele>1683.8</ele>
        <time>2026-06-27T08:52:19Z</time>
      </trkpt>
      <trkpt lat="46.131" lon="6.71095">
        <ele>1683.8</ele>
        <time>2026-06-27T08:52:20Z</time>
      </trkpt>
      <trkpt lat="46.131" lon="6.71094">
        <ele>1683.8</ele>
        <time>2026-06-27T08:52:21Z</time>
      </trkpt>
      <trkpt lat="46.13101" lon="6.71093">
        <ele>1683.9</ele>
        <time>2026-06-27T08:52:22Z</time>
      </trkpt>
      <trkpt lat="46.13101" lon="6.71091">
        <ele>1683.8</ele>
        <time>2026-06-27T08:52:23Z</time>
      </trkpt>
      <trkpt lat="46.13101" lon="6.7109">
        <ele>1683.8</ele>
        <time>2026-06-27T08:52:24Z</time>
      </trkpt>
      <trkpt lat="46.13101" lon="6.71089">
        <ele>1683.8</ele>
        <time>2026-06-27T08:52:25Z</time>
      </trkpt>
      <trkpt lat="46.13101" lon="6.71088">
        <ele>1683.8</ele>
        <time>2026-06-27T08:52:26Z</time>
      </trkpt>
      <trkpt lat="46.13102" lon="6.71087">
        <ele>1683.8</ele>
        <time>2026-06-27T08:52:27Z</time>
      </trkpt>
      <trkpt lat="46.13102" lon="6.71085">
        <ele>1683.8</ele>
        <time>2026-06-27T08:52:28Z</time>
      </trkpt>
      <trkpt lat="46.13102" lon="6.71084">
        <ele>1683.8</ele>
        <time>2026-06-27T08:52:29Z</time>
      </trkpt>
      <trkpt lat="46.13102" lon="6.71083">
        <ele>1683.8</ele>
        <time>2026-06-27T08:52:30Z</time>
      </trkpt>
      <trkpt lat="46.13103" lon="6.71081">
        <ele>1683.7</ele>
        <time>2026-06-27T08:52:31Z</time>
      </trkpt>
      <trkpt lat="46.13103" lon="6.71079">
        <ele>1683.7</ele>
        <time>2026-06-27T08:52:32Z</time>
      </trkpt>
      <trkpt lat="46.13103" lon="6.71078">
        <ele>1683.6</ele>
        <time>2026-06-27T08:52:33Z</time>
      </trkpt>
      <trkpt lat="46.13104" lon="6.71077">
        <ele>1683.6</ele>
        <time>2026-06-27T08:52:34Z</time>
      </trkpt>
      <trkpt lat="46.13104" lon="6.71075">
        <ele>1683.6</ele>
        <time>2026-06-27T08:52:35Z</time>
      </trkpt>
      <trkpt lat="46.13104" lon="6.71073">
        <ele>1683.7</ele>
        <time>2026-06-27T08:52:36Z</time>
      </trkpt>
      <trkpt lat="46.13104" lon="6.71071">
        <ele>1683.7</ele>
        <time>2026-06-27T08:52:37Z</time>
      </trkpt>
      <trkpt lat="46.13104" lon="6.7107">
        <ele>1683.7</ele>
        <time>2026-06-27T08:52:38Z</time>
      </trkpt>
      <trkpt lat="46.13104" lon="6.71068">
        <ele>1683.7</ele>
        <time>2026-06-27T08:52:39Z</time>
      </trkpt>
      <trkpt lat="46.13104" lon="6.71067">
        <ele>1683.7</ele>
        <time>2026-06-27T08:52:40Z</time>
      </trkpt>
      <trkpt lat="46.13104" lon="6.71065">
        <ele>1683.6</ele>
        <time>2026-06-27T08:52:41Z</time>
      </trkpt>
      <trkpt lat="46.13104" lon="6.71064">
        <ele>1683.5</ele>
        <time>2026-06-27T08:52:42Z</time>
      </trkpt>
      <trkpt lat="46.13104" lon="6.71063">
        <ele>1683.6</ele>
        <time>2026-06-27T08:52:43Z</time>
      </trkpt>
      <trkpt lat="46.13103" lon="6.71063">
        <ele>1683.6</ele>
        <time>2026-06-27T08:52:44Z</time>
      </trkpt>
      <trkpt lat="46.13103" lon="6.71063">
        <ele>1683.7</ele>
        <time>2026-06-27T08:52:45Z</time>
      </trkpt>
      <trkpt lat="46.13103" lon="6.71063">
        <ele>1683.7</ele>
        <time>2026-06-27T08:52:46Z</time>
      </trkpt>
      <trkpt lat="46.13103" lon="6.71062">
        <ele>1683.7</ele>
        <time>2026-06-27T08:52:47Z</time>
      </trkpt>
      <trkpt lat="46.13103" lon="6.71062">
        <ele>1683.7</ele>
        <time>2026-06-27T08:52:48Z</time>
      </trkpt>
      <trkpt lat="46.13103" lon="6.71062">
        <ele>1683.7</ele>
        <time>2026-06-27T08:52:49Z</time>
      </trkpt>
      <trkpt lat="46.13104" lon="6.71062">
        <ele>1683.6</ele>
        <time>2026-06-27T08:52:50Z</time>
      </trkpt>
      <trkpt lat="46.13104" lon="6.71062">
        <ele>1683.6</ele>
        <time>2026-06-27T08:52:51Z</time>
      </trkpt>
      <trkpt lat="46.13104" lon="6.71062">
        <ele>1683.6</ele>
        <time>2026-06-27T08:52:52Z</time>
      </trkpt>
      <trkpt lat="46.13104" lon="6.71062">
        <ele>1683.6</ele>
        <time>2026-06-27T08:52:53Z</time>
      </trkpt>
      <trkpt lat="46.13104" lon="6.71062">
        <ele>1683.6</ele>
        <time>2026-06-27T08:52:54Z</time>
      </trkpt>
      <trkpt lat="46.13104" lon="6.71062">
        <ele>1683.6</ele>
        <time>2026-06-27T08:52:55Z</time>
      </trkpt>
      <trkpt lat="46.13103" lon="6.71061">
        <ele>1683.6</ele>
        <time>2026-06-27T08:52:56Z</time>
      </trkpt>
      <trkpt lat="46.13104" lon="6.71061">
        <ele>1683.6</ele>
        <time>2026-06-27T08:52:57Z</time>
      </trkpt>
      <trkpt lat="46.13103" lon="6.71061">
        <ele>1683.6</ele>
        <time>2026-06-27T08:52:58Z</time>
      </trkpt>
      <trkpt lat="46.13103" lon="6.71061">
        <ele>1683.6</ele>
        <time>2026-06-27T08:52:59Z</time>
      </trkpt>
      <trkpt lat="46.13103" lon="6.71061">
        <ele>1683.6</ele>
        <time>2026-06-27T08:53:00Z</time>
      </trkpt>
      <trkpt lat="46.13103" lon="6.71061">
        <ele>1683.5</ele>
        <time>2026-06-27T08:53:01Z</time>
      </trkpt>
      <trkpt lat="46.13103" lon="6.71061">
        <ele>1683.5</ele>
        <time>2026-06-27T08:53:02Z</time>
      </trkpt>
      <trkpt lat="46.13103" lon="6.71061">
        <ele>1683.5</ele>
        <time>2026-06-27T08:53:03Z</time>
      </trkpt>
      <trkpt lat="46.13103" lon="6.7106">
        <ele>1683.6</ele>
        <time>2026-06-27T08:53:04Z</time>
      </trkpt>
      <trkpt lat="46.13103" lon="6.7106">
        <ele>1683.6</ele>
        <time>2026-06-27T08:53:05Z</time>
      </trkpt>
      <trkpt lat="46.13103" lon="6.7106">
        <ele>1683.6</ele>
        <time>2026-06-27T08:53:06Z</time>
      </trkpt>
      <trkpt lat="46.13103" lon="6.7106">
        <ele>1683.6</ele>
        <time>2026-06-27T08:53:07Z</time>
      </trkpt>
      <trkpt lat="46.13104" lon="6.7106">
        <ele>1683.6</ele>
        <time>2026-06-27T08:53:08Z</time>
      </trkpt>
      <trkpt lat="46.13104" lon="6.7106">
        <ele>1683.5</ele>
        <time>2026-06-27T08:53:09Z</time>
      </trkpt>
      <trkpt lat="46.13104" lon="6.7106">
        <ele>1683.4</ele>
        <time>2026-06-27T08:53:10Z</time>
      </trkpt>
      <trkpt lat="46.13104" lon="6.7106">
        <ele>1683.3</ele>
        <time>2026-06-27T08:53:11Z</time>
      </trkpt>
      <trkpt lat="46.13104" lon="6.7106">
        <ele>1683.3</ele>
        <time>2026-06-27T08:53:12Z</time>
      </trkpt>
      <trkpt lat="46.13104" lon="6.7106">
        <ele>1683.4</ele>
        <time>2026-06-27T08:53:13Z</time>
      </trkpt>
      <trkpt lat="46.13104" lon="6.71059">
        <ele>1683.4</ele>
        <time>2026-06-27T08:53:14Z</time>
      </trkpt>
      <trkpt lat="46.13104" lon="6.71059">
        <ele>1683.4</ele>
        <time>2026-06-27T08:53:15Z</time>
      </trkpt>
      <trkpt lat="46.13105" lon="6.71059">
        <ele>1683.3</ele>
        <time>2026-06-27T08:53:16Z</time>
      </trkpt>
      <trkpt lat="46.13105" lon="6.71058">
        <ele>1683.5</ele>
        <time>2026-06-27T08:53:17Z</time>
      </trkpt>
      <trkpt lat="46.13106" lon="6.71057">
        <ele>1683.6</ele>
        <time>2026-06-27T08:53:18Z</time>
      </trkpt>
      <trkpt lat="46.13106" lon="6.71055">
        <ele>1683.8</ele>
        <time>2026-06-27T08:53:19Z</time>
      </trkpt>
      <trkpt lat="46.13106" lon="6.71053">
        <ele>1683.9</ele>
        <time>2026-06-27T08:53:20Z</time>
      </trkpt>
      <trkpt lat="46.13106" lon="6.71052">
        <ele>1683.9</ele>
        <time>2026-06-27T08:53:21Z</time>
      </trkpt>
      <trkpt lat="46.13106" lon="6.7105">
        <ele>1683.9</ele>
        <time>2026-06-27T08:53:22Z</time>
      </trkpt>
      <trkpt lat="46.13106" lon="6.71048">
        <ele>1683.9</ele>
        <time>2026-06-27T08:53:23Z</time>
      </trkpt>
      <trkpt lat="46.13106" lon="6.71047">
        <ele>1684.1</ele>
        <time>2026-06-27T08:53:24Z</time>
      </trkpt>
      <trkpt lat="46.13106" lon="6.71045">
        <ele>1684.2</ele>
        <time>2026-06-27T08:53:25Z</time>
      </trkpt>
      <trkpt lat="46.13106" lon="6.71043">
        <ele>1684</ele>
        <time>2026-06-27T08:53:26Z</time>
      </trkpt>
      <trkpt lat="46.13105" lon="6.71041">
        <ele>1684</ele>
        <time>2026-06-27T08:53:27Z</time>
      </trkpt>
      <trkpt lat="46.13105" lon="6.7104">
        <ele>1684</ele>
        <time>2026-06-27T08:53:28Z</time>
      </trkpt>
      <trkpt lat="46.13105" lon="6.71038">
        <ele>1684</ele>
        <time>2026-06-27T08:53:29Z</time>
      </trkpt>
      <trkpt lat="46.13105" lon="6.71037">
        <ele>1683.9</ele>
        <time>2026-06-27T08:53:30Z</time>
      </trkpt>
      <trkpt lat="46.13105" lon="6.71035">
        <ele>1683.9</ele>
        <time>2026-06-27T08:53:31Z</time>
      </trkpt>
      <trkpt lat="46.13105" lon="6.71033">
        <ele>1683.9</ele>
        <time>2026-06-27T08:53:32Z</time>
      </trkpt>
      <trkpt lat="46.13105" lon="6.71031">
        <ele>1683.9</ele>
        <time>2026-06-27T08:53:33Z</time>
      </trkpt>
      <trkpt lat="46.13105" lon="6.7103">
        <ele>1683.9</ele>
        <time>2026-06-27T08:53:34Z</time>
      </trkpt>
      <trkpt lat="46.13105" lon="6.71028">
        <ele>1683.8</ele>
        <time>2026-06-27T08:53:35Z</time>
      </trkpt>
      <trkpt lat="46.13104" lon="6.71026">
        <ele>1683.9</ele>
        <time>2026-06-27T08:53:36Z</time>
      </trkpt>
      <trkpt lat="46.13104" lon="6.71025">
        <ele>1683.8</ele>
        <time>2026-06-27T08:53:37Z</time>
      </trkpt>
      <trkpt lat="46.13104" lon="6.71023">
        <ele>1683.9</ele>
        <time>2026-06-27T08:53:38Z</time>
      </trkpt>
      <trkpt lat="46.13104" lon="6.71022">
        <ele>1683.8</ele>
        <time>2026-06-27T08:53:39Z</time>
      </trkpt>
      <trkpt lat="46.13103" lon="6.7102">
        <ele>1683.8</ele>
        <time>2026-06-27T08:53:40Z</time>
      </trkpt>
      <trkpt lat="46.13103" lon="6.71018">
        <ele>1683.9</ele>
        <time>2026-06-27T08:53:41Z</time>
      </trkpt>
      <trkpt lat="46.13102" lon="6.71017">
        <ele>1683.9</ele>
        <time>2026-06-27T08:53:42Z</time>
      </trkpt>
      <trkpt lat="46.13102" lon="6.71015">
        <ele>1683.8</ele>
        <time>2026-06-27T08:53:43Z</time>
      </trkpt>
      <trkpt lat="46.13101" lon="6.71013">
        <ele>1683.9</ele>
        <time>2026-06-27T08:53:44Z</time>
      </trkpt>
      <trkpt lat="46.13101" lon="6.71011">
        <ele>1684</ele>
        <time>2026-06-27T08:53:45Z</time>
      </trkpt>
      <trkpt lat="46.131" lon="6.7101">
        <ele>1684.1</ele>
        <time>2026-06-27T08:53:46Z</time>
      </trkpt>
      <trkpt lat="46.13099" lon="6.71009">
        <ele>1684.2</ele>
        <time>2026-06-27T08:53:47Z</time>
      </trkpt>
      <trkpt lat="46.13099" lon="6.71007">
        <ele>1684.2</ele>
        <time>2026-06-27T08:53:48Z</time>
      </trkpt>
      <trkpt lat="46.13099" lon="6.71005">
        <ele>1684.3</ele>
        <time>2026-06-27T08:53:49Z</time>
      </trkpt>
      <trkpt lat="46.13099" lon="6.71004">
        <ele>1684.3</ele>
        <time>2026-06-27T08:53:50Z</time>
      </trkpt>
      <trkpt lat="46.13098" lon="6.71002">
        <ele>1684.3</ele>
        <time>2026-06-27T08:53:51Z</time>
      </trkpt>
      <trkpt lat="46.13097" lon="6.71">
        <ele>1684.5</ele>
        <time>2026-06-27T08:53:52Z</time>
      </trkpt>
      <trkpt lat="46.13097" lon="6.70999">
        <ele>1684.4</ele>
        <time>2026-06-27T08:53:53Z</time>
      </trkpt>
      <trkpt lat="46.13097" lon="6.70997">
        <ele>1684.4</ele>
        <time>2026-06-27T08:53:54Z</time>
      </trkpt>
      <trkpt lat="46.13097" lon="6.70995">
        <ele>1684.4</ele>
        <time>2026-06-27T08:53:55Z</time>
      </trkpt>
      <trkpt lat="46.13097" lon="6.70994">
        <ele>1684.4</ele>
        <time>2026-06-27T08:53:56Z</time>
      </trkpt>
      <trkpt lat="46.13096" lon="6.70992">
        <ele>1684.4</ele>
        <time>2026-06-27T08:53:57Z</time>
      </trkpt>
      <trkpt lat="46.13096" lon="6.7099">
        <ele>1684.4</ele>
        <time>2026-06-27T08:53:58Z</time>
      </trkpt>
      <trkpt lat="46.13095" lon="6.70988">
        <ele>1684.6</ele>
        <time>2026-06-27T08:53:59Z</time>
      </trkpt>
      <trkpt lat="46.13095" lon="6.70987">
        <ele>1684.6</ele>
        <time>2026-06-27T08:54:00Z</time>
      </trkpt>
      <trkpt lat="46.13095" lon="6.70986">
        <ele>1684.2</ele>
        <time>2026-06-27T08:54:01Z</time>
      </trkpt>
      <trkpt lat="46.13094" lon="6.70984">
        <ele>1684.3</ele>
        <time>2026-06-27T08:54:02Z</time>
      </trkpt>
      <trkpt lat="46.13094" lon="6.70983">
        <ele>1684.3</ele>
        <time>2026-06-27T08:54:03Z</time>
      </trkpt>
      <trkpt lat="46.13093" lon="6.70981">
        <ele>1684.3</ele>
        <time>2026-06-27T08:54:04Z</time>
      </trkpt>
      <trkpt lat="46.13093" lon="6.70979">
        <ele>1684.4</ele>
        <time>2026-06-27T08:54:05Z</time>
      </trkpt>
      <trkpt lat="46.13093" lon="6.70978">
        <ele>1684.4</ele>
        <time>2026-06-27T08:54:06Z</time>
      </trkpt>
      <trkpt lat="46.13093" lon="6.70976">
        <ele>1684.5</ele>
        <time>2026-06-27T08:54:07Z</time>
      </trkpt>
      <trkpt lat="46.13093" lon="6.70974">
        <ele>1684.4</ele>
        <time>2026-06-27T08:54:08Z</time>
      </trkpt>
      <trkpt lat="46.13093" lon="6.70973">
        <ele>1684.4</ele>
        <time>2026-06-27T08:54:09Z</time>
      </trkpt>
      <trkpt lat="46.13092" lon="6.70971">
        <ele>1684.7</ele>
        <time>2026-06-27T08:54:10Z</time>
      </trkpt>
      <trkpt lat="46.13092" lon="6.70969">
        <ele>1684.7</ele>
        <time>2026-06-27T08:54:11Z</time>
      </trkpt>
      <trkpt lat="46.13092" lon="6.70968">
        <ele>1684.7</ele>
        <time>2026-06-27T08:54:12Z</time>
      </trkpt>
      <trkpt lat="46.13091" lon="6.70967">
        <ele>1684.8</ele>
        <time>2026-06-27T08:54:13Z</time>
      </trkpt>
      <trkpt lat="46.13091" lon="6.70965">
        <ele>1684.8</ele>
        <time>2026-06-27T08:54:14Z</time>
      </trkpt>
      <trkpt lat="46.13091" lon="6.70964">
        <ele>1684.9</ele>
        <time>2026-06-27T08:54:15Z</time>
      </trkpt>
      <trkpt lat="46.1309" lon="6.70962">
        <ele>1685</ele>
        <time>2026-06-27T08:54:16Z</time>
      </trkpt>
      <trkpt lat="46.13089" lon="6.70961">
        <ele>1685</ele>
        <time>2026-06-27T08:54:17Z</time>
      </trkpt>
      <trkpt lat="46.13089" lon="6.7096">
        <ele>1685.2</ele>
        <time>2026-06-27T08:54:18Z</time>
      </trkpt>
      <trkpt lat="46.13088" lon="6.70959">
        <ele>1685.2</ele>
        <time>2026-06-27T08:54:19Z</time>
      </trkpt>
      <trkpt lat="46.13087" lon="6.70958">
        <ele>1685.2</ele>
        <time>2026-06-27T08:54:20Z</time>
      </trkpt>
      <trkpt lat="46.13086" lon="6.70956">
        <ele>1685.3</ele>
        <time>2026-06-27T08:54:21Z</time>
      </trkpt>
      <trkpt lat="46.13086" lon="6.70955">
        <ele>1685.4</ele>
        <time>2026-06-27T08:54:22Z</time>
      </trkpt>
      <trkpt lat="46.13085" lon="6.70954">
        <ele>1685.4</ele>
        <time>2026-06-27T08:54:23Z</time>
      </trkpt>
      <trkpt lat="46.13084" lon="6.70952">
        <ele>1685.4</ele>
        <time>2026-06-27T08:54:24Z</time>
      </trkpt>
      <trkpt lat="46.13084" lon="6.70951">
        <ele>1685.4</ele>
        <time>2026-06-27T08:54:25Z</time>
      </trkpt>
      <trkpt lat="46.13083" lon="6.7095">
        <ele>1685.4</ele>
        <time>2026-06-27T08:54:26Z</time>
      </trkpt>
      <trkpt lat="46.13084" lon="6.70948">
        <ele>1685.3</ele>
        <time>2026-06-27T08:54:27Z</time>
      </trkpt>
      <trkpt lat="46.13083" lon="6.70947">
        <ele>1685.3</ele>
        <time>2026-06-27T08:54:28Z</time>
      </trkpt>
      <trkpt lat="46.13082" lon="6.70946">
        <ele>1685.2</ele>
        <time>2026-06-27T08:54:29Z</time>
      </trkpt>
      <trkpt lat="46.13082" lon="6.70945">
        <ele>1685.2</ele>
        <time>2026-06-27T08:54:30Z</time>
      </trkpt>
      <trkpt lat="46.13081" lon="6.70944">
        <ele>1685.2</ele>
        <time>2026-06-27T08:54:31Z</time>
      </trkpt>
      <trkpt lat="46.13081" lon="6.70944">
        <ele>1685.1</ele>
        <time>2026-06-27T08:54:32Z</time>
      </trkpt>
      <trkpt lat="46.13081" lon="6.70942">
        <ele>1685.1</ele>
        <time>2026-06-27T08:54:33Z</time>
      </trkpt>
      <trkpt lat="46.13081" lon="6.70942">
        <ele>1685.1</ele>
        <time>2026-06-27T08:54:34Z</time>
      </trkpt>
      <trkpt lat="46.13081" lon="6.70942">
        <ele>1685</ele>
        <time>2026-06-27T08:54:35Z</time>
      </trkpt>
      <trkpt lat="46.13081" lon="6.70942">
        <ele>1685</ele>
        <time>2026-06-27T08:54:36Z</time>
      </trkpt>
      <trkpt lat="46.13081" lon="6.70942">
        <ele>1685</ele>
        <time>2026-06-27T08:54:37Z</time>
      </trkpt>
      <trkpt lat="46.13081" lon="6.70942">
        <ele>1685</ele>
        <time>2026-06-27T08:54:38Z</time>
      </trkpt>
      <trkpt lat="46.13081" lon="6.70941">
        <ele>1685</ele>
        <time>2026-06-27T08:54:39Z</time>
      </trkpt>
      <trkpt lat="46.13081" lon="6.70941">
        <ele>1685</ele>
        <time>2026-06-27T08:54:40Z</time>
      </trkpt>
      <trkpt lat="46.13081" lon="6.70941">
        <ele>1685</ele>
        <time>2026-06-27T08:54:41Z</time>
      </trkpt>
      <trkpt lat="46.13081" lon="6.70941">
        <ele>1685</ele>
        <time>2026-06-27T08:54:42Z</time>
      </trkpt>
      <trkpt lat="46.13081" lon="6.70941">
        <ele>1685</ele>
        <time>2026-06-27T08:54:43Z</time>
      </trkpt>
      <trkpt lat="46.13081" lon="6.70941">
        <ele>1685.1</ele>
        <time>2026-06-27T08:54:44Z</time>
      </trkpt>
      <trkpt lat="46.13081" lon="6.70941">
        <ele>1685.1</ele>
        <time>2026-06-27T08:54:45Z</time>
      </trkpt>
      <trkpt lat="46.13081" lon="6.70941">
        <ele>1685.1</ele>
        <time>2026-06-27T08:54:46Z</time>
      </trkpt>
      <trkpt lat="46.13081" lon="6.70941">
        <ele>1685</ele>
        <time>2026-06-27T08:54:47Z</time>
      </trkpt>
      <trkpt lat="46.13081" lon="6.70942">
        <ele>1685.1</ele>
        <time>2026-06-27T08:54:48Z</time>
      </trkpt>
      <trkpt lat="46.13081" lon="6.70942">
        <ele>1685.1</ele>
        <time>2026-06-27T08:54:49Z</time>
      </trkpt>
      <trkpt lat="46.13081" lon="6.70941">
        <ele>1685.1</ele>
        <time>2026-06-27T08:54:50Z</time>
      </trkpt>
      <trkpt lat="46.13081" lon="6.70941">
        <ele>1685.1</ele>
        <time>2026-06-27T08:54:51Z</time>
      </trkpt>
      <trkpt lat="46.13081" lon="6.7094">
        <ele>1685.1</ele>
        <time>2026-06-27T08:54:52Z</time>
      </trkpt>
      <trkpt lat="46.13081" lon="6.7094">
        <ele>1685.1</ele>
        <time>2026-06-27T08:54:53Z</time>
      </trkpt>
      <trkpt lat="46.13081" lon="6.70939">
        <ele>1684.9</ele>
        <time>2026-06-27T08:54:54Z</time>
      </trkpt>
      <trkpt lat="46.13081" lon="6.70939">
        <ele>1684.9</ele>
        <time>2026-06-27T08:54:55Z</time>
      </trkpt>
      <trkpt lat="46.1308" lon="6.70938">
        <ele>1684.8</ele>
        <time>2026-06-27T08:54:56Z</time>
      </trkpt>
      <trkpt lat="46.13081" lon="6.70938">
        <ele>1684.8</ele>
        <time>2026-06-27T08:54:57Z</time>
      </trkpt>
      <trkpt lat="46.1308" lon="6.70937">
        <ele>1684.8</ele>
        <time>2026-06-27T08:54:58Z</time>
      </trkpt>
      <trkpt lat="46.1308" lon="6.70936">
        <ele>1684.9</ele>
        <time>2026-06-27T08:54:59Z</time>
      </trkpt>
      <trkpt lat="46.1308" lon="6.70935">
        <ele>1684.8</ele>
        <time>2026-06-27T08:55:00Z</time>
      </trkpt>
      <trkpt lat="46.1308" lon="6.70934">
        <ele>1684.8</ele>
        <time>2026-06-27T08:55:01Z</time>
      </trkpt>
      <trkpt lat="46.1308" lon="6.70933">
        <ele>1684.8</ele>
        <time>2026-06-27T08:55:02Z</time>
      </trkpt>
      <trkpt lat="46.1308" lon="6.70932">
        <ele>1684.9</ele>
        <time>2026-06-27T08:55:03Z</time>
      </trkpt>
      <trkpt lat="46.1308" lon="6.70932">
        <ele>1684.9</ele>
        <time>2026-06-27T08:55:04Z</time>
      </trkpt>
      <trkpt lat="46.1308" lon="6.70932">
        <ele>1685</ele>
        <time>2026-06-27T08:55:05Z</time>
      </trkpt>
      <trkpt lat="46.1308" lon="6.70932">
        <ele>1685</ele>
        <time>2026-06-27T08:55:06Z</time>
      </trkpt>
      <trkpt lat="46.1308" lon="6.70932">
        <ele>1685.2</ele>
        <time>2026-06-27T08:55:07Z</time>
      </trkpt>
      <trkpt lat="46.13081" lon="6.70932">
        <ele>1685.3</ele>
        <time>2026-06-27T08:55:08Z</time>
      </trkpt>
      <trkpt lat="46.1308" lon="6.70932">
        <ele>1685.2</ele>
        <time>2026-06-27T08:55:09Z</time>
      </trkpt>
      <trkpt lat="46.13081" lon="6.70932">
        <ele>1685.2</ele>
        <time>2026-06-27T08:55:10Z</time>
      </trkpt>
      <trkpt lat="46.13081" lon="6.70932">
        <ele>1685.2</ele>
        <time>2026-06-27T08:55:11Z</time>
      </trkpt>
      <trkpt lat="46.13081" lon="6.70932">
        <ele>1685.2</ele>
        <time>2026-06-27T08:55:12Z</time>
      </trkpt>
      <trkpt lat="46.13081" lon="6.70932">
        <ele>1685.2</ele>
        <time>2026-06-27T08:55:13Z</time>
      </trkpt>
      <trkpt lat="46.13081" lon="6.70931">
        <ele>1685.2</ele>
        <time>2026-06-27T08:55:14Z</time>
      </trkpt>
      <trkpt lat="46.13081" lon="6.7093">
        <ele>1685.2</ele>
        <time>2026-06-27T08:55:15Z</time>
      </trkpt>
      <trkpt lat="46.13081" lon="6.70928">
        <ele>1685.2</ele>
        <time>2026-06-27T08:55:16Z</time>
      </trkpt>
      <trkpt lat="46.13081" lon="6.70927">
        <ele>1685.2</ele>
        <time>2026-06-27T08:55:17Z</time>
      </trkpt>
      <trkpt lat="46.13082" lon="6.70925">
        <ele>1685.2</ele>
        <time>2026-06-27T08:55:18Z</time>
      </trkpt>
      <trkpt lat="46.13082" lon="6.70925">
        <ele>1685.2</ele>
        <time>2026-06-27T08:55:19Z</time>
      </trkpt>
      <trkpt lat="46.13081" lon="6.70923">
        <ele>1685.2</ele>
        <time>2026-06-27T08:55:20Z</time>
      </trkpt>
      <trkpt lat="46.13081" lon="6.70923">
        <ele>1685.2</ele>
        <time>2026-06-27T08:55:21Z</time>
      </trkpt>
      <trkpt lat="46.13081" lon="6.70922">
        <ele>1685.2</ele>
        <time>2026-06-27T08:55:22Z</time>
      </trkpt>
      <trkpt lat="46.13082" lon="6.70922">
        <ele>1685.2</ele>
        <time>2026-06-27T08:55:23Z</time>
      </trkpt>
      <trkpt lat="46.13082" lon="6.70922">
        <ele>1685.1</ele>
        <time>2026-06-27T08:55:24Z</time>
      </trkpt>
      <trkpt lat="46.13082" lon="6.70922">
        <ele>1685.1</ele>
        <time>2026-06-27T08:55:25Z</time>
      </trkpt>
      <trkpt lat="46.13082" lon="6.70922">
        <ele>1685</ele>
        <time>2026-06-27T08:55:26Z</time>
      </trkpt>
      <trkpt lat="46.13082" lon="6.70922">
        <ele>1685</ele>
        <time>2026-06-27T08:55:27Z</time>
      </trkpt>
      <trkpt lat="46.13082" lon="6.70921">
        <ele>1684.9</ele>
        <time>2026-06-27T08:55:28Z</time>
      </trkpt>
      <trkpt lat="46.13082" lon="6.7092">
        <ele>1684.9</ele>
        <time>2026-06-27T08:55:29Z</time>
      </trkpt>
      <trkpt lat="46.13082" lon="6.70918">
        <ele>1685</ele>
        <time>2026-06-27T08:55:30Z</time>
      </trkpt>
      <trkpt lat="46.13082" lon="6.70916">
        <ele>1685</ele>
        <time>2026-06-27T08:55:31Z</time>
      </trkpt>
      <trkpt lat="46.13082" lon="6.70915">
        <ele>1685.1</ele>
        <time>2026-06-27T08:55:32Z</time>
      </trkpt>
      <trkpt lat="46.13082" lon="6.70914">
        <ele>1685.2</ele>
        <time>2026-06-27T08:55:33Z</time>
      </trkpt>
      <trkpt lat="46.13082" lon="6.70912">
        <ele>1685.2</ele>
        <time>2026-06-27T08:55:34Z</time>
      </trkpt>
      <trkpt lat="46.13082" lon="6.70911">
        <ele>1685.2</ele>
        <time>2026-06-27T08:55:35Z</time>
      </trkpt>
      <trkpt lat="46.13081" lon="6.7091">
        <ele>1685.3</ele>
        <time>2026-06-27T08:55:36Z</time>
      </trkpt>
      <trkpt lat="46.13081" lon="6.70909">
        <ele>1685.3</ele>
        <time>2026-06-27T08:55:37Z</time>
      </trkpt>
      <trkpt lat="46.13081" lon="6.70907">
        <ele>1685.3</ele>
        <time>2026-06-27T08:55:38Z</time>
      </trkpt>
      <trkpt lat="46.13081" lon="6.70905">
        <ele>1685.2</ele>
        <time>2026-06-27T08:55:39Z</time>
      </trkpt>
      <trkpt lat="46.13081" lon="6.70904">
        <ele>1685.2</ele>
        <time>2026-06-27T08:55:40Z</time>
      </trkpt>
      <trkpt lat="46.13081" lon="6.70902">
        <ele>1685.1</ele>
        <time>2026-06-27T08:55:41Z</time>
      </trkpt>
      <trkpt lat="46.1308" lon="6.70901">
        <ele>1685.1</ele>
        <time>2026-06-27T08:55:42Z</time>
      </trkpt>
      <trkpt lat="46.1308" lon="6.709">
        <ele>1685.1</ele>
        <time>2026-06-27T08:55:43Z</time>
      </trkpt>
      <trkpt lat="46.1308" lon="6.70899">
        <ele>1685</ele>
        <time>2026-06-27T08:55:44Z</time>
      </trkpt>
      <trkpt lat="46.1308" lon="6.70898">
        <ele>1685</ele>
        <time>2026-06-27T08:55:45Z</time>
      </trkpt>
      <trkpt lat="46.1308" lon="6.70897">
        <ele>1685</ele>
        <time>2026-06-27T08:55:46Z</time>
      </trkpt>
      <trkpt lat="46.1308" lon="6.70896">
        <ele>1685</ele>
        <time>2026-06-27T08:55:47Z</time>
      </trkpt>
      <trkpt lat="46.1308" lon="6.70896">
        <ele>1685</ele>
        <time>2026-06-27T08:55:48Z</time>
      </trkpt>
      <trkpt lat="46.1308" lon="6.70896">
        <ele>1685</ele>
        <time>2026-06-27T08:55:49Z</time>
      </trkpt>
      <trkpt lat="46.1308" lon="6.70896">
        <ele>1684.9</ele>
        <time>2026-06-27T08:55:50Z</time>
      </trkpt>
      <trkpt lat="46.1308" lon="6.70895">
        <ele>1684.9</ele>
        <time>2026-06-27T08:55:51Z</time>
      </trkpt>
      <trkpt lat="46.1308" lon="6.70895">
        <ele>1684.9</ele>
        <time>2026-06-27T08:55:52Z</time>
      </trkpt>
      <trkpt lat="46.1308" lon="6.70895">
        <ele>1685</ele>
        <time>2026-06-27T08:55:53Z</time>
      </trkpt>
      <trkpt lat="46.13079" lon="6.70894">
        <ele>1685</ele>
        <time>2026-06-27T08:55:54Z</time>
      </trkpt>
      <trkpt lat="46.13079" lon="6.70892">
        <ele>1685</ele>
        <time>2026-06-27T08:55:55Z</time>
      </trkpt>
      <trkpt lat="46.13079" lon="6.70891">
        <ele>1685</ele>
        <time>2026-06-27T08:55:56Z</time>
      </trkpt>
      <trkpt lat="46.13078" lon="6.70889">
        <ele>1685</ele>
        <time>2026-06-27T08:55:57Z</time>
      </trkpt>
      <trkpt lat="46.13078" lon="6.70888">
        <ele>1685</ele>
        <time>2026-06-27T08:55:58Z</time>
      </trkpt>
      <trkpt lat="46.13078" lon="6.70887">
        <ele>1685</ele>
        <time>2026-06-27T08:55:59Z</time>
      </trkpt>
      <trkpt lat="46.13078" lon="6.70885">
        <ele>1684.8</ele>
        <time>2026-06-27T08:56:00Z</time>
      </trkpt>
      <trkpt lat="46.13078" lon="6.70884">
        <ele>1684.8</ele>
        <time>2026-06-27T08:56:01Z</time>
      </trkpt>
      <trkpt lat="46.13077" lon="6.70883">
        <ele>1684.8</ele>
        <time>2026-06-27T08:56:02Z</time>
      </trkpt>
      <trkpt lat="46.13077" lon="6.70882">
        <ele>1684.9</ele>
        <time>2026-06-27T08:56:03Z</time>
      </trkpt>
      <trkpt lat="46.13077" lon="6.70881">
        <ele>1685</ele>
        <time>2026-06-27T08:56:04Z</time>
      </trkpt>
      <trkpt lat="46.13077" lon="6.7088">
        <ele>1685</ele>
        <time>2026-06-27T08:56:05Z</time>
      </trkpt>
      <trkpt lat="46.13076" lon="6.70879">
        <ele>1685</ele>
        <time>2026-06-27T08:56:06Z</time>
      </trkpt>
      <trkpt lat="46.13076" lon="6.70877">
        <ele>1685</ele>
        <time>2026-06-27T08:56:07Z</time>
      </trkpt>
      <trkpt lat="46.13076" lon="6.70876">
        <ele>1685</ele>
        <time>2026-06-27T08:56:08Z</time>
      </trkpt>
      <trkpt lat="46.13075" lon="6.70874">
        <ele>1685</ele>
        <time>2026-06-27T08:56:09Z</time>
      </trkpt>
      <trkpt lat="46.13074" lon="6.70872">
        <ele>1685</ele>
        <time>2026-06-27T08:56:10Z</time>
      </trkpt>
      <trkpt lat="46.13074" lon="6.70871">
        <ele>1685</ele>
        <time>2026-06-27T08:56:11Z</time>
      </trkpt>
      <trkpt lat="46.13074" lon="6.7087">
        <ele>1684.9</ele>
        <time>2026-06-27T08:56:12Z</time>
      </trkpt>
      <trkpt lat="46.13073" lon="6.70869">
        <ele>1684.9</ele>
        <time>2026-06-27T08:56:13Z</time>
      </trkpt>
      <trkpt lat="46.13073" lon="6.70868">
        <ele>1684.9</ele>
        <time>2026-06-27T08:56:14Z</time>
      </trkpt>
      <trkpt lat="46.13072" lon="6.70867">
        <ele>1684.8</ele>
        <time>2026-06-27T08:56:15Z</time>
      </trkpt>
      <trkpt lat="46.13072" lon="6.70866">
        <ele>1684.7</ele>
        <time>2026-06-27T08:56:16Z</time>
      </trkpt>
      <trkpt lat="46.13071" lon="6.70866">
        <ele>1684.7</ele>
        <time>2026-06-27T08:56:17Z</time>
      </trkpt>
      <trkpt lat="46.1307" lon="6.70865">
        <ele>1684.6</ele>
        <time>2026-06-27T08:56:18Z</time>
      </trkpt>
      <trkpt lat="46.13069" lon="6.70864">
        <ele>1684.5</ele>
        <time>2026-06-27T08:56:19Z</time>
      </trkpt>
      <trkpt lat="46.13068" lon="6.70863">
        <ele>1684.4</ele>
        <time>2026-06-27T08:56:20Z</time>
      </trkpt>
      <trkpt lat="46.13067" lon="6.70863">
        <ele>1684.3</ele>
        <time>2026-06-27T08:56:21Z</time>
      </trkpt>
      <trkpt lat="46.13067" lon="6.70862">
        <ele>1684.2</ele>
        <time>2026-06-27T08:56:22Z</time>
      </trkpt>
      <trkpt lat="46.13066" lon="6.70862">
        <ele>1684.1</ele>
        <time>2026-06-27T08:56:23Z</time>
      </trkpt>
      <trkpt lat="46.13065" lon="6.70861">
        <ele>1683.9</ele>
        <time>2026-06-27T08:56:24Z</time>
      </trkpt>
      <trkpt lat="46.13064" lon="6.7086">
        <ele>1683.8</ele>
        <time>2026-06-27T08:56:25Z</time>
      </trkpt>
      <trkpt lat="46.13063" lon="6.7086">
        <ele>1683.7</ele>
        <time>2026-06-27T08:56:26Z</time>
      </trkpt>
      <trkpt lat="46.13063" lon="6.7086">
        <ele>1683.6</ele>
        <time>2026-06-27T08:56:27Z</time>
      </trkpt>
      <trkpt lat="46.13063" lon="6.7086">
        <ele>1683.5</ele>
        <time>2026-06-27T08:56:28Z</time>
      </trkpt>
      <trkpt lat="46.13063" lon="6.7086">
        <ele>1683.3</ele>
        <time>2026-06-27T08:56:29Z</time>
      </trkpt>
      <trkpt lat="46.13063" lon="6.70859">
        <ele>1683.2</ele>
        <time>2026-06-27T08:56:30Z</time>
      </trkpt>
      <trkpt lat="46.13064" lon="6.7086">
        <ele>1683.2</ele>
        <time>2026-06-27T08:56:31Z</time>
      </trkpt>
      <trkpt lat="46.13064" lon="6.7086">
        <ele>1683.2</ele>
        <time>2026-06-27T08:56:32Z</time>
      </trkpt>
      <trkpt lat="46.13064" lon="6.7086">
        <ele>1683.1</ele>
        <time>2026-06-27T08:56:33Z</time>
      </trkpt>
      <trkpt lat="46.13064" lon="6.7086">
        <ele>1683.1</ele>
        <time>2026-06-27T08:56:34Z</time>
      </trkpt>
      <trkpt lat="46.13063" lon="6.70859">
        <ele>1683.2</ele>
        <time>2026-06-27T08:56:35Z</time>
      </trkpt>
      <trkpt lat="46.13063" lon="6.7086">
        <ele>1683.2</ele>
        <time>2026-06-27T08:56:36Z</time>
      </trkpt>
      <trkpt lat="46.13063" lon="6.70859">
        <ele>1683.2</ele>
        <time>2026-06-27T08:56:37Z</time>
      </trkpt>
      <trkpt lat="46.13063" lon="6.70859">
        <ele>1683.3</ele>
        <time>2026-06-27T08:56:38Z</time>
      </trkpt>
      <trkpt lat="46.13063" lon="6.70859">
        <ele>1683.3</ele>
        <time>2026-06-27T08:56:39Z</time>
      </trkpt>
      <trkpt lat="46.13063" lon="6.70859">
        <ele>1683.3</ele>
        <time>2026-06-27T08:56:40Z</time>
      </trkpt>
      <trkpt lat="46.13063" lon="6.70859">
        <ele>1683.3</ele>
        <time>2026-06-27T08:56:41Z</time>
      </trkpt>
      <trkpt lat="46.13063" lon="6.70859">
        <ele>1683.3</ele>
        <time>2026-06-27T08:56:42Z</time>
      </trkpt>
      <trkpt lat="46.13063" lon="6.70859">
        <ele>1683.3</ele>
        <time>2026-06-27T08:56:43Z</time>
      </trkpt>
      <trkpt lat="46.13063" lon="6.70859">
        <ele>1683.4</ele>
        <time>2026-06-27T08:56:44Z</time>
      </trkpt>
      <trkpt lat="46.13063" lon="6.70859">
        <ele>1683.3</ele>
        <time>2026-06-27T08:56:45Z</time>
      </trkpt>
      <trkpt lat="46.13064" lon="6.70859">
        <ele>1683.3</ele>
        <time>2026-06-27T08:56:46Z</time>
      </trkpt>
      <trkpt lat="46.13064" lon="6.70858">
        <ele>1683.2</ele>
        <time>2026-06-27T08:56:47Z</time>
      </trkpt>
      <trkpt lat="46.13064" lon="6.70858">
        <ele>1683.2</ele>
        <time>2026-06-27T08:56:48Z</time>
      </trkpt>
      <trkpt lat="46.13064" lon="6.70858">
        <ele>1683.2</ele>
        <time>2026-06-27T08:56:49Z</time>
      </trkpt>
      <trkpt lat="46.13064" lon="6.70858">
        <ele>1683.2</ele>
        <time>2026-06-27T08:56:50Z</time>
      </trkpt>
      <trkpt lat="46.13064" lon="6.70858">
        <ele>1683.2</ele>
        <time>2026-06-27T08:56:51Z</time>
      </trkpt>
      <trkpt lat="46.13064" lon="6.70858">
        <ele>1683.1</ele>
        <time>2026-06-27T08:56:52Z</time>
      </trkpt>
      <trkpt lat="46.13064" lon="6.70858">
        <ele>1683.1</ele>
        <time>2026-06-27T08:56:53Z</time>
      </trkpt>
      <trkpt lat="46.13064" lon="6.70858">
        <ele>1683.1</ele>
        <time>2026-06-27T08:56:54Z</time>
      </trkpt>
      <trkpt lat="46.13064" lon="6.70858">
        <ele>1683.2</ele>
        <time>2026-06-27T08:56:55Z</time>
      </trkpt>
      <trkpt lat="46.13064" lon="6.70858">
        <ele>1683.2</ele>
        <time>2026-06-27T08:56:56Z</time>
      </trkpt>
      <trkpt lat="46.13064" lon="6.70858">
        <ele>1683.2</ele>
        <time>2026-06-27T08:56:57Z</time>
      </trkpt>
      <trkpt lat="46.13064" lon="6.70858">
        <ele>1683.2</ele>
        <time>2026-06-27T08:56:58Z</time>
      </trkpt>
      <trkpt lat="46.13064" lon="6.70858">
        <ele>1683.2</ele>
        <time>2026-06-27T08:56:59Z</time>
      </trkpt>
      <trkpt lat="46.13064" lon="6.70857">
        <ele>1683.2</ele>
        <time>2026-06-27T08:57:00Z</time>
      </trkpt>
      <trkpt lat="46.13064" lon="6.70857">
        <ele>1683.2</ele>
        <time>2026-06-27T08:57:01Z</time>
      </trkpt>
      <trkpt lat="46.13064" lon="6.70857">
        <ele>1683.2</ele>
        <time>2026-06-27T08:57:02Z</time>
      </trkpt>
      <trkpt lat="46.13064" lon="6.70857">
        <ele>1683.2</ele>
        <time>2026-06-27T08:57:03Z</time>
      </trkpt>
      <trkpt lat="46.13064" lon="6.70857">
        <ele>1683.2</ele>
        <time>2026-06-27T08:57:04Z</time>
      </trkpt>
      <trkpt lat="46.13064" lon="6.70856">
        <ele>1683.2</ele>
        <time>2026-06-27T08:57:05Z</time>
      </trkpt>
      <trkpt lat="46.13064" lon="6.70856">
        <ele>1683.1</ele>
        <time>2026-06-27T08:57:06Z</time>
      </trkpt>
      <trkpt lat="46.13064" lon="6.70856">
        <ele>1683.1</ele>
        <time>2026-06-27T08:57:07Z</time>
      </trkpt>
      <trkpt lat="46.13064" lon="6.70856">
        <ele>1683.1</ele>
        <time>2026-06-27T08:57:08Z</time>
      </trkpt>
      <trkpt lat="46.13064" lon="6.70856">
        <ele>1683.1</ele>
        <time>2026-06-27T08:57:09Z</time>
      </trkpt>
      <trkpt lat="46.13064" lon="6.70856">
        <ele>1683.2</ele>
        <time>2026-06-27T08:57:10Z</time>
      </trkpt>
      <trkpt lat="46.13064" lon="6.70856">
        <ele>1683.2</ele>
        <time>2026-06-27T08:57:11Z</time>
      </trkpt>
      <trkpt lat="46.13064" lon="6.70856">
        <ele>1683.2</ele>
        <time>2026-06-27T08:57:12Z</time>
      </trkpt>
      <trkpt lat="46.13064" lon="6.70856">
        <ele>1683.2</ele>
        <time>2026-06-27T08:57:13Z</time>
      </trkpt>
      <trkpt lat="46.13064" lon="6.70856">
        <ele>1683.1</ele>
        <time>2026-06-27T08:57:14Z</time>
      </trkpt>
      <trkpt lat="46.13064" lon="6.70856">
        <ele>1683.1</ele>
        <time>2026-06-27T08:57:15Z</time>
      </trkpt>
      <trkpt lat="46.13064" lon="6.70856">
        <ele>1683.1</ele>
        <time>2026-06-27T08:57:16Z</time>
      </trkpt>
      <trkpt lat="46.13064" lon="6.70856">
        <ele>1683.1</ele>
        <time>2026-06-27T08:57:17Z</time>
      </trkpt>
      <trkpt lat="46.13064" lon="6.70856">
        <ele>1683.1</ele>
        <time>2026-06-27T08:57:18Z</time>
      </trkpt>
      <trkpt lat="46.13064" lon="6.70856">
        <ele>1683.1</ele>
        <time>2026-06-27T08:57:19Z</time>
      </trkpt>
      <trkpt lat="46.13064" lon="6.70856">
        <ele>1683.1</ele>
        <time>2026-06-27T08:57:20Z</time>
      </trkpt>
      <trkpt lat="46.13064" lon="6.70856">
        <ele>1683.1</ele>
        <time>2026-06-27T08:57:21Z</time>
      </trkpt>
      <trkpt lat="46.13064" lon="6.70855">
        <ele>1683.2</ele>
        <time>2026-06-27T08:57:22Z</time>
      </trkpt>
      <trkpt lat="46.13064" lon="6.70855">
        <ele>1683.2</ele>
        <time>2026-06-27T08:57:23Z</time>
      </trkpt>
      <trkpt lat="46.13064" lon="6.70855">
        <ele>1683.2</ele>
        <time>2026-06-27T08:57:24Z</time>
      </trkpt>
      <trkpt lat="46.13064" lon="6.70855">
        <ele>1683.2</ele>
        <time>2026-06-27T08:57:25Z</time>
      </trkpt>
      <trkpt lat="46.13064" lon="6.70855">
        <ele>1683.2</ele>
        <time>2026-06-27T08:57:26Z</time>
      </trkpt>
      <trkpt lat="46.13064" lon="6.70855">
        <ele>1683.2</ele>
        <time>2026-06-27T08:57:27Z</time>
      </trkpt>
      <trkpt lat="46.13063" lon="6.70855">
        <ele>1683.1</ele>
        <time>2026-06-27T08:57:28Z</time>
      </trkpt>
      <trkpt lat="46.13063" lon="6.70855">
        <ele>1683.1</ele>
        <time>2026-06-27T08:57:29Z</time>
      </trkpt>
      <trkpt lat="46.13063" lon="6.70855">
        <ele>1683.1</ele>
        <time>2026-06-27T08:57:30Z</time>
      </trkpt>
      <trkpt lat="46.13063" lon="6.70855">
        <ele>1683.1</ele>
        <time>2026-06-27T08:57:31Z</time>
      </trkpt>
      <trkpt lat="46.13063" lon="6.70855">
        <ele>1683</ele>
        <time>2026-06-27T08:57:32Z</time>
      </trkpt>
      <trkpt lat="46.13063" lon="6.70855">
        <ele>1683</ele>
        <time>2026-06-27T08:57:33Z</time>
      </trkpt>
      <trkpt lat="46.13063" lon="6.70855">
        <ele>1683</ele>
        <time>2026-06-27T08:57:34Z</time>
      </trkpt>
      <trkpt lat="46.13063" lon="6.70855">
        <ele>1683</ele>
        <time>2026-06-27T08:57:35Z</time>
      </trkpt>
      <trkpt lat="46.13063" lon="6.70855">
        <ele>1682.8</ele>
        <time>2026-06-27T08:57:36Z</time>
      </trkpt>
      <trkpt lat="46.13063" lon="6.70855">
        <ele>1682.8</ele>
        <time>2026-06-27T08:57:37Z</time>
      </trkpt>
      <trkpt lat="46.13063" lon="6.70855">
        <ele>1682.8</ele>
        <time>2026-06-27T08:57:38Z</time>
      </trkpt>
      <trkpt lat="46.13063" lon="6.70855">
        <ele>1682.8</ele>
        <time>2026-06-27T08:57:39Z</time>
      </trkpt>
      <trkpt lat="46.13063" lon="6.70855">
        <ele>1682.8</ele>
        <time>2026-06-27T08:57:40Z</time>
      </trkpt>
      <trkpt lat="46.13063" lon="6.70856">
        <ele>1682.8</ele>
        <time>2026-06-27T08:57:41Z</time>
      </trkpt>
      <trkpt lat="46.13063" lon="6.70856">
        <ele>1682.9</ele>
        <time>2026-06-27T08:57:42Z</time>
      </trkpt>
      <trkpt lat="46.13063" lon="6.70856">
        <ele>1683</ele>
        <time>2026-06-27T08:57:43Z</time>
      </trkpt>
      <trkpt lat="46.13063" lon="6.70856">
        <ele>1683</ele>
        <time>2026-06-27T08:57:44Z</time>
      </trkpt>
      <trkpt lat="46.13063" lon="6.70856">
        <ele>1683.1</ele>
        <time>2026-06-27T08:57:45Z</time>
      </trkpt>
      <trkpt lat="46.13063" lon="6.70856">
        <ele>1683.1</ele>
        <time>2026-06-27T08:57:46Z</time>
      </trkpt>
      <trkpt lat="46.13063" lon="6.70856">
        <ele>1683.1</ele>
        <time>2026-06-27T08:57:47Z</time>
      </trkpt>
      <trkpt lat="46.13062" lon="6.70856">
        <ele>1683.1</ele>
        <time>2026-06-27T08:57:48Z</time>
      </trkpt>
      <trkpt lat="46.13062" lon="6.70856">
        <ele>1683.1</ele>
        <time>2026-06-27T08:57:49Z</time>
      </trkpt>
      <trkpt lat="46.13062" lon="6.70855">
        <ele>1683.1</ele>
        <time>2026-06-27T08:57:50Z</time>
      </trkpt>
      <trkpt lat="46.13062" lon="6.70855">
        <ele>1683.1</ele>
        <time>2026-06-27T08:57:51Z</time>
      </trkpt>
      <trkpt lat="46.13062" lon="6.70855">
        <ele>1683.1</ele>
        <time>2026-06-27T08:57:52Z</time>
      </trkpt>
      <trkpt lat="46.13062" lon="6.70855">
        <ele>1683.1</ele>
        <time>2026-06-27T08:57:53Z</time>
      </trkpt>
      <trkpt lat="46.13062" lon="6.70855">
        <ele>1683</ele>
        <time>2026-06-27T08:57:54Z</time>
      </trkpt>
      <trkpt lat="46.13062" lon="6.70855">
        <ele>1683</ele>
        <time>2026-06-27T08:57:55Z</time>
      </trkpt>
      <trkpt lat="46.13062" lon="6.70855">
        <ele>1683.1</ele>
        <time>2026-06-27T08:57:56Z</time>
      </trkpt>
      <trkpt lat="46.13062" lon="6.70855">
        <ele>1683.1</ele>
        <time>2026-06-27T08:57:57Z</time>
      </trkpt>
      <trkpt lat="46.13062" lon="6.70856">
        <ele>1682.9</ele>
        <time>2026-06-27T08:57:58Z</time>
      </trkpt>
      <trkpt lat="46.13062" lon="6.70856">
        <ele>1682.8</ele>
        <time>2026-06-27T08:57:59Z</time>
      </trkpt>
      <trkpt lat="46.13062" lon="6.70856">
        <ele>1682.8</ele>
        <time>2026-06-27T08:58:00Z</time>
      </trkpt>
      <trkpt lat="46.13062" lon="6.70856">
        <ele>1682.7</ele>
        <time>2026-06-27T08:58:01Z</time>
      </trkpt>
      <trkpt lat="46.13062" lon="6.70856">
        <ele>1682.7</ele>
        <time>2026-06-27T08:58:02Z</time>
      </trkpt>
      <trkpt lat="46.13062" lon="6.70856">
        <ele>1682.7</ele>
        <time>2026-06-27T08:58:03Z</time>
      </trkpt>
      <trkpt lat="46.13062" lon="6.70856">
        <ele>1682.7</ele>
        <time>2026-06-27T08:58:04Z</time>
      </trkpt>
      <trkpt lat="46.13062" lon="6.70856">
        <ele>1682.7</ele>
        <time>2026-06-27T08:58:05Z</time>
      </trkpt>
      <trkpt lat="46.13062" lon="6.70857">
        <ele>1682.6</ele>
        <time>2026-06-27T08:58:06Z</time>
      </trkpt>
      <trkpt lat="46.13062" lon="6.70857">
        <ele>1682.7</ele>
        <time>2026-06-27T08:58:07Z</time>
      </trkpt>
      <trkpt lat="46.13063" lon="6.70857">
        <ele>1682.7</ele>
        <time>2026-06-27T08:58:08Z</time>
      </trkpt>
      <trkpt lat="46.13063" lon="6.70857">
        <ele>1682.7</ele>
        <time>2026-06-27T08:58:09Z</time>
      </trkpt>
      <trkpt lat="46.13063" lon="6.70857">
        <ele>1682.7</ele>
        <time>2026-06-27T08:58:10Z</time>
      </trkpt>
      <trkpt lat="46.13063" lon="6.70857">
        <ele>1682.6</ele>
        <time>2026-06-27T08:58:11Z</time>
      </trkpt>
      <trkpt lat="46.13063" lon="6.70857">
        <ele>1682.6</ele>
        <time>2026-06-27T08:58:12Z</time>
      </trkpt>
      <trkpt lat="46.13063" lon="6.70857">
        <ele>1682.6</ele>
        <time>2026-06-27T08:58:13Z</time>
      </trkpt>
      <trkpt lat="46.13063" lon="6.70857">
        <ele>1682.6</ele>
        <time>2026-06-27T08:58:14Z</time>
      </trkpt>
      <trkpt lat="46.13063" lon="6.70857">
        <ele>1682.6</ele>
        <time>2026-06-27T08:58:15Z</time>
      </trkpt>
      <trkpt lat="46.13063" lon="6.70858">
        <ele>1682.7</ele>
        <time>2026-06-27T08:58:16Z</time>
      </trkpt>
      <trkpt lat="46.13063" lon="6.70858">
        <ele>1682.6</ele>
        <time>2026-06-27T08:58:17Z</time>
      </trkpt>
      <trkpt lat="46.13063" lon="6.70858">
        <ele>1682.6</ele>
        <time>2026-06-27T08:58:18Z</time>
      </trkpt>
      <trkpt lat="46.13063" lon="6.70858">
        <ele>1682.6</ele>
        <time>2026-06-27T08:58:19Z</time>
      </trkpt>
      <trkpt lat="46.13064" lon="6.70858">
        <ele>1682.7</ele>
        <time>2026-06-27T08:58:20Z</time>
      </trkpt>
      <trkpt lat="46.13064" lon="6.70858">
        <ele>1682.6</ele>
        <time>2026-06-27T08:58:21Z</time>
      </trkpt>
      <trkpt lat="46.13064" lon="6.70858">
        <ele>1682.8</ele>
        <time>2026-06-27T08:58:22Z</time>
      </trkpt>
      <trkpt lat="46.13064" lon="6.70858">
        <ele>1682.8</ele>
        <time>2026-06-27T08:58:23Z</time>
      </trkpt>
      <trkpt lat="46.13064" lon="6.70858">
        <ele>1682.8</ele>
        <time>2026-06-27T08:58:24Z</time>
      </trkpt>
      <trkpt lat="46.13064" lon="6.70858">
        <ele>1682.8</ele>
        <time>2026-06-27T08:58:25Z</time>
      </trkpt>
      <trkpt lat="46.13064" lon="6.70858">
        <ele>1682.8</ele>
        <time>2026-06-27T08:58:26Z</time>
      </trkpt>
      <trkpt lat="46.13064" lon="6.70858">
        <ele>1682.8</ele>
        <time>2026-06-27T08:58:27Z</time>
      </trkpt>
      <trkpt lat="46.13064" lon="6.70858">
        <ele>1682.8</ele>
        <time>2026-06-27T08:58:28Z</time>
      </trkpt>
      <trkpt lat="46.13064" lon="6.70858">
        <ele>1682.9</ele>
        <time>2026-06-27T08:58:29Z</time>
      </trkpt>
      <trkpt lat="46.13064" lon="6.70858">
        <ele>1682.9</ele>
        <time>2026-06-27T08:58:30Z</time>
      </trkpt>
      <trkpt lat="46.13064" lon="6.70859">
        <ele>1682.9</ele>
        <time>2026-06-27T08:58:31Z</time>
      </trkpt>
      <trkpt lat="46.13064" lon="6.70859">
        <ele>1682.9</ele>
        <time>2026-06-27T08:58:32Z</time>
      </trkpt>
      <trkpt lat="46.13064" lon="6.70859">
        <ele>1682.9</ele>
        <time>2026-06-27T08:58:33Z</time>
      </trkpt>
      <trkpt lat="46.13064" lon="6.70859">
        <ele>1682.8</ele>
        <time>2026-06-27T08:58:34Z</time>
      </trkpt>
      <trkpt lat="46.13064" lon="6.70859">
        <ele>1682.8</ele>
        <time>2026-06-27T08:58:35Z</time>
      </trkpt>
      <trkpt lat="46.13064" lon="6.70859">
        <ele>1682.8</ele>
        <time>2026-06-27T08:58:36Z</time>
      </trkpt>
      <trkpt lat="46.13064" lon="6.70859">
        <ele>1683</ele>
        <time>2026-06-27T08:58:37Z</time>
      </trkpt>
      <trkpt lat="46.13064" lon="6.70859">
        <ele>1683.1</ele>
        <time>2026-06-27T08:58:38Z</time>
      </trkpt>
      <trkpt lat="46.13064" lon="6.70859">
        <ele>1683.2</ele>
        <time>2026-06-27T08:58:39Z</time>
      </trkpt>
      <trkpt lat="46.13064" lon="6.70859">
        <ele>1683.2</ele>
        <time>2026-06-27T08:58:40Z</time>
      </trkpt>
      <trkpt lat="46.13065" lon="6.70859">
        <ele>1683.3</ele>
        <time>2026-06-27T08:58:41Z</time>
      </trkpt>
      <trkpt lat="46.13065" lon="6.70859">
        <ele>1683.3</ele>
        <time>2026-06-27T08:58:42Z</time>
      </trkpt>
      <trkpt lat="46.13065" lon="6.70858">
        <ele>1683.2</ele>
        <time>2026-06-27T08:58:43Z</time>
      </trkpt>
      <trkpt lat="46.13066" lon="6.70857">
        <ele>1683.2</ele>
        <time>2026-06-27T08:58:44Z</time>
      </trkpt>
      <trkpt lat="46.13066" lon="6.70856">
        <ele>1683.2</ele>
        <time>2026-06-27T08:58:45Z</time>
      </trkpt>
      <trkpt lat="46.13067" lon="6.70855">
        <ele>1683.1</ele>
        <time>2026-06-27T08:58:46Z</time>
      </trkpt>
      <trkpt lat="46.13068" lon="6.70854">
        <ele>1683.1</ele>
        <time>2026-06-27T08:58:47Z</time>
      </trkpt>
      <trkpt lat="46.13068" lon="6.70854">
        <ele>1683.3</ele>
        <time>2026-06-27T08:58:48Z</time>
      </trkpt>
      <trkpt lat="46.13069" lon="6.70853">
        <ele>1683.4</ele>
        <time>2026-06-27T08:58:49Z</time>
      </trkpt>
      <trkpt lat="46.13069" lon="6.70851">
        <ele>1683.4</ele>
        <time>2026-06-27T08:58:50Z</time>
      </trkpt>
      <trkpt lat="46.13069" lon="6.7085">
        <ele>1683.4</ele>
        <time>2026-06-27T08:58:51Z</time>
      </trkpt>
      <trkpt lat="46.13069" lon="6.70848">
        <ele>1683.5</ele>
        <time>2026-06-27T08:58:52Z</time>
      </trkpt>
      <trkpt lat="46.13068" lon="6.70847">
        <ele>1683.6</ele>
        <time>2026-06-27T08:58:53Z</time>
      </trkpt>
      <trkpt lat="46.13068" lon="6.70846">
        <ele>1683.7</ele>
        <time>2026-06-27T08:58:54Z</time>
      </trkpt>
      <trkpt lat="46.13068" lon="6.70844">
        <ele>1683.7</ele>
        <time>2026-06-27T08:58:55Z</time>
      </trkpt>
      <trkpt lat="46.13067" lon="6.70843">
        <ele>1683.7</ele>
        <time>2026-06-27T08:58:56Z</time>
      </trkpt>
      <trkpt lat="46.13067" lon="6.70842">
        <ele>1683.6</ele>
        <time>2026-06-27T08:58:57Z</time>
      </trkpt>
      <trkpt lat="46.13066" lon="6.7084">
        <ele>1683.5</ele>
        <time>2026-06-27T08:58:58Z</time>
      </trkpt>
      <trkpt lat="46.13066" lon="6.70839">
        <ele>1683.4</ele>
        <time>2026-06-27T08:58:59Z</time>
      </trkpt>
      <trkpt lat="46.13066" lon="6.70837">
        <ele>1683.3</ele>
        <time>2026-06-27T08:59:00Z</time>
      </trkpt>
      <trkpt lat="46.13065" lon="6.70836">
        <ele>1683.2</ele>
        <time>2026-06-27T08:59:01Z</time>
      </trkpt>
      <trkpt lat="46.13065" lon="6.70835">
        <ele>1683.1</ele>
        <time>2026-06-27T08:59:02Z</time>
      </trkpt>
      <trkpt lat="46.13064" lon="6.70833">
        <ele>1683.1</ele>
        <time>2026-06-27T08:59:03Z</time>
      </trkpt>
      <trkpt lat="46.13064" lon="6.70831">
        <ele>1683.1</ele>
        <time>2026-06-27T08:59:04Z</time>
      </trkpt>
      <trkpt lat="46.13064" lon="6.7083">
        <ele>1683.1</ele>
        <time>2026-06-27T08:59:05Z</time>
      </trkpt>
      <trkpt lat="46.13063" lon="6.70828">
        <ele>1683.1</ele>
        <time>2026-06-27T08:59:06Z</time>
      </trkpt>
      <trkpt lat="46.13063" lon="6.70826">
        <ele>1683.1</ele>
        <time>2026-06-27T08:59:07Z</time>
      </trkpt>
      <trkpt lat="46.13062" lon="6.70825">
        <ele>1683.1</ele>
        <time>2026-06-27T08:59:08Z</time>
      </trkpt>
      <trkpt lat="46.13062" lon="6.70823">
        <ele>1683</ele>
        <time>2026-06-27T08:59:09Z</time>
      </trkpt>
      <trkpt lat="46.13062" lon="6.70821">
        <ele>1683</ele>
        <time>2026-06-27T08:59:10Z</time>
      </trkpt>
      <trkpt lat="46.13061" lon="6.7082">
        <ele>1683</ele>
        <time>2026-06-27T08:59:11Z</time>
      </trkpt>
      <trkpt lat="46.13061" lon="6.70818">
        <ele>1683</ele>
        <time>2026-06-27T08:59:12Z</time>
      </trkpt>
      <trkpt lat="46.13061" lon="6.70816">
        <ele>1683</ele>
        <time>2026-06-27T08:59:13Z</time>
      </trkpt>
      <trkpt lat="46.1306" lon="6.70815">
        <ele>1683</ele>
        <time>2026-06-27T08:59:14Z</time>
      </trkpt>
      <trkpt lat="46.1306" lon="6.70813">
        <ele>1683</ele>
        <time>2026-06-27T08:59:15Z</time>
      </trkpt>
      <trkpt lat="46.13059" lon="6.70812">
        <ele>1683</ele>
        <time>2026-06-27T08:59:16Z</time>
      </trkpt>
      <trkpt lat="46.13059" lon="6.7081">
        <ele>1682.9</ele>
        <time>2026-06-27T08:59:17Z</time>
      </trkpt>
      <trkpt lat="46.13058" lon="6.70808">
        <ele>1682.9</ele>
        <time>2026-06-27T08:59:18Z</time>
      </trkpt>
      <trkpt lat="46.13058" lon="6.70807">
        <ele>1683</ele>
        <time>2026-06-27T08:59:19Z</time>
      </trkpt>
      <trkpt lat="46.13058" lon="6.70806">
        <ele>1683.1</ele>
        <time>2026-06-27T08:59:20Z</time>
      </trkpt>
      <trkpt lat="46.13058" lon="6.70804">
        <ele>1683.1</ele>
        <time>2026-06-27T08:59:21Z</time>
      </trkpt>
      <trkpt lat="46.13057" lon="6.70802">
        <ele>1683</ele>
        <time>2026-06-27T08:59:22Z</time>
      </trkpt>
      <trkpt lat="46.13057" lon="6.70801">
        <ele>1683.1</ele>
        <time>2026-06-27T08:59:23Z</time>
      </trkpt>
      <trkpt lat="46.13056" lon="6.70799">
        <ele>1683.1</ele>
        <time>2026-06-27T08:59:24Z</time>
      </trkpt>
      <trkpt lat="46.13056" lon="6.70797">
        <ele>1683.1</ele>
        <time>2026-06-27T08:59:25Z</time>
      </trkpt>
      <trkpt lat="46.13055" lon="6.70796">
        <ele>1683.1</ele>
        <time>2026-06-27T08:59:26Z</time>
      </trkpt>
      <trkpt lat="46.13055" lon="6.70794">
        <ele>1683.1</ele>
        <time>2026-06-27T08:59:27Z</time>
      </trkpt>
      <trkpt lat="46.13055" lon="6.70793">
        <ele>1683.1</ele>
        <time>2026-06-27T08:59:28Z</time>
      </trkpt>
      <trkpt lat="46.13054" lon="6.70792">
        <ele>1683.2</ele>
        <time>2026-06-27T08:59:29Z</time>
      </trkpt>
      <trkpt lat="46.13054" lon="6.7079">
        <ele>1683.2</ele>
        <time>2026-06-27T08:59:30Z</time>
      </trkpt>
      <trkpt lat="46.13054" lon="6.70789">
        <ele>1683.2</ele>
        <time>2026-06-27T08:59:31Z</time>
      </trkpt>
      <trkpt lat="46.13054" lon="6.70787">
        <ele>1683.2</ele>
        <time>2026-06-27T08:59:32Z</time>
      </trkpt>
      <trkpt lat="46.13053" lon="6.70785">
        <ele>1683.1</ele>
        <time>2026-06-27T08:59:33Z</time>
      </trkpt>
      <trkpt lat="46.13053" lon="6.70784">
        <ele>1683.1</ele>
        <time>2026-06-27T08:59:34Z</time>
      </trkpt>
      <trkpt lat="46.13053" lon="6.70783">
        <ele>1683.1</ele>
        <time>2026-06-27T08:59:35Z</time>
      </trkpt>
      <trkpt lat="46.13052" lon="6.70782">
        <ele>1683.2</ele>
        <time>2026-06-27T08:59:36Z</time>
      </trkpt>
      <trkpt lat="46.13052" lon="6.70781">
        <ele>1683.1</ele>
        <time>2026-06-27T08:59:37Z</time>
      </trkpt>
      <trkpt lat="46.13051" lon="6.7078">
        <ele>1683.1</ele>
        <time>2026-06-27T08:59:38Z</time>
      </trkpt>
      <trkpt lat="46.1305" lon="6.70779">
        <ele>1683</ele>
        <time>2026-06-27T08:59:39Z</time>
      </trkpt>
      <trkpt lat="46.13048" lon="6.70778">
        <ele>1682.9</ele>
        <time>2026-06-27T08:59:40Z</time>
      </trkpt>
      <trkpt lat="46.13047" lon="6.70778">
        <ele>1683</ele>
        <time>2026-06-27T08:59:41Z</time>
      </trkpt>
      <trkpt lat="46.13046" lon="6.70778">
        <ele>1683.1</ele>
        <time>2026-06-27T08:59:42Z</time>
      </trkpt>
      <trkpt lat="46.13045" lon="6.70779">
        <ele>1683.1</ele>
        <time>2026-06-27T08:59:43Z</time>
      </trkpt>
      <trkpt lat="46.13045" lon="6.7078">
        <ele>1683.1</ele>
        <time>2026-06-27T08:59:44Z</time>
      </trkpt>
      <trkpt lat="46.13044" lon="6.70781">
        <ele>1683.3</ele>
        <time>2026-06-27T08:59:45Z</time>
      </trkpt>
      <trkpt lat="46.13044" lon="6.70783">
        <ele>1683.4</ele>
        <time>2026-06-27T08:59:46Z</time>
      </trkpt>
      <trkpt lat="46.13043" lon="6.70784">
        <ele>1683.5</ele>
        <time>2026-06-27T08:59:47Z</time>
      </trkpt>
      <trkpt lat="46.13042" lon="6.70786">
        <ele>1683.5</ele>
        <time>2026-06-27T08:59:48Z</time>
      </trkpt>
      <trkpt lat="46.13041" lon="6.70787">
        <ele>1683.6</ele>
        <time>2026-06-27T08:59:49Z</time>
      </trkpt>
      <trkpt lat="46.13041" lon="6.70788">
        <ele>1683.7</ele>
        <time>2026-06-27T08:59:50Z</time>
      </trkpt>
      <trkpt lat="46.1304" lon="6.7079">
        <ele>1683.7</ele>
        <time>2026-06-27T08:59:51Z</time>
      </trkpt>
      <trkpt lat="46.1304" lon="6.70791">
        <ele>1683.7</ele>
        <time>2026-06-27T08:59:52Z</time>
      </trkpt>
      <trkpt lat="46.13039" lon="6.70792">
        <ele>1683.7</ele>
        <time>2026-06-27T08:59:53Z</time>
      </trkpt>
      <trkpt lat="46.13038" lon="6.70793">
        <ele>1683.6</ele>
        <time>2026-06-27T08:59:54Z</time>
      </trkpt>
      <trkpt lat="46.13036" lon="6.70794">
        <ele>1683.7</ele>
        <time>2026-06-27T08:59:55Z</time>
      </trkpt>
      <trkpt lat="46.13036" lon="6.70795">
        <ele>1683.8</ele>
        <time>2026-06-27T08:59:56Z</time>
      </trkpt>
      <trkpt lat="46.13035" lon="6.70797">
        <ele>1683.8</ele>
        <time>2026-06-27T08:59:57Z</time>
      </trkpt>
      <trkpt lat="46.13034" lon="6.70798">
        <ele>1683.7</ele>
        <time>2026-06-27T08:59:58Z</time>
      </trkpt>
      <trkpt lat="46.13032" lon="6.70799">
        <ele>1683.7</ele>
        <time>2026-06-27T08:59:59Z</time>
      </trkpt>
      <trkpt lat="46.13031" lon="6.708">
        <ele>1683.7</ele>
        <time>2026-06-27T09:00:00Z</time>
      </trkpt>
      <trkpt lat="46.13031" lon="6.70801">
        <ele>1683.7</ele>
        <time>2026-06-27T09:00:01Z</time>
      </trkpt>
      <trkpt lat="46.1303" lon="6.70802">
        <ele>1683.7</ele>
        <time>2026-06-27T09:00:02Z</time>
      </trkpt>
      <trkpt lat="46.13029" lon="6.70802">
        <ele>1683.8</ele>
        <time>2026-06-27T09:00:03Z</time>
      </trkpt>
      <trkpt lat="46.13028" lon="6.70803">
        <ele>1683.8</ele>
        <time>2026-06-27T09:00:04Z</time>
      </trkpt>
      <trkpt lat="46.13027" lon="6.70805">
        <ele>1683.8</ele>
        <time>2026-06-27T09:00:05Z</time>
      </trkpt>
      <trkpt lat="46.13026" lon="6.70806">
        <ele>1683.7</ele>
        <time>2026-06-27T09:00:06Z</time>
      </trkpt>
      <trkpt lat="46.13025" lon="6.70808">
        <ele>1683.7</ele>
        <time>2026-06-27T09:00:07Z</time>
      </trkpt>
      <trkpt lat="46.13024" lon="6.7081">
        <ele>1683.7</ele>
        <time>2026-06-27T09:00:08Z</time>
      </trkpt>
      <trkpt lat="46.13023" lon="6.70811">
        <ele>1683.8</ele>
        <time>2026-06-27T09:00:09Z</time>
      </trkpt>
      <trkpt lat="46.13022" lon="6.70812">
        <ele>1683.7</ele>
        <time>2026-06-27T09:00:10Z</time>
      </trkpt>
      <trkpt lat="46.13021" lon="6.70814">
        <ele>1683.7</ele>
        <time>2026-06-27T09:00:11Z</time>
      </trkpt>
      <trkpt lat="46.1302" lon="6.70815">
        <ele>1683.8</ele>
        <time>2026-06-27T09:00:12Z</time>
      </trkpt>
      <trkpt lat="46.13019" lon="6.70816">
        <ele>1683.8</ele>
        <time>2026-06-27T09:00:13Z</time>
      </trkpt>
      <trkpt lat="46.13019" lon="6.70817">
        <ele>1684</ele>
        <time>2026-06-27T09:00:14Z</time>
      </trkpt>
      <trkpt lat="46.13018" lon="6.70818">
        <ele>1683.9</ele>
        <time>2026-06-27T09:00:15Z</time>
      </trkpt>
      <trkpt lat="46.13017" lon="6.70819">
        <ele>1683.9</ele>
        <time>2026-06-27T09:00:16Z</time>
      </trkpt>
      <trkpt lat="46.13016" lon="6.7082">
        <ele>1683.9</ele>
        <time>2026-06-27T09:00:17Z</time>
      </trkpt>
      <trkpt lat="46.13015" lon="6.70821">
        <ele>1683.9</ele>
        <time>2026-06-27T09:00:18Z</time>
      </trkpt>
      <trkpt lat="46.13013" lon="6.70821">
        <ele>1684.1</ele>
        <time>2026-06-27T09:00:19Z</time>
      </trkpt>
      <trkpt lat="46.13012" lon="6.70822">
        <ele>1684.2</ele>
        <time>2026-06-27T09:00:20Z</time>
      </trkpt>
      <trkpt lat="46.13011" lon="6.70823">
        <ele>1684.3</ele>
        <time>2026-06-27T09:00:21Z</time>
      </trkpt>
      <trkpt lat="46.1301" lon="6.70824">
        <ele>1684.3</ele>
        <time>2026-06-27T09:00:22Z</time>
      </trkpt>
      <trkpt lat="46.13009" lon="6.70825">
        <ele>1684.3</ele>
        <time>2026-06-27T09:00:23Z</time>
      </trkpt>
      <trkpt lat="46.13008" lon="6.70826">
        <ele>1684.3</ele>
        <time>2026-06-27T09:00:24Z</time>
      </trkpt>
      <trkpt lat="46.13007" lon="6.70827">
        <ele>1684.2</ele>
        <time>2026-06-27T09:00:25Z</time>
      </trkpt>
      <trkpt lat="46.13006" lon="6.70828">
        <ele>1684.1</ele>
        <time>2026-06-27T09:00:26Z</time>
      </trkpt>
      <trkpt lat="46.13005" lon="6.70829">
        <ele>1684.1</ele>
        <time>2026-06-27T09:00:27Z</time>
      </trkpt>
      <trkpt lat="46.13004" lon="6.7083">
        <ele>1684.2</ele>
        <time>2026-06-27T09:00:28Z</time>
      </trkpt>
      <trkpt lat="46.13003" lon="6.70831">
        <ele>1684.1</ele>
        <time>2026-06-27T09:00:29Z</time>
      </trkpt>
      <trkpt lat="46.13002" lon="6.70832">
        <ele>1684</ele>
        <time>2026-06-27T09:00:30Z</time>
      </trkpt>
      <trkpt lat="46.13002" lon="6.70833">
        <ele>1684</ele>
        <time>2026-06-27T09:00:31Z</time>
      </trkpt>
      <trkpt lat="46.13" lon="6.70834">
        <ele>1683.9</ele>
        <time>2026-06-27T09:00:32Z</time>
      </trkpt>
      <trkpt lat="46.12999" lon="6.70835">
        <ele>1684</ele>
        <time>2026-06-27T09:00:33Z</time>
      </trkpt>
      <trkpt lat="46.12998" lon="6.70835">
        <ele>1684.1</ele>
        <time>2026-06-27T09:00:34Z</time>
      </trkpt>
      <trkpt lat="46.12997" lon="6.70836">
        <ele>1684.1</ele>
        <time>2026-06-27T09:00:35Z</time>
      </trkpt>
      <trkpt lat="46.12996" lon="6.70836">
        <ele>1684.1</ele>
        <time>2026-06-27T09:00:36Z</time>
      </trkpt>
      <trkpt lat="46.12995" lon="6.70837">
        <ele>1684.1</ele>
        <time>2026-06-27T09:00:37Z</time>
      </trkpt>
      <trkpt lat="46.12995" lon="6.70838">
        <ele>1684.1</ele>
        <time>2026-06-27T09:00:38Z</time>
      </trkpt>
      <trkpt lat="46.12994" lon="6.70839">
        <ele>1684.1</ele>
        <time>2026-06-27T09:00:39Z</time>
      </trkpt>
      <trkpt lat="46.12993" lon="6.70839">
        <ele>1684.2</ele>
        <time>2026-06-27T09:00:40Z</time>
      </trkpt>
      <trkpt lat="46.12992" lon="6.7084">
        <ele>1684.2</ele>
        <time>2026-06-27T09:00:41Z</time>
      </trkpt>
      <trkpt lat="46.12991" lon="6.7084">
        <ele>1684.2</ele>
        <time>2026-06-27T09:00:42Z</time>
      </trkpt>
      <trkpt lat="46.12991" lon="6.70841">
        <ele>1684.1</ele>
        <time>2026-06-27T09:00:43Z</time>
      </trkpt>
      <trkpt lat="46.12991" lon="6.70841">
        <ele>1684.1</ele>
        <time>2026-06-27T09:00:44Z</time>
      </trkpt>
      <trkpt lat="46.12991" lon="6.70841">
        <ele>1684</ele>
        <time>2026-06-27T09:00:45Z</time>
      </trkpt>
      <trkpt lat="46.12991" lon="6.70842">
        <ele>1684</ele>
        <time>2026-06-27T09:00:46Z</time>
      </trkpt>
      <trkpt lat="46.1299" lon="6.70843">
        <ele>1684</ele>
        <time>2026-06-27T09:00:47Z</time>
      </trkpt>
      <trkpt lat="46.12989" lon="6.70844">
        <ele>1683.9</ele>
        <time>2026-06-27T09:00:48Z</time>
      </trkpt>
      <trkpt lat="46.12989" lon="6.70845">
        <ele>1684</ele>
        <time>2026-06-27T09:00:49Z</time>
      </trkpt>
      <trkpt lat="46.12988" lon="6.70846">
        <ele>1684</ele>
        <time>2026-06-27T09:00:50Z</time>
      </trkpt>
      <trkpt lat="46.12988" lon="6.70848">
        <ele>1683.9</ele>
        <time>2026-06-27T09:00:51Z</time>
      </trkpt>
      <trkpt lat="46.12987" lon="6.70849">
        <ele>1683.9</ele>
        <time>2026-06-27T09:00:52Z</time>
      </trkpt>
      <trkpt lat="46.12986" lon="6.7085">
        <ele>1683.8</ele>
        <time>2026-06-27T09:00:53Z</time>
      </trkpt>
      <trkpt lat="46.12986" lon="6.70852">
        <ele>1683.6</ele>
        <time>2026-06-27T09:00:54Z</time>
      </trkpt>
      <trkpt lat="46.12985" lon="6.70853">
        <ele>1683.6</ele>
        <time>2026-06-27T09:00:55Z</time>
      </trkpt>
      <trkpt lat="46.12985" lon="6.70854">
        <ele>1683.5</ele>
        <time>2026-06-27T09:00:56Z</time>
      </trkpt>
      <trkpt lat="46.12984" lon="6.70855">
        <ele>1683.4</ele>
        <time>2026-06-27T09:00:57Z</time>
      </trkpt>
      <trkpt lat="46.12983" lon="6.70857">
        <ele>1683.3</ele>
        <time>2026-06-27T09:00:58Z</time>
      </trkpt>
      <trkpt lat="46.12982" lon="6.70858">
        <ele>1683.4</ele>
        <time>2026-06-27T09:00:59Z</time>
      </trkpt>
      <trkpt lat="46.12982" lon="6.70859">
        <ele>1683.4</ele>
        <time>2026-06-27T09:01:00Z</time>
      </trkpt>
      <trkpt lat="46.12981" lon="6.70861">
        <ele>1683.4</ele>
        <time>2026-06-27T09:01:01Z</time>
      </trkpt>
      <trkpt lat="46.12981" lon="6.70862">
        <ele>1683.3</ele>
        <time>2026-06-27T09:01:02Z</time>
      </trkpt>
      <trkpt lat="46.12981" lon="6.70864">
        <ele>1683.2</ele>
        <time>2026-06-27T09:01:03Z</time>
      </trkpt>
      <trkpt lat="46.1298" lon="6.70865">
        <ele>1683.3</ele>
        <time>2026-06-27T09:01:04Z</time>
      </trkpt>
      <trkpt lat="46.1298" lon="6.70866">
        <ele>1683.4</ele>
        <time>2026-06-27T09:01:05Z</time>
      </trkpt>
      <trkpt lat="46.12979" lon="6.70868">
        <ele>1683.3</ele>
        <time>2026-06-27T09:01:06Z</time>
      </trkpt>
      <trkpt lat="46.12979" lon="6.70869">
        <ele>1683.3</ele>
        <time>2026-06-27T09:01:07Z</time>
      </trkpt>
      <trkpt lat="46.12979" lon="6.7087">
        <ele>1683.3</ele>
        <time>2026-06-27T09:01:08Z</time>
      </trkpt>
      <trkpt lat="46.12978" lon="6.70872">
        <ele>1683.3</ele>
        <time>2026-06-27T09:01:09Z</time>
      </trkpt>
      <trkpt lat="46.12978" lon="6.70873">
        <ele>1683.2</ele>
        <time>2026-06-27T09:01:10Z</time>
      </trkpt>
      <trkpt lat="46.12978" lon="6.70875">
        <ele>1683.2</ele>
        <time>2026-06-27T09:01:11Z</time>
      </trkpt>
      <trkpt lat="46.12977" lon="6.70876">
        <ele>1683.2</ele>
        <time>2026-06-27T09:01:12Z</time>
      </trkpt>
      <trkpt lat="46.12977" lon="6.70878">
        <ele>1683.2</ele>
        <time>2026-06-27T09:01:13Z</time>
      </trkpt>
      <trkpt lat="46.12977" lon="6.70879">
        <ele>1683.2</ele>
        <time>2026-06-27T09:01:14Z</time>
      </trkpt>
      <trkpt lat="46.12976" lon="6.70881">
        <ele>1683.2</ele>
        <time>2026-06-27T09:01:15Z</time>
      </trkpt>
      <trkpt lat="46.12976" lon="6.70882">
        <ele>1683.2</ele>
        <time>2026-06-27T09:01:16Z</time>
      </trkpt>
      <trkpt lat="46.12976" lon="6.70884">
        <ele>1683.2</ele>
        <time>2026-06-27T09:01:17Z</time>
      </trkpt>
      <trkpt lat="46.12976" lon="6.70885">
        <ele>1683.3</ele>
        <time>2026-06-27T09:01:18Z</time>
      </trkpt>
      <trkpt lat="46.12976" lon="6.70887">
        <ele>1683.3</ele>
        <time>2026-06-27T09:01:19Z</time>
      </trkpt>
      <trkpt lat="46.12976" lon="6.70888">
        <ele>1683.4</ele>
        <time>2026-06-27T09:01:20Z</time>
      </trkpt>
      <trkpt lat="46.12976" lon="6.7089">
        <ele>1683.4</ele>
        <time>2026-06-27T09:01:21Z</time>
      </trkpt>
      <trkpt lat="46.12976" lon="6.70891">
        <ele>1683.6</ele>
        <time>2026-06-27T09:01:22Z</time>
      </trkpt>
      <trkpt lat="46.12976" lon="6.70893">
        <ele>1683.6</ele>
        <time>2026-06-27T09:01:23Z</time>
      </trkpt>
      <trkpt lat="46.12976" lon="6.70894">
        <ele>1683.6</ele>
        <time>2026-06-27T09:01:24Z</time>
      </trkpt>
      <trkpt lat="46.12976" lon="6.70895">
        <ele>1683.6</ele>
        <time>2026-06-27T09:01:25Z</time>
      </trkpt>
      <trkpt lat="46.12977" lon="6.70895">
        <ele>1683.6</ele>
        <time>2026-06-27T09:01:26Z</time>
      </trkpt>
      <trkpt lat="46.12977" lon="6.70896">
        <ele>1683.6</ele>
        <time>2026-06-27T09:01:27Z</time>
      </trkpt>
      <trkpt lat="46.12977" lon="6.70896">
        <ele>1683.6</ele>
        <time>2026-06-27T09:01:28Z</time>
      </trkpt>
      <trkpt lat="46.12977" lon="6.70896">
        <ele>1683.6</ele>
        <time>2026-06-27T09:01:29Z</time>
      </trkpt>
      <trkpt lat="46.12976" lon="6.70896">
        <ele>1683.5</ele>
        <time>2026-06-27T09:01:30Z</time>
      </trkpt>
      <trkpt lat="46.12976" lon="6.70897">
        <ele>1683.5</ele>
        <time>2026-06-27T09:01:31Z</time>
      </trkpt>
      <trkpt lat="46.12976" lon="6.70897">
        <ele>1683.5</ele>
        <time>2026-06-27T09:01:32Z</time>
      </trkpt>
      <trkpt lat="46.12976" lon="6.70898">
        <ele>1683.5</ele>
        <time>2026-06-27T09:01:33Z</time>
      </trkpt>
      <trkpt lat="46.12977" lon="6.709">
        <ele>1683.6</ele>
        <time>2026-06-27T09:01:34Z</time>
      </trkpt>
      <trkpt lat="46.12977" lon="6.70901">
        <ele>1683.6</ele>
        <time>2026-06-27T09:01:35Z</time>
      </trkpt>
      <trkpt lat="46.12977" lon="6.70901">
        <ele>1683.6</ele>
        <time>2026-06-27T09:01:36Z</time>
      </trkpt>
      <trkpt lat="46.12978" lon="6.70902">
        <ele>1683.6</ele>
        <time>2026-06-27T09:01:37Z</time>
      </trkpt>
      <trkpt lat="46.12978" lon="6.70902">
        <ele>1683.5</ele>
        <time>2026-06-27T09:01:38Z</time>
      </trkpt>
      <trkpt lat="46.12978" lon="6.70902">
        <ele>1683.5</ele>
        <time>2026-06-27T09:01:39Z</time>
      </trkpt>
      <trkpt lat="46.12977" lon="6.70902">
        <ele>1683.4</ele>
        <time>2026-06-27T09:01:40Z</time>
      </trkpt>
      <trkpt lat="46.12977" lon="6.70902">
        <ele>1683.4</ele>
        <time>2026-06-27T09:01:41Z</time>
      </trkpt>
      <trkpt lat="46.12977" lon="6.70902">
        <ele>1683.4</ele>
        <time>2026-06-27T09:01:42Z</time>
      </trkpt>
      <trkpt lat="46.12977" lon="6.70902">
        <ele>1683.4</ele>
        <time>2026-06-27T09:01:43Z</time>
      </trkpt>
      <trkpt lat="46.12977" lon="6.70902">
        <ele>1683.4</ele>
        <time>2026-06-27T09:01:44Z</time>
      </trkpt>
      <trkpt lat="46.12977" lon="6.70903">
        <ele>1683.3</ele>
        <time>2026-06-27T09:01:45Z</time>
      </trkpt>
      <trkpt lat="46.12977" lon="6.70903">
        <ele>1683.3</ele>
        <time>2026-06-27T09:01:46Z</time>
      </trkpt>
      <trkpt lat="46.12978" lon="6.70903">
        <ele>1683.3</ele>
        <time>2026-06-27T09:01:47Z</time>
      </trkpt>
      <trkpt lat="46.12977" lon="6.70903">
        <ele>1683.2</ele>
        <time>2026-06-27T09:01:48Z</time>
      </trkpt>
      <trkpt lat="46.12977" lon="6.70903">
        <ele>1683.2</ele>
        <time>2026-06-27T09:01:49Z</time>
      </trkpt>
      <trkpt lat="46.12977" lon="6.70903">
        <ele>1683.2</ele>
        <time>2026-06-27T09:01:50Z</time>
      </trkpt>
      <trkpt lat="46.12977" lon="6.70903">
        <ele>1683.3</ele>
        <time>2026-06-27T09:01:51Z</time>
      </trkpt>
      <trkpt lat="46.12977" lon="6.70903">
        <ele>1683.5</ele>
        <time>2026-06-27T09:01:52Z</time>
      </trkpt>
      <trkpt lat="46.12977" lon="6.70903">
        <ele>1683.5</ele>
        <time>2026-06-27T09:01:53Z</time>
      </trkpt>
      <trkpt lat="46.12977" lon="6.70903">
        <ele>1683.6</ele>
        <time>2026-06-27T09:01:54Z</time>
      </trkpt>
      <trkpt lat="46.12977" lon="6.70903">
        <ele>1683.7</ele>
        <time>2026-06-27T09:01:55Z</time>
      </trkpt>
      <trkpt lat="46.12978" lon="6.70903">
        <ele>1683.7</ele>
        <time>2026-06-27T09:01:56Z</time>
      </trkpt>
      <trkpt lat="46.12978" lon="6.70903">
        <ele>1683.8</ele>
        <time>2026-06-27T09:01:57Z</time>
      </trkpt>
      <trkpt lat="46.12978" lon="6.70903">
        <ele>1683.7</ele>
        <time>2026-06-27T09:01:58Z</time>
      </trkpt>
      <trkpt lat="46.12978" lon="6.70903">
        <ele>1683.8</ele>
        <time>2026-06-27T09:01:59Z</time>
      </trkpt>
      <trkpt lat="46.12978" lon="6.70903">
        <ele>1683.7</ele>
        <time>2026-06-27T09:02:00Z</time>
      </trkpt>
      <trkpt lat="46.12978" lon="6.70903">
        <ele>1683.8</ele>
        <time>2026-06-27T09:02:01Z</time>
      </trkpt>
      <trkpt lat="46.12978" lon="6.70904">
        <ele>1683.9</ele>
        <time>2026-06-27T09:02:02Z</time>
      </trkpt>
      <trkpt lat="46.12978" lon="6.70905">
        <ele>1684</ele>
        <time>2026-06-27T09:02:03Z</time>
      </trkpt>
      <trkpt lat="46.12977" lon="6.70906">
        <ele>1683.9</ele>
        <time>2026-06-27T09:02:04Z</time>
      </trkpt>
      <trkpt lat="46.12977" lon="6.70907">
        <ele>1684</ele>
        <time>2026-06-27T09:02:05Z</time>
      </trkpt>
      <trkpt lat="46.12978" lon="6.70908">
        <ele>1684</ele>
        <time>2026-06-27T09:02:06Z</time>
      </trkpt>
      <trkpt lat="46.12978" lon="6.70909">
        <ele>1683.9</ele>
        <time>2026-06-27T09:02:07Z</time>
      </trkpt>
      <trkpt lat="46.12978" lon="6.7091">
        <ele>1683.9</ele>
        <time>2026-06-27T09:02:08Z</time>
      </trkpt>
      <trkpt lat="46.12979" lon="6.70911">
        <ele>1683.9</ele>
        <time>2026-06-27T09:02:09Z</time>
      </trkpt>
      <trkpt lat="46.12979" lon="6.70911">
        <ele>1683.9</ele>
        <time>2026-06-27T09:02:10Z</time>
      </trkpt>
      <trkpt lat="46.12979" lon="6.70911">
        <ele>1683.9</ele>
        <time>2026-06-27T09:02:11Z</time>
      </trkpt>
      <trkpt lat="46.12979" lon="6.70911">
        <ele>1684</ele>
        <time>2026-06-27T09:02:12Z</time>
      </trkpt>
      <trkpt lat="46.12979" lon="6.70911">
        <ele>1684.1</ele>
        <time>2026-06-27T09:02:13Z</time>
      </trkpt>
      <trkpt lat="46.1298" lon="6.70911">
        <ele>1684.1</ele>
        <time>2026-06-27T09:02:14Z</time>
      </trkpt>
      <trkpt lat="46.1298" lon="6.70911">
        <ele>1684.1</ele>
        <time>2026-06-27T09:02:15Z</time>
      </trkpt>
      <trkpt lat="46.1298" lon="6.70911">
        <ele>1684.1</ele>
        <time>2026-06-27T09:02:16Z</time>
      </trkpt>
      <trkpt lat="46.1298" lon="6.70911">
        <ele>1684.1</ele>
        <time>2026-06-27T09:02:17Z</time>
      </trkpt>
      <trkpt lat="46.1298" lon="6.70911">
        <ele>1684.1</ele>
        <time>2026-06-27T09:02:18Z</time>
      </trkpt>
      <trkpt lat="46.12981" lon="6.70911">
        <ele>1684.1</ele>
        <time>2026-06-27T09:02:19Z</time>
      </trkpt>
      <trkpt lat="46.12981" lon="6.70911">
        <ele>1684.1</ele>
        <time>2026-06-27T09:02:20Z</time>
      </trkpt>
      <trkpt lat="46.12981" lon="6.70911">
        <ele>1684.2</ele>
        <time>2026-06-27T09:02:21Z</time>
      </trkpt>
      <trkpt lat="46.1298" lon="6.70911">
        <ele>1684.2</ele>
        <time>2026-06-27T09:02:22Z</time>
      </trkpt>
      <trkpt lat="46.1298" lon="6.70911">
        <ele>1684.2</ele>
        <time>2026-06-27T09:02:23Z</time>
      </trkpt>
      <trkpt lat="46.1298" lon="6.70911">
        <ele>1684.2</ele>
        <time>2026-06-27T09:02:24Z</time>
      </trkpt>
      <trkpt lat="46.1298" lon="6.70911">
        <ele>1684.2</ele>
        <time>2026-06-27T09:02:25Z</time>
      </trkpt>
      <trkpt lat="46.12981" lon="6.70911">
        <ele>1684.3</ele>
        <time>2026-06-27T09:02:26Z</time>
      </trkpt>
      <trkpt lat="46.12981" lon="6.70911">
        <ele>1684.2</ele>
        <time>2026-06-27T09:02:27Z</time>
      </trkpt>
      <trkpt lat="46.12981" lon="6.70911">
        <ele>1684.1</ele>
        <time>2026-06-27T09:02:28Z</time>
      </trkpt>
      <trkpt lat="46.12981" lon="6.70912">
        <ele>1684.1</ele>
        <time>2026-06-27T09:02:29Z</time>
      </trkpt>
      <trkpt lat="46.12981" lon="6.70911">
        <ele>1684.1</ele>
        <time>2026-06-27T09:02:30Z</time>
      </trkpt>
      <trkpt lat="46.12981" lon="6.70911">
        <ele>1684.2</ele>
        <time>2026-06-27T09:02:31Z</time>
      </trkpt>
      <trkpt lat="46.1298" lon="6.70911">
        <ele>1684.1</ele>
        <time>2026-06-27T09:02:32Z</time>
      </trkpt>
      <trkpt lat="46.12981" lon="6.70911">
        <ele>1684</ele>
        <time>2026-06-27T09:02:33Z</time>
      </trkpt>
      <trkpt lat="46.1298" lon="6.70911">
        <ele>1683.9</ele>
        <time>2026-06-27T09:02:34Z</time>
      </trkpt>
      <trkpt lat="46.12981" lon="6.70911">
        <ele>1683.8</ele>
        <time>2026-06-27T09:02:35Z</time>
      </trkpt>
      <trkpt lat="46.12981" lon="6.70911">
        <ele>1683.8</ele>
        <time>2026-06-27T09:02:36Z</time>
      </trkpt>
      <trkpt lat="46.12981" lon="6.70911">
        <ele>1683.7</ele>
        <time>2026-06-27T09:02:37Z</time>
      </trkpt>
      <trkpt lat="46.12981" lon="6.70911">
        <ele>1683.6</ele>
        <time>2026-06-27T09:02:38Z</time>
      </trkpt>
      <trkpt lat="46.12981" lon="6.70911">
        <ele>1683.6</ele>
        <time>2026-06-27T09:02:39Z</time>
      </trkpt>
      <trkpt lat="46.12981" lon="6.70911">
        <ele>1683.5</ele>
        <time>2026-06-27T09:02:40Z</time>
      </trkpt>
      <trkpt lat="46.12981" lon="6.70912">
        <ele>1683.5</ele>
        <time>2026-06-27T09:02:41Z</time>
      </trkpt>
      <trkpt lat="46.12981" lon="6.70912">
        <ele>1683.4</ele>
        <time>2026-06-27T09:02:42Z</time>
      </trkpt>
      <trkpt lat="46.12981" lon="6.70912">
        <ele>1683.3</ele>
        <time>2026-06-27T09:02:43Z</time>
      </trkpt>
      <trkpt lat="46.12981" lon="6.70912">
        <ele>1683.3</ele>
        <time>2026-06-27T09:02:44Z</time>
      </trkpt>
      <trkpt lat="46.12981" lon="6.70912">
        <ele>1683.3</ele>
        <time>2026-06-27T09:02:45Z</time>
      </trkpt>
      <trkpt lat="46.12981" lon="6.70912">
        <ele>1683.3</ele>
        <time>2026-06-27T09:02:46Z</time>
      </trkpt>
      <trkpt lat="46.12981" lon="6.70912">
        <ele>1683.2</ele>
        <time>2026-06-27T09:02:47Z</time>
      </trkpt>
      <trkpt lat="46.12981" lon="6.70912">
        <ele>1683.2</ele>
        <time>2026-06-27T09:02:48Z</time>
      </trkpt>
      <trkpt lat="46.12981" lon="6.70912">
        <ele>1683.1</ele>
        <time>2026-06-27T09:02:49Z</time>
      </trkpt>
      <trkpt lat="46.12981" lon="6.70912">
        <ele>1683.1</ele>
        <time>2026-06-27T09:02:50Z</time>
      </trkpt>
      <trkpt lat="46.12981" lon="6.70912">
        <ele>1683</ele>
        <time>2026-06-27T09:02:51Z</time>
      </trkpt>
      <trkpt lat="46.12981" lon="6.70912">
        <ele>1683</ele>
        <time>2026-06-27T09:02:52Z</time>
      </trkpt>
      <trkpt lat="46.12981" lon="6.70912">
        <ele>1683</ele>
        <time>2026-06-27T09:02:53Z</time>
      </trkpt>
      <trkpt lat="46.12981" lon="6.70912">
        <ele>1683</ele>
        <time>2026-06-27T09:02:54Z</time>
      </trkpt>
      <trkpt lat="46.12981" lon="6.70912">
        <ele>1683</ele>
        <time>2026-06-27T09:02:55Z</time>
      </trkpt>
      <trkpt lat="46.12981" lon="6.70912">
        <ele>1683.1</ele>
        <time>2026-06-27T09:02:56Z</time>
      </trkpt>
      <trkpt lat="46.12981" lon="6.70912">
        <ele>1683.1</ele>
        <time>2026-06-27T09:02:57Z</time>
      </trkpt>
      <trkpt lat="46.12981" lon="6.70912">
        <ele>1683.1</ele>
        <time>2026-06-27T09:02:58Z</time>
      </trkpt>
      <trkpt lat="46.12981" lon="6.70912">
        <ele>1683.1</ele>
        <time>2026-06-27T09:02:59Z</time>
      </trkpt>
      <trkpt lat="46.12981" lon="6.70912">
        <ele>1683.1</ele>
        <time>2026-06-27T09:03:00Z</time>
      </trkpt>
      <trkpt lat="46.12982" lon="6.70912">
        <ele>1683.1</ele>
        <time>2026-06-27T09:03:01Z</time>
      </trkpt>
      <trkpt lat="46.12982" lon="6.70912">
        <ele>1683.1</ele>
        <time>2026-06-27T09:03:02Z</time>
      </trkpt>
      <trkpt lat="46.12982" lon="6.70912">
        <ele>1683.2</ele>
        <time>2026-06-27T09:03:03Z</time>
      </trkpt>
      <trkpt lat="46.12982" lon="6.70912">
        <ele>1683.2</ele>
        <time>2026-06-27T09:03:04Z</time>
      </trkpt>
      <trkpt lat="46.12982" lon="6.70912">
        <ele>1683.2</ele>
        <time>2026-06-27T09:03:05Z</time>
      </trkpt>
      <trkpt lat="46.12982" lon="6.70912">
        <ele>1683.2</ele>
        <time>2026-06-27T09:03:06Z</time>
      </trkpt>
      <trkpt lat="46.12982" lon="6.70912">
        <ele>1683.3</ele>
        <time>2026-06-27T09:03:07Z</time>
      </trkpt>
      <trkpt lat="46.12981" lon="6.70912">
        <ele>1683.3</ele>
        <time>2026-06-27T09:03:08Z</time>
      </trkpt>
      <trkpt lat="46.12981" lon="6.70912">
        <ele>1683.2</ele>
        <time>2026-06-27T09:03:09Z</time>
      </trkpt>
      <trkpt lat="46.12982" lon="6.70912">
        <ele>1683.1</ele>
        <time>2026-06-27T09:03:10Z</time>
      </trkpt>
      <trkpt lat="46.12982" lon="6.70912">
        <ele>1683.1</ele>
        <time>2026-06-27T09:03:11Z</time>
      </trkpt>
      <trkpt lat="46.12982" lon="6.70912">
        <ele>1683</ele>
        <time>2026-06-27T09:03:12Z</time>
      </trkpt>
      <trkpt lat="46.12982" lon="6.70912">
        <ele>1683</ele>
        <time>2026-06-27T09:03:13Z</time>
      </trkpt>
      <trkpt lat="46.12982" lon="6.70912">
        <ele>1683</ele>
        <time>2026-06-27T09:03:14Z</time>
      </trkpt>
      <trkpt lat="46.12982" lon="6.70912">
        <ele>1683</ele>
        <time>2026-06-27T09:03:15Z</time>
      </trkpt>
      <trkpt lat="46.12982" lon="6.70912">
        <ele>1683</ele>
        <time>2026-06-27T09:03:16Z</time>
      </trkpt>
      <trkpt lat="46.12982" lon="6.70912">
        <ele>1682.9</ele>
        <time>2026-06-27T09:03:17Z</time>
      </trkpt>
      <trkpt lat="46.12982" lon="6.70912">
        <ele>1682.9</ele>
        <time>2026-06-27T09:03:18Z</time>
      </trkpt>
      <trkpt lat="46.12982" lon="6.70912">
        <ele>1682.9</ele>
        <time>2026-06-27T09:03:19Z</time>
      </trkpt>
      <trkpt lat="46.12982" lon="6.70912">
        <ele>1682.9</ele>
        <time>2026-06-27T09:03:20Z</time>
      </trkpt>
      <trkpt lat="46.12982" lon="6.70912">
        <ele>1682.9</ele>
        <time>2026-06-27T09:03:21Z</time>
      </trkpt>
      <trkpt lat="46.12982" lon="6.70912">
        <ele>1683</ele>
        <time>2026-06-27T09:03:22Z</time>
      </trkpt>
      <trkpt lat="46.12982" lon="6.70912">
        <ele>1683</ele>
        <time>2026-06-27T09:03:23Z</time>
      </trkpt>
      <trkpt lat="46.12982" lon="6.70912">
        <ele>1683</ele>
        <time>2026-06-27T09:03:24Z</time>
      </trkpt>
      <trkpt lat="46.12982" lon="6.70912">
        <ele>1683.1</ele>
        <time>2026-06-27T09:03:25Z</time>
      </trkpt>
      <trkpt lat="46.12982" lon="6.70912">
        <ele>1683.1</ele>
        <time>2026-06-27T09:03:26Z</time>
      </trkpt>
      <trkpt lat="46.12982" lon="6.70912">
        <ele>1683.1</ele>
        <time>2026-06-27T09:03:27Z</time>
      </trkpt>
      <trkpt lat="46.12982" lon="6.70912">
        <ele>1683</ele>
        <time>2026-06-27T09:03:28Z</time>
      </trkpt>
      <trkpt lat="46.12982" lon="6.70912">
        <ele>1683</ele>
        <time>2026-06-27T09:03:29Z</time>
      </trkpt>
      <trkpt lat="46.12982" lon="6.70912">
        <ele>1683</ele>
        <time>2026-06-27T09:03:30Z</time>
      </trkpt>
      <trkpt lat="46.12982" lon="6.70912">
        <ele>1683</ele>
        <time>2026-06-27T09:03:31Z</time>
      </trkpt>
      <trkpt lat="46.12982" lon="6.70912">
        <ele>1683.1</ele>
        <time>2026-06-27T09:03:32Z</time>
      </trkpt>
      <trkpt lat="46.12982" lon="6.70912">
        <ele>1683.1</ele>
        <time>2026-06-27T09:03:33Z</time>
      </trkpt>
      <trkpt lat="46.12982" lon="6.70912">
        <ele>1683.1</ele>
        <time>2026-06-27T09:03:34Z</time>
      </trkpt>
      <trkpt lat="46.12982" lon="6.70912">
        <ele>1683.2</ele>
        <time>2026-06-27T09:03:35Z</time>
      </trkpt>
      <trkpt lat="46.12982" lon="6.70912">
        <ele>1683.2</ele>
        <time>2026-06-27T09:03:36Z</time>
      </trkpt>
      <trkpt lat="46.12982" lon="6.70912">
        <ele>1683.2</ele>
        <time>2026-06-27T09:03:37Z</time>
      </trkpt>
      <trkpt lat="46.12982" lon="6.70912">
        <ele>1683.1</ele>
        <time>2026-06-27T09:03:38Z</time>
      </trkpt>
      <trkpt lat="46.12982" lon="6.70912">
        <ele>1683</ele>
        <time>2026-06-27T09:03:39Z</time>
      </trkpt>
      <trkpt lat="46.12982" lon="6.70912">
        <ele>1683</ele>
        <time>2026-06-27T09:03:40Z</time>
      </trkpt>
      <trkpt lat="46.12982" lon="6.70912">
        <ele>1683.1</ele>
        <time>2026-06-27T09:03:41Z</time>
      </trkpt>
      <trkpt lat="46.12982" lon="6.70912">
        <ele>1683.1</ele>
        <time>2026-06-27T09:03:42Z</time>
      </trkpt>
      <trkpt lat="46.12982" lon="6.70912">
        <ele>1683.1</ele>
        <time>2026-06-27T09:03:43Z</time>
      </trkpt>
      <trkpt lat="46.12982" lon="6.70912">
        <ele>1683.1</ele>
        <time>2026-06-27T09:03:44Z</time>
      </trkpt>
      <trkpt lat="46.12982" lon="6.70912">
        <ele>1683.1</ele>
        <time>2026-06-27T09:03:45Z</time>
      </trkpt>
      <trkpt lat="46.12982" lon="6.70912">
        <ele>1683</ele>
        <time>2026-06-27T09:03:46Z</time>
      </trkpt>
      <trkpt lat="46.12982" lon="6.70912">
        <ele>1683</ele>
        <time>2026-06-27T09:03:47Z</time>
      </trkpt>
      <trkpt lat="46.12982" lon="6.70912">
        <ele>1682.9</ele>
        <time>2026-06-27T09:03:48Z</time>
      </trkpt>
      <trkpt lat="46.12982" lon="6.70913">
        <ele>1682.9</ele>
        <time>2026-06-27T09:03:49Z</time>
      </trkpt>
      <trkpt lat="46.12982" lon="6.70913">
        <ele>1682.9</ele>
        <time>2026-06-27T09:03:50Z</time>
      </trkpt>
      <trkpt lat="46.12982" lon="6.70913">
        <ele>1683</ele>
        <time>2026-06-27T09:03:51Z</time>
      </trkpt>
      <trkpt lat="46.12982" lon="6.70913">
        <ele>1683</ele>
        <time>2026-06-27T09:03:52Z</time>
      </trkpt>
      <trkpt lat="46.12982" lon="6.70913">
        <ele>1683.1</ele>
        <time>2026-06-27T09:03:53Z</time>
      </trkpt>
      <trkpt lat="46.12982" lon="6.70913">
        <ele>1683.1</ele>
        <time>2026-06-27T09:03:54Z</time>
      </trkpt>
      <trkpt lat="46.12982" lon="6.70913">
        <ele>1683.1</ele>
        <time>2026-06-27T09:03:55Z</time>
      </trkpt>
      <trkpt lat="46.12982" lon="6.70913">
        <ele>1683</ele>
        <time>2026-06-27T09:03:56Z</time>
      </trkpt>
      <trkpt lat="46.12982" lon="6.70913">
        <ele>1683</ele>
        <time>2026-06-27T09:03:57Z</time>
      </trkpt>
      <trkpt lat="46.12982" lon="6.70913">
        <ele>1683</ele>
        <time>2026-06-27T09:03:58Z</time>
      </trkpt>
      <trkpt lat="46.12982" lon="6.70913">
        <ele>1683</ele>
        <time>2026-06-27T09:03:59Z</time>
      </trkpt>
      <trkpt lat="46.12982" lon="6.70913">
        <ele>1683</ele>
        <time>2026-06-27T09:04:00Z</time>
      </trkpt>
      <trkpt lat="46.12982" lon="6.70913">
        <ele>1683</ele>
        <time>2026-06-27T09:04:01Z</time>
      </trkpt>
      <trkpt lat="46.12982" lon="6.70913">
        <ele>1683</ele>
        <time>2026-06-27T09:04:02Z</time>
      </trkpt>
      <trkpt lat="46.12982" lon="6.70913">
        <ele>1683.1</ele>
        <time>2026-06-27T09:04:03Z</time>
      </trkpt>
      <trkpt lat="46.12982" lon="6.70913">
        <ele>1683</ele>
        <time>2026-06-27T09:04:04Z</time>
      </trkpt>
      <trkpt lat="46.12982" lon="6.70913">
        <ele>1683</ele>
        <time>2026-06-27T09:04:05Z</time>
      </trkpt>
      <trkpt lat="46.12982" lon="6.70913">
        <ele>1683</ele>
        <time>2026-06-27T09:04:06Z</time>
      </trkpt>
      <trkpt lat="46.12982" lon="6.70913">
        <ele>1683.1</ele>
        <time>2026-06-27T09:04:07Z</time>
      </trkpt>
      <trkpt lat="46.12982" lon="6.70913">
        <ele>1683.2</ele>
        <time>2026-06-27T09:04:08Z</time>
      </trkpt>
      <trkpt lat="46.12982" lon="6.70913">
        <ele>1683.2</ele>
        <time>2026-06-27T09:04:09Z</time>
      </trkpt>
      <trkpt lat="46.12982" lon="6.70914">
        <ele>1683.3</ele>
        <time>2026-06-27T09:04:10Z</time>
      </trkpt>
      <trkpt lat="46.12982" lon="6.70914">
        <ele>1683.3</ele>
        <time>2026-06-27T09:04:11Z</time>
      </trkpt>
      <trkpt lat="46.12982" lon="6.70914">
        <ele>1683.4</ele>
        <time>2026-06-27T09:04:12Z</time>
      </trkpt>
      <trkpt lat="46.12982" lon="6.70914">
        <ele>1683.4</ele>
        <time>2026-06-27T09:04:13Z</time>
      </trkpt>
      <trkpt lat="46.12982" lon="6.70914">
        <ele>1683.4</ele>
        <time>2026-06-27T09:04:14Z</time>
      </trkpt>
      <trkpt lat="46.12982" lon="6.70914">
        <ele>1683.4</ele>
        <time>2026-06-27T09:04:15Z</time>
      </trkpt>
      <trkpt lat="46.12982" lon="6.70914">
        <ele>1683.4</ele>
        <time>2026-06-27T09:04:16Z</time>
      </trkpt>
      <trkpt lat="46.12982" lon="6.70914">
        <ele>1683.4</ele>
        <time>2026-06-27T09:04:17Z</time>
      </trkpt>
      <trkpt lat="46.12982" lon="6.70914">
        <ele>1683.3</ele>
        <time>2026-06-27T09:04:18Z</time>
      </trkpt>
      <trkpt lat="46.12982" lon="6.70914">
        <ele>1683.3</ele>
        <time>2026-06-27T09:04:19Z</time>
      </trkpt>
      <trkpt lat="46.12982" lon="6.70914">
        <ele>1683.3</ele>
        <time>2026-06-27T09:04:20Z</time>
      </trkpt>
      <trkpt lat="46.12982" lon="6.70914">
        <ele>1683.2</ele>
        <time>2026-06-27T09:04:21Z</time>
      </trkpt>
      <trkpt lat="46.12982" lon="6.70914">
        <ele>1683.1</ele>
        <time>2026-06-27T09:04:22Z</time>
      </trkpt>
      <trkpt lat="46.12982" lon="6.70914">
        <ele>1683.1</ele>
        <time>2026-06-27T09:04:23Z</time>
      </trkpt>
      <trkpt lat="46.12982" lon="6.70914">
        <ele>1683.2</ele>
        <time>2026-06-27T09:04:24Z</time>
      </trkpt>
      <trkpt lat="46.12982" lon="6.70914">
        <ele>1683.1</ele>
        <time>2026-06-27T09:04:25Z</time>
      </trkpt>
      <trkpt lat="46.12982" lon="6.70914">
        <ele>1683.1</ele>
        <time>2026-06-27T09:04:26Z</time>
      </trkpt>
      <trkpt lat="46.12982" lon="6.70914">
        <ele>1683.1</ele>
        <time>2026-06-27T09:04:27Z</time>
      </trkpt>
      <trkpt lat="46.12982" lon="6.70914">
        <ele>1683.1</ele>
        <time>2026-06-27T09:04:28Z</time>
      </trkpt>
      <trkpt lat="46.12982" lon="6.70914">
        <ele>1683.1</ele>
        <time>2026-06-27T09:04:29Z</time>
      </trkpt>
      <trkpt lat="46.12982" lon="6.70914">
        <ele>1683.1</ele>
        <time>2026-06-27T09:04:30Z</time>
      </trkpt>
      <trkpt lat="46.12982" lon="6.70914">
        <ele>1683</ele>
        <time>2026-06-27T09:04:31Z</time>
      </trkpt>
      <trkpt lat="46.12982" lon="6.70914">
        <ele>1683</ele>
        <time>2026-06-27T09:04:32Z</time>
      </trkpt>
      <trkpt lat="46.12982" lon="6.70914">
        <ele>1683</ele>
        <time>2026-06-27T09:04:33Z</time>
      </trkpt>
      <trkpt lat="46.12982" lon="6.70914">
        <ele>1683.1</ele>
        <time>2026-06-27T09:04:34Z</time>
      </trkpt>
      <trkpt lat="46.12982" lon="6.70914">
        <ele>1683.1</ele>
        <time>2026-06-27T09:04:35Z</time>
      </trkpt>
      <trkpt lat="46.12982" lon="6.70914">
        <ele>1683.2</ele>
        <time>2026-06-27T09:04:36Z</time>
      </trkpt>
      <trkpt lat="46.12982" lon="6.70914">
        <ele>1683.2</ele>
        <time>2026-06-27T09:04:37Z</time>
      </trkpt>
      <trkpt lat="46.12982" lon="6.70914">
        <ele>1683.2</ele>
        <time>2026-06-27T09:04:38Z</time>
      </trkpt>
      <trkpt lat="46.12982" lon="6.70914">
        <ele>1683.3</ele>
        <time>2026-06-27T09:04:39Z</time>
      </trkpt>
      <trkpt lat="46.12982" lon="6.70914">
        <ele>1683.3</ele>
        <time>2026-06-27T09:04:40Z</time>
      </trkpt>
      <trkpt lat="46.12982" lon="6.70914">
        <ele>1683.2</ele>
        <time>2026-06-27T09:04:41Z</time>
      </trkpt>
      <trkpt lat="46.12983" lon="6.70914">
        <ele>1683.1</ele>
        <time>2026-06-27T09:04:42Z</time>
      </trkpt>
      <trkpt lat="46.12983" lon="6.70914">
        <ele>1683.1</ele>
        <time>2026-06-27T09:04:43Z</time>
      </trkpt>
      <trkpt lat="46.12982" lon="6.70914">
        <ele>1683.1</ele>
        <time>2026-06-27T09:04:44Z</time>
      </trkpt>
      <trkpt lat="46.12982" lon="6.70914">
        <ele>1683</ele>
        <time>2026-06-27T09:04:45Z</time>
      </trkpt>
      <trkpt lat="46.12982" lon="6.70914">
        <ele>1683</ele>
        <time>2026-06-27T09:04:46Z</time>
      </trkpt>
      <trkpt lat="46.12982" lon="6.70914">
        <ele>1683.2</ele>
        <time>2026-06-27T09:04:47Z</time>
      </trkpt>
      <trkpt lat="46.12982" lon="6.70914">
        <ele>1683.2</ele>
        <time>2026-06-27T09:04:48Z</time>
      </trkpt>
      <trkpt lat="46.12982" lon="6.70914">
        <ele>1683.2</ele>
        <time>2026-06-27T09:04:49Z</time>
      </trkpt>
      <trkpt lat="46.12983" lon="6.70914">
        <ele>1683.2</ele>
        <time>2026-06-27T09:04:50Z</time>
      </trkpt>
      <trkpt lat="46.12983" lon="6.70914">
        <ele>1683.2</ele>
        <time>2026-06-27T09:04:51Z</time>
      </trkpt>
      <trkpt lat="46.12983" lon="6.70914">
        <ele>1683.2</ele>
        <time>2026-06-27T09:04:52Z</time>
      </trkpt>
      <trkpt lat="46.12983" lon="6.70914">
        <ele>1683.2</ele>
        <time>2026-06-27T09:04:53Z</time>
      </trkpt>
      <trkpt lat="46.12983" lon="6.70914">
        <ele>1683.2</ele>
        <time>2026-06-27T09:04:54Z</time>
      </trkpt>
      <trkpt lat="46.12983" lon="6.70914">
        <ele>1683.2</ele>
        <time>2026-06-27T09:04:55Z</time>
      </trkpt>
      <trkpt lat="46.12983" lon="6.70914">
        <ele>1683.2</ele>
        <time>2026-06-27T09:04:56Z</time>
      </trkpt>
      <trkpt lat="46.12983" lon="6.70914">
        <ele>1683.2</ele>
        <time>2026-06-27T09:04:57Z</time>
      </trkpt>
      <trkpt lat="46.12983" lon="6.70914">
        <ele>1683.1</ele>
        <time>2026-06-27T09:04:58Z</time>
      </trkpt>
      <trkpt lat="46.12983" lon="6.70914">
        <ele>1683.2</ele>
        <time>2026-06-27T09:04:59Z</time>
      </trkpt>
      <trkpt lat="46.12983" lon="6.70914">
        <ele>1683.2</ele>
        <time>2026-06-27T09:05:00Z</time>
      </trkpt>
      <trkpt lat="46.12983" lon="6.70914">
        <ele>1683.2</ele>
        <time>2026-06-27T09:05:01Z</time>
      </trkpt>
      <trkpt lat="46.12983" lon="6.70914">
        <ele>1683.2</ele>
        <time>2026-06-27T09:05:02Z</time>
      </trkpt>
      <trkpt lat="46.12983" lon="6.70914">
        <ele>1683.2</ele>
        <time>2026-06-27T09:05:03Z</time>
      </trkpt>
      <trkpt lat="46.12983" lon="6.70914">
        <ele>1683.2</ele>
        <time>2026-06-27T09:05:04Z</time>
      </trkpt>
      <trkpt lat="46.12983" lon="6.70914">
        <ele>1683.2</ele>
        <time>2026-06-27T09:05:05Z</time>
      </trkpt>
      <trkpt lat="46.12983" lon="6.70914">
        <ele>1683.2</ele>
        <time>2026-06-27T09:05:06Z</time>
      </trkpt>
      <trkpt lat="46.12983" lon="6.70914">
        <ele>1683.2</ele>
        <time>2026-06-27T09:05:07Z</time>
      </trkpt>
      <trkpt lat="46.12983" lon="6.70914">
        <ele>1683.1</ele>
        <time>2026-06-27T09:05:08Z</time>
      </trkpt>
      <trkpt lat="46.12983" lon="6.70914">
        <ele>1683.1</ele>
        <time>2026-06-27T09:05:09Z</time>
      </trkpt>
      <trkpt lat="46.12983" lon="6.70914">
        <ele>1683</ele>
        <time>2026-06-27T09:05:10Z</time>
      </trkpt>
      <trkpt lat="46.12983" lon="6.70914">
        <ele>1683.1</ele>
        <time>2026-06-27T09:05:11Z</time>
      </trkpt>
      <trkpt lat="46.12983" lon="6.70914">
        <ele>1683.1</ele>
        <time>2026-06-27T09:05:12Z</time>
      </trkpt>
      <trkpt lat="46.12983" lon="6.70914">
        <ele>1683</ele>
        <time>2026-06-27T09:05:13Z</time>
      </trkpt>
      <trkpt lat="46.12983" lon="6.70914">
        <ele>1683</ele>
        <time>2026-06-27T09:05:14Z</time>
      </trkpt>
      <trkpt lat="46.12983" lon="6.70914">
        <ele>1683</ele>
        <time>2026-06-27T09:05:15Z</time>
      </trkpt>
      <trkpt lat="46.12983" lon="6.70914">
        <ele>1683</ele>
        <time>2026-06-27T09:05:16Z</time>
      </trkpt>
      <trkpt lat="46.12983" lon="6.70914">
        <ele>1683</ele>
        <time>2026-06-27T09:05:17Z</time>
      </trkpt>
      <trkpt lat="46.12983" lon="6.70914">
        <ele>1682.9</ele>
        <time>2026-06-27T09:05:18Z</time>
      </trkpt>
      <trkpt lat="46.12983" lon="6.70913">
        <ele>1682.9</ele>
        <time>2026-06-27T09:05:19Z</time>
      </trkpt>
      <trkpt lat="46.12984" lon="6.70913">
        <ele>1682.9</ele>
        <time>2026-06-27T09:05:20Z</time>
      </trkpt>
      <trkpt lat="46.12984" lon="6.70913">
        <ele>1682.9</ele>
        <time>2026-06-27T09:05:21Z</time>
      </trkpt>
      <trkpt lat="46.12984" lon="6.70913">
        <ele>1682.9</ele>
        <time>2026-06-27T09:05:22Z</time>
      </trkpt>
      <trkpt lat="46.12984" lon="6.70913">
        <ele>1682.9</ele>
        <time>2026-06-27T09:05:23Z</time>
      </trkpt>
      <trkpt lat="46.12984" lon="6.70913">
        <ele>1682.8</ele>
        <time>2026-06-27T09:05:24Z</time>
      </trkpt>
      <trkpt lat="46.12984" lon="6.70913">
        <ele>1682.8</ele>
        <time>2026-06-27T09:05:25Z</time>
      </trkpt>
      <trkpt lat="46.12984" lon="6.70913">
        <ele>1682.8</ele>
        <time>2026-06-27T09:05:26Z</time>
      </trkpt>
      <trkpt lat="46.12983" lon="6.70913">
        <ele>1682.8</ele>
        <time>2026-06-27T09:05:27Z</time>
      </trkpt>
      <trkpt lat="46.12983" lon="6.70913">
        <ele>1682.9</ele>
        <time>2026-06-27T09:05:28Z</time>
      </trkpt>
      <trkpt lat="46.12983" lon="6.70913">
        <ele>1682.8</ele>
        <time>2026-06-27T09:05:29Z</time>
      </trkpt>
      <trkpt lat="46.12983" lon="6.70913">
        <ele>1682.8</ele>
        <time>2026-06-27T09:05:30Z</time>
      </trkpt>
      <trkpt lat="46.12983" lon="6.70913">
        <ele>1682.8</ele>
        <time>2026-06-27T09:05:31Z</time>
      </trkpt>
      <trkpt lat="46.12984" lon="6.70913">
        <ele>1682.8</ele>
        <time>2026-06-27T09:05:32Z</time>
      </trkpt>
      <trkpt lat="46.12984" lon="6.70913">
        <ele>1682.9</ele>
        <time>2026-06-27T09:05:33Z</time>
      </trkpt>
      <trkpt lat="46.12983" lon="6.70913">
        <ele>1682.9</ele>
        <time>2026-06-27T09:05:34Z</time>
      </trkpt>
      <trkpt lat="46.12983" lon="6.70913">
        <ele>1682.9</ele>
        <time>2026-06-27T09:05:35Z</time>
      </trkpt>
      <trkpt lat="46.12983" lon="6.70913">
        <ele>1682.9</ele>
        <time>2026-06-27T09:05:36Z</time>
      </trkpt>
      <trkpt lat="46.12983" lon="6.70913">
        <ele>1682.9</ele>
        <time>2026-06-27T09:05:37Z</time>
      </trkpt>
      <trkpt lat="46.12983" lon="6.70913">
        <ele>1682.9</ele>
        <time>2026-06-27T09:05:38Z</time>
      </trkpt>
      <trkpt lat="46.12983" lon="6.70913">
        <ele>1682.9</ele>
        <time>2026-06-27T09:05:39Z</time>
      </trkpt>
      <trkpt lat="46.12983" lon="6.70913">
        <ele>1682.9</ele>
        <time>2026-06-27T09:05:40Z</time>
      </trkpt>
      <trkpt lat="46.12983" lon="6.70913">
        <ele>1682.9</ele>
        <time>2026-06-27T09:05:41Z</time>
      </trkpt>
      <trkpt lat="46.12983" lon="6.70913">
        <ele>1682.9</ele>
        <time>2026-06-27T09:05:42Z</time>
      </trkpt>
      <trkpt lat="46.12983" lon="6.70913">
        <ele>1682.9</ele>
        <time>2026-06-27T09:05:43Z</time>
      </trkpt>
      <trkpt lat="46.12983" lon="6.70913">
        <ele>1683</ele>
        <time>2026-06-27T09:05:44Z</time>
      </trkpt>
      <trkpt lat="46.12983" lon="6.70913">
        <ele>1683</ele>
        <time>2026-06-27T09:05:45Z</time>
      </trkpt>
      <trkpt lat="46.12983" lon="6.70913">
        <ele>1683</ele>
        <time>2026-06-27T09:05:46Z</time>
      </trkpt>
      <trkpt lat="46.12983" lon="6.70913">
        <ele>1683</ele>
        <time>2026-06-27T09:05:47Z</time>
      </trkpt>
      <trkpt lat="46.12983" lon="6.70913">
        <ele>1683</ele>
        <time>2026-06-27T09:05:48Z</time>
      </trkpt>
      <trkpt lat="46.12983" lon="6.70913">
        <ele>1683</ele>
        <time>2026-06-27T09:05:49Z</time>
      </trkpt>
      <trkpt lat="46.12983" lon="6.70913">
        <ele>1683</ele>
        <time>2026-06-27T09:05:50Z</time>
      </trkpt>
      <trkpt lat="46.12983" lon="6.70913">
        <ele>1683</ele>
        <time>2026-06-27T09:05:51Z</time>
      </trkpt>
      <trkpt lat="46.12983" lon="6.70913">
        <ele>1683</ele>
        <time>2026-06-27T09:05:52Z</time>
      </trkpt>
      <trkpt lat="46.12983" lon="6.70913">
        <ele>1683</ele>
        <time>2026-06-27T09:05:53Z</time>
      </trkpt>
      <trkpt lat="46.12983" lon="6.70913">
        <ele>1683</ele>
        <time>2026-06-27T09:05:54Z</time>
      </trkpt>
      <trkpt lat="46.12983" lon="6.70913">
        <ele>1683</ele>
        <time>2026-06-27T09:05:55Z</time>
      </trkpt>
      <trkpt lat="46.12983" lon="6.70913">
        <ele>1683</ele>
        <time>2026-06-27T09:05:56Z</time>
      </trkpt>
      <trkpt lat="46.12983" lon="6.70913">
        <ele>1682.9</ele>
        <time>2026-06-27T09:05:57Z</time>
      </trkpt>
      <trkpt lat="46.12983" lon="6.70913">
        <ele>1682.8</ele>
        <time>2026-06-27T09:05:58Z</time>
      </trkpt>
      <trkpt lat="46.12983" lon="6.70913">
        <ele>1682.8</ele>
        <time>2026-06-27T09:05:59Z</time>
      </trkpt>
      <trkpt lat="46.12983" lon="6.70913">
        <ele>1682.8</ele>
        <time>2026-06-27T09:06:00Z</time>
      </trkpt>
      <trkpt lat="46.12983" lon="6.70913">
        <ele>1682.7</ele>
        <time>2026-06-27T09:06:01Z</time>
      </trkpt>
      <trkpt lat="46.12983" lon="6.70913">
        <ele>1682.6</ele>
        <time>2026-06-27T09:06:02Z</time>
      </trkpt>
      <trkpt lat="46.12983" lon="6.70913">
        <ele>1682.6</ele>
        <time>2026-06-27T09:06:03Z</time>
      </trkpt>
      <trkpt lat="46.12983" lon="6.70913">
        <ele>1682.5</ele>
        <time>2026-06-27T09:06:04Z</time>
      </trkpt>
      <trkpt lat="46.12983" lon="6.70913">
        <ele>1682.5</ele>
        <time>2026-06-27T09:06:05Z</time>
      </trkpt>
      <trkpt lat="46.12983" lon="6.70913">
        <ele>1682.5</ele>
        <time>2026-06-27T09:06:06Z</time>
      </trkpt>
      <trkpt lat="46.12983" lon="6.70913">
        <ele>1682.6</ele>
        <time>2026-06-27T09:06:07Z</time>
      </trkpt>
      <trkpt lat="46.12983" lon="6.70913">
        <ele>1682.7</ele>
        <time>2026-06-27T09:06:08Z</time>
      </trkpt>
      <trkpt lat="46.12983" lon="6.70913">
        <ele>1682.6</ele>
        <time>2026-06-27T09:06:09Z</time>
      </trkpt>
      <trkpt lat="46.12983" lon="6.70913">
        <ele>1682.6</ele>
        <time>2026-06-27T09:06:10Z</time>
      </trkpt>
      <trkpt lat="46.12983" lon="6.70913">
        <ele>1682.7</ele>
        <time>2026-06-27T09:06:11Z</time>
      </trkpt>
      <trkpt lat="46.12983" lon="6.70913">
        <ele>1682.7</ele>
        <time>2026-06-27T09:06:12Z</time>
      </trkpt>
      <trkpt lat="46.12983" lon="6.70913">
        <ele>1682.8</ele>
        <time>2026-06-27T09:06:13Z</time>
      </trkpt>
      <trkpt lat="46.12983" lon="6.70913">
        <ele>1682.8</ele>
        <time>2026-06-27T09:06:14Z</time>
      </trkpt>
      <trkpt lat="46.12983" lon="6.70913">
        <ele>1682.8</ele>
        <time>2026-06-27T09:06:15Z</time>
      </trkpt>
      <trkpt lat="46.12983" lon="6.70913">
        <ele>1682.8</ele>
        <time>2026-06-27T09:06:16Z</time>
      </trkpt>
      <trkpt lat="46.12983" lon="6.70913">
        <ele>1682.8</ele>
        <time>2026-06-27T09:06:17Z</time>
      </trkpt>
      <trkpt lat="46.12983" lon="6.70913">
        <ele>1682.8</ele>
        <time>2026-06-27T09:06:18Z</time>
      </trkpt>
      <trkpt lat="46.12983" lon="6.70913">
        <ele>1682.9</ele>
        <time>2026-06-27T09:06:19Z</time>
      </trkpt>
      <trkpt lat="46.12983" lon="6.70913">
        <ele>1682.9</ele>
        <time>2026-06-27T09:06:20Z</time>
      </trkpt>
      <trkpt lat="46.12983" lon="6.70913">
        <ele>1682.9</ele>
        <time>2026-06-27T09:06:21Z</time>
      </trkpt>
      <trkpt lat="46.12983" lon="6.70913">
        <ele>1682.9</ele>
        <time>2026-06-27T09:06:22Z</time>
      </trkpt>
      <trkpt lat="46.12983" lon="6.70913">
        <ele>1683</ele>
        <time>2026-06-27T09:06:23Z</time>
      </trkpt>
      <trkpt lat="46.12983" lon="6.70913">
        <ele>1683</ele>
        <time>2026-06-27T09:06:24Z</time>
      </trkpt>
      <trkpt lat="46.12983" lon="6.70913">
        <ele>1682.9</ele>
        <time>2026-06-27T09:06:25Z</time>
      </trkpt>
      <trkpt lat="46.12983" lon="6.70913">
        <ele>1682.9</ele>
        <time>2026-06-27T09:06:26Z</time>
      </trkpt>
      <trkpt lat="46.12983" lon="6.70914">
        <ele>1682.8</ele>
        <time>2026-06-27T09:06:27Z</time>
      </trkpt>
      <trkpt lat="46.12983" lon="6.70914">
        <ele>1682.8</ele>
        <time>2026-06-27T09:06:28Z</time>
      </trkpt>
      <trkpt lat="46.12983" lon="6.70914">
        <ele>1682.8</ele>
        <time>2026-06-27T09:06:29Z</time>
      </trkpt>
      <trkpt lat="46.12983" lon="6.70914">
        <ele>1682.8</ele>
        <time>2026-06-27T09:06:30Z</time>
      </trkpt>
      <trkpt lat="46.12983" lon="6.70914">
        <ele>1682.8</ele>
        <time>2026-06-27T09:06:31Z</time>
      </trkpt>
      <trkpt lat="46.12983" lon="6.70914">
        <ele>1682.8</ele>
        <time>2026-06-27T09:06:32Z</time>
      </trkpt>
      <trkpt lat="46.12983" lon="6.70914">
        <ele>1682.8</ele>
        <time>2026-06-27T09:06:33Z</time>
      </trkpt>
      <trkpt lat="46.12983" lon="6.70914">
        <ele>1682.8</ele>
        <time>2026-06-27T09:06:34Z</time>
      </trkpt>
      <trkpt lat="46.12983" lon="6.70914">
        <ele>1682.8</ele>
        <time>2026-06-27T09:06:35Z</time>
      </trkpt>
      <trkpt lat="46.12983" lon="6.70914">
        <ele>1682.8</ele>
        <time>2026-06-27T09:06:36Z</time>
      </trkpt>
      <trkpt lat="46.12983" lon="6.70914">
        <ele>1682.8</ele>
        <time>2026-06-27T09:06:37Z</time>
      </trkpt>
      <trkpt lat="46.12983" lon="6.70914">
        <ele>1682.8</ele>
        <time>2026-06-27T09:06:38Z</time>
      </trkpt>
      <trkpt lat="46.12983" lon="6.70914">
        <ele>1682.7</ele>
        <time>2026-06-27T09:06:39Z</time>
      </trkpt>
      <trkpt lat="46.12983" lon="6.70914">
        <ele>1682.7</ele>
        <time>2026-06-27T09:06:40Z</time>
      </trkpt>
      <trkpt lat="46.12983" lon="6.70914">
        <ele>1682.6</ele>
        <time>2026-06-27T09:06:41Z</time>
      </trkpt>
      <trkpt lat="46.12983" lon="6.70914">
        <ele>1682.6</ele>
        <time>2026-06-27T09:06:42Z</time>
      </trkpt>
      <trkpt lat="46.12983" lon="6.70914">
        <ele>1682.6</ele>
        <time>2026-06-27T09:06:43Z</time>
      </trkpt>
      <trkpt lat="46.12983" lon="6.70914">
        <ele>1682.6</ele>
        <time>2026-06-27T09:06:44Z</time>
      </trkpt>
      <trkpt lat="46.12983" lon="6.70914">
        <ele>1682.6</ele>
        <time>2026-06-27T09:06:45Z</time>
      </trkpt>
      <trkpt lat="46.12983" lon="6.70914">
        <ele>1682.6</ele>
        <time>2026-06-27T09:06:46Z</time>
      </trkpt>
      <trkpt lat="46.12983" lon="6.70914">
        <ele>1682.6</ele>
        <time>2026-06-27T09:06:47Z</time>
      </trkpt>
      <trkpt lat="46.12983" lon="6.70914">
        <ele>1682.6</ele>
        <time>2026-06-27T09:06:48Z</time>
      </trkpt>
      <trkpt lat="46.12983" lon="6.70914">
        <ele>1682.6</ele>
        <time>2026-06-27T09:06:49Z</time>
      </trkpt>
      <trkpt lat="46.12983" lon="6.70914">
        <ele>1682.6</ele>
        <time>2026-06-27T09:06:50Z</time>
      </trkpt>
      <trkpt lat="46.12983" lon="6.70914">
        <ele>1682.6</ele>
        <time>2026-06-27T09:06:51Z</time>
      </trkpt>
      <trkpt lat="46.12983" lon="6.70914">
        <ele>1682.6</ele>
        <time>2026-06-27T09:06:52Z</time>
      </trkpt>
      <trkpt lat="46.12983" lon="6.70914">
        <ele>1682.7</ele>
        <time>2026-06-27T09:06:53Z</time>
      </trkpt>
      <trkpt lat="46.12983" lon="6.70914">
        <ele>1682.6</ele>
        <time>2026-06-27T09:06:54Z</time>
      </trkpt>
      <trkpt lat="46.12983" lon="6.70914">
        <ele>1682.6</ele>
        <time>2026-06-27T09:06:55Z</time>
      </trkpt>
      <trkpt lat="46.12983" lon="6.70914">
        <ele>1682.6</ele>
        <time>2026-06-27T09:06:56Z</time>
      </trkpt>
      <trkpt lat="46.12983" lon="6.70914">
        <ele>1682.7</ele>
        <time>2026-06-27T09:06:57Z</time>
      </trkpt>
      <trkpt lat="46.12983" lon="6.70914">
        <ele>1682.7</ele>
        <time>2026-06-27T09:06:58Z</time>
      </trkpt>
      <trkpt lat="46.12983" lon="6.70914">
        <ele>1682.7</ele>
        <time>2026-06-27T09:06:59Z</time>
      </trkpt>
      <trkpt lat="46.12982" lon="6.70914">
        <ele>1682.6</ele>
        <time>2026-06-27T09:07:00Z</time>
      </trkpt>
      <trkpt lat="46.12982" lon="6.70914">
        <ele>1682.6</ele>
        <time>2026-06-27T09:07:01Z</time>
      </trkpt>
      <trkpt lat="46.12982" lon="6.70914">
        <ele>1682.6</ele>
        <time>2026-06-27T09:07:02Z</time>
      </trkpt>
      <trkpt lat="46.12982" lon="6.70914">
        <ele>1682.7</ele>
        <time>2026-06-27T09:07:03Z</time>
      </trkpt>
      <trkpt lat="46.12982" lon="6.70914">
        <ele>1682.7</ele>
        <time>2026-06-27T09:07:04Z</time>
      </trkpt>
      <trkpt lat="46.12982" lon="6.70914">
        <ele>1682.7</ele>
        <time>2026-06-27T09:07:05Z</time>
      </trkpt>
      <trkpt lat="46.12982" lon="6.70914">
        <ele>1682.6</ele>
        <time>2026-06-27T09:07:06Z</time>
      </trkpt>
      <trkpt lat="46.12982" lon="6.70914">
        <ele>1682.6</ele>
        <time>2026-06-27T09:07:07Z</time>
      </trkpt>
      <trkpt lat="46.12982" lon="6.70914">
        <ele>1682.6</ele>
        <time>2026-06-27T09:07:08Z</time>
      </trkpt>
      <trkpt lat="46.12982" lon="6.70914">
        <ele>1682.7</ele>
        <time>2026-06-27T09:07:09Z</time>
      </trkpt>
      <trkpt lat="46.12982" lon="6.70914">
        <ele>1682.7</ele>
        <time>2026-06-27T09:07:10Z</time>
      </trkpt>
      <trkpt lat="46.12982" lon="6.70914">
        <ele>1682.7</ele>
        <time>2026-06-27T09:07:11Z</time>
      </trkpt>
      <trkpt lat="46.12982" lon="6.70914">
        <ele>1682.8</ele>
        <time>2026-06-27T09:07:12Z</time>
      </trkpt>
      <trkpt lat="46.12982" lon="6.70914">
        <ele>1682.8</ele>
        <time>2026-06-27T09:07:13Z</time>
      </trkpt>
      <trkpt lat="46.12982" lon="6.70914">
        <ele>1682.8</ele>
        <time>2026-06-27T09:07:14Z</time>
      </trkpt>
      <trkpt lat="46.12982" lon="6.70914">
        <ele>1682.9</ele>
        <time>2026-06-27T09:07:15Z</time>
      </trkpt>
      <trkpt lat="46.12982" lon="6.70914">
        <ele>1682.9</ele>
        <time>2026-06-27T09:07:16Z</time>
      </trkpt>
      <trkpt lat="46.12982" lon="6.70914">
        <ele>1683</ele>
        <time>2026-06-27T09:07:17Z</time>
      </trkpt>
      <trkpt lat="46.12982" lon="6.70914">
        <ele>1683</ele>
        <time>2026-06-27T09:07:18Z</time>
      </trkpt>
      <trkpt lat="46.12982" lon="6.70914">
        <ele>1683</ele>
        <time>2026-06-27T09:07:19Z</time>
      </trkpt>
      <trkpt lat="46.12982" lon="6.70914">
        <ele>1682.9</ele>
        <time>2026-06-27T09:07:20Z</time>
      </trkpt>
      <trkpt lat="46.12982" lon="6.70914">
        <ele>1682.9</ele>
        <time>2026-06-27T09:07:21Z</time>
      </trkpt>
      <trkpt lat="46.12982" lon="6.70914">
        <ele>1683</ele>
        <time>2026-06-27T09:07:22Z</time>
      </trkpt>
      <trkpt lat="46.12982" lon="6.70914">
        <ele>1682.9</ele>
        <time>2026-06-27T09:07:23Z</time>
      </trkpt>
      <trkpt lat="46.12982" lon="6.70914">
        <ele>1682.9</ele>
        <time>2026-06-27T09:07:24Z</time>
      </trkpt>
      <trkpt lat="46.12982" lon="6.70914">
        <ele>1682.9</ele>
        <time>2026-06-27T09:07:25Z</time>
      </trkpt>
      <trkpt lat="46.12982" lon="6.70914">
        <ele>1682.9</ele>
        <time>2026-06-27T09:07:26Z</time>
      </trkpt>
      <trkpt lat="46.12982" lon="6.70914">
        <ele>1682.9</ele>
        <time>2026-06-27T09:07:27Z</time>
      </trkpt>
      <trkpt lat="46.12982" lon="6.70914">
        <ele>1682.9</ele>
        <time>2026-06-27T09:07:28Z</time>
      </trkpt>
      <trkpt lat="46.12982" lon="6.70914">
        <ele>1682.7</ele>
        <time>2026-06-27T09:07:29Z</time>
      </trkpt>
      <trkpt lat="46.12982" lon="6.70914">
        <ele>1682.7</ele>
        <time>2026-06-27T09:07:30Z</time>
      </trkpt>
      <trkpt lat="46.12982" lon="6.70914">
        <ele>1682.8</ele>
        <time>2026-06-27T09:07:31Z</time>
      </trkpt>
      <trkpt lat="46.12982" lon="6.70914">
        <ele>1682.8</ele>
        <time>2026-06-27T09:07:32Z</time>
      </trkpt>
      <trkpt lat="46.12982" lon="6.70914">
        <ele>1682.8</ele>
        <time>2026-06-27T09:07:33Z</time>
      </trkpt>
      <trkpt lat="46.12982" lon="6.70914">
        <ele>1682.7</ele>
        <time>2026-06-27T09:07:34Z</time>
      </trkpt>
      <trkpt lat="46.12982" lon="6.70914">
        <ele>1682.7</ele>
        <time>2026-06-27T09:07:35Z</time>
      </trkpt>
      <trkpt lat="46.12982" lon="6.70914">
        <ele>1682.7</ele>
        <time>2026-06-27T09:07:36Z</time>
      </trkpt>
      <trkpt lat="46.12982" lon="6.70914">
        <ele>1682.6</ele>
        <time>2026-06-27T09:07:37Z</time>
      </trkpt>
      <trkpt lat="46.12982" lon="6.70915">
        <ele>1682.6</ele>
        <time>2026-06-27T09:07:38Z</time>
      </trkpt>
      <trkpt lat="46.12982" lon="6.70915">
        <ele>1682.7</ele>
        <time>2026-06-27T09:07:39Z</time>
      </trkpt>
      <trkpt lat="46.12982" lon="6.70915">
        <ele>1682.7</ele>
        <time>2026-06-27T09:07:40Z</time>
      </trkpt>
      <trkpt lat="46.12982" lon="6.70915">
        <ele>1682.7</ele>
        <time>2026-06-27T09:07:41Z</time>
      </trkpt>
      <trkpt lat="46.12982" lon="6.70915">
        <ele>1682.7</ele>
        <time>2026-06-27T09:07:42Z</time>
      </trkpt>
      <trkpt lat="46.12982" lon="6.70915">
        <ele>1682.7</ele>
        <time>2026-06-27T09:07:43Z</time>
      </trkpt>
      <trkpt lat="46.12982" lon="6.70915">
        <ele>1682.7</ele>
        <time>2026-06-27T09:07:44Z</time>
      </trkpt>
      <trkpt lat="46.12982" lon="6.70915">
        <ele>1682.7</ele>
        <time>2026-06-27T09:07:45Z</time>
      </trkpt>
      <trkpt lat="46.12982" lon="6.70914">
        <ele>1682.7</ele>
        <time>2026-06-27T09:07:46Z</time>
      </trkpt>
      <trkpt lat="46.12982" lon="6.70914">
        <ele>1682.7</ele>
        <time>2026-06-27T09:07:47Z</time>
      </trkpt>
      <trkpt lat="46.12982" lon="6.70914">
        <ele>1682.8</ele>
        <time>2026-06-27T09:07:48Z</time>
      </trkpt>
      <trkpt lat="46.12982" lon="6.70914">
        <ele>1682.7</ele>
        <time>2026-06-27T09:07:49Z</time>
      </trkpt>
      <trkpt lat="46.12982" lon="6.70914">
        <ele>1682.7</ele>
        <time>2026-06-27T09:07:50Z</time>
      </trkpt>
      <trkpt lat="46.12982" lon="6.70914">
        <ele>1682.7</ele>
        <time>2026-06-27T09:07:51Z</time>
      </trkpt>
      <trkpt lat="46.12982" lon="6.70914">
        <ele>1682.7</ele>
        <time>2026-06-27T09:07:52Z</time>
      </trkpt>
      <trkpt lat="46.12982" lon="6.70914">
        <ele>1682.7</ele>
        <time>2026-06-27T09:07:53Z</time>
      </trkpt>
      <trkpt lat="46.12982" lon="6.70914">
        <ele>1682.7</ele>
        <time>2026-06-27T09:07:54Z</time>
      </trkpt>
      <trkpt lat="46.12982" lon="6.70914">
        <ele>1682.7</ele>
        <time>2026-06-27T09:07:55Z</time>
      </trkpt>
      <trkpt lat="46.12982" lon="6.70914">
        <ele>1682.7</ele>
        <time>2026-06-27T09:07:56Z</time>
      </trkpt>
      <trkpt lat="46.12982" lon="6.70914">
        <ele>1682.7</ele>
        <time>2026-06-27T09:07:57Z</time>
      </trkpt>
      <trkpt lat="46.12982" lon="6.70914">
        <ele>1682.8</ele>
        <time>2026-06-27T09:07:58Z</time>
      </trkpt>
      <trkpt lat="46.12982" lon="6.70914">
        <ele>1682.8</ele>
        <time>2026-06-27T09:07:59Z</time>
      </trkpt>
      <trkpt lat="46.12982" lon="6.70914">
        <ele>1682.8</ele>
        <time>2026-06-27T09:08:00Z</time>
      </trkpt>
      <trkpt lat="46.12982" lon="6.70914">
        <ele>1682.8</ele>
        <time>2026-06-27T09:08:01Z</time>
      </trkpt>
      <trkpt lat="46.12982" lon="6.70914">
        <ele>1682.7</ele>
        <time>2026-06-27T09:08:02Z</time>
      </trkpt>
      <trkpt lat="46.12982" lon="6.70914">
        <ele>1682.8</ele>
        <time>2026-06-27T09:08:03Z</time>
      </trkpt>
      <trkpt lat="46.12982" lon="6.70914">
        <ele>1682.8</ele>
        <time>2026-06-27T09:08:04Z</time>
      </trkpt>
      <trkpt lat="46.12982" lon="6.70914">
        <ele>1682.8</ele>
        <time>2026-06-27T09:08:05Z</time>
      </trkpt>
      <trkpt lat="46.12982" lon="6.70914">
        <ele>1682.8</ele>
        <time>2026-06-27T09:08:06Z</time>
      </trkpt>
      <trkpt lat="46.12982" lon="6.70914">
        <ele>1682.7</ele>
        <time>2026-06-27T09:08:07Z</time>
      </trkpt>
      <trkpt lat="46.12981" lon="6.70914">
        <ele>1682.7</ele>
        <time>2026-06-27T09:08:08Z</time>
      </trkpt>
      <trkpt lat="46.12981" lon="6.70914">
        <ele>1682.8</ele>
        <time>2026-06-27T09:08:09Z</time>
      </trkpt>
      <trkpt lat="46.12981" lon="6.70914">
        <ele>1682.8</ele>
        <time>2026-06-27T09:08:10Z</time>
      </trkpt>
      <trkpt lat="46.12981" lon="6.70914">
        <ele>1682.8</ele>
        <time>2026-06-27T09:08:11Z</time>
      </trkpt>
      <trkpt lat="46.12981" lon="6.70914">
        <ele>1682.8</ele>
        <time>2026-06-27T09:08:12Z</time>
      </trkpt>
      <trkpt lat="46.12981" lon="6.70914">
        <ele>1682.8</ele>
        <time>2026-06-27T09:08:13Z</time>
      </trkpt>
      <trkpt lat="46.12981" lon="6.70914">
        <ele>1682.8</ele>
        <time>2026-06-27T09:08:14Z</time>
      </trkpt>
      <trkpt lat="46.12981" lon="6.70914">
        <ele>1682.9</ele>
        <time>2026-06-27T09:08:15Z</time>
      </trkpt>
      <trkpt lat="46.12981" lon="6.70914">
        <ele>1682.9</ele>
        <time>2026-06-27T09:08:16Z</time>
      </trkpt>
      <trkpt lat="46.12981" lon="6.70914">
        <ele>1682.9</ele>
        <time>2026-06-27T09:08:17Z</time>
      </trkpt>
      <trkpt lat="46.12981" lon="6.70914">
        <ele>1682.9</ele>
        <time>2026-06-27T09:08:18Z</time>
      </trkpt>
      <trkpt lat="46.12981" lon="6.70914">
        <ele>1682.8</ele>
        <time>2026-06-27T09:08:19Z</time>
      </trkpt>
      <trkpt lat="46.12981" lon="6.70914">
        <ele>1682.8</ele>
        <time>2026-06-27T09:08:20Z</time>
      </trkpt>
      <trkpt lat="46.12981" lon="6.70914">
        <ele>1682.8</ele>
        <time>2026-06-27T09:08:21Z</time>
      </trkpt>
      <trkpt lat="46.12981" lon="6.70914">
        <ele>1682.7</ele>
        <time>2026-06-27T09:08:22Z</time>
      </trkpt>
      <trkpt lat="46.12982" lon="6.70914">
        <ele>1682.9</ele>
        <time>2026-06-27T09:08:23Z</time>
      </trkpt>
      <trkpt lat="46.12982" lon="6.70913">
        <ele>1683</ele>
        <time>2026-06-27T09:08:24Z</time>
      </trkpt>
      <trkpt lat="46.12981" lon="6.70913">
        <ele>1683</ele>
        <time>2026-06-27T09:08:25Z</time>
      </trkpt>
      <trkpt lat="46.12981" lon="6.70913">
        <ele>1683.1</ele>
        <time>2026-06-27T09:08:26Z</time>
      </trkpt>
      <trkpt lat="46.12981" lon="6.70913">
        <ele>1683.2</ele>
        <time>2026-06-27T09:08:27Z</time>
      </trkpt>
      <trkpt lat="46.1298" lon="6.70913">
        <ele>1683.3</ele>
        <time>2026-06-27T09:08:28Z</time>
      </trkpt>
      <trkpt lat="46.1298" lon="6.70914">
        <ele>1683.4</ele>
        <time>2026-06-27T09:08:29Z</time>
      </trkpt>
      <trkpt lat="46.1298" lon="6.70914">
        <ele>1683.4</ele>
        <time>2026-06-27T09:08:30Z</time>
      </trkpt>
      <trkpt lat="46.12979" lon="6.70914">
        <ele>1683.4</ele>
        <time>2026-06-27T09:08:31Z</time>
      </trkpt>
      <trkpt lat="46.12979" lon="6.70914">
        <ele>1683.4</ele>
        <time>2026-06-27T09:08:32Z</time>
      </trkpt>
      <trkpt lat="46.12979" lon="6.70914">
        <ele>1683.5</ele>
        <time>2026-06-27T09:08:33Z</time>
      </trkpt>
      <trkpt lat="46.12979" lon="6.70914">
        <ele>1683.5</ele>
        <time>2026-06-27T09:08:34Z</time>
      </trkpt>
      <trkpt lat="46.12979" lon="6.70913">
        <ele>1683.5</ele>
        <time>2026-06-27T09:08:35Z</time>
      </trkpt>
      <trkpt lat="46.12979" lon="6.70913">
        <ele>1683.5</ele>
        <time>2026-06-27T09:08:36Z</time>
      </trkpt>
      <trkpt lat="46.1298" lon="6.70913">
        <ele>1683.5</ele>
        <time>2026-06-27T09:08:37Z</time>
      </trkpt>
      <trkpt lat="46.1298" lon="6.70913">
        <ele>1683.5</ele>
        <time>2026-06-27T09:08:38Z</time>
      </trkpt>
      <trkpt lat="46.1298" lon="6.70914">
        <ele>1683.5</ele>
        <time>2026-06-27T09:08:39Z</time>
      </trkpt>
      <trkpt lat="46.1298" lon="6.70914">
        <ele>1683.6</ele>
        <time>2026-06-27T09:08:40Z</time>
      </trkpt>
      <trkpt lat="46.12981" lon="6.70914">
        <ele>1683.6</ele>
        <time>2026-06-27T09:08:41Z</time>
      </trkpt>
      <trkpt lat="46.12981" lon="6.70914">
        <ele>1683.6</ele>
        <time>2026-06-27T09:08:42Z</time>
      </trkpt>
      <trkpt lat="46.12981" lon="6.70914">
        <ele>1683.6</ele>
        <time>2026-06-27T09:08:43Z</time>
      </trkpt>
      <trkpt lat="46.12981" lon="6.70914">
        <ele>1683.6</ele>
        <time>2026-06-27T09:08:44Z</time>
      </trkpt>
      <trkpt lat="46.12981" lon="6.70914">
        <ele>1683.6</ele>
        <time>2026-06-27T09:08:45Z</time>
      </trkpt>
      <trkpt lat="46.12981" lon="6.70914">
        <ele>1683.6</ele>
        <time>2026-06-27T09:08:46Z</time>
      </trkpt>
      <trkpt lat="46.1298" lon="6.70914">
        <ele>1683.6</ele>
        <time>2026-06-27T09:08:47Z</time>
      </trkpt>
      <trkpt lat="46.1298" lon="6.70914">
        <ele>1683.7</ele>
        <time>2026-06-27T09:08:48Z</time>
      </trkpt>
      <trkpt lat="46.1298" lon="6.70914">
        <ele>1683.8</ele>
        <time>2026-06-27T09:08:49Z</time>
      </trkpt>
      <trkpt lat="46.1298" lon="6.70914">
        <ele>1683.8</ele>
        <time>2026-06-27T09:08:50Z</time>
      </trkpt>
      <trkpt lat="46.1298" lon="6.70914">
        <ele>1683.8</ele>
        <time>2026-06-27T09:08:51Z</time>
      </trkpt>
      <trkpt lat="46.12981" lon="6.70914">
        <ele>1683.8</ele>
        <time>2026-06-27T09:08:52Z</time>
      </trkpt>
      <trkpt lat="46.12981" lon="6.70914">
        <ele>1683.8</ele>
        <time>2026-06-27T09:08:53Z</time>
      </trkpt>
      <trkpt lat="46.12981" lon="6.70914">
        <ele>1683.7</ele>
        <time>2026-06-27T09:08:54Z</time>
      </trkpt>
      <trkpt lat="46.12981" lon="6.70914">
        <ele>1683.8</ele>
        <time>2026-06-27T09:08:55Z</time>
      </trkpt>
      <trkpt lat="46.12981" lon="6.70914">
        <ele>1683.7</ele>
        <time>2026-06-27T09:08:56Z</time>
      </trkpt>
      <trkpt lat="46.12981" lon="6.70914">
        <ele>1683.6</ele>
        <time>2026-06-27T09:08:57Z</time>
      </trkpt>
      <trkpt lat="46.12981" lon="6.70914">
        <ele>1683.6</ele>
        <time>2026-06-27T09:08:58Z</time>
      </trkpt>
      <trkpt lat="46.12981" lon="6.70914">
        <ele>1683.5</ele>
        <time>2026-06-27T09:08:59Z</time>
      </trkpt>
      <trkpt lat="46.12981" lon="6.70913">
        <ele>1683.5</ele>
        <time>2026-06-27T09:09:00Z</time>
      </trkpt>
      <trkpt lat="46.1298" lon="6.70912">
        <ele>1683.4</ele>
        <time>2026-06-27T09:09:01Z</time>
      </trkpt>
      <trkpt lat="46.12981" lon="6.7091">
        <ele>1683.4</ele>
        <time>2026-06-27T09:09:02Z</time>
      </trkpt>
      <trkpt lat="46.12981" lon="6.70908">
        <ele>1683.5</ele>
        <time>2026-06-27T09:09:03Z</time>
      </trkpt>
      <trkpt lat="46.1298" lon="6.70906">
        <ele>1683.5</ele>
        <time>2026-06-27T09:09:04Z</time>
      </trkpt>
      <trkpt lat="46.1298" lon="6.70905">
        <ele>1683.6</ele>
        <time>2026-06-27T09:09:05Z</time>
      </trkpt>
      <trkpt lat="46.1298" lon="6.70906">
        <ele>1683.5</ele>
        <time>2026-06-27T09:09:06Z</time>
      </trkpt>
      <trkpt lat="46.1298" lon="6.70907">
        <ele>1683.5</ele>
        <time>2026-06-27T09:09:07Z</time>
      </trkpt>
      <trkpt lat="46.1298" lon="6.70907">
        <ele>1683.5</ele>
        <time>2026-06-27T09:09:08Z</time>
      </trkpt>
      <trkpt lat="46.1298" lon="6.70907">
        <ele>1683.5</ele>
        <time>2026-06-27T09:09:09Z</time>
      </trkpt>
      <trkpt lat="46.12979" lon="6.70907">
        <ele>1683.5</ele>
        <time>2026-06-27T09:09:10Z</time>
      </trkpt>
      <trkpt lat="46.12979" lon="6.70907">
        <ele>1683.5</ele>
        <time>2026-06-27T09:09:11Z</time>
      </trkpt>
      <trkpt lat="46.12979" lon="6.70908">
        <ele>1683.6</ele>
        <time>2026-06-27T09:09:12Z</time>
      </trkpt>
      <trkpt lat="46.12979" lon="6.70908">
        <ele>1683.6</ele>
        <time>2026-06-27T09:09:13Z</time>
      </trkpt>
      <trkpt lat="46.1298" lon="6.70907">
        <ele>1683.7</ele>
        <time>2026-06-27T09:09:14Z</time>
      </trkpt>
      <trkpt lat="46.1298" lon="6.70907">
        <ele>1683.7</ele>
        <time>2026-06-27T09:09:15Z</time>
      </trkpt>
      <trkpt lat="46.1298" lon="6.70907">
        <ele>1683.7</ele>
        <time>2026-06-27T09:09:16Z</time>
      </trkpt>
      <trkpt lat="46.1298" lon="6.70907">
        <ele>1683.8</ele>
        <time>2026-06-27T09:09:17Z</time>
      </trkpt>
      <trkpt lat="46.1298" lon="6.70908">
        <ele>1683.9</ele>
        <time>2026-06-27T09:09:18Z</time>
      </trkpt>
      <trkpt lat="46.1298" lon="6.70908">
        <ele>1683.9</ele>
        <time>2026-06-27T09:09:19Z</time>
      </trkpt>
      <trkpt lat="46.1298" lon="6.70908">
        <ele>1684</ele>
        <time>2026-06-27T09:09:20Z</time>
      </trkpt>
      <trkpt lat="46.1298" lon="6.70908">
        <ele>1684</ele>
        <time>2026-06-27T09:09:21Z</time>
      </trkpt>
      <trkpt lat="46.12981" lon="6.70908">
        <ele>1684</ele>
        <time>2026-06-27T09:09:22Z</time>
      </trkpt>
      <trkpt lat="46.12981" lon="6.70908">
        <ele>1684</ele>
        <time>2026-06-27T09:09:23Z</time>
      </trkpt>
      <trkpt lat="46.12981" lon="6.70908">
        <ele>1683.9</ele>
        <time>2026-06-27T09:09:24Z</time>
      </trkpt>
      <trkpt lat="46.12981" lon="6.70908">
        <ele>1683.9</ele>
        <time>2026-06-27T09:09:25Z</time>
      </trkpt>
      <trkpt lat="46.1298" lon="6.70908">
        <ele>1683.8</ele>
        <time>2026-06-27T09:09:26Z</time>
      </trkpt>
      <trkpt lat="46.1298" lon="6.70908">
        <ele>1683.8</ele>
        <time>2026-06-27T09:09:27Z</time>
      </trkpt>
      <trkpt lat="46.12979" lon="6.70909">
        <ele>1683.9</ele>
        <time>2026-06-27T09:09:28Z</time>
      </trkpt>
      <trkpt lat="46.12979" lon="6.7091">
        <ele>1683.9</ele>
        <time>2026-06-27T09:09:29Z</time>
      </trkpt>
      <trkpt lat="46.12979" lon="6.7091">
        <ele>1684</ele>
        <time>2026-06-27T09:09:30Z</time>
      </trkpt>
      <trkpt lat="46.12979" lon="6.70911">
        <ele>1684</ele>
        <time>2026-06-27T09:09:31Z</time>
      </trkpt>
      <trkpt lat="46.12979" lon="6.70911">
        <ele>1684</ele>
        <time>2026-06-27T09:09:32Z</time>
      </trkpt>
      <trkpt lat="46.12979" lon="6.70911">
        <ele>1684.1</ele>
        <time>2026-06-27T09:09:33Z</time>
      </trkpt>
      <trkpt lat="46.12979" lon="6.70911">
        <ele>1684.1</ele>
        <time>2026-06-27T09:09:34Z</time>
      </trkpt>
      <trkpt lat="46.12979" lon="6.70912">
        <ele>1684.2</ele>
        <time>2026-06-27T09:09:35Z</time>
      </trkpt>
      <trkpt lat="46.12979" lon="6.70912">
        <ele>1684.2</ele>
        <time>2026-06-27T09:09:36Z</time>
      </trkpt>
      <trkpt lat="46.12979" lon="6.70911">
        <ele>1684.3</ele>
        <time>2026-06-27T09:09:37Z</time>
      </trkpt>
      <trkpt lat="46.12979" lon="6.70911">
        <ele>1684.3</ele>
        <time>2026-06-27T09:09:38Z</time>
      </trkpt>
      <trkpt lat="46.12979" lon="6.70911">
        <ele>1684.3</ele>
        <time>2026-06-27T09:09:39Z</time>
      </trkpt>
      <trkpt lat="46.12979" lon="6.70911">
        <ele>1684.3</ele>
        <time>2026-06-27T09:09:40Z</time>
      </trkpt>
      <trkpt lat="46.12978" lon="6.70911">
        <ele>1684.3</ele>
        <time>2026-06-27T09:09:41Z</time>
      </trkpt>
      <trkpt lat="46.12978" lon="6.70911">
        <ele>1684.3</ele>
        <time>2026-06-27T09:09:42Z</time>
      </trkpt>
      <trkpt lat="46.12978" lon="6.70911">
        <ele>1684.2</ele>
        <time>2026-06-27T09:09:43Z</time>
      </trkpt>
      <trkpt lat="46.12978" lon="6.70911">
        <ele>1684.2</ele>
        <time>2026-06-27T09:09:44Z</time>
      </trkpt>
      <trkpt lat="46.12978" lon="6.70912">
        <ele>1684.2</ele>
        <time>2026-06-27T09:09:45Z</time>
      </trkpt>
      <trkpt lat="46.12978" lon="6.70912">
        <ele>1684.1</ele>
        <time>2026-06-27T09:09:46Z</time>
      </trkpt>
      <trkpt lat="46.12978" lon="6.70912">
        <ele>1684</ele>
        <time>2026-06-27T09:09:47Z</time>
      </trkpt>
      <trkpt lat="46.12978" lon="6.70912">
        <ele>1683.9</ele>
        <time>2026-06-27T09:09:48Z</time>
      </trkpt>
      <trkpt lat="46.12978" lon="6.70912">
        <ele>1683.8</ele>
        <time>2026-06-27T09:09:49Z</time>
      </trkpt>
      <trkpt lat="46.12978" lon="6.70912">
        <ele>1683.8</ele>
        <time>2026-06-27T09:09:50Z</time>
      </trkpt>
      <trkpt lat="46.12978" lon="6.70912">
        <ele>1683.8</ele>
        <time>2026-06-27T09:09:51Z</time>
      </trkpt>
      <trkpt lat="46.12978" lon="6.70912">
        <ele>1683.9</ele>
        <time>2026-06-27T09:09:52Z</time>
      </trkpt>
      <trkpt lat="46.12977" lon="6.70912">
        <ele>1683.9</ele>
        <time>2026-06-27T09:09:53Z</time>
      </trkpt>
      <trkpt lat="46.12977" lon="6.70911">
        <ele>1683.9</ele>
        <time>2026-06-27T09:09:54Z</time>
      </trkpt>
      <trkpt lat="46.12978" lon="6.70911">
        <ele>1684</ele>
        <time>2026-06-27T09:09:55Z</time>
      </trkpt>
      <trkpt lat="46.12978" lon="6.70911">
        <ele>1684</ele>
        <time>2026-06-27T09:09:56Z</time>
      </trkpt>
      <trkpt lat="46.12978" lon="6.70911">
        <ele>1684</ele>
        <time>2026-06-27T09:09:57Z</time>
      </trkpt>
      <trkpt lat="46.12978" lon="6.70911">
        <ele>1683.9</ele>
        <time>2026-06-27T09:09:58Z</time>
      </trkpt>
      <trkpt lat="46.12978" lon="6.70911">
        <ele>1683.8</ele>
        <time>2026-06-27T09:09:59Z</time>
      </trkpt>
      <trkpt lat="46.12978" lon="6.7091">
        <ele>1683.8</ele>
        <time>2026-06-27T09:10:00Z</time>
      </trkpt>
      <trkpt lat="46.12978" lon="6.7091">
        <ele>1683.7</ele>
        <time>2026-06-27T09:10:01Z</time>
      </trkpt>
      <trkpt lat="46.12978" lon="6.7091">
        <ele>1683.7</ele>
        <time>2026-06-27T09:10:02Z</time>
      </trkpt>
      <trkpt lat="46.12978" lon="6.7091">
        <ele>1683.7</ele>
        <time>2026-06-27T09:10:03Z</time>
      </trkpt>
      <trkpt lat="46.12978" lon="6.7091">
        <ele>1683.7</ele>
        <time>2026-06-27T09:10:04Z</time>
      </trkpt>
      <trkpt lat="46.12978" lon="6.7091">
        <ele>1683.8</ele>
        <time>2026-06-27T09:10:05Z</time>
      </trkpt>
      <trkpt lat="46.12978" lon="6.7091">
        <ele>1683.8</ele>
        <time>2026-06-27T09:10:06Z</time>
      </trkpt>
      <trkpt lat="46.12978" lon="6.7091">
        <ele>1683.8</ele>
        <time>2026-06-27T09:10:07Z</time>
      </trkpt>
      <trkpt lat="46.12978" lon="6.7091">
        <ele>1683.9</ele>
        <time>2026-06-27T09:10:08Z</time>
      </trkpt>
      <trkpt lat="46.12978" lon="6.7091">
        <ele>1683.9</ele>
        <time>2026-06-27T09:10:09Z</time>
      </trkpt>
      <trkpt lat="46.12978" lon="6.70911">
        <ele>1683.9</ele>
        <time>2026-06-27T09:10:10Z</time>
      </trkpt>
      <trkpt lat="46.12978" lon="6.70911">
        <ele>1684</ele>
        <time>2026-06-27T09:10:11Z</time>
      </trkpt>
      <trkpt lat="46.12978" lon="6.70911">
        <ele>1683.9</ele>
        <time>2026-06-27T09:10:12Z</time>
      </trkpt>
      <trkpt lat="46.12978" lon="6.70911">
        <ele>1683.9</ele>
        <time>2026-06-27T09:10:13Z</time>
      </trkpt>
      <trkpt lat="46.12978" lon="6.70911">
        <ele>1683.9</ele>
        <time>2026-06-27T09:10:14Z</time>
      </trkpt>
      <trkpt lat="46.12978" lon="6.70911">
        <ele>1683.9</ele>
        <time>2026-06-27T09:10:15Z</time>
      </trkpt>
      <trkpt lat="46.12978" lon="6.70911">
        <ele>1683.9</ele>
        <time>2026-06-27T09:10:16Z</time>
      </trkpt>
      <trkpt lat="46.12978" lon="6.70911">
        <ele>1683.9</ele>
        <time>2026-06-27T09:10:17Z</time>
      </trkpt>
      <trkpt lat="46.12978" lon="6.70911">
        <ele>1683.8</ele>
        <time>2026-06-27T09:10:18Z</time>
      </trkpt>
      <trkpt lat="46.12978" lon="6.70911">
        <ele>1683.7</ele>
        <time>2026-06-27T09:10:19Z</time>
      </trkpt>
      <trkpt lat="46.12978" lon="6.70911">
        <ele>1683.7</ele>
        <time>2026-06-27T09:10:20Z</time>
      </trkpt>
      <trkpt lat="46.12978" lon="6.70911">
        <ele>1683.7</ele>
        <time>2026-06-27T09:10:21Z</time>
      </trkpt>
      <trkpt lat="46.12978" lon="6.70911">
        <ele>1683.8</ele>
        <time>2026-06-27T09:10:22Z</time>
      </trkpt>
      <trkpt lat="46.12978" lon="6.70911">
        <ele>1683.9</ele>
        <time>2026-06-27T09:10:23Z</time>
      </trkpt>
      <trkpt lat="46.12978" lon="6.70911">
        <ele>1683.9</ele>
        <time>2026-06-27T09:10:24Z</time>
      </trkpt>
      <trkpt lat="46.12978" lon="6.70911">
        <ele>1683.9</ele>
        <time>2026-06-27T09:10:25Z</time>
      </trkpt>
      <trkpt lat="46.12978" lon="6.70911">
        <ele>1683.8</ele>
        <time>2026-06-27T09:10:26Z</time>
      </trkpt>
      <trkpt lat="46.12978" lon="6.70912">
        <ele>1683.8</ele>
        <time>2026-06-27T09:10:27Z</time>
      </trkpt>
      <trkpt lat="46.12978" lon="6.70912">
        <ele>1684</ele>
        <time>2026-06-27T09:10:28Z</time>
      </trkpt>
      <trkpt lat="46.12978" lon="6.70912">
        <ele>1684</ele>
        <time>2026-06-27T09:10:29Z</time>
      </trkpt>
      <trkpt lat="46.12978" lon="6.70912">
        <ele>1684</ele>
        <time>2026-06-27T09:10:30Z</time>
      </trkpt>
      <trkpt lat="46.12978" lon="6.70913">
        <ele>1684</ele>
        <time>2026-06-27T09:10:31Z</time>
      </trkpt>
      <trkpt lat="46.12978" lon="6.70913">
        <ele>1684</ele>
        <time>2026-06-27T09:10:32Z</time>
      </trkpt>
      <trkpt lat="46.12978" lon="6.70913">
        <ele>1684</ele>
        <time>2026-06-27T09:10:33Z</time>
      </trkpt>
      <trkpt lat="46.12978" lon="6.70913">
        <ele>1684.1</ele>
        <time>2026-06-27T09:10:34Z</time>
      </trkpt>
      <trkpt lat="46.12978" lon="6.70913">
        <ele>1684.1</ele>
        <time>2026-06-27T09:10:35Z</time>
      </trkpt>
      <trkpt lat="46.12978" lon="6.70914">
        <ele>1684.1</ele>
        <time>2026-06-27T09:10:36Z</time>
      </trkpt>
      <trkpt lat="46.12978" lon="6.70914">
        <ele>1684.1</ele>
        <time>2026-06-27T09:10:37Z</time>
      </trkpt>
      <trkpt lat="46.12978" lon="6.70914">
        <ele>1684.1</ele>
        <time>2026-06-27T09:10:38Z</time>
      </trkpt>
      <trkpt lat="46.12978" lon="6.70914">
        <ele>1684.1</ele>
        <time>2026-06-27T09:10:39Z</time>
      </trkpt>
      <trkpt lat="46.12978" lon="6.70914">
        <ele>1684.1</ele>
        <time>2026-06-27T09:10:40Z</time>
      </trkpt>
      <trkpt lat="46.12978" lon="6.70914">
        <ele>1684.1</ele>
        <time>2026-06-27T09:10:41Z</time>
      </trkpt>
      <trkpt lat="46.12978" lon="6.70914">
        <ele>1684.1</ele>
        <time>2026-06-27T09:10:42Z</time>
      </trkpt>
      <trkpt lat="46.12978" lon="6.70914">
        <ele>1684</ele>
        <time>2026-06-27T09:10:43Z</time>
      </trkpt>
      <trkpt lat="46.12978" lon="6.70913">
        <ele>1683.9</ele>
        <time>2026-06-27T09:10:44Z</time>
      </trkpt>
      <trkpt lat="46.12977" lon="6.70913">
        <ele>1683.9</ele>
        <time>2026-06-27T09:10:45Z</time>
      </trkpt>
      <trkpt lat="46.12977" lon="6.70913">
        <ele>1683.8</ele>
        <time>2026-06-27T09:10:46Z</time>
      </trkpt>
      <trkpt lat="46.12977" lon="6.70913">
        <ele>1683.8</ele>
        <time>2026-06-27T09:10:47Z</time>
      </trkpt>
      <trkpt lat="46.12977" lon="6.70913">
        <ele>1683.8</ele>
        <time>2026-06-27T09:10:48Z</time>
      </trkpt>
      <trkpt lat="46.12977" lon="6.70913">
        <ele>1683.8</ele>
        <time>2026-06-27T09:10:49Z</time>
      </trkpt>
      <trkpt lat="46.12977" lon="6.70913">
        <ele>1683.7</ele>
        <time>2026-06-27T09:10:50Z</time>
      </trkpt>
      <trkpt lat="46.12977" lon="6.70913">
        <ele>1683.7</ele>
        <time>2026-06-27T09:10:51Z</time>
      </trkpt>
      <trkpt lat="46.12977" lon="6.70913">
        <ele>1683.8</ele>
        <time>2026-06-27T09:10:52Z</time>
      </trkpt>
      <trkpt lat="46.12977" lon="6.70913">
        <ele>1683.8</ele>
        <time>2026-06-27T09:10:53Z</time>
      </trkpt>
      <trkpt lat="46.12977" lon="6.70913">
        <ele>1683.8</ele>
        <time>2026-06-27T09:10:54Z</time>
      </trkpt>
      <trkpt lat="46.12977" lon="6.70913">
        <ele>1683.8</ele>
        <time>2026-06-27T09:10:55Z</time>
      </trkpt>
      <trkpt lat="46.12977" lon="6.70913">
        <ele>1683.8</ele>
        <time>2026-06-27T09:10:56Z</time>
      </trkpt>
      <trkpt lat="46.12977" lon="6.70913">
        <ele>1683.9</ele>
        <time>2026-06-27T09:10:57Z</time>
      </trkpt>
      <trkpt lat="46.12977" lon="6.70913">
        <ele>1683.8</ele>
        <time>2026-06-27T09:10:58Z</time>
      </trkpt>
      <trkpt lat="46.12977" lon="6.70912">
        <ele>1683.8</ele>
        <time>2026-06-27T09:10:59Z</time>
      </trkpt>
      <trkpt lat="46.12977" lon="6.70912">
        <ele>1683.8</ele>
        <time>2026-06-27T09:11:00Z</time>
      </trkpt>
      <trkpt lat="46.12977" lon="6.70912">
        <ele>1683.8</ele>
        <time>2026-06-27T09:11:01Z</time>
      </trkpt>
      <trkpt lat="46.12977" lon="6.70912">
        <ele>1683.8</ele>
        <time>2026-06-27T09:11:02Z</time>
      </trkpt>
      <trkpt lat="46.12977" lon="6.70912">
        <ele>1683.8</ele>
        <time>2026-06-27T09:11:03Z</time>
      </trkpt>
      <trkpt lat="46.12977" lon="6.70913">
        <ele>1683.8</ele>
        <time>2026-06-27T09:11:04Z</time>
      </trkpt>
      <trkpt lat="46.12977" lon="6.70913">
        <ele>1683.9</ele>
        <time>2026-06-27T09:11:05Z</time>
      </trkpt>
      <trkpt lat="46.12977" lon="6.70913">
        <ele>1683.9</ele>
        <time>2026-06-27T09:11:06Z</time>
      </trkpt>
      <trkpt lat="46.12977" lon="6.70913">
        <ele>1684</ele>
        <time>2026-06-27T09:11:07Z</time>
      </trkpt>
      <trkpt lat="46.12977" lon="6.70913">
        <ele>1684</ele>
        <time>2026-06-27T09:11:08Z</time>
      </trkpt>
      <trkpt lat="46.12977" lon="6.70913">
        <ele>1684</ele>
        <time>2026-06-27T09:11:09Z</time>
      </trkpt>
      <trkpt lat="46.12977" lon="6.70913">
        <ele>1684</ele>
        <time>2026-06-27T09:11:10Z</time>
      </trkpt>
      <trkpt lat="46.12977" lon="6.70913">
        <ele>1684</ele>
        <time>2026-06-27T09:11:11Z</time>
      </trkpt>
      <trkpt lat="46.12977" lon="6.70913">
        <ele>1684</ele>
        <time>2026-06-27T09:11:12Z</time>
      </trkpt>
      <trkpt lat="46.12977" lon="6.70913">
        <ele>1683.9</ele>
        <time>2026-06-27T09:11:13Z</time>
      </trkpt>
      <trkpt lat="46.12977" lon="6.70913">
        <ele>1683.9</ele>
        <time>2026-06-27T09:11:14Z</time>
      </trkpt>
      <trkpt lat="46.12977" lon="6.70913">
        <ele>1684</ele>
        <time>2026-06-27T09:11:15Z</time>
      </trkpt>
      <trkpt lat="46.12977" lon="6.70913">
        <ele>1684</ele>
        <time>2026-06-27T09:11:16Z</time>
      </trkpt>
      <trkpt lat="46.12977" lon="6.70913">
        <ele>1684</ele>
        <time>2026-06-27T09:11:17Z</time>
      </trkpt>
      <trkpt lat="46.12977" lon="6.70913">
        <ele>1684</ele>
        <time>2026-06-27T09:11:18Z</time>
      </trkpt>
      <trkpt lat="46.12977" lon="6.70913">
        <ele>1683.9</ele>
        <time>2026-06-27T09:11:19Z</time>
      </trkpt>
      <trkpt lat="46.12977" lon="6.70913">
        <ele>1683.9</ele>
        <time>2026-06-27T09:11:20Z</time>
      </trkpt>
      <trkpt lat="46.12977" lon="6.70913">
        <ele>1683.9</ele>
        <time>2026-06-27T09:11:21Z</time>
      </trkpt>
      <trkpt lat="46.12977" lon="6.70913">
        <ele>1683.9</ele>
        <time>2026-06-27T09:11:22Z</time>
      </trkpt>
      <trkpt lat="46.12977" lon="6.70913">
        <ele>1683.9</ele>
        <time>2026-06-27T09:11:23Z</time>
      </trkpt>
      <trkpt lat="46.12977" lon="6.70913">
        <ele>1683.8</ele>
        <time>2026-06-27T09:11:24Z</time>
      </trkpt>
      <trkpt lat="46.12977" lon="6.70913">
        <ele>1683.9</ele>
        <time>2026-06-27T09:11:25Z</time>
      </trkpt>
      <trkpt lat="46.12977" lon="6.70913">
        <ele>1684</ele>
        <time>2026-06-27T09:11:26Z</time>
      </trkpt>
      <trkpt lat="46.12977" lon="6.70913">
        <ele>1684</ele>
        <time>2026-06-27T09:11:27Z</time>
      </trkpt>
      <trkpt lat="46.12977" lon="6.70913">
        <ele>1684</ele>
        <time>2026-06-27T09:11:28Z</time>
      </trkpt>
      <trkpt lat="46.12977" lon="6.70913">
        <ele>1684</ele>
        <time>2026-06-27T09:11:29Z</time>
      </trkpt>
      <trkpt lat="46.12977" lon="6.70913">
        <ele>1684</ele>
        <time>2026-06-27T09:11:30Z</time>
      </trkpt>
      <trkpt lat="46.12977" lon="6.70913">
        <ele>1684</ele>
        <time>2026-06-27T09:11:31Z</time>
      </trkpt>
      <trkpt lat="46.12977" lon="6.70913">
        <ele>1684</ele>
        <time>2026-06-27T09:11:32Z</time>
      </trkpt>
      <trkpt lat="46.12977" lon="6.70913">
        <ele>1684</ele>
        <time>2026-06-27T09:11:33Z</time>
      </trkpt>
      <trkpt lat="46.12977" lon="6.70913">
        <ele>1684</ele>
        <time>2026-06-27T09:11:34Z</time>
      </trkpt>
      <trkpt lat="46.12977" lon="6.70913">
        <ele>1684</ele>
        <time>2026-06-27T09:11:35Z</time>
      </trkpt>
      <trkpt lat="46.12977" lon="6.70913">
        <ele>1683.9</ele>
        <time>2026-06-27T09:11:36Z</time>
      </trkpt>
      <trkpt lat="46.12977" lon="6.70913">
        <ele>1683.9</ele>
        <time>2026-06-27T09:11:37Z</time>
      </trkpt>
      <trkpt lat="46.12977" lon="6.70913">
        <ele>1683.9</ele>
        <time>2026-06-27T09:11:38Z</time>
      </trkpt>
      <trkpt lat="46.12977" lon="6.70913">
        <ele>1683.9</ele>
        <time>2026-06-27T09:11:39Z</time>
      </trkpt>
      <trkpt lat="46.12976" lon="6.70913">
        <ele>1683.9</ele>
        <time>2026-06-27T09:11:40Z</time>
      </trkpt>
      <trkpt lat="46.12976" lon="6.70913">
        <ele>1683.9</ele>
        <time>2026-06-27T09:11:41Z</time>
      </trkpt>
      <trkpt lat="46.12976" lon="6.70913">
        <ele>1683.7</ele>
        <time>2026-06-27T09:11:42Z</time>
      </trkpt>
      <trkpt lat="46.12977" lon="6.70914">
        <ele>1683.7</ele>
        <time>2026-06-27T09:11:43Z</time>
      </trkpt>
      <trkpt lat="46.12978" lon="6.70914">
        <ele>1683.8</ele>
        <time>2026-06-27T09:11:44Z</time>
      </trkpt>
      <trkpt lat="46.12978" lon="6.70914">
        <ele>1683.8</ele>
        <time>2026-06-27T09:11:45Z</time>
      </trkpt>
      <trkpt lat="46.12978" lon="6.70914">
        <ele>1683.9</ele>
        <time>2026-06-27T09:11:46Z</time>
      </trkpt>
      <trkpt lat="46.12977" lon="6.70914">
        <ele>1683.9</ele>
        <time>2026-06-27T09:11:47Z</time>
      </trkpt>
      <trkpt lat="46.12977" lon="6.70914">
        <ele>1683.9</ele>
        <time>2026-06-27T09:11:48Z</time>
      </trkpt>
      <trkpt lat="46.12977" lon="6.70913">
        <ele>1683.8</ele>
        <time>2026-06-27T09:11:49Z</time>
      </trkpt>
      <trkpt lat="46.12977" lon="6.70913">
        <ele>1683.8</ele>
        <time>2026-06-27T09:11:50Z</time>
      </trkpt>
      <trkpt lat="46.12977" lon="6.70913">
        <ele>1683.8</ele>
        <time>2026-06-27T09:11:51Z</time>
      </trkpt>
      <trkpt lat="46.12977" lon="6.70913">
        <ele>1683.7</ele>
        <time>2026-06-27T09:11:52Z</time>
      </trkpt>
      <trkpt lat="46.12977" lon="6.70913">
        <ele>1683.7</ele>
        <time>2026-06-27T09:11:53Z</time>
      </trkpt>
      <trkpt lat="46.12977" lon="6.70913">
        <ele>1683.7</ele>
        <time>2026-06-27T09:11:54Z</time>
      </trkpt>
      <trkpt lat="46.12977" lon="6.70913">
        <ele>1683.8</ele>
        <time>2026-06-27T09:11:55Z</time>
      </trkpt>
      <trkpt lat="46.12977" lon="6.70913">
        <ele>1683.7</ele>
        <time>2026-06-27T09:11:56Z</time>
      </trkpt>
      <trkpt lat="46.12977" lon="6.70914">
        <ele>1683.7</ele>
        <time>2026-06-27T09:11:57Z</time>
      </trkpt>
      <trkpt lat="46.12976" lon="6.70914">
        <ele>1683.7</ele>
        <time>2026-06-27T09:11:58Z</time>
      </trkpt>
      <trkpt lat="46.12977" lon="6.70913">
        <ele>1683.7</ele>
        <time>2026-06-27T09:11:59Z</time>
      </trkpt>
      <trkpt lat="46.12976" lon="6.70914">
        <ele>1683.7</ele>
        <time>2026-06-27T09:12:00Z</time>
      </trkpt>
      <trkpt lat="46.12977" lon="6.70914">
        <ele>1683.7</ele>
        <time>2026-06-27T09:12:01Z</time>
      </trkpt>
      <trkpt lat="46.12976" lon="6.70914">
        <ele>1683.8</ele>
        <time>2026-06-27T09:12:02Z</time>
      </trkpt>
      <trkpt lat="46.12976" lon="6.70914">
        <ele>1683.8</ele>
        <time>2026-06-27T09:12:03Z</time>
      </trkpt>
      <trkpt lat="46.12976" lon="6.70915">
        <ele>1683.8</ele>
        <time>2026-06-27T09:12:04Z</time>
      </trkpt>
      <trkpt lat="46.12976" lon="6.70915">
        <ele>1683.9</ele>
        <time>2026-06-27T09:12:05Z</time>
      </trkpt>
      <trkpt lat="46.12976" lon="6.70915">
        <ele>1684</ele>
        <time>2026-06-27T09:12:06Z</time>
      </trkpt>
      <trkpt lat="46.12976" lon="6.70915">
        <ele>1684</ele>
        <time>2026-06-27T09:12:07Z</time>
      </trkpt>
      <trkpt lat="46.12976" lon="6.70915">
        <ele>1684</ele>
        <time>2026-06-27T09:12:08Z</time>
      </trkpt>
      <trkpt lat="46.12976" lon="6.70914">
        <ele>1684</ele>
        <time>2026-06-27T09:12:09Z</time>
      </trkpt>
      <trkpt lat="46.12976" lon="6.70914">
        <ele>1684</ele>
        <time>2026-06-27T09:12:10Z</time>
      </trkpt>
      <trkpt lat="46.12976" lon="6.70914">
        <ele>1684.1</ele>
        <time>2026-06-27T09:12:11Z</time>
      </trkpt>
      <trkpt lat="46.12976" lon="6.70914">
        <ele>1684.1</ele>
        <time>2026-06-27T09:12:12Z</time>
      </trkpt>
      <trkpt lat="46.12977" lon="6.70913">
        <ele>1684.1</ele>
        <time>2026-06-27T09:12:13Z</time>
      </trkpt>
      <trkpt lat="46.12977" lon="6.70913">
        <ele>1684.1</ele>
        <time>2026-06-27T09:12:14Z</time>
      </trkpt>
      <trkpt lat="46.12977" lon="6.70913">
        <ele>1684</ele>
        <time>2026-06-27T09:12:15Z</time>
      </trkpt>
      <trkpt lat="46.12977" lon="6.70913">
        <ele>1684.1</ele>
        <time>2026-06-27T09:12:16Z</time>
      </trkpt>
      <trkpt lat="46.12977" lon="6.70913">
        <ele>1684.1</ele>
        <time>2026-06-27T09:12:17Z</time>
      </trkpt>
      <trkpt lat="46.12977" lon="6.70913">
        <ele>1684.1</ele>
        <time>2026-06-27T09:12:18Z</time>
      </trkpt>
      <trkpt lat="46.12977" lon="6.70913">
        <ele>1684.1</ele>
        <time>2026-06-27T09:12:19Z</time>
      </trkpt>
      <trkpt lat="46.12977" lon="6.70913">
        <ele>1684.1</ele>
        <time>2026-06-27T09:12:20Z</time>
      </trkpt>
      <trkpt lat="46.12977" lon="6.70913">
        <ele>1684.1</ele>
        <time>2026-06-27T09:12:21Z</time>
      </trkpt>
      <trkpt lat="46.12977" lon="6.70914">
        <ele>1684.1</ele>
        <time>2026-06-27T09:12:22Z</time>
      </trkpt>
      <trkpt lat="46.12977" lon="6.70914">
        <ele>1684</ele>
        <time>2026-06-27T09:12:23Z</time>
      </trkpt>
      <trkpt lat="46.12977" lon="6.70914">
        <ele>1684</ele>
        <time>2026-06-27T09:12:24Z</time>
      </trkpt>
      <trkpt lat="46.12977" lon="6.70914">
        <ele>1684</ele>
        <time>2026-06-27T09:12:25Z</time>
      </trkpt>
      <trkpt lat="46.12977" lon="6.70914">
        <ele>1683.9</ele>
        <time>2026-06-27T09:12:26Z</time>
      </trkpt>
      <trkpt lat="46.12977" lon="6.70913">
        <ele>1684</ele>
        <time>2026-06-27T09:12:27Z</time>
      </trkpt>
      <trkpt lat="46.12977" lon="6.70913">
        <ele>1684</ele>
        <time>2026-06-27T09:12:28Z</time>
      </trkpt>
      <trkpt lat="46.12977" lon="6.70913">
        <ele>1684</ele>
        <time>2026-06-27T09:12:29Z</time>
      </trkpt>
      <trkpt lat="46.12977" lon="6.70914">
        <ele>1684.1</ele>
        <time>2026-06-27T09:12:30Z</time>
      </trkpt>
      <trkpt lat="46.12977" lon="6.70914">
        <ele>1684.1</ele>
        <time>2026-06-27T09:12:31Z</time>
      </trkpt>
      <trkpt lat="46.12977" lon="6.70914">
        <ele>1684.1</ele>
        <time>2026-06-27T09:12:32Z</time>
      </trkpt>
      <trkpt lat="46.12977" lon="6.70914">
        <ele>1684.1</ele>
        <time>2026-06-27T09:12:33Z</time>
      </trkpt>
      <trkpt lat="46.12977" lon="6.70914">
        <ele>1684.1</ele>
        <time>2026-06-27T09:12:34Z</time>
      </trkpt>
      <trkpt lat="46.12977" lon="6.70914">
        <ele>1684.1</ele>
        <time>2026-06-27T09:12:35Z</time>
      </trkpt>
      <trkpt lat="46.12977" lon="6.70914">
        <ele>1684</ele>
        <time>2026-06-27T09:12:36Z</time>
      </trkpt>
      <trkpt lat="46.12977" lon="6.70914">
        <ele>1684</ele>
        <time>2026-06-27T09:12:37Z</time>
      </trkpt>
      <trkpt lat="46.12977" lon="6.70914">
        <ele>1683.9</ele>
        <time>2026-06-27T09:12:38Z</time>
      </trkpt>
      <trkpt lat="46.12977" lon="6.70913">
        <ele>1683.9</ele>
        <time>2026-06-27T09:12:39Z</time>
      </trkpt>
      <trkpt lat="46.12977" lon="6.70914">
        <ele>1684</ele>
        <time>2026-06-27T09:12:40Z</time>
      </trkpt>
      <trkpt lat="46.12977" lon="6.70914">
        <ele>1684</ele>
        <time>2026-06-27T09:12:41Z</time>
      </trkpt>
      <trkpt lat="46.12977" lon="6.70914">
        <ele>1684</ele>
        <time>2026-06-27T09:12:42Z</time>
      </trkpt>
      <trkpt lat="46.12977" lon="6.70913">
        <ele>1684.2</ele>
        <time>2026-06-27T09:12:43Z</time>
      </trkpt>
      <trkpt lat="46.12976" lon="6.70913">
        <ele>1684.2</ele>
        <time>2026-06-27T09:12:44Z</time>
      </trkpt>
      <trkpt lat="46.12976" lon="6.70912">
        <ele>1684.2</ele>
        <time>2026-06-27T09:12:45Z</time>
      </trkpt>
      <trkpt lat="46.12976" lon="6.70912">
        <ele>1684.2</ele>
        <time>2026-06-27T09:12:46Z</time>
      </trkpt>
      <trkpt lat="46.12976" lon="6.70911">
        <ele>1684.2</ele>
        <time>2026-06-27T09:12:47Z</time>
      </trkpt>
      <trkpt lat="46.12976" lon="6.70911">
        <ele>1684.1</ele>
        <time>2026-06-27T09:12:48Z</time>
      </trkpt>
      <trkpt lat="46.12976" lon="6.70911">
        <ele>1684.2</ele>
        <time>2026-06-27T09:12:49Z</time>
      </trkpt>
      <trkpt lat="46.12976" lon="6.70911">
        <ele>1684.3</ele>
        <time>2026-06-27T09:12:50Z</time>
      </trkpt>
      <trkpt lat="46.12976" lon="6.70911">
        <ele>1684.3</ele>
        <time>2026-06-27T09:12:51Z</time>
      </trkpt>
      <trkpt lat="46.12975" lon="6.70911">
        <ele>1684.3</ele>
        <time>2026-06-27T09:12:52Z</time>
      </trkpt>
      <trkpt lat="46.12976" lon="6.70911">
        <ele>1684.3</ele>
        <time>2026-06-27T09:12:53Z</time>
      </trkpt>
      <trkpt lat="46.12975" lon="6.70911">
        <ele>1684.2</ele>
        <time>2026-06-27T09:12:54Z</time>
      </trkpt>
      <trkpt lat="46.12975" lon="6.70911">
        <ele>1684.3</ele>
        <time>2026-06-27T09:12:55Z</time>
      </trkpt>
      <trkpt lat="46.12975" lon="6.70911">
        <ele>1684.3</ele>
        <time>2026-06-27T09:12:56Z</time>
      </trkpt>
      <trkpt lat="46.12975" lon="6.70911">
        <ele>1684.4</ele>
        <time>2026-06-27T09:12:57Z</time>
      </trkpt>
      <trkpt lat="46.12975" lon="6.70911">
        <ele>1684.4</ele>
        <time>2026-06-27T09:12:58Z</time>
      </trkpt>
      <trkpt lat="46.12974" lon="6.70912">
        <ele>1684.3</ele>
        <time>2026-06-27T09:12:59Z</time>
      </trkpt>
      <trkpt lat="46.12974" lon="6.70912">
        <ele>1684.3</ele>
        <time>2026-06-27T09:13:00Z</time>
      </trkpt>
      <trkpt lat="46.12974" lon="6.70911">
        <ele>1684.2</ele>
        <time>2026-06-27T09:13:01Z</time>
      </trkpt>
      <trkpt lat="46.12974" lon="6.70911">
        <ele>1684.2</ele>
        <time>2026-06-27T09:13:02Z</time>
      </trkpt>
      <trkpt lat="46.12974" lon="6.70911">
        <ele>1684.2</ele>
        <time>2026-06-27T09:13:03Z</time>
      </trkpt>
      <trkpt lat="46.12974" lon="6.70911">
        <ele>1684.1</ele>
        <time>2026-06-27T09:13:04Z</time>
      </trkpt>
      <trkpt lat="46.12974" lon="6.70911">
        <ele>1684.1</ele>
        <time>2026-06-27T09:13:05Z</time>
      </trkpt>
      <trkpt lat="46.12974" lon="6.70912">
        <ele>1684.1</ele>
        <time>2026-06-27T09:13:06Z</time>
      </trkpt>
      <trkpt lat="46.12974" lon="6.70913">
        <ele>1684.1</ele>
        <time>2026-06-27T09:13:07Z</time>
      </trkpt>
      <trkpt lat="46.12974" lon="6.70914">
        <ele>1684.1</ele>
        <time>2026-06-27T09:13:08Z</time>
      </trkpt>
      <trkpt lat="46.12974" lon="6.70915">
        <ele>1684.1</ele>
        <time>2026-06-27T09:13:09Z</time>
      </trkpt>
      <trkpt lat="46.12974" lon="6.70917">
        <ele>1684.1</ele>
        <time>2026-06-27T09:13:10Z</time>
      </trkpt>
      <trkpt lat="46.12975" lon="6.70918">
        <ele>1684.1</ele>
        <time>2026-06-27T09:13:11Z</time>
      </trkpt>
      <trkpt lat="46.12975" lon="6.70919">
        <ele>1684.1</ele>
        <time>2026-06-27T09:13:12Z</time>
      </trkpt>
      <trkpt lat="46.12975" lon="6.70919">
        <ele>1684.1</ele>
        <time>2026-06-27T09:13:13Z</time>
      </trkpt>
      <trkpt lat="46.12975" lon="6.70921">
        <ele>1684.1</ele>
        <time>2026-06-27T09:13:14Z</time>
      </trkpt>
      <trkpt lat="46.12975" lon="6.70922">
        <ele>1684.2</ele>
        <time>2026-06-27T09:13:15Z</time>
      </trkpt>
      <trkpt lat="46.12976" lon="6.70923">
        <ele>1684.2</ele>
        <time>2026-06-27T09:13:16Z</time>
      </trkpt>
      <trkpt lat="46.12976" lon="6.70924">
        <ele>1684.3</ele>
        <time>2026-06-27T09:13:17Z</time>
      </trkpt>
      <trkpt lat="46.12976" lon="6.70926">
        <ele>1684.3</ele>
        <time>2026-06-27T09:13:18Z</time>
      </trkpt>
      <trkpt lat="46.12976" lon="6.70927">
        <ele>1684.3</ele>
        <time>2026-06-27T09:13:19Z</time>
      </trkpt>
      <trkpt lat="46.12976" lon="6.70928">
        <ele>1684.3</ele>
        <time>2026-06-27T09:13:20Z</time>
      </trkpt>
      <trkpt lat="46.12976" lon="6.70929">
        <ele>1684.4</ele>
        <time>2026-06-27T09:13:21Z</time>
      </trkpt>
      <trkpt lat="46.12976" lon="6.7093">
        <ele>1684.5</ele>
        <time>2026-06-27T09:13:22Z</time>
      </trkpt>
      <trkpt lat="46.12976" lon="6.70932">
        <ele>1684.4</ele>
        <time>2026-06-27T09:13:23Z</time>
      </trkpt>
      <trkpt lat="46.12976" lon="6.70933">
        <ele>1684.4</ele>
        <time>2026-06-27T09:13:24Z</time>
      </trkpt>
      <trkpt lat="46.12976" lon="6.70934">
        <ele>1684.4</ele>
        <time>2026-06-27T09:13:25Z</time>
      </trkpt>
      <trkpt lat="46.12976" lon="6.70935">
        <ele>1684.4</ele>
        <time>2026-06-27T09:13:26Z</time>
      </trkpt>
      <trkpt lat="46.12976" lon="6.70936">
        <ele>1684.4</ele>
        <time>2026-06-27T09:13:27Z</time>
      </trkpt>
      <trkpt lat="46.12977" lon="6.70937">
        <ele>1684.4</ele>
        <time>2026-06-27T09:13:28Z</time>
      </trkpt>
      <trkpt lat="46.12976" lon="6.70938">
        <ele>1684.5</ele>
        <time>2026-06-27T09:13:29Z</time>
      </trkpt>
      <trkpt lat="46.12976" lon="6.7094">
        <ele>1684.5</ele>
        <time>2026-06-27T09:13:30Z</time>
      </trkpt>
      <trkpt lat="46.12976" lon="6.70941">
        <ele>1684.5</ele>
        <time>2026-06-27T09:13:31Z</time>
      </trkpt>
      <trkpt lat="46.12976" lon="6.70942">
        <ele>1684.5</ele>
        <time>2026-06-27T09:13:32Z</time>
      </trkpt>
      <trkpt lat="46.12976" lon="6.70943">
        <ele>1684.5</ele>
        <time>2026-06-27T09:13:33Z</time>
      </trkpt>
      <trkpt lat="46.12976" lon="6.70945">
        <ele>1684.6</ele>
        <time>2026-06-27T09:13:34Z</time>
      </trkpt>
      <trkpt lat="46.12975" lon="6.70946">
        <ele>1684.6</ele>
        <time>2026-06-27T09:13:35Z</time>
      </trkpt>
      <trkpt lat="46.12975" lon="6.70947">
        <ele>1684.7</ele>
        <time>2026-06-27T09:13:36Z</time>
      </trkpt>
      <trkpt lat="46.12975" lon="6.70948">
        <ele>1684.7</ele>
        <time>2026-06-27T09:13:37Z</time>
      </trkpt>
      <trkpt lat="46.12975" lon="6.70949">
        <ele>1684.7</ele>
        <time>2026-06-27T09:13:38Z</time>
      </trkpt>
      <trkpt lat="46.12974" lon="6.70951">
        <ele>1684.8</ele>
        <time>2026-06-27T09:13:39Z</time>
      </trkpt>
      <trkpt lat="46.12974" lon="6.70952">
        <ele>1684.8</ele>
        <time>2026-06-27T09:13:40Z</time>
      </trkpt>
      <trkpt lat="46.12974" lon="6.70953">
        <ele>1684.8</ele>
        <time>2026-06-27T09:13:41Z</time>
      </trkpt>
      <trkpt lat="46.12974" lon="6.70955">
        <ele>1684.8</ele>
        <time>2026-06-27T09:13:42Z</time>
      </trkpt>
      <trkpt lat="46.12974" lon="6.70956">
        <ele>1684.9</ele>
        <time>2026-06-27T09:13:43Z</time>
      </trkpt>
      <trkpt lat="46.12973" lon="6.70957">
        <ele>1684.9</ele>
        <time>2026-06-27T09:13:44Z</time>
      </trkpt>
      <trkpt lat="46.12973" lon="6.70959">
        <ele>1684.9</ele>
        <time>2026-06-27T09:13:45Z</time>
      </trkpt>
      <trkpt lat="46.12973" lon="6.7096">
        <ele>1684.9</ele>
        <time>2026-06-27T09:13:46Z</time>
      </trkpt>
      <trkpt lat="46.12973" lon="6.70961">
        <ele>1684.9</ele>
        <time>2026-06-27T09:13:47Z</time>
      </trkpt>
      <trkpt lat="46.12973" lon="6.70962">
        <ele>1685</ele>
        <time>2026-06-27T09:13:48Z</time>
      </trkpt>
      <trkpt lat="46.12973" lon="6.70964">
        <ele>1685</ele>
        <time>2026-06-27T09:13:49Z</time>
      </trkpt>
      <trkpt lat="46.12973" lon="6.70966">
        <ele>1685</ele>
        <time>2026-06-27T09:13:50Z</time>
      </trkpt>
      <trkpt lat="46.12973" lon="6.70967">
        <ele>1685</ele>
        <time>2026-06-27T09:13:51Z</time>
      </trkpt>
      <trkpt lat="46.12973" lon="6.70969">
        <ele>1685.1</ele>
        <time>2026-06-27T09:13:52Z</time>
      </trkpt>
      <trkpt lat="46.12972" lon="6.7097">
        <ele>1685</ele>
        <time>2026-06-27T09:13:53Z</time>
      </trkpt>
      <trkpt lat="46.12972" lon="6.70972">
        <ele>1685</ele>
        <time>2026-06-27T09:13:54Z</time>
      </trkpt>
      <trkpt lat="46.12972" lon="6.70973">
        <ele>1685</ele>
        <time>2026-06-27T09:13:55Z</time>
      </trkpt>
      <trkpt lat="46.12972" lon="6.70975">
        <ele>1685</ele>
        <time>2026-06-27T09:13:56Z</time>
      </trkpt>
      <trkpt lat="46.12972" lon="6.70976">
        <ele>1685</ele>
        <time>2026-06-27T09:13:57Z</time>
      </trkpt>
      <trkpt lat="46.12971" lon="6.70977">
        <ele>1685</ele>
        <time>2026-06-27T09:13:58Z</time>
      </trkpt>
      <trkpt lat="46.12971" lon="6.70978">
        <ele>1685</ele>
        <time>2026-06-27T09:13:59Z</time>
      </trkpt>
      <trkpt lat="46.1297" lon="6.7098">
        <ele>1685</ele>
        <time>2026-06-27T09:14:00Z</time>
      </trkpt>
      <trkpt lat="46.1297" lon="6.70981">
        <ele>1685</ele>
        <time>2026-06-27T09:14:01Z</time>
      </trkpt>
      <trkpt lat="46.1297" lon="6.70983">
        <ele>1685</ele>
        <time>2026-06-27T09:14:02Z</time>
      </trkpt>
      <trkpt lat="46.1297" lon="6.70984">
        <ele>1685</ele>
        <time>2026-06-27T09:14:03Z</time>
      </trkpt>
      <trkpt lat="46.12969" lon="6.70985">
        <ele>1685</ele>
        <time>2026-06-27T09:14:04Z</time>
      </trkpt>
      <trkpt lat="46.12969" lon="6.70986">
        <ele>1685.1</ele>
        <time>2026-06-27T09:14:05Z</time>
      </trkpt>
      <trkpt lat="46.12969" lon="6.70987">
        <ele>1685.1</ele>
        <time>2026-06-27T09:14:06Z</time>
      </trkpt>
      <trkpt lat="46.12968" lon="6.70989">
        <ele>1685.2</ele>
        <time>2026-06-27T09:14:07Z</time>
      </trkpt>
      <trkpt lat="46.12968" lon="6.7099">
        <ele>1685.1</ele>
        <time>2026-06-27T09:14:08Z</time>
      </trkpt>
      <trkpt lat="46.12968" lon="6.70991">
        <ele>1685.1</ele>
        <time>2026-06-27T09:14:09Z</time>
      </trkpt>
      <trkpt lat="46.12968" lon="6.70992">
        <ele>1685.3</ele>
        <time>2026-06-27T09:14:10Z</time>
      </trkpt>
      <trkpt lat="46.12967" lon="6.70993">
        <ele>1685.5</ele>
        <time>2026-06-27T09:14:11Z</time>
      </trkpt>
      <trkpt lat="46.12967" lon="6.70995">
        <ele>1685.6</ele>
        <time>2026-06-27T09:14:12Z</time>
      </trkpt>
      <trkpt lat="46.12966" lon="6.70996">
        <ele>1685.5</ele>
        <time>2026-06-27T09:14:13Z</time>
      </trkpt>
      <trkpt lat="46.12966" lon="6.70997">
        <ele>1685.5</ele>
        <time>2026-06-27T09:14:14Z</time>
      </trkpt>
      <trkpt lat="46.12965" lon="6.70999">
        <ele>1685.5</ele>
        <time>2026-06-27T09:14:15Z</time>
      </trkpt>
      <trkpt lat="46.12965" lon="6.71">
        <ele>1685.5</ele>
        <time>2026-06-27T09:14:16Z</time>
      </trkpt>
      <trkpt lat="46.12964" lon="6.71001">
        <ele>1685.6</ele>
        <time>2026-06-27T09:14:17Z</time>
      </trkpt>
      <trkpt lat="46.12964" lon="6.71003">
        <ele>1685.7</ele>
        <time>2026-06-27T09:14:18Z</time>
      </trkpt>
      <trkpt lat="46.12963" lon="6.71004">
        <ele>1685.7</ele>
        <time>2026-06-27T09:14:19Z</time>
      </trkpt>
      <trkpt lat="46.12963" lon="6.71006">
        <ele>1685.7</ele>
        <time>2026-06-27T09:14:20Z</time>
      </trkpt>
      <trkpt lat="46.12962" lon="6.71007">
        <ele>1685.9</ele>
        <time>2026-06-27T09:14:21Z</time>
      </trkpt>
      <trkpt lat="46.12962" lon="6.71008">
        <ele>1686</ele>
        <time>2026-06-27T09:14:22Z</time>
      </trkpt>
      <trkpt lat="46.12961" lon="6.7101">
        <ele>1686.1</ele>
        <time>2026-06-27T09:14:23Z</time>
      </trkpt>
      <trkpt lat="46.12961" lon="6.71011">
        <ele>1686.2</ele>
        <time>2026-06-27T09:14:24Z</time>
      </trkpt>
      <trkpt lat="46.1296" lon="6.71013">
        <ele>1686.4</ele>
        <time>2026-06-27T09:14:25Z</time>
      </trkpt>
      <trkpt lat="46.1296" lon="6.71014">
        <ele>1686.4</ele>
        <time>2026-06-27T09:14:26Z</time>
      </trkpt>
      <trkpt lat="46.1296" lon="6.71016">
        <ele>1686.4</ele>
        <time>2026-06-27T09:14:27Z</time>
      </trkpt>
      <trkpt lat="46.12959" lon="6.71017">
        <ele>1686.4</ele>
        <time>2026-06-27T09:14:28Z</time>
      </trkpt>
      <trkpt lat="46.12959" lon="6.71018">
        <ele>1686.4</ele>
        <time>2026-06-27T09:14:29Z</time>
      </trkpt>
      <trkpt lat="46.12959" lon="6.7102">
        <ele>1686.5</ele>
        <time>2026-06-27T09:14:30Z</time>
      </trkpt>
      <trkpt lat="46.12958" lon="6.71021">
        <ele>1686.5</ele>
        <time>2026-06-27T09:14:31Z</time>
      </trkpt>
      <trkpt lat="46.12958" lon="6.71022">
        <ele>1686.4</ele>
        <time>2026-06-27T09:14:32Z</time>
      </trkpt>
      <trkpt lat="46.12958" lon="6.71024">
        <ele>1686.4</ele>
        <time>2026-06-27T09:14:33Z</time>
      </trkpt>
      <trkpt lat="46.12957" lon="6.71025">
        <ele>1686.5</ele>
        <time>2026-06-27T09:14:34Z</time>
      </trkpt>
      <trkpt lat="46.12957" lon="6.71026">
        <ele>1686.5</ele>
        <time>2026-06-27T09:14:35Z</time>
      </trkpt>
      <trkpt lat="46.12957" lon="6.71028">
        <ele>1686.5</ele>
        <time>2026-06-27T09:14:36Z</time>
      </trkpt>
      <trkpt lat="46.12957" lon="6.71029">
        <ele>1686.5</ele>
        <time>2026-06-27T09:14:37Z</time>
      </trkpt>
      <trkpt lat="46.12956" lon="6.71031">
        <ele>1686.5</ele>
        <time>2026-06-27T09:14:38Z</time>
      </trkpt>
      <trkpt lat="46.12956" lon="6.71032">
        <ele>1686.7</ele>
        <time>2026-06-27T09:14:39Z</time>
      </trkpt>
      <trkpt lat="46.12956" lon="6.71034">
        <ele>1686.8</ele>
        <time>2026-06-27T09:14:40Z</time>
      </trkpt>
      <trkpt lat="46.12956" lon="6.71035">
        <ele>1686.9</ele>
        <time>2026-06-27T09:14:41Z</time>
      </trkpt>
      <trkpt lat="46.12956" lon="6.71036">
        <ele>1686.9</ele>
        <time>2026-06-27T09:14:42Z</time>
      </trkpt>
      <trkpt lat="46.12956" lon="6.71037">
        <ele>1686.9</ele>
        <time>2026-06-27T09:14:43Z</time>
      </trkpt>
      <trkpt lat="46.12956" lon="6.71038">
        <ele>1686.9</ele>
        <time>2026-06-27T09:14:44Z</time>
      </trkpt>
      <trkpt lat="46.12955" lon="6.7104">
        <ele>1686.9</ele>
        <time>2026-06-27T09:14:45Z</time>
      </trkpt>
      <trkpt lat="46.12955" lon="6.71042">
        <ele>1686.9</ele>
        <time>2026-06-27T09:14:46Z</time>
      </trkpt>
      <trkpt lat="46.12955" lon="6.71043">
        <ele>1686.9</ele>
        <time>2026-06-27T09:14:47Z</time>
      </trkpt>
      <trkpt lat="46.12955" lon="6.71045">
        <ele>1686.9</ele>
        <time>2026-06-27T09:14:48Z</time>
      </trkpt>
      <trkpt lat="46.12955" lon="6.71046">
        <ele>1686.8</ele>
        <time>2026-06-27T09:14:49Z</time>
      </trkpt>
      <trkpt lat="46.12955" lon="6.71048">
        <ele>1686.9</ele>
        <time>2026-06-27T09:14:50Z</time>
      </trkpt>
      <trkpt lat="46.12956" lon="6.71048">
        <ele>1687</ele>
        <time>2026-06-27T09:14:51Z</time>
      </trkpt>
      <trkpt lat="46.12956" lon="6.7105">
        <ele>1687</ele>
        <time>2026-06-27T09:14:52Z</time>
      </trkpt>
      <trkpt lat="46.12957" lon="6.71052">
        <ele>1687</ele>
        <time>2026-06-27T09:14:53Z</time>
      </trkpt>
      <trkpt lat="46.12957" lon="6.71054">
        <ele>1687</ele>
        <time>2026-06-27T09:14:54Z</time>
      </trkpt>
      <trkpt lat="46.12957" lon="6.71056">
        <ele>1686.9</ele>
        <time>2026-06-27T09:14:55Z</time>
      </trkpt>
      <trkpt lat="46.12957" lon="6.71057">
        <ele>1686.9</ele>
        <time>2026-06-27T09:14:56Z</time>
      </trkpt>
      <trkpt lat="46.12957" lon="6.71059">
        <ele>1686.9</ele>
        <time>2026-06-27T09:14:57Z</time>
      </trkpt>
      <trkpt lat="46.12957" lon="6.71061">
        <ele>1686.9</ele>
        <time>2026-06-27T09:14:58Z</time>
      </trkpt>
      <trkpt lat="46.12957" lon="6.71063">
        <ele>1686.9</ele>
        <time>2026-06-27T09:14:59Z</time>
      </trkpt>
      <trkpt lat="46.12957" lon="6.71065">
        <ele>1687</ele>
        <time>2026-06-27T09:15:00Z</time>
      </trkpt>
      <trkpt lat="46.12957" lon="6.71067">
        <ele>1687</ele>
        <time>2026-06-27T09:15:01Z</time>
      </trkpt>
      <trkpt lat="46.12957" lon="6.71068">
        <ele>1687</ele>
        <time>2026-06-27T09:15:02Z</time>
      </trkpt>
      <trkpt lat="46.12957" lon="6.7107">
        <ele>1687.1</ele>
        <time>2026-06-27T09:15:03Z</time>
      </trkpt>
      <trkpt lat="46.12957" lon="6.71071">
        <ele>1687.1</ele>
        <time>2026-06-27T09:15:04Z</time>
      </trkpt>
      <trkpt lat="46.12957" lon="6.71073">
        <ele>1687.1</ele>
        <time>2026-06-27T09:15:05Z</time>
      </trkpt>
      <trkpt lat="46.12956" lon="6.71074">
        <ele>1687.3</ele>
        <time>2026-06-27T09:15:06Z</time>
      </trkpt>
      <trkpt lat="46.12956" lon="6.71076">
        <ele>1687.5</ele>
        <time>2026-06-27T09:15:07Z</time>
      </trkpt>
      <trkpt lat="46.12956" lon="6.71078">
        <ele>1687.6</ele>
        <time>2026-06-27T09:15:08Z</time>
      </trkpt>
      <trkpt lat="46.12956" lon="6.71079">
        <ele>1687.5</ele>
        <time>2026-06-27T09:15:09Z</time>
      </trkpt>
      <trkpt lat="46.12956" lon="6.71081">
        <ele>1687.7</ele>
        <time>2026-06-27T09:15:10Z</time>
      </trkpt>
      <trkpt lat="46.12956" lon="6.71082">
        <ele>1687.6</ele>
        <time>2026-06-27T09:15:11Z</time>
      </trkpt>
      <trkpt lat="46.12956" lon="6.71084">
        <ele>1687.7</ele>
        <time>2026-06-27T09:15:12Z</time>
      </trkpt>
      <trkpt lat="46.12957" lon="6.71085">
        <ele>1687.7</ele>
        <time>2026-06-27T09:15:13Z</time>
      </trkpt>
      <trkpt lat="46.12957" lon="6.71087">
        <ele>1687.7</ele>
        <time>2026-06-27T09:15:14Z</time>
      </trkpt>
      <trkpt lat="46.12956" lon="6.71088">
        <ele>1687.7</ele>
        <time>2026-06-27T09:15:15Z</time>
      </trkpt>
      <trkpt lat="46.12957" lon="6.7109">
        <ele>1687.6</ele>
        <time>2026-06-27T09:15:16Z</time>
      </trkpt>
      <trkpt lat="46.12957" lon="6.71091">
        <ele>1687.7</ele>
        <time>2026-06-27T09:15:17Z</time>
      </trkpt>
      <trkpt lat="46.12957" lon="6.71093">
        <ele>1687.7</ele>
        <time>2026-06-27T09:15:18Z</time>
      </trkpt>
      <trkpt lat="46.12957" lon="6.71094">
        <ele>1687.9</ele>
        <time>2026-06-27T09:15:19Z</time>
      </trkpt>
      <trkpt lat="46.12957" lon="6.71095">
        <ele>1688</ele>
        <time>2026-06-27T09:15:20Z</time>
      </trkpt>
      <trkpt lat="46.12957" lon="6.71096">
        <ele>1688</ele>
        <time>2026-06-27T09:15:21Z</time>
      </trkpt>
      <trkpt lat="46.12957" lon="6.71098">
        <ele>1688.1</ele>
        <time>2026-06-27T09:15:22Z</time>
      </trkpt>
      <trkpt lat="46.12957" lon="6.71099">
        <ele>1688.1</ele>
        <time>2026-06-27T09:15:23Z</time>
      </trkpt>
      <trkpt lat="46.12957" lon="6.71101">
        <ele>1688.4</ele>
        <time>2026-06-27T09:15:24Z</time>
      </trkpt>
      <trkpt lat="46.12957" lon="6.71102">
        <ele>1688.4</ele>
        <time>2026-06-27T09:15:25Z</time>
      </trkpt>
      <trkpt lat="46.12957" lon="6.71104">
        <ele>1688.5</ele>
        <time>2026-06-27T09:15:26Z</time>
      </trkpt>
      <trkpt lat="46.12957" lon="6.71105">
        <ele>1688.6</ele>
        <time>2026-06-27T09:15:27Z</time>
      </trkpt>
      <trkpt lat="46.12957" lon="6.71107">
        <ele>1688.7</ele>
        <time>2026-06-27T09:15:28Z</time>
      </trkpt>
      <trkpt lat="46.12957" lon="6.71108">
        <ele>1688.7</ele>
        <time>2026-06-27T09:15:29Z</time>
      </trkpt>
      <trkpt lat="46.12957" lon="6.7111">
        <ele>1688.6</ele>
        <time>2026-06-27T09:15:30Z</time>
      </trkpt>
      <trkpt lat="46.12958" lon="6.71111">
        <ele>1688.7</ele>
        <time>2026-06-27T09:15:31Z</time>
      </trkpt>
      <trkpt lat="46.12958" lon="6.71113">
        <ele>1688.8</ele>
        <time>2026-06-27T09:15:32Z</time>
      </trkpt>
      <trkpt lat="46.12958" lon="6.71114">
        <ele>1688.9</ele>
        <time>2026-06-27T09:15:33Z</time>
      </trkpt>
      <trkpt lat="46.12958" lon="6.71115">
        <ele>1688.9</ele>
        <time>2026-06-27T09:15:34Z</time>
      </trkpt>
      <trkpt lat="46.12959" lon="6.71116">
        <ele>1689</ele>
        <time>2026-06-27T09:15:35Z</time>
      </trkpt>
      <trkpt lat="46.1296" lon="6.71117">
        <ele>1689</ele>
        <time>2026-06-27T09:15:36Z</time>
      </trkpt>
      <trkpt lat="46.1296" lon="6.71119">
        <ele>1689</ele>
        <time>2026-06-27T09:15:37Z</time>
      </trkpt>
      <trkpt lat="46.1296" lon="6.71121">
        <ele>1689</ele>
        <time>2026-06-27T09:15:38Z</time>
      </trkpt>
      <trkpt lat="46.1296" lon="6.71122">
        <ele>1688.9</ele>
        <time>2026-06-27T09:15:39Z</time>
      </trkpt>
      <trkpt lat="46.1296" lon="6.71124">
        <ele>1688.9</ele>
        <time>2026-06-27T09:15:40Z</time>
      </trkpt>
      <trkpt lat="46.1296" lon="6.71125">
        <ele>1689</ele>
        <time>2026-06-27T09:15:41Z</time>
      </trkpt>
      <trkpt lat="46.1296" lon="6.71127">
        <ele>1689</ele>
        <time>2026-06-27T09:15:42Z</time>
      </trkpt>
      <trkpt lat="46.1296" lon="6.71129">
        <ele>1689.1</ele>
        <time>2026-06-27T09:15:43Z</time>
      </trkpt>
      <trkpt lat="46.12961" lon="6.7113">
        <ele>1689</ele>
        <time>2026-06-27T09:15:44Z</time>
      </trkpt>
      <trkpt lat="46.12961" lon="6.71132">
        <ele>1689</ele>
        <time>2026-06-27T09:15:45Z</time>
      </trkpt>
      <trkpt lat="46.12961" lon="6.71133">
        <ele>1689.1</ele>
        <time>2026-06-27T09:15:46Z</time>
      </trkpt>
      <trkpt lat="46.12961" lon="6.71135">
        <ele>1689.1</ele>
        <time>2026-06-27T09:15:47Z</time>
      </trkpt>
      <trkpt lat="46.12961" lon="6.71136">
        <ele>1689.1</ele>
        <time>2026-06-27T09:15:48Z</time>
      </trkpt>
      <trkpt lat="46.12961" lon="6.71138">
        <ele>1689.2</ele>
        <time>2026-06-27T09:15:49Z</time>
      </trkpt>
      <trkpt lat="46.12961" lon="6.71139">
        <ele>1689.2</ele>
        <time>2026-06-27T09:15:50Z</time>
      </trkpt>
      <trkpt lat="46.12961" lon="6.7114">
        <ele>1689.3</ele>
        <time>2026-06-27T09:15:51Z</time>
      </trkpt>
      <trkpt lat="46.12961" lon="6.71142">
        <ele>1689.4</ele>
        <time>2026-06-27T09:15:52Z</time>
      </trkpt>
      <trkpt lat="46.12961" lon="6.71143">
        <ele>1689.4</ele>
        <time>2026-06-27T09:15:53Z</time>
      </trkpt>
      <trkpt lat="46.12961" lon="6.71145">
        <ele>1689.5</ele>
        <time>2026-06-27T09:15:54Z</time>
      </trkpt>
      <trkpt lat="46.12961" lon="6.71146">
        <ele>1689.5</ele>
        <time>2026-06-27T09:15:55Z</time>
      </trkpt>
      <trkpt lat="46.12961" lon="6.71148">
        <ele>1689.5</ele>
        <time>2026-06-27T09:15:56Z</time>
      </trkpt>
      <trkpt lat="46.12961" lon="6.71149">
        <ele>1689.5</ele>
        <time>2026-06-27T09:15:57Z</time>
      </trkpt>
      <trkpt lat="46.12961" lon="6.71151">
        <ele>1689.7</ele>
        <time>2026-06-27T09:15:58Z</time>
      </trkpt>
      <trkpt lat="46.1296" lon="6.71152">
        <ele>1689.9</ele>
        <time>2026-06-27T09:15:59Z</time>
      </trkpt>
      <trkpt lat="46.1296" lon="6.71153">
        <ele>1689.9</ele>
        <time>2026-06-27T09:16:00Z</time>
      </trkpt>
      <trkpt lat="46.1296" lon="6.71153">
        <ele>1689.9</ele>
        <time>2026-06-27T09:16:01Z</time>
      </trkpt>
      <trkpt lat="46.1296" lon="6.71154">
        <ele>1689.8</ele>
        <time>2026-06-27T09:16:02Z</time>
      </trkpt>
      <trkpt lat="46.12961" lon="6.71154">
        <ele>1689.7</ele>
        <time>2026-06-27T09:16:03Z</time>
      </trkpt>
      <trkpt lat="46.12961" lon="6.71154">
        <ele>1689.7</ele>
        <time>2026-06-27T09:16:04Z</time>
      </trkpt>
      <trkpt lat="46.12961" lon="6.71154">
        <ele>1689.6</ele>
        <time>2026-06-27T09:16:05Z</time>
      </trkpt>
      <trkpt lat="46.12961" lon="6.71155">
        <ele>1689.7</ele>
        <time>2026-06-27T09:16:06Z</time>
      </trkpt>
      <trkpt lat="46.1296" lon="6.71156">
        <ele>1689.7</ele>
        <time>2026-06-27T09:16:07Z</time>
      </trkpt>
      <trkpt lat="46.1296" lon="6.71158">
        <ele>1689.7</ele>
        <time>2026-06-27T09:16:08Z</time>
      </trkpt>
      <trkpt lat="46.1296" lon="6.71159">
        <ele>1689.8</ele>
        <time>2026-06-27T09:16:09Z</time>
      </trkpt>
      <trkpt lat="46.1296" lon="6.7116">
        <ele>1689.9</ele>
        <time>2026-06-27T09:16:10Z</time>
      </trkpt>
      <trkpt lat="46.1296" lon="6.71161">
        <ele>1690</ele>
        <time>2026-06-27T09:16:11Z</time>
      </trkpt>
      <trkpt lat="46.1296" lon="6.71163">
        <ele>1690</ele>
        <time>2026-06-27T09:16:12Z</time>
      </trkpt>
      <trkpt lat="46.1296" lon="6.71165">
        <ele>1690.1</ele>
        <time>2026-06-27T09:16:13Z</time>
      </trkpt>
      <trkpt lat="46.1296" lon="6.71166">
        <ele>1690.1</ele>
        <time>2026-06-27T09:16:14Z</time>
      </trkpt>
      <trkpt lat="46.1296" lon="6.71168">
        <ele>1690.2</ele>
        <time>2026-06-27T09:16:15Z</time>
      </trkpt>
      <trkpt lat="46.1296" lon="6.7117">
        <ele>1690.2</ele>
        <time>2026-06-27T09:16:16Z</time>
      </trkpt>
      <trkpt lat="46.1296" lon="6.71171">
        <ele>1690.3</ele>
        <time>2026-06-27T09:16:17Z</time>
      </trkpt>
      <trkpt lat="46.1296" lon="6.71172">
        <ele>1690.3</ele>
        <time>2026-06-27T09:16:18Z</time>
      </trkpt>
      <trkpt lat="46.1296" lon="6.71174">
        <ele>1690.4</ele>
        <time>2026-06-27T09:16:19Z</time>
      </trkpt>
      <trkpt lat="46.1296" lon="6.71175">
        <ele>1690.5</ele>
        <time>2026-06-27T09:16:20Z</time>
      </trkpt>
      <trkpt lat="46.1296" lon="6.71177">
        <ele>1690.5</ele>
        <time>2026-06-27T09:16:21Z</time>
      </trkpt>
      <trkpt lat="46.1296" lon="6.71179">
        <ele>1690.6</ele>
        <time>2026-06-27T09:16:22Z</time>
      </trkpt>
      <trkpt lat="46.12959" lon="6.7118">
        <ele>1690.7</ele>
        <time>2026-06-27T09:16:23Z</time>
      </trkpt>
      <trkpt lat="46.1296" lon="6.71181">
        <ele>1690.7</ele>
        <time>2026-06-27T09:16:24Z</time>
      </trkpt>
      <trkpt lat="46.1296" lon="6.71183">
        <ele>1690.9</ele>
        <time>2026-06-27T09:16:25Z</time>
      </trkpt>
      <trkpt lat="46.1296" lon="6.71184">
        <ele>1691</ele>
        <time>2026-06-27T09:16:26Z</time>
      </trkpt>
      <trkpt lat="46.12961" lon="6.71186">
        <ele>1691</ele>
        <time>2026-06-27T09:16:27Z</time>
      </trkpt>
      <trkpt lat="46.1296" lon="6.71188">
        <ele>1691</ele>
        <time>2026-06-27T09:16:28Z</time>
      </trkpt>
      <trkpt lat="46.1296" lon="6.71189">
        <ele>1691</ele>
        <time>2026-06-27T09:16:29Z</time>
      </trkpt>
      <trkpt lat="46.12961" lon="6.71191">
        <ele>1691</ele>
        <time>2026-06-27T09:16:30Z</time>
      </trkpt>
      <trkpt lat="46.12961" lon="6.71192">
        <ele>1691.1</ele>
        <time>2026-06-27T09:16:31Z</time>
      </trkpt>
      <trkpt lat="46.12961" lon="6.71194">
        <ele>1691.1</ele>
        <time>2026-06-27T09:16:32Z</time>
      </trkpt>
      <trkpt lat="46.12961" lon="6.71196">
        <ele>1691.2</ele>
        <time>2026-06-27T09:16:33Z</time>
      </trkpt>
      <trkpt lat="46.12961" lon="6.71197">
        <ele>1691.2</ele>
        <time>2026-06-27T09:16:34Z</time>
      </trkpt>
      <trkpt lat="46.12962" lon="6.71199">
        <ele>1691.2</ele>
        <time>2026-06-27T09:16:35Z</time>
      </trkpt>
      <trkpt lat="46.12962" lon="6.71201">
        <ele>1691.2</ele>
        <time>2026-06-27T09:16:36Z</time>
      </trkpt>
      <trkpt lat="46.12962" lon="6.71202">
        <ele>1691.2</ele>
        <time>2026-06-27T09:16:37Z</time>
      </trkpt>
      <trkpt lat="46.12962" lon="6.71204">
        <ele>1691.2</ele>
        <time>2026-06-27T09:16:38Z</time>
      </trkpt>
      <trkpt lat="46.12962" lon="6.71206">
        <ele>1691.3</ele>
        <time>2026-06-27T09:16:39Z</time>
      </trkpt>
      <trkpt lat="46.12962" lon="6.71207">
        <ele>1691.3</ele>
        <time>2026-06-27T09:16:40Z</time>
      </trkpt>
      <trkpt lat="46.12962" lon="6.71209">
        <ele>1691.3</ele>
        <time>2026-06-27T09:16:41Z</time>
      </trkpt>
      <trkpt lat="46.12962" lon="6.7121">
        <ele>1691.4</ele>
        <time>2026-06-27T09:16:42Z</time>
      </trkpt>
      <trkpt lat="46.12962" lon="6.71212">
        <ele>1691.5</ele>
        <time>2026-06-27T09:16:43Z</time>
      </trkpt>
      <trkpt lat="46.12962" lon="6.71213">
        <ele>1691.5</ele>
        <time>2026-06-27T09:16:44Z</time>
      </trkpt>
      <trkpt lat="46.12962" lon="6.71215">
        <ele>1691.5</ele>
        <time>2026-06-27T09:16:45Z</time>
      </trkpt>
      <trkpt lat="46.12962" lon="6.71217">
        <ele>1691.5</ele>
        <time>2026-06-27T09:16:46Z</time>
      </trkpt>
      <trkpt lat="46.12962" lon="6.71218">
        <ele>1691.5</ele>
        <time>2026-06-27T09:16:47Z</time>
      </trkpt>
      <trkpt lat="46.12962" lon="6.7122">
        <ele>1691.6</ele>
        <time>2026-06-27T09:16:48Z</time>
      </trkpt>
      <trkpt lat="46.12962" lon="6.71221">
        <ele>1691.7</ele>
        <time>2026-06-27T09:16:49Z</time>
      </trkpt>
      <trkpt lat="46.12962" lon="6.71223">
        <ele>1691.6</ele>
        <time>2026-06-27T09:16:50Z</time>
      </trkpt>
      <trkpt lat="46.12962" lon="6.71224">
        <ele>1691.6</ele>
        <time>2026-06-27T09:16:51Z</time>
      </trkpt>
      <trkpt lat="46.12962" lon="6.71226">
        <ele>1691.7</ele>
        <time>2026-06-27T09:16:52Z</time>
      </trkpt>
      <trkpt lat="46.12962" lon="6.71227">
        <ele>1691.8</ele>
        <time>2026-06-27T09:16:53Z</time>
      </trkpt>
      <trkpt lat="46.12962" lon="6.71229">
        <ele>1691.8</ele>
        <time>2026-06-27T09:16:54Z</time>
      </trkpt>
      <trkpt lat="46.12962" lon="6.7123">
        <ele>1691.9</ele>
        <time>2026-06-27T09:16:55Z</time>
      </trkpt>
      <trkpt lat="46.12962" lon="6.71232">
        <ele>1691.9</ele>
        <time>2026-06-27T09:16:56Z</time>
      </trkpt>
      <trkpt lat="46.12962" lon="6.71234">
        <ele>1692</ele>
        <time>2026-06-27T09:16:57Z</time>
      </trkpt>
      <trkpt lat="46.12962" lon="6.71235">
        <ele>1692</ele>
        <time>2026-06-27T09:16:58Z</time>
      </trkpt>
      <trkpt lat="46.12962" lon="6.71237">
        <ele>1692</ele>
        <time>2026-06-27T09:16:59Z</time>
      </trkpt>
      <trkpt lat="46.12962" lon="6.71239">
        <ele>1692</ele>
        <time>2026-06-27T09:17:00Z</time>
      </trkpt>
      <trkpt lat="46.12963" lon="6.7124">
        <ele>1692.1</ele>
        <time>2026-06-27T09:17:01Z</time>
      </trkpt>
      <trkpt lat="46.12963" lon="6.71241">
        <ele>1692.2</ele>
        <time>2026-06-27T09:17:02Z</time>
      </trkpt>
      <trkpt lat="46.12962" lon="6.71243">
        <ele>1692.4</ele>
        <time>2026-06-27T09:17:03Z</time>
      </trkpt>
      <trkpt lat="46.12963" lon="6.71245">
        <ele>1692.4</ele>
        <time>2026-06-27T09:17:04Z</time>
      </trkpt>
      <trkpt lat="46.12962" lon="6.71246">
        <ele>1692.5</ele>
        <time>2026-06-27T09:17:05Z</time>
      </trkpt>
      <trkpt lat="46.12962" lon="6.71247">
        <ele>1692.5</ele>
        <time>2026-06-27T09:17:06Z</time>
      </trkpt>
      <trkpt lat="46.12962" lon="6.71249">
        <ele>1692.5</ele>
        <time>2026-06-27T09:17:07Z</time>
      </trkpt>
      <trkpt lat="46.12962" lon="6.71251">
        <ele>1692.5</ele>
        <time>2026-06-27T09:17:08Z</time>
      </trkpt>
      <trkpt lat="46.12962" lon="6.71252">
        <ele>1692.5</ele>
        <time>2026-06-27T09:17:09Z</time>
      </trkpt>
      <trkpt lat="46.12962" lon="6.71253">
        <ele>1692.5</ele>
        <time>2026-06-27T09:17:10Z</time>
      </trkpt>
      <trkpt lat="46.12962" lon="6.71255">
        <ele>1692.5</ele>
        <time>2026-06-27T09:17:11Z</time>
      </trkpt>
      <trkpt lat="46.12962" lon="6.71256">
        <ele>1692.5</ele>
        <time>2026-06-27T09:17:12Z</time>
      </trkpt>
      <trkpt lat="46.12963" lon="6.71258">
        <ele>1692.5</ele>
        <time>2026-06-27T09:17:13Z</time>
      </trkpt>
      <trkpt lat="46.12963" lon="6.71259">
        <ele>1692.6</ele>
        <time>2026-06-27T09:17:14Z</time>
      </trkpt>
      <trkpt lat="46.12963" lon="6.7126">
        <ele>1692.5</ele>
        <time>2026-06-27T09:17:15Z</time>
      </trkpt>
      <trkpt lat="46.12964" lon="6.71262">
        <ele>1692.5</ele>
        <time>2026-06-27T09:17:16Z</time>
      </trkpt>
      <trkpt lat="46.12964" lon="6.71264">
        <ele>1692.5</ele>
        <time>2026-06-27T09:17:17Z</time>
      </trkpt>
      <trkpt lat="46.12964" lon="6.71265">
        <ele>1692.5</ele>
        <time>2026-06-27T09:17:18Z</time>
      </trkpt>
      <trkpt lat="46.12964" lon="6.71267">
        <ele>1692.6</ele>
        <time>2026-06-27T09:17:19Z</time>
      </trkpt>
      <trkpt lat="46.12964" lon="6.71269">
        <ele>1692.8</ele>
        <time>2026-06-27T09:17:20Z</time>
      </trkpt>
      <trkpt lat="46.12965" lon="6.71271">
        <ele>1693</ele>
        <time>2026-06-27T09:17:21Z</time>
      </trkpt>
      <trkpt lat="46.12965" lon="6.71272">
        <ele>1693</ele>
        <time>2026-06-27T09:17:22Z</time>
      </trkpt>
      <trkpt lat="46.12964" lon="6.71274">
        <ele>1692.9</ele>
        <time>2026-06-27T09:17:23Z</time>
      </trkpt>
      <trkpt lat="46.12964" lon="6.71276">
        <ele>1692.9</ele>
        <time>2026-06-27T09:17:24Z</time>
      </trkpt>
      <trkpt lat="46.12964" lon="6.71277">
        <ele>1692.9</ele>
        <time>2026-06-27T09:17:25Z</time>
      </trkpt>
      <trkpt lat="46.12965" lon="6.71279">
        <ele>1693</ele>
        <time>2026-06-27T09:17:26Z</time>
      </trkpt>
      <trkpt lat="46.12964" lon="6.7128">
        <ele>1693.1</ele>
        <time>2026-06-27T09:17:27Z</time>
      </trkpt>
      <trkpt lat="46.12964" lon="6.71282">
        <ele>1693.2</ele>
        <time>2026-06-27T09:17:28Z</time>
      </trkpt>
      <trkpt lat="46.12964" lon="6.71284">
        <ele>1693.3</ele>
        <time>2026-06-27T09:17:29Z</time>
      </trkpt>
      <trkpt lat="46.12964" lon="6.71285">
        <ele>1693.3</ele>
        <time>2026-06-27T09:17:30Z</time>
      </trkpt>
      <trkpt lat="46.12964" lon="6.71287">
        <ele>1693.3</ele>
        <time>2026-06-27T09:17:31Z</time>
      </trkpt>
      <trkpt lat="46.12964" lon="6.71288">
        <ele>1693.2</ele>
        <time>2026-06-27T09:17:32Z</time>
      </trkpt>
      <trkpt lat="46.12964" lon="6.71289">
        <ele>1693.2</ele>
        <time>2026-06-27T09:17:33Z</time>
      </trkpt>
      <trkpt lat="46.12964" lon="6.7129">
        <ele>1693.1</ele>
        <time>2026-06-27T09:17:34Z</time>
      </trkpt>
      <trkpt lat="46.12964" lon="6.71292">
        <ele>1692.9</ele>
        <time>2026-06-27T09:17:35Z</time>
      </trkpt>
      <trkpt lat="46.12963" lon="6.71293">
        <ele>1692.9</ele>
        <time>2026-06-27T09:17:36Z</time>
      </trkpt>
      <trkpt lat="46.12963" lon="6.71295">
        <ele>1692.8</ele>
        <time>2026-06-27T09:17:37Z</time>
      </trkpt>
      <trkpt lat="46.12963" lon="6.71296">
        <ele>1692.9</ele>
        <time>2026-06-27T09:17:38Z</time>
      </trkpt>
      <trkpt lat="46.12962" lon="6.71297">
        <ele>1692.9</ele>
        <time>2026-06-27T09:17:39Z</time>
      </trkpt>
      <trkpt lat="46.12962" lon="6.71299">
        <ele>1692.8</ele>
        <time>2026-06-27T09:17:40Z</time>
      </trkpt>
      <trkpt lat="46.12961" lon="6.713">
        <ele>1692.7</ele>
        <time>2026-06-27T09:17:41Z</time>
      </trkpt>
      <trkpt lat="46.12961" lon="6.71302">
        <ele>1692.6</ele>
        <time>2026-06-27T09:17:42Z</time>
      </trkpt>
      <trkpt lat="46.1296" lon="6.71303">
        <ele>1692.7</ele>
        <time>2026-06-27T09:17:43Z</time>
      </trkpt>
      <trkpt lat="46.1296" lon="6.71305">
        <ele>1692.6</ele>
        <time>2026-06-27T09:17:44Z</time>
      </trkpt>
      <trkpt lat="46.1296" lon="6.71306">
        <ele>1692.4</ele>
        <time>2026-06-27T09:17:45Z</time>
      </trkpt>
      <trkpt lat="46.12959" lon="6.71307">
        <ele>1692.3</ele>
        <time>2026-06-27T09:17:46Z</time>
      </trkpt>
      <trkpt lat="46.12959" lon="6.71308">
        <ele>1692.2</ele>
        <time>2026-06-27T09:17:47Z</time>
      </trkpt>
      <trkpt lat="46.12958" lon="6.7131">
        <ele>1692.1</ele>
        <time>2026-06-27T09:17:48Z</time>
      </trkpt>
      <trkpt lat="46.12957" lon="6.71312">
        <ele>1692</ele>
        <time>2026-06-27T09:17:49Z</time>
      </trkpt>
      <trkpt lat="46.12957" lon="6.71313">
        <ele>1691.9</ele>
        <time>2026-06-27T09:17:50Z</time>
      </trkpt>
      <trkpt lat="46.12956" lon="6.71314">
        <ele>1691.8</ele>
        <time>2026-06-27T09:17:51Z</time>
      </trkpt>
      <trkpt lat="46.12956" lon="6.71316">
        <ele>1691.7</ele>
        <time>2026-06-27T09:17:52Z</time>
      </trkpt>
      <trkpt lat="46.12955" lon="6.71317">
        <ele>1691.7</ele>
        <time>2026-06-27T09:17:53Z</time>
      </trkpt>
      <trkpt lat="46.12954" lon="6.71318">
        <ele>1691.6</ele>
        <time>2026-06-27T09:17:54Z</time>
      </trkpt>
      <trkpt lat="46.12954" lon="6.71319">
        <ele>1691.6</ele>
        <time>2026-06-27T09:17:55Z</time>
      </trkpt>
      <trkpt lat="46.12953" lon="6.7132">
        <ele>1691.5</ele>
        <time>2026-06-27T09:17:56Z</time>
      </trkpt>
      <trkpt lat="46.12952" lon="6.71321">
        <ele>1691.5</ele>
        <time>2026-06-27T09:17:57Z</time>
      </trkpt>
      <trkpt lat="46.12952" lon="6.71322">
        <ele>1691.5</ele>
        <time>2026-06-27T09:17:58Z</time>
      </trkpt>
      <trkpt lat="46.12951" lon="6.71324">
        <ele>1691.5</ele>
        <time>2026-06-27T09:17:59Z</time>
      </trkpt>
      <trkpt lat="46.1295" lon="6.71325">
        <ele>1691.5</ele>
        <time>2026-06-27T09:18:00Z</time>
      </trkpt>
      <trkpt lat="46.1295" lon="6.71326">
        <ele>1691.6</ele>
        <time>2026-06-27T09:18:01Z</time>
      </trkpt>
      <trkpt lat="46.12949" lon="6.71327">
        <ele>1691.6</ele>
        <time>2026-06-27T09:18:02Z</time>
      </trkpt>
      <trkpt lat="46.12948" lon="6.71327">
        <ele>1691.6</ele>
        <time>2026-06-27T09:18:03Z</time>
      </trkpt>
      <trkpt lat="46.12947" lon="6.71329">
        <ele>1691.5</ele>
        <time>2026-06-27T09:18:04Z</time>
      </trkpt>
      <trkpt lat="46.12947" lon="6.7133">
        <ele>1691.6</ele>
        <time>2026-06-27T09:18:05Z</time>
      </trkpt>
      <trkpt lat="46.12946" lon="6.71331">
        <ele>1691.6</ele>
        <time>2026-06-27T09:18:06Z</time>
      </trkpt>
      <trkpt lat="46.12945" lon="6.71332">
        <ele>1691.6</ele>
        <time>2026-06-27T09:18:07Z</time>
      </trkpt>
      <trkpt lat="46.12944" lon="6.71333">
        <ele>1691.6</ele>
        <time>2026-06-27T09:18:08Z</time>
      </trkpt>
      <trkpt lat="46.12944" lon="6.71334">
        <ele>1691.5</ele>
        <time>2026-06-27T09:18:09Z</time>
      </trkpt>
      <trkpt lat="46.12943" lon="6.71334">
        <ele>1691.3</ele>
        <time>2026-06-27T09:18:10Z</time>
      </trkpt>
      <trkpt lat="46.12942" lon="6.71335">
        <ele>1691.2</ele>
        <time>2026-06-27T09:18:11Z</time>
      </trkpt>
      <trkpt lat="46.12941" lon="6.71336">
        <ele>1691</ele>
        <time>2026-06-27T09:18:12Z</time>
      </trkpt>
      <trkpt lat="46.1294" lon="6.71337">
        <ele>1690.9</ele>
        <time>2026-06-27T09:18:13Z</time>
      </trkpt>
      <trkpt lat="46.12939" lon="6.71338">
        <ele>1690.7</ele>
        <time>2026-06-27T09:18:14Z</time>
      </trkpt>
      <trkpt lat="46.12938" lon="6.71338">
        <ele>1690.6</ele>
        <time>2026-06-27T09:18:15Z</time>
      </trkpt>
      <trkpt lat="46.12937" lon="6.71339">
        <ele>1690.7</ele>
        <time>2026-06-27T09:18:16Z</time>
      </trkpt>
      <trkpt lat="46.12937" lon="6.7134">
        <ele>1690.6</ele>
        <time>2026-06-27T09:18:17Z</time>
      </trkpt>
      <trkpt lat="46.12936" lon="6.71341">
        <ele>1690.6</ele>
        <time>2026-06-27T09:18:18Z</time>
      </trkpt>
      <trkpt lat="46.12935" lon="6.71341">
        <ele>1690.5</ele>
        <time>2026-06-27T09:18:19Z</time>
      </trkpt>
      <trkpt lat="46.12934" lon="6.71342">
        <ele>1690.4</ele>
        <time>2026-06-27T09:18:20Z</time>
      </trkpt>
      <trkpt lat="46.12933" lon="6.71343">
        <ele>1690.3</ele>
        <time>2026-06-27T09:18:21Z</time>
      </trkpt>
      <trkpt lat="46.12932" lon="6.71344">
        <ele>1690.3</ele>
        <time>2026-06-27T09:18:22Z</time>
      </trkpt>
      <trkpt lat="46.12931" lon="6.71345">
        <ele>1690.2</ele>
        <time>2026-06-27T09:18:23Z</time>
      </trkpt>
      <trkpt lat="46.1293" lon="6.71346">
        <ele>1690.1</ele>
        <time>2026-06-27T09:18:24Z</time>
      </trkpt>
      <trkpt lat="46.1293" lon="6.71346">
        <ele>1689.9</ele>
        <time>2026-06-27T09:18:25Z</time>
      </trkpt>
      <trkpt lat="46.12929" lon="6.71346">
        <ele>1689.7</ele>
        <time>2026-06-27T09:18:26Z</time>
      </trkpt>
      <trkpt lat="46.12929" lon="6.71346">
        <ele>1689.7</ele>
        <time>2026-06-27T09:18:27Z</time>
      </trkpt>
      <trkpt lat="46.12929" lon="6.71346">
        <ele>1689.7</ele>
        <time>2026-06-27T09:18:28Z</time>
      </trkpt>
      <trkpt lat="46.12928" lon="6.71346">
        <ele>1689.6</ele>
        <time>2026-06-27T09:18:29Z</time>
      </trkpt>
      <trkpt lat="46.12928" lon="6.71346">
        <ele>1689.5</ele>
        <time>2026-06-27T09:18:30Z</time>
      </trkpt>
      <trkpt lat="46.12927" lon="6.71347">
        <ele>1689.4</ele>
        <time>2026-06-27T09:18:31Z</time>
      </trkpt>
      <trkpt lat="46.12926" lon="6.71347">
        <ele>1689.2</ele>
        <time>2026-06-27T09:18:32Z</time>
      </trkpt>
      <trkpt lat="46.12925" lon="6.71347">
        <ele>1689.1</ele>
        <time>2026-06-27T09:18:33Z</time>
      </trkpt>
      <trkpt lat="46.12924" lon="6.71348">
        <ele>1688.9</ele>
        <time>2026-06-27T09:18:34Z</time>
      </trkpt>
      <trkpt lat="46.12923" lon="6.71349">
        <ele>1688.9</ele>
        <time>2026-06-27T09:18:35Z</time>
      </trkpt>
      <trkpt lat="46.12922" lon="6.71349">
        <ele>1688.9</ele>
        <time>2026-06-27T09:18:36Z</time>
      </trkpt>
      <trkpt lat="46.12921" lon="6.71349">
        <ele>1688.8</ele>
        <time>2026-06-27T09:18:37Z</time>
      </trkpt>
      <trkpt lat="46.1292" lon="6.7135">
        <ele>1688.7</ele>
        <time>2026-06-27T09:18:38Z</time>
      </trkpt>
      <trkpt lat="46.12919" lon="6.7135">
        <ele>1688.6</ele>
        <time>2026-06-27T09:18:39Z</time>
      </trkpt>
      <trkpt lat="46.12918" lon="6.7135">
        <ele>1688.6</ele>
        <time>2026-06-27T09:18:40Z</time>
      </trkpt>
      <trkpt lat="46.12917" lon="6.7135">
        <ele>1688.5</ele>
        <time>2026-06-27T09:18:41Z</time>
      </trkpt>
      <trkpt lat="46.12916" lon="6.7135">
        <ele>1688.5</ele>
        <time>2026-06-27T09:18:42Z</time>
      </trkpt>
      <trkpt lat="46.12915" lon="6.71351">
        <ele>1688.5</ele>
        <time>2026-06-27T09:18:43Z</time>
      </trkpt>
      <trkpt lat="46.12915" lon="6.71351">
        <ele>1688.4</ele>
        <time>2026-06-27T09:18:44Z</time>
      </trkpt>
      <trkpt lat="46.12913" lon="6.71351">
        <ele>1688.4</ele>
        <time>2026-06-27T09:18:45Z</time>
      </trkpt>
      <trkpt lat="46.12912" lon="6.71351">
        <ele>1688.4</ele>
        <time>2026-06-27T09:18:46Z</time>
      </trkpt>
      <trkpt lat="46.12911" lon="6.71351">
        <ele>1688.3</ele>
        <time>2026-06-27T09:18:47Z</time>
      </trkpt>
      <trkpt lat="46.12911" lon="6.71351">
        <ele>1688.2</ele>
        <time>2026-06-27T09:18:48Z</time>
      </trkpt>
      <trkpt lat="46.1291" lon="6.71351">
        <ele>1688.2</ele>
        <time>2026-06-27T09:18:49Z</time>
      </trkpt>
      <trkpt lat="46.12909" lon="6.71351">
        <ele>1688.1</ele>
        <time>2026-06-27T09:18:50Z</time>
      </trkpt>
      <trkpt lat="46.12908" lon="6.7135">
        <ele>1688</ele>
        <time>2026-06-27T09:18:51Z</time>
      </trkpt>
      <trkpt lat="46.12906" lon="6.7135">
        <ele>1687.9</ele>
        <time>2026-06-27T09:18:52Z</time>
      </trkpt>
      <trkpt lat="46.12905" lon="6.7135">
        <ele>1687.8</ele>
        <time>2026-06-27T09:18:53Z</time>
      </trkpt>
      <trkpt lat="46.12904" lon="6.71349">
        <ele>1687.7</ele>
        <time>2026-06-27T09:18:54Z</time>
      </trkpt>
      <trkpt lat="46.12903" lon="6.71349">
        <ele>1687.7</ele>
        <time>2026-06-27T09:18:55Z</time>
      </trkpt>
      <trkpt lat="46.12902" lon="6.71348">
        <ele>1687.5</ele>
        <time>2026-06-27T09:18:56Z</time>
      </trkpt>
      <trkpt lat="46.12902" lon="6.71349">
        <ele>1687.4</ele>
        <time>2026-06-27T09:18:57Z</time>
      </trkpt>
      <trkpt lat="46.12901" lon="6.71349">
        <ele>1687.5</ele>
        <time>2026-06-27T09:18:58Z</time>
      </trkpt>
      <trkpt lat="46.129" lon="6.71348">
        <ele>1687.5</ele>
        <time>2026-06-27T09:18:59Z</time>
      </trkpt>
      <trkpt lat="46.12899" lon="6.71348">
        <ele>1687.5</ele>
        <time>2026-06-27T09:19:00Z</time>
      </trkpt>
      <trkpt lat="46.12898" lon="6.71347">
        <ele>1687.5</ele>
        <time>2026-06-27T09:19:01Z</time>
      </trkpt>
      <trkpt lat="46.12896" lon="6.71346">
        <ele>1687.4</ele>
        <time>2026-06-27T09:19:02Z</time>
      </trkpt>
      <trkpt lat="46.12896" lon="6.71346">
        <ele>1687.3</ele>
        <time>2026-06-27T09:19:03Z</time>
      </trkpt>
      <trkpt lat="46.12895" lon="6.71345">
        <ele>1687.2</ele>
        <time>2026-06-27T09:19:04Z</time>
      </trkpt>
      <trkpt lat="46.12894" lon="6.71345">
        <ele>1687.1</ele>
        <time>2026-06-27T09:19:05Z</time>
      </trkpt>
      <trkpt lat="46.12893" lon="6.71344">
        <ele>1687</ele>
        <time>2026-06-27T09:19:06Z</time>
      </trkpt>
      <trkpt lat="46.12892" lon="6.71344">
        <ele>1686.9</ele>
        <time>2026-06-27T09:19:07Z</time>
      </trkpt>
      <trkpt lat="46.12891" lon="6.71343">
        <ele>1686.9</ele>
        <time>2026-06-27T09:19:08Z</time>
      </trkpt>
      <trkpt lat="46.1289" lon="6.71342">
        <ele>1686.8</ele>
        <time>2026-06-27T09:19:09Z</time>
      </trkpt>
      <trkpt lat="46.12889" lon="6.71341">
        <ele>1686.8</ele>
        <time>2026-06-27T09:19:10Z</time>
      </trkpt>
      <trkpt lat="46.12888" lon="6.71341">
        <ele>1686.7</ele>
        <time>2026-06-27T09:19:11Z</time>
      </trkpt>
      <trkpt lat="46.12887" lon="6.7134">
        <ele>1686.6</ele>
        <time>2026-06-27T09:19:12Z</time>
      </trkpt>
      <trkpt lat="46.12886" lon="6.71339">
        <ele>1686.6</ele>
        <time>2026-06-27T09:19:13Z</time>
      </trkpt>
      <trkpt lat="46.12886" lon="6.71339">
        <ele>1686.5</ele>
        <time>2026-06-27T09:19:14Z</time>
      </trkpt>
      <trkpt lat="46.12885" lon="6.71338">
        <ele>1686.6</ele>
        <time>2026-06-27T09:19:15Z</time>
      </trkpt>
      <trkpt lat="46.12884" lon="6.71338">
        <ele>1686.6</ele>
        <time>2026-06-27T09:19:16Z</time>
      </trkpt>
      <trkpt lat="46.12884" lon="6.71338">
        <ele>1686.6</ele>
        <time>2026-06-27T09:19:17Z</time>
      </trkpt>
      <trkpt lat="46.12883" lon="6.71338">
        <ele>1686.5</ele>
        <time>2026-06-27T09:19:18Z</time>
      </trkpt>
      <trkpt lat="46.12882" lon="6.71337">
        <ele>1686.5</ele>
        <time>2026-06-27T09:19:19Z</time>
      </trkpt>
      <trkpt lat="46.12882" lon="6.71337">
        <ele>1686.4</ele>
        <time>2026-06-27T09:19:20Z</time>
      </trkpt>
      <trkpt lat="46.12881" lon="6.71336">
        <ele>1686.3</ele>
        <time>2026-06-27T09:19:21Z</time>
      </trkpt>
      <trkpt lat="46.12881" lon="6.71336">
        <ele>1686.2</ele>
        <time>2026-06-27T09:19:22Z</time>
      </trkpt>
      <trkpt lat="46.1288" lon="6.71336">
        <ele>1686</ele>
        <time>2026-06-27T09:19:23Z</time>
      </trkpt>
      <trkpt lat="46.1288" lon="6.71335">
        <ele>1685.9</ele>
        <time>2026-06-27T09:19:24Z</time>
      </trkpt>
      <trkpt lat="46.1288" lon="6.71335">
        <ele>1685.9</ele>
        <time>2026-06-27T09:19:25Z</time>
      </trkpt>
      <trkpt lat="46.1288" lon="6.71335">
        <ele>1685.8</ele>
        <time>2026-06-27T09:19:26Z</time>
      </trkpt>
      <trkpt lat="46.1288" lon="6.71335">
        <ele>1685.8</ele>
        <time>2026-06-27T09:19:27Z</time>
      </trkpt>
      <trkpt lat="46.1288" lon="6.71335">
        <ele>1685.7</ele>
        <time>2026-06-27T09:19:28Z</time>
      </trkpt>
      <trkpt lat="46.1288" lon="6.71335">
        <ele>1685.7</ele>
        <time>2026-06-27T09:19:29Z</time>
      </trkpt>
      <trkpt lat="46.12879" lon="6.71334">
        <ele>1685.7</ele>
        <time>2026-06-27T09:19:30Z</time>
      </trkpt>
      <trkpt lat="46.12879" lon="6.71334">
        <ele>1685.6</ele>
        <time>2026-06-27T09:19:31Z</time>
      </trkpt>
      <trkpt lat="46.12879" lon="6.71334">
        <ele>1685.6</ele>
        <time>2026-06-27T09:19:32Z</time>
      </trkpt>
      <trkpt lat="46.12879" lon="6.71334">
        <ele>1685.6</ele>
        <time>2026-06-27T09:19:33Z</time>
      </trkpt>
      <trkpt lat="46.12879" lon="6.71334">
        <ele>1685.6</ele>
        <time>2026-06-27T09:19:34Z</time>
      </trkpt>
      <trkpt lat="46.12879" lon="6.71334">
        <ele>1685.6</ele>
        <time>2026-06-27T09:19:35Z</time>
      </trkpt>
      <trkpt lat="46.12879" lon="6.71335">
        <ele>1685.6</ele>
        <time>2026-06-27T09:19:36Z</time>
      </trkpt>
      <trkpt lat="46.12879" lon="6.71335">
        <ele>1685.5</ele>
        <time>2026-06-27T09:19:37Z</time>
      </trkpt>
      <trkpt lat="46.12879" lon="6.71335">
        <ele>1685.5</ele>
        <time>2026-06-27T09:19:38Z</time>
      </trkpt>
      <trkpt lat="46.12879" lon="6.71336">
        <ele>1685.5</ele>
        <time>2026-06-27T09:19:39Z</time>
      </trkpt>
      <trkpt lat="46.12879" lon="6.71336">
        <ele>1685.4</ele>
        <time>2026-06-27T09:19:40Z</time>
      </trkpt>
      <trkpt lat="46.12878" lon="6.71336">
        <ele>1685.4</ele>
        <time>2026-06-27T09:19:41Z</time>
      </trkpt>
      <trkpt lat="46.12878" lon="6.71336">
        <ele>1685.4</ele>
        <time>2026-06-27T09:19:42Z</time>
      </trkpt>
      <trkpt lat="46.12878" lon="6.71336">
        <ele>1685.5</ele>
        <time>2026-06-27T09:19:43Z</time>
      </trkpt>
      <trkpt lat="46.12878" lon="6.71336">
        <ele>1685.6</ele>
        <time>2026-06-27T09:19:44Z</time>
      </trkpt>
      <trkpt lat="46.12878" lon="6.71336">
        <ele>1685.7</ele>
        <time>2026-06-27T09:19:45Z</time>
      </trkpt>
      <trkpt lat="46.12878" lon="6.71336">
        <ele>1685.7</ele>
        <time>2026-06-27T09:19:46Z</time>
      </trkpt>
      <trkpt lat="46.12878" lon="6.71337">
        <ele>1685.7</ele>
        <time>2026-06-27T09:19:47Z</time>
      </trkpt>
      <trkpt lat="46.12878" lon="6.71337">
        <ele>1685.8</ele>
        <time>2026-06-27T09:19:48Z</time>
      </trkpt>
      <trkpt lat="46.12878" lon="6.71337">
        <ele>1685.8</ele>
        <time>2026-06-27T09:19:49Z</time>
      </trkpt>
      <trkpt lat="46.12878" lon="6.71337">
        <ele>1685.8</ele>
        <time>2026-06-27T09:19:50Z</time>
      </trkpt>
      <trkpt lat="46.12878" lon="6.71337">
        <ele>1685.8</ele>
        <time>2026-06-27T09:19:51Z</time>
      </trkpt>
      <trkpt lat="46.12878" lon="6.71337">
        <ele>1685.8</ele>
        <time>2026-06-27T09:19:52Z</time>
      </trkpt>
      <trkpt lat="46.12878" lon="6.71337">
        <ele>1685.8</ele>
        <time>2026-06-27T09:19:53Z</time>
      </trkpt>
      <trkpt lat="46.12878" lon="6.71337">
        <ele>1685.8</ele>
        <time>2026-06-27T09:19:54Z</time>
      </trkpt>
      <trkpt lat="46.12878" lon="6.71336">
        <ele>1685.8</ele>
        <time>2026-06-27T09:19:55Z</time>
      </trkpt>
      <trkpt lat="46.12877" lon="6.71336">
        <ele>1685.8</ele>
        <time>2026-06-27T09:19:56Z</time>
      </trkpt>
      <trkpt lat="46.12877" lon="6.71337">
        <ele>1685.9</ele>
        <time>2026-06-27T09:19:57Z</time>
      </trkpt>
      <trkpt lat="46.12877" lon="6.71337">
        <ele>1685.9</ele>
        <time>2026-06-27T09:19:58Z</time>
      </trkpt>
      <trkpt lat="46.12877" lon="6.71337">
        <ele>1685.9</ele>
        <time>2026-06-27T09:19:59Z</time>
      </trkpt>
      <trkpt lat="46.12877" lon="6.71337">
        <ele>1685.9</ele>
        <time>2026-06-27T09:20:00Z</time>
      </trkpt>
      <trkpt lat="46.12878" lon="6.71336">
        <ele>1685.9</ele>
        <time>2026-06-27T09:20:01Z</time>
      </trkpt>
      <trkpt lat="46.12878" lon="6.71336">
        <ele>1685.9</ele>
        <time>2026-06-27T09:20:02Z</time>
      </trkpt>
      <trkpt lat="46.12878" lon="6.71336">
        <ele>1685.8</ele>
        <time>2026-06-27T09:20:03Z</time>
      </trkpt>
      <trkpt lat="46.12878" lon="6.71336">
        <ele>1685.8</ele>
        <time>2026-06-27T09:20:04Z</time>
      </trkpt>
      <trkpt lat="46.12878" lon="6.71336">
        <ele>1685.8</ele>
        <time>2026-06-27T09:20:05Z</time>
      </trkpt>
      <trkpt lat="46.12878" lon="6.71336">
        <ele>1685.9</ele>
        <time>2026-06-27T09:20:06Z</time>
      </trkpt>
      <trkpt lat="46.12877" lon="6.71336">
        <ele>1685.9</ele>
        <time>2026-06-27T09:20:07Z</time>
      </trkpt>
      <trkpt lat="46.12877" lon="6.71336">
        <ele>1685.9</ele>
        <time>2026-06-27T09:20:08Z</time>
      </trkpt>
      <trkpt lat="46.12877" lon="6.71336">
        <ele>1686</ele>
        <time>2026-06-27T09:20:09Z</time>
      </trkpt>
      <trkpt lat="46.12877" lon="6.71336">
        <ele>1686</ele>
        <time>2026-06-27T09:20:10Z</time>
      </trkpt>
      <trkpt lat="46.12877" lon="6.71336">
        <ele>1686</ele>
        <time>2026-06-27T09:20:11Z</time>
      </trkpt>
      <trkpt lat="46.12877" lon="6.71336">
        <ele>1686</ele>
        <time>2026-06-27T09:20:12Z</time>
      </trkpt>
      <trkpt lat="46.12877" lon="6.71336">
        <ele>1686.1</ele>
        <time>2026-06-27T09:20:13Z</time>
      </trkpt>
      <trkpt lat="46.12877" lon="6.71336">
        <ele>1686.1</ele>
        <time>2026-06-27T09:20:14Z</time>
      </trkpt>
      <trkpt lat="46.12877" lon="6.71336">
        <ele>1686.1</ele>
        <time>2026-06-27T09:20:15Z</time>
      </trkpt>
      <trkpt lat="46.12877" lon="6.71336">
        <ele>1686.1</ele>
        <time>2026-06-27T09:20:16Z</time>
      </trkpt>
      <trkpt lat="46.12877" lon="6.71336">
        <ele>1686.1</ele>
        <time>2026-06-27T09:20:17Z</time>
      </trkpt>
      <trkpt lat="46.12876" lon="6.71336">
        <ele>1686.3</ele>
        <time>2026-06-27T09:20:18Z</time>
      </trkpt>
      <trkpt lat="46.12876" lon="6.71336">
        <ele>1686.3</ele>
        <time>2026-06-27T09:20:19Z</time>
      </trkpt>
      <trkpt lat="46.12877" lon="6.71336">
        <ele>1686.4</ele>
        <time>2026-06-27T09:20:20Z</time>
      </trkpt>
      <trkpt lat="46.12877" lon="6.71336">
        <ele>1686.4</ele>
        <time>2026-06-27T09:20:21Z</time>
      </trkpt>
      <trkpt lat="46.12876" lon="6.71335">
        <ele>1686.4</ele>
        <time>2026-06-27T09:20:22Z</time>
      </trkpt>
      <trkpt lat="46.12876" lon="6.71335">
        <ele>1686.3</ele>
        <time>2026-06-27T09:20:23Z</time>
      </trkpt>
      <trkpt lat="46.12876" lon="6.71335">
        <ele>1686.3</ele>
        <time>2026-06-27T09:20:24Z</time>
      </trkpt>
      <trkpt lat="46.12876" lon="6.71335">
        <ele>1686.3</ele>
        <time>2026-06-27T09:20:25Z</time>
      </trkpt>
      <trkpt lat="46.12876" lon="6.71335">
        <ele>1686.2</ele>
        <time>2026-06-27T09:20:26Z</time>
      </trkpt>
      <trkpt lat="46.12876" lon="6.71335">
        <ele>1686.1</ele>
        <time>2026-06-27T09:20:27Z</time>
      </trkpt>
      <trkpt lat="46.12876" lon="6.71335">
        <ele>1686.1</ele>
        <time>2026-06-27T09:20:28Z</time>
      </trkpt>
      <trkpt lat="46.12876" lon="6.71335">
        <ele>1686.1</ele>
        <time>2026-06-27T09:20:29Z</time>
      </trkpt>
      <trkpt lat="46.12876" lon="6.71335">
        <ele>1686</ele>
        <time>2026-06-27T09:20:30Z</time>
      </trkpt>
      <trkpt lat="46.12876" lon="6.71335">
        <ele>1686</ele>
        <time>2026-06-27T09:20:31Z</time>
      </trkpt>
      <trkpt lat="46.12876" lon="6.71335">
        <ele>1686</ele>
        <time>2026-06-27T09:20:32Z</time>
      </trkpt>
      <trkpt lat="46.12876" lon="6.71335">
        <ele>1686.1</ele>
        <time>2026-06-27T09:20:33Z</time>
      </trkpt>
      <trkpt lat="46.12876" lon="6.71335">
        <ele>1686</ele>
        <time>2026-06-27T09:20:34Z</time>
      </trkpt>
      <trkpt lat="46.12876" lon="6.71335">
        <ele>1686</ele>
        <time>2026-06-27T09:20:35Z</time>
      </trkpt>
      <trkpt lat="46.12876" lon="6.71335">
        <ele>1686</ele>
        <time>2026-06-27T09:20:36Z</time>
      </trkpt>
      <trkpt lat="46.12876" lon="6.71335">
        <ele>1686</ele>
        <time>2026-06-27T09:20:37Z</time>
      </trkpt>
      <trkpt lat="46.12876" lon="6.71336">
        <ele>1686</ele>
        <time>2026-06-27T09:20:38Z</time>
      </trkpt>
      <trkpt lat="46.12875" lon="6.71336">
        <ele>1686</ele>
        <time>2026-06-27T09:20:39Z</time>
      </trkpt>
      <trkpt lat="46.12875" lon="6.71336">
        <ele>1686</ele>
        <time>2026-06-27T09:20:40Z</time>
      </trkpt>
      <trkpt lat="46.12875" lon="6.71336">
        <ele>1686</ele>
        <time>2026-06-27T09:20:41Z</time>
      </trkpt>
      <trkpt lat="46.12875" lon="6.71336">
        <ele>1686</ele>
        <time>2026-06-27T09:20:42Z</time>
      </trkpt>
      <trkpt lat="46.12875" lon="6.71336">
        <ele>1686</ele>
        <time>2026-06-27T09:20:43Z</time>
      </trkpt>
      <trkpt lat="46.12875" lon="6.71336">
        <ele>1686.1</ele>
        <time>2026-06-27T09:20:44Z</time>
      </trkpt>
      <trkpt lat="46.12875" lon="6.71336">
        <ele>1686.2</ele>
        <time>2026-06-27T09:20:45Z</time>
      </trkpt>
      <trkpt lat="46.12875" lon="6.71336">
        <ele>1686.2</ele>
        <time>2026-06-27T09:20:46Z</time>
      </trkpt>
      <trkpt lat="46.12875" lon="6.71336">
        <ele>1686.2</ele>
        <time>2026-06-27T09:20:47Z</time>
      </trkpt>
      <trkpt lat="46.12875" lon="6.71336">
        <ele>1686.2</ele>
        <time>2026-06-27T09:20:48Z</time>
      </trkpt>
      <trkpt lat="46.12875" lon="6.71336">
        <ele>1686.2</ele>
        <time>2026-06-27T09:20:49Z</time>
      </trkpt>
      <trkpt lat="46.12875" lon="6.71336">
        <ele>1686.3</ele>
        <time>2026-06-27T09:20:50Z</time>
      </trkpt>
      <trkpt lat="46.12875" lon="6.71336">
        <ele>1686.3</ele>
        <time>2026-06-27T09:20:51Z</time>
      </trkpt>
      <trkpt lat="46.12875" lon="6.71337">
        <ele>1686.4</ele>
        <time>2026-06-27T09:20:52Z</time>
      </trkpt>
      <trkpt lat="46.12875" lon="6.71336">
        <ele>1686.3</ele>
        <time>2026-06-27T09:20:53Z</time>
      </trkpt>
      <trkpt lat="46.12875" lon="6.71337">
        <ele>1686.3</ele>
        <time>2026-06-27T09:20:54Z</time>
      </trkpt>
      <trkpt lat="46.12875" lon="6.71337">
        <ele>1686.3</ele>
        <time>2026-06-27T09:20:55Z</time>
      </trkpt>
      <trkpt lat="46.12875" lon="6.71337">
        <ele>1686.2</ele>
        <time>2026-06-27T09:20:56Z</time>
      </trkpt>
      <trkpt lat="46.12875" lon="6.71337">
        <ele>1686.2</ele>
        <time>2026-06-27T09:20:57Z</time>
      </trkpt>
      <trkpt lat="46.12875" lon="6.71337">
        <ele>1686.3</ele>
        <time>2026-06-27T09:20:58Z</time>
      </trkpt>
      <trkpt lat="46.12875" lon="6.71337">
        <ele>1686.2</ele>
        <time>2026-06-27T09:20:59Z</time>
      </trkpt>
      <trkpt lat="46.12875" lon="6.71337">
        <ele>1686.2</ele>
        <time>2026-06-27T09:21:00Z</time>
      </trkpt>
      <trkpt lat="46.12875" lon="6.71337">
        <ele>1686.2</ele>
        <time>2026-06-27T09:21:01Z</time>
      </trkpt>
      <trkpt lat="46.12875" lon="6.71337">
        <ele>1686.1</ele>
        <time>2026-06-27T09:21:02Z</time>
      </trkpt>
      <trkpt lat="46.12875" lon="6.71337">
        <ele>1686.1</ele>
        <time>2026-06-27T09:21:03Z</time>
      </trkpt>
      <trkpt lat="46.12875" lon="6.71337">
        <ele>1686</ele>
        <time>2026-06-27T09:21:04Z</time>
      </trkpt>
      <trkpt lat="46.12875" lon="6.71337">
        <ele>1685.9</ele>
        <time>2026-06-27T09:21:05Z</time>
      </trkpt>
      <trkpt lat="46.12875" lon="6.71337">
        <ele>1686</ele>
        <time>2026-06-27T09:21:06Z</time>
      </trkpt>
      <trkpt lat="46.12876" lon="6.71337">
        <ele>1685.9</ele>
        <time>2026-06-27T09:21:07Z</time>
      </trkpt>
      <trkpt lat="46.12876" lon="6.71338">
        <ele>1685.9</ele>
        <time>2026-06-27T09:21:08Z</time>
      </trkpt>
      <trkpt lat="46.12876" lon="6.71338">
        <ele>1685.9</ele>
        <time>2026-06-27T09:21:09Z</time>
      </trkpt>
      <trkpt lat="46.12876" lon="6.71337">
        <ele>1685.9</ele>
        <time>2026-06-27T09:21:10Z</time>
      </trkpt>
      <trkpt lat="46.12876" lon="6.71338">
        <ele>1685.9</ele>
        <time>2026-06-27T09:21:11Z</time>
      </trkpt>
      <trkpt lat="46.12876" lon="6.71337">
        <ele>1685.9</ele>
        <time>2026-06-27T09:21:12Z</time>
      </trkpt>
      <trkpt lat="46.12876" lon="6.71338">
        <ele>1686</ele>
        <time>2026-06-27T09:21:13Z</time>
      </trkpt>
      <trkpt lat="46.12876" lon="6.71337">
        <ele>1686</ele>
        <time>2026-06-27T09:21:14Z</time>
      </trkpt>
      <trkpt lat="46.12876" lon="6.71337">
        <ele>1685.9</ele>
        <time>2026-06-27T09:21:15Z</time>
      </trkpt>
      <trkpt lat="46.12876" lon="6.71337">
        <ele>1685.8</ele>
        <time>2026-06-27T09:21:16Z</time>
      </trkpt>
      <trkpt lat="46.12876" lon="6.71337">
        <ele>1685.8</ele>
        <time>2026-06-27T09:21:17Z</time>
      </trkpt>
      <trkpt lat="46.12876" lon="6.71337">
        <ele>1685.8</ele>
        <time>2026-06-27T09:21:17Z</time>
      </trkpt>
      <trkpt lat="46.12876" lon="6.71337">
        <ele>1685.8</ele>
        <time>2026-06-27T09:21:18Z</time>
      </trkpt>
      <trkpt lat="46.12876" lon="6.71337">
        <ele>1685.7</ele>
        <time>2026-06-27T09:21:18Z</time>
      </trkpt>
    </trkseg>
  </trk>
</gpx>